<?xml version='1.0' encoding='UTF-8'?><gpx version="1.1" creator="JPX - https://github.com/jenetics/jpx" xmlns="http://www.topografix.com/GPX/1/1"><trk><trkseg><trkpt lat="43.50453659852309" lon="10.619055991162236"><ele>320.0</ele><time>2026-04-18T07:18:54.999Z</time></trkpt><trkpt lat="43.50446075675543" lon="10.619111376502586"><ele>320.0</ele><time>2026-04-18T07:18:56.999Z</time></trkpt><trkpt lat="43.5044154582245" lon="10.619199464534592"><ele>320.0</ele><time>2026-04-18T07:18:59.999Z</time></trkpt><trkpt lat="43.50436007671589" lon="10.619299504252037"><ele>320.0</ele><time>2026-04-18T07:19:02.999Z</time></trkpt><trkpt lat="43.50431976189011" lon="10.619376701489257"><ele>320.0</ele><time>2026-04-18T07:19:05.999Z</time></trkpt><trkpt lat="43.504308680593006" lon="10.61947312045874"><ele>320.0</ele><time>2026-04-18T07:19:19.999Z</time></trkpt><trkpt lat="43.50432626315133" lon="10.619588491067816"><ele>318.5</ele><time>2026-04-18T07:19:23.999Z</time></trkpt><trkpt lat="43.50435223609877" lon="10.619686764368613"><ele>317.0</ele><time>2026-04-18T07:19:25.999Z</time></trkpt><trkpt lat="43.50438688562865" lon="10.619778251613335"><ele>315.5</ele><time>2026-04-18T07:19:27.999Z</time></trkpt><trkpt lat="43.50442722918953" lon="10.619860871265955"><ele>314.0</ele><time>2026-04-18T07:19:29.999Z</time></trkpt><trkpt lat="43.50445836781103" lon="10.619955360767696"><ele>312.5</ele><time>2026-04-18T07:19:31.999Z</time></trkpt><trkpt lat="43.504505020119225" lon="10.62004646626872"><ele>311.0</ele><time>2026-04-18T07:19:34.999Z</time></trkpt><trkpt lat="43.50457150481191" lon="10.620106910763985"><ele>310.7142857142857</ele><time>2026-04-18T07:19:39.999Z</time></trkpt><trkpt lat="43.504603796354395" lon="10.620184979605277"><ele>310.42857142857144</ele><time>2026-04-18T07:19:42.999Z</time></trkpt><trkpt lat="43.50467894523051" lon="10.62018693902286"><ele>310.14285714285717</ele><time>2026-04-18T07:19:48.999Z</time></trkpt><trkpt lat="43.504684156251436" lon="10.62027596693504"><ele>309.8571428571429</ele><time>2026-04-18T07:20:07.999Z</time></trkpt><trkpt lat="43.50476391227818" lon="10.620280593674686"><ele>309.57142857142856</ele><time>2026-04-18T07:20:11.999Z</time></trkpt><trkpt lat="43.50479567737308" lon="10.620204884576893"><ele>309.28571428571433</ele><time>2026-04-18T07:20:14.999Z</time></trkpt><trkpt lat="43.50471568431504" lon="10.620243730022853"><ele>309.0</ele><time>2026-04-18T07:20:20.999Z</time></trkpt><trkpt lat="43.504769479648" lon="10.620174399891408"><ele>309.0</ele><time>2026-04-18T07:20:22.999Z</time></trkpt><trkpt lat="43.50481253754264" lon="10.62010332820885"><ele>309.0</ele><time>2026-04-18T07:21:19.999Z</time></trkpt><trkpt lat="43.5048528913644" lon="10.619981730836656"><ele>309.0</ele><time>2026-04-18T07:22:01.999Z</time></trkpt><trkpt lat="43.50491962696298" lon="10.619923030192592"><ele>309.0</ele><time>2026-04-18T07:22:03.999Z</time></trkpt><trkpt lat="43.504981044631975" lon="10.619855327031214"><ele>309.0</ele><time>2026-04-18T07:22:05.999Z</time></trkpt><trkpt lat="43.505030134498476" lon="10.619780149764644"><ele>309.0</ele><time>2026-04-18T07:22:07.999Z</time></trkpt><trkpt lat="43.50506623265821" lon="10.619689545287043"><ele>309.0</ele><time>2026-04-18T07:22:09.999Z</time></trkpt><trkpt lat="43.505096052481704" lon="10.619569462743446"><ele>309.0</ele><time>2026-04-18T07:22:11.999Z</time></trkpt><trkpt lat="43.50514022074319" lon="10.619457914015934"><ele>309.0</ele><time>2026-04-18T07:22:13.999Z</time></trkpt><trkpt lat="43.50516884131645" lon="10.619375280368768"><ele>309.0</ele><time>2026-04-18T07:22:14.999Z</time></trkpt><trkpt lat="43.50523274396316" lon="10.619322579397204"><ele>309.0</ele><time>2026-04-18T07:22:16.999Z</time></trkpt><trkpt lat="43.505312121988375" lon="10.619323154047898"><ele>309.0</ele><time>2026-04-18T07:22:18.998Z</time></trkpt><trkpt lat="43.50540438307639" lon="10.61936092082052"><ele>307.2</ele><time>2026-04-18T07:22:20.998Z</time></trkpt><trkpt lat="43.505503226875554" lon="10.619391355322856"><ele>305.4</ele><time>2026-04-18T07:22:22.998Z</time></trkpt><trkpt lat="43.50560153973238" lon="10.619440111254722"><ele>303.6</ele><time>2026-04-18T07:22:24.998Z</time></trkpt><trkpt lat="43.50569988777257" lon="10.619478134821732"><ele>301.8</ele><time>2026-04-18T07:22:26.998Z</time></trkpt><trkpt lat="43.50580418532287" lon="10.61947783786561"><ele>300.0</ele><time>2026-04-18T07:22:28.998Z</time></trkpt><trkpt lat="43.50591012433308" lon="10.619442227313007"><ele>300.0</ele><time>2026-04-18T07:22:30.998Z</time></trkpt><trkpt lat="43.50599310682616" lon="10.619390309427049"><ele>300.0</ele><time>2026-04-18T07:22:32.999Z</time></trkpt><trkpt lat="43.506114229466256" lon="10.61938547509044"><ele>300.0</ele><time>2026-04-18T07:22:34.999Z</time></trkpt><trkpt lat="43.50621252575989" lon="10.619336841618127"><ele>300.0</ele><time>2026-04-18T07:22:36.999Z</time></trkpt><trkpt lat="43.50631776996698" lon="10.619338529034735"><ele>300.0</ele><time>2026-04-18T07:22:38.999Z</time></trkpt><trkpt lat="43.506419574182274" lon="10.619344786437402"><ele>297.8</ele><time>2026-04-18T07:22:40.999Z</time></trkpt><trkpt lat="43.506513301993735" lon="10.619357833974629"><ele>295.6</ele><time>2026-04-18T07:22:42.999Z</time></trkpt><trkpt lat="43.506611238986785" lon="10.619336175742175"><ele>293.4</ele><time>2026-04-18T07:22:44.999Z</time></trkpt><trkpt lat="43.506689406614704" lon="10.619296737656652"><ele>291.2</ele><time>2026-04-18T07:22:46.999Z</time></trkpt><trkpt lat="43.50678210356958" lon="10.619278056129284"><ele>289.0</ele><time>2026-04-18T07:22:48.999Z</time></trkpt><trkpt lat="43.50686663911949" lon="10.619238397974065"><ele>289.0</ele><time>2026-04-18T07:22:50.999Z</time></trkpt><trkpt lat="43.50692139054998" lon="10.619186330657104"><ele>289.0</ele><time>2026-04-18T07:22:51.999Z</time></trkpt><trkpt lat="43.50697040275249" lon="10.619122034674321"><ele>289.0</ele><time>2026-04-18T07:22:52.999Z</time></trkpt><trkpt lat="43.50700281584186" lon="10.619047075519878"><ele>289.0</ele><time>2026-04-18T07:22:53.999Z</time></trkpt><trkpt lat="43.507094134290035" lon="10.618960880583778"><ele>289.0</ele><time>2026-04-18T07:22:55.999Z</time></trkpt><trkpt lat="43.50719657714767" lon="10.618871530593175"><ele>289.0</ele><time>2026-04-18T07:22:57.999Z</time></trkpt><trkpt lat="43.50726173947498" lon="10.618828714798127"><ele>288.2</ele><time>2026-04-18T07:22:58.999Z</time></trkpt><trkpt lat="43.50736324795798" lon="10.618777685125046"><ele>287.4</ele><time>2026-04-18T07:23:00.999Z</time></trkpt><trkpt lat="43.50743716741155" lon="10.61875615009945"><ele>286.6</ele><time>2026-04-18T07:23:02.999Z</time></trkpt><trkpt lat="43.50751828181311" lon="10.618725468016192"><ele>285.8</ele><time>2026-04-18T07:23:04.999Z</time></trkpt><trkpt lat="43.50761258704137" lon="10.618649941677194"><ele>285.0</ele><time>2026-04-18T07:23:06.999Z</time></trkpt><trkpt lat="43.507700539571175" lon="10.618552789731735"><ele>285.0</ele><time>2026-04-18T07:23:08.999Z</time></trkpt><trkpt lat="43.5077768863224" lon="10.618454115758254"><ele>285.0</ele><time>2026-04-18T07:23:10.999Z</time></trkpt><trkpt lat="43.50785466530007" lon="10.618335363752944"><ele>285.0</ele><time>2026-04-18T07:23:12.999Z</time></trkpt><trkpt lat="43.50792229816979" lon="10.618209168410047"><ele>285.0</ele><time>2026-04-18T07:23:14.999Z</time></trkpt><trkpt lat="43.50800066686326" lon="10.618083863258958"><ele>285.6666666666667</ele><time>2026-04-18T07:23:16.999Z</time></trkpt><trkpt lat="43.5080548929417" lon="10.61793796029189"><ele>286.3333333333333</ele><time>2026-04-18T07:23:18.999Z</time></trkpt><trkpt lat="43.508092966527165" lon="10.617862751874428"><ele>287.0</ele><time>2026-04-18T07:23:19.999Z</time></trkpt><trkpt lat="43.508120277862346" lon="10.617783833671735"><ele>287.66666666666663</ele><time>2026-04-18T07:23:20.999Z</time></trkpt><trkpt lat="43.508146818780695" lon="10.617703934944034"><ele>288.3333333333333</ele><time>2026-04-18T07:23:21.999Z</time></trkpt><trkpt lat="43.50817552198434" lon="10.617624233410108"><ele>289.0</ele><time>2026-04-18T07:23:22.999Z</time></trkpt><trkpt lat="43.508225478907285" lon="10.617463384025147"><ele>289.0</ele><time>2026-04-18T07:23:24.999Z</time></trkpt><trkpt lat="43.50825117971616" lon="10.617383771944636"><ele>289.0</ele><time>2026-04-18T07:23:25.999Z</time></trkpt><trkpt lat="43.50829648316507" lon="10.61724352059258"><ele>289.0</ele><time>2026-04-18T07:23:27.999Z</time></trkpt><trkpt lat="43.50834940639571" lon="10.61712425916259"><ele>289.0</ele><time>2026-04-18T07:23:29.999Z</time></trkpt><trkpt lat="43.508428756535814" lon="10.616999415031126"><ele>289.0</ele><time>2026-04-18T07:23:31.999Z</time></trkpt><trkpt lat="43.50847065566932" lon="10.61693315707595"><ele>289.5</ele><time>2026-04-18T07:23:32.999Z</time></trkpt><trkpt lat="43.50852179456266" lon="10.616870132957889"><ele>290.0</ele><time>2026-04-18T07:23:33.999Z</time></trkpt><trkpt lat="43.508569866360936" lon="10.61680387171001"><ele>290.5</ele><time>2026-04-18T07:23:34.999Z</time></trkpt><trkpt lat="43.50862084886004" lon="10.616745010462882"><ele>291.0</ele><time>2026-04-18T07:23:35.999Z</time></trkpt><trkpt lat="43.50871518178586" lon="10.616639796060387"><ele>291.5</ele><time>2026-04-18T07:23:37.999Z</time></trkpt><trkpt lat="43.508788801139566" lon="10.616559089274633"><ele>292.0</ele><time>2026-04-18T07:23:39.999Z</time></trkpt><trkpt lat="43.50885192175904" lon="10.61647669611075"><ele>292.0</ele><time>2026-04-18T07:23:41.999Z</time></trkpt><trkpt lat="43.508920296344016" lon="10.616422112635455"><ele>292.0</ele><time>2026-04-18T07:23:43.999Z</time></trkpt><trkpt lat="43.50899197724021" lon="10.616371939871776"><ele>292.0</ele><time>2026-04-18T07:23:45.999Z</time></trkpt><trkpt lat="43.50906500668719" lon="10.616390888613902"><ele>292.0</ele><time>2026-04-18T07:23:48.999Z</time></trkpt><trkpt lat="43.50910278654039" lon="10.616570493386694"><ele>292.0</ele><time>2026-04-18T07:23:49.999Z</time></trkpt><trkpt lat="43.50913580783787" lon="10.61664467338327"><ele>292.0</ele><time>2026-04-18T07:23:50.999Z</time></trkpt><trkpt lat="43.50917461116721" lon="10.616723528044309"><ele>292.0</ele><time>2026-04-18T07:23:51.999Z</time></trkpt><trkpt lat="43.50921370508824" lon="10.616794038756217"><ele>292.0</ele><time>2026-04-18T07:23:52.999Z</time></trkpt><trkpt lat="43.50925961092561" lon="10.616873587965173"><ele>292.0</ele><time>2026-04-18T07:23:53.999Z</time></trkpt><trkpt lat="43.509316488599765" lon="10.61693812270206"><ele>292.0</ele><time>2026-04-18T07:23:54.999Z</time></trkpt><trkpt lat="43.5093525166367" lon="10.617022582936427"><ele>292.0</ele><time>2026-04-18T07:23:55.999Z</time></trkpt><trkpt lat="43.509397988320295" lon="10.61710349285658"><ele>292.0</ele><time>2026-04-18T07:23:56.999Z</time></trkpt><trkpt lat="43.50944124901767" lon="10.617181123913774"><ele>292.0</ele><time>2026-04-18T07:23:57.999Z</time></trkpt><trkpt lat="43.50948388621751" lon="10.617265626256154"><ele>291.16666666666663</ele><time>2026-04-18T07:23:58.999Z</time></trkpt><trkpt lat="43.50953267139955" lon="10.61734890606944"><ele>290.3333333333333</ele><time>2026-04-18T07:23:59.999Z</time></trkpt><trkpt lat="43.5095817827057" lon="10.617442114904946"><ele>289.5</ele><time>2026-04-18T07:24:00.999Z</time></trkpt><trkpt lat="43.509632086391946" lon="10.617536376645978"><ele>288.6666666666667</ele><time>2026-04-18T07:24:01.999Z</time></trkpt><trkpt lat="43.509678971645556" lon="10.617622086385724"><ele>287.83333333333337</ele><time>2026-04-18T07:24:02.999Z</time></trkpt><trkpt lat="43.50971932771079" lon="10.61770088246512"><ele>287.0</ele><time>2026-04-18T07:24:03.999Z</time></trkpt><trkpt lat="43.50974060531564" lon="10.61778395986192"><ele>286.2</ele><time>2026-04-18T07:24:04.999Z</time></trkpt><trkpt lat="43.50981568028176" lon="10.61790752021571"><ele>285.4</ele><time>2026-04-18T07:24:06.999Z</time></trkpt><trkpt lat="43.50986740135233" lon="10.618050246432409"><ele>284.6</ele><time>2026-04-18T07:24:08.999Z</time></trkpt><trkpt lat="43.50991880425593" lon="10.618202156712613"><ele>283.8</ele><time>2026-04-18T07:24:10.999Z</time></trkpt><trkpt lat="43.509930507160014" lon="10.618290642003972"><ele>283.0</ele><time>2026-04-18T07:24:11.999Z</time></trkpt><trkpt lat="43.50994107070569" lon="10.618377179554779"><ele>283.0</ele><time>2026-04-18T07:24:12.999Z</time></trkpt><trkpt lat="43.51001931847443" lon="10.61852333618811"><ele>283.0</ele><time>2026-04-18T07:24:14.999Z</time></trkpt><trkpt lat="43.51007651897363" lon="10.618583947915438"><ele>283.0</ele><time>2026-04-18T07:24:15.999Z</time></trkpt><trkpt lat="43.51014424592451" lon="10.61860999188242"><ele>283.0</ele><time>2026-04-18T07:24:16.999Z</time></trkpt><trkpt lat="43.51022422648477" lon="10.618590625688784"><ele>283.0</ele><time>2026-04-18T07:24:17.999Z</time></trkpt><trkpt lat="43.51029179395664" lon="10.618547866039385"><ele>283.0</ele><time>2026-04-18T07:24:18.999Z</time></trkpt><trkpt lat="43.51034957972447" lon="10.618486048637322"><ele>281.0</ele><time>2026-04-18T07:24:19.999Z</time></trkpt><trkpt lat="43.51043060464315" lon="10.618428957640756"><ele>279.0</ele><time>2026-04-18T07:24:20.999Z</time></trkpt><trkpt lat="43.51050080028427" lon="10.618355386358264"><ele>277.0</ele><time>2026-04-18T07:24:21.999Z</time></trkpt><trkpt lat="43.51058293551281" lon="10.618285025758242"><ele>275.0</ele><time>2026-04-18T07:24:22.999Z</time></trkpt><trkpt lat="43.510680194061216" lon="10.618233351841992"><ele>273.0</ele><time>2026-04-18T07:24:23.998Z</time></trkpt><trkpt lat="43.51077667682129" lon="10.618201863300406"><ele>273.0</ele><time>2026-04-18T07:24:24.998Z</time></trkpt><trkpt lat="43.5108700025381" lon="10.618186003619908"><ele>273.0</ele><time>2026-04-18T07:24:25.998Z</time></trkpt><trkpt lat="43.510964398927534" lon="10.618212727767904"><ele>273.0</ele><time>2026-04-18T07:24:26.998Z</time></trkpt><trkpt lat="43.51105104326518" lon="10.618229839368704"><ele>273.0</ele><time>2026-04-18T07:24:27.998Z</time></trkpt><trkpt lat="43.511142207010245" lon="10.618247561812609"><ele>273.0</ele><time>2026-04-18T07:24:28.998Z</time></trkpt><trkpt lat="43.511230392911465" lon="10.618241701962745"><ele>271.5</ele><time>2026-04-18T07:24:29.998Z</time></trkpt><trkpt lat="43.511303432780615" lon="10.618257845322905"><ele>270.0</ele><time>2026-04-18T07:24:30.998Z</time></trkpt><trkpt lat="43.51138634872212" lon="10.618279456387548"><ele>268.5</ele><time>2026-04-18T07:24:31.998Z</time></trkpt><trkpt lat="43.51147089057719" lon="10.61831843505913"><ele>267.0</ele><time>2026-04-18T07:24:32.998Z</time></trkpt><trkpt lat="43.511560686666144" lon="10.61832263073452"><ele>265.5</ele><time>2026-04-18T07:24:33.998Z</time></trkpt><trkpt lat="43.51164178106431" lon="10.618348601579974"><ele>264.0</ele><time>2026-04-18T07:24:34.998Z</time></trkpt><trkpt lat="43.51172414725579" lon="10.61838629741364"><ele>264.0</ele><time>2026-04-18T07:24:35.998Z</time></trkpt><trkpt lat="43.511801577465995" lon="10.618436746458851"><ele>264.0</ele><time>2026-04-18T07:24:36.998Z</time></trkpt><trkpt lat="43.51187516128335" lon="10.618496509574616"><ele>264.0</ele><time>2026-04-18T07:24:37.998Z</time></trkpt><trkpt lat="43.511946318985764" lon="10.618566470783191"><ele>264.0</ele><time>2026-04-18T07:24:38.999Z</time></trkpt><trkpt lat="43.51201725587743" lon="10.61864170141379"><ele>264.0</ele><time>2026-04-18T07:24:39.999Z</time></trkpt><trkpt lat="43.512094179484905" lon="10.618720989072878"><ele>264.0</ele><time>2026-04-18T07:24:40.999Z</time></trkpt><trkpt lat="43.51217748948715" lon="10.618794790462761"><ele>262.2</ele><time>2026-04-18T07:24:41.999Z</time></trkpt><trkpt lat="43.51226634230894" lon="10.618860902811592"><ele>260.4</ele><time>2026-04-18T07:24:42.999Z</time></trkpt><trkpt lat="43.51236999989869" lon="10.618896574903117"><ele>258.6</ele><time>2026-04-18T07:24:43.999Z</time></trkpt><trkpt lat="43.51247590195281" lon="10.618949721091953"><ele>256.8</ele><time>2026-04-18T07:24:44.999Z</time></trkpt><trkpt lat="43.51257654104133" lon="10.619023392211552"><ele>255.0</ele><time>2026-04-18T07:24:45.999Z</time></trkpt><trkpt lat="43.5126881672439" lon="10.619056605339315"><ele>255.0</ele><time>2026-04-18T07:24:46.999Z</time></trkpt><trkpt lat="43.51279755779006" lon="10.61911251965278"><ele>255.0</ele><time>2026-04-18T07:24:47.999Z</time></trkpt><trkpt lat="43.51291364905923" lon="10.619173016733006"><ele>255.0</ele><time>2026-04-18T07:24:48.999Z</time></trkpt><trkpt lat="43.51302955099013" lon="10.61923064299678"><ele>255.0</ele><time>2026-04-18T07:24:49.999Z</time></trkpt><trkpt lat="43.513138337721344" lon="10.619289353095503"><ele>252.75</ele><time>2026-04-18T07:24:50.999Z</time></trkpt><trkpt lat="43.51325974818245" lon="10.61934739020114"><ele>250.5</ele><time>2026-04-18T07:24:51.999Z</time></trkpt><trkpt lat="43.5133823238641" lon="10.619404894105124"><ele>248.25</ele><time>2026-04-18T07:24:52.999Z</time></trkpt><trkpt lat="43.5135003105113" lon="10.61945867881128"><ele>246.0</ele><time>2026-04-18T07:24:53.999Z</time></trkpt><trkpt lat="43.51361683773581" lon="10.619510601309546"><ele>245.20000000000002</ele><time>2026-04-18T07:24:54.999Z</time></trkpt><trkpt lat="43.51372100664316" lon="10.61955748778437"><ele>244.40000000000003</ele><time>2026-04-18T07:24:55.999Z</time></trkpt><trkpt lat="43.5138153648162" lon="10.619599949945863"><ele>243.6</ele><time>2026-04-18T07:24:56.999Z</time></trkpt><trkpt lat="43.51389640410681" lon="10.619641191958623"><ele>242.8</ele><time>2026-04-18T07:24:57.999Z</time></trkpt><trkpt lat="43.51396041944681" lon="10.61969876547669"><ele>242.0</ele><time>2026-04-18T07:24:58.999Z</time></trkpt><trkpt lat="43.514023692941926" lon="10.619776397509474"><ele>240.5</ele><time>2026-04-18T07:24:59.999Z</time></trkpt><trkpt lat="43.51406672886896" lon="10.61988282574373"><ele>239.0</ele><time>2026-04-18T07:25:00.999Z</time></trkpt><trkpt lat="43.51406690472551" lon="10.62003195541845"><ele>237.5</ele><time>2026-04-18T07:25:01.999Z</time></trkpt><trkpt lat="43.514009835139696" lon="10.620241520946816"><ele>236.0</ele><time>2026-04-18T07:25:03.999Z</time></trkpt><trkpt lat="43.51396591258801" lon="10.620358049162098"><ele>235.60000000000002</ele><time>2026-04-18T07:25:04.999Z</time></trkpt><trkpt lat="43.51390197391748" lon="10.620457430367807"><ele>235.20000000000002</ele><time>2026-04-18T07:25:05.999Z</time></trkpt><trkpt lat="43.51382970262279" lon="10.620547279702828"><ele>234.79999999999998</ele><time>2026-04-18T07:25:06.999Z</time></trkpt><trkpt lat="43.51377096917676" lon="10.62064030181569"><ele>234.39999999999998</ele><time>2026-04-18T07:25:07.999Z</time></trkpt><trkpt lat="43.51370205806293" lon="10.62073264177563"><ele>234.0</ele><time>2026-04-18T07:25:08.999Z</time></trkpt><trkpt lat="43.513638389112714" lon="10.620823271369884"><ele>234.0</ele><time>2026-04-18T07:25:09.999Z</time></trkpt><trkpt lat="43.51357480599662" lon="10.620901101518571"><ele>234.0</ele><time>2026-04-18T07:25:10.999Z</time></trkpt><trkpt lat="43.513526680063954" lon="10.620980864258263"><ele>234.0</ele><time>2026-04-18T07:25:11.999Z</time></trkpt><trkpt lat="43.513471733715996" lon="10.621062073925884"><ele>234.0</ele><time>2026-04-18T07:25:12.999Z</time></trkpt><trkpt lat="43.5134370299251" lon="10.62116296254045"><ele>234.0</ele><time>2026-04-18T07:25:13.999Z</time></trkpt><trkpt lat="43.51342088832563" lon="10.621267194245299"><ele>234.0</ele><time>2026-04-18T07:25:14.999Z</time></trkpt><trkpt lat="43.51344201092787" lon="10.621370000549303"><ele>232.39999999999998</ele><time>2026-04-18T07:25:15.999Z</time></trkpt><trkpt lat="43.513487393360535" lon="10.621471975771733"><ele>230.79999999999998</ele><time>2026-04-18T07:25:16.999Z</time></trkpt><trkpt lat="43.5135568976694" lon="10.62154328087962"><ele>229.20000000000002</ele><time>2026-04-18T07:25:17.999Z</time></trkpt><trkpt lat="43.513642906192544" lon="10.621599308907664"><ele>227.60000000000002</ele><time>2026-04-18T07:25:18.999Z</time></trkpt><trkpt lat="43.513739878644245" lon="10.621628772216333"><ele>226.0</ele><time>2026-04-18T07:25:19.999Z</time></trkpt><trkpt lat="43.51384217329635" lon="10.621652145863932"><ele>225.4</ele><time>2026-04-18T07:25:20.999Z</time></trkpt><trkpt lat="43.513943812325664" lon="10.6216870622147"><ele>224.8</ele><time>2026-04-18T07:25:21.999Z</time></trkpt><trkpt lat="43.51404865155463" lon="10.621736670184141"><ele>224.20000000000002</ele><time>2026-04-18T07:25:22.999Z</time></trkpt><trkpt lat="43.5141504890243" lon="10.621786829707295"><ele>223.60000000000002</ele><time>2026-04-18T07:25:23.999Z</time></trkpt><trkpt lat="43.514249536129" lon="10.621869763185206"><ele>223.0</ele><time>2026-04-18T07:25:24.999Z</time></trkpt><trkpt lat="43.5143363766185" lon="10.621937282228673"><ele>221.60000000000002</ele><time>2026-04-18T07:25:25.999Z</time></trkpt><trkpt lat="43.51443669572269" lon="10.622001624452825"><ele>220.20000000000002</ele><time>2026-04-18T07:25:26.999Z</time></trkpt><trkpt lat="43.51454149361415" lon="10.622063805313022"><ele>218.8</ele><time>2026-04-18T07:25:27.999Z</time></trkpt><trkpt lat="43.51463410933232" lon="10.622108521158022"><ele>217.4</ele><time>2026-04-18T07:25:28.999Z</time></trkpt><trkpt lat="43.51473437204885" lon="10.622139969692709"><ele>216.0</ele><time>2026-04-18T07:25:29.999Z</time></trkpt><trkpt lat="43.514847305586" lon="10.622173317285343"><ele>215.60000000000002</ele><time>2026-04-18T07:25:30.999Z</time></trkpt><trkpt lat="43.51494576268063" lon="10.622191046510112"><ele>215.20000000000002</ele><time>2026-04-18T07:25:31.999Z</time></trkpt><trkpt lat="43.51503804999258" lon="10.622196367390767"><ele>214.79999999999998</ele><time>2026-04-18T07:25:32.999Z</time></trkpt><trkpt lat="43.51514688838349" lon="10.622200601421193"><ele>214.39999999999998</ele><time>2026-04-18T07:25:33.999Z</time></trkpt><trkpt lat="43.5152638864537" lon="10.62220754654712"><ele>214.0</ele><time>2026-04-18T07:25:34.999Z</time></trkpt><trkpt lat="43.51538760340555" lon="10.622218205385932"><ele>212.5</ele><time>2026-04-18T07:25:35.999Z</time></trkpt><trkpt lat="43.51552867894498" lon="10.62222135425343"><ele>211.0</ele><time>2026-04-18T07:25:36.999Z</time></trkpt><trkpt lat="43.5156691613811" lon="10.62222194531045"><ele>209.5</ele><time>2026-04-18T07:25:37.999Z</time></trkpt><trkpt lat="43.51580468195756" lon="10.622227042828486"><ele>208.0</ele><time>2026-04-18T07:25:38.999Z</time></trkpt><trkpt lat="43.515926678495546" lon="10.622237881171916"><ele>208.0</ele><time>2026-04-18T07:25:39.999Z</time></trkpt><trkpt lat="43.516052362998906" lon="10.622266960286415"><ele>208.0</ele><time>2026-04-18T07:25:40.999Z</time></trkpt><trkpt lat="43.51617811391628" lon="10.622314515249391"><ele>208.0</ele><time>2026-04-18T07:25:41.999Z</time></trkpt><trkpt lat="43.5162966164585" lon="10.622381190958015"><ele>208.0</ele><time>2026-04-18T07:25:42.999Z</time></trkpt><trkpt lat="43.51640155262669" lon="10.622467057513768"><ele>206.75</ele><time>2026-04-18T07:25:43.999Z</time></trkpt><trkpt lat="43.51649303480917" lon="10.622565764119274"><ele>205.5</ele><time>2026-04-18T07:25:44.999Z</time></trkpt><trkpt lat="43.51657727666761" lon="10.622677291926514"><ele>204.25</ele><time>2026-04-18T07:25:45.999Z</time></trkpt><trkpt lat="43.516653886647745" lon="10.622804908887044"><ele>203.0</ele><time>2026-04-18T07:25:46.999Z</time></trkpt><trkpt lat="43.51672164706998" lon="10.622944988208808"><ele>202.8</ele><time>2026-04-18T07:25:47.999Z</time></trkpt><trkpt lat="43.51678001028365" lon="10.623091775266058"><ele>202.60000000000002</ele><time>2026-04-18T07:25:48.999Z</time></trkpt><trkpt lat="43.516828889391704" lon="10.623245574066477"><ele>202.39999999999998</ele><time>2026-04-18T07:25:49.999Z</time></trkpt><trkpt lat="43.516871787740776" lon="10.623377134723315"><ele>202.2</ele><time>2026-04-18T07:25:50.999Z</time></trkpt><trkpt lat="43.516901101260515" lon="10.623489808717624"><ele>202.0</ele><time>2026-04-18T07:25:51.999Z</time></trkpt><trkpt lat="43.51692679213246" lon="10.623595766738791"><ele>201.8</ele><time>2026-04-18T07:25:52.999Z</time></trkpt><trkpt lat="43.51695370868136" lon="10.623711456609863"><ele>201.6</ele><time>2026-04-18T07:25:53.999Z</time></trkpt><trkpt lat="43.51698554076425" lon="10.623830607172824"><ele>201.4</ele><time>2026-04-18T07:25:54.999Z</time></trkpt><trkpt lat="43.51704059179955" lon="10.623941041508518"><ele>201.20000000000002</ele><time>2026-04-18T07:25:55.999Z</time></trkpt><trkpt lat="43.51711674227567" lon="10.624030716417705"><ele>201.0</ele><time>2026-04-18T07:25:56.999Z</time></trkpt><trkpt lat="43.51721128493571" lon="10.62409731661729"><ele>198.75</ele><time>2026-04-18T07:25:57.999Z</time></trkpt><trkpt lat="43.51731836895405" lon="10.624156213065172"><ele>196.5</ele><time>2026-04-18T07:25:58.999Z</time></trkpt><trkpt lat="43.517433451956954" lon="10.624167921651564"><ele>194.25</ele><time>2026-04-18T07:25:59.999Z</time></trkpt><trkpt lat="43.51755829029114" lon="10.624201035293334"><ele>192.0</ele><time>2026-04-18T07:26:00.999Z</time></trkpt><trkpt lat="43.517683373563365" lon="10.624232585737644"><ele>192.0</ele><time>2026-04-18T07:26:01.999Z</time></trkpt><trkpt lat="43.5178189946933" lon="10.624266011533306"><ele>192.0</ele><time>2026-04-18T07:26:02.999Z</time></trkpt><trkpt lat="43.517961317772325" lon="10.624306246447292"><ele>192.0</ele><time>2026-04-18T07:26:04Z</time></trkpt><trkpt lat="43.51810730409552" lon="10.624348709040234"><ele>192.0</ele><time>2026-04-18T07:26:05Z</time></trkpt><trkpt lat="43.518248254912685" lon="10.62438517439594"><ele>189.0</ele><time>2026-04-18T07:26:06Z</time></trkpt><trkpt lat="43.51837640359143" lon="10.62442062938724"><ele>186.0</ele><time>2026-04-18T07:26:07Z</time></trkpt><trkpt lat="43.518505567739034" lon="10.624451535702288"><ele>183.0</ele><time>2026-04-18T07:26:08Z</time></trkpt><trkpt lat="43.5185988205638" lon="10.624481158157941"><ele>180.0</ele><time>2026-04-18T07:26:09Z</time></trkpt><trkpt lat="43.51872351308406" lon="10.624514425703392"><ele>178.4</ele><time>2026-04-18T07:26:10Z</time></trkpt><trkpt lat="43.5188152920959" lon="10.624542086396051"><ele>176.8</ele><time>2026-04-18T07:26:11Z</time></trkpt><trkpt lat="43.51892276300598" lon="10.624564004296722"><ele>175.2</ele><time>2026-04-18T07:26:12Z</time></trkpt><trkpt lat="43.51902668826149" lon="10.624586423885019"><ele>173.6</ele><time>2026-04-18T07:26:13Z</time></trkpt><trkpt lat="43.51911813117669" lon="10.624609505077306"><ele>172.0</ele><time>2026-04-18T07:26:14Z</time></trkpt><trkpt lat="43.51920422525541" lon="10.624642633424534"><ele>172.0</ele><time>2026-04-18T07:26:15Z</time></trkpt><trkpt lat="43.519294512911046" lon="10.624697799678472"><ele>172.0</ele><time>2026-04-18T07:26:17Z</time></trkpt><trkpt lat="43.519362552671126" lon="10.624694763082095"><ele>172.0</ele><time>2026-04-18T07:26:19Z</time></trkpt><trkpt lat="43.51942737069918" lon="10.624708220889143"><ele>172.0</ele><time>2026-04-18T07:26:21Z</time></trkpt><trkpt lat="43.519519052195626" lon="10.624755057585707"><ele>172.0</ele><time>2026-04-18T07:26:23Z</time></trkpt><trkpt lat="43.51958258825235" lon="10.624795925809188"><ele>172.0</ele><time>2026-04-18T07:26:25Z</time></trkpt><trkpt lat="43.51967896479794" lon="10.624863724332071"><ele>171.00000000000003</ele><time>2026-04-18T07:26:27Z</time></trkpt><trkpt lat="43.519730429761374" lon="10.62491498878267"><ele>170.0</ele><time>2026-04-18T07:26:28Z</time></trkpt><trkpt lat="43.5197835435943" lon="10.62496611274981"><ele>169.0</ele><time>2026-04-18T07:26:29Z</time></trkpt><trkpt lat="43.519838025496746" lon="10.625017785642967"><ele>168.0</ele><time>2026-04-18T07:26:29.999Z</time></trkpt><trkpt lat="43.51989686316461" lon="10.625065791934807"><ele>167.0</ele><time>2026-04-18T07:26:30.999Z</time></trkpt><trkpt lat="43.51995519576566" lon="10.625126527103403"><ele>166.00000000000003</ele><time>2026-04-18T07:26:31.999Z</time></trkpt><trkpt lat="43.52001717782179" lon="10.625186395126658"><ele>165.0</ele><time>2026-04-18T07:26:32.999Z</time></trkpt><trkpt lat="43.52007918031252" lon="10.625250254748407"><ele>164.83333333333334</ele><time>2026-04-18T07:26:33.999Z</time></trkpt><trkpt lat="43.52014182196926" lon="10.625313520982582"><ele>164.66666666666666</ele><time>2026-04-18T07:26:34.999Z</time></trkpt><trkpt lat="43.52020538206332" lon="10.625373108245824"><ele>164.5</ele><time>2026-04-18T07:26:35.999Z</time></trkpt><trkpt lat="43.520280546180786" lon="10.625427602854153"><ele>164.33333333333331</ele><time>2026-04-18T07:26:36.999Z</time></trkpt><trkpt lat="43.52036407274851" lon="10.625477637426952"><ele>164.16666666666666</ele><time>2026-04-18T07:26:37.999Z</time></trkpt><trkpt lat="43.52043487201201" lon="10.625518926124869"><ele>164.0</ele><time>2026-04-18T07:26:38.999Z</time></trkpt><trkpt lat="43.52049718223702" lon="10.625570382172182"><ele>164.0</ele><time>2026-04-18T07:26:39.999Z</time></trkpt><trkpt lat="43.52054393473965" lon="10.625659907188956"><ele>164.0</ele><time>2026-04-18T07:26:40.999Z</time></trkpt><trkpt lat="43.52058204638278" lon="10.625747843865707"><ele>164.0</ele><time>2026-04-18T07:26:41.999Z</time></trkpt><trkpt lat="43.52061985915284" lon="10.62583594376595"><ele>164.0</ele><time>2026-04-18T07:26:42.999Z</time></trkpt><trkpt lat="43.52064787312516" lon="10.62594342124693"><ele>164.0</ele><time>2026-04-18T07:26:43.999Z</time></trkpt><trkpt lat="43.520676526559654" lon="10.626052898130633"><ele>164.0</ele><time>2026-04-18T07:26:44.999Z</time></trkpt><trkpt lat="43.52071427610582" lon="10.626159360560152"><ele>164.0</ele><time>2026-04-18T07:26:45.999Z</time></trkpt><trkpt lat="43.52075930717776" lon="10.626246846453606"><ele>164.0</ele><time>2026-04-18T07:26:46.999Z</time></trkpt><trkpt lat="43.52082362824787" lon="10.626311256542653"><ele>164.0</ele><time>2026-04-18T07:26:47.999Z</time></trkpt><trkpt lat="43.52088758159395" lon="10.626346176577014"><ele>164.0</ele><time>2026-04-18T07:26:48.999Z</time></trkpt><trkpt lat="43.52095579562691" lon="10.626389140492794"><ele>164.0</ele><time>2026-04-18T07:26:49.999Z</time></trkpt><trkpt lat="43.52103546072301" lon="10.626432047334045"><ele>164.0</ele><time>2026-04-18T07:26:50.999Z</time></trkpt><trkpt lat="43.521118066830645" lon="10.626477623192873"><ele>164.0</ele><time>2026-04-18T07:26:51.999Z</time></trkpt><trkpt lat="43.52120275618554" lon="10.626520352036291"><ele>164.0</ele><time>2026-04-18T07:26:52.999Z</time></trkpt><trkpt lat="43.521290876129086" lon="10.626573638828718"><ele>164.0</ele><time>2026-04-18T07:26:53.999Z</time></trkpt><trkpt lat="43.521378646870616" lon="10.626642402664347"><ele>164.0</ele><time>2026-04-18T07:26:54.999Z</time></trkpt><trkpt lat="43.52146377626262" lon="10.626693612563676"><ele>164.0</ele><time>2026-04-18T07:26:55.999Z</time></trkpt><trkpt lat="43.521558472396066" lon="10.626747860329953"><ele>163.79999999999998</ele><time>2026-04-18T07:26:56.999Z</time></trkpt><trkpt lat="43.521653253135746" lon="10.626805904518797"><ele>163.6</ele><time>2026-04-18T07:26:57.999Z</time></trkpt><trkpt lat="43.521743880159924" lon="10.626864588568472"><ele>163.4</ele><time>2026-04-18T07:26:58.999Z</time></trkpt><trkpt lat="43.52183650857418" lon="10.626916502333172"><ele>163.2</ele><time>2026-04-18T07:26:59.999Z</time></trkpt><trkpt lat="43.52193176915783" lon="10.626965605525323"><ele>163.0</ele><time>2026-04-18T07:27:00.999Z</time></trkpt><trkpt lat="43.52202382304097" lon="10.627001502393307"><ele>161.8</ele><time>2026-04-18T07:27:01.999Z</time></trkpt><trkpt lat="43.52211532423762" lon="10.627027800693803"><ele>160.60000000000002</ele><time>2026-04-18T07:27:02.999Z</time></trkpt><trkpt lat="43.522217001654695" lon="10.627066553702635"><ele>159.39999999999998</ele><time>2026-04-18T07:27:03.999Z</time></trkpt><trkpt lat="43.5223128041377" lon="10.62709883200322"><ele>158.2</ele><time>2026-04-18T07:27:04.999Z</time></trkpt><trkpt lat="43.522413020840176" lon="10.627123319046355"><ele>157.0</ele><time>2026-04-18T07:27:05.999Z</time></trkpt><trkpt lat="43.52252635041215" lon="10.6271486558006"><ele>157.0</ele><time>2026-04-18T07:27:06.999Z</time></trkpt><trkpt lat="43.52264488469106" lon="10.627196412616218"><ele>157.0</ele><time>2026-04-18T07:27:07.999Z</time></trkpt><trkpt lat="43.52275857838423" lon="10.62723273685921"><ele>157.0</ele><time>2026-04-18T07:27:08.999Z</time></trkpt><trkpt lat="43.52287418955527" lon="10.627257440039356"><ele>157.0</ele><time>2026-04-18T07:27:09.999Z</time></trkpt><trkpt lat="43.522977547124746" lon="10.627278602865797"><ele>155.83333333333334</ele><time>2026-04-18T07:27:10.999Z</time></trkpt><trkpt lat="43.52307603277343" lon="10.627305280655062"><ele>154.66666666666669</ele><time>2026-04-18T07:27:11.999Z</time></trkpt><trkpt lat="43.52315526868908" lon="10.627334232265142"><ele>153.5</ele><time>2026-04-18T07:27:12.999Z</time></trkpt><trkpt lat="43.52323002883235" lon="10.627396455813901"><ele>152.33333333333334</ele><time>2026-04-18T07:27:14Z</time></trkpt><trkpt lat="43.52328728983419" lon="10.62746983400207"><ele>151.16666666666666</ele><time>2026-04-18T07:27:15Z</time></trkpt><trkpt lat="43.52335665538317" lon="10.627541015387994"><ele>150.0</ele><time>2026-04-18T07:27:16Z</time></trkpt><trkpt lat="43.52340764871394" lon="10.627622921062045"><ele>150.0</ele><time>2026-04-18T07:27:17Z</time></trkpt><trkpt lat="43.5234655376158" lon="10.627694606365017"><ele>150.0</ele><time>2026-04-18T07:27:18Z</time></trkpt><trkpt lat="43.523529028926696" lon="10.627753367258514"><ele>150.0</ele><time>2026-04-18T07:27:19Z</time></trkpt><trkpt lat="43.523609215601844" lon="10.627787298293248"><ele>150.0</ele><time>2026-04-18T07:27:20Z</time></trkpt><trkpt lat="43.52369469699588" lon="10.627807425706136"><ele>150.0</ele><time>2026-04-18T07:27:21Z</time></trkpt><trkpt lat="43.52377593012489" lon="10.6277961040196"><ele>150.0</ele><time>2026-04-18T07:27:22Z</time></trkpt><trkpt lat="43.52385455104393" lon="10.627774391287021"><ele>149.0</ele><time>2026-04-18T07:27:23Z</time></trkpt><trkpt lat="43.52392795180355" lon="10.627781373071564"><ele>148.0</ele><time>2026-04-18T07:27:24Z</time></trkpt><trkpt lat="43.52399505872386" lon="10.62778798782452"><ele>147.0</ele><time>2026-04-18T07:27:25Z</time></trkpt><trkpt lat="43.52405855984214" lon="10.627793585246565"><ele>146.0</ele><time>2026-04-18T07:27:26Z</time></trkpt><trkpt lat="43.52416509794918" lon="10.627824039791266"><ele>145.0</ele><time>2026-04-18T07:27:28Z</time></trkpt><trkpt lat="43.52423740876471" lon="10.627819927358518"><ele>144.0</ele><time>2026-04-18T07:27:32Z</time></trkpt><trkpt lat="43.52428003355343" lon="10.627696374265485"><ele>143.66666666666666</ele><time>2026-04-18T07:27:35Z</time></trkpt><trkpt lat="43.52425752290572" lon="10.627604736253586"><ele>143.33333333333334</ele><time>2026-04-18T07:27:37Z</time></trkpt><trkpt lat="43.52424436797338" lon="10.627478269415686"><ele>143.0</ele><time>2026-04-18T07:27:39Z</time></trkpt><trkpt lat="43.524259226776046" lon="10.627330530281995"><ele>142.66666666666669</ele><time>2026-04-18T07:27:41Z</time></trkpt><trkpt lat="43.52426680753378" lon="10.627235596983365"><ele>142.33333333333334</ele><time>2026-04-18T07:27:42Z</time></trkpt><trkpt lat="43.52429044813589" lon="10.627122062389972"><ele>142.0</ele><time>2026-04-18T07:27:43Z</time></trkpt><trkpt lat="43.52429922619235" lon="10.626998124272799"><ele>142.2</ele><time>2026-04-18T07:27:44Z</time></trkpt><trkpt lat="43.52431566777138" lon="10.626864948603414"><ele>142.39999999999998</ele><time>2026-04-18T07:27:45Z</time></trkpt><trkpt lat="43.52433503659926" lon="10.626725077144808"><ele>142.60000000000002</ele><time>2026-04-18T07:27:46Z</time></trkpt><trkpt lat="43.524355310102905" lon="10.626597631915487"><ele>142.8</ele><time>2026-04-18T07:27:47Z</time></trkpt><trkpt lat="43.52437128581359" lon="10.626484357125632"><ele>143.0</ele><time>2026-04-18T07:27:48Z</time></trkpt><trkpt lat="43.52438435566127" lon="10.626386001782116"><ele>143.0</ele><time>2026-04-18T07:27:49Z</time></trkpt><trkpt lat="43.524427174525655" lon="10.626294291524445"><ele>143.0</ele><time>2026-04-18T07:27:50Z</time></trkpt><trkpt lat="43.52447383236305" lon="10.626216717216051"><ele>143.0</ele><time>2026-04-18T07:27:51Z</time></trkpt><trkpt lat="43.524538719525" lon="10.626135797384988"><ele>143.0</ele><time>2026-04-18T07:27:52Z</time></trkpt><trkpt lat="43.52461335673063" lon="10.626011415633727"><ele>143.0</ele><time>2026-04-18T07:27:53Z</time></trkpt><trkpt lat="43.52468345246587" lon="10.625895218123935"><ele>140.8</ele><time>2026-04-18T07:27:54Z</time></trkpt><trkpt lat="43.52475938899463" lon="10.625774798356584"><ele>138.60000000000002</ele><time>2026-04-18T07:27:55Z</time></trkpt><trkpt lat="43.524839724091024" lon="10.62565762568154"><ele>136.39999999999998</ele><time>2026-04-18T07:27:56Z</time></trkpt><trkpt lat="43.52490902363269" lon="10.625543656313932"><ele>134.2</ele><time>2026-04-18T07:27:57Z</time></trkpt><trkpt lat="43.52497130859087" lon="10.625421227486243"><ele>132.0</ele><time>2026-04-18T07:27:58Z</time></trkpt><trkpt lat="43.525039278771196" lon="10.62531090885393"><ele>131.2</ele><time>2026-04-18T07:27:59Z</time></trkpt><trkpt lat="43.52510855099989" lon="10.625198630775277"><ele>130.39999999999998</ele><time>2026-04-18T07:28:00Z</time></trkpt><trkpt lat="43.52518095658653" lon="10.625091081768563"><ele>129.60000000000002</ele><time>2026-04-18T07:28:01Z</time></trkpt><trkpt lat="43.52525481035944" lon="10.624989389536273"><ele>128.8</ele><time>2026-04-18T07:28:02Z</time></trkpt><trkpt lat="43.52533599645678" lon="10.624882822920233"><ele>128.0</ele><time>2026-04-18T07:28:03Z</time></trkpt><trkpt lat="43.5254185000198" lon="10.624778192441763"><ele>127.25</ele><time>2026-04-18T07:28:04Z</time></trkpt><trkpt lat="43.52551726767506" lon="10.624659708099905"><ele>126.5</ele><time>2026-04-18T07:28:05Z</time></trkpt><trkpt lat="43.525614764391655" lon="10.624536510814796"><ele>125.75</ele><time>2026-04-18T07:28:06Z</time></trkpt><trkpt lat="43.525711204484644" lon="10.62441424127601"><ele>125.0</ele><time>2026-04-18T07:28:07Z</time></trkpt><trkpt lat="43.525802367065765" lon="10.624295255381028"><ele>123.25</ele><time>2026-04-18T07:28:08Z</time></trkpt><trkpt lat="43.5258878739542" lon="10.6241823458224"><ele>121.5</ele><time>2026-04-18T07:28:09Z</time></trkpt><trkpt lat="43.52602424242546" lon="10.623965208403696"><ele>119.75</ele><time>2026-04-18T07:28:11Z</time></trkpt><trkpt lat="43.52607537450899" lon="10.623869715977179"><ele>118.0</ele><time>2026-04-18T07:28:12Z</time></trkpt><trkpt lat="43.526135658646645" lon="10.623773481743537"><ele>118.00000000000001</ele><time>2026-04-18T07:28:13Z</time></trkpt><trkpt lat="43.52619076420458" lon="10.623691928412416"><ele>118.0</ele><time>2026-04-18T07:28:14Z</time></trkpt><trkpt lat="43.52623739677472" lon="10.62359927978802"><ele>118.0</ele><time>2026-04-18T07:28:15Z</time></trkpt><trkpt lat="43.526266168086266" lon="10.623503200816605"><ele>118.0</ele><time>2026-04-18T07:28:16Z</time></trkpt><trkpt lat="43.52627127014406" lon="10.623380491594892"><ele>118.00000000000001</ele><time>2026-04-18T07:28:17Z</time></trkpt><trkpt lat="43.5262376432669" lon="10.62326308709999"><ele>118.0</ele><time>2026-04-18T07:28:18Z</time></trkpt><trkpt lat="43.52618219956075" lon="10.623148091284214"><ele>117.80000000000001</ele><time>2026-04-18T07:28:19Z</time></trkpt><trkpt lat="43.526114222868365" lon="10.623047988933205"><ele>117.60000000000001</ele><time>2026-04-18T07:28:20Z</time></trkpt><trkpt lat="43.52605031632407" lon="10.622952619376294"><ele>117.39999999999999</ele><time>2026-04-18T07:28:21Z</time></trkpt><trkpt lat="43.52598988796123" lon="10.62286568012668"><ele>117.19999999999999</ele><time>2026-04-18T07:28:22Z</time></trkpt><trkpt lat="43.52593074923887" lon="10.62278091728761"><ele>117.0</ele><time>2026-04-18T07:28:23Z</time></trkpt><trkpt lat="43.525850629074895" lon="10.622715363137594"><ele>115.83333333333333</ele><time>2026-04-18T07:28:24Z</time></trkpt><trkpt lat="43.52577732904252" lon="10.622640845250697"><ele>114.66666666666666</ele><time>2026-04-18T07:28:25Z</time></trkpt><trkpt lat="43.525699737034856" lon="10.622580990729409"><ele>113.5</ele><time>2026-04-18T07:28:26Z</time></trkpt><trkpt lat="43.525629410122654" lon="10.62250831257777"><ele>112.33333333333333</ele><time>2026-04-18T07:28:27Z</time></trkpt><trkpt lat="43.525557203540174" lon="10.622440922572197"><ele>111.16666666666666</ele><time>2026-04-18T07:28:28Z</time></trkpt><trkpt lat="43.52549020832415" lon="10.62236997571269"><ele>110.0</ele><time>2026-04-18T07:28:29Z</time></trkpt><trkpt lat="43.52543350760917" lon="10.62230599496849"><ele>109.99999999999999</ele><time>2026-04-18T07:28:30Z</time></trkpt><trkpt lat="43.52535468265707" lon="10.622174227638048"><ele>110.0</ele><time>2026-04-18T07:28:32Z</time></trkpt><trkpt lat="43.52530658285185" lon="10.622098134328667"><ele>110.0</ele><time>2026-04-18T07:28:33Z</time></trkpt><trkpt lat="43.52528884702247" lon="10.622005879340692"><ele>110.0</ele><time>2026-04-18T07:28:34Z</time></trkpt><trkpt lat="43.52525940761383" lon="10.621918116817639"><ele>109.99999999999999</ele><time>2026-04-18T07:28:35Z</time></trkpt><trkpt lat="43.52524074029962" lon="10.62182843013526"><ele>110.0</ele><time>2026-04-18T07:28:35.999Z</time></trkpt><trkpt lat="43.52525724027743" lon="10.621697389110066"><ele>110.49999999999999</ele><time>2026-04-18T07:28:37.999Z</time></trkpt><trkpt lat="43.52529710495669" lon="10.621619474018566"><ele>111.0</ele><time>2026-04-18T07:28:41.999Z</time></trkpt><trkpt lat="43.525343111125494" lon="10.621553069024207"><ele>111.5</ele><time>2026-04-18T07:28:44.999Z</time></trkpt><trkpt lat="43.525445238062524" lon="10.621541967697606"><ele>112.0</ele><time>2026-04-18T07:28:46.999Z</time></trkpt><trkpt lat="43.52551122790782" lon="10.62154381065589"><ele>112.49999999999999</ele><time>2026-04-18T07:28:47.999Z</time></trkpt><trkpt lat="43.52558493195322" lon="10.621546039523288"><ele>113.0</ele><time>2026-04-18T07:28:48.999Z</time></trkpt><trkpt lat="43.52565931151987" lon="10.621551914287407"><ele>112.99999999999999</ele><time>2026-04-18T07:28:49.999Z</time></trkpt><trkpt lat="43.52573767727815" lon="10.621554089723205"><ele>113.0</ele><time>2026-04-18T07:28:51Z</time></trkpt><trkpt lat="43.52582256691622" lon="10.621550758788835"><ele>113.0</ele><time>2026-04-18T07:28:52Z</time></trkpt><trkpt lat="43.52590823229947" lon="10.621547537974712"><ele>113.0</ele><time>2026-04-18T07:28:53Z</time></trkpt><trkpt lat="43.526001959589706" lon="10.621547575547055"><ele>112.99999999999999</ele><time>2026-04-18T07:28:54Z</time></trkpt><trkpt lat="43.52609416304953" lon="10.621570051673217"><ele>113.0</ele><time>2026-04-18T07:28:55Z</time></trkpt><trkpt lat="43.52618364124085" lon="10.621572814267745"><ele>112.4</ele><time>2026-04-18T07:28:56Z</time></trkpt><trkpt lat="43.52627646157914" lon="10.621574425995975"><ele>111.80000000000001</ele><time>2026-04-18T07:28:57Z</time></trkpt><trkpt lat="43.52637104883064" lon="10.621568255565283"><ele>111.2</ele><time>2026-04-18T07:28:58Z</time></trkpt><trkpt lat="43.52646305703182" lon="10.621564492595565"><ele>110.6</ele><time>2026-04-18T07:28:59Z</time></trkpt><trkpt lat="43.52655408586054" lon="10.6215752593553"><ele>110.0</ele><time>2026-04-18T07:29:00Z</time></trkpt><trkpt lat="43.52664426132991" lon="10.621586598269188"><ele>109.99999999999999</ele><time>2026-04-18T07:29:01Z</time></trkpt><trkpt lat="43.52674673817604" lon="10.62159241132625"><ele>110.0</ele><time>2026-04-18T07:29:02Z</time></trkpt><trkpt lat="43.52682301444677" lon="10.621595623214192"><ele>110.0</ele><time>2026-04-18T07:29:03Z</time></trkpt><trkpt lat="43.526890506407625" lon="10.621598907158118"><ele>110.0</ele><time>2026-04-18T07:29:04Z</time></trkpt><trkpt lat="43.52695511185881" lon="10.62160314249375"><ele>109.99999999999999</ele><time>2026-04-18T07:29:05Z</time></trkpt><trkpt lat="43.52704622394479" lon="10.621606663159655"><ele>110.0</ele><time>2026-04-18T07:29:07Z</time></trkpt><trkpt lat="43.52712889119514" lon="10.621609548318473"><ele>109.8</ele><time>2026-04-18T07:29:09Z</time></trkpt><trkpt lat="43.52721347955676" lon="10.62157062721929"><ele>109.6</ele><time>2026-04-18T07:29:11Z</time></trkpt><trkpt lat="43.52725820613188" lon="10.621448627328181"><ele>109.4</ele><time>2026-04-18T07:29:13Z</time></trkpt><trkpt lat="43.52722046337482" lon="10.621329693036408"><ele>109.2</ele><time>2026-04-18T07:29:15Z</time></trkpt><trkpt lat="43.52716007088589" lon="10.621203249940075"><ele>109.0</ele><time>2026-04-18T07:29:17Z</time></trkpt><trkpt lat="43.527100085648065" lon="10.62108365054806"><ele>109.6</ele><time>2026-04-18T07:29:19Z</time></trkpt><trkpt lat="43.527043498080246" lon="10.620951711404516"><ele>110.2</ele><time>2026-04-18T07:29:21Z</time></trkpt><trkpt lat="43.52699676054512" lon="10.620835594796253"><ele>110.79999999999998</ele><time>2026-04-18T07:29:23Z</time></trkpt><trkpt lat="43.52695376410866" lon="10.620734572176264"><ele>111.39999999999999</ele><time>2026-04-18T07:29:25Z</time></trkpt><trkpt lat="43.52692172696931" lon="10.62062027985715"><ele>112.0</ele><time>2026-04-18T07:29:27Z</time></trkpt><trkpt lat="43.5269075290518" lon="10.620503403316617"><ele>112.0</ele><time>2026-04-18T07:29:29Z</time></trkpt><trkpt lat="43.52689742138576" lon="10.620409133895846"><ele>112.0</ele><time>2026-04-18T07:29:32Z</time></trkpt><trkpt lat="43.526877159194754" lon="10.62032513292762"><ele>112.0</ele><time>2026-04-18T07:29:35Z</time></trkpt><trkpt lat="43.526804532137874" lon="10.620282800751573"><ele>112.0</ele><time>2026-04-18T07:29:38Z</time></trkpt><trkpt lat="43.526730102527054" lon="10.620316124969543"><ele>112.0</ele><time>2026-04-18T07:29:41Z</time></trkpt><trkpt lat="43.52672376658349" lon="10.620421105658403"><ele>112.0</ele><time>2026-04-18T07:29:44Z</time></trkpt><trkpt lat="43.52671010705725" lon="10.620531871113124"><ele>112.0</ele><time>2026-04-18T07:29:47Z</time></trkpt><trkpt lat="43.52659059140509" lon="10.62068813634399"><ele>112.00000000000001</ele><time>2026-04-18T07:29:49Z</time></trkpt><trkpt lat="43.526622726515214" lon="10.620793182781199"><ele>112.0</ele><time>2026-04-18T07:29:52Z</time></trkpt><trkpt lat="43.52665309404619" lon="10.620885923328604"><ele>112.0</ele><time>2026-04-18T07:29:55Z</time></trkpt><trkpt lat="43.52673849711001" lon="10.620832796793707"><ele>112.0</ele><time>2026-04-18T07:36:29.001Z</time></trkpt><trkpt lat="43.52678327637945" lon="10.620906469901701"><ele>112.00000000000001</ele><time>2026-04-18T07:37:07.001Z</time></trkpt><trkpt lat="43.52684052176229" lon="10.621012060591562"><ele>112.0</ele><time>2026-04-18T07:37:09.001Z</time></trkpt><trkpt lat="43.52687730328825" lon="10.621086953130193"><ele>111.66666666666667</ele><time>2026-04-18T07:37:10.001Z</time></trkpt><trkpt lat="43.52691230928689" lon="10.621162181801914"><ele>111.33333333333334</ele><time>2026-04-18T07:37:11.001Z</time></trkpt><trkpt lat="43.526940805214934" lon="10.621244444866793"><ele>111.0</ele><time>2026-04-18T07:37:12.001Z</time></trkpt><trkpt lat="43.527007619417354" lon="10.621408083482411"><ele>110.66666666666666</ele><time>2026-04-18T07:37:15.001Z</time></trkpt><trkpt lat="43.52704536645779" lon="10.621503915346825"><ele>110.33333333333333</ele><time>2026-04-18T07:37:17.001Z</time></trkpt><trkpt lat="43.527103835458384" lon="10.621584682517032"><ele>110.0</ele><time>2026-04-18T07:37:20.001Z</time></trkpt><trkpt lat="43.52716854154916" lon="10.621606330320354"><ele>109.16666666666666</ele><time>2026-04-18T07:37:21.001Z</time></trkpt><trkpt lat="43.52724973062371" lon="10.621599766841932"><ele>108.33333333333333</ele><time>2026-04-18T07:37:22.001Z</time></trkpt><trkpt lat="43.52732607429031" lon="10.621593865718884"><ele>107.5</ele><time>2026-04-18T07:37:23.001Z</time></trkpt><trkpt lat="43.52740047776569" lon="10.621590921167094"><ele>106.66666666666666</ele><time>2026-04-18T07:37:24.001Z</time></trkpt><trkpt lat="43.527484523295584" lon="10.621574227144018"><ele>105.83333333333333</ele><time>2026-04-18T07:37:25.001Z</time></trkpt><trkpt lat="43.527559304504216" lon="10.621559148144204"><ele>105.0</ele><time>2026-04-18T07:37:26.001Z</time></trkpt><trkpt lat="43.527641341279484" lon="10.621530619309315"><ele>105.0</ele><time>2026-04-18T07:37:27.001Z</time></trkpt><trkpt lat="43.527728376463784" lon="10.621508740264225"><ele>105.0</ele><time>2026-04-18T07:37:28.001Z</time></trkpt><trkpt lat="43.527809809605714" lon="10.62144354927846"><ele>105.0</ele><time>2026-04-18T07:37:29.001Z</time></trkpt><trkpt lat="43.527894045617245" lon="10.621399628414114"><ele>105.0</ele><time>2026-04-18T07:37:30.001Z</time></trkpt><trkpt lat="43.52797731336168" lon="10.621350729716712"><ele>105.0</ele><time>2026-04-18T07:37:31.001Z</time></trkpt><trkpt lat="43.52806281682219" lon="10.621305060584264"><ele>105.0</ele><time>2026-04-18T07:37:32.001Z</time></trkpt><trkpt lat="43.52814996293054" lon="10.621258263359755"><ele>105.0</ele><time>2026-04-18T07:37:33Z</time></trkpt><trkpt lat="43.52823828122263" lon="10.621212431938966"><ele>105.0</ele><time>2026-04-18T07:37:34Z</time></trkpt><trkpt lat="43.52833611580245" lon="10.621165266370845"><ele>105.0</ele><time>2026-04-18T07:37:35Z</time></trkpt><trkpt lat="43.52843258664664" lon="10.621124704157413"><ele>105.0</ele><time>2026-04-18T07:37:36Z</time></trkpt><trkpt lat="43.52852918831652" lon="10.621073842182374"><ele>105.0</ele><time>2026-04-18T07:37:37Z</time></trkpt><trkpt lat="43.528629994008625" lon="10.621036261552915"><ele>105.0</ele><time>2026-04-18T07:37:38Z</time></trkpt><trkpt lat="43.52873523914719" lon="10.620994511146892"><ele>105.0</ele><time>2026-04-18T07:37:39Z</time></trkpt><trkpt lat="43.528840050031505" lon="10.620951244636041"><ele>105.0</ele><time>2026-04-18T07:37:40Z</time></trkpt><trkpt lat="43.528945642893305" lon="10.62091451220697"><ele>105.0</ele><time>2026-04-18T07:37:41Z</time></trkpt><trkpt lat="43.529045937454896" lon="10.620882417219988"><ele>103.8</ele><time>2026-04-18T07:37:42Z</time></trkpt><trkpt lat="43.52915045044276" lon="10.62088277085213"><ele>102.6</ele><time>2026-04-18T07:37:43Z</time></trkpt><trkpt lat="43.5292515257297" lon="10.620872243875388"><ele>101.4</ele><time>2026-04-18T07:37:44Z</time></trkpt><trkpt lat="43.52935254973133" lon="10.620866514514962"><ele>100.2</ele><time>2026-04-18T07:37:45Z</time></trkpt><trkpt lat="43.529457210949296" lon="10.620864784541162"><ele>99.0</ele><time>2026-04-18T07:37:46Z</time></trkpt><trkpt lat="43.52956674678493" lon="10.62087230018434"><ele>98.2</ele><time>2026-04-18T07:37:47Z</time></trkpt><trkpt lat="43.529661213896176" lon="10.620885965176873"><ele>97.4</ele><time>2026-04-18T07:37:48Z</time></trkpt><trkpt lat="43.5297593306659" lon="10.620909313305207"><ele>96.6</ele><time>2026-04-18T07:37:49Z</time></trkpt><trkpt lat="43.52985043263708" lon="10.620935043403058"><ele>95.8</ele><time>2026-04-18T07:37:50Z</time></trkpt><trkpt lat="43.52994790002021" lon="10.620962391905065"><ele>95.0</ele><time>2026-04-18T07:37:51Z</time></trkpt><trkpt lat="43.53004766140284" lon="10.620990383957023"><ele>95.0</ele><time>2026-04-18T07:37:52Z</time></trkpt><trkpt lat="43.53015928879956" lon="10.62102170558053"><ele>95.0</ele><time>2026-04-18T07:37:53Z</time></trkpt><trkpt lat="43.53026384128374" lon="10.621051042041621"><ele>95.0</ele><time>2026-04-18T07:37:54Z</time></trkpt><trkpt lat="43.53037318759052" lon="10.621079777039844"><ele>95.0</ele><time>2026-04-18T07:37:55Z</time></trkpt><trkpt lat="43.53048087416737" lon="10.621100590557308"><ele>95.0</ele><time>2026-04-18T07:37:56Z</time></trkpt><trkpt lat="43.530598923603335" lon="10.621086513455898"><ele>93.6</ele><time>2026-04-18T07:37:57Z</time></trkpt><trkpt lat="43.53070433256269" lon="10.62106950319438"><ele>92.2</ele><time>2026-04-18T07:37:58Z</time></trkpt><trkpt lat="43.530816373200594" lon="10.621041686391296"><ele>90.80000000000001</ele><time>2026-04-18T07:37:59Z</time></trkpt><trkpt lat="43.530909756918675" lon="10.620958233908283"><ele>89.4</ele><time>2026-04-18T07:38:00Z</time></trkpt><trkpt lat="43.53100582858236" lon="10.620865970537393"><ele>88.0</ele><time>2026-04-18T07:38:01.001Z</time></trkpt><trkpt lat="43.53105828160603" lon="10.620748983808472"><ele>88.0</ele><time>2026-04-18T07:38:02.001Z</time></trkpt><trkpt lat="43.53110794160716" lon="10.620626589946458"><ele>88.0</ele><time>2026-04-18T07:38:03.001Z</time></trkpt><trkpt lat="43.53114428256849" lon="10.620536203354055"><ele>88.0</ele><time>2026-04-18T07:38:04.001Z</time></trkpt><trkpt lat="43.53117452571082" lon="10.620458659036343"><ele>88.0</ele><time>2026-04-18T07:38:05.001Z</time></trkpt><trkpt lat="43.53122274393429" lon="10.620348554819785"><ele>88.0</ele><time>2026-04-18T07:38:07.001Z</time></trkpt><trkpt lat="43.53126117367364" lon="10.620254070455498"><ele>88.0</ele><time>2026-04-18T07:38:09.001Z</time></trkpt><trkpt lat="43.53130773871444" lon="10.620155674172516"><ele>86.66666666666666</ele><time>2026-04-18T07:38:12.001Z</time></trkpt><trkpt lat="43.53134903187158" lon="10.62008160864839"><ele>85.33333333333333</ele><time>2026-04-18T07:38:26Z</time></trkpt><trkpt lat="43.53140766943849" lon="10.619944248233645"><ele>84.0</ele><time>2026-04-18T07:38:29Z</time></trkpt><trkpt lat="43.531451359374" lon="10.619856742153232"><ele>82.66666666666667</ele><time>2026-04-18T07:38:40Z</time></trkpt><trkpt lat="43.53151454093968" lon="10.619743326327301"><ele>81.33333333333334</ele><time>2026-04-18T07:38:43Z</time></trkpt><trkpt lat="43.531562118260474" lon="10.619683983100364"><ele>80.0</ele><time>2026-04-18T07:38:44Z</time></trkpt><trkpt lat="43.531614809330705" lon="10.619624634558914"><ele>80.0</ele><time>2026-04-18T07:38:45Z</time></trkpt><trkpt lat="43.53166642619994" lon="10.619568591287104"><ele>80.0</ele><time>2026-04-18T07:38:46Z</time></trkpt><trkpt lat="43.53172907875771" lon="10.61952264904297"><ele>80.0</ele><time>2026-04-18T07:38:47Z</time></trkpt><trkpt lat="43.531793162204394" lon="10.619480033122535"><ele>80.0</ele><time>2026-04-18T07:38:48Z</time></trkpt><trkpt lat="43.53187822983022" lon="10.619415421506911"><ele>80.0</ele><time>2026-04-18T07:38:49Z</time></trkpt><trkpt lat="43.531960854222255" lon="10.61939956724625"><ele>80.0</ele><time>2026-04-18T07:38:50Z</time></trkpt><trkpt lat="43.53204791925797" lon="10.619368152525585"><ele>78.6</ele><time>2026-04-18T07:38:51Z</time></trkpt><trkpt lat="43.53213669660447" lon="10.619334455690753"><ele>77.2</ele><time>2026-04-18T07:38:52Z</time></trkpt><trkpt lat="43.53224074577798" lon="10.619322848513804"><ele>75.8</ele><time>2026-04-18T07:38:53Z</time></trkpt><trkpt lat="43.532340914152805" lon="10.619332481999649"><ele>74.4</ele><time>2026-04-18T07:38:54Z</time></trkpt><trkpt lat="43.532444017260886" lon="10.619373240917605"><ele>73.0</ele><time>2026-04-18T07:38:55Z</time></trkpt><trkpt lat="43.53254313768758" lon="10.619396526672187"><ele>73.0</ele><time>2026-04-18T07:38:56Z</time></trkpt><trkpt lat="43.53263827559511" lon="10.619404551426888"><ele>73.0</ele><time>2026-04-18T07:38:57Z</time></trkpt><trkpt lat="43.53274681451313" lon="10.61943645294333"><ele>73.0</ele><time>2026-04-18T07:38:58Z</time></trkpt><trkpt lat="43.53285597170204" lon="10.61946910577528"><ele>73.0</ele><time>2026-04-18T07:38:59Z</time></trkpt><trkpt lat="43.53295982201942" lon="10.619500993367048"><ele>73.0</ele><time>2026-04-18T07:39:00Z</time></trkpt><trkpt lat="43.533073434387404" lon="10.619531625142903"><ele>72.0</ele><time>2026-04-18T07:39:01Z</time></trkpt><trkpt lat="43.533191339122354" lon="10.61957037128095"><ele>71.0</ele><time>2026-04-18T07:39:02Z</time></trkpt><trkpt lat="43.53330145938472" lon="10.619608718105646"><ele>70.0</ele><time>2026-04-18T07:39:03Z</time></trkpt><trkpt lat="43.533415195814776" lon="10.619636148310615"><ele>69.0</ele><time>2026-04-18T07:39:04Z</time></trkpt><trkpt lat="43.53354459086702" lon="10.619689193960484"><ele>69.0</ele><time>2026-04-18T07:39:05Z</time></trkpt><trkpt lat="43.53367400242983" lon="10.619722917785412"><ele>69.0</ele><time>2026-04-18T07:39:06Z</time></trkpt><trkpt lat="43.533790913671005" lon="10.619754190576703"><ele>69.0</ele><time>2026-04-18T07:39:07Z</time></trkpt><trkpt lat="43.53391275289719" lon="10.61978347156913"><ele>69.0</ele><time>2026-04-18T07:39:08Z</time></trkpt><trkpt lat="43.53403581254971" lon="10.619823275753893"><ele>68.75</ele><time>2026-04-18T07:39:09Z</time></trkpt><trkpt lat="43.53416679761873" lon="10.619874339448923"><ele>68.5</ele><time>2026-04-18T07:39:10Z</time></trkpt><trkpt lat="43.534277717842755" lon="10.619917100484058"><ele>68.25</ele><time>2026-04-18T07:39:11Z</time></trkpt><trkpt lat="43.53441330762968" lon="10.619930226098381"><ele>68.0</ele><time>2026-04-18T07:39:12Z</time></trkpt><trkpt lat="43.534548784093175" lon="10.619928843388525"><ele>67.75</ele><time>2026-04-18T07:39:13Z</time></trkpt><trkpt lat="43.53468912282894" lon="10.619907718416362"><ele>67.5</ele><time>2026-04-18T07:39:14Z</time></trkpt><trkpt lat="43.534832072645" lon="10.619861288743701"><ele>67.25</ele><time>2026-04-18T07:39:15Z</time></trkpt><trkpt lat="43.5349600685112" lon="10.619825275973252"><ele>67.0</ele><time>2026-04-18T07:39:16Z</time></trkpt><trkpt lat="43.53509465310979" lon="10.619785893309187"><ele>67.0</ele><time>2026-04-18T07:39:17Z</time></trkpt><trkpt lat="43.53522985336859" lon="10.619747498539898"><ele>67.0</ele><time>2026-04-18T07:39:18Z</time></trkpt><trkpt lat="43.53535579044895" lon="10.619714110882368"><ele>67.0</ele><time>2026-04-18T07:39:19Z</time></trkpt><trkpt lat="43.53548073821878" lon="10.619682961303809"><ele>67.0</ele><time>2026-04-18T07:39:20Z</time></trkpt><trkpt lat="43.53562436885027" lon="10.61963948064618"><ele>66.25</ele><time>2026-04-18T07:39:21Z</time></trkpt><trkpt lat="43.535758211411604" lon="10.619604958042165"><ele>65.5</ele><time>2026-04-18T07:39:22Z</time></trkpt><trkpt lat="43.53588719975851" lon="10.619578311082547"><ele>64.75</ele><time>2026-04-18T07:39:23Z</time></trkpt><trkpt lat="43.53602483689851" lon="10.61953267123809"><ele>64.0</ele><time>2026-04-18T07:39:24Z</time></trkpt><trkpt lat="43.53616440228551" lon="10.619498265150009"><ele>64.5</ele><time>2026-04-18T07:39:25Z</time></trkpt><trkpt lat="43.53629182442857" lon="10.619458158925807"><ele>65.0</ele><time>2026-04-18T07:39:26Z</time></trkpt><trkpt lat="43.53643498612286" lon="10.619424326718786"><ele>65.5</ele><time>2026-04-18T07:39:27Z</time></trkpt><trkpt lat="43.53658307958795" lon="10.61939841573008"><ele>66.0</ele><time>2026-04-18T07:39:28Z</time></trkpt><trkpt lat="43.53672336201821" lon="10.619373127820067"><ele>66.0</ele><time>2026-04-18T07:39:29Z</time></trkpt><trkpt lat="43.53685213406231" lon="10.619328979162905"><ele>66.0</ele><time>2026-04-18T07:39:30Z</time></trkpt><trkpt lat="43.53699186984955" lon="10.619310247420332"><ele>66.0</ele><time>2026-04-18T07:39:31Z</time></trkpt><trkpt lat="43.53713510913857" lon="10.619306562780064"><ele>66.0</ele><time>2026-04-18T07:39:32Z</time></trkpt><trkpt lat="43.53727441572256" lon="10.619283820355138"><ele>65.75</ele><time>2026-04-18T07:39:33Z</time></trkpt><trkpt lat="43.53740418448007" lon="10.619257683918766"><ele>65.5</ele><time>2026-04-18T07:39:34Z</time></trkpt><trkpt lat="43.53755574980216" lon="10.619260353035584"><ele>65.25</ele><time>2026-04-18T07:39:35Z</time></trkpt><trkpt lat="43.53770620327501" lon="10.619248541604737"><ele>65.0</ele><time>2026-04-18T07:39:36Z</time></trkpt><trkpt lat="43.53785274801488" lon="10.619244067946061"><ele>64.0</ele><time>2026-04-18T07:39:37Z</time></trkpt><trkpt lat="43.53800001928274" lon="10.619234558898636"><ele>63.0</ele><time>2026-04-18T07:39:38Z</time></trkpt><trkpt lat="43.538150859407565" lon="10.619222970704392"><ele>62.0</ele><time>2026-04-18T07:39:39Z</time></trkpt><trkpt lat="43.538295657218534" lon="10.619224060580619"><ele>61.0</ele><time>2026-04-18T07:39:40Z</time></trkpt><trkpt lat="43.53844587200804" lon="10.619229750815503"><ele>61.0</ele><time>2026-04-18T07:39:41Z</time></trkpt><trkpt lat="43.538592774664494" lon="10.619242838086398"><ele>61.0</ele><time>2026-04-18T07:39:42Z</time></trkpt><trkpt lat="43.538736568385545" lon="10.61926050472793"><ele>61.0</ele><time>2026-04-18T07:39:43Z</time></trkpt><trkpt lat="43.538880912441776" lon="10.619272407570444"><ele>61.0</ele><time>2026-04-18T07:39:44Z</time></trkpt><trkpt lat="43.53902500555912" lon="10.619287935663442"><ele>61.0</ele><time>2026-04-18T07:39:45Z</time></trkpt><trkpt lat="43.5391665098644" lon="10.61931013210918"><ele>61.0</ele><time>2026-04-18T07:39:46Z</time></trkpt><trkpt lat="43.539309999336055" lon="10.619328202238062"><ele>61.0</ele><time>2026-04-18T07:39:47Z</time></trkpt><trkpt lat="43.53945588660692" lon="10.619338626296992"><ele>61.0</ele><time>2026-04-18T07:39:48Z</time></trkpt><trkpt lat="43.53960599461907" lon="10.619343339407186"><ele>61.0</ele><time>2026-04-18T07:39:49Z</time></trkpt><trkpt lat="43.53975690830045" lon="10.619337444209133"><ele>61.0</ele><time>2026-04-18T07:39:50Z</time></trkpt><trkpt lat="43.53991777798929" lon="10.619330097378297"><ele>61.0</ele><time>2026-04-18T07:39:51Z</time></trkpt><trkpt lat="43.54006911509046" lon="10.619300727833982"><ele>61.0</ele><time>2026-04-18T07:39:52Z</time></trkpt><trkpt lat="43.540227211451146" lon="10.619273634223923"><ele>61.0</ele><time>2026-04-18T07:39:53Z</time></trkpt><trkpt lat="43.5403852173011" lon="10.619246984903002"><ele>61.0</ele><time>2026-04-18T07:39:54Z</time></trkpt><trkpt lat="43.54053951155024" lon="10.619212267176634"><ele>60.666666666666664</ele><time>2026-04-18T07:39:55Z</time></trkpt><trkpt lat="43.540696785448006" lon="10.619180647530731"><ele>60.33333333333333</ele><time>2026-04-18T07:39:56Z</time></trkpt><trkpt lat="43.54085157005324" lon="10.619157226275068"><ele>60.0</ele><time>2026-04-18T07:39:57Z</time></trkpt><trkpt lat="43.54101024412186" lon="10.619146463853948"><ele>60.0</ele><time>2026-04-18T07:39:58Z</time></trkpt><trkpt lat="43.54117153383728" lon="10.619140511286728"><ele>60.0</ele><time>2026-04-18T07:39:59Z</time></trkpt><trkpt lat="43.54132725039724" lon="10.619149311060783"><ele>60.0</ele><time>2026-04-18T07:40:00Z</time></trkpt><trkpt lat="43.54148199989013" lon="10.619173101599682"><ele>59.66666666666667</ele><time>2026-04-18T07:40:01Z</time></trkpt><trkpt lat="43.54163407818236" lon="10.61919929351453"><ele>59.333333333333336</ele><time>2026-04-18T07:40:02Z</time></trkpt><trkpt lat="43.541793122489715" lon="10.619238511005024"><ele>59.0</ele><time>2026-04-18T07:40:03Z</time></trkpt><trkpt lat="43.54194844628868" lon="10.619282373902914"><ele>59.0</ele><time>2026-04-18T07:40:04Z</time></trkpt><trkpt lat="43.54210173430189" lon="10.619343759313375"><ele>59.0</ele><time>2026-04-18T07:40:05Z</time></trkpt><trkpt lat="43.54225536461974" lon="10.619417914078781"><ele>59.0</ele><time>2026-04-18T07:40:06Z</time></trkpt><trkpt lat="43.542407671585075" lon="10.6194927067799"><ele>59.0</ele><time>2026-04-18T07:40:06.999Z</time></trkpt><trkpt lat="43.54256256747919" lon="10.619569817472014"><ele>59.0</ele><time>2026-04-18T07:40:07.999Z</time></trkpt><trkpt lat="43.54271828978624" lon="10.619647045730929"><ele>59.0</ele><time>2026-04-18T07:40:08.999Z</time></trkpt><trkpt lat="43.542876544194016" lon="10.619726396408216"><ele>58.333333333333336</ele><time>2026-04-18T07:40:09.999Z</time></trkpt><trkpt lat="43.543033129796804" lon="10.619804600709774"><ele>57.66666666666667</ele><time>2026-04-18T07:40:10.999Z</time></trkpt><trkpt lat="43.54319239429013" lon="10.619881616033016"><ele>57.0</ele><time>2026-04-18T07:40:11.999Z</time></trkpt><trkpt lat="43.543349233342155" lon="10.61996015060513"><ele>57.0</ele><time>2026-04-18T07:40:12.999Z</time></trkpt><trkpt lat="43.54350448122695" lon="10.620042028563018"><ele>57.0</ele><time>2026-04-18T07:40:13.999Z</time></trkpt><trkpt lat="43.543663565556486" lon="10.62011950772375"><ele>57.0</ele><time>2026-04-18T07:40:14.999Z</time></trkpt><trkpt lat="43.543815850237145" lon="10.620196351566264"><ele>57.0</ele><time>2026-04-18T07:40:15.999Z</time></trkpt><trkpt lat="43.54396835373831" lon="10.620279125858618"><ele>57.0</ele><time>2026-04-18T07:40:16.999Z</time></trkpt><trkpt lat="43.54412229488874" lon="10.620368214512562"><ele>57.0</ele><time>2026-04-18T07:40:17.999Z</time></trkpt><trkpt lat="43.54427509079391" lon="10.62046340724562"><ele>56.66666666666667</ele><time>2026-04-18T07:40:18.999Z</time></trkpt><trkpt lat="43.544420975660245" lon="10.620566539707976"><ele>56.333333333333336</ele><time>2026-04-18T07:40:19.999Z</time></trkpt><trkpt lat="43.54456121188446" lon="10.620663098104979"><ele>56.0</ele><time>2026-04-18T07:40:20.999Z</time></trkpt><trkpt lat="43.54470281020293" lon="10.620766737438093"><ele>55.333333333333336</ele><time>2026-04-18T07:40:21.999Z</time></trkpt><trkpt lat="43.54483566811104" lon="10.62086299090898"><ele>54.66666666666667</ele><time>2026-04-18T07:40:22.999Z</time></trkpt><trkpt lat="43.54497243024708" lon="10.62095776404789"><ele>54.0</ele><time>2026-04-18T07:40:23.999Z</time></trkpt><trkpt lat="43.54510483856122" lon="10.621069399530727"><ele>53.33333333333333</ele><time>2026-04-18T07:40:24.999Z</time></trkpt><trkpt lat="43.5452353094665" lon="10.621186936310298"><ele>52.666666666666664</ele><time>2026-04-18T07:40:25.999Z</time></trkpt><trkpt lat="43.54536431922629" lon="10.621316807474042"><ele>52.0</ele><time>2026-04-18T07:40:26.999Z</time></trkpt><trkpt lat="43.5454903040586" lon="10.621441571541677"><ele>51.666666666666664</ele><time>2026-04-18T07:40:27.999Z</time></trkpt><trkpt lat="43.54561887673415" lon="10.621569029206826"><ele>51.33333333333333</ele><time>2026-04-18T07:40:29Z</time></trkpt><trkpt lat="43.5457535066871" lon="10.621697775351425"><ele>51.0</ele><time>2026-04-18T07:40:30Z</time></trkpt><trkpt lat="43.545890626791746" lon="10.621830052364093"><ele>51.0</ele><time>2026-04-18T07:40:31Z</time></trkpt><trkpt lat="43.54603603771754" lon="10.621966012751093"><ele>51.0</ele><time>2026-04-18T07:40:32Z</time></trkpt><trkpt lat="43.546194592467465" lon="10.622088753572934"><ele>51.0</ele><time>2026-04-18T07:40:33Z</time></trkpt><trkpt lat="43.54635927385719" lon="10.622196771009637"><ele>51.0</ele><time>2026-04-18T07:40:34Z</time></trkpt><trkpt lat="43.54652409990332" lon="10.622280792880611"><ele>51.0</ele><time>2026-04-18T07:40:35Z</time></trkpt><trkpt lat="43.546679065309" lon="10.62236566498282"><ele>51.0</ele><time>2026-04-18T07:40:36Z</time></trkpt><trkpt lat="43.54683779424276" lon="10.62243259751813"><ele>51.0</ele><time>2026-04-18T07:40:37Z</time></trkpt><trkpt lat="43.546996221559944" lon="10.622488034102771"><ele>51.0</ele><time>2026-04-18T07:40:38Z</time></trkpt><trkpt lat="43.54715722179444" lon="10.622531181819241"><ele>51.0</ele><time>2026-04-18T07:40:39Z</time></trkpt><trkpt lat="43.54731519550419" lon="10.62257796402148"><ele>54.0</ele><time>2026-04-18T07:40:40Z</time></trkpt><trkpt lat="43.54747246242041" lon="10.622627980762678"><ele>57.0</ele><time>2026-04-18T07:40:41Z</time></trkpt><trkpt lat="43.547626979043706" lon="10.62268608312675"><ele>60.0</ele><time>2026-04-18T07:40:42Z</time></trkpt><trkpt lat="43.547772341261506" lon="10.622757603628667"><ele>59.0</ele><time>2026-04-18T07:40:43Z</time></trkpt><trkpt lat="43.5479221597967" lon="10.622830523668549"><ele>58.0</ele><time>2026-04-18T07:40:44Z</time></trkpt><trkpt lat="43.54806364347365" lon="10.622914333277519"><ele>57.0</ele><time>2026-04-18T07:40:45Z</time></trkpt><trkpt lat="43.5481986849693" lon="10.622995093468083"><ele>57.0</ele><time>2026-04-18T07:40:46Z</time></trkpt><trkpt lat="43.54832564882061" lon="10.623103270307743"><ele>57.0</ele><time>2026-04-18T07:40:47Z</time></trkpt><trkpt lat="43.5484269271899" lon="10.623232645425709"><ele>57.0</ele><time>2026-04-18T07:40:48Z</time></trkpt><trkpt lat="43.54850916874909" lon="10.62338178562715"><ele>57.0</ele><time>2026-04-18T07:40:49Z</time></trkpt><trkpt lat="43.54857412005087" lon="10.62354790732668"><ele>56.25</ele><time>2026-04-18T07:40:50Z</time></trkpt><trkpt lat="43.54862791761249" lon="10.623742300101831"><ele>55.5</ele><time>2026-04-18T07:40:51Z</time></trkpt><trkpt lat="43.548686601232305" lon="10.623927343184327"><ele>54.75</ele><time>2026-04-18T07:40:52Z</time></trkpt><trkpt lat="43.54874238778523" lon="10.624106840824735"><ele>54.0</ele><time>2026-04-18T07:40:53Z</time></trkpt><trkpt lat="43.54880729390001" lon="10.624275802969422"><ele>54.75</ele><time>2026-04-18T07:40:54Z</time></trkpt><trkpt lat="43.54888205160351" lon="10.624429694211264"><ele>55.5</ele><time>2026-04-18T07:40:55Z</time></trkpt><trkpt lat="43.548969518017486" lon="10.624572674400854"><ele>56.25</ele><time>2026-04-18T07:40:56Z</time></trkpt><trkpt lat="43.549065872223395" lon="10.62470872960558"><ele>57.0</ele><time>2026-04-18T07:40:57Z</time></trkpt><trkpt lat="43.54916683205908" lon="10.624841626182558"><ele>57.0</ele><time>2026-04-18T07:40:58Z</time></trkpt><trkpt lat="43.549269308011525" lon="10.62497441696626"><ele>57.0</ele><time>2026-04-18T07:40:59Z</time></trkpt><trkpt lat="43.54936802769026" lon="10.625104571419676"><ele>57.0</ele><time>2026-04-18T07:41:00Z</time></trkpt><trkpt lat="43.549468261451096" lon="10.625214351617203"><ele>57.0</ele><time>2026-04-18T07:41:01Z</time></trkpt><trkpt lat="43.549564780320125" lon="10.625323985866219"><ele>56.25</ele><time>2026-04-18T07:41:02Z</time></trkpt><trkpt lat="43.549667502842965" lon="10.625416693133863"><ele>55.5</ele><time>2026-04-18T07:41:03Z</time></trkpt><trkpt lat="43.549786681973146" lon="10.625487307452774"><ele>54.75</ele><time>2026-04-18T07:41:04Z</time></trkpt><trkpt lat="43.54991629389161" lon="10.625539851404437"><ele>54.0</ele><time>2026-04-18T07:41:05Z</time></trkpt><trkpt lat="43.550048648686214" lon="10.625573262282252"><ele>54.0</ele><time>2026-04-18T07:41:06Z</time></trkpt><trkpt lat="43.55018310323828" lon="10.62560526792784"><ele>54.0</ele><time>2026-04-18T07:41:07Z</time></trkpt><trkpt lat="43.550321804716916" lon="10.625644526853538"><ele>54.0</ele><time>2026-04-18T07:41:08Z</time></trkpt><trkpt lat="43.55046010364163" lon="10.625684915168058"><ele>54.0</ele><time>2026-04-18T07:41:09Z</time></trkpt><trkpt lat="43.55059578913511" lon="10.625719491782897"><ele>53.75</ele><time>2026-04-18T07:41:10Z</time></trkpt><trkpt lat="43.550738062909346" lon="10.62575217359825"><ele>53.5</ele><time>2026-04-18T07:41:11Z</time></trkpt><trkpt lat="43.5508799811611" lon="10.625775908003956"><ele>53.25</ele><time>2026-04-18T07:41:12Z</time></trkpt><trkpt lat="43.55102269604423" lon="10.625774215284165"><ele>53.0</ele><time>2026-04-18T07:41:13Z</time></trkpt><trkpt lat="43.55116807977779" lon="10.625755183756551"><ele>52.5</ele><time>2026-04-18T07:41:14Z</time></trkpt><trkpt lat="43.55130721031118" lon="10.625736599006817"><ele>52.0</ele><time>2026-04-18T07:41:15Z</time></trkpt><trkpt lat="43.551450657391385" lon="10.62571626750047"><ele>51.5</ele><time>2026-04-18T07:41:16Z</time></trkpt><trkpt lat="43.551596507025835" lon="10.62569157111705"><ele>51.0</ele><time>2026-04-18T07:41:16.999Z</time></trkpt><trkpt lat="43.55174241506243" lon="10.625676045115853"><ele>51.0</ele><time>2026-04-18T07:41:17.999Z</time></trkpt><trkpt lat="43.55188227974986" lon="10.625669815273698"><ele>51.0</ele><time>2026-04-18T07:41:18.999Z</time></trkpt><trkpt lat="43.55202245240978" lon="10.625688984163618"><ele>51.0</ele><time>2026-04-18T07:41:19.999Z</time></trkpt><trkpt lat="43.55215701923434" lon="10.625738485092045"><ele>51.0</ele><time>2026-04-18T07:41:20.999Z</time></trkpt><trkpt lat="43.552289017916955" lon="10.625805050913007"><ele>51.75</ele><time>2026-04-18T07:41:21.999Z</time></trkpt><trkpt lat="43.55241756398288" lon="10.625894780261348"><ele>52.5</ele><time>2026-04-18T07:41:22.999Z</time></trkpt><trkpt lat="43.55254524568843" lon="10.62599140439173"><ele>53.25</ele><time>2026-04-18T07:41:23.999Z</time></trkpt><trkpt lat="43.5526654332615" lon="10.62608681613436"><ele>54.0</ele><time>2026-04-18T07:41:24.999Z</time></trkpt><trkpt lat="43.552777584551826" lon="10.626193666340557"><ele>54.0</ele><time>2026-04-18T07:41:25.999Z</time></trkpt><trkpt lat="43.55288077392303" lon="10.626308241595831"><ele>54.0</ele><time>2026-04-18T07:41:26.999Z</time></trkpt><trkpt lat="43.552972156857706" lon="10.62641422743425"><ele>54.0</ele><time>2026-04-18T07:41:27.999Z</time></trkpt><trkpt lat="43.55307528999366" lon="10.626521012956518"><ele>54.0</ele><time>2026-04-18T07:41:28.999Z</time></trkpt><trkpt lat="43.55316946053782" lon="10.626627173765277"><ele>54.0</ele><time>2026-04-18T07:41:29.999Z</time></trkpt><trkpt lat="43.55327119478361" lon="10.626719475678552"><ele>54.0</ele><time>2026-04-18T07:41:30.999Z</time></trkpt><trkpt lat="43.553372905305515" lon="10.626792727993871"><ele>54.0</ele><time>2026-04-18T07:41:31.999Z</time></trkpt><trkpt lat="43.55348187578144" lon="10.626850425830053"><ele>54.0</ele><time>2026-04-18T07:41:32.999Z</time></trkpt><trkpt lat="43.55359678238148" lon="10.626878515183993"><ele>55.75</ele><time>2026-04-18T07:41:33.999Z</time></trkpt><trkpt lat="43.55370794800298" lon="10.626896428965761"><ele>57.5</ele><time>2026-04-18T07:41:34.999Z</time></trkpt><trkpt lat="43.553819395822195" lon="10.62690149825132"><ele>59.25</ele><time>2026-04-18T07:41:35.999Z</time></trkpt><trkpt lat="43.55393730811217" lon="10.626923514451674"><ele>61.0</ele><time>2026-04-18T07:41:36.999Z</time></trkpt><trkpt lat="43.55404573612102" lon="10.62697971802211"><ele>57.8</ele><time>2026-04-18T07:41:37.999Z</time></trkpt><trkpt lat="43.55412930984353" lon="10.62705889295142"><ele>54.599999999999994</ele><time>2026-04-18T07:41:38.999Z</time></trkpt><trkpt lat="43.55422777959845" lon="10.62713106471361"><ele>51.4</ele><time>2026-04-18T07:41:39.999Z</time></trkpt><trkpt lat="43.554334257045994" lon="10.62718152571742"><ele>48.2</ele><time>2026-04-18T07:41:40.999Z</time></trkpt><trkpt lat="43.55443665376357" lon="10.627197771015428"><ele>45.0</ele><time>2026-04-18T07:41:41.999Z</time></trkpt><trkpt lat="43.55452033783894" lon="10.627211859913306"><ele>45.4</ele><time>2026-04-18T07:41:42.999Z</time></trkpt><trkpt lat="43.554591999899316" lon="10.62720975520903"><ele>45.8</ele><time>2026-04-18T07:41:43.999Z</time></trkpt><trkpt lat="43.55470435212117" lon="10.627195450148468"><ele>46.2</ele><time>2026-04-18T07:41:45.999Z</time></trkpt><trkpt lat="43.55479658201613" lon="10.62719539710265"><ele>46.6</ele><time>2026-04-18T07:41:47.999Z</time></trkpt><trkpt lat="43.55484595753428" lon="10.62726857414479"><ele>47.0</ele><time>2026-04-18T07:41:49.999Z</time></trkpt><trkpt lat="43.55477612062738" lon="10.627399431264294"><ele>47.0</ele><time>2026-04-18T07:41:51.999Z</time></trkpt><trkpt lat="43.554730708409316" lon="10.62748328273063"><ele>47.0</ele><time>2026-04-18T07:41:52.999Z</time></trkpt><trkpt lat="43.55467226434608" lon="10.627575167400487"><ele>47.0</ele><time>2026-04-18T07:41:53.999Z</time></trkpt><trkpt lat="43.55460144183278" lon="10.627673869120025"><ele>47.0</ele><time>2026-04-18T07:41:54.999Z</time></trkpt><trkpt lat="43.554530934894636" lon="10.62778273356616"><ele>47.0</ele><time>2026-04-18T07:41:55.999Z</time></trkpt><trkpt lat="43.554463108069164" lon="10.627888184048766"><ele>46.42857142857143</ele><time>2026-04-18T07:41:56.999Z</time></trkpt><trkpt lat="43.55440161566227" lon="10.627980816292556"><ele>45.857142857142854</ele><time>2026-04-18T07:41:57.999Z</time></trkpt><trkpt lat="43.55435423339614" lon="10.628056565044085"><ele>45.28571428571429</ele><time>2026-04-18T07:41:58.999Z</time></trkpt><trkpt lat="43.554294924216784" lon="10.628101029754554"><ele>44.714285714285715</ele><time>2026-04-18T07:41:59.999Z</time></trkpt><trkpt lat="43.55423588272401" lon="10.628142940084674"><ele>44.142857142857146</ele><time>2026-04-18T07:42:00.999Z</time></trkpt><trkpt lat="43.55418043623997" lon="10.628187096306407"><ele>43.57142857142858</ele><time>2026-04-18T07:42:01.999Z</time></trkpt><trkpt lat="43.55410854273877" lon="10.628204039356238"><ele>43.0</ele><time>2026-04-18T07:42:02.999Z</time></trkpt><trkpt lat="43.55404108413949" lon="10.628231309263013"><ele>43.0</ele><time>2026-04-18T07:42:03.999Z</time></trkpt><trkpt lat="43.55397634072393" lon="10.628260958756114"><ele>43.0</ele><time>2026-04-18T07:42:04.999Z</time></trkpt><trkpt lat="43.55392326128253" lon="10.628342253615042"><ele>43.0</ele><time>2026-04-18T07:42:05.999Z</time></trkpt><trkpt lat="43.55387261868235" lon="10.628413419864183"><ele>43.0</ele><time>2026-04-18T07:42:06.999Z</time></trkpt><trkpt lat="43.55383512896265" lon="10.628532383976314"><ele>43.0</ele><time>2026-04-18T07:42:07.999Z</time></trkpt><trkpt lat="43.553805701232335" lon="10.628657872144688"><ele>43.0</ele><time>2026-04-18T07:42:08.999Z</time></trkpt><trkpt lat="43.55378084072756" lon="10.628785337477668"><ele>43.0</ele><time>2026-04-18T07:42:09.999Z</time></trkpt><trkpt lat="43.553759271509485" lon="10.628926742225483"><ele>43.0</ele><time>2026-04-18T07:42:10.999Z</time></trkpt><trkpt lat="43.553735867588784" lon="10.629067275340972"><ele>43.0</ele><time>2026-04-18T07:42:11.999Z</time></trkpt><trkpt lat="43.553713736161235" lon="10.629206928020723"><ele>43.0</ele><time>2026-04-18T07:42:12.999Z</time></trkpt><trkpt lat="43.55368756336467" lon="10.629348891403618"><ele>43.0</ele><time>2026-04-18T07:42:13.999Z</time></trkpt><trkpt lat="43.553664637135576" lon="10.629482265267228"><ele>43.599999999999994</ele><time>2026-04-18T07:42:14.999Z</time></trkpt><trkpt lat="43.55364423545358" lon="10.629607963727347"><ele>44.199999999999996</ele><time>2026-04-18T07:42:15.999Z</time></trkpt><trkpt lat="43.55362385278068" lon="10.629730177800035"><ele>44.8</ele><time>2026-04-18T07:42:16.999Z</time></trkpt><trkpt lat="43.55360508707053" lon="10.629859414814986"><ele>45.4</ele><time>2026-04-18T07:42:17.999Z</time></trkpt><trkpt lat="43.55359799376" lon="10.630000778257285"><ele>46.0</ele><time>2026-04-18T07:42:18.999Z</time></trkpt><trkpt lat="43.55358047916318" lon="10.63014644127473"><ele>46.0</ele><time>2026-04-18T07:42:19.999Z</time></trkpt><trkpt lat="43.55356528012838" lon="10.630295039959512"><ele>46.0</ele><time>2026-04-18T07:42:20.999Z</time></trkpt><trkpt lat="43.55354749995623" lon="10.630456693086465"><ele>46.0</ele><time>2026-04-18T07:42:21.999Z</time></trkpt><trkpt lat="43.55352694094412" lon="10.630617063181372"><ele>46.0</ele><time>2026-04-18T07:42:22.999Z</time></trkpt><trkpt lat="43.55350664389424" lon="10.630782317751903"><ele>46.0</ele><time>2026-04-18T07:42:23.999Z</time></trkpt><trkpt lat="43.553485042374504" lon="10.630949058928968"><ele>46.0</ele><time>2026-04-18T07:42:24.999Z</time></trkpt><trkpt lat="43.553460235745966" lon="10.631114609300866"><ele>46.0</ele><time>2026-04-18T07:42:25.999Z</time></trkpt><trkpt lat="43.55343597674525" lon="10.631281068169644"><ele>46.0</ele><time>2026-04-18T07:42:26.999Z</time></trkpt><trkpt lat="43.553411841753025" lon="10.631446455209192"><ele>46.0</ele><time>2026-04-18T07:42:27.999Z</time></trkpt><trkpt lat="43.55338224584523" lon="10.631618135584286"><ele>46.0</ele><time>2026-04-18T07:42:28.999Z</time></trkpt><trkpt lat="43.553353182012046" lon="10.631782496134699"><ele>46.0</ele><time>2026-04-18T07:42:29.999Z</time></trkpt><trkpt lat="43.55331609785462" lon="10.631941945716457"><ele>46.0</ele><time>2026-04-18T07:42:30.999Z</time></trkpt><trkpt lat="43.55327309815285" lon="10.632094781689748"><ele>46.0</ele><time>2026-04-18T07:42:31.999Z</time></trkpt><trkpt lat="43.55323026239001" lon="10.632246828735278"><ele>46.0</ele><time>2026-04-18T07:42:32.999Z</time></trkpt><trkpt lat="43.553187407023266" lon="10.632395251888028"><ele>46.0</ele><time>2026-04-18T07:42:33.999Z</time></trkpt><trkpt lat="43.55314196911104" lon="10.632538516476794"><ele>46.0</ele><time>2026-04-18T07:42:34.999Z</time></trkpt><trkpt lat="43.55310513082481" lon="10.632676350802766"><ele>46.0</ele><time>2026-04-18T07:42:35.999Z</time></trkpt><trkpt lat="43.5530742908652" lon="10.632794561571327"><ele>46.0</ele><time>2026-04-18T07:42:36.999Z</time></trkpt><trkpt lat="43.55304808637729" lon="10.632898819751304"><ele>46.0</ele><time>2026-04-18T07:42:37.999Z</time></trkpt><trkpt lat="43.553025476320954" lon="10.632993327754306"><ele>46.0</ele><time>2026-04-18T07:42:38.999Z</time></trkpt><trkpt lat="43.55300414505115" lon="10.633130530974128"><ele>46.0</ele><time>2026-04-18T07:42:40.999Z</time></trkpt><trkpt lat="43.55289947662513" lon="10.633141527647116"><ele>47.5</ele><time>2026-04-18T07:42:41.999Z</time></trkpt><trkpt lat="43.55283973302988" lon="10.633104801719139"><ele>49.0</ele><time>2026-04-18T07:42:42.999Z</time></trkpt><trkpt lat="43.55278058747728" lon="10.63306352807135"><ele>50.5</ele><time>2026-04-18T07:42:43.999Z</time></trkpt><trkpt lat="43.55270704024463" lon="10.633010794577595"><ele>52.0</ele><time>2026-04-18T07:42:44.999Z</time></trkpt><trkpt lat="43.55261997204275" lon="10.632958745642153"><ele>53.49999999999999</ele><time>2026-04-18T07:42:45.999Z</time></trkpt><trkpt lat="43.55252941776321" lon="10.632905594957347"><ele>55.0</ele><time>2026-04-18T07:42:46.999Z</time></trkpt><trkpt lat="43.552430181302675" lon="10.632847348310287"><ele>54.0</ele><time>2026-04-18T07:42:47.999Z</time></trkpt><trkpt lat="43.55232392210529" lon="10.632786898449568"><ele>53.0</ele><time>2026-04-18T07:42:48.999Z</time></trkpt><trkpt lat="43.55220968603282" lon="10.63273927752871"><ele>52.0</ele><time>2026-04-18T07:42:49.999Z</time></trkpt><trkpt lat="43.55210679605525" lon="10.632653109510073"><ele>51.0</ele><time>2026-04-18T07:42:50.999Z</time></trkpt><trkpt lat="43.55200228386446" lon="10.63256108604099"><ele>51.0</ele><time>2026-04-18T07:42:51.999Z</time></trkpt><trkpt lat="43.55189892575514" lon="10.6324554624881"><ele>51.0</ele><time>2026-04-18T07:42:53Z</time></trkpt><trkpt lat="43.55180036570225" lon="10.632340967165957"><ele>51.0</ele><time>2026-04-18T07:42:54Z</time></trkpt><trkpt lat="43.55169883900294" lon="10.632223997916585"><ele>51.0</ele><time>2026-04-18T07:42:55Z</time></trkpt><trkpt lat="43.55159172262162" lon="10.632117308004839"><ele>51.0</ele><time>2026-04-18T07:42:56Z</time></trkpt><trkpt lat="43.5514827260303" lon="10.632015411425304"><ele>51.0</ele><time>2026-04-18T07:42:57Z</time></trkpt><trkpt lat="43.55136811640025" lon="10.63192197351325"><ele>51.0</ele><time>2026-04-18T07:42:58Z</time></trkpt><trkpt lat="43.551252380077955" lon="10.631850586792567"><ele>51.0</ele><time>2026-04-18T07:42:59Z</time></trkpt><trkpt lat="43.55113338798788" lon="10.63179566510421"><ele>50.75</ele><time>2026-04-18T07:43:00Z</time></trkpt><trkpt lat="43.55100600854693" lon="10.63176209416714"><ele>50.5</ele><time>2026-04-18T07:43:01Z</time></trkpt><trkpt lat="43.55087724282908" lon="10.631738834953461"><ele>50.25</ele><time>2026-04-18T07:43:02Z</time></trkpt><trkpt lat="43.550744865550115" lon="10.631729416758766"><ele>50.0</ele><time>2026-04-18T07:43:03Z</time></trkpt><trkpt lat="43.550613053235686" lon="10.631735815358983"><ele>50.0</ele><time>2026-04-18T07:43:04Z</time></trkpt><trkpt lat="43.55048236662525" lon="10.631749157039604"><ele>50.0</ele><time>2026-04-18T07:43:05Z</time></trkpt><trkpt lat="43.55034762162369" lon="10.63176554019479"><ele>50.0</ele><time>2026-04-18T07:43:06Z</time></trkpt><trkpt lat="43.55021201696243" lon="10.631782541153369"><ele>50.0</ele><time>2026-04-18T07:43:07Z</time></trkpt><trkpt lat="43.55008446391774" lon="10.631808730624293"><ele>50.5</ele><time>2026-04-18T07:43:08Z</time></trkpt><trkpt lat="43.549951011918" lon="10.63182580552422"><ele>51.0</ele><time>2026-04-18T07:43:09Z</time></trkpt><trkpt lat="43.54981223141211" lon="10.631847582186394"><ele>51.5</ele><time>2026-04-18T07:43:10Z</time></trkpt><trkpt lat="43.54967252669105" lon="10.631861647507924"><ele>52.0</ele><time>2026-04-18T07:43:11Z</time></trkpt><trkpt lat="43.549537191432684" lon="10.631874516432166"><ele>52.25</ele><time>2026-04-18T07:43:12Z</time></trkpt><trkpt lat="43.54940439061093" lon="10.631889975991394"><ele>52.5</ele><time>2026-04-18T07:43:13Z</time></trkpt><trkpt lat="43.549281128343694" lon="10.631926337892594"><ele>52.75</ele><time>2026-04-18T07:43:14Z</time></trkpt><trkpt lat="43.54916873293293" lon="10.631990875099087"><ele>53.0</ele><time>2026-04-18T07:43:15Z</time></trkpt><trkpt lat="43.54904874699264" lon="10.63206910279004"><ele>52.75</ele><time>2026-04-18T07:43:16Z</time></trkpt><trkpt lat="43.54892443409804" lon="10.632155749076519"><ele>52.5</ele><time>2026-04-18T07:43:17Z</time></trkpt><trkpt lat="43.5488039531746" lon="10.632251989813222"><ele>52.25</ele><time>2026-04-18T07:43:18Z</time></trkpt><trkpt lat="43.54868219498263" lon="10.63234989563563"><ele>52.0</ele><time>2026-04-18T07:43:19Z</time></trkpt><trkpt lat="43.54855250378399" lon="10.632446032246568"><ele>52.0</ele><time>2026-04-18T07:43:20Z</time></trkpt><trkpt lat="43.548423888381684" lon="10.63254437785345"><ele>52.0</ele><time>2026-04-18T07:43:21Z</time></trkpt><trkpt lat="43.54829361355696" lon="10.632654599985162"><ele>52.0</ele><time>2026-04-18T07:43:22Z</time></trkpt><trkpt lat="43.54815833892601" lon="10.632768163341503"><ele>53.0</ele><time>2026-04-18T07:43:23Z</time></trkpt><trkpt lat="43.548023216923596" lon="10.632871865581748"><ele>54.0</ele><time>2026-04-18T07:43:24Z</time></trkpt><trkpt lat="43.547884220706656" lon="10.632980213100954"><ele>55.0</ele><time>2026-04-18T07:43:25Z</time></trkpt><trkpt lat="43.54774962176571" lon="10.633089320014594"><ele>55.0</ele><time>2026-04-18T07:43:26Z</time></trkpt><trkpt lat="43.54759964072262" lon="10.633169323530419"><ele>55.0</ele><time>2026-04-18T07:43:27Z</time></trkpt><trkpt lat="43.547453791635974" lon="10.63326699484444"><ele>55.0</ele><time>2026-04-18T07:43:28Z</time></trkpt><trkpt lat="43.54731844120449" lon="10.63338243813039"><ele>55.0</ele><time>2026-04-18T07:43:29Z</time></trkpt><trkpt lat="43.547173770848666" lon="10.63347366850039"><ele>55.0</ele><time>2026-04-18T07:43:30Z</time></trkpt><trkpt lat="43.54703498914619" lon="10.633580322596513"><ele>55.0</ele><time>2026-04-18T07:43:31Z</time></trkpt><trkpt lat="43.546902745601614" lon="10.63369580327252"><ele>55.0</ele><time>2026-04-18T07:43:32Z</time></trkpt><trkpt lat="43.546776222669564" lon="10.633830503548284"><ele>55.0</ele><time>2026-04-18T07:43:33Z</time></trkpt><trkpt lat="43.54665110296517" lon="10.633965369626427"><ele>55.0</ele><time>2026-04-18T07:43:34Z</time></trkpt><trkpt lat="43.54654366623184" lon="10.634134490286126"><ele>55.0</ele><time>2026-04-18T07:43:35Z</time></trkpt><trkpt lat="43.54642504268994" lon="10.634291218325306"><ele>55.0</ele><time>2026-04-18T07:43:36Z</time></trkpt><trkpt lat="43.546304332136835" lon="10.634449653750549"><ele>55.0</ele><time>2026-04-18T07:43:37Z</time></trkpt><trkpt lat="43.54618465495539" lon="10.634608236891506"><ele>54.33333333333333</ele><time>2026-04-18T07:43:38Z</time></trkpt><trkpt lat="43.54606897500912" lon="10.634762507955351"><ele>53.66666666666667</ele><time>2026-04-18T07:43:39Z</time></trkpt><trkpt lat="43.545955987444174" lon="10.634913176410635"><ele>53.0</ele><time>2026-04-18T07:43:40Z</time></trkpt><trkpt lat="43.545840622106304" lon="10.635059352558665"><ele>53.0</ele><time>2026-04-18T07:43:41Z</time></trkpt><trkpt lat="43.54571856798109" lon="10.63519502103547"><ele>53.0</ele><time>2026-04-18T07:43:42Z</time></trkpt><trkpt lat="43.5455871450136" lon="10.63532099707012"><ele>53.0</ele><time>2026-04-18T07:43:43Z</time></trkpt><trkpt lat="43.54544799783088" lon="10.635422793808651"><ele>55.333333333333336</ele><time>2026-04-18T07:43:44Z</time></trkpt><trkpt lat="43.54530305970907" lon="10.635494221359917"><ele>57.66666666666667</ele><time>2026-04-18T07:43:45Z</time></trkpt><trkpt lat="43.54515094660724" lon="10.635540201132937"><ele>60.0</ele><time>2026-04-18T07:43:46Z</time></trkpt><trkpt lat="43.54499912675761" lon="10.635555090920729"><ele>60.0</ele><time>2026-04-18T07:43:47Z</time></trkpt><trkpt lat="43.54484874433192" lon="10.6355682059081"><ele>60.0</ele><time>2026-04-18T07:43:48Z</time></trkpt><trkpt lat="43.544702263749905" lon="10.635596388489196"><ele>60.0</ele><time>2026-04-18T07:43:49Z</time></trkpt><trkpt lat="43.5445669693138" lon="10.635654353472162"><ele>60.0</ele><time>2026-04-18T07:43:50Z</time></trkpt><trkpt lat="43.54443935142536" lon="10.635731084905489"><ele>60.25</ele><time>2026-04-18T07:43:51Z</time></trkpt><trkpt lat="43.54431646979838" lon="10.63583334337027"><ele>60.5</ele><time>2026-04-18T07:43:52Z</time></trkpt><trkpt lat="43.54419986007577" lon="10.63594465790117"><ele>60.75</ele><time>2026-04-18T07:43:53Z</time></trkpt><trkpt lat="43.54407878839596" lon="10.63607686761502"><ele>61.0</ele><time>2026-04-18T07:43:54Z</time></trkpt><trkpt lat="43.54396003805759" lon="10.636217922328244"><ele>61.0</ele><time>2026-04-18T07:43:55Z</time></trkpt><trkpt lat="43.54383631611654" lon="10.636357705776096"><ele>61.0</ele><time>2026-04-18T07:43:56Z</time></trkpt><trkpt lat="43.54371126793528" lon="10.636508981586775"><ele>61.0</ele><time>2026-04-18T07:43:57Z</time></trkpt><trkpt lat="43.543584829875016" lon="10.636664364949855"><ele>60.33333333333333</ele><time>2026-04-18T07:43:58Z</time></trkpt><trkpt lat="43.543456343337006" lon="10.636820287366259"><ele>59.66666666666667</ele><time>2026-04-18T07:43:59Z</time></trkpt><trkpt lat="43.543327144972494" lon="10.636968143036876"><ele>59.0</ele><time>2026-04-18T07:44:00Z</time></trkpt><trkpt lat="43.543204700935235" lon="10.637121417827418"><ele>59.0</ele><time>2026-04-18T07:44:01Z</time></trkpt><trkpt lat="43.54308033648628" lon="10.637276716628774"><ele>59.0</ele><time>2026-04-18T07:44:02Z</time></trkpt><trkpt lat="43.542950810936446" lon="10.637434903040846"><ele>59.0</ele><time>2026-04-18T07:44:03Z</time></trkpt><trkpt lat="43.54282142145754" lon="10.637588043903339"><ele>59.66666666666667</ele><time>2026-04-18T07:44:04Z</time></trkpt><trkpt lat="43.542692002772974" lon="10.637735754733674"><ele>60.33333333333333</ele><time>2026-04-18T07:44:05Z</time></trkpt><trkpt lat="43.54256142777755" lon="10.637880446141967"><ele>61.0</ele><time>2026-04-18T07:44:06Z</time></trkpt><trkpt lat="43.542428571175726" lon="10.638026796135016"><ele>61.0</ele><time>2026-04-18T07:44:07Z</time></trkpt><trkpt lat="43.54229921800738" lon="10.638173341024606"><ele>61.0</ele><time>2026-04-18T07:44:08Z</time></trkpt><trkpt lat="43.54216864509431" lon="10.638323753764084"><ele>61.0</ele><time>2026-04-18T07:44:09Z</time></trkpt><trkpt lat="43.54203773668576" lon="10.638473700728138"><ele>60.0</ele><time>2026-04-18T07:44:10Z</time></trkpt><trkpt lat="43.541906411968014" lon="10.638620202389028"><ele>59.0</ele><time>2026-04-18T07:44:11Z</time></trkpt><trkpt lat="43.54177526242068" lon="10.638770893548855"><ele>58.0</ele><time>2026-04-18T07:44:12Z</time></trkpt><trkpt lat="43.54164384295638" lon="10.638923885486594"><ele>58.0</ele><time>2026-04-18T07:44:13Z</time></trkpt><trkpt lat="43.54151585344476" lon="10.6390785476001"><ele>58.0</ele><time>2026-04-18T07:44:14Z</time></trkpt><trkpt lat="43.541384776127366" lon="10.63923618761188"><ele>58.0</ele><time>2026-04-18T07:44:15Z</time></trkpt><trkpt lat="43.541256878257926" lon="10.639400330134125"><ele>57.33333333333333</ele><time>2026-04-18T07:44:16Z</time></trkpt><trkpt lat="43.541131494526674" lon="10.639579487437372"><ele>56.66666666666667</ele><time>2026-04-18T07:44:17Z</time></trkpt><trkpt lat="43.54101572671936" lon="10.639765476271862"><ele>56.0</ele><time>2026-04-18T07:44:18Z</time></trkpt><trkpt lat="43.540907074761826" lon="10.639965177556235"><ele>56.0</ele><time>2026-04-18T07:44:18.999Z</time></trkpt><trkpt lat="43.54080434838321" lon="10.640170304943943"><ele>56.0</ele><time>2026-04-18T07:44:19.999Z</time></trkpt><trkpt lat="43.54070299629597" lon="10.640376775143256"><ele>56.0</ele><time>2026-04-18T07:44:20.999Z</time></trkpt><trkpt lat="43.54060069031763" lon="10.640585576861785"><ele>56.333333333333336</ele><time>2026-04-18T07:44:21.999Z</time></trkpt><trkpt lat="43.54049307646096" lon="10.640793682409697"><ele>56.66666666666667</ele><time>2026-04-18T07:44:22.999Z</time></trkpt><trkpt lat="43.54038459942512" lon="10.640989201607537"><ele>57.0</ele><time>2026-04-18T07:44:23.999Z</time></trkpt><trkpt lat="43.54027462333979" lon="10.641193137212356"><ele>57.33333333333333</ele><time>2026-04-18T07:44:24.999Z</time></trkpt><trkpt lat="43.540161409982126" lon="10.641387015847295"><ele>57.666666666666664</ele><time>2026-04-18T07:44:25.999Z</time></trkpt><trkpt lat="43.54004141611183" lon="10.641585480057186"><ele>58.0</ele><time>2026-04-18T07:44:26.999Z</time></trkpt><trkpt lat="43.5399178652498" lon="10.641775544333775"><ele>58.0</ele><time>2026-04-18T07:44:27.999Z</time></trkpt><trkpt lat="43.53978835253369" lon="10.641957815234733"><ele>58.0</ele><time>2026-04-18T07:44:28.999Z</time></trkpt><trkpt lat="43.539654673911684" lon="10.64213863441622"><ele>58.0</ele><time>2026-04-18T07:44:29.999Z</time></trkpt><trkpt lat="43.5395259664422" lon="10.64230537062227"><ele>58.0</ele><time>2026-04-18T07:44:30.999Z</time></trkpt><trkpt lat="43.53939657066993" lon="10.642477391094594"><ele>58.0</ele><time>2026-04-18T07:44:31.999Z</time></trkpt><trkpt lat="43.53926854806709" lon="10.642652589430053"><ele>58.0</ele><time>2026-04-18T07:44:32.999Z</time></trkpt><trkpt lat="43.53914083260533" lon="10.642829826994939"><ele>62.666666666666664</ele><time>2026-04-18T07:44:33.999Z</time></trkpt><trkpt lat="43.53901494132981" lon="10.643009495418003"><ele>67.33333333333333</ele><time>2026-04-18T07:44:34.999Z</time></trkpt><trkpt lat="43.5388958764746" lon="10.64319104817467"><ele>72.0</ele><time>2026-04-18T07:44:35.999Z</time></trkpt><trkpt lat="43.538784130290885" lon="10.643376960503746"><ele>69.66666666666667</ele><time>2026-04-18T07:44:36.999Z</time></trkpt><trkpt lat="43.53867849348086" lon="10.64357118697741"><ele>67.33333333333334</ele><time>2026-04-18T07:44:37.999Z</time></trkpt><trkpt lat="43.538581527331445" lon="10.64376060387969"><ele>65.0</ele><time>2026-04-18T07:44:38.999Z</time></trkpt><trkpt lat="43.538485307928816" lon="10.643952847702401"><ele>65.0</ele><time>2026-04-18T07:44:39.999Z</time></trkpt><trkpt lat="43.53838945623228" lon="10.64414508102202"><ele>65.0</ele><time>2026-04-18T07:44:40.999Z</time></trkpt><trkpt lat="43.53829732331373" lon="10.644347753680055"><ele>65.0</ele><time>2026-04-18T07:44:42Z</time></trkpt><trkpt lat="43.5382059925448" lon="10.644550202745917"><ele>67.33333333333334</ele><time>2026-04-18T07:44:43Z</time></trkpt><trkpt lat="43.53811791886317" lon="10.644742306625151"><ele>69.66666666666667</ele><time>2026-04-18T07:44:44Z</time></trkpt><trkpt lat="43.5380419867704" lon="10.644931697522797"><ele>72.0</ele><time>2026-04-18T07:44:45Z</time></trkpt><trkpt lat="43.53798624560363" lon="10.64509812060357"><ele>72.0</ele><time>2026-04-18T07:44:46Z</time></trkpt><trkpt lat="43.53794943886322" lon="10.64521509993964"><ele>72.0</ele><time>2026-04-18T07:44:47Z</time></trkpt><trkpt lat="43.537927591657244" lon="10.645314943060036"><ele>72.0</ele><time>2026-04-18T07:44:48Z</time></trkpt><trkpt lat="43.53792146706236" lon="10.645405177810735"><ele>72.0</ele><time>2026-04-18T07:44:49Z</time></trkpt><trkpt lat="43.53797820084389" lon="10.645561360339451"><ele>72.0</ele><time>2026-04-18T07:44:51Z</time></trkpt><trkpt lat="43.5380215450993" lon="10.645636030607797"><ele>72.0</ele><time>2026-04-18T07:44:52Z</time></trkpt><trkpt lat="43.53804878901553" lon="10.64572327378682"><ele>72.6</ele><time>2026-04-18T07:44:53Z</time></trkpt><trkpt lat="43.538066928699884" lon="10.64581414283829"><ele>73.2</ele><time>2026-04-18T07:44:54Z</time></trkpt><trkpt lat="43.53808133006647" lon="10.64590705706565"><ele>73.8</ele><time>2026-04-18T07:44:55Z</time></trkpt><trkpt lat="43.538099707271456" lon="10.646079441186194"><ele>74.4</ele><time>2026-04-18T07:44:57Z</time></trkpt><trkpt lat="43.538147171327154" lon="10.646249473236555"><ele>75.0</ele><time>2026-04-18T07:44:59Z</time></trkpt><trkpt lat="43.53818633746092" lon="10.646334676462777"><ele>75.0</ele><time>2026-04-18T07:45:00Z</time></trkpt><trkpt lat="43.538235171331124" lon="10.646420734061914"><ele>75.0</ele><time>2026-04-18T07:45:01Z</time></trkpt><trkpt lat="43.53828217620605" lon="10.646517710437452"><ele>75.0</ele><time>2026-04-18T07:45:02Z</time></trkpt><trkpt lat="43.538346495486664" lon="10.64661401468471"><ele>75.0</ele><time>2026-04-18T07:45:03Z</time></trkpt><trkpt lat="43.53841790353973" lon="10.646701949925637"><ele>75.0</ele><time>2026-04-18T07:45:04Z</time></trkpt><trkpt lat="43.53849268250086" lon="10.6467896316121"><ele>75.0</ele><time>2026-04-18T07:45:05Z</time></trkpt><trkpt lat="43.538566309203276" lon="10.646881672812759"><ele>75.0</ele><time>2026-04-18T07:45:06Z</time></trkpt><trkpt lat="43.538642203120084" lon="10.646980296803267"><ele>75.0</ele><time>2026-04-18T07:45:07Z</time></trkpt><trkpt lat="43.53871107106901" lon="10.64706569197874"><ele>75.0</ele><time>2026-04-18T07:45:08Z</time></trkpt><trkpt lat="43.53878019953085" lon="10.647146106192563"><ele>75.0</ele><time>2026-04-18T07:45:09Z</time></trkpt><trkpt lat="43.538852074464366" lon="10.64721237120186"><ele>76.2</ele><time>2026-04-18T07:45:10Z</time></trkpt><trkpt lat="43.53892902644264" lon="10.6472605921504"><ele>77.4</ele><time>2026-04-18T07:45:11Z</time></trkpt><trkpt lat="43.539012967172226" lon="10.64730730123299"><ele>78.6</ele><time>2026-04-18T07:45:12Z</time></trkpt><trkpt lat="43.539100007572884" lon="10.647315579740557"><ele>79.8</ele><time>2026-04-18T07:45:13Z</time></trkpt><trkpt lat="43.539187745987704" lon="10.647343645580177"><ele>81.0</ele><time>2026-04-18T07:45:14Z</time></trkpt><trkpt lat="43.53928156429153" lon="10.647381990506505"><ele>81.0</ele><time>2026-04-18T07:45:15Z</time></trkpt><trkpt lat="43.539366981227616" lon="10.64744826465924"><ele>81.0</ele><time>2026-04-18T07:45:16Z</time></trkpt><trkpt lat="43.53945188501064" lon="10.647527175286525"><ele>81.0</ele><time>2026-04-18T07:45:17Z</time></trkpt><trkpt lat="43.53952310383401" lon="10.647607528475632"><ele>81.0</ele><time>2026-04-18T07:45:18Z</time></trkpt><trkpt lat="43.53958328599451" lon="10.647686478187065"><ele>81.0</ele><time>2026-04-18T07:45:19Z</time></trkpt><trkpt lat="43.53964085959581" lon="10.647778016429603"><ele>83.66666666666667</ele><time>2026-04-18T07:45:20Z</time></trkpt><trkpt lat="43.53967746747852" lon="10.647882033430239"><ele>86.33333333333334</ele><time>2026-04-18T07:45:21Z</time></trkpt><trkpt lat="43.5397064868447" lon="10.648001201086835"><ele>89.0</ele><time>2026-04-18T07:45:22Z</time></trkpt><trkpt lat="43.53973826373022" lon="10.648122354334838"><ele>91.66666666666667</ele><time>2026-04-18T07:45:23Z</time></trkpt><trkpt lat="43.5397589355317" lon="10.648237624350694"><ele>94.33333333333334</ele><time>2026-04-18T07:45:24Z</time></trkpt><trkpt lat="43.53978907827177" lon="10.648351843877137"><ele>97.0</ele><time>2026-04-18T07:45:25Z</time></trkpt><trkpt lat="43.5398205076214" lon="10.648457233079506"><ele>97.00000000000001</ele><time>2026-04-18T07:45:26Z</time></trkpt><trkpt lat="43.53984798364254" lon="10.648565631205278"><ele>97.0</ele><time>2026-04-18T07:45:27Z</time></trkpt><trkpt lat="43.53987152611487" lon="10.648677306272049"><ele>97.0</ele><time>2026-04-18T07:45:28Z</time></trkpt><trkpt lat="43.5399032294178" lon="10.648795987423265"><ele>97.0</ele><time>2026-04-18T07:45:29Z</time></trkpt><trkpt lat="43.53993094889555" lon="10.648915189373389"><ele>97.00000000000001</ele><time>2026-04-18T07:45:30Z</time></trkpt><trkpt lat="43.53996028340744" lon="10.649034001918652"><ele>97.0</ele><time>2026-04-18T07:45:31Z</time></trkpt><trkpt lat="43.53999823628714" lon="10.649150643649834"><ele>97.0</ele><time>2026-04-18T07:45:32Z</time></trkpt><trkpt lat="43.54004864428275" lon="10.649267209521682"><ele>97.0</ele><time>2026-04-18T07:45:33Z</time></trkpt><trkpt lat="43.54011078669655" lon="10.649378609197573"><ele>97.0</ele><time>2026-04-18T07:45:34Z</time></trkpt><trkpt lat="43.54016509670127" lon="10.649489599453902"><ele>97.0</ele><time>2026-04-18T07:45:35Z</time></trkpt><trkpt lat="43.54021087192192" lon="10.649603433800577"><ele>97.0</ele><time>2026-04-18T07:45:36Z</time></trkpt><trkpt lat="43.54025967108158" lon="10.649708040683675"><ele>97.33333333333334</ele><time>2026-04-18T07:45:37Z</time></trkpt><trkpt lat="43.54029993519674" lon="10.649822555715735"><ele>97.66666666666667</ele><time>2026-04-18T07:45:38Z</time></trkpt><trkpt lat="43.54034502016828" lon="10.649920540679695"><ele>98.0</ele><time>2026-04-18T07:45:39Z</time></trkpt><trkpt lat="43.54039286399028" lon="10.650022990695934"><ele>98.33333333333334</ele><time>2026-04-18T07:45:40Z</time></trkpt><trkpt lat="43.540432021324506" lon="10.65011632927149"><ele>98.66666666666667</ele><time>2026-04-18T07:45:41Z</time></trkpt><trkpt lat="43.54047457672452" lon="10.650216087300755"><ele>99.0</ele><time>2026-04-18T07:45:42Z</time></trkpt><trkpt lat="43.54051236004012" lon="10.650318294852127"><ele>101.80000000000001</ele><time>2026-04-18T07:45:43Z</time></trkpt><trkpt lat="43.5405122939852" lon="10.65042644947611"><ele>104.60000000000001</ele><time>2026-04-18T07:45:44Z</time></trkpt><trkpt lat="43.54047620140717" lon="10.650521179545938"><ele>107.4</ele><time>2026-04-18T07:45:45Z</time></trkpt><trkpt lat="43.54042291770054" lon="10.65070946894577"><ele>110.2</ele><time>2026-04-18T07:45:47Z</time></trkpt><trkpt lat="43.54036219222954" lon="10.65086340960041"><ele>113.0</ele><time>2026-04-18T07:45:49Z</time></trkpt><trkpt lat="43.54032810932777" lon="10.650947789522235"><ele>112.99999999999999</ele><time>2026-04-18T07:45:50Z</time></trkpt><trkpt lat="43.540244017023234" lon="10.650920388856967"><ele>113.0</ele><time>2026-04-18T07:45:51Z</time></trkpt><trkpt lat="43.540170434993065" lon="10.650938428410011"><ele>113.0</ele><time>2026-04-18T07:45:53Z</time></trkpt><trkpt lat="43.540112010192864" lon="10.650981073653762"><ele>113.0</ele><time>2026-04-18T07:45:54Z</time></trkpt><trkpt lat="43.54004626658383" lon="10.650999081709578"><ele>112.99999999999999</ele><time>2026-04-18T07:45:55Z</time></trkpt><trkpt lat="43.539927010957264" lon="10.65098039996665"><ele>113.0</ele><time>2026-04-18T07:45:57Z</time></trkpt><trkpt lat="43.53985211251372" lon="10.650855376423634"><ele>113.0</ele><time>2026-04-18T07:45:59Z</time></trkpt><trkpt lat="43.53972351205017" lon="10.650841947667052"><ele>113.00000000000001</ele><time>2026-04-18T07:46:01Z</time></trkpt><trkpt lat="43.53960685448668" lon="10.650866482379534"><ele>113.00000000000001</ele><time>2026-04-18T07:46:03Z</time></trkpt><trkpt lat="43.5394980138509" lon="10.650914946999789"><ele>113.0</ele><time>2026-04-18T07:46:05Z</time></trkpt><trkpt lat="43.53943883261018" lon="10.650948352892453"><ele>113.0</ele><time>2026-04-18T07:46:06Z</time></trkpt><trkpt lat="43.53937370589795" lon="10.650993598721662"><ele>114.4</ele><time>2026-04-18T07:46:07Z</time></trkpt><trkpt lat="43.539310666815574" lon="10.651039350232741"><ele>115.80000000000001</ele><time>2026-04-18T07:46:08Z</time></trkpt><trkpt lat="43.5392044567776" lon="10.651124536384902"><ele>117.2</ele><time>2026-04-18T07:46:10Z</time></trkpt><trkpt lat="43.53911438510761" lon="10.6511735101873"><ele>118.6</ele><time>2026-04-18T07:46:12Z</time></trkpt><trkpt lat="43.539030408732934" lon="10.651220896540842"><ele>120.0</ele><time>2026-04-18T07:46:14Z</time></trkpt><trkpt lat="43.53903956396632" lon="10.65138787491756"><ele>121.85714285714286</ele><time>2026-04-18T07:46:16Z</time></trkpt><trkpt lat="43.53911572458193" lon="10.651437731600616"><ele>123.71428571428571</ele><time>2026-04-18T07:46:17Z</time></trkpt><trkpt lat="43.539170814197874" lon="10.65149025073476"><ele>125.57142857142857</ele><time>2026-04-18T07:46:18Z</time></trkpt><trkpt lat="43.53922197297357" lon="10.651545435257537"><ele>127.42857142857143</ele><time>2026-04-18T07:46:19Z</time></trkpt><trkpt lat="43.53925852638164" lon="10.651618057428813"><ele>129.28571428571428</ele><time>2026-04-18T07:46:20Z</time></trkpt><trkpt lat="43.53926821023435" lon="10.651739152805376"><ele>131.14285714285714</ele><time>2026-04-18T07:46:22Z</time></trkpt><trkpt lat="43.53921231033394" lon="10.651810712942725"><ele>133.0</ele><time>2026-04-18T07:46:23Z</time></trkpt><trkpt lat="43.53914472019932" lon="10.651820600971204"><ele>133.0</ele><time>2026-04-18T07:46:24Z</time></trkpt><trkpt lat="43.53906950720775" lon="10.651820403710484"><ele>133.0</ele><time>2026-04-18T07:46:25Z</time></trkpt><trkpt lat="43.53900794556185" lon="10.651788528710938"><ele>133.0</ele><time>2026-04-18T07:46:26Z</time></trkpt><trkpt lat="43.53895164083822" lon="10.65174411634274"><ele>133.0</ele><time>2026-04-18T07:46:27Z</time></trkpt><trkpt lat="43.53889835231789" lon="10.651693844162716"><ele>133.0</ele><time>2026-04-18T07:46:28Z</time></trkpt><trkpt lat="43.538783197876214" lon="10.651603069270008"><ele>133.0</ele><time>2026-04-18T07:46:30Z</time></trkpt><trkpt lat="43.538728795292606" lon="10.651547457919483"><ele>135.85714285714286</ele><time>2026-04-18T07:46:31Z</time></trkpt><trkpt lat="43.53866993086952" lon="10.651504752615097"><ele>138.71428571428572</ele><time>2026-04-18T07:46:32Z</time></trkpt><trkpt lat="43.53860817018063" lon="10.65145871911665"><ele>141.57142857142856</ele><time>2026-04-18T07:46:33Z</time></trkpt><trkpt lat="43.538542411626814" lon="10.65140753838562"><ele>144.42857142857144</ele><time>2026-04-18T07:46:34Z</time></trkpt><trkpt lat="43.538480407397124" lon="10.651356203173851"><ele>147.28571428571428</ele><time>2026-04-18T07:46:35Z</time></trkpt><trkpt lat="43.53841675821134" lon="10.651307693861613"><ele>150.14285714285714</ele><time>2026-04-18T07:46:36Z</time></trkpt><trkpt lat="43.538353166333515" lon="10.651232170334856"><ele>153.0</ele><time>2026-04-18T07:46:37Z</time></trkpt><trkpt lat="43.53828733546045" lon="10.651197772155573"><ele>153.0</ele><time>2026-04-18T07:46:38Z</time></trkpt><trkpt lat="43.53819064932591" lon="10.651152273999829"><ele>153.0</ele><time>2026-04-18T07:46:40Z</time></trkpt><trkpt lat="43.53809873163909" lon="10.651154549266726"><ele>153.0</ele><time>2026-04-18T07:46:42Z</time></trkpt><trkpt lat="43.537992807948505" lon="10.65123480832174"><ele>153.0</ele><time>2026-04-18T07:46:44Z</time></trkpt><trkpt lat="43.537943614916756" lon="10.651301823743623"><ele>153.0</ele><time>2026-04-18T07:46:45Z</time></trkpt><trkpt lat="43.53787846348566" lon="10.651350672021938"><ele>153.0</ele><time>2026-04-18T07:46:46Z</time></trkpt><trkpt lat="43.53782072945431" lon="10.651418080880255"><ele>153.0</ele><time>2026-04-18T07:46:47Z</time></trkpt><trkpt lat="43.53777430591142" lon="10.651485560892977"><ele>153.0</ele><time>2026-04-18T07:46:48Z</time></trkpt><trkpt lat="43.537727183597156" lon="10.651549743974106"><ele>153.0</ele><time>2026-04-18T07:46:49Z</time></trkpt><trkpt lat="43.53766389872492" lon="10.65160385724061"><ele>153.0</ele><time>2026-04-18T07:46:50Z</time></trkpt><trkpt lat="43.537554529374404" lon="10.65166703423575"><ele>153.0</ele><time>2026-04-18T07:46:52Z</time></trkpt><trkpt lat="43.53746384589089" lon="10.651662608273874"><ele>153.0</ele><time>2026-04-18T07:46:54Z</time></trkpt><trkpt lat="43.53738299800171" lon="10.651660775127871"><ele>153.0</ele><time>2026-04-18T07:46:56Z</time></trkpt><trkpt lat="43.53728822097362" lon="10.651630914567097"><ele>153.0</ele><time>2026-04-18T07:46:58Z</time></trkpt><trkpt lat="43.53722319368469" lon="10.651590511620089"><ele>153.0</ele><time>2026-04-18T07:46:59Z</time></trkpt><trkpt lat="43.537165873191405" lon="10.651541046305073"><ele>153.0</ele><time>2026-04-18T07:47:00Z</time></trkpt><trkpt lat="43.53710748049904" lon="10.651493325317535"><ele>153.0</ele><time>2026-04-18T07:47:01Z</time></trkpt><trkpt lat="43.537051444474024" lon="10.651447530283361"><ele>152.66666666666666</ele><time>2026-04-18T07:47:02Z</time></trkpt><trkpt lat="43.536932382308926" lon="10.65135726435752"><ele>152.33333333333334</ele><time>2026-04-18T07:47:04Z</time></trkpt><trkpt lat="43.53685810115246" lon="10.651298980156284"><ele>152.0</ele><time>2026-04-18T07:47:05Z</time></trkpt><trkpt lat="43.53679394371453" lon="10.651249066319636"><ele>151.66666666666669</ele><time>2026-04-18T07:47:06Z</time></trkpt><trkpt lat="43.536732890700804" lon="10.651208796866179"><ele>151.33333333333334</ele><time>2026-04-18T07:47:07Z</time></trkpt><trkpt lat="43.53666449781644" lon="10.651190394255888"><ele>151.0</ele><time>2026-04-18T07:47:08Z</time></trkpt><trkpt lat="43.53654146853128" lon="10.651176392041828"><ele>151.0</ele><time>2026-04-18T07:47:10Z</time></trkpt><trkpt lat="43.53647660078204" lon="10.651190649826383"><ele>151.0</ele><time>2026-04-18T07:47:11Z</time></trkpt><trkpt lat="43.53639845713227" lon="10.651193446465994"><ele>151.0</ele><time>2026-04-18T07:47:12Z</time></trkpt><trkpt lat="43.536308900819115" lon="10.65120572164755"><ele>151.0</ele><time>2026-04-18T07:47:13Z</time></trkpt><trkpt lat="43.53621273283134" lon="10.65121709369211"><ele>151.0</ele><time>2026-04-18T07:47:14Z</time></trkpt><trkpt lat="43.53611198622562" lon="10.651249005464978"><ele>151.0</ele><time>2026-04-18T07:47:15Z</time></trkpt><trkpt lat="43.53601392512683" lon="10.651221610912446"><ele>149.5</ele><time>2026-04-18T07:47:16Z</time></trkpt><trkpt lat="43.53592750434367" lon="10.651203095963902"><ele>148.0</ele><time>2026-04-18T07:47:17Z</time></trkpt><trkpt lat="43.53585130611558" lon="10.651204565846797"><ele>146.5</ele><time>2026-04-18T07:47:18Z</time></trkpt><trkpt lat="43.53577628287016" lon="10.651218877958218"><ele>145.0</ele><time>2026-04-18T07:47:19Z</time></trkpt><trkpt lat="43.535694193016866" lon="10.651250618235537"><ele>143.5</ele><time>2026-04-18T07:47:20Z</time></trkpt><trkpt lat="43.53561020615536" lon="10.651262270811559"><ele>142.0</ele><time>2026-04-18T07:47:21Z</time></trkpt><trkpt lat="43.5355258938535" lon="10.651251261014718"><ele>142.0</ele><time>2026-04-18T07:47:22Z</time></trkpt><trkpt lat="43.53543654089403" lon="10.651258142705318"><ele>142.0</ele><time>2026-04-18T07:47:23Z</time></trkpt><trkpt lat="43.535359656465545" lon="10.651266875000212"><ele>142.0</ele><time>2026-04-18T07:47:24Z</time></trkpt><trkpt lat="43.53528692569291" lon="10.651279876708244"><ele>142.0</ele><time>2026-04-18T07:47:25Z</time></trkpt><trkpt lat="43.535213667787815" lon="10.65131592513081"><ele>142.0</ele><time>2026-04-18T07:47:26Z</time></trkpt><trkpt lat="43.535139770353936" lon="10.651353288183913"><ele>142.0</ele><time>2026-04-18T07:47:27Z</time></trkpt><trkpt lat="43.53506615873868" lon="10.651424636500526"><ele>139.16666666666669</ele><time>2026-04-18T07:47:28Z</time></trkpt><trkpt lat="43.53499994262084" lon="10.651514756037813"><ele>136.33333333333334</ele><time>2026-04-18T07:47:29Z</time></trkpt><trkpt lat="43.53492174740542" lon="10.65155373535246"><ele>133.5</ele><time>2026-04-18T07:47:30Z</time></trkpt><trkpt lat="43.534855699116434" lon="10.651610618178049"><ele>130.66666666666666</ele><time>2026-04-18T07:47:31Z</time></trkpt><trkpt lat="43.534811757847436" lon="10.651704465978225"><ele>127.83333333333333</ele><time>2026-04-18T07:47:32Z</time></trkpt><trkpt lat="43.53477477868538" lon="10.651805109491534"><ele>125.0</ele><time>2026-04-18T07:47:33Z</time></trkpt><trkpt lat="43.53474245365449" lon="10.65192151301276"><ele>124.16666666666666</ele><time>2026-04-18T07:47:34Z</time></trkpt><trkpt lat="43.534764208403935" lon="10.652056008058958"><ele>123.33333333333333</ele><time>2026-04-18T07:47:35Z</time></trkpt><trkpt lat="43.53476582549669" lon="10.652199599850137"><ele>122.5</ele><time>2026-04-18T07:47:36Z</time></trkpt><trkpt lat="43.53476598315253" lon="10.652317923462478"><ele>121.66666666666666</ele><time>2026-04-18T07:47:37Z</time></trkpt><trkpt lat="43.534763383219655" lon="10.652428178729995"><ele>120.83333333333333</ele><time>2026-04-18T07:47:38Z</time></trkpt><trkpt lat="43.53476514450935" lon="10.652524737699121"><ele>120.0</ele><time>2026-04-18T07:47:39Z</time></trkpt><trkpt lat="43.53478287688791" lon="10.652629776482822"><ele>120.0</ele><time>2026-04-18T07:47:40Z</time></trkpt><trkpt lat="43.53480779638576" lon="10.652726863310054"><ele>120.0</ele><time>2026-04-18T07:47:41Z</time></trkpt><trkpt lat="43.5348420806416" lon="10.652824197249716"><ele>120.0</ele><time>2026-04-18T07:47:42Z</time></trkpt><trkpt lat="43.534872587704946" lon="10.652925629875096"><ele>120.0</ele><time>2026-04-18T07:47:43Z</time></trkpt><trkpt lat="43.5349034773965" lon="10.653025656269325"><ele>120.0</ele><time>2026-04-18T07:47:44Z</time></trkpt><trkpt lat="43.53492706101652" lon="10.65311264838971"><ele>120.0</ele><time>2026-04-18T07:47:45Z</time></trkpt><trkpt lat="43.534956627557214" lon="10.653209462264696"><ele>118.5</ele><time>2026-04-18T07:47:46Z</time></trkpt><trkpt lat="43.53498641551319" lon="10.653305397842322"><ele>117.0</ele><time>2026-04-18T07:47:47Z</time></trkpt><trkpt lat="43.53501608884216" lon="10.653405804913797"><ele>115.5</ele><time>2026-04-18T07:47:48Z</time></trkpt><trkpt lat="43.53503939167967" lon="10.65350431275544"><ele>114.0</ele><time>2026-04-18T07:47:49Z</time></trkpt><trkpt lat="43.5350525632856" lon="10.653598289054216"><ele>112.5</ele><time>2026-04-18T07:47:50Z</time></trkpt><trkpt lat="43.535063395350186" lon="10.653705453850302"><ele>111.0</ele><time>2026-04-18T07:47:51Z</time></trkpt><trkpt lat="43.535041209638386" lon="10.653804019719319"><ele>110.66666666666667</ele><time>2026-04-18T07:47:52Z</time></trkpt><trkpt lat="43.535025323364934" lon="10.653893250411286"><ele>110.33333333333334</ele><time>2026-04-18T07:47:53Z</time></trkpt><trkpt lat="43.53500562404698" lon="10.653982677800053"><ele>110.0</ele><time>2026-04-18T07:47:54Z</time></trkpt><trkpt lat="43.53498100616833" lon="10.654076001983771"><ele>109.66666666666667</ele><time>2026-04-18T07:47:55Z</time></trkpt><trkpt lat="43.53493436412305" lon="10.654227510461036"><ele>109.33333333333334</ele><time>2026-04-18T07:47:57Z</time></trkpt><trkpt lat="43.534881907398685" lon="10.654347245029653"><ele>109.0</ele><time>2026-04-18T07:47:59Z</time></trkpt><trkpt lat="43.53481636995598" lon="10.654490993363455"><ele>109.0</ele><time>2026-04-18T07:48:01Z</time></trkpt><trkpt lat="43.53477797504875" lon="10.654560677826376"><ele>109.0</ele><time>2026-04-18T07:48:02Z</time></trkpt><trkpt lat="43.53473225397654" lon="10.65463533457241"><ele>109.0</ele><time>2026-04-18T07:48:03Z</time></trkpt><trkpt lat="43.53468327885453" lon="10.654700694994473"><ele>109.0</ele><time>2026-04-18T07:48:04Z</time></trkpt><trkpt lat="43.53462833843122" lon="10.654757022205501"><ele>109.0</ele><time>2026-04-18T07:48:05Z</time></trkpt><trkpt lat="43.534562591447276" lon="10.654818479103861"><ele>109.0</ele><time>2026-04-18T07:48:06Z</time></trkpt><trkpt lat="43.53449373044053" lon="10.654879900502937"><ele>109.0</ele><time>2026-04-18T07:48:07Z</time></trkpt><trkpt lat="43.53442199743831" lon="10.654939882371586"><ele>109.00000000000001</ele><time>2026-04-18T07:48:08Z</time></trkpt><trkpt lat="43.53436053482853" lon="10.655017208887246"><ele>109.0</ele><time>2026-04-18T07:48:09Z</time></trkpt><trkpt lat="43.53428287966041" lon="10.655058113761767"><ele>109.0</ele><time>2026-04-18T07:48:10Z</time></trkpt><trkpt lat="43.53420776170431" lon="10.65511283528647"><ele>109.0</ele><time>2026-04-18T07:48:11Z</time></trkpt><trkpt lat="43.534130728847586" lon="10.655169214830156"><ele>109.00000000000001</ele><time>2026-04-18T07:48:12Z</time></trkpt><trkpt lat="43.534052576164775" lon="10.655226406944578"><ele>109.0</ele><time>2026-04-18T07:48:13Z</time></trkpt><trkpt lat="43.533987275965046" lon="10.655286567260912"><ele>109.50000000000001</ele><time>2026-04-18T07:48:14Z</time></trkpt><trkpt lat="43.5339233999906" lon="10.655373529938352"><ele>110.0</ele><time>2026-04-18T07:48:15Z</time></trkpt><trkpt lat="43.533869453576884" lon="10.655467286769351"><ele>110.5</ele><time>2026-04-18T07:48:16Z</time></trkpt><trkpt lat="43.533819659183244" lon="10.65556494840345"><ele>111.0</ele><time>2026-04-18T07:48:17Z</time></trkpt><trkpt lat="43.533779085690576" lon="10.65567390987543"><ele>111.50000000000001</ele><time>2026-04-18T07:48:18Z</time></trkpt><trkpt lat="43.5337475087726" lon="10.655793970014555"><ele>112.0</ele><time>2026-04-18T07:48:19Z</time></trkpt><trkpt lat="43.53372057699247" lon="10.655919233152225"><ele>112.6</ele><time>2026-04-18T07:48:20Z</time></trkpt><trkpt lat="43.53368790424757" lon="10.656055872186434"><ele>113.19999999999999</ele><time>2026-04-18T07:48:21Z</time></trkpt><trkpt lat="43.53365682420502" lon="10.656192200543614"><ele>113.8</ele><time>2026-04-18T07:48:22Z</time></trkpt><trkpt lat="43.53362316898613" lon="10.65633020967168"><ele>114.4</ele><time>2026-04-18T07:48:23Z</time></trkpt><trkpt lat="43.53359228348295" lon="10.656469503949124"><ele>115.0</ele><time>2026-04-18T07:48:24Z</time></trkpt><trkpt lat="43.533556745490316" lon="10.656600526271847"><ele>116.6</ele><time>2026-04-18T07:48:25Z</time></trkpt><trkpt lat="43.533514568262866" lon="10.656727913487101"><ele>118.2</ele><time>2026-04-18T07:48:26Z</time></trkpt><trkpt lat="43.53346623085794" lon="10.65684892250574"><ele>119.80000000000001</ele><time>2026-04-18T07:48:27Z</time></trkpt><trkpt lat="43.53341416824364" lon="10.656965486561889"><ele>121.4</ele><time>2026-04-18T07:48:28Z</time></trkpt><trkpt lat="43.53335827084561" lon="10.657078516803278"><ele>123.0</ele><time>2026-04-18T07:48:29Z</time></trkpt><trkpt lat="43.53330626389902" lon="10.657181224577869"><ele>124.5</ele><time>2026-04-18T07:48:30Z</time></trkpt><trkpt lat="43.53325147375337" lon="10.657278942765467"><ele>126.0</ele><time>2026-04-18T07:48:31Z</time></trkpt><trkpt lat="43.533180190388464" lon="10.65737742151275"><ele>127.5</ele><time>2026-04-18T07:48:32Z</time></trkpt><trkpt lat="43.53310551821343" lon="10.657436170514382"><ele>129.0</ele><time>2026-04-18T07:48:33Z</time></trkpt><trkpt lat="43.53303913400094" lon="10.657488431724758"><ele>130.5</ele><time>2026-04-18T07:48:34Z</time></trkpt><trkpt lat="43.53296531152448" lon="10.657515334371904"><ele>132.0</ele><time>2026-04-18T07:48:35Z</time></trkpt><trkpt lat="43.53288023471519" lon="10.657536358362412"><ele>133.16666666666666</ele><time>2026-04-18T07:48:36Z</time></trkpt><trkpt lat="43.53281070571419" lon="10.657550503900678"><ele>134.33333333333334</ele><time>2026-04-18T07:48:37Z</time></trkpt><trkpt lat="43.53273468841249" lon="10.657565591770272"><ele>135.5</ele><time>2026-04-18T07:48:38Z</time></trkpt><trkpt lat="43.532663053401166" lon="10.657579809846425"><ele>136.66666666666669</ele><time>2026-04-18T07:48:39Z</time></trkpt><trkpt lat="43.53259168641398" lon="10.65759236683365"><ele>137.83333333333334</ele><time>2026-04-18T07:48:40Z</time></trkpt><trkpt lat="43.5325243644291" lon="10.657599904069862"><ele>139.0</ele><time>2026-04-18T07:48:41Z</time></trkpt><trkpt lat="43.53241299437894" lon="10.657607938439618"><ele>139.0</ele><time>2026-04-18T07:48:43Z</time></trkpt><trkpt lat="43.532337638056944" lon="10.657652321414103"><ele>139.0</ele><time>2026-04-18T07:48:45Z</time></trkpt><trkpt lat="43.53237669343876" lon="10.657771212324134"><ele>139.0</ele><time>2026-04-18T07:48:49Z</time></trkpt><trkpt lat="43.532462841976226" lon="10.657807663786546"><ele>139.0</ele><time>2026-04-18T07:48:51Z</time></trkpt><trkpt lat="43.532530172899946" lon="10.657910535829666"><ele>139.0</ele><time>2026-04-18T07:48:53Z</time></trkpt><trkpt lat="43.532503504805234" lon="10.658057734778868"><ele>141.33333333333334</ele><time>2026-04-18T07:48:55Z</time></trkpt><trkpt lat="43.532463008471616" lon="10.658126726432332"><ele>143.66666666666669</ele><time>2026-04-18T07:48:56Z</time></trkpt><trkpt lat="43.532408106580384" lon="10.658179591723027"><ele>146.0</ele><time>2026-04-18T07:48:57Z</time></trkpt><trkpt lat="43.532335527911506" lon="10.658175931628806"><ele>148.33333333333334</ele><time>2026-04-18T07:48:58Z</time></trkpt><trkpt lat="43.53227117825057" lon="10.658173924118167"><ele>150.66666666666666</ele><time>2026-04-18T07:48:59Z</time></trkpt><trkpt lat="43.53215107554523" lon="10.658085598667626"><ele>153.0</ele><time>2026-04-18T07:49:01Z</time></trkpt><trkpt lat="43.53207316721774" lon="10.658052182549495"><ele>154.0</ele><time>2026-04-18T07:49:02Z</time></trkpt><trkpt lat="43.53199862493745" lon="10.657990631213407"><ele>155.0</ele><time>2026-04-18T07:49:03Z</time></trkpt><trkpt lat="43.5319248365082" lon="10.657941848359714"><ele>156.0</ele><time>2026-04-18T07:49:04Z</time></trkpt><trkpt lat="43.531852163886235" lon="10.657908065267781"><ele>157.0</ele><time>2026-04-18T07:49:05Z</time></trkpt><trkpt lat="43.53177632575867" lon="10.657892755589973"><ele>158.0</ele><time>2026-04-18T07:49:06Z</time></trkpt><trkpt lat="43.53171143762565" lon="10.65791672648862"><ele>159.0</ele><time>2026-04-18T07:49:07Z</time></trkpt><trkpt lat="43.531661410265244" lon="10.657984924246316"><ele>159.0</ele><time>2026-04-18T07:49:08Z</time></trkpt><trkpt lat="43.5316253236576" lon="10.65813752449404"><ele>159.0</ele><time>2026-04-18T07:49:10Z</time></trkpt><trkpt lat="43.531643551801366" lon="10.658221197036905"><ele>159.0</ele><time>2026-04-18T07:49:11Z</time></trkpt><trkpt lat="43.531678046821035" lon="10.65829497156356"><ele>159.0</ele><time>2026-04-18T07:49:12Z</time></trkpt><trkpt lat="43.53178326116147" lon="10.658389957449858"><ele>159.0</ele><time>2026-04-18T07:49:14Z</time></trkpt><trkpt lat="43.53184356818731" lon="10.6584426663639"><ele>159.0</ele><time>2026-04-18T07:49:15Z</time></trkpt><trkpt lat="43.531907957854095" lon="10.65850512633611"><ele>159.0</ele><time>2026-04-18T07:49:16Z</time></trkpt><trkpt lat="43.53196503599709" lon="10.658574714346013"><ele>159.0</ele><time>2026-04-18T07:49:17Z</time></trkpt><trkpt lat="43.53202332811137" lon="10.658665317835883"><ele>159.0</ele><time>2026-04-18T07:49:18Z</time></trkpt><trkpt lat="43.53206878787209" lon="10.658766585823805"><ele>159.0</ele><time>2026-04-18T07:49:19Z</time></trkpt><trkpt lat="43.53211388040565" lon="10.658875221825346"><ele>159.0</ele><time>2026-04-18T07:49:20Z</time></trkpt><trkpt lat="43.532159664347056" lon="10.658981975347832"><ele>159.0</ele><time>2026-04-18T07:49:21Z</time></trkpt><trkpt lat="43.5322104920545" lon="10.659089535686643"><ele>159.4</ele><time>2026-04-18T07:49:22Z</time></trkpt><trkpt lat="43.53226514167957" lon="10.659192275317565"><ele>159.8</ele><time>2026-04-18T07:49:23Z</time></trkpt><trkpt lat="43.53232659104486" lon="10.659291858811196"><ele>160.20000000000002</ele><time>2026-04-18T07:49:24Z</time></trkpt><trkpt lat="43.53238839096239" lon="10.659392767164514"><ele>160.60000000000002</ele><time>2026-04-18T07:49:25Z</time></trkpt><trkpt lat="43.53245210023676" lon="10.659499912822163"><ele>161.0</ele><time>2026-04-18T07:49:26Z</time></trkpt><trkpt lat="43.53251616018487" lon="10.659605859510014"><ele>163.4</ele><time>2026-04-18T07:49:27Z</time></trkpt><trkpt lat="43.53258157839756" lon="10.65971315201903"><ele>165.8</ele><time>2026-04-18T07:49:28Z</time></trkpt><trkpt lat="43.53265349586368" lon="10.659821927871361"><ele>168.20000000000002</ele><time>2026-04-18T07:49:29Z</time></trkpt><trkpt lat="43.532725118769484" lon="10.659927910845884"><ele>170.60000000000002</ele><time>2026-04-18T07:49:30Z</time></trkpt><trkpt lat="43.53279275633104" lon="10.660035860021692"><ele>173.0</ele><time>2026-04-18T07:49:31Z</time></trkpt><trkpt lat="43.53286151755034" lon="10.660142173983598"><ele>172.2</ele><time>2026-04-18T07:49:32Z</time></trkpt><trkpt lat="43.532929632116605" lon="10.660251108046152"><ele>171.4</ele><time>2026-04-18T07:49:33Z</time></trkpt><trkpt lat="43.5329953414454" lon="10.660353131309188"><ele>170.6</ele><time>2026-04-18T07:49:34Z</time></trkpt><trkpt lat="43.53305751952603" lon="10.660458979165023"><ele>169.79999999999998</ele><time>2026-04-18T07:49:35Z</time></trkpt><trkpt lat="43.53311890635822" lon="10.66055621640195"><ele>169.0</ele><time>2026-04-18T07:49:36Z</time></trkpt><trkpt lat="43.533188291823784" lon="10.660648810547515"><ele>169.0</ele><time>2026-04-18T07:49:37Z</time></trkpt><trkpt lat="43.533260667581445" lon="10.66072946593532"><ele>169.0</ele><time>2026-04-18T07:49:38Z</time></trkpt><trkpt lat="43.53333239393449" lon="10.660794905622078"><ele>169.0</ele><time>2026-04-18T07:49:39Z</time></trkpt><trkpt lat="43.533397994280314" lon="10.660853878349004"><ele>169.0</ele><time>2026-04-18T07:49:40Z</time></trkpt><trkpt lat="43.53348677505452" lon="10.660925851784977"><ele>169.0</ele><time>2026-04-18T07:49:42Z</time></trkpt><trkpt lat="43.533550789245886" lon="10.660971139994109"><ele>169.0</ele><time>2026-04-18T07:49:46Z</time></trkpt><trkpt lat="43.53346258198977" lon="10.661007705499582"><ele>169.0</ele><time>2026-04-18T07:49:53Z</time></trkpt><trkpt lat="43.53335906698286" lon="10.660975432284538"><ele>169.0</ele><time>2026-04-18T07:49:55Z</time></trkpt><trkpt lat="43.533234947985434" lon="10.660936735257433"><ele>169.0</ele><time>2026-04-18T07:49:57Z</time></trkpt><trkpt lat="43.53317134249406" lon="10.660916904744601"><ele>169.0</ele><time>2026-04-18T07:49:58Z</time></trkpt><trkpt lat="43.53310896139657" lon="10.660895796592069"><ele>169.0</ele><time>2026-04-18T07:49:59Z</time></trkpt><trkpt lat="43.533010382704994" lon="10.660856077647507"><ele>169.0</ele><time>2026-04-18T07:50:01Z</time></trkpt><trkpt lat="43.53290949699096" lon="10.660808869163043"><ele>169.0</ele><time>2026-04-18T07:50:03Z</time></trkpt><trkpt lat="43.53281150122818" lon="10.660778677689379"><ele>169.0</ele><time>2026-04-18T07:50:05Z</time></trkpt><trkpt lat="43.532751304931324" lon="10.660725938227495"><ele>169.0</ele><time>2026-04-18T07:50:07Z</time></trkpt><trkpt lat="43.53268154353141" lon="10.660692590279794"><ele>169.0</ele><time>2026-04-18T07:50:11Z</time></trkpt><trkpt lat="43.53275376167908" lon="10.660728951784998"><ele>169.0</ele><time>2026-04-18T07:50:25Z</time></trkpt><trkpt lat="43.53283892856059" lon="10.660778872927324"><ele>169.0</ele><time>2026-04-18T07:50:27Z</time></trkpt><trkpt lat="43.532949179437544" lon="10.660891141396695"><ele>169.0</ele><time>2026-04-18T07:50:29Z</time></trkpt><trkpt lat="43.53302715025476" lon="10.660922933566413"><ele>169.0</ele><time>2026-04-18T07:50:30Z</time></trkpt><trkpt lat="43.533106455409786" lon="10.660957824192577"><ele>169.0</ele><time>2026-04-18T07:50:31Z</time></trkpt><trkpt lat="43.53319727852535" lon="10.660984410237065"><ele>169.0</ele><time>2026-04-18T07:50:32Z</time></trkpt><trkpt lat="43.533290150029046" lon="10.661005159828603"><ele>169.0</ele><time>2026-04-18T07:50:33Z</time></trkpt><trkpt lat="43.53337711795234" lon="10.66103405010914"><ele>169.0</ele><time>2026-04-18T07:50:34Z</time></trkpt><trkpt lat="43.53346426943179" lon="10.661058592096492"><ele>169.0</ele><time>2026-04-18T07:50:35Z</time></trkpt><trkpt lat="43.53354899790735" lon="10.661081730375283"><ele>169.0</ele><time>2026-04-18T07:50:36Z</time></trkpt><trkpt lat="43.533636340605646" lon="10.661103369142095"><ele>169.0</ele><time>2026-04-18T07:50:37Z</time></trkpt><trkpt lat="43.533717718120236" lon="10.66112190310449"><ele>169.0</ele><time>2026-04-18T07:50:38Z</time></trkpt><trkpt lat="43.53379236636949" lon="10.661140484378375"><ele>168.0</ele><time>2026-04-18T07:50:39Z</time></trkpt><trkpt lat="43.53386677401161" lon="10.661155339209786"><ele>167.0</ele><time>2026-04-18T07:50:40Z</time></trkpt><trkpt lat="43.53393953283511" lon="10.661173766072983"><ele>166.0</ele><time>2026-04-18T07:50:41Z</time></trkpt><trkpt lat="43.534008902929344" lon="10.661191885645602"><ele>165.0</ele><time>2026-04-18T07:50:42Z</time></trkpt><trkpt lat="43.534073705851974" lon="10.661207007819385"><ele>164.0</ele><time>2026-04-18T07:50:43Z</time></trkpt><trkpt lat="43.53416593135881" lon="10.66121988439788"><ele>163.0</ele><time>2026-04-18T07:50:45Z</time></trkpt><trkpt lat="43.534239334356684" lon="10.661268112421409"><ele>163.0</ele><time>2026-04-18T07:50:48Z</time></trkpt><trkpt lat="43.53422934558405" lon="10.661379141030888"><ele>163.0</ele><time>2026-04-18T07:50:50Z</time></trkpt><trkpt lat="43.53419883795396" lon="10.661457149150765"><ele>163.0</ele><time>2026-04-18T07:50:51Z</time></trkpt><trkpt lat="43.53416445216825" lon="10.661545073916157"><ele>163.0</ele><time>2026-04-18T07:50:52Z</time></trkpt><trkpt lat="43.53412743691839" lon="10.661645479890606"><ele>163.0</ele><time>2026-04-18T07:50:53Z</time></trkpt><trkpt lat="43.53410093129514" lon="10.661769689527167"><ele>163.0</ele><time>2026-04-18T07:50:54Z</time></trkpt><trkpt lat="43.534058574439065" lon="10.66188340716389"><ele>161.8</ele><time>2026-04-18T07:50:55Z</time></trkpt><trkpt lat="43.534008872827684" lon="10.662002954432918"><ele>160.60000000000002</ele><time>2026-04-18T07:50:56Z</time></trkpt><trkpt lat="43.53396415181764" lon="10.662135519359989"><ele>159.39999999999998</ele><time>2026-04-18T07:50:57Z</time></trkpt><trkpt lat="43.53392193157269" lon="10.662264078481924"><ele>158.2</ele><time>2026-04-18T07:50:58Z</time></trkpt><trkpt lat="43.53387490693762" lon="10.66239889320874"><ele>157.0</ele><time>2026-04-18T07:50:59Z</time></trkpt><trkpt lat="43.53382734417026" lon="10.662536933646024"><ele>157.0</ele><time>2026-04-18T07:51:00Z</time></trkpt><trkpt lat="43.53377984845938" lon="10.66266812201161"><ele>157.0</ele><time>2026-04-18T07:51:01Z</time></trkpt><trkpt lat="43.53372784881151" lon="10.66280202264741"><ele>157.0</ele><time>2026-04-18T07:51:02Z</time></trkpt><trkpt lat="43.53368815944676" lon="10.66294416903796"><ele>157.0</ele><time>2026-04-18T07:51:03Z</time></trkpt><trkpt lat="43.53365111387302" lon="10.663089999230163"><ele>157.0</ele><time>2026-04-18T07:51:04Z</time></trkpt><trkpt lat="43.53361603280819" lon="10.663233410647239"><ele>158.6</ele><time>2026-04-18T07:51:05Z</time></trkpt><trkpt lat="43.53358379242432" lon="10.663379158621677"><ele>160.2</ele><time>2026-04-18T07:51:06Z</time></trkpt><trkpt lat="43.5335549592305" lon="10.663522793407461"><ele>161.8</ele><time>2026-04-18T07:51:07Z</time></trkpt><trkpt lat="43.53352883779854" lon="10.66366167436563"><ele>163.4</ele><time>2026-04-18T07:51:08Z</time></trkpt><trkpt lat="43.53350423153078" lon="10.663795036734081"><ele>165.0</ele><time>2026-04-18T07:51:09Z</time></trkpt><trkpt lat="43.533487474857694" lon="10.663930807604515"><ele>165.0</ele><time>2026-04-18T07:51:10Z</time></trkpt><trkpt lat="43.53347483991655" lon="10.664066031074805"><ele>165.0</ele><time>2026-04-18T07:51:11Z</time></trkpt><trkpt lat="43.533462143204055" lon="10.66421213132362"><ele>165.0</ele><time>2026-04-18T07:51:12Z</time></trkpt><trkpt lat="43.53344474112877" lon="10.66435395944866"><ele>165.0</ele><time>2026-04-18T07:51:13Z</time></trkpt><trkpt lat="43.53341806417399" lon="10.664490830265311"><ele>165.0</ele><time>2026-04-18T07:51:14Z</time></trkpt><trkpt lat="43.53336217020234" lon="10.664612990550054"><ele>163.0</ele><time>2026-04-18T07:51:15Z</time></trkpt><trkpt lat="43.53329682520182" lon="10.664721044091783"><ele>161.0</ele><time>2026-04-18T07:51:16Z</time></trkpt><trkpt lat="43.5332157086713" lon="10.664824657019059"><ele>159.0</ele><time>2026-04-18T07:51:17Z</time></trkpt><trkpt lat="43.53312604988757" lon="10.664919262835781"><ele>157.0</ele><time>2026-04-18T07:51:18Z</time></trkpt><trkpt lat="43.53302959185516" lon="10.66499402464858"><ele>155.0</ele><time>2026-04-18T07:51:19Z</time></trkpt><trkpt lat="43.53292457628579" lon="10.665035891799747"><ele>154.6</ele><time>2026-04-18T07:51:20Z</time></trkpt><trkpt lat="43.53281798545012" lon="10.665054544299268"><ele>154.2</ele><time>2026-04-18T07:51:21Z</time></trkpt><trkpt lat="43.53270946348317" lon="10.665041996609427"><ele>153.8</ele><time>2026-04-18T07:51:22Z</time></trkpt><trkpt lat="43.53260189981252" lon="10.665010969857034"><ele>153.4</ele><time>2026-04-18T07:51:23Z</time></trkpt><trkpt lat="43.53250113088967" lon="10.664976825633273"><ele>153.0</ele><time>2026-04-18T07:51:24Z</time></trkpt><trkpt lat="43.5323986936143" lon="10.664964168563735"><ele>153.0</ele><time>2026-04-18T07:51:25Z</time></trkpt><trkpt lat="43.53229899895689" lon="10.664980460626403"><ele>153.0</ele><time>2026-04-18T07:51:26Z</time></trkpt><trkpt lat="43.53220803585828" lon="10.665029396202472"><ele>153.0</ele><time>2026-04-18T07:51:27Z</time></trkpt><trkpt lat="43.532123952328895" lon="10.66511919801933"><ele>153.0</ele><time>2026-04-18T07:51:28Z</time></trkpt><trkpt lat="43.53205265311695" lon="10.665235114977877"><ele>153.0</ele><time>2026-04-18T07:51:29Z</time></trkpt><trkpt lat="43.53200045306913" lon="10.665354970629485"><ele>150.5</ele><time>2026-04-18T07:51:30Z</time></trkpt><trkpt lat="43.53195074759956" lon="10.665493012471106"><ele>148.0</ele><time>2026-04-18T07:51:31Z</time></trkpt><trkpt lat="43.531881975942646" lon="10.665634289377893"><ele>145.5</ele><time>2026-04-18T07:51:32Z</time></trkpt><trkpt lat="43.531814833296345" lon="10.665770515220943"><ele>143.0</ele><time>2026-04-18T07:51:33Z</time></trkpt><trkpt lat="43.531733170828836" lon="10.665888615828724"><ele>143.0</ele><time>2026-04-18T07:51:34Z</time></trkpt><trkpt lat="43.53166701381116" lon="10.666033186759586"><ele>143.0</ele><time>2026-04-18T07:51:35Z</time></trkpt><trkpt lat="43.53159931504795" lon="10.666178460526401"><ele>143.0</ele><time>2026-04-18T07:51:36Z</time></trkpt><trkpt lat="43.53152677737297" lon="10.666330715037558"><ele>143.0</ele><time>2026-04-18T07:51:37Z</time></trkpt><trkpt lat="43.53144173040248" lon="10.666462941683575"><ele>144.0</ele><time>2026-04-18T07:51:38Z</time></trkpt><trkpt lat="43.53134959382789" lon="10.666597794273164"><ele>145.0</ele><time>2026-04-18T07:51:39Z</time></trkpt><trkpt lat="43.53125991040414" lon="10.666727053305618"><ele>146.0</ele><time>2026-04-18T07:51:40Z</time></trkpt><trkpt lat="43.53117865456874" lon="10.666844165811142"><ele>147.0</ele><time>2026-04-18T07:51:41Z</time></trkpt><trkpt lat="43.53108854634104" lon="10.666954441280263"><ele>150.0</ele><time>2026-04-18T07:51:42Z</time></trkpt><trkpt lat="43.53101179813335" lon="10.667079520675474"><ele>153.0</ele><time>2026-04-18T07:51:43Z</time></trkpt><trkpt lat="43.53093632260478" lon="10.667202893975503"><ele>156.0</ele><time>2026-04-18T07:51:44Z</time></trkpt><trkpt lat="43.5308621773545" lon="10.667323025888761"><ele>159.0</ele><time>2026-04-18T07:51:45Z</time></trkpt><trkpt lat="43.53078481109666" lon="10.66743112214242"><ele>159.0</ele><time>2026-04-18T07:51:46Z</time></trkpt><trkpt lat="43.53069922010346" lon="10.667527398747497"><ele>159.0</ele><time>2026-04-18T07:51:47Z</time></trkpt><trkpt lat="43.53061182041925" lon="10.667610876160653"><ele>159.0</ele><time>2026-04-18T07:51:48Z</time></trkpt><trkpt lat="43.530523749504994" lon="10.66769381829702"><ele>159.0</ele><time>2026-04-18T07:51:49Z</time></trkpt><trkpt lat="43.53043496436444" lon="10.667776310742367"><ele>159.0</ele><time>2026-04-18T07:51:50Z</time></trkpt><trkpt lat="43.53034654999081" lon="10.667859389442855"><ele>160.0</ele><time>2026-04-18T07:51:51Z</time></trkpt><trkpt lat="43.530260315083034" lon="10.667963167806302"><ele>161.0</ele><time>2026-04-18T07:51:52Z</time></trkpt><trkpt lat="43.53017698134665" lon="10.668082644198586"><ele>162.0</ele><time>2026-04-18T07:51:53Z</time></trkpt><trkpt lat="43.53010608666227" lon="10.668225974568035"><ele>163.0</ele><time>2026-04-18T07:51:54Z</time></trkpt><trkpt lat="43.5300117171009" lon="10.668345857395192"><ele>163.0</ele><time>2026-04-18T07:51:55Z</time></trkpt><trkpt lat="43.52992066244903" lon="10.668486810053615"><ele>163.0</ele><time>2026-04-18T07:51:56Z</time></trkpt><trkpt lat="43.52982695148116" lon="10.668627486145946"><ele>163.0</ele><time>2026-04-18T07:51:57Z</time></trkpt><trkpt lat="43.52973654119056" lon="10.668761033372178"><ele>163.0</ele><time>2026-04-18T07:51:58Z</time></trkpt><trkpt lat="43.52964859165559" lon="10.668904835707199"><ele>162.5</ele><time>2026-04-18T07:51:59Z</time></trkpt><trkpt lat="43.529556761394105" lon="10.6690299406279"><ele>162.0</ele><time>2026-04-18T07:52:00Z</time></trkpt><trkpt lat="43.52946368035495" lon="10.669155694953945"><ele>161.5</ele><time>2026-04-18T07:52:01Z</time></trkpt><trkpt lat="43.52936511903698" lon="10.669279416976565"><ele>161.0</ele><time>2026-04-18T07:52:02Z</time></trkpt><trkpt lat="43.529266219968314" lon="10.669389730259144"><ele>161.5</ele><time>2026-04-18T07:52:03Z</time></trkpt><trkpt lat="43.529163428914266" lon="10.6694968628444"><ele>162.0</ele><time>2026-04-18T07:52:04Z</time></trkpt><trkpt lat="43.529052537754474" lon="10.669594651389493"><ele>162.5</ele><time>2026-04-18T07:52:05Z</time></trkpt><trkpt lat="43.528943418054034" lon="10.669709475861763"><ele>163.0</ele><time>2026-04-18T07:52:06Z</time></trkpt><trkpt lat="43.528835980806136" lon="10.669828530808822"><ele>163.0</ele><time>2026-04-18T07:52:07Z</time></trkpt><trkpt lat="43.52872993657417" lon="10.669950617916879"><ele>163.0</ele><time>2026-04-18T07:52:08Z</time></trkpt><trkpt lat="43.5286274835647" lon="10.670070481579708"><ele>163.0</ele><time>2026-04-18T07:52:09Z</time></trkpt><trkpt lat="43.52852870549902" lon="10.670194091332478"><ele>163.0</ele><time>2026-04-18T07:52:10Z</time></trkpt><trkpt lat="43.52842668173942" lon="10.670319239978138"><ele>162.5</ele><time>2026-04-18T07:52:11Z</time></trkpt><trkpt lat="43.528323065482375" lon="10.67044612650007"><ele>162.0</ele><time>2026-04-18T07:52:12Z</time></trkpt><trkpt lat="43.528220057390705" lon="10.670576921513133"><ele>161.5</ele><time>2026-04-18T07:52:13Z</time></trkpt><trkpt lat="43.528116150851666" lon="10.670709007082925"><ele>161.0</ele><time>2026-04-18T07:52:14Z</time></trkpt><trkpt lat="43.52801650959989" lon="10.670835976584748"><ele>161.0</ele><time>2026-04-18T07:52:15Z</time></trkpt><trkpt lat="43.527916146380896" lon="10.670959887459867"><ele>161.0</ele><time>2026-04-18T07:52:16Z</time></trkpt><trkpt lat="43.527815290945334" lon="10.671088275887051"><ele>161.0</ele><time>2026-04-18T07:52:17Z</time></trkpt><trkpt lat="43.52771566394801" lon="10.671209714771674"><ele>161.0</ele><time>2026-04-18T07:52:18Z</time></trkpt><trkpt lat="43.527617668860955" lon="10.671337302858959"><ele>162.25</ele><time>2026-04-18T07:52:19Z</time></trkpt><trkpt lat="43.52753327337889" lon="10.671478348210846"><ele>163.5</ele><time>2026-04-18T07:52:20Z</time></trkpt><trkpt lat="43.527470470548614" lon="10.671644853588061"><ele>164.75</ele><time>2026-04-18T07:52:21Z</time></trkpt><trkpt lat="43.52738335843071" lon="10.67180759072261"><ele>166.0</ele><time>2026-04-18T07:52:22Z</time></trkpt><trkpt lat="43.52731191125584" lon="10.671970293571771"><ele>167.25</ele><time>2026-04-18T07:52:23Z</time></trkpt><trkpt lat="43.52724331441643" lon="10.672122363954475"><ele>168.5</ele><time>2026-04-18T07:52:24Z</time></trkpt><trkpt lat="43.5271673441303" lon="10.672265271416073"><ele>169.75</ele><time>2026-04-18T07:52:25Z</time></trkpt><trkpt lat="43.52707725266741" lon="10.672372939053933"><ele>171.0</ele><time>2026-04-18T07:52:26Z</time></trkpt><trkpt lat="43.526977183435584" lon="10.672450357987673"><ele>171.0</ele><time>2026-04-18T07:52:27Z</time></trkpt><trkpt lat="43.52685451944378" lon="10.67247871007037"><ele>171.0</ele><time>2026-04-18T07:52:28Z</time></trkpt><trkpt lat="43.52673008987228" lon="10.672469421549431"><ele>171.0</ele><time>2026-04-18T07:52:29Z</time></trkpt><trkpt lat="43.52661837378719" lon="10.672473685440398"><ele>171.0</ele><time>2026-04-18T07:52:30Z</time></trkpt><trkpt lat="43.52652259229893" lon="10.672466249608636"><ele>171.0</ele><time>2026-04-18T07:52:31Z</time></trkpt><trkpt lat="43.526412965592854" lon="10.67246527834199"><ele>171.0</ele><time>2026-04-18T07:52:32Z</time></trkpt><trkpt lat="43.526319881525644" lon="10.672483705062088"><ele>171.0</ele><time>2026-04-18T07:52:33Z</time></trkpt><trkpt lat="43.52624076848314" lon="10.672528835590594"><ele>171.0</ele><time>2026-04-18T07:52:34Z</time></trkpt><trkpt lat="43.52616256479026" lon="10.672569766015524"><ele>171.0</ele><time>2026-04-18T07:52:35Z</time></trkpt><trkpt lat="43.52609817588829" lon="10.672626308367386"><ele>171.0</ele><time>2026-04-18T07:52:36Z</time></trkpt><trkpt lat="43.526044730899905" lon="10.67270632874339"><ele>170.83333333333334</ele><time>2026-04-18T07:52:37Z</time></trkpt><trkpt lat="43.5259731370733" lon="10.67278946533457"><ele>170.66666666666666</ele><time>2026-04-18T07:52:38Z</time></trkpt><trkpt lat="43.52592144690935" lon="10.672882190886984"><ele>170.5</ele><time>2026-04-18T07:52:39Z</time></trkpt><trkpt lat="43.52588356534671" lon="10.672985746533373"><ele>170.33333333333331</ele><time>2026-04-18T07:52:40Z</time></trkpt><trkpt lat="43.52584663462018" lon="10.673096896301821"><ele>170.16666666666666</ele><time>2026-04-18T07:52:41Z</time></trkpt><trkpt lat="43.525841384759424" lon="10.67323014876071"><ele>170.0</ele><time>2026-04-18T07:52:42Z</time></trkpt><trkpt lat="43.52581735439934" lon="10.67334909848113"><ele>170.0</ele><time>2026-04-18T07:52:43Z</time></trkpt><trkpt lat="43.525810517019906" lon="10.673487341972496"><ele>170.0</ele><time>2026-04-18T07:52:44Z</time></trkpt><trkpt lat="43.52581542137978" lon="10.673624950380004"><ele>170.0</ele><time>2026-04-18T07:52:45Z</time></trkpt><trkpt lat="43.5258025757878" lon="10.673762839419206"><ele>170.0</ele><time>2026-04-18T07:52:46Z</time></trkpt><trkpt lat="43.52578890417049" lon="10.673900534762796"><ele>170.0</ele><time>2026-04-18T07:52:47Z</time></trkpt><trkpt lat="43.52575006862369" lon="10.674049124985345"><ele>171.6</ele><time>2026-04-18T07:52:48Z</time></trkpt><trkpt lat="43.52572397842435" lon="10.674196326277832"><ele>173.2</ele><time>2026-04-18T07:52:49Z</time></trkpt><trkpt lat="43.525707065148104" lon="10.67434416365635"><ele>174.8</ele><time>2026-04-18T07:52:50Z</time></trkpt><trkpt lat="43.52568981430275" lon="10.674486572690256"><ele>176.4</ele><time>2026-04-18T07:52:51Z</time></trkpt><trkpt lat="43.52567038696658" lon="10.674629212224982"><ele>178.0</ele><time>2026-04-18T07:52:52Z</time></trkpt><trkpt lat="43.52565298134825" lon="10.67476735190703"><ele>179.0</ele><time>2026-04-18T07:52:53Z</time></trkpt><trkpt lat="43.52563467569366" lon="10.674897302706935"><ele>180.0</ele><time>2026-04-18T07:52:54Z</time></trkpt><trkpt lat="43.52561900468056" lon="10.675025611405161"><ele>181.0</ele><time>2026-04-18T07:52:55Z</time></trkpt><trkpt lat="43.52560294333085" lon="10.675143362137602"><ele>182.0</ele><time>2026-04-18T07:52:56Z</time></trkpt><trkpt lat="43.52557922533382" lon="10.675257121071049"><ele>183.0</ele><time>2026-04-18T07:52:57Z</time></trkpt><trkpt lat="43.52555604716395" lon="10.67538142934407"><ele>183.0</ele><time>2026-04-18T07:52:58Z</time></trkpt><trkpt lat="43.525508819664005" lon="10.675510142787012"><ele>183.0</ele><time>2026-04-18T07:52:59Z</time></trkpt><trkpt lat="43.52546483625063" lon="10.6756073408368"><ele>183.0</ele><time>2026-04-18T07:53:00Z</time></trkpt><trkpt lat="43.52542333132319" lon="10.675703137584588"><ele>183.0</ele><time>2026-04-18T07:53:01Z</time></trkpt><trkpt lat="43.525379782117284" lon="10.675788341023766"><ele>183.0</ele><time>2026-04-18T07:53:02Z</time></trkpt><trkpt lat="43.525330681289695" lon="10.675845177544577"><ele>183.0</ele><time>2026-04-18T07:53:03Z</time></trkpt><trkpt lat="43.52527424530699" lon="10.675907661781887"><ele>183.0</ele><time>2026-04-18T07:53:04Z</time></trkpt><trkpt lat="43.52520764688796" lon="10.675966290016914"><ele>183.0</ele><time>2026-04-18T07:53:05Z</time></trkpt><trkpt lat="43.52513766463812" lon="10.676019449162284"><ele>183.0</ele><time>2026-04-18T07:53:06Z</time></trkpt><trkpt lat="43.52507539171631" lon="10.67608151390752"><ele>183.0</ele><time>2026-04-18T07:53:07Z</time></trkpt><trkpt lat="43.525016849630184" lon="10.67614274458339"><ele>183.0</ele><time>2026-04-18T07:53:08Z</time></trkpt><trkpt lat="43.52491582601276" lon="10.67624620719748"><ele>183.0</ele><time>2026-04-18T07:53:10Z</time></trkpt><trkpt lat="43.524819042160225" lon="10.676347999257235"><ele>182.83333333333334</ele><time>2026-04-18T07:53:12Z</time></trkpt><trkpt lat="43.524763697978926" lon="10.676392909155725"><ele>182.66666666666666</ele><time>2026-04-18T07:53:14Z</time></trkpt><trkpt lat="43.52471444257289" lon="10.67645674174896"><ele>182.5</ele><time>2026-04-18T07:53:17Z</time></trkpt><trkpt lat="43.524668953052426" lon="10.676524248609153"><ele>182.33333333333331</ele><time>2026-04-18T07:53:19Z</time></trkpt><trkpt lat="43.524624278872736" lon="10.676631411126323"><ele>182.16666666666666</ele><time>2026-04-18T07:53:21Z</time></trkpt><trkpt lat="43.52457102814949" lon="10.676748341158058"><ele>182.0</ele><time>2026-04-18T07:53:23Z</time></trkpt><trkpt lat="43.524532519943214" lon="10.676883091057586"><ele>181.5</ele><time>2026-04-18T07:53:25Z</time></trkpt><trkpt lat="43.52451078620398" lon="10.676993973721073"><ele>181.0</ele><time>2026-04-18T07:53:27Z</time></trkpt><trkpt lat="43.52449728380659" lon="10.677105233822912"><ele>180.5</ele><time>2026-04-18T07:53:30Z</time></trkpt><trkpt lat="43.52454538455381" lon="10.677225294348748"><ele>180.0</ele><time>2026-04-18T07:53:32Z</time></trkpt><trkpt lat="43.52460267561914" lon="10.677289974586303"><ele>179.5</ele><time>2026-04-18T07:53:33Z</time></trkpt><trkpt lat="43.524674073016236" lon="10.677381099661678"><ele>179.0</ele><time>2026-04-18T07:53:35Z</time></trkpt><trkpt lat="43.524725101343144" lon="10.677484802081072"><ele>178.2</ele><time>2026-04-18T07:53:37Z</time></trkpt><trkpt lat="43.524745104954086" lon="10.677604699843489"><ele>177.39999999999998</ele><time>2026-04-18T07:53:39Z</time></trkpt><trkpt lat="43.52472759722356" lon="10.677732437267766"><ele>176.6</ele><time>2026-04-18T07:53:41Z</time></trkpt><trkpt lat="43.52473072734231" lon="10.677875060670242"><ele>175.8</ele><time>2026-04-18T07:53:43Z</time></trkpt><trkpt lat="43.5247299084842" lon="10.678030002706222"><ele>175.0</ele><time>2026-04-18T07:53:45Z</time></trkpt><trkpt lat="43.52472648061472" lon="10.678127414132689"><ele>174.4</ele><time>2026-04-18T07:53:46Z</time></trkpt><trkpt lat="43.52472639192691" lon="10.678299075840972"><ele>173.8</ele><time>2026-04-18T07:53:48Z</time></trkpt><trkpt lat="43.524747513446385" lon="10.67846620301679"><ele>173.2</ele><time>2026-04-18T07:53:50Z</time></trkpt><trkpt lat="43.52476767432706" lon="10.678560996555184"><ele>172.6</ele><time>2026-04-18T07:53:51Z</time></trkpt><trkpt lat="43.524791848584904" lon="10.678647004955081"><ele>172.0</ele><time>2026-04-18T07:53:52Z</time></trkpt><trkpt lat="43.52481612663101" lon="10.678805530548646"><ele>173.00000000000003</ele><time>2026-04-18T07:53:54Z</time></trkpt><trkpt lat="43.524837199388465" lon="10.678896143620195"><ele>174.0</ele><time>2026-04-18T07:53:55Z</time></trkpt><trkpt lat="43.52485028439903" lon="10.678985887256044"><ele>175.0</ele><time>2026-04-18T07:53:56Z</time></trkpt><trkpt lat="43.52485437249883" lon="10.67908001876211"><ele>176.0</ele><time>2026-04-18T07:53:57Z</time></trkpt><trkpt lat="43.524860330547696" lon="10.679189722505832"><ele>177.0</ele><time>2026-04-18T07:53:58Z</time></trkpt><trkpt lat="43.52486553506288" lon="10.679285551926357"><ele>178.00000000000003</ele><time>2026-04-18T07:53:59Z</time></trkpt><trkpt lat="43.5248652232441" lon="10.679382037999888"><ele>179.0</ele><time>2026-04-18T07:54:00Z</time></trkpt><trkpt lat="43.524848346531925" lon="10.679540967176276"><ele>179.5</ele><time>2026-04-18T07:54:02Z</time></trkpt><trkpt lat="43.52483756697381" lon="10.679637323609406"><ele>180.0</ele><time>2026-04-18T07:54:03Z</time></trkpt><trkpt lat="43.52482679108068" lon="10.679739665453324"><ele>180.5</ele><time>2026-04-18T07:54:04Z</time></trkpt><trkpt lat="43.52481853890939" lon="10.679847846059433"><ele>181.0</ele><time>2026-04-18T07:54:05Z</time></trkpt><trkpt lat="43.52482899048783" lon="10.679975062266182"><ele>181.5</ele><time>2026-04-18T07:54:06Z</time></trkpt><trkpt lat="43.524857562405685" lon="10.680115072977946"><ele>182.0</ele><time>2026-04-18T07:54:07Z</time></trkpt><trkpt lat="43.524884883829756" lon="10.680226547307539"><ele>180.6</ele><time>2026-04-18T07:54:08Z</time></trkpt><trkpt lat="43.52490493248717" lon="10.68031360852625"><ele>179.2</ele><time>2026-04-18T07:54:09Z</time></trkpt><trkpt lat="43.52493594219443" lon="10.68047317834555"><ele>177.8</ele><time>2026-04-18T07:54:11Z</time></trkpt><trkpt lat="43.52495422539984" lon="10.680648164086628"><ele>176.4</ele><time>2026-04-18T07:54:13Z</time></trkpt><trkpt lat="43.52495545341535" lon="10.680750465266868"><ele>175.0</ele><time>2026-04-18T07:54:14Z</time></trkpt><trkpt lat="43.524953706695335" lon="10.680856506797383"><ele>175.0</ele><time>2026-04-18T07:54:15Z</time></trkpt><trkpt lat="43.52495215938703" lon="10.680962815119127"><ele>175.0</ele><time>2026-04-18T07:54:16Z</time></trkpt><trkpt lat="43.524949613315925" lon="10.681077037374813"><ele>175.0</ele><time>2026-04-18T07:54:17Z</time></trkpt><trkpt lat="43.52494650976165" lon="10.681206917500843"><ele>175.0</ele><time>2026-04-18T07:54:18Z</time></trkpt><trkpt lat="43.52496956922366" lon="10.681338263354013"><ele>175.0</ele><time>2026-04-18T07:54:19Z</time></trkpt><trkpt lat="43.52496835745677" lon="10.681465723897416"><ele>175.0</ele><time>2026-04-18T07:54:20Z</time></trkpt><trkpt lat="43.52496603567732" lon="10.681586641253878"><ele>174.4</ele><time>2026-04-18T07:54:21Z</time></trkpt><trkpt lat="43.52493762952023" lon="10.681823647145844"><ele>173.8</ele><time>2026-04-18T07:54:23Z</time></trkpt><trkpt lat="43.52493563359859" lon="10.681935315129046"><ele>173.2</ele><time>2026-04-18T07:54:24Z</time></trkpt><trkpt lat="43.52493374581428" lon="10.682042918747378"><ele>172.6</ele><time>2026-04-18T07:54:25Z</time></trkpt><trkpt lat="43.52493183429963" lon="10.682151875319503"><ele>172.0</ele><time>2026-04-18T07:54:26Z</time></trkpt><trkpt lat="43.52493302864683" lon="10.6822541351516"><ele>171.66666666666669</ele><time>2026-04-18T07:54:27Z</time></trkpt><trkpt lat="43.524937864659584" lon="10.682354641403894"><ele>171.33333333333334</ele><time>2026-04-18T07:54:28Z</time></trkpt><trkpt lat="43.524956662554224" lon="10.682452042618195"><ele>171.0</ele><time>2026-04-18T07:54:29Z</time></trkpt><trkpt lat="43.52501084182593" lon="10.6825186295312"><ele>170.66666666666666</ele><time>2026-04-18T07:54:30Z</time></trkpt><trkpt lat="43.525059053811205" lon="10.68259196850818"><ele>170.33333333333331</ele><time>2026-04-18T07:54:31Z</time></trkpt><trkpt lat="43.52513519576779" lon="10.68262645478407"><ele>170.0</ele><time>2026-04-18T07:54:32Z</time></trkpt><trkpt lat="43.52521825835193" lon="10.682642980554967"><ele>170.0</ele><time>2026-04-18T07:54:33Z</time></trkpt><trkpt lat="43.52530240482356" lon="10.682673730820849"><ele>170.0</ele><time>2026-04-18T07:54:34Z</time></trkpt><trkpt lat="43.52537955148201" lon="10.682735002169519"><ele>170.0</ele><time>2026-04-18T07:54:35Z</time></trkpt><trkpt lat="43.52543783285501" lon="10.682813640910409"><ele>170.0</ele><time>2026-04-18T07:54:36Z</time></trkpt><trkpt lat="43.525502368114054" lon="10.682904313215627"><ele>170.0</ele><time>2026-04-18T07:54:37Z</time></trkpt><trkpt lat="43.5255409376048" lon="10.682982339732124"><ele>170.0</ele><time>2026-04-18T07:54:38Z</time></trkpt><trkpt lat="43.52559397265668" lon="10.683104748783636"><ele>168.8</ele><time>2026-04-18T07:54:40Z</time></trkpt><trkpt lat="43.525616868919705" lon="10.683236454136667"><ele>167.6</ele><time>2026-04-18T07:54:42Z</time></trkpt><trkpt lat="43.52560862884167" lon="10.683364190031803"><ele>166.39999999999998</ele><time>2026-04-18T07:54:44Z</time></trkpt><trkpt lat="43.52560134788092" lon="10.683453386005576"><ele>165.2</ele><time>2026-04-18T07:54:46Z</time></trkpt><trkpt lat="43.52545168967003" lon="10.683505713964994"><ele>164.0</ele><time>2026-04-18T07:54:47Z</time></trkpt><trkpt lat="43.52537191186535" lon="10.683556158515431"><ele>161.79999999999998</ele><time>2026-04-18T07:54:48Z</time></trkpt><trkpt lat="43.52528367892064" lon="10.683623559286433"><ele>159.6</ele><time>2026-04-18T07:54:49Z</time></trkpt><trkpt lat="43.5251891745981" lon="10.683692854943251"><ele>157.4</ele><time>2026-04-18T07:54:50Z</time></trkpt><trkpt lat="43.52509173652267" lon="10.68376425583763"><ele>155.2</ele><time>2026-04-18T07:54:51Z</time></trkpt><trkpt lat="43.525000241189126" lon="10.683830549324838"><ele>153.0</ele><time>2026-04-18T07:54:52Z</time></trkpt><trkpt lat="43.524913855950736" lon="10.683888696115321"><ele>153.0</ele><time>2026-04-18T07:54:53Z</time></trkpt><trkpt lat="43.52483813276145" lon="10.68392799288646"><ele>153.0</ele><time>2026-04-18T07:54:54Z</time></trkpt><trkpt lat="43.52477489346183" lon="10.683936396899378"><ele>153.0</ele><time>2026-04-18T07:54:55Z</time></trkpt><trkpt lat="43.52467421270275" lon="10.683896313158845"><ele>153.0</ele><time>2026-04-18T07:54:57Z</time></trkpt><trkpt lat="43.52462302573919" lon="10.68383362266828"><ele>153.0</ele><time>2026-04-18T07:54:59Z</time></trkpt><trkpt lat="43.52454241131207" lon="10.683941542719337"><ele>153.0</ele><time>2026-04-18T07:55:01Z</time></trkpt><trkpt lat="43.52451271317722" lon="10.684030920164632"><ele>151.66666666666666</ele><time>2026-04-18T07:55:02Z</time></trkpt><trkpt lat="43.524498564709646" lon="10.68413912447999"><ele>150.33333333333334</ele><time>2026-04-18T07:55:03Z</time></trkpt><trkpt lat="43.52449589990496" lon="10.684226607545035"><ele>149.0</ele><time>2026-04-18T07:55:04Z</time></trkpt><trkpt lat="43.52449133978104" lon="10.684382649548304"><ele>147.66666666666669</ele><time>2026-04-18T07:55:06Z</time></trkpt><trkpt lat="43.524530187008956" lon="10.684451864195742"><ele>146.33333333333334</ele><time>2026-04-18T07:55:07Z</time></trkpt><trkpt lat="43.52458669354496" lon="10.684505620300024"><ele>145.0</ele><time>2026-04-18T07:55:08Z</time></trkpt><trkpt lat="43.52465305686324" lon="10.684533514111397"><ele>145.0</ele><time>2026-04-18T07:55:09Z</time></trkpt><trkpt lat="43.52473235031547" lon="10.684548356786909"><ele>145.0</ele><time>2026-04-18T07:55:10Z</time></trkpt><trkpt lat="43.52481906956932" lon="10.68456891240815"><ele>145.0</ele><time>2026-04-18T07:55:11Z</time></trkpt><trkpt lat="43.52490504846786" lon="10.68458799086564"><ele>145.0</ele><time>2026-04-18T07:55:12Z</time></trkpt><trkpt lat="43.52498917417469" lon="10.684611993489266"><ele>145.0</ele><time>2026-04-18T07:55:13Z</time></trkpt><trkpt lat="43.52507088378277" lon="10.684665710775151"><ele>145.0</ele><time>2026-04-18T07:55:14Z</time></trkpt><trkpt lat="43.52514187573323" lon="10.684726269715098"><ele>145.0</ele><time>2026-04-18T07:55:15Z</time></trkpt><trkpt lat="43.52519495112225" lon="10.684809820111749"><ele>145.0</ele><time>2026-04-18T07:55:16Z</time></trkpt><trkpt lat="43.525237074104226" lon="10.684911825957643"><ele>145.0</ele><time>2026-04-18T07:55:17Z</time></trkpt><trkpt lat="43.52527292005321" lon="10.685021793283791"><ele>145.0</ele><time>2026-04-18T07:55:18Z</time></trkpt><trkpt lat="43.52530137520822" lon="10.685146572689103"><ele>145.0</ele><time>2026-04-18T07:55:19Z</time></trkpt><trkpt lat="43.52532058838325" lon="10.685277063299896"><ele>145.0</ele><time>2026-04-18T07:55:20Z</time></trkpt><trkpt lat="43.52534649692162" lon="10.685409634674574"><ele>146.0</ele><time>2026-04-18T07:55:21Z</time></trkpt><trkpt lat="43.52537750062242" lon="10.685551964751728"><ele>147.0</ele><time>2026-04-18T07:55:22Z</time></trkpt><trkpt lat="43.52541781085843" lon="10.685706366124382"><ele>148.0</ele><time>2026-04-18T07:55:23Z</time></trkpt><trkpt lat="43.5254617583998" lon="10.68586694154319"><ele>149.0</ele><time>2026-04-18T07:55:24Z</time></trkpt><trkpt lat="43.525490802715254" lon="10.686019130075238"><ele>146.0</ele><time>2026-04-18T07:55:25Z</time></trkpt><trkpt lat="43.525517173178955" lon="10.686180769200528"><ele>143.0</ele><time>2026-04-18T07:55:26Z</time></trkpt><trkpt lat="43.52553419303174" lon="10.686344054137736"><ele>140.0</ele><time>2026-04-18T07:55:27Z</time></trkpt><trkpt lat="43.52554568419764" lon="10.6865022410845"><ele>137.0</ele><time>2026-04-18T07:55:28Z</time></trkpt><trkpt lat="43.52555741213336" lon="10.68665920560614"><ele>137.0</ele><time>2026-04-18T07:55:29Z</time></trkpt><trkpt lat="43.5255567248818" lon="10.686818708241384"><ele>137.0</ele><time>2026-04-18T07:55:30Z</time></trkpt><trkpt lat="43.52553973495521" lon="10.686971545987234"><ele>137.0</ele><time>2026-04-18T07:55:31Z</time></trkpt><trkpt lat="43.525504435506924" lon="10.687122951195658"><ele>137.0</ele><time>2026-04-18T07:55:32Z</time></trkpt><trkpt lat="43.52546146474335" lon="10.687266118306793"><ele>135.6</ele><time>2026-04-18T07:55:33Z</time></trkpt><trkpt lat="43.52542094258246" lon="10.68740905777411"><ele>134.2</ele><time>2026-04-18T07:55:34Z</time></trkpt><trkpt lat="43.52537014487494" lon="10.687545321996565"><ele>132.8</ele><time>2026-04-18T07:55:35Z</time></trkpt><trkpt lat="43.5253264522861" lon="10.687687564177892"><ele>131.4</ele><time>2026-04-18T07:55:36Z</time></trkpt><trkpt lat="43.525286620880834" lon="10.687833880659545"><ele>130.0</ele><time>2026-04-18T07:55:37Z</time></trkpt><trkpt lat="43.5252502424049" lon="10.687980277283675"><ele>127.75</ele><time>2026-04-18T07:55:38Z</time></trkpt><trkpt lat="43.5252139575042" lon="10.688128689689883"><ele>125.5</ele><time>2026-04-18T07:55:39Z</time></trkpt><trkpt lat="43.525182994416184" lon="10.688279407591043"><ele>123.25</ele><time>2026-04-18T07:55:40Z</time></trkpt><trkpt lat="43.52515523791864" lon="10.688436144182933"><ele>121.0</ele><time>2026-04-18T07:55:41Z</time></trkpt><trkpt lat="43.52513574062123" lon="10.688596053104506"><ele>120.75</ele><time>2026-04-18T07:55:42Z</time></trkpt><trkpt lat="43.52511831046137" lon="10.688753081156294"><ele>120.5</ele><time>2026-04-18T07:55:43Z</time></trkpt><trkpt lat="43.52510476775824" lon="10.688909888665089"><ele>120.25</ele><time>2026-04-18T07:55:44Z</time></trkpt><trkpt lat="43.525081846094785" lon="10.689066927213492"><ele>120.0</ele><time>2026-04-18T07:55:45Z</time></trkpt><trkpt lat="43.5250577367103" lon="10.689226886189065"><ele>120.0</ele><time>2026-04-18T07:55:46Z</time></trkpt><trkpt lat="43.525033608270306" lon="10.689385580168326"><ele>120.0</ele><time>2026-04-18T07:55:47Z</time></trkpt><trkpt lat="43.525001473503046" lon="10.689539504297091"><ele>120.0</ele><time>2026-04-18T07:55:48Z</time></trkpt><trkpt lat="43.524976016322995" lon="10.689690203904329"><ele>120.0</ele><time>2026-04-18T07:55:49Z</time></trkpt><trkpt lat="43.52495013778017" lon="10.689839469896459"><ele>120.0</ele><time>2026-04-18T07:55:50Z</time></trkpt><trkpt lat="43.52493942514908" lon="10.69000353551391"><ele>120.0</ele><time>2026-04-18T07:55:51Z</time></trkpt><trkpt lat="43.52495366017966" lon="10.69016606900639"><ele>120.0</ele><time>2026-04-18T07:55:52Z</time></trkpt><trkpt lat="43.52497395952116" lon="10.690331168249344"><ele>120.0</ele><time>2026-04-18T07:55:53Z</time></trkpt><trkpt lat="43.52500195785592" lon="10.690500176795009"><ele>119.0</ele><time>2026-04-18T07:55:54Z</time></trkpt><trkpt lat="43.525027566107454" lon="10.690669734707912"><ele>118.0</ele><time>2026-04-18T07:55:55Z</time></trkpt><trkpt lat="43.52505707944267" lon="10.69083629984851"><ele>117.0</ele><time>2026-04-18T07:55:56Z</time></trkpt><trkpt lat="43.5250762725043" lon="10.69100358881404"><ele>116.0</ele><time>2026-04-18T07:55:57Z</time></trkpt><trkpt lat="43.52510319296097" lon="10.691165662312654"><ele>114.8</ele><time>2026-04-18T07:55:58Z</time></trkpt><trkpt lat="43.52513542626774" lon="10.691332517844124"><ele>113.6</ele><time>2026-04-18T07:55:59Z</time></trkpt><trkpt lat="43.52516793045513" lon="10.691478312488263"><ele>112.4</ele><time>2026-04-18T07:56:00Z</time></trkpt><trkpt lat="43.525205737605944" lon="10.69160525691547"><ele>111.2</ele><time>2026-04-18T07:56:01Z</time></trkpt><trkpt lat="43.52524588115345" lon="10.69173936651161"><ele>110.0</ele><time>2026-04-18T07:56:02Z</time></trkpt><trkpt lat="43.52528177590756" lon="10.691866910322819"><ele>108.2</ele><time>2026-04-18T07:56:03Z</time></trkpt><trkpt lat="43.52531018834507" lon="10.691994915093431"><ele>106.4</ele><time>2026-04-18T07:56:04Z</time></trkpt><trkpt lat="43.525341823930226" lon="10.692143137087962"><ele>104.6</ele><time>2026-04-18T07:56:05Z</time></trkpt><trkpt lat="43.525356166536014" lon="10.69228525346278"><ele>102.8</ele><time>2026-04-18T07:56:06Z</time></trkpt><trkpt lat="43.52537728860931" lon="10.69242555698678"><ele>101.0</ele><time>2026-04-18T07:56:07Z</time></trkpt><trkpt lat="43.52538648219529" lon="10.692578603593894"><ele>101.0</ele><time>2026-04-18T07:56:08Z</time></trkpt><trkpt lat="43.52539122911878" lon="10.692744800040753"><ele>101.0</ele><time>2026-04-18T07:56:09Z</time></trkpt><trkpt lat="43.525397303091374" lon="10.692906647109773"><ele>101.0</ele><time>2026-04-18T07:56:10Z</time></trkpt><trkpt lat="43.525401137490114" lon="10.693065417193507"><ele>101.0</ele><time>2026-04-18T07:56:11Z</time></trkpt><trkpt lat="43.52540432981422" lon="10.693222274705334"><ele>102.5</ele><time>2026-04-18T07:56:12Z</time></trkpt><trkpt lat="43.52543614291543" lon="10.693377167062787"><ele>104.0</ele><time>2026-04-18T07:56:13Z</time></trkpt><trkpt lat="43.525488974876005" lon="10.693525929420106"><ele>105.5</ele><time>2026-04-18T07:56:14Z</time></trkpt><trkpt lat="43.52555450276785" lon="10.693676444846494"><ele>107.0</ele><time>2026-04-18T07:56:15Z</time></trkpt><trkpt lat="43.52561965062975" lon="10.693817853242361"><ele>107.0</ele><time>2026-04-18T07:56:16Z</time></trkpt><trkpt lat="43.52568552255127" lon="10.69396327549394"><ele>107.0</ele><time>2026-04-18T07:56:17Z</time></trkpt><trkpt lat="43.52574825015823" lon="10.69410732075658"><ele>107.0</ele><time>2026-04-18T07:56:18Z</time></trkpt><trkpt lat="43.525796514297156" lon="10.694256064944527"><ele>107.0</ele><time>2026-04-18T07:56:19Z</time></trkpt><trkpt lat="43.52582720195585" lon="10.694406779971812"><ele>106.6</ele><time>2026-04-18T07:56:20Z</time></trkpt><trkpt lat="43.525848182458326" lon="10.694561430417359"><ele>106.19999999999999</ele><time>2026-04-18T07:56:21Z</time></trkpt><trkpt lat="43.52585000198055" lon="10.694716772172452"><ele>105.8</ele><time>2026-04-18T07:56:22Z</time></trkpt><trkpt lat="43.52583075708757" lon="10.694851331771792"><ele>105.4</ele><time>2026-04-18T07:56:23Z</time></trkpt><trkpt lat="43.5258052999546" lon="10.694975198747368"><ele>105.0</ele><time>2026-04-18T07:56:24Z</time></trkpt><trkpt lat="43.52576650278953" lon="10.695091562496977"><ele>105.0</ele><time>2026-04-18T07:56:25Z</time></trkpt><trkpt lat="43.5257156065492" lon="10.695174397475272"><ele>105.0</ele><time>2026-04-18T07:56:26Z</time></trkpt><trkpt lat="43.5256636847398" lon="10.695261189890953"><ele>105.0</ele><time>2026-04-18T07:56:27Z</time></trkpt><trkpt lat="43.52562182108526" lon="10.695365130581195"><ele>105.0</ele><time>2026-04-18T07:56:28Z</time></trkpt><trkpt lat="43.525611516489775" lon="10.6955047908354"><ele>105.0</ele><time>2026-04-18T07:56:29Z</time></trkpt><trkpt lat="43.52564300421646" lon="10.695648556697423"><ele>104.0</ele><time>2026-04-18T07:56:30Z</time></trkpt><trkpt lat="43.52566033423528" lon="10.695772978618885"><ele>103.0</ele><time>2026-04-18T07:56:31Z</time></trkpt><trkpt lat="43.525702454093874" lon="10.695925569152815"><ele>102.0</ele><time>2026-04-18T07:56:32Z</time></trkpt><trkpt lat="43.52573011731163" lon="10.696070045161143"><ele>101.0</ele><time>2026-04-18T07:56:33Z</time></trkpt><trkpt lat="43.525744030187354" lon="10.6962270057225"><ele>100.0</ele><time>2026-04-18T07:56:34Z</time></trkpt><trkpt lat="43.525738012081256" lon="10.696391141318829"><ele>98.75</ele><time>2026-04-18T07:56:35Z</time></trkpt><trkpt lat="43.52571610645292" lon="10.696555819056769"><ele>97.5</ele><time>2026-04-18T07:56:36Z</time></trkpt><trkpt lat="43.52568855057696" lon="10.696728941225587"><ele>96.25</ele><time>2026-04-18T07:56:37Z</time></trkpt><trkpt lat="43.52566010100353" lon="10.696906020306983"><ele>95.0</ele><time>2026-04-18T07:56:38Z</time></trkpt><trkpt lat="43.525626197407625" lon="10.69706648596639"><ele>94.6</ele><time>2026-04-18T07:56:39Z</time></trkpt><trkpt lat="43.52556988052315" lon="10.697202589372308"><ele>94.2</ele><time>2026-04-18T07:56:40Z</time></trkpt><trkpt lat="43.5255134660244" lon="10.697320506405532"><ele>93.80000000000001</ele><time>2026-04-18T07:56:41Z</time></trkpt><trkpt lat="43.52545035700188" lon="10.697455724092253"><ele>93.4</ele><time>2026-04-18T07:56:42Z</time></trkpt><trkpt lat="43.525405130538765" lon="10.697595177466486"><ele>93.0</ele><time>2026-04-18T07:56:43Z</time></trkpt><trkpt lat="43.525375923545816" lon="10.697752760308935"><ele>92.0</ele><time>2026-04-18T07:56:44Z</time></trkpt><trkpt lat="43.525380338792935" lon="10.69792362643946"><ele>91.0</ele><time>2026-04-18T07:56:45Z</time></trkpt><trkpt lat="43.52540123257364" lon="10.698089984748275"><ele>90.0</ele><time>2026-04-18T07:56:46Z</time></trkpt><trkpt lat="43.525439038746" lon="10.698256160508452"><ele>89.0</ele><time>2026-04-18T07:56:47Z</time></trkpt><trkpt lat="43.52547737939372" lon="10.698410773322438"><ele>89.0</ele><time>2026-04-18T07:56:48Z</time></trkpt><trkpt lat="43.52550162581879" lon="10.698562899934556"><ele>89.0</ele><time>2026-04-18T07:56:49Z</time></trkpt><trkpt lat="43.52550458134169" lon="10.698706566858709"><ele>89.0</ele><time>2026-04-18T07:56:50Z</time></trkpt><trkpt lat="43.525492384843716" lon="10.698856373991475"><ele>89.0</ele><time>2026-04-18T07:56:51Z</time></trkpt><trkpt lat="43.525465476842" lon="10.699001121669934"><ele>89.0</ele><time>2026-04-18T07:56:52Z</time></trkpt><trkpt lat="43.52542736325965" lon="10.69912208690443"><ele>84.2</ele><time>2026-04-18T07:56:53Z</time></trkpt><trkpt lat="43.52538545735504" lon="10.699228577946023"><ele>79.4</ele><time>2026-04-18T07:56:54Z</time></trkpt><trkpt lat="43.52533761535325" lon="10.699342342937515"><ele>74.6</ele><time>2026-04-18T07:56:55Z</time></trkpt><trkpt lat="43.525297675942596" lon="10.699450338114271"><ele>69.8</ele><time>2026-04-18T07:56:56Z</time></trkpt><trkpt lat="43.52527150021839" lon="10.699562214042741"><ele>65.0</ele><time>2026-04-18T07:56:57Z</time></trkpt><trkpt lat="43.525279229885186" lon="10.699691476466594"><ele>65.2</ele><time>2026-04-18T07:56:58Z</time></trkpt><trkpt lat="43.52534070451085" lon="10.699810019223472"><ele>65.4</ele><time>2026-04-18T07:56:59Z</time></trkpt><trkpt lat="43.525393004815285" lon="10.699929071310123"><ele>65.6</ele><time>2026-04-18T07:57:00Z</time></trkpt><trkpt lat="43.525440490720804" lon="10.700066646268548"><ele>65.8</ele><time>2026-04-18T07:57:01Z</time></trkpt><trkpt lat="43.52548367618838" lon="10.700200823529256"><ele>66.0</ele><time>2026-04-18T07:57:02Z</time></trkpt><trkpt lat="43.525497132689786" lon="10.700356742146228"><ele>66.0</ele><time>2026-04-18T07:57:03Z</time></trkpt><trkpt lat="43.52554727700022" lon="10.700497390812426"><ele>66.0</ele><time>2026-04-18T07:57:04Z</time></trkpt><trkpt lat="43.525593931419586" lon="10.700633517058066"><ele>66.0</ele><time>2026-04-18T07:57:05Z</time></trkpt><trkpt lat="43.525638405388385" lon="10.700771505528914"><ele>66.0</ele><time>2026-04-18T07:57:06Z</time></trkpt><trkpt lat="43.525681414221886" lon="10.700933897095917"><ele>64.5</ele><time>2026-04-18T07:57:07Z</time></trkpt><trkpt lat="43.52570814692425" lon="10.701092327812594"><ele>63.0</ele><time>2026-04-18T07:57:08Z</time></trkpt><trkpt lat="43.5257194890524" lon="10.701246225578501"><ele>61.5</ele><time>2026-04-18T07:57:09Z</time></trkpt><trkpt lat="43.525724248788215" lon="10.701407603252047"><ele>60.0</ele><time>2026-04-18T07:57:10Z</time></trkpt><trkpt lat="43.5257277781599" lon="10.701569626967341"><ele>60.0</ele><time>2026-04-18T07:57:11Z</time></trkpt><trkpt lat="43.525731113773844" lon="10.701722755847685"><ele>60.0</ele><time>2026-04-18T07:57:12Z</time></trkpt><trkpt lat="43.52573582449904" lon="10.70187874904416"><ele>60.0</ele><time>2026-04-18T07:57:13Z</time></trkpt><trkpt lat="43.52576038505463" lon="10.702041337670243"><ele>60.0</ele><time>2026-04-18T07:57:14Z</time></trkpt><trkpt lat="43.52581093046744" lon="10.702176828475146"><ele>59.5</ele><time>2026-04-18T07:57:15Z</time></trkpt><trkpt lat="43.5258496363525" lon="10.702287794997327"><ele>59.0</ele><time>2026-04-18T07:57:16Z</time></trkpt><trkpt lat="43.52588023144506" lon="10.702391873094903"><ele>58.5</ele><time>2026-04-18T07:57:17Z</time></trkpt><trkpt lat="43.52590264128825" lon="10.702474543058633"><ele>58.0</ele><time>2026-04-18T07:57:18Z</time></trkpt><trkpt lat="43.52591812899822" lon="10.702570960829346"><ele>57.5</ele><time>2026-04-18T07:57:21Z</time></trkpt><trkpt lat="43.52594147107033" lon="10.70265297375145"><ele>57.0</ele><time>2026-04-18T07:57:24Z</time></trkpt><trkpt lat="43.525994887523616" lon="10.702758401630001"><ele>57.0</ele><time>2026-04-18T07:57:27Z</time></trkpt><trkpt lat="43.52608573723045" lon="10.702699063665163"><ele>57.0</ele><time>2026-04-18T07:57:28Z</time></trkpt><trkpt lat="43.52614446568804" lon="10.70264399003007"><ele>57.0</ele><time>2026-04-18T07:57:29Z</time></trkpt><trkpt lat="43.52620822264604" lon="10.702592486775128"><ele>57.0</ele><time>2026-04-18T07:57:30Z</time></trkpt><trkpt lat="43.5262800597798" lon="10.702533041745864"><ele>57.0</ele><time>2026-04-18T07:57:31Z</time></trkpt><trkpt lat="43.52635695664049" lon="10.70247418632404"><ele>57.0</ele><time>2026-04-18T07:57:32Z</time></trkpt><trkpt lat="43.52644209644616" lon="10.702415102093775"><ele>56.8</ele><time>2026-04-18T07:57:33Z</time></trkpt><trkpt lat="43.52653986503027" lon="10.702365332266488"><ele>56.6</ele><time>2026-04-18T07:57:34Z</time></trkpt><trkpt lat="43.526649032110875" lon="10.702325980331434"><ele>56.39999999999999</ele><time>2026-04-18T07:57:35Z</time></trkpt><trkpt lat="43.52676103463029" lon="10.702303122517218"><ele>56.199999999999996</ele><time>2026-04-18T07:57:36Z</time></trkpt><trkpt lat="43.526878598667274" lon="10.702292115558938"><ele>56.0</ele><time>2026-04-18T07:57:37Z</time></trkpt><trkpt lat="43.52700692594241" lon="10.702283236703737"><ele>56.0</ele><time>2026-04-18T07:57:38Z</time></trkpt><trkpt lat="43.52712741775669" lon="10.702282431240356"><ele>56.0</ele><time>2026-04-18T07:57:39Z</time></trkpt><trkpt lat="43.52725132145751" lon="10.702279612996929"><ele>56.0</ele><time>2026-04-18T07:57:40Z</time></trkpt><trkpt lat="43.52737432491463" lon="10.702277381424128"><ele>56.0</ele><time>2026-04-18T07:57:41Z</time></trkpt><trkpt lat="43.527493010069826" lon="10.702271406426545"><ele>56.0</ele><time>2026-04-18T07:57:42Z</time></trkpt><trkpt lat="43.527614778036046" lon="10.702268785720275"><ele>56.0</ele><time>2026-04-18T07:57:43Z</time></trkpt><trkpt lat="43.52773845315199" lon="10.702265532115002"><ele>56.0</ele><time>2026-04-18T07:57:44Z</time></trkpt><trkpt lat="43.527863188309304" lon="10.702264751561938"><ele>56.0</ele><time>2026-04-18T07:57:45Z</time></trkpt><trkpt lat="43.527992905628054" lon="10.702262108791203"><ele>56.5</ele><time>2026-04-18T07:57:46Z</time></trkpt><trkpt lat="43.52812203073551" lon="10.702256739602701"><ele>57.0</ele><time>2026-04-18T07:57:47Z</time></trkpt><trkpt lat="43.5282515171706" lon="10.702246287197678"><ele>57.5</ele><time>2026-04-18T07:57:48Z</time></trkpt><trkpt lat="43.52838585104866" lon="10.702239723488479"><ele>58.0</ele><time>2026-04-18T07:57:49Z</time></trkpt><trkpt lat="43.528527297075115" lon="10.702238481475153"><ele>58.0</ele><time>2026-04-18T07:57:50Z</time></trkpt><trkpt lat="43.52866183389431" lon="10.702229692082348"><ele>58.0</ele><time>2026-04-18T07:57:51Z</time></trkpt><trkpt lat="43.528803424526686" lon="10.702238082256324"><ele>58.0</ele><time>2026-04-18T07:57:52Z</time></trkpt><trkpt lat="43.52894635266545" lon="10.702231679438006"><ele>58.0</ele><time>2026-04-18T07:57:53Z</time></trkpt><trkpt lat="43.52909180273358" lon="10.702222818530911"><ele>57.0</ele><time>2026-04-18T07:57:54Z</time></trkpt><trkpt lat="43.529239314775644" lon="10.702211144566558"><ele>56.0</ele><time>2026-04-18T07:57:55Z</time></trkpt><trkpt lat="43.52938960844383" lon="10.702196263006986"><ele>55.0</ele><time>2026-04-18T07:57:56Z</time></trkpt><trkpt lat="43.529541852042705" lon="10.702180351285332"><ele>54.666666666666664</ele><time>2026-04-18T07:57:57Z</time></trkpt><trkpt lat="43.52969601032698" lon="10.7021620273191"><ele>54.33333333333333</ele><time>2026-04-18T07:57:58Z</time></trkpt><trkpt lat="43.52985360659846" lon="10.702140943389113"><ele>54.0</ele><time>2026-04-18T07:57:59Z</time></trkpt><trkpt lat="43.530013576434484" lon="10.702125537250629"><ele>54.0</ele><time>2026-04-18T07:58:00Z</time></trkpt><trkpt lat="43.530177962719875" lon="10.702105183365033"><ele>54.0</ele><time>2026-04-18T07:58:01Z</time></trkpt><trkpt lat="43.53034858858353" lon="10.702083747072772"><ele>54.0</ele><time>2026-04-18T07:58:02Z</time></trkpt><trkpt lat="43.530518537097045" lon="10.702059439612668"><ele>54.33333333333333</ele><time>2026-04-18T07:58:03Z</time></trkpt><trkpt lat="43.53069018553603" lon="10.702038546161022"><ele>54.666666666666664</ele><time>2026-04-18T07:58:04Z</time></trkpt><trkpt lat="43.530863983679225" lon="10.702009571030077"><ele>55.0</ele><time>2026-04-18T07:58:05Z</time></trkpt><trkpt lat="43.531038914575035" lon="10.701980346465676"><ele>55.0</ele><time>2026-04-18T07:58:06Z</time></trkpt><trkpt lat="43.53121181062421" lon="10.701958950117158"><ele>55.0</ele><time>2026-04-18T07:58:07Z</time></trkpt><trkpt lat="43.53138449475546" lon="10.701922365442721"><ele>55.0</ele><time>2026-04-18T07:58:08Z</time></trkpt><trkpt lat="43.531552569403644" lon="10.701883691688602"><ele>55.0</ele><time>2026-04-18T07:58:09Z</time></trkpt><trkpt lat="43.53172297262393" lon="10.701848666091104"><ele>55.0</ele><time>2026-04-18T07:58:10Z</time></trkpt><trkpt lat="43.531894815237756" lon="10.701818201557595"><ele>55.0</ele><time>2026-04-18T07:58:11Z</time></trkpt><trkpt lat="43.532067638388206" lon="10.701781974307716"><ele>55.0</ele><time>2026-04-18T07:58:12Z</time></trkpt><trkpt lat="43.53224094678544" lon="10.701745929675155"><ele>55.0</ele><time>2026-04-18T07:58:13Z</time></trkpt><trkpt lat="43.53241246593717" lon="10.701706067019966"><ele>55.0</ele><time>2026-04-18T07:58:14Z</time></trkpt><trkpt lat="43.53258322148436" lon="10.701669365674164"><ele>55.0</ele><time>2026-04-18T07:58:15Z</time></trkpt><trkpt lat="43.53275328113276" lon="10.701632952345141"><ele>55.0</ele><time>2026-04-18T07:58:16Z</time></trkpt><trkpt lat="43.53292090535974" lon="10.701597629715852"><ele>55.0</ele><time>2026-04-18T07:58:17Z</time></trkpt><trkpt lat="43.53309074070786" lon="10.701555842557172"><ele>55.33333333333333</ele><time>2026-04-18T07:58:18Z</time></trkpt><trkpt lat="43.53325981280401" lon="10.701520538762143"><ele>55.66666666666667</ele><time>2026-04-18T07:58:19Z</time></trkpt><trkpt lat="43.53342023143413" lon="10.701476657652695"><ele>56.0</ele><time>2026-04-18T07:58:20Z</time></trkpt><trkpt lat="43.53357989304285" lon="10.701451867659648"><ele>56.66666666666667</ele><time>2026-04-18T07:58:21Z</time></trkpt><trkpt lat="43.53373955589478" lon="10.701414093328017"><ele>57.33333333333333</ele><time>2026-04-18T07:58:22Z</time></trkpt><trkpt lat="43.533896368029055" lon="10.701381406833724"><ele>58.0</ele><time>2026-04-18T07:58:23Z</time></trkpt><trkpt lat="43.53404909702284" lon="10.701356109760164"><ele>58.0</ele><time>2026-04-18T07:58:24Z</time></trkpt><trkpt lat="43.534202383027505" lon="10.70133278549237"><ele>58.0</ele><time>2026-04-18T07:58:25Z</time></trkpt><trkpt lat="43.53435013966782" lon="10.701297789534047"><ele>58.0</ele><time>2026-04-18T07:58:26Z</time></trkpt><trkpt lat="43.53449403547415" lon="10.701265188381182"><ele>57.5</ele><time>2026-04-18T07:58:27Z</time></trkpt><trkpt lat="43.534635921270734" lon="10.701236860967871"><ele>57.0</ele><time>2026-04-18T07:58:28Z</time></trkpt><trkpt lat="43.53476323515193" lon="10.701212640904297"><ele>56.5</ele><time>2026-04-18T07:58:29Z</time></trkpt><trkpt lat="43.534868829293806" lon="10.701192716037951"><ele>56.0</ele><time>2026-04-18T07:58:30Z</time></trkpt><trkpt lat="43.534941885875384" lon="10.701171831512454"><ele>56.00000000000001</ele><time>2026-04-18T07:58:31Z</time></trkpt><trkpt lat="43.535011412485936" lon="10.701178102863603"><ele>56.0</ele><time>2026-04-18T07:58:32Z</time></trkpt><trkpt lat="43.535104193081644" lon="10.701223014785397"><ele>56.0</ele><time>2026-04-18T07:58:34Z</time></trkpt><trkpt lat="43.535139615408006" lon="10.701299315936486"><ele>56.0</ele><time>2026-04-18T07:58:36Z</time></trkpt><trkpt lat="43.535159560400196" lon="10.701397678586533"><ele>56.00000000000001</ele><time>2026-04-18T07:58:38Z</time></trkpt><trkpt lat="43.535168278919" lon="10.701512283826155"><ele>56.0</ele><time>2026-04-18T07:58:40Z</time></trkpt><trkpt lat="43.535188999555615" lon="10.70168151851182"><ele>56.0</ele><time>2026-04-18T07:58:42Z</time></trkpt><trkpt lat="43.53520903690479" lon="10.701796474610566"><ele>55.99999999999999</ele><time>2026-04-18T07:58:43Z</time></trkpt><trkpt lat="43.535225166185405" lon="10.701918971385622"><ele>55.99999999999999</ele><time>2026-04-18T07:58:44Z</time></trkpt><trkpt lat="43.535241621917024" lon="10.70206713332598"><ele>56.0</ele><time>2026-04-18T07:58:45Z</time></trkpt><trkpt lat="43.53525360357919" lon="10.702202502589236"><ele>56.0</ele><time>2026-04-18T07:58:46Z</time></trkpt><trkpt lat="43.53526035026133" lon="10.702306855281725"><ele>56.00000000000001</ele><time>2026-04-18T07:58:47Z</time></trkpt><trkpt lat="43.53527021227414" lon="10.702401465326409"><ele>56.0</ele><time>2026-04-18T07:58:48Z</time></trkpt><trkpt lat="43.535291299438754" lon="10.702536080675772"><ele>56.0</ele><time>2026-04-18T07:58:50Z</time></trkpt><trkpt lat="43.53533716900574" lon="10.702636789460929"><ele>56.0</ele><time>2026-04-18T07:58:52Z</time></trkpt><trkpt lat="43.53545180135482" lon="10.702668943130359"><ele>56.00000000000001</ele><time>2026-04-18T07:58:54Z</time></trkpt><trkpt lat="43.53552295859274" lon="10.702657308712041"><ele>56.0</ele><time>2026-04-18T07:58:55Z</time></trkpt><trkpt lat="43.535603451620254" lon="10.702642625918012"><ele>55.599999999999994</ele><time>2026-04-18T07:58:56Z</time></trkpt><trkpt lat="43.53568541511401" lon="10.702625972196898"><ele>55.199999999999996</ele><time>2026-04-18T07:58:57Z</time></trkpt><trkpt lat="43.53577532318533" lon="10.702613254007295"><ele>54.800000000000004</ele><time>2026-04-18T07:58:58Z</time></trkpt><trkpt lat="43.535874367966684" lon="10.702588510282915"><ele>54.400000000000006</ele><time>2026-04-18T07:58:59Z</time></trkpt><trkpt lat="43.53598409053968" lon="10.702559870085674"><ele>54.0</ele><time>2026-04-18T07:59:00Z</time></trkpt><trkpt lat="43.53610835343663" lon="10.702537897220154"><ele>53.833333333333336</ele><time>2026-04-18T07:59:01Z</time></trkpt><trkpt lat="43.536230255113324" lon="10.702518917558715"><ele>53.66666666666667</ele><time>2026-04-18T07:59:02Z</time></trkpt><trkpt lat="43.53630152673534" lon="10.70250685459587"><ele>53.5</ele><time>2026-04-18T07:59:03Z</time></trkpt><trkpt lat="43.5363870744491" lon="10.70250656981662"><ele>53.333333333333336</ele><time>2026-04-18T07:59:05Z</time></trkpt><trkpt lat="43.53647240030224" lon="10.702501811297163"><ele>53.16666666666667</ele><time>2026-04-18T07:59:09Z</time></trkpt><trkpt lat="43.536539134217" lon="10.702502081599691"><ele>53.0</ele><time>2026-04-18T07:59:11Z</time></trkpt><trkpt lat="43.53662489331365" lon="10.70250313436224"><ele>53.0</ele><time>2026-04-18T07:59:13Z</time></trkpt><trkpt lat="43.53673616847477" lon="10.702484910040495"><ele>53.0</ele><time>2026-04-18T07:59:15Z</time></trkpt><trkpt lat="43.53685079231571" lon="10.702467029107959"><ele>53.0</ele><time>2026-04-18T07:59:17Z</time></trkpt><trkpt lat="43.5369632992754" lon="10.702449163622383"><ele>53.0</ele><time>2026-04-18T07:59:19Z</time></trkpt><trkpt lat="43.53707143633338" lon="10.702437122492487"><ele>53.0</ele><time>2026-04-18T07:59:21Z</time></trkpt><trkpt lat="43.53718735592053" lon="10.7024245029652"><ele>53.0</ele><time>2026-04-18T07:59:23Z</time></trkpt><trkpt lat="43.537290362036806" lon="10.702409677720844"><ele>53.0</ele><time>2026-04-18T07:59:25Z</time></trkpt><trkpt lat="43.537403599508075" lon="10.702395748955434"><ele>53.0</ele><time>2026-04-18T07:59:27Z</time></trkpt><trkpt lat="43.537498633467216" lon="10.702374305103817"><ele>53.0</ele><time>2026-04-18T07:59:29Z</time></trkpt><trkpt lat="43.537576490464474" lon="10.702362342962145"><ele>53.0</ele><time>2026-04-18T07:59:32Z</time></trkpt><trkpt lat="43.53763238624561" lon="10.702460569784366"><ele>53.00000000000001</ele><time>2026-04-18T07:59:35Z</time></trkpt><trkpt lat="43.53766868475128" lon="10.702583963933824"><ele>53.0</ele><time>2026-04-18T07:59:37Z</time></trkpt><trkpt lat="43.5377643027277" lon="10.702701391171638"><ele>53.0</ele><time>2026-04-18T07:59:39Z</time></trkpt><trkpt lat="43.53782052169998" lon="10.702747148237533"><ele>53.0</ele><time>2026-04-18T07:59:40Z</time></trkpt><trkpt lat="43.53788184543039" lon="10.702799726397487"><ele>53.00000000000001</ele><time>2026-04-18T07:59:41Z</time></trkpt><trkpt lat="43.53794860332894" lon="10.702850052889689"><ele>53.0</ele><time>2026-04-18T07:59:42Z</time></trkpt><trkpt lat="43.53801841193696" lon="10.702904378551032"><ele>52.833333333333336</ele><time>2026-04-18T07:59:43Z</time></trkpt><trkpt lat="43.53808702918112" lon="10.702966953888643"><ele>52.66666666666667</ele><time>2026-04-18T07:59:44Z</time></trkpt><trkpt lat="43.53815532122769" lon="10.703035899363405"><ele>52.5</ele><time>2026-04-18T07:59:45Z</time></trkpt><trkpt lat="43.53822824944988" lon="10.703098256783695"><ele>52.33333333333333</ele><time>2026-04-18T07:59:46Z</time></trkpt><trkpt lat="43.538292509165984" lon="10.703160616881188"><ele>52.166666666666664</ele><time>2026-04-18T07:59:47Z</time></trkpt><trkpt lat="43.538357222773975" lon="10.703218063963824"><ele>52.0</ele><time>2026-04-18T07:59:48Z</time></trkpt><trkpt lat="43.53841929775894" lon="10.703277308689444"><ele>52.0</ele><time>2026-04-18T07:59:49Z</time></trkpt><trkpt lat="43.5384768361926" lon="10.70333511731581"><ele>52.0</ele><time>2026-04-18T07:59:50Z</time></trkpt><trkpt lat="43.53853288945415" lon="10.703396727338344"><ele>52.0</ele><time>2026-04-18T07:59:51Z</time></trkpt><trkpt lat="43.53858024672236" lon="10.703469317697786"><ele>52.0</ele><time>2026-04-18T07:59:52Z</time></trkpt><trkpt lat="43.53860934634498" lon="10.703555705862339"><ele>52.0</ele><time>2026-04-18T07:59:53Z</time></trkpt><trkpt lat="43.538620385379865" lon="10.703654542332231"><ele>52.0</ele><time>2026-04-18T07:59:54Z</time></trkpt><trkpt lat="43.53862445189019" lon="10.703761206485614"><ele>52.0</ele><time>2026-04-18T07:59:55Z</time></trkpt><trkpt lat="43.53862123667118" lon="10.703867896745521"><ele>51.666666666666664</ele><time>2026-04-18T07:59:56Z</time></trkpt><trkpt lat="43.538625793095356" lon="10.70397004316943"><ele>51.33333333333333</ele><time>2026-04-18T07:59:57Z</time></trkpt><trkpt lat="43.53864947354754" lon="10.704065354038818"><ele>51.0</ele><time>2026-04-18T07:59:58Z</time></trkpt><trkpt lat="43.53869063242978" lon="10.704155976372947"><ele>50.66666666666667</ele><time>2026-04-18T07:59:59Z</time></trkpt><trkpt lat="43.53873968737873" lon="10.70425201617827"><ele>50.333333333333336</ele><time>2026-04-18T08:00:00Z</time></trkpt><trkpt lat="43.538790923160555" lon="10.704327724522894"><ele>50.0</ele><time>2026-04-18T08:00:01Z</time></trkpt><trkpt lat="43.53885677886333" lon="10.704386437660618"><ele>50.00000000000001</ele><time>2026-04-18T08:00:02Z</time></trkpt><trkpt lat="43.53891791599441" lon="10.704455529121077"><ele>50.0</ele><time>2026-04-18T08:00:03Z</time></trkpt><trkpt lat="43.538975542449265" lon="10.704524387956821"><ele>50.0</ele><time>2026-04-18T08:00:04Z</time></trkpt><trkpt lat="43.53902615451159" lon="10.704607987611025"><ele>50.0</ele><time>2026-04-18T08:00:05Z</time></trkpt><trkpt lat="43.53905860322103" lon="10.70470185047885"><ele>50.00000000000001</ele><time>2026-04-18T08:00:06Z</time></trkpt><trkpt lat="43.53906935070473" lon="10.704808386727844"><ele>50.0</ele><time>2026-04-18T08:00:07Z</time></trkpt><trkpt lat="43.53906462058126" lon="10.704911875131721"><ele>50.00000000000001</ele><time>2026-04-18T08:00:08Z</time></trkpt><trkpt lat="43.53905195188849" lon="10.705009319326297"><ele>50.0</ele><time>2026-04-18T08:00:09Z</time></trkpt><trkpt lat="43.539037717624566" lon="10.705108386268375"><ele>50.0</ele><time>2026-04-18T08:00:10Z</time></trkpt><trkpt lat="43.53903077828649" lon="10.705212736588043"><ele>50.0</ele><time>2026-04-18T08:00:11Z</time></trkpt><trkpt lat="43.539025225381856" lon="10.70531860372956"><ele>50.00000000000001</ele><time>2026-04-18T08:00:12Z</time></trkpt><trkpt lat="43.53901940358329" lon="10.705426916476892"><ele>50.0</ele><time>2026-04-18T08:00:13Z</time></trkpt><trkpt lat="43.539012730524156" lon="10.705534996113682"><ele>50.00000000000001</ele><time>2026-04-18T08:00:14Z</time></trkpt><trkpt lat="43.53900804451893" lon="10.705648996049172"><ele>50.0</ele><time>2026-04-18T08:00:15Z</time></trkpt><trkpt lat="43.53900173913172" lon="10.705758667836834"><ele>50.0</ele><time>2026-04-18T08:00:16Z</time></trkpt><trkpt lat="43.53900935276882" lon="10.7058652565514"><ele>50.0</ele><time>2026-04-18T08:00:17Z</time></trkpt><trkpt lat="43.539013584213365" lon="10.705969323278797"><ele>50.00000000000001</ele><time>2026-04-18T08:00:18Z</time></trkpt><trkpt lat="43.53901954782862" lon="10.706079979649227"><ele>50.0</ele><time>2026-04-18T08:00:19Z</time></trkpt><trkpt lat="43.53902438876423" lon="10.706192645385517"><ele>49.833333333333336</ele><time>2026-04-18T08:00:20Z</time></trkpt><trkpt lat="43.5390319945329" lon="10.706305449273753"><ele>49.66666666666667</ele><time>2026-04-18T08:00:21Z</time></trkpt><trkpt lat="43.5390401947288" lon="10.706428506083737"><ele>49.5</ele><time>2026-04-18T08:00:22Z</time></trkpt><trkpt lat="43.53904340001518" lon="10.706550516663247"><ele>49.33333333333333</ele><time>2026-04-18T08:00:23Z</time></trkpt><trkpt lat="43.53904529880613" lon="10.706664689698265"><ele>49.166666666666664</ele><time>2026-04-18T08:00:24Z</time></trkpt><trkpt lat="43.539049953269874" lon="10.706777898927522"><ele>49.0</ele><time>2026-04-18T08:00:25Z</time></trkpt><trkpt lat="43.53906458354986" lon="10.706897857183085"><ele>49.0</ele><time>2026-04-18T08:00:26Z</time></trkpt><trkpt lat="43.53907039387953" lon="10.70700486288488"><ele>49.0</ele><time>2026-04-18T08:00:27Z</time></trkpt><trkpt lat="43.53907130238066" lon="10.707110646715465"><ele>49.0</ele><time>2026-04-18T08:00:28Z</time></trkpt><trkpt lat="43.53906985011851" lon="10.707211936783127"><ele>49.0</ele><time>2026-04-18T08:00:29Z</time></trkpt><trkpt lat="43.53907094945059" lon="10.707309672571768"><ele>49.0</ele><time>2026-04-18T08:00:30Z</time></trkpt><trkpt lat="43.53906226663905" lon="10.707403151457523"><ele>49.0</ele><time>2026-04-18T08:00:31Z</time></trkpt><trkpt lat="43.539044395109194" lon="10.707489416192685"><ele>49.0</ele><time>2026-04-18T08:00:32Z</time></trkpt><trkpt lat="43.53896480692249" lon="10.707598127594434"><ele>49.0</ele><time>2026-04-18T08:00:34Z</time></trkpt><trkpt lat="43.538879651292284" lon="10.707671747535132"><ele>49.0</ele><time>2026-04-18T08:00:36Z</time></trkpt><trkpt lat="43.538846682265195" lon="10.707788299771865"><ele>49.0</ele><time>2026-04-18T08:00:38Z</time></trkpt><trkpt lat="43.53887441900936" lon="10.707930556037493"><ele>49.0</ele><time>2026-04-18T08:00:40Z</time></trkpt><trkpt lat="43.53894453684233" lon="10.708083249812752"><ele>49.0</ele><time>2026-04-18T08:00:42.001Z</time></trkpt><trkpt lat="43.53898400798657" lon="10.708163733310025"><ele>48.99999999999999</ele><time>2026-04-18T08:00:43.001Z</time></trkpt><trkpt lat="43.53902309504936" lon="10.708255143308287"><ele>49.0</ele><time>2026-04-18T08:00:44.001Z</time></trkpt><trkpt lat="43.53906287027185" lon="10.708338697719256"><ele>49.0</ele><time>2026-04-18T08:00:45.001Z</time></trkpt><trkpt lat="43.53909212092868" lon="10.708420312063865"><ele>49.0</ele><time>2026-04-18T08:00:46.001Z</time></trkpt><trkpt lat="43.53913513075004" lon="10.70850754683167"><ele>48.99999999999999</ele><time>2026-04-18T08:00:47.001Z</time></trkpt><trkpt lat="43.53918083086951" lon="10.708598276550415"><ele>49.0</ele><time>2026-04-18T08:00:48.001Z</time></trkpt><trkpt lat="43.53922099444302" lon="10.708694811412112"><ele>48.99999999999999</ele><time>2026-04-18T08:00:49.001Z</time></trkpt><trkpt lat="43.53926117898197" lon="10.708790984780215"><ele>49.0</ele><time>2026-04-18T08:00:50.001Z</time></trkpt><trkpt lat="43.539306765281104" lon="10.708889846915811"><ele>49.0</ele><time>2026-04-18T08:00:51.001Z</time></trkpt><trkpt lat="43.539364230082114" lon="10.708978226062221"><ele>49.0</ele><time>2026-04-18T08:00:52.001Z</time></trkpt><trkpt lat="43.53943138636218" lon="10.709058020847568"><ele>48.99999999999999</ele><time>2026-04-18T08:00:53.001Z</time></trkpt><trkpt lat="43.5395016770856" lon="10.709130297819932"><ele>49.0</ele><time>2026-04-18T08:00:54.001Z</time></trkpt><trkpt lat="43.53956766042297" lon="10.7092047665148"><ele>49.0</ele><time>2026-04-18T08:00:55.001Z</time></trkpt><trkpt lat="43.53962941685926" lon="10.709272280758007"><ele>49.0</ele><time>2026-04-18T08:00:56.001Z</time></trkpt><trkpt lat="43.53967801082752" lon="10.709362936021718"><ele>49.0</ele><time>2026-04-18T08:00:57.001Z</time></trkpt><trkpt lat="43.539732303348615" lon="10.709438682955076"><ele>49.0</ele><time>2026-04-18T08:00:58.001Z</time></trkpt><trkpt lat="43.53977684254337" lon="10.709505340101428"><ele>49.0</ele><time>2026-04-18T08:00:59.001Z</time></trkpt><trkpt lat="43.53979291229016" lon="10.709600573218347"><ele>49.0</ele><time>2026-04-18T08:01:00.001Z</time></trkpt><trkpt lat="43.53978712948574" lon="10.70969280961227"><ele>49.0</ele><time>2026-04-18T08:01:01.001Z</time></trkpt><trkpt lat="43.53978430876528" lon="10.709861663712127"><ele>48.99999999999999</ele><time>2026-04-18T08:01:03.001Z</time></trkpt><trkpt lat="43.53980729920213" lon="10.709957612991037"><ele>49.0</ele><time>2026-04-18T08:01:04.001Z</time></trkpt><trkpt lat="43.53982600065902" lon="10.71004683577332"><ele>49.0</ele><time>2026-04-18T08:01:05.001Z</time></trkpt><trkpt lat="43.539850092607296" lon="10.710135550243908"><ele>49.0</ele><time>2026-04-18T08:01:06.001Z</time></trkpt><trkpt lat="43.539872505656916" lon="10.710226001276315"><ele>48.99999999999999</ele><time>2026-04-18T08:01:07Z</time></trkpt><trkpt lat="43.53989612124096" lon="10.710320944683424"><ele>49.0</ele><time>2026-04-18T08:01:08Z</time></trkpt><trkpt lat="43.53993415602832" lon="10.710459839747047"><ele>48.2</ele><time>2026-04-18T08:01:10Z</time></trkpt><trkpt lat="43.539972738639264" lon="10.710607136256293"><ele>47.400000000000006</ele><time>2026-04-18T08:01:12Z</time></trkpt><trkpt lat="43.53999263655683" lon="10.71072160913612"><ele>46.6</ele><time>2026-04-18T08:01:13Z</time></trkpt><trkpt lat="43.54001900039755" lon="10.710843816095126"><ele>45.8</ele><time>2026-04-18T08:01:14Z</time></trkpt><trkpt lat="43.54004683816859" lon="10.710981049814977"><ele>45.0</ele><time>2026-04-18T08:01:15Z</time></trkpt><trkpt lat="43.54008145198611" lon="10.711106990287073"><ele>44.8</ele><time>2026-04-18T08:01:16Z</time></trkpt><trkpt lat="43.54013743881896" lon="10.711236201988786"><ele>44.6</ele><time>2026-04-18T08:01:17Z</time></trkpt><trkpt lat="43.54018836994408" lon="10.711349027920555"><ele>44.400000000000006</ele><time>2026-04-18T08:01:18Z</time></trkpt><trkpt lat="43.54027083842611" lon="10.71144919051323"><ele>44.2</ele><time>2026-04-18T08:01:19Z</time></trkpt><trkpt lat="43.540344685126996" lon="10.711554310930929"><ele>44.0</ele><time>2026-04-18T08:01:20Z</time></trkpt><trkpt lat="43.540423305812446" lon="10.711642724365216"><ele>43.800000000000004</ele><time>2026-04-18T08:01:21Z</time></trkpt><trkpt lat="43.5404969973395" lon="10.711723707374693"><ele>43.6</ele><time>2026-04-18T08:01:22Z</time></trkpt><trkpt lat="43.54057214119994" lon="10.711806819118301"><ele>43.4</ele><time>2026-04-18T08:01:23Z</time></trkpt><trkpt lat="43.54064647342692" lon="10.711875722665168"><ele>43.2</ele><time>2026-04-18T08:01:24Z</time></trkpt><trkpt lat="43.5407395419636" lon="10.711924834651821"><ele>43.0</ele><time>2026-04-18T08:01:25Z</time></trkpt><trkpt lat="43.540849687754466" lon="10.711941599975118"><ele>43.0</ele><time>2026-04-18T08:01:26Z</time></trkpt><trkpt lat="43.54098114950644" lon="10.711943150854179"><ele>43.0</ele><time>2026-04-18T08:01:27Z</time></trkpt><trkpt lat="43.54109335467819" lon="10.711954364375382"><ele>43.0</ele><time>2026-04-18T08:01:28Z</time></trkpt><trkpt lat="43.54118439226884" lon="10.711934680162187"><ele>43.0</ele><time>2026-04-18T08:01:29Z</time></trkpt><trkpt lat="43.54128404376911" lon="10.711957581372603"><ele>43.0</ele><time>2026-04-18T08:01:30Z</time></trkpt><trkpt lat="43.5413946706334" lon="10.711961161930155"><ele>43.0</ele><time>2026-04-18T08:01:31Z</time></trkpt><trkpt lat="43.54149211455676" lon="10.711964315807212"><ele>43.0</ele><time>2026-04-18T08:01:32Z</time></trkpt><trkpt lat="43.54158368578738" lon="10.711967230705525"><ele>43.0</ele><time>2026-04-18T08:01:33Z</time></trkpt><trkpt lat="43.541673495449466" lon="10.711944928468867"><ele>43.0</ele><time>2026-04-18T08:01:34Z</time></trkpt><trkpt lat="43.54180153266841" lon="10.711944159323991"><ele>43.0</ele><time>2026-04-18T08:01:36Z</time></trkpt><trkpt lat="43.54186134985513" lon="10.711829006950493"><ele>42.599999999999994</ele><time>2026-04-18T08:01:37Z</time></trkpt><trkpt lat="43.541836674408565" lon="10.711623804351062"><ele>42.199999999999996</ele><time>2026-04-18T08:01:39Z</time></trkpt><trkpt lat="43.54181787028163" lon="10.711511398644417"><ele>41.8</ele><time>2026-04-18T08:01:40Z</time></trkpt><trkpt lat="43.54180095755127" lon="10.711397635244095"><ele>41.4</ele><time>2026-04-18T08:01:41Z</time></trkpt><trkpt lat="43.54178742135508" lon="10.711291509144734"><ele>41.0</ele><time>2026-04-18T08:01:42Z</time></trkpt><trkpt lat="43.54177714992255" lon="10.711158804221451"><ele>41.599999999999994</ele><time>2026-04-18T08:01:43Z</time></trkpt><trkpt lat="43.54177438622643" lon="10.711048828557441"><ele>42.2</ele><time>2026-04-18T08:01:44Z</time></trkpt><trkpt lat="43.541794275778045" lon="10.710896332469021"><ele>42.8</ele><time>2026-04-18T08:01:46Z</time></trkpt><trkpt lat="43.54185249123583" lon="10.710808483276866"><ele>43.400000000000006</ele><time>2026-04-18T08:01:48Z</time></trkpt><trkpt lat="43.54194311563656" lon="10.7107803119466"><ele>44.0</ele><time>2026-04-18T08:01:50Z</time></trkpt><trkpt lat="43.542060905213745" lon="10.710786129094624"><ele>44.2</ele><time>2026-04-18T08:01:52Z</time></trkpt><trkpt lat="43.54215463241143" lon="10.710798908005705"><ele>44.400000000000006</ele><time>2026-04-18T08:01:53Z</time></trkpt><trkpt lat="43.542236132765545" lon="10.710810019895256"><ele>44.6</ele><time>2026-04-18T08:01:54Z</time></trkpt><trkpt lat="43.5423198575609" lon="10.71081724922324"><ele>44.8</ele><time>2026-04-18T08:01:55Z</time></trkpt><trkpt lat="43.54240668742083" lon="10.71082145430158"><ele>45.0</ele><time>2026-04-18T08:01:56Z</time></trkpt><trkpt lat="43.542512800834466" lon="10.710808451232257"><ele>45.0</ele><time>2026-04-18T08:01:57Z</time></trkpt><trkpt lat="43.5426238023979" lon="10.710823259756637"><ele>45.0</ele><time>2026-04-18T08:01:58Z</time></trkpt><trkpt lat="43.542736767088236" lon="10.710789763489663"><ele>45.0</ele><time>2026-04-18T08:01:59Z</time></trkpt><trkpt lat="43.54284996292986" lon="10.7107543325005"><ele>45.0</ele><time>2026-04-18T08:02:00Z</time></trkpt><trkpt lat="43.542925114132714" lon="10.710709533677502"><ele>45.0</ele><time>2026-04-18T08:02:01Z</time></trkpt><trkpt lat="43.54298157763203" lon="10.710657627006801"><ele>45.0</ele><time>2026-04-18T08:02:02Z</time></trkpt><trkpt lat="43.54304268722416" lon="10.710617040884308"><ele>45.0</ele><time>2026-04-18T08:02:04Z</time></trkpt><trkpt lat="43.5431048468705" lon="10.710581820590916"><ele>45.0</ele><time>2026-04-18T08:02:09Z</time></trkpt><trkpt lat="43.54315387531718" lon="10.710707981754467"><ele>45.0</ele><time>2026-04-18T08:02:12Z</time></trkpt><trkpt lat="43.54316474657063" lon="10.710891138922108"><ele>45.0</ele><time>2026-04-18T08:02:14Z</time></trkpt><trkpt lat="43.54317574585983" lon="10.710996142396661"><ele>45.0</ele><time>2026-04-18T08:02:15Z</time></trkpt><trkpt lat="43.54319000298506" lon="10.711107213709923"><ele>44.6</ele><time>2026-04-18T08:02:16Z</time></trkpt><trkpt lat="43.54320524775973" lon="10.71122782282856"><ele>44.2</ele><time>2026-04-18T08:02:17Z</time></trkpt><trkpt lat="43.543222088461846" lon="10.711354828785701"><ele>43.8</ele><time>2026-04-18T08:02:18Z</time></trkpt><trkpt lat="43.54323882179144" lon="10.711489273623238"><ele>43.4</ele><time>2026-04-18T08:02:19Z</time></trkpt><trkpt lat="43.543257077767606" lon="10.711625353783285"><ele>43.0</ele><time>2026-04-18T08:02:20Z</time></trkpt><trkpt lat="43.54327499276008" lon="10.711773322845517"><ele>43.0</ele><time>2026-04-18T08:02:21Z</time></trkpt><trkpt lat="43.54329707141243" lon="10.711918655806961"><ele>43.0</ele><time>2026-04-18T08:02:22Z</time></trkpt><trkpt lat="43.54331530206131" lon="10.712062995476384"><ele>43.0</ele><time>2026-04-18T08:02:23Z</time></trkpt><trkpt lat="43.54333290481171" lon="10.712207085139234"><ele>43.0</ele><time>2026-04-18T08:02:24Z</time></trkpt><trkpt lat="43.54335480564403" lon="10.712349653803077"><ele>43.0</ele><time>2026-04-18T08:02:25Z</time></trkpt><trkpt lat="43.543375652739165" lon="10.712500364756425"><ele>43.0</ele><time>2026-04-18T08:02:26Z</time></trkpt><trkpt lat="43.54338024454696" lon="10.712657282439995"><ele>43.0</ele><time>2026-04-18T08:02:27Z</time></trkpt><trkpt lat="43.54340292511022" lon="10.712814266679631"><ele>43.0</ele><time>2026-04-18T08:02:28Z</time></trkpt><trkpt lat="43.54342442054758" lon="10.712962873985322"><ele>43.0</ele><time>2026-04-18T08:02:29Z</time></trkpt><trkpt lat="43.543457951393854" lon="10.713124551132738"><ele>42.75</ele><time>2026-04-18T08:02:30Z</time></trkpt><trkpt lat="43.543481387433886" lon="10.713295583610236"><ele>42.5</ele><time>2026-04-18T08:02:31Z</time></trkpt><trkpt lat="43.54350574371786" lon="10.713472745348533"><ele>42.25</ele><time>2026-04-18T08:02:32Z</time></trkpt><trkpt lat="43.54353092258125" lon="10.713651689788986"><ele>42.0</ele><time>2026-04-18T08:02:33Z</time></trkpt><trkpt lat="43.54355260575184" lon="10.71383406925308"><ele>41.75</ele><time>2026-04-18T08:02:34Z</time></trkpt><trkpt lat="43.54357539338224" lon="10.714020023080394"><ele>41.5</ele><time>2026-04-18T08:02:35Z</time></trkpt><trkpt lat="43.54359969509736" lon="10.714204244672418"><ele>41.25</ele><time>2026-04-18T08:02:36Z</time></trkpt><trkpt lat="43.54362541368368" lon="10.714381879930055"><ele>41.0</ele><time>2026-04-18T08:02:37Z</time></trkpt><trkpt lat="43.543649733976935" lon="10.714549535118213"><ele>42.0</ele><time>2026-04-18T08:02:38Z</time></trkpt><trkpt lat="43.54368063801315" lon="10.71469800776562"><ele>43.0</ele><time>2026-04-18T08:02:39Z</time></trkpt><trkpt lat="43.54373205269187" lon="10.714825461033014"><ele>44.0</ele><time>2026-04-18T08:02:40Z</time></trkpt><trkpt lat="43.543814675703985" lon="10.714919227022872"><ele>45.0</ele><time>2026-04-18T08:02:41Z</time></trkpt><trkpt lat="43.54390686636441" lon="10.71494183563871"><ele>46.0</ele><time>2026-04-18T08:02:42Z</time></trkpt><trkpt lat="43.54399338536764" lon="10.714949013915312"><ele>47.599999999999994</ele><time>2026-04-18T08:02:43Z</time></trkpt><trkpt lat="43.54408551249488" lon="10.71494278302935"><ele>49.2</ele><time>2026-04-18T08:02:44Z</time></trkpt><trkpt lat="43.544182751171704" lon="10.714942992472064"><ele>50.800000000000004</ele><time>2026-04-18T08:02:45Z</time></trkpt><trkpt lat="43.544294966242575" lon="10.714953958309973"><ele>52.400000000000006</ele><time>2026-04-18T08:02:46Z</time></trkpt><trkpt lat="43.544392434403726" lon="10.714957629983457"><ele>54.0</ele><time>2026-04-18T08:02:47Z</time></trkpt><trkpt lat="43.54447964820981" lon="10.714958599727089"><ele>54.5</ele><time>2026-04-18T08:02:48Z</time></trkpt><trkpt lat="43.544561082153415" lon="10.714955800171747"><ele>55.0</ele><time>2026-04-18T08:02:49Z</time></trkpt><trkpt lat="43.54463651565522" lon="10.714956036205395"><ele>55.5</ele><time>2026-04-18T08:02:50Z</time></trkpt><trkpt lat="43.54470302887563" lon="10.714946419150523"><ele>56.0</ele><time>2026-04-18T08:02:51Z</time></trkpt><trkpt lat="43.54476695058056" lon="10.714958030194905"><ele>56.5</ele><time>2026-04-18T08:02:52Z</time></trkpt><trkpt lat="43.54486772205606" lon="10.714953971695149"><ele>57.0</ele><time>2026-04-18T08:02:54Z</time></trkpt><trkpt lat="43.54479948021176" lon="10.714954734694182"><ele>57.0</ele><time>2026-04-18T08:02:58Z</time></trkpt><trkpt lat="43.5447133980396" lon="10.71488777590559"><ele>57.0</ele><time>2026-04-18T08:03:01Z</time></trkpt><trkpt lat="43.54459663855431" lon="10.714919986950957"><ele>57.0</ele><time>2026-04-18T08:03:03Z</time></trkpt><trkpt lat="43.54451429165257" lon="10.714920262804561"><ele>57.0</ele><time>2026-04-18T08:03:04Z</time></trkpt><trkpt lat="43.544432590319595" lon="10.714918937115998"><ele>57.0</ele><time>2026-04-18T08:03:05Z</time></trkpt><trkpt lat="43.54434687907935" lon="10.714915571907413"><ele>56.5</ele><time>2026-04-18T08:03:06Z</time></trkpt><trkpt lat="43.54428136520927" lon="10.714912500912448"><ele>56.0</ele><time>2026-04-18T08:03:07Z</time></trkpt><trkpt lat="43.54420952010722" lon="10.714896823840535"><ele>55.5</ele><time>2026-04-18T08:03:08Z</time></trkpt><trkpt lat="43.54414196953674" lon="10.714900551898927"><ele>55.0</ele><time>2026-04-18T08:03:09Z</time></trkpt><trkpt lat="43.54407325362857" lon="10.714905334267327"><ele>54.5</ele><time>2026-04-18T08:03:10Z</time></trkpt><trkpt lat="43.543956590305434" lon="10.714896940969993"><ele>54.0</ele><time>2026-04-18T08:03:12Z</time></trkpt><trkpt lat="43.543876646625755" lon="10.7148804279346"><ele>54.0</ele><time>2026-04-18T08:03:14Z</time></trkpt><trkpt lat="43.543808679789606" lon="10.714881022699549"><ele>54.0</ele><time>2026-04-18T08:03:16Z</time></trkpt><trkpt lat="43.5437586731798" lon="10.714965911863484"><ele>54.0</ele><time>2026-04-18T08:03:18Z</time></trkpt><trkpt lat="43.54376873780162" lon="10.715097948893382"><ele>54.0</ele><time>2026-04-18T08:03:20Z</time></trkpt><trkpt lat="43.54375105601947" lon="10.715191010127493"><ele>54.0</ele><time>2026-04-18T08:03:22Z</time></trkpt><trkpt lat="43.543663622637695" lon="10.715185647625214"><ele>54.0</ele><time>2026-04-18T08:03:24Z</time></trkpt><trkpt lat="43.543613482871045" lon="10.715017880288986"><ele>52.400000000000006</ele><time>2026-04-18T08:03:26Z</time></trkpt><trkpt lat="43.54359965109459" lon="10.714896761550504"><ele>50.800000000000004</ele><time>2026-04-18T08:03:27Z</time></trkpt><trkpt lat="43.54358443580957" lon="10.714766999258902"><ele>49.2</ele><time>2026-04-18T08:03:28Z</time></trkpt><trkpt lat="43.543550769723396" lon="10.714641957591544"><ele>47.599999999999994</ele><time>2026-04-18T08:03:29Z</time></trkpt><trkpt lat="43.54350654636165" lon="10.714520961664663"><ele>46.0</ele><time>2026-04-18T08:03:30Z</time></trkpt><trkpt lat="43.543472257532436" lon="10.714403780269766"><ele>45.16666666666667</ele><time>2026-04-18T08:03:31Z</time></trkpt><trkpt lat="43.543434766652304" lon="10.714303755112445"><ele>44.333333333333336</ele><time>2026-04-18T08:03:32Z</time></trkpt><trkpt lat="43.54337943598477" lon="10.714208461869266"><ele>43.5</ele><time>2026-04-18T08:03:33Z</time></trkpt><trkpt lat="43.543323971293866" lon="10.714126470830948"><ele>42.666666666666664</ele><time>2026-04-18T08:03:34Z</time></trkpt><trkpt lat="43.54325313421426" lon="10.714069011992436"><ele>41.83333333333333</ele><time>2026-04-18T08:03:35Z</time></trkpt><trkpt lat="43.54317527680847" lon="10.71403101491349"><ele>41.0</ele><time>2026-04-18T08:03:36Z</time></trkpt><trkpt lat="43.543098038706226" lon="10.714027685495912"><ele>41.0</ele><time>2026-04-18T08:03:37Z</time></trkpt><trkpt lat="43.54302101992179" lon="10.714020244616371"><ele>41.0</ele><time>2026-04-18T08:03:38Z</time></trkpt><trkpt lat="43.54295069039337" lon="10.714020725856937"><ele>41.0</ele><time>2026-04-18T08:03:39Z</time></trkpt><trkpt lat="43.542813237906735" lon="10.71402648737533"><ele>41.0</ele><time>2026-04-18T08:03:41Z</time></trkpt><trkpt lat="43.54270397855292" lon="10.71403170550894"><ele>41.0</ele><time>2026-04-18T08:03:42Z</time></trkpt><trkpt lat="43.542629999844834" lon="10.714057706777561"><ele>41.0</ele><time>2026-04-18T08:03:43Z</time></trkpt><trkpt lat="43.542532617202625" lon="10.714064228206537"><ele>41.0</ele><time>2026-04-18T08:03:44Z</time></trkpt><trkpt lat="43.542446525399136" lon="10.71405998480793"><ele>41.0</ele><time>2026-04-18T08:03:45Z</time></trkpt><trkpt lat="43.54235322553441" lon="10.714064788094431"><ele>41.0</ele><time>2026-04-18T08:03:46Z</time></trkpt><trkpt lat="43.54225960735021" lon="10.71407892149007"><ele>41.0</ele><time>2026-04-18T08:03:47Z</time></trkpt><trkpt lat="43.54216607364862" lon="10.71410311223338"><ele>41.0</ele><time>2026-04-18T08:03:48Z</time></trkpt><trkpt lat="43.542065846743355" lon="10.714108436623137"><ele>41.0</ele><time>2026-04-18T08:03:49Z</time></trkpt><trkpt lat="43.541959842938226" lon="10.714131235388347"><ele>41.0</ele><time>2026-04-18T08:03:50Z</time></trkpt><trkpt lat="43.54185908739393" lon="10.714178143287125"><ele>41.0</ele><time>2026-04-18T08:03:51Z</time></trkpt><trkpt lat="43.541749911722356" lon="10.714196087567233"><ele>41.0</ele><time>2026-04-18T08:03:52Z</time></trkpt><trkpt lat="43.541631029829176" lon="10.714256233317071"><ele>40.8</ele><time>2026-04-18T08:03:53Z</time></trkpt><trkpt lat="43.54154091922636" lon="10.714330909993231"><ele>40.599999999999994</ele><time>2026-04-18T08:03:54Z</time></trkpt><trkpt lat="43.5414193759051" lon="10.714328401214786"><ele>40.4</ele><time>2026-04-18T08:03:55Z</time></trkpt><trkpt lat="43.541316108487024" lon="10.71436531985363"><ele>40.2</ele><time>2026-04-18T08:03:56Z</time></trkpt><trkpt lat="43.54121508203312" lon="10.714401963145558"><ele>40.0</ele><time>2026-04-18T08:03:57Z</time></trkpt><trkpt lat="43.54111715245261" lon="10.714443854519008"><ele>41.2</ele><time>2026-04-18T08:03:58Z</time></trkpt><trkpt lat="43.54102037288092" lon="10.714474452566986"><ele>42.4</ele><time>2026-04-18T08:03:59Z</time></trkpt><trkpt lat="43.54091787417812" lon="10.714500195252688"><ele>43.599999999999994</ele><time>2026-04-18T08:04:00Z</time></trkpt><trkpt lat="43.54081272982581" lon="10.714504961881214"><ele>44.8</ele><time>2026-04-18T08:04:01Z</time></trkpt><trkpt lat="43.540702357390494" lon="10.714503496966456"><ele>46.0</ele><time>2026-04-18T08:04:02Z</time></trkpt><trkpt lat="43.5405861459814" lon="10.714509193588706"><ele>46.0</ele><time>2026-04-18T08:04:03Z</time></trkpt><trkpt lat="43.54047943886379" lon="10.71451625680142"><ele>46.0</ele><time>2026-04-18T08:04:04Z</time></trkpt><trkpt lat="43.54037133504013" lon="10.714537809835496"><ele>46.0</ele><time>2026-04-18T08:04:05Z</time></trkpt><trkpt lat="43.540270246937965" lon="10.71453477726158"><ele>46.0</ele><time>2026-04-18T08:04:06Z</time></trkpt><trkpt lat="43.540172755089266" lon="10.714508494114927"><ele>46.0</ele><time>2026-04-18T08:04:07Z</time></trkpt><trkpt lat="43.54008624041321" lon="10.714494271775893"><ele>47.0</ele><time>2026-04-18T08:04:08Z</time></trkpt><trkpt lat="43.540000914252204" lon="10.714499511431976"><ele>48.0</ele><time>2026-04-18T08:04:09Z</time></trkpt><trkpt lat="43.53993101760605" lon="10.714462820827595"><ele>49.0</ele><time>2026-04-18T08:04:10Z</time></trkpt><trkpt lat="43.53985134537658" lon="10.714442620334337"><ele>50.0</ele><time>2026-04-18T08:04:11Z</time></trkpt><trkpt lat="43.53978893177272" lon="10.714427703058437"><ele>50.99999999999999</ele><time>2026-04-18T08:04:12Z</time></trkpt><trkpt lat="43.539717117479164" lon="10.714426466078965"><ele>52.0</ele><time>2026-04-18T08:04:13Z</time></trkpt><trkpt lat="43.53959610886018" lon="10.714432449177782"><ele>51.83333333333333</ele><time>2026-04-18T08:04:15Z</time></trkpt><trkpt lat="43.539526813531715" lon="10.714482531310459"><ele>51.666666666666664</ele><time>2026-04-18T08:04:16Z</time></trkpt><trkpt lat="43.53946887267578" lon="10.714546873355303"><ele>51.5</ele><time>2026-04-18T08:04:17Z</time></trkpt><trkpt lat="43.53942275332151" lon="10.714607297541155"><ele>51.33333333333333</ele><time>2026-04-18T08:04:18Z</time></trkpt><trkpt lat="43.53938134481284" lon="10.714680916760805"><ele>51.166666666666664</ele><time>2026-04-18T08:04:19Z</time></trkpt><trkpt lat="43.53933706912391" lon="10.714758036685415"><ele>51.0</ele><time>2026-04-18T08:04:20Z</time></trkpt><trkpt lat="43.53926854472598" lon="10.714891138929342"><ele>51.0</ele><time>2026-04-18T08:04:22Z</time></trkpt><trkpt lat="43.53918592906644" lon="10.714949251708203"><ele>51.0</ele><time>2026-04-18T08:04:24Z</time></trkpt><trkpt lat="43.53911421626997" lon="10.714860088612266"><ele>51.0</ele><time>2026-04-18T08:04:26Z</time></trkpt><trkpt lat="43.53910091105923" lon="10.714771468002995"><ele>51.0</ele><time>2026-04-18T08:04:27Z</time></trkpt><trkpt lat="43.53909165270615" lon="10.714672815045859"><ele>51.0</ele><time>2026-04-18T08:04:28Z</time></trkpt><trkpt lat="43.539059866781045" lon="10.71455894880747"><ele>51.0</ele><time>2026-04-18T08:04:29Z</time></trkpt><trkpt lat="43.53901707764709" lon="10.714451651262769"><ele>49.4</ele><time>2026-04-18T08:04:30Z</time></trkpt><trkpt lat="43.538972544976076" lon="10.714358672852667"><ele>47.8</ele><time>2026-04-18T08:04:31Z</time></trkpt><trkpt lat="43.538912034511675" lon="10.714282943433572"><ele>46.199999999999996</ele><time>2026-04-18T08:04:32Z</time></trkpt><trkpt lat="43.5388048219022" lon="10.714170794865822"><ele>44.599999999999994</ele><time>2026-04-18T08:04:34Z</time></trkpt><trkpt lat="43.53873686627352" lon="10.714121310822307"><ele>43.0</ele><time>2026-04-18T08:04:37Z</time></trkpt><trkpt lat="43.53867015559788" lon="10.7140593757022"><ele>43.0</ele><time>2026-04-18T08:04:40Z</time></trkpt><trkpt lat="43.538599269376526" lon="10.713998572104332"><ele>43.0</ele><time>2026-04-18T08:04:42Z</time></trkpt><trkpt lat="43.538551361019344" lon="10.71391959534083"><ele>43.0</ele><time>2026-04-18T08:04:45Z</time></trkpt><trkpt lat="43.53849390755148" lon="10.713850023661255"><ele>43.0</ele><time>2026-04-18T08:04:47Z</time></trkpt><trkpt lat="43.53843245578407" lon="10.713773717938215"><ele>43.0</ele><time>2026-04-18T08:04:49Z</time></trkpt><trkpt lat="43.538377232576494" lon="10.71370378376089"><ele>43.0</ele><time>2026-04-18T08:04:51Z</time></trkpt><trkpt lat="43.53833159478628" lon="10.713636941660367"><ele>42.833333333333336</ele><time>2026-04-18T08:04:53Z</time></trkpt><trkpt lat="43.53829003449067" lon="10.713516558213657"><ele>42.66666666666667</ele><time>2026-04-18T08:04:55Z</time></trkpt><trkpt lat="43.53830510638516" lon="10.71339205687819"><ele>42.5</ele><time>2026-04-18T08:04:57Z</time></trkpt><trkpt lat="43.53833580433018" lon="10.713285835561702"><ele>42.333333333333336</ele><time>2026-04-18T08:04:59Z</time></trkpt><trkpt lat="43.53826771952156" lon="10.713166631643341"><ele>42.166666666666664</ele><time>2026-04-18T08:05:01Z</time></trkpt><trkpt lat="43.53821812185074" lon="10.713111024533644"><ele>42.0</ele><time>2026-04-18T08:05:02Z</time></trkpt><trkpt lat="43.53815724882226" lon="10.713071009374524"><ele>42.0</ele><time>2026-04-18T08:05:03Z</time></trkpt><trkpt lat="43.53809910445252" lon="10.713026159049084"><ele>42.0</ele><time>2026-04-18T08:05:04Z</time></trkpt><trkpt lat="43.53804081857427" lon="10.712961660925838"><ele>42.0</ele><time>2026-04-18T08:05:05Z</time></trkpt><trkpt lat="43.53798361743777" lon="10.712880275434422"><ele>42.0</ele><time>2026-04-18T08:05:06Z</time></trkpt><trkpt lat="43.5379075189923" lon="10.71279004927756"><ele>42.0</ele><time>2026-04-18T08:05:07Z</time></trkpt><trkpt lat="43.53781958458158" lon="10.712712121202967"><ele>42.0</ele><time>2026-04-18T08:05:08Z</time></trkpt><trkpt lat="43.537738661726344" lon="10.712637484819258"><ele>42.0</ele><time>2026-04-18T08:05:09Z</time></trkpt><trkpt lat="43.53765170781942" lon="10.712567728376067"><ele>42.0</ele><time>2026-04-18T08:05:10Z</time></trkpt><trkpt lat="43.53756018758649" lon="10.71247816452884"><ele>42.0</ele><time>2026-04-18T08:05:11Z</time></trkpt><trkpt lat="43.53746645097676" lon="10.712381939743684"><ele>42.0</ele><time>2026-04-18T08:05:12Z</time></trkpt><trkpt lat="43.537367213524256" lon="10.71225728130297"><ele>42.0</ele><time>2026-04-18T08:05:13Z</time></trkpt><trkpt lat="43.537260150395376" lon="10.712169596918422"><ele>42.0</ele><time>2026-04-18T08:05:14Z</time></trkpt><trkpt lat="43.53715863862462" lon="10.712070441003576"><ele>42.0</ele><time>2026-04-18T08:05:15Z</time></trkpt><trkpt lat="43.53706958718313" lon="10.711985756775702"><ele>42.0</ele><time>2026-04-18T08:05:16Z</time></trkpt><trkpt lat="43.5369737415285" lon="10.711900730738831"><ele>42.0</ele><time>2026-04-18T08:05:17Z</time></trkpt><trkpt lat="43.536879153556306" lon="10.711843151567544"><ele>42.0</ele><time>2026-04-18T08:05:18Z</time></trkpt><trkpt lat="43.53678445082205" lon="10.71180704877505"><ele>42.0</ele><time>2026-04-18T08:05:19Z</time></trkpt><trkpt lat="43.536670337432604" lon="10.71177897219036"><ele>42.0</ele><time>2026-04-18T08:05:20Z</time></trkpt><trkpt lat="43.536550336826444" lon="10.7117542497315"><ele>42.0</ele><time>2026-04-18T08:05:21Z</time></trkpt><trkpt lat="43.536442732639344" lon="10.711758037015624"><ele>42.0</ele><time>2026-04-18T08:05:22Z</time></trkpt><trkpt lat="43.53632048433533" lon="10.71174385585665"><ele>42.0</ele><time>2026-04-18T08:05:23Z</time></trkpt><trkpt lat="43.536193614790974" lon="10.711724846806714"><ele>42.0</ele><time>2026-04-18T08:05:24Z</time></trkpt><trkpt lat="43.536074093710816" lon="10.711706078465607"><ele>42.0</ele><time>2026-04-18T08:05:25Z</time></trkpt><trkpt lat="43.535959255537605" lon="10.711689261573257"><ele>41.8</ele><time>2026-04-18T08:05:26Z</time></trkpt><trkpt lat="43.53584743917089" lon="10.711648700425794"><ele>41.6</ele><time>2026-04-18T08:05:27Z</time></trkpt><trkpt lat="43.53574486475448" lon="10.711614996542192"><ele>41.4</ele><time>2026-04-18T08:05:28Z</time></trkpt><trkpt lat="43.5356357010276" lon="10.71156714496958"><ele>41.199999999999996</ele><time>2026-04-18T08:05:29Z</time></trkpt><trkpt lat="43.5355259598998" lon="10.71153961202739"><ele>41.0</ele><time>2026-04-18T08:05:30Z</time></trkpt><trkpt lat="43.53541737798307" lon="10.711485646419336"><ele>41.199999999999996</ele><time>2026-04-18T08:05:31Z</time></trkpt><trkpt lat="43.535312919390975" lon="10.711416121443433"><ele>41.4</ele><time>2026-04-18T08:05:32Z</time></trkpt><trkpt lat="43.53521452381741" lon="10.711367731079406"><ele>41.6</ele><time>2026-04-18T08:05:33Z</time></trkpt><trkpt lat="43.535117895773666" lon="10.71131944405593"><ele>41.8</ele><time>2026-04-18T08:05:34Z</time></trkpt><trkpt lat="43.535043034237596" lon="10.71128150307436"><ele>42.0</ele><time>2026-04-18T08:05:35Z</time></trkpt><trkpt lat="43.53496923443821" lon="10.711243402322822"><ele>42.0</ele><time>2026-04-18T08:05:36Z</time></trkpt><trkpt lat="43.534898755702486" lon="10.711206402316085"><ele>42.0</ele><time>2026-04-18T08:05:37Z</time></trkpt><trkpt lat="43.53482512762876" lon="10.711166409078777"><ele>42.0</ele><time>2026-04-18T08:05:38Z</time></trkpt><trkpt lat="43.53475381511527" lon="10.71112683203684"><ele>42.0</ele><time>2026-04-18T08:05:39Z</time></trkpt><trkpt lat="43.53467927117551" lon="10.71108526515921"><ele>42.0</ele><time>2026-04-18T08:05:40Z</time></trkpt><trkpt lat="43.534595196686055" lon="10.711057209468427"><ele>42.0</ele><time>2026-04-18T08:05:41Z</time></trkpt><trkpt lat="43.53452818953928" lon="10.711008707494658"><ele>42.0</ele><time>2026-04-18T08:05:42Z</time></trkpt><trkpt lat="43.53445441122967" lon="10.710971183442043"><ele>42.0</ele><time>2026-04-18T08:05:43Z</time></trkpt><trkpt lat="43.53438556248825" lon="10.710921238393006"><ele>42.0</ele><time>2026-04-18T08:05:44Z</time></trkpt><trkpt lat="43.53432589673697" lon="10.710879265950945"><ele>42.0</ele><time>2026-04-18T08:05:45Z</time></trkpt><trkpt lat="43.53423988769605" lon="10.710909701182349"><ele>42.0</ele><time>2026-04-18T08:05:47Z</time></trkpt><trkpt lat="43.53419400206652" lon="10.711046626338236"><ele>42.0</ele><time>2026-04-18T08:05:49Z</time></trkpt><trkpt lat="43.534169760980596" lon="10.71116763627884"><ele>41.833333333333336</ele><time>2026-04-18T08:05:50Z</time></trkpt><trkpt lat="43.53413923070872" lon="10.71130041280075"><ele>41.666666666666664</ele><time>2026-04-18T08:05:51Z</time></trkpt><trkpt lat="43.53410480473464" lon="10.711436252764234"><ele>41.5</ele><time>2026-04-18T08:05:52Z</time></trkpt><trkpt lat="43.534055072789684" lon="10.711547652882995"><ele>41.33333333333333</ele><time>2026-04-18T08:05:53Z</time></trkpt><trkpt lat="43.53401348032304" lon="10.711645381432323"><ele>41.166666666666664</ele><time>2026-04-18T08:05:54Z</time></trkpt><trkpt lat="43.53398101336594" lon="10.711725436160755"><ele>41.0</ele><time>2026-04-18T08:05:55Z</time></trkpt><trkpt lat="43.53393864086299" lon="10.711829915253565"><ele>41.0</ele><time>2026-04-18T08:05:57Z</time></trkpt><trkpt lat="43.53387166667165" lon="10.71193936263458"><ele>41.0</ele><time>2026-04-18T08:05:59Z</time></trkpt><trkpt lat="43.533860228664174" lon="10.712030188908837"><ele>41.0</ele><time>2026-04-18T08:06:00Z</time></trkpt><trkpt lat="43.53382484173388" lon="10.712120377799495"><ele>41.0</ele><time>2026-04-18T08:06:01Z</time></trkpt><trkpt lat="43.53342507261514" lon="10.71193017100212"><ele>42.0</ele><time>2026-04-18T08:06:02Z</time></trkpt><trkpt lat="43.533311565907255" lon="10.71196925707458"><ele>43.0</ele><time>2026-04-18T08:06:03Z</time></trkpt><trkpt lat="43.53320012853965" lon="10.712013042702138"><ele>44.0</ele><time>2026-04-18T08:06:04Z</time></trkpt><trkpt lat="43.53308800411239" lon="10.71205479651693"><ele>45.0</ele><time>2026-04-18T08:06:05Z</time></trkpt><trkpt lat="43.53297116815689" lon="10.712098262922988"><ele>44.75</ele><time>2026-04-18T08:06:06Z</time></trkpt><trkpt lat="43.53284501294343" lon="10.712145990924084"><ele>44.5</ele><time>2026-04-18T08:06:07Z</time></trkpt><trkpt lat="43.53272246076858" lon="10.712193622568206"><ele>44.25</ele><time>2026-04-18T08:06:08Z</time></trkpt><trkpt lat="43.532597211711185" lon="10.712232477315617"><ele>44.0</ele><time>2026-04-18T08:06:09Z</time></trkpt><trkpt lat="43.53248314979193" lon="10.712276858594333"><ele>44.0</ele><time>2026-04-18T08:06:10Z</time></trkpt><trkpt lat="43.532351391653535" lon="10.712327296876436"><ele>44.0</ele><time>2026-04-18T08:06:11Z</time></trkpt><trkpt lat="43.532235067907166" lon="10.71237177431075"><ele>44.0</ele><time>2026-04-18T08:06:12Z</time></trkpt><trkpt lat="43.5321234791924" lon="10.712419570835417"><ele>44.0</ele><time>2026-04-18T08:06:13Z</time></trkpt><trkpt lat="43.532007722791754" lon="10.712468053120796"><ele>43.5</ele><time>2026-04-18T08:06:14Z</time></trkpt><trkpt lat="43.5318853287112" lon="10.712515762110316"><ele>43.0</ele><time>2026-04-18T08:06:15Z</time></trkpt><trkpt lat="43.53177136281531" lon="10.712559378159945"><ele>42.5</ele><time>2026-04-18T08:06:16Z</time></trkpt><trkpt lat="43.531659899825904" lon="10.712604983737002"><ele>42.0</ele><time>2026-04-18T08:06:17Z</time></trkpt><trkpt lat="43.53154692041646" lon="10.712655111041505"><ele>42.0</ele><time>2026-04-18T08:06:18Z</time></trkpt><trkpt lat="43.53143885240041" lon="10.712698862484986"><ele>42.0</ele><time>2026-04-18T08:06:19Z</time></trkpt><trkpt lat="43.53133258206482" lon="10.712738928745837"><ele>42.0</ele><time>2026-04-18T08:06:20Z</time></trkpt><trkpt lat="43.53122738983292" lon="10.712782349425744"><ele>42.0</ele><time>2026-04-18T08:06:21Z</time></trkpt><trkpt lat="43.531123517567366" lon="10.712819721552613"><ele>42.0</ele><time>2026-04-18T08:06:22Z</time></trkpt><trkpt lat="43.5310316274245" lon="10.712860925020683"><ele>42.2</ele><time>2026-04-18T08:06:23Z</time></trkpt><trkpt lat="43.53093580610732" lon="10.712900950167844"><ele>42.400000000000006</ele><time>2026-04-18T08:06:24Z</time></trkpt><trkpt lat="43.530835856140506" lon="10.7129402296598"><ele>42.599999999999994</ele><time>2026-04-18T08:06:25Z</time></trkpt><trkpt lat="43.530739934828375" lon="10.712984211607445"><ele>42.8</ele><time>2026-04-18T08:06:26Z</time></trkpt><trkpt lat="43.53063959986207" lon="10.713031798607975"><ele>43.0</ele><time>2026-04-18T08:06:27Z</time></trkpt><trkpt lat="43.53053806792356" lon="10.713077083394007"><ele>43.0</ele><time>2026-04-18T08:06:28Z</time></trkpt><trkpt lat="43.53043983697047" lon="10.713119144645352"><ele>43.0</ele><time>2026-04-18T08:06:29Z</time></trkpt><trkpt lat="43.53034261715403" lon="10.713159153533354"><ele>43.0</ele><time>2026-04-18T08:06:30Z</time></trkpt><trkpt lat="43.53025493220506" lon="10.713203480515574"><ele>43.0</ele><time>2026-04-18T08:06:31Z</time></trkpt><trkpt lat="43.53016096472032" lon="10.713243654818642"><ele>43.0</ele><time>2026-04-18T08:06:32Z</time></trkpt><trkpt lat="43.53004626273472" lon="10.713280663447922"><ele>43.25</ele><time>2026-04-18T08:06:33Z</time></trkpt><trkpt lat="43.52993781524346" lon="10.713326682911896"><ele>43.5</ele><time>2026-04-18T08:06:34Z</time></trkpt><trkpt lat="43.52982819330139" lon="10.713373781855907"><ele>43.75</ele><time>2026-04-18T08:06:35Z</time></trkpt><trkpt lat="43.529713974969724" lon="10.713413586327842"><ele>44.0</ele><time>2026-04-18T08:06:36Z</time></trkpt><trkpt lat="43.52959616018135" lon="10.713463139453532"><ele>44.25</ele><time>2026-04-18T08:06:37Z</time></trkpt><trkpt lat="43.529479808732255" lon="10.713507361161023"><ele>44.5</ele><time>2026-04-18T08:06:38Z</time></trkpt><trkpt lat="43.52936476101858" lon="10.71355021610773"><ele>44.75</ele><time>2026-04-18T08:06:39Z</time></trkpt><trkpt lat="43.52925191968517" lon="10.713594338127914"><ele>45.0</ele><time>2026-04-18T08:06:40Z</time></trkpt><trkpt lat="43.52914253336927" lon="10.713638628912724"><ele>45.0</ele><time>2026-04-18T08:06:41Z</time></trkpt><trkpt lat="43.52903260193355" lon="10.7136782171653"><ele>45.0</ele><time>2026-04-18T08:06:42Z</time></trkpt><trkpt lat="43.52892869146189" lon="10.713724351600279"><ele>45.0</ele><time>2026-04-18T08:06:43Z</time></trkpt><trkpt lat="43.5288356876849" lon="10.713763161494319"><ele>45.0</ele><time>2026-04-18T08:06:44Z</time></trkpt><trkpt lat="43.52871992083668" lon="10.713813422120317"><ele>45.0</ele><time>2026-04-18T08:06:45Z</time></trkpt><trkpt lat="43.5286023975618" lon="10.713864251170483"><ele>45.0</ele><time>2026-04-18T08:06:46Z</time></trkpt><trkpt lat="43.528488387856314" lon="10.713908719428217"><ele>45.0</ele><time>2026-04-18T08:06:47Z</time></trkpt><trkpt lat="43.52836987050351" lon="10.713958653252636"><ele>45.0</ele><time>2026-04-18T08:06:48Z</time></trkpt><trkpt lat="43.528246589560844" lon="10.714005806097125"><ele>45.0</ele><time>2026-04-18T08:06:49Z</time></trkpt><trkpt lat="43.52812473115994" lon="10.71405597572873"><ele>45.0</ele><time>2026-04-18T08:06:50Z</time></trkpt><trkpt lat="43.527996126120506" lon="10.714101127777507"><ele>45.0</ele><time>2026-04-18T08:06:51Z</time></trkpt><trkpt lat="43.527877980305554" lon="10.714150486123678"><ele>45.0</ele><time>2026-04-18T08:06:52Z</time></trkpt><trkpt lat="43.52776049363224" lon="10.714195952064069"><ele>45.0</ele><time>2026-04-18T08:06:53Z</time></trkpt><trkpt lat="43.52763900740591" lon="10.71424349714834"><ele>45.0</ele><time>2026-04-18T08:06:54Z</time></trkpt><trkpt lat="43.527521399459665" lon="10.71429157083357"><ele>45.0</ele><time>2026-04-18T08:06:55Z</time></trkpt><trkpt lat="43.52740253146884" lon="10.714337919892841"><ele>45.0</ele><time>2026-04-18T08:06:56Z</time></trkpt><trkpt lat="43.5272856564153" lon="10.714388973613934"><ele>45.0</ele><time>2026-04-18T08:06:57Z</time></trkpt><trkpt lat="43.527171802312196" lon="10.714440029608541"><ele>46.75</ele><time>2026-04-18T08:06:58Z</time></trkpt><trkpt lat="43.52705795573205" lon="10.714488850136586"><ele>48.5</ele><time>2026-04-18T08:06:59Z</time></trkpt><trkpt lat="43.52693729505289" lon="10.71453493038386"><ele>50.25</ele><time>2026-04-18T08:07:00Z</time></trkpt><trkpt lat="43.52682326103491" lon="10.714583418227358"><ele>52.0</ele><time>2026-04-18T08:07:01Z</time></trkpt><trkpt lat="43.52669729379986" lon="10.714634370808279"><ele>52.0</ele><time>2026-04-18T08:07:02Z</time></trkpt><trkpt lat="43.52657404862013" lon="10.714679066968667"><ele>52.0</ele><time>2026-04-18T08:07:03Z</time></trkpt><trkpt lat="43.52645214301148" lon="10.714724668204125"><ele>52.0</ele><time>2026-04-18T08:07:04Z</time></trkpt><trkpt lat="43.526337846399564" lon="10.714767463403216"><ele>52.0</ele><time>2026-04-18T08:07:05Z</time></trkpt><trkpt lat="43.52623109352055" lon="10.714810997033956"><ele>50.5</ele><time>2026-04-18T08:07:06Z</time></trkpt><trkpt lat="43.52611178816981" lon="10.714867564102164"><ele>49.0</ele><time>2026-04-18T08:07:07Z</time></trkpt><trkpt lat="43.52598892938482" lon="10.714918104541642"><ele>47.5</ele><time>2026-04-18T08:07:08Z</time></trkpt><trkpt lat="43.52586140334475" lon="10.714964329285324"><ele>46.0</ele><time>2026-04-18T08:07:09Z</time></trkpt><trkpt lat="43.525736023445624" lon="10.715012601125393"><ele>46.0</ele><time>2026-04-18T08:07:10Z</time></trkpt><trkpt lat="43.525616070848294" lon="10.715057413202471"><ele>46.0</ele><time>2026-04-18T08:07:11Z</time></trkpt><trkpt lat="43.525502400628994" lon="10.715103757940083"><ele>46.0</ele><time>2026-04-18T08:07:12Z</time></trkpt><trkpt lat="43.52538835567301" lon="10.715144226176522"><ele>46.0</ele><time>2026-04-18T08:07:13Z</time></trkpt><trkpt lat="43.52527493620049" lon="10.715181726151075"><ele>45.599999999999994</ele><time>2026-04-18T08:07:14Z</time></trkpt><trkpt lat="43.52517065567579" lon="10.71523143925799"><ele>45.2</ele><time>2026-04-18T08:07:15Z</time></trkpt><trkpt lat="43.52507274459174" lon="10.715282222750123"><ele>44.8</ele><time>2026-04-18T08:07:16Z</time></trkpt><trkpt lat="43.524981025348445" lon="10.71532041592824"><ele>44.400000000000006</ele><time>2026-04-18T08:07:17Z</time></trkpt><trkpt lat="43.52489934317717" lon="10.71535334289215"><ele>44.0</ele><time>2026-04-18T08:07:18Z</time></trkpt><trkpt lat="43.52481417191475" lon="10.715365827958333"><ele>44.666666666666664</ele><time>2026-04-18T08:07:19Z</time></trkpt><trkpt lat="43.52474512132496" lon="10.71539130457028"><ele>45.33333333333333</ele><time>2026-04-18T08:07:20Z</time></trkpt><trkpt lat="43.524679782570495" lon="10.715459251006443"><ele>46.0</ele><time>2026-04-18T08:07:21Z</time></trkpt><trkpt lat="43.52464414941918" lon="10.715545934374289"><ele>46.666666666666664</ele><time>2026-04-18T08:07:22Z</time></trkpt><trkpt lat="43.524608798846934" lon="10.715677288086347"><ele>47.333333333333336</ele><time>2026-04-18T08:07:23Z</time></trkpt><trkpt lat="43.52461308559895" lon="10.715839818669089"><ele>48.0</ele><time>2026-04-18T08:07:24Z</time></trkpt><trkpt lat="43.52460539501245" lon="10.71601185347735"><ele>47.2</ele><time>2026-04-18T08:07:25Z</time></trkpt><trkpt lat="43.524608727159006" lon="10.71616363586682"><ele>46.4</ele><time>2026-04-18T08:07:26Z</time></trkpt><trkpt lat="43.52459990684138" lon="10.71630461006483"><ele>45.6</ele><time>2026-04-18T08:07:27Z</time></trkpt><trkpt lat="43.52458506523945" lon="10.716445704173054"><ele>44.800000000000004</ele><time>2026-04-18T08:07:28Z</time></trkpt><trkpt lat="43.52456837609695" lon="10.716572862359046"><ele>44.0</ele><time>2026-04-18T08:07:29Z</time></trkpt><trkpt lat="43.52454039702996" lon="10.71668706416625"><ele>44.0</ele><time>2026-04-18T08:07:30Z</time></trkpt><trkpt lat="43.524507550574796" lon="10.716792820725624"><ele>44.0</ele><time>2026-04-18T08:07:31Z</time></trkpt><trkpt lat="43.52447695002094" lon="10.71690264294839"><ele>44.0</ele><time>2026-04-18T08:07:32Z</time></trkpt><trkpt lat="43.52444278750936" lon="10.717007612908445"><ele>44.0</ele><time>2026-04-18T08:07:33Z</time></trkpt><trkpt lat="43.52440849689323" lon="10.717116595715126"><ele>44.0</ele><time>2026-04-18T08:07:34Z</time></trkpt><trkpt lat="43.52436982253712" lon="10.717224528232274"><ele>44.0</ele><time>2026-04-18T08:07:35Z</time></trkpt><trkpt lat="43.5243333815266" lon="10.717334003459232"><ele>44.0</ele><time>2026-04-18T08:07:36Z</time></trkpt><trkpt lat="43.52430489254975" lon="10.717447227624268"><ele>44.0</ele><time>2026-04-18T08:07:37Z</time></trkpt><trkpt lat="43.524269964955174" lon="10.717553896781581"><ele>44.0</ele><time>2026-04-18T08:07:38Z</time></trkpt><trkpt lat="43.52423687409888" lon="10.717660936524457"><ele>44.0</ele><time>2026-04-18T08:07:39Z</time></trkpt><trkpt lat="43.52420445838951" lon="10.717772040969358"><ele>44.0</ele><time>2026-04-18T08:07:40Z</time></trkpt><trkpt lat="43.5241681726322" lon="10.717891833664039"><ele>44.0</ele><time>2026-04-18T08:07:41Z</time></trkpt><trkpt lat="43.52414356690095" lon="10.718008744592183"><ele>44.5</ele><time>2026-04-18T08:07:42Z</time></trkpt><trkpt lat="43.52410707385033" lon="10.718124657677354"><ele>45.0</ele><time>2026-04-18T08:07:43Z</time></trkpt><trkpt lat="43.52407832694774" lon="10.718238101192654"><ele>45.5</ele><time>2026-04-18T08:07:44Z</time></trkpt><trkpt lat="43.52404740249781" lon="10.718352246292078"><ele>46.0</ele><time>2026-04-18T08:07:45Z</time></trkpt><trkpt lat="43.52402125957677" lon="10.71846784963758"><ele>46.5</ele><time>2026-04-18T08:07:46Z</time></trkpt><trkpt lat="43.52398961055808" lon="10.718586282830728"><ele>47.0</ele><time>2026-04-18T08:07:47Z</time></trkpt><trkpt lat="43.52395768822396" lon="10.718707559464102"><ele>47.2</ele><time>2026-04-18T08:07:48Z</time></trkpt><trkpt lat="43.523927747801736" lon="10.718832148633977"><ele>47.400000000000006</ele><time>2026-04-18T08:07:49Z</time></trkpt><trkpt lat="43.52389297249335" lon="10.718951153882799"><ele>47.599999999999994</ele><time>2026-04-18T08:07:50Z</time></trkpt><trkpt lat="43.52385362550424" lon="10.71906118740388"><ele>47.8</ele><time>2026-04-18T08:07:51Z</time></trkpt><trkpt lat="43.523816595208764" lon="10.719180552239242"><ele>48.0</ele><time>2026-04-18T08:07:52Z</time></trkpt><trkpt lat="43.52378288178837" lon="10.719298971173487"><ele>48.2</ele><time>2026-04-18T08:07:53Z</time></trkpt><trkpt lat="43.523751695435294" lon="10.719424651405623"><ele>48.4</ele><time>2026-04-18T08:07:54Z</time></trkpt><trkpt lat="43.52372234735411" lon="10.71955537461279"><ele>48.6</ele><time>2026-04-18T08:07:55Z</time></trkpt><trkpt lat="43.52368054880763" lon="10.719678234096005"><ele>48.800000000000004</ele><time>2026-04-18T08:07:56Z</time></trkpt><trkpt lat="43.52363471820832" lon="10.71979925584929"><ele>49.0</ele><time>2026-04-18T08:07:57Z</time></trkpt><trkpt lat="43.52359428061218" lon="10.7199296968851"><ele>48.400000000000006</ele><time>2026-04-18T08:07:58Z</time></trkpt><trkpt lat="43.523549654456744" lon="10.720052865167416"><ele>47.8</ele><time>2026-04-18T08:07:59Z</time></trkpt><trkpt lat="43.523494559897166" lon="10.720176880820704"><ele>47.2</ele><time>2026-04-18T08:08:00Z</time></trkpt><trkpt lat="43.52344010002194" lon="10.72030191484511"><ele>46.599999999999994</ele><time>2026-04-18T08:08:01Z</time></trkpt><trkpt lat="43.523389741175016" lon="10.720441693228482"><ele>46.0</ele><time>2026-04-18T08:08:02Z</time></trkpt><trkpt lat="43.52335072671117" lon="10.720580193529473"><ele>46.0</ele><time>2026-04-18T08:08:03Z</time></trkpt><trkpt lat="43.52331184329086" lon="10.720721030620718"><ele>46.0</ele><time>2026-04-18T08:08:04Z</time></trkpt><trkpt lat="43.523286012951914" lon="10.720867202916413"><ele>46.0</ele><time>2026-04-18T08:08:05Z</time></trkpt><trkpt lat="43.52326508010962" lon="10.721017418439251"><ele>46.0</ele><time>2026-04-18T08:08:06Z</time></trkpt><trkpt lat="43.523234454241425" lon="10.721167891441885"><ele>46.0</ele><time>2026-04-18T08:08:07Z</time></trkpt><trkpt lat="43.52318081345428" lon="10.721303475683886"><ele>46.0</ele><time>2026-04-18T08:08:08Z</time></trkpt><trkpt lat="43.52313250934789" lon="10.721443884184472"><ele>46.0</ele><time>2026-04-18T08:08:09Z</time></trkpt><trkpt lat="43.52307251291848" lon="10.72159667028383"><ele>46.0</ele><time>2026-04-18T08:08:10Z</time></trkpt><trkpt lat="43.523006870718575" lon="10.721731912502914"><ele>46.0</ele><time>2026-04-18T08:08:11Z</time></trkpt><trkpt lat="43.52293741096757" lon="10.721849329886245"><ele>46.8</ele><time>2026-04-18T08:08:12Z</time></trkpt><trkpt lat="43.522866211059" lon="10.721960961061527"><ele>47.599999999999994</ele><time>2026-04-18T08:08:13Z</time></trkpt><trkpt lat="43.522801989144696" lon="10.722069659792565"><ele>48.4</ele><time>2026-04-18T08:08:14Z</time></trkpt><trkpt lat="43.52274460403034" lon="10.722181889330265"><ele>49.2</ele><time>2026-04-18T08:08:15Z</time></trkpt><trkpt lat="43.522699317350906" lon="10.7222901739954"><ele>50.0</ele><time>2026-04-18T08:08:16Z</time></trkpt><trkpt lat="43.52263587234647" lon="10.722375719970438"><ele>50.0</ele><time>2026-04-18T08:08:17Z</time></trkpt><trkpt lat="43.52255536826432" lon="10.722471268220884"><ele>50.0</ele><time>2026-04-18T08:08:18Z</time></trkpt><trkpt lat="43.522471979740246" lon="10.722548941241989"><ele>50.0</ele><time>2026-04-18T08:08:19Z</time></trkpt><trkpt lat="43.52238884367422" lon="10.722623649951702"><ele>50.0</ele><time>2026-04-18T08:08:20Z</time></trkpt><trkpt lat="43.52232416714865" lon="10.722708159325396"><ele>50.0</ele><time>2026-04-18T08:08:21Z</time></trkpt><trkpt lat="43.52224934433711" lon="10.72278166628259"><ele>50.0</ele><time>2026-04-18T08:08:22Z</time></trkpt><trkpt lat="43.52216727163408" lon="10.722858050878347"><ele>50.0</ele><time>2026-04-18T08:08:23Z</time></trkpt><trkpt lat="43.52207896540905" lon="10.72293367388395"><ele>50.0</ele><time>2026-04-18T08:08:24Z</time></trkpt><trkpt lat="43.52199290693407" lon="10.723006265812602"><ele>50.0</ele><time>2026-04-18T08:08:25Z</time></trkpt><trkpt lat="43.52192090044491" lon="10.723079087554325"><ele>50.0</ele><time>2026-04-18T08:08:26Z</time></trkpt><trkpt lat="43.521832629536554" lon="10.723146789065405"><ele>50.0</ele><time>2026-04-18T08:08:27Z</time></trkpt><trkpt lat="43.5217578442344" lon="10.723213906044373"><ele>50.0</ele><time>2026-04-18T08:08:28Z</time></trkpt><trkpt lat="43.521677858404516" lon="10.723298465204044"><ele>50.0</ele><time>2026-04-18T08:08:29Z</time></trkpt><trkpt lat="43.52159954860481" lon="10.72337608445273"><ele>50.0</ele><time>2026-04-18T08:08:30Z</time></trkpt><trkpt lat="43.52150742943902" lon="10.723463651046899"><ele>50.0</ele><time>2026-04-18T08:08:31Z</time></trkpt><trkpt lat="43.52144676917995" lon="10.72355648531611"><ele>49.8</ele><time>2026-04-18T08:08:32Z</time></trkpt><trkpt lat="43.52139417688966" lon="10.723634437928638"><ele>49.6</ele><time>2026-04-18T08:08:33Z</time></trkpt><trkpt lat="43.52132989602325" lon="10.723770926667456"><ele>49.400000000000006</ele><time>2026-04-18T08:08:35Z</time></trkpt><trkpt lat="43.52126311753894" lon="10.723892895417707"><ele>49.2</ele><time>2026-04-18T08:08:37Z</time></trkpt><trkpt lat="43.52119904973561" lon="10.7240248824266"><ele>49.0</ele><time>2026-04-18T08:08:39Z</time></trkpt><trkpt lat="43.52112246393672" lon="10.724159710020203"><ele>48.857142857142854</ele><time>2026-04-18T08:08:41Z</time></trkpt><trkpt lat="43.52107998470132" lon="10.724224626369601"><ele>48.714285714285715</ele><time>2026-04-18T08:08:42Z</time></trkpt><trkpt lat="43.52102694327919" lon="10.724289439820872"><ele>48.57142857142857</ele><time>2026-04-18T08:08:43Z</time></trkpt><trkpt lat="43.52097809458656" lon="10.724359575812752"><ele>48.42857142857143</ele><time>2026-04-18T08:08:44Z</time></trkpt><trkpt lat="43.520934662852625" lon="10.724430267129911"><ele>48.285714285714285</ele><time>2026-04-18T08:08:45Z</time></trkpt><trkpt lat="43.52087789860355" lon="10.724505513589257"><ele>48.14285714285714</ele><time>2026-04-18T08:08:46Z</time></trkpt><trkpt lat="43.520828043166496" lon="10.724580288557165"><ele>48.0</ele><time>2026-04-18T08:08:47Z</time></trkpt><trkpt lat="43.52079404067461" lon="10.724662050139916"><ele>47.99999999999999</ele><time>2026-04-18T08:08:48Z</time></trkpt><trkpt lat="43.52076685768228" lon="10.724747831094017"><ele>48.0</ele><time>2026-04-18T08:08:49Z</time></trkpt><trkpt lat="43.52077328732138" lon="10.724836990398655"><ele>48.0</ele><time>2026-04-18T08:08:50Z</time></trkpt><trkpt lat="43.520780117423094" lon="10.724940360028338"><ele>48.0</ele><time>2026-04-18T08:08:51Z</time></trkpt><trkpt lat="43.52079255335184" lon="10.725039906182891"><ele>48.0</ele><time>2026-04-18T08:08:52Z</time></trkpt><trkpt lat="43.520809731824656" lon="10.725136858217576"><ele>47.99999999999999</ele><time>2026-04-18T08:08:53Z</time></trkpt><trkpt lat="43.520815701681066" lon="10.725230963032407"><ele>48.0</ele><time>2026-04-18T08:08:54Z</time></trkpt><trkpt lat="43.52081206733396" lon="10.725331983567692"><ele>48.166666666666664</ele><time>2026-04-18T08:08:55Z</time></trkpt><trkpt lat="43.52081000245793" lon="10.725435557688542"><ele>48.33333333333333</ele><time>2026-04-18T08:08:56Z</time></trkpt><trkpt lat="43.520811080788086" lon="10.725540772011957"><ele>48.5</ele><time>2026-04-18T08:08:57Z</time></trkpt><trkpt lat="43.52082775267978" lon="10.725656019514863"><ele>48.666666666666664</ele><time>2026-04-18T08:08:58Z</time></trkpt><trkpt lat="43.52084582789701" lon="10.72576237987361"><ele>48.83333333333333</ele><time>2026-04-18T08:08:59Z</time></trkpt><trkpt lat="43.52087267101052" lon="10.725865482934768"><ele>49.0</ele><time>2026-04-18T08:09:00Z</time></trkpt><trkpt lat="43.52089502765654" lon="10.725952546053826"><ele>48.99999999999999</ele><time>2026-04-18T08:09:01Z</time></trkpt><trkpt lat="43.520916554439154" lon="10.726037693220661"><ele>49.0</ele><time>2026-04-18T08:09:02Z</time></trkpt><trkpt lat="43.520955311311475" lon="10.726183956954026"><ele>49.0</ele><time>2026-04-18T08:09:04Z</time></trkpt><trkpt lat="43.5209653469349" lon="10.726292946472814"><ele>49.0</ele><time>2026-04-18T08:09:06Z</time></trkpt><trkpt lat="43.520916799431355" lon="10.72637322975134"><ele>48.99999999999999</ele><time>2026-04-18T08:09:08Z</time></trkpt><trkpt lat="43.52082239200035" lon="10.726465387025094"><ele>49.0</ele><time>2026-04-18T08:09:10Z</time></trkpt><trkpt lat="43.52073857566875" lon="10.726552056218841"><ele>49.0</ele><time>2026-04-18T08:09:12Z</time></trkpt><trkpt lat="43.52065884408805" lon="10.726598355921254"><ele>49.0</ele><time>2026-04-18T08:09:14Z</time></trkpt><trkpt lat="43.52056051138017" lon="10.726643663543479"><ele>49.0</ele><time>2026-04-18T08:09:16Z</time></trkpt><trkpt lat="43.520450092059974" lon="10.726719003437337"><ele>49.0</ele><time>2026-04-18T08:09:18Z</time></trkpt><trkpt lat="43.52035758228449" lon="10.72679457931802"><ele>49.0</ele><time>2026-04-18T08:09:20Z</time></trkpt><trkpt lat="43.52026800498699" lon="10.726873147288309"><ele>49.5</ele><time>2026-04-18T08:09:22Z</time></trkpt><trkpt lat="43.52016158859115" lon="10.72696062980387"><ele>50.0</ele><time>2026-04-18T08:09:24Z</time></trkpt><trkpt lat="43.52006668282568" lon="10.727060207065481"><ele>50.5</ele><time>2026-04-18T08:09:26Z</time></trkpt><trkpt lat="43.519983306938265" lon="10.727154846146643"><ele>51.0</ele><time>2026-04-18T08:09:28Z</time></trkpt><trkpt lat="43.51989610890096" lon="10.72723632767939"><ele>51.0</ele><time>2026-04-18T08:09:30Z</time></trkpt><trkpt lat="43.51982615658484" lon="10.727294624180914"><ele>51.0</ele><time>2026-04-18T08:09:32Z</time></trkpt><trkpt lat="43.51976768404393" lon="10.727331562727866"><ele>51.0</ele><time>2026-04-18T08:09:56Z</time></trkpt><trkpt lat="43.51972477610899" lon="10.727431943633093"><ele>51.0</ele><time>2026-04-18T08:09:59Z</time></trkpt><trkpt lat="43.51968242181317" lon="10.727551467292402"><ele>51.0</ele><time>2026-04-18T08:10:03Z</time></trkpt><trkpt lat="43.51965401253727" lon="10.727642367023117"><ele>51.0</ele><time>2026-04-18T08:10:05Z</time></trkpt><trkpt lat="43.519636633732446" lon="10.727749629131662"><ele>51.833333333333336</ele><time>2026-04-18T08:10:10Z</time></trkpt><trkpt lat="43.51963794462899" lon="10.727849403739688"><ele>52.66666666666667</ele><time>2026-04-18T08:10:13Z</time></trkpt><trkpt lat="43.5196360723232" lon="10.727968762002941"><ele>53.5</ele><time>2026-04-18T08:10:16Z</time></trkpt><trkpt lat="43.51964149984563" lon="10.728082879928186"><ele>54.333333333333336</ele><time>2026-04-18T08:10:19Z</time></trkpt><trkpt lat="43.51963522934036" lon="10.728187895275303"><ele>55.16666666666667</ele><time>2026-04-18T08:10:21Z</time></trkpt><trkpt lat="43.51963966061635" lon="10.728300958516924"><ele>56.0</ele><time>2026-04-18T08:10:23Z</time></trkpt><trkpt lat="43.519617837130404" lon="10.728386712217597"><ele>56.00000000000001</ele><time>2026-04-18T08:10:27Z</time></trkpt><trkpt lat="43.51960662323933" lon="10.728491617650516"><ele>56.0</ele><time>2026-04-18T08:10:31Z</time></trkpt><trkpt lat="43.51958736329656" lon="10.728644690754999"><ele>56.0</ele><time>2026-04-18T08:10:33Z</time></trkpt><trkpt lat="43.51959152565351" lon="10.72873905093004"><ele>56.0</ele><time>2026-04-18T08:10:34Z</time></trkpt><trkpt lat="43.519610251745654" lon="10.728835005731836"><ele>56.00000000000001</ele><time>2026-04-18T08:10:35Z</time></trkpt><trkpt lat="43.519623267583526" lon="10.728933414590333"><ele>56.0</ele><time>2026-04-18T08:10:36Z</time></trkpt><trkpt lat="43.519633383879686" lon="10.72902615020142"><ele>56.8</ele><time>2026-04-18T08:10:37Z</time></trkpt><trkpt lat="43.51964156520586" lon="10.729163130937154"><ele>57.599999999999994</ele><time>2026-04-18T08:10:39Z</time></trkpt><trkpt lat="43.51965359292951" lon="10.729251416155146"><ele>58.4</ele><time>2026-04-18T08:10:47Z</time></trkpt><trkpt lat="43.51967180945287" lon="10.729398723731373"><ele>59.2</ele><time>2026-04-18T08:10:49Z</time></trkpt><trkpt lat="43.51969020163895" lon="10.729519768949606"><ele>60.0</ele><time>2026-04-18T08:10:51Z</time></trkpt><trkpt lat="43.51969291982078" lon="10.729643815848197"><ele>60.333333333333336</ele><time>2026-04-18T08:10:53Z</time></trkpt><trkpt lat="43.51967804268626" lon="10.729753440165771"><ele>60.66666666666667</ele><time>2026-04-18T08:10:55Z</time></trkpt><trkpt lat="43.51965975951978" lon="10.729845849399444"><ele>61.0</ele><time>2026-04-18T08:10:57Z</time></trkpt><trkpt lat="43.51962977917885" lon="10.729934031715327"><ele>61.333333333333336</ele><time>2026-04-18T08:10:59Z</time></trkpt><trkpt lat="43.519595518310624" lon="10.730028654374765"><ele>61.66666666666667</ele><time>2026-04-18T08:11:01Z</time></trkpt><trkpt lat="43.51957568573381" lon="10.730114060000032"><ele>62.0</ele><time>2026-04-18T08:11:03Z</time></trkpt><trkpt lat="43.51954475486665" lon="10.730233288629488"><ele>62.833333333333336</ele><time>2026-04-18T08:11:06Z</time></trkpt><trkpt lat="43.5195670757526" lon="10.730337473244465"><ele>63.66666666666667</ele><time>2026-04-18T08:11:08Z</time></trkpt><trkpt lat="43.519582236837486" lon="10.730432323045326"><ele>64.5</ele><time>2026-04-18T08:11:10Z</time></trkpt><trkpt lat="43.519595419664824" lon="10.730554636066767"><ele>65.33333333333333</ele><time>2026-04-18T08:11:13Z</time></trkpt><trkpt lat="43.51960540285102" lon="10.730658028681686"><ele>66.16666666666666</ele><time>2026-04-18T08:11:16Z</time></trkpt><trkpt lat="43.519614759944325" lon="10.730758335103252"><ele>67.0</ele><time>2026-04-18T08:11:19Z</time></trkpt><trkpt lat="43.519608386476534" lon="10.730860900463998"><ele>67.0</ele><time>2026-04-18T08:11:22Z</time></trkpt><trkpt lat="43.519621109917225" lon="10.730968976511182"><ele>67.0</ele><time>2026-04-18T08:11:25Z</time></trkpt><trkpt lat="43.51963857732792" lon="10.731065199951983"><ele>67.0</ele><time>2026-04-18T08:11:28Z</time></trkpt><trkpt lat="43.51965553015809" lon="10.731169505497448"><ele>67.0</ele><time>2026-04-18T08:11:32Z</time></trkpt><trkpt lat="43.51965656286393" lon="10.731260158173347"><ele>67.0</ele><time>2026-04-18T08:11:35Z</time></trkpt><trkpt lat="43.51965661088175" lon="10.731355001153394"><ele>67.0</ele><time>2026-04-18T08:11:39Z</time></trkpt><trkpt lat="43.51966320915681" lon="10.731466865620176"><ele>67.0</ele><time>2026-04-18T08:11:42Z</time></trkpt><trkpt lat="43.519684162311414" lon="10.73156089442811"><ele>69.0</ele><time>2026-04-18T08:11:45Z</time></trkpt><trkpt lat="43.519703005520725" lon="10.73165072147527"><ele>71.0</ele><time>2026-04-18T08:11:47Z</time></trkpt><trkpt lat="43.51972948971167" lon="10.7317539804548"><ele>73.0</ele><time>2026-04-18T08:11:49Z</time></trkpt><trkpt lat="43.51975954048151" lon="10.731874439074927"><ele>75.0</ele><time>2026-04-18T08:11:52Z</time></trkpt><trkpt lat="43.51978494634502" lon="10.731973430664617"><ele>77.0</ele><time>2026-04-18T08:11:54Z</time></trkpt><trkpt lat="43.51980930434921" lon="10.732062798090796"><ele>79.0</ele><time>2026-04-18T08:11:56Z</time></trkpt><trkpt lat="43.51984180226676" lon="10.732173989182062"><ele>80.00000000000001</ele><time>2026-04-18T08:11:58Z</time></trkpt><trkpt lat="43.519857558513294" lon="10.732273147028978"><ele>81.0</ele><time>2026-04-18T08:12:00Z</time></trkpt><trkpt lat="43.51986810027746" lon="10.732378152604234"><ele>82.0</ele><time>2026-04-18T08:12:02Z</time></trkpt><trkpt lat="43.51986487412255" lon="10.73248179036206"><ele>83.0</ele><time>2026-04-18T08:12:04Z</time></trkpt><trkpt lat="43.51987226849056" lon="10.732582936139018"><ele>84.0</ele><time>2026-04-18T08:12:06Z</time></trkpt><trkpt lat="43.51985718108821" lon="10.732669897898806"><ele>85.00000000000001</ele><time>2026-04-18T08:12:08Z</time></trkpt><trkpt lat="43.51983867114932" lon="10.73275939893662"><ele>86.0</ele><time>2026-04-18T08:12:10Z</time></trkpt><trkpt lat="43.51983996640455" lon="10.732887661799875"><ele>87.42857142857143</ele><time>2026-04-18T08:12:13Z</time></trkpt><trkpt lat="43.519837081497464" lon="10.732977999911933"><ele>88.85714285714286</ele><time>2026-04-18T08:12:15Z</time></trkpt><trkpt lat="43.51984968146093" lon="10.733074789230853"><ele>90.28571428571428</ele><time>2026-04-18T08:12:17Z</time></trkpt><trkpt lat="43.51985624453484" lon="10.73317243274114"><ele>91.71428571428572</ele><time>2026-04-18T08:12:19Z</time></trkpt><trkpt lat="43.519864206278235" lon="10.733278259556213"><ele>93.14285714285714</ele><time>2026-04-18T08:12:21Z</time></trkpt><trkpt lat="43.51987010442184" lon="10.733383759302262"><ele>94.57142857142857</ele><time>2026-04-18T08:12:23Z</time></trkpt><trkpt lat="43.51987096897802" lon="10.733492781623152"><ele>96.0</ele><time>2026-04-18T08:12:25Z</time></trkpt><trkpt lat="43.519857779938214" lon="10.733613014396813"><ele>97.0</ele><time>2026-04-18T08:12:27Z</time></trkpt><trkpt lat="43.519828635099145" lon="10.733731534697224"><ele>98.0</ele><time>2026-04-18T08:12:29Z</time></trkpt><trkpt lat="43.519819259442905" lon="10.733850309256034"><ele>99.0</ele><time>2026-04-18T08:12:31Z</time></trkpt><trkpt lat="43.51981866226998" lon="10.733984614923862"><ele>100.0</ele><time>2026-04-18T08:12:34Z</time></trkpt><trkpt lat="43.51981322541672" lon="10.734120542964765"><ele>101.0</ele><time>2026-04-18T08:12:36Z</time></trkpt><trkpt lat="43.51981065328712" lon="10.734264566415119"><ele>100.99999999999999</ele><time>2026-04-18T08:12:38Z</time></trkpt><trkpt lat="43.51985814574115" lon="10.734367896506297"><ele>101.0</ele><time>2026-04-18T08:12:40Z</time></trkpt><trkpt lat="43.51992312494975" lon="10.734415178564388"><ele>101.0</ele><time>2026-04-18T08:12:42Z</time></trkpt><trkpt lat="43.51999631748387" lon="10.734464746467733"><ele>101.0</ele><time>2026-04-18T08:12:45Z</time></trkpt><trkpt lat="43.52006256744988" lon="10.734508210587446"><ele>100.99999999999999</ele><time>2026-04-18T08:12:47Z</time></trkpt><trkpt lat="43.52012853028744" lon="10.734570622237975"><ele>101.0</ele><time>2026-04-18T08:12:49Z</time></trkpt><trkpt lat="43.52020561166851" lon="10.734625683455263"><ele>100.49999999999999</ele><time>2026-04-18T08:12:51Z</time></trkpt><trkpt lat="43.5202932886394" lon="10.734678545651809"><ele>100.0</ele><time>2026-04-18T08:12:53Z</time></trkpt><trkpt lat="43.520366190470845" lon="10.734731504509607"><ele>99.5</ele><time>2026-04-18T08:12:55Z</time></trkpt><trkpt lat="43.52043502885684" lon="10.734792079586027"><ele>99.0</ele><time>2026-04-18T08:12:57Z</time></trkpt><trkpt lat="43.52050653282508" lon="10.734858461166521"><ele>98.49999999999999</ele><time>2026-04-18T08:12:59Z</time></trkpt><trkpt lat="43.520581518100336" lon="10.734929304193336"><ele>98.0</ele><time>2026-04-18T08:13:01Z</time></trkpt><trkpt lat="43.52063988519566" lon="10.73499685213113"><ele>100.33333333333333</ele><time>2026-04-18T08:13:03Z</time></trkpt><trkpt lat="43.52070820205139" lon="10.735067169533881"><ele>102.66666666666666</ele><time>2026-04-18T08:13:05Z</time></trkpt><trkpt lat="43.5207434794509" lon="10.735162829462801"><ele>105.0</ele><time>2026-04-18T08:13:07Z</time></trkpt><trkpt lat="43.52075702965979" lon="10.735283157911786"><ele>107.33333333333334</ele><time>2026-04-18T08:13:10Z</time></trkpt><trkpt lat="43.52077757667144" lon="10.735414340412019"><ele>109.66666666666667</ele><time>2026-04-18T08:13:13Z</time></trkpt><trkpt lat="43.52082102749915" lon="10.735495329957882"><ele>112.0</ele><time>2026-04-18T08:13:15Z</time></trkpt><trkpt lat="43.520871649633904" lon="10.735570716023341"><ele>112.50000000000001</ele><time>2026-04-18T08:13:17Z</time></trkpt><trkpt lat="43.52092241926934" lon="10.735633919194663"><ele>113.0</ele><time>2026-04-18T08:13:19Z</time></trkpt><trkpt lat="43.52096463575234" lon="10.73569863542655"><ele>113.5</ele><time>2026-04-18T08:13:21Z</time></trkpt><trkpt lat="43.521019077748115" lon="10.735773792824366"><ele>114.0</ele><time>2026-04-18T08:13:23Z</time></trkpt><trkpt lat="43.52109104678431" lon="10.735842705082057"><ele>114.50000000000001</ele><time>2026-04-18T08:13:25Z</time></trkpt><trkpt lat="43.521166465624205" lon="10.735912964148866"><ele>115.0</ele><time>2026-04-18T08:13:27Z</time></trkpt><trkpt lat="43.5212409210224" lon="10.735971369402966"><ele>117.83333333333334</ele><time>2026-04-18T08:13:29Z</time></trkpt><trkpt lat="43.52130184037328" lon="10.7360300975936"><ele>120.66666666666667</ele><time>2026-04-18T08:13:31Z</time></trkpt><trkpt lat="43.52137183086507" lon="10.736102899107014"><ele>123.5</ele><time>2026-04-18T08:13:34Z</time></trkpt><trkpt lat="43.52144332850132" lon="10.736172580373491"><ele>126.33333333333334</ele><time>2026-04-18T08:13:36Z</time></trkpt><trkpt lat="43.521499848688094" lon="10.73623889235459"><ele>129.16666666666666</ele><time>2026-04-18T08:13:38Z</time></trkpt><trkpt lat="43.52155305568082" lon="10.736304982268368"><ele>132.0</ele><time>2026-04-18T08:13:40Z</time></trkpt><trkpt lat="43.52161749860922" lon="10.736387427708506"><ele>132.33333333333334</ele><time>2026-04-18T08:13:42Z</time></trkpt><trkpt lat="43.5216769180409" lon="10.736466690655469"><ele>132.66666666666666</ele><time>2026-04-18T08:13:44Z</time></trkpt><trkpt lat="43.52167472846983" lon="10.736638159591966"><ele>133.0</ele><time>2026-04-18T08:13:47Z</time></trkpt><trkpt lat="43.521730576567144" lon="10.736687650273879"><ele>133.33333333333331</ele><time>2026-04-18T08:13:49Z</time></trkpt><trkpt lat="43.52180350356507" lon="10.736755201703723"><ele>133.66666666666666</ele><time>2026-04-18T08:13:52Z</time></trkpt><trkpt lat="43.52186823755624" lon="10.736808343472111"><ele>134.0</ele><time>2026-04-18T08:14:02Z</time></trkpt><trkpt lat="43.521957590644185" lon="10.73692151497048"><ele>133.6</ele><time>2026-04-18T08:14:04Z</time></trkpt><trkpt lat="43.522015338672574" lon="10.736984376341562"><ele>133.2</ele><time>2026-04-18T08:14:05Z</time></trkpt><trkpt lat="43.52207793078877" lon="10.737056949920252"><ele>132.79999999999998</ele><time>2026-04-18T08:14:06Z</time></trkpt><trkpt lat="43.52213764786446" lon="10.73711914589412"><ele>132.4</ele><time>2026-04-18T08:14:08Z</time></trkpt><trkpt lat="43.5220857590492" lon="10.737321948784896"><ele>132.0</ele><time>2026-04-18T08:14:11Z</time></trkpt><trkpt lat="43.52206135547888" lon="10.737429274294781"><ele>134.0</ele><time>2026-04-18T08:14:12Z</time></trkpt><trkpt lat="43.52204263080273" lon="10.737564838166547"><ele>136.0</ele><time>2026-04-18T08:14:13Z</time></trkpt><trkpt lat="43.522001865105196" lon="10.73769220568437"><ele>138.0</ele><time>2026-04-18T08:14:14Z</time></trkpt><trkpt lat="43.52193149078473" lon="10.737789716883986"><ele>140.0</ele><time>2026-04-18T08:14:15Z</time></trkpt><trkpt lat="43.521879487268784" lon="10.737892196117908"><ele>142.0</ele><time>2026-04-18T08:14:16Z</time></trkpt><trkpt lat="43.52181944708816" lon="10.737953135250768"><ele>142.4</ele><time>2026-04-18T08:14:17Z</time></trkpt><trkpt lat="43.5217343736981" lon="10.738039732804667"><ele>142.79999999999998</ele><time>2026-04-18T08:14:19Z</time></trkpt><trkpt lat="43.52171887016081" lon="10.738210588592363"><ele>143.2</ele><time>2026-04-18T08:14:22Z</time></trkpt><trkpt lat="43.5217313017221" lon="10.738381089344585"><ele>143.6</ele><time>2026-04-18T08:14:24Z</time></trkpt><trkpt lat="43.521745930605036" lon="10.738477594579816"><ele>144.0</ele><time>2026-04-18T08:14:25Z</time></trkpt><trkpt lat="43.52176604572827" lon="10.738585236624395"><ele>144.0</ele><time>2026-04-18T08:14:26Z</time></trkpt><trkpt lat="43.521787232354114" lon="10.738686788088568"><ele>144.0</ele><time>2026-04-18T08:14:27Z</time></trkpt><trkpt lat="43.52180916308432" lon="10.73879110547169"><ele>144.0</ele><time>2026-04-18T08:14:28Z</time></trkpt><trkpt lat="43.52183277954239" lon="10.73889944766378"><ele>144.0</ele><time>2026-04-18T08:14:29Z</time></trkpt><trkpt lat="43.52186968913651" lon="10.739009764034904"><ele>144.0</ele><time>2026-04-18T08:14:30Z</time></trkpt><trkpt lat="43.521904107339964" lon="10.739106644855092"><ele>144.0</ele><time>2026-04-18T08:14:31Z</time></trkpt><trkpt lat="43.521939633342186" lon="10.739201224890492"><ele>144.0</ele><time>2026-04-18T08:14:32Z</time></trkpt><trkpt lat="43.52197112356555" lon="10.739291440258635"><ele>144.0</ele><time>2026-04-18T08:14:33Z</time></trkpt><trkpt lat="43.52200476721556" lon="10.739382284764831"><ele>144.0</ele><time>2026-04-18T08:14:34Z</time></trkpt><trkpt lat="43.522042047199264" lon="10.739477464391786"><ele>144.0</ele><time>2026-04-18T08:14:35Z</time></trkpt><trkpt lat="43.522079353221756" lon="10.739568719537594"><ele>144.0</ele><time>2026-04-18T08:14:36Z</time></trkpt><trkpt lat="43.522112960379424" lon="10.739664605097618"><ele>144.0</ele><time>2026-04-18T08:14:37Z</time></trkpt><trkpt lat="43.52214426129663" lon="10.739771018574377"><ele>146.0</ele><time>2026-04-18T08:14:38Z</time></trkpt><trkpt lat="43.52218021405276" lon="10.739871600621635"><ele>148.0</ele><time>2026-04-18T08:14:39Z</time></trkpt><trkpt lat="43.522211338811175" lon="10.739976492230054"><ele>150.0</ele><time>2026-04-18T08:14:40Z</time></trkpt><trkpt lat="43.522250642626624" lon="10.740074823617475"><ele>152.0</ele><time>2026-04-18T08:14:41Z</time></trkpt><trkpt lat="43.522294594177986" lon="10.740180959872658"><ele>154.0</ele><time>2026-04-18T08:14:42Z</time></trkpt><trkpt lat="43.52233480789237" lon="10.740273707020796"><ele>156.0</ele><time>2026-04-18T08:14:43Z</time></trkpt><trkpt lat="43.5223732351551" lon="10.740374077260864"><ele>156.66666666666666</ele><time>2026-04-18T08:14:44Z</time></trkpt><trkpt lat="43.52241704400512" lon="10.740472620827752"><ele>157.33333333333334</ele><time>2026-04-18T08:14:45Z</time></trkpt><trkpt lat="43.522461861708635" lon="10.740573403799216"><ele>158.0</ele><time>2026-04-18T08:14:46Z</time></trkpt><trkpt lat="43.52250160458072" lon="10.740675562700618"><ele>158.66666666666669</ele><time>2026-04-18T08:14:47Z</time></trkpt><trkpt lat="43.52253864949011" lon="10.740779655105257"><ele>159.33333333333334</ele><time>2026-04-18T08:14:48Z</time></trkpt><trkpt lat="43.52258990529778" lon="10.740882470461225"><ele>160.0</ele><time>2026-04-18T08:14:49Z</time></trkpt><trkpt lat="43.522641553822616" lon="10.740983457677729"><ele>159.8</ele><time>2026-04-18T08:14:50Z</time></trkpt><trkpt lat="43.52269415597605" lon="10.741095083465963"><ele>159.6</ele><time>2026-04-18T08:14:51Z</time></trkpt><trkpt lat="43.522755174721986" lon="10.741220081478941"><ele>159.4</ele><time>2026-04-18T08:14:52Z</time></trkpt><trkpt lat="43.522821383284004" lon="10.741316036847792"><ele>159.2</ele><time>2026-04-18T08:14:53Z</time></trkpt><trkpt lat="43.5228931454063" lon="10.741407304608181"><ele>159.0</ele><time>2026-04-18T08:14:54Z</time></trkpt><trkpt lat="43.522963058970355" lon="10.741474951767474"><ele>159.0</ele><time>2026-04-18T08:14:55Z</time></trkpt><trkpt lat="43.5230269389655" lon="10.741540130402903"><ele>159.0</ele><time>2026-04-18T08:14:56Z</time></trkpt><trkpt lat="43.52308573580101" lon="10.741599240731984"><ele>159.0</ele><time>2026-04-18T08:14:57Z</time></trkpt><trkpt lat="43.52314664755505" lon="10.741655940160316"><ele>159.0</ele><time>2026-04-18T08:14:58Z</time></trkpt><trkpt lat="43.523212222493505" lon="10.741715669589587"><ele>159.0</ele><time>2026-04-18T08:14:59Z</time></trkpt><trkpt lat="43.523288861266266" lon="10.741788280299195"><ele>159.0</ele><time>2026-04-18T08:15:00Z</time></trkpt><trkpt lat="43.52336500852293" lon="10.741855078390156"><ele>159.5</ele><time>2026-04-18T08:15:01Z</time></trkpt><trkpt lat="43.52343277540355" lon="10.741920511589049"><ele>160.0</ele><time>2026-04-18T08:15:02Z</time></trkpt><trkpt lat="43.523501574105985" lon="10.741978397374416"><ele>160.5</ele><time>2026-04-18T08:15:03Z</time></trkpt><trkpt lat="43.52357154534023" lon="10.742018432627502"><ele>161.0</ele><time>2026-04-18T08:15:04Z</time></trkpt><trkpt lat="43.523647208666695" lon="10.742031984122862"><ele>161.5</ele><time>2026-04-18T08:15:05Z</time></trkpt><trkpt lat="43.52372042031992" lon="10.742035719055428"><ele>162.0</ele><time>2026-04-18T08:15:06Z</time></trkpt><trkpt lat="43.523809731661196" lon="10.742024402469584"><ele>162.0</ele><time>2026-04-18T08:15:07Z</time></trkpt><trkpt lat="43.52390456874378" lon="10.74198599667924"><ele>162.0</ele><time>2026-04-18T08:15:08Z</time></trkpt><trkpt lat="43.52399019419439" lon="10.741955794973588"><ele>162.0</ele><time>2026-04-18T08:15:09Z</time></trkpt><trkpt lat="43.5240668984805" lon="10.741921634605205"><ele>162.0</ele><time>2026-04-18T08:15:10Z</time></trkpt><trkpt lat="43.52414482480932" lon="10.741893595406935"><ele>162.0</ele><time>2026-04-18T08:15:11Z</time></trkpt><trkpt lat="43.52423302938694" lon="10.741864602843666"><ele>162.0</ele><time>2026-04-18T08:15:12Z</time></trkpt><trkpt lat="43.52431017753846" lon="10.741832784032692"><ele>162.5</ele><time>2026-04-18T08:15:13Z</time></trkpt><trkpt lat="43.52439195826361" lon="10.741798993484888"><ele>163.0</ele><time>2026-04-18T08:15:14Z</time></trkpt><trkpt lat="43.52446912984322" lon="10.741769597665686"><ele>163.5</ele><time>2026-04-18T08:15:15Z</time></trkpt><trkpt lat="43.52455256445621" lon="10.741763541291188"><ele>164.0</ele><time>2026-04-18T08:15:16Z</time></trkpt><trkpt lat="43.52463828473505" lon="10.74177305412468"><ele>164.5</ele><time>2026-04-18T08:15:17Z</time></trkpt><trkpt lat="43.524722454249996" lon="10.741783968718945"><ele>165.0</ele><time>2026-04-18T08:15:18Z</time></trkpt><trkpt lat="43.52480032145702" lon="10.741797177627612"><ele>166.16666666666666</ele><time>2026-04-18T08:15:19Z</time></trkpt><trkpt lat="43.52487361538749" lon="10.741806458796038"><ele>167.33333333333334</ele><time>2026-04-18T08:15:20Z</time></trkpt><trkpt lat="43.52495279802956" lon="10.741809287721718"><ele>168.5</ele><time>2026-04-18T08:15:21Z</time></trkpt><trkpt lat="43.525038853051264" lon="10.741806043869945"><ele>169.66666666666669</ele><time>2026-04-18T08:15:22Z</time></trkpt><trkpt lat="43.525127986689974" lon="10.741796928090919"><ele>170.83333333333334</ele><time>2026-04-18T08:15:23Z</time></trkpt><trkpt lat="43.52522085532115" lon="10.741773467051969"><ele>172.0</ele><time>2026-04-18T08:15:24Z</time></trkpt><trkpt lat="43.525312498853836" lon="10.741736430419737"><ele>172.0</ele><time>2026-04-18T08:15:25Z</time></trkpt><trkpt lat="43.525389874956886" lon="10.741695321775786"><ele>172.0</ele><time>2026-04-18T08:15:26Z</time></trkpt><trkpt lat="43.52550186777839" lon="10.741621834726748"><ele>172.0</ele><time>2026-04-18T08:15:28Z</time></trkpt><trkpt lat="43.5256087899848" lon="10.741540392713121"><ele>172.0</ele><time>2026-04-18T08:15:30Z</time></trkpt><trkpt lat="43.52570276127065" lon="10.741441508133466"><ele>172.0</ele><time>2026-04-18T08:15:32Z</time></trkpt><trkpt lat="43.525778886947414" lon="10.741397839278399"><ele>171.39999999999998</ele><time>2026-04-18T08:15:34Z</time></trkpt><trkpt lat="43.52584350083241" lon="10.741315143877344"><ele>170.79999999999998</ele><time>2026-04-18T08:15:36Z</time></trkpt><trkpt lat="43.52592484281626" lon="10.741265856513794"><ele>170.2</ele><time>2026-04-18T08:15:38Z</time></trkpt><trkpt lat="43.525979818139305" lon="10.741338307502097"><ele>169.6</ele><time>2026-04-18T08:15:42Z</time></trkpt><trkpt lat="43.52604002159043" lon="10.741472063093699"><ele>169.0</ele><time>2026-04-18T08:15:44Z</time></trkpt><trkpt lat="43.526120485041226" lon="10.74157413738895"><ele>169.0</ele><time>2026-04-18T08:15:46Z</time></trkpt><trkpt lat="43.526204078726046" lon="10.741650412521142"><ele>169.0</ele><time>2026-04-18T08:15:48Z</time></trkpt><trkpt lat="43.526276526440334" lon="10.741739700900913"><ele>169.0</ele><time>2026-04-18T08:15:50Z</time></trkpt><trkpt lat="43.526367824746394" lon="10.741854524543772"><ele>169.0</ele><time>2026-04-18T08:15:52Z</time></trkpt><trkpt lat="43.526416196093756" lon="10.74191444303067"><ele>169.0</ele><time>2026-04-18T08:15:53Z</time></trkpt><trkpt lat="43.52646767322791" lon="10.741988440236753"><ele>169.33333333333334</ele><time>2026-04-18T08:15:54Z</time></trkpt><trkpt lat="43.52650656848288" lon="10.742068193140435"><ele>169.66666666666669</ele><time>2026-04-18T08:15:55Z</time></trkpt><trkpt lat="43.52656276775595" lon="10.742150037225535"><ele>170.0</ele><time>2026-04-18T08:15:56Z</time></trkpt><trkpt lat="43.5266178138491" lon="10.742231735636423"><ele>170.33333333333334</ele><time>2026-04-18T08:15:57Z</time></trkpt><trkpt lat="43.52668085506575" lon="10.742311894872346"><ele>170.66666666666666</ele><time>2026-04-18T08:15:58Z</time></trkpt><trkpt lat="43.526746016466234" lon="10.742387134938141"><ele>171.0</ele><time>2026-04-18T08:15:59Z</time></trkpt><trkpt lat="43.52680224388758" lon="10.742470423844779"><ele>171.0</ele><time>2026-04-18T08:16:00Z</time></trkpt><trkpt lat="43.52685745287406" lon="10.742563905235787"><ele>171.0</ele><time>2026-04-18T08:16:01Z</time></trkpt><trkpt lat="43.52690719823291" lon="10.742667829844171"><ele>171.0</ele><time>2026-04-18T08:16:02Z</time></trkpt><trkpt lat="43.52695817548659" lon="10.742772165870571"><ele>171.0</ele><time>2026-04-18T08:16:03Z</time></trkpt><trkpt lat="43.52699608752708" lon="10.742876114381101"><ele>171.0</ele><time>2026-04-18T08:16:04Z</time></trkpt><trkpt lat="43.52702704991812" lon="10.742980035845607"><ele>171.0</ele><time>2026-04-18T08:16:05Z</time></trkpt><trkpt lat="43.5270556958102" lon="10.743078644330696"><ele>171.0</ele><time>2026-04-18T08:16:06Z</time></trkpt><trkpt lat="43.52707984543289" lon="10.743159378185743"><ele>171.0</ele><time>2026-04-18T08:16:07Z</time></trkpt><trkpt lat="43.5271029097625" lon="10.743240421391619"><ele>171.0</ele><time>2026-04-18T08:16:08Z</time></trkpt><trkpt lat="43.52714155457277" lon="10.743390115764502"><ele>171.0</ele><time>2026-04-18T08:16:10Z</time></trkpt><trkpt lat="43.52718578828715" lon="10.743529156942685"><ele>171.0</ele><time>2026-04-18T08:16:12Z</time></trkpt><trkpt lat="43.527217319536774" lon="10.74368051180702"><ele>171.0</ele><time>2026-04-18T08:16:14Z</time></trkpt><trkpt lat="43.52725030355706" lon="10.743846020406595"><ele>171.0</ele><time>2026-04-18T08:16:16Z</time></trkpt><trkpt lat="43.52728307879782" lon="10.743972323895777"><ele>171.0</ele><time>2026-04-18T08:16:18Z</time></trkpt><trkpt lat="43.52735013494377" lon="10.744093890082132"><ele>171.0</ele><time>2026-04-18T08:16:20Z</time></trkpt><trkpt lat="43.527396394081165" lon="10.744162880870572"><ele>171.0</ele><time>2026-04-18T08:16:21Z</time></trkpt><trkpt lat="43.52748380621305" lon="10.744237631505008"><ele>171.0</ele><time>2026-04-18T08:16:23Z</time></trkpt><trkpt lat="43.52756954936319" lon="10.74428746641714"><ele>171.0</ele><time>2026-04-18T08:16:25Z</time></trkpt><trkpt lat="43.52766257067148" lon="10.744321490541962"><ele>171.0</ele><time>2026-04-18T08:16:27Z</time></trkpt><trkpt lat="43.527745030128884" lon="10.744397360035878"><ele>171.0</ele><time>2026-04-18T08:16:29Z</time></trkpt><trkpt lat="43.52783649349329" lon="10.744459185641896"><ele>171.0</ele><time>2026-04-18T08:16:31Z</time></trkpt><trkpt lat="43.52792572684875" lon="10.744523958284798"><ele>169.8</ele><time>2026-04-18T08:16:33Z</time></trkpt><trkpt lat="43.528021439401286" lon="10.744571396207785"><ele>168.60000000000002</ele><time>2026-04-18T08:16:35Z</time></trkpt><trkpt lat="43.528100329964715" lon="10.744645166652461"><ele>167.4</ele><time>2026-04-18T08:16:37Z</time></trkpt><trkpt lat="43.52818201655872" lon="10.744763986796658"><ele>166.2</ele><time>2026-04-18T08:16:39Z</time></trkpt><trkpt lat="43.52824561582637" lon="10.744895952127223"><ele>165.0</ele><time>2026-04-18T08:16:41Z</time></trkpt><trkpt lat="43.52828056563815" lon="10.745061391755593"><ele>165.00000000000003</ele><time>2026-04-18T08:16:43Z</time></trkpt><trkpt lat="43.52831748366093" lon="10.74514878683757"><ele>165.0</ele><time>2026-04-18T08:16:45Z</time></trkpt><trkpt lat="43.52836932985218" lon="10.74521723480801"><ele>165.0</ele><time>2026-04-18T08:16:49Z</time></trkpt><trkpt lat="43.52841927261119" lon="10.745319402033216"><ele>165.0</ele><time>2026-04-18T08:16:54Z</time></trkpt><trkpt lat="43.52845764543387" lon="10.745393865806111"><ele>165.0</ele><time>2026-04-18T08:16:56Z</time></trkpt><trkpt lat="43.528497938323774" lon="10.745469621081817"><ele>165.00000000000003</ele><time>2026-04-18T08:16:58Z</time></trkpt><trkpt lat="43.52852152619281" lon="10.745567287854485"><ele>165.0</ele><time>2026-04-18T08:17:00Z</time></trkpt><trkpt lat="43.52851212083712" lon="10.74569286103002"><ele>163.83333333333334</ele><time>2026-04-18T08:17:02Z</time></trkpt><trkpt lat="43.52848798621717" lon="10.745802096220146"><ele>162.66666666666666</ele><time>2026-04-18T08:17:04Z</time></trkpt><trkpt lat="43.52846675444607" lon="10.745931089013906"><ele>161.5</ele><time>2026-04-18T08:17:06Z</time></trkpt><trkpt lat="43.52845803262751" lon="10.746042503176941"><ele>160.33333333333331</ele><time>2026-04-18T08:17:08Z</time></trkpt><trkpt lat="43.52845873863752" lon="10.746160850178883"><ele>159.16666666666666</ele><time>2026-04-18T08:17:10Z</time></trkpt><trkpt lat="43.5284641485512" lon="10.746302147931724"><ele>158.0</ele><time>2026-04-18T08:17:12Z</time></trkpt><trkpt lat="43.528479783784476" lon="10.746443490155809"><ele>156.8</ele><time>2026-04-18T08:17:14Z</time></trkpt><trkpt lat="43.52850635938734" lon="10.746586822134523"><ele>155.60000000000002</ele><time>2026-04-18T08:17:16Z</time></trkpt><trkpt lat="43.5285123705228" lon="10.746745727580077"><ele>154.39999999999998</ele><time>2026-04-18T08:17:18Z</time></trkpt><trkpt lat="43.528529493415114" lon="10.746891640691175"><ele>153.2</ele><time>2026-04-18T08:17:20Z</time></trkpt><trkpt lat="43.52853652906355" lon="10.746980199156619"><ele>152.0</ele><time>2026-04-18T08:17:21Z</time></trkpt><trkpt lat="43.528564431669615" lon="10.747127986813416"><ele>152.0</ele><time>2026-04-18T08:17:23Z</time></trkpt><trkpt lat="43.52858172617472" lon="10.747268028498242"><ele>152.0</ele><time>2026-04-18T08:17:25Z</time></trkpt><trkpt lat="43.52863471962973" lon="10.747397495253495"><ele>152.0</ele><time>2026-04-18T08:17:27Z</time></trkpt><trkpt lat="43.52869889661594" lon="10.747496777092657"><ele>152.0</ele><time>2026-04-18T08:17:29Z</time></trkpt><trkpt lat="43.528780160950504" lon="10.74758928269218"><ele>152.0</ele><time>2026-04-18T08:17:31Z</time></trkpt><trkpt lat="43.52887555292332" lon="10.74764497403814"><ele>154.0</ele><time>2026-04-18T08:17:33Z</time></trkpt><trkpt lat="43.52892072370509" lon="10.747548421786005"><ele>156.0</ele><time>2026-04-18T08:17:35Z</time></trkpt><trkpt lat="43.52896801490822" lon="10.747480178026969"><ele>158.0</ele><time>2026-04-18T08:17:37Z</time></trkpt><trkpt lat="43.52902288779587" lon="10.747332015033157"><ele>160.0</ele><time>2026-04-18T08:17:39Z</time></trkpt><trkpt lat="43.529056272045736" lon="10.74719213238791"><ele>162.0</ele><time>2026-04-18T08:17:41Z</time></trkpt><trkpt lat="43.529086787334485" lon="10.747045435127353"><ele>162.0</ele><time>2026-04-18T08:17:43Z</time></trkpt><trkpt lat="43.52911754663316" lon="10.746901571941581"><ele>162.0</ele><time>2026-04-18T08:17:45Z</time></trkpt><trkpt lat="43.52915348646761" lon="10.7467334790638"><ele>162.0</ele><time>2026-04-18T08:17:47Z</time></trkpt><trkpt lat="43.52935466687299" lon="10.74672161246112"><ele>162.0</ele><time>2026-04-18T08:17:48Z</time></trkpt><trkpt lat="43.5293934402401" lon="10.74665097574554"><ele>162.8</ele><time>2026-04-18T08:17:49Z</time></trkpt><trkpt lat="43.52946935722689" lon="10.746524483409761"><ele>163.6</ele><time>2026-04-18T08:17:51Z</time></trkpt><trkpt lat="43.5295523288432" lon="10.746404558583588"><ele>164.4</ele><time>2026-04-18T08:17:53Z</time></trkpt><trkpt lat="43.52962007337163" lon="10.746302278983647"><ele>165.20000000000002</ele><time>2026-04-18T08:17:54.999Z</time></trkpt><trkpt lat="43.52962900722683" lon="10.74616739512945"><ele>166.0</ele><time>2026-04-18T08:17:56.999Z</time></trkpt><trkpt lat="43.52963900739929" lon="10.746004838673695"><ele>164.20000000000002</ele><time>2026-04-18T08:17:58.999Z</time></trkpt><trkpt lat="43.52966709327079" lon="10.745849859055108"><ele>162.4</ele><time>2026-04-18T08:18:00.999Z</time></trkpt><trkpt lat="43.5296758704573" lon="10.74576186133196"><ele>160.6</ele><time>2026-04-18T08:18:01.999Z</time></trkpt><trkpt lat="43.52968322362624" lon="10.74566244216434"><ele>158.8</ele><time>2026-04-18T08:18:02.999Z</time></trkpt><trkpt lat="43.52969861446925" lon="10.745509834008098"><ele>157.0</ele><time>2026-04-18T08:18:04.999Z</time></trkpt><trkpt lat="43.52972189316881" lon="10.745384182425811"><ele>157.0</ele><time>2026-04-18T08:18:06.999Z</time></trkpt><trkpt lat="43.529772176512466" lon="10.745294464755899"><ele>157.0</ele><time>2026-04-18T08:18:08.999Z</time></trkpt><trkpt lat="43.529877868883446" lon="10.745246120417564"><ele>157.0</ele><time>2026-04-18T08:18:10.999Z</time></trkpt><trkpt lat="43.5299893176955" lon="10.745189008036409"><ele>157.0</ele><time>2026-04-18T08:18:12.999Z</time></trkpt><trkpt lat="43.530070612623035" lon="10.745207088998011"><ele>157.0</ele><time>2026-04-18T08:18:13.999Z</time></trkpt><trkpt lat="43.530126969562865" lon="10.74516460182541"><ele>156.83333333333334</ele><time>2026-04-18T08:18:15Z</time></trkpt><trkpt lat="43.53019286670584" lon="10.745109085352503"><ele>156.66666666666669</ele><time>2026-04-18T08:18:16Z</time></trkpt><trkpt lat="43.53025451879593" lon="10.745047711907626"><ele>156.5</ele><time>2026-04-18T08:18:17Z</time></trkpt><trkpt lat="43.530307853674344" lon="10.744987920931605"><ele>156.33333333333334</ele><time>2026-04-18T08:18:18Z</time></trkpt><trkpt lat="43.53036167908973" lon="10.74491464489767"><ele>156.16666666666666</ele><time>2026-04-18T08:18:19Z</time></trkpt><trkpt lat="43.53045839480457" lon="10.744813404974177"><ele>156.0</ele><time>2026-04-18T08:18:21Z</time></trkpt><trkpt lat="43.53057332740379" lon="10.744774270059297"><ele>156.0</ele><time>2026-04-18T08:18:23Z</time></trkpt><trkpt lat="43.53063601140357" lon="10.744758169035691"><ele>156.0</ele><time>2026-04-18T08:18:24Z</time></trkpt><trkpt lat="43.53070039970924" lon="10.744730363972048"><ele>156.0</ele><time>2026-04-18T08:18:25Z</time></trkpt><trkpt lat="43.53080637662114" lon="10.744643321265949"><ele>156.0</ele><time>2026-04-18T08:18:27Z</time></trkpt><trkpt lat="43.530886426311774" lon="10.744521502448642"><ele>156.0</ele><time>2026-04-18T08:18:29Z</time></trkpt><trkpt lat="43.530916508511304" lon="10.744442101371314"><ele>156.0</ele><time>2026-04-18T08:18:30Z</time></trkpt><trkpt lat="43.53093466896325" lon="10.744341259378778"><ele>156.0</ele><time>2026-04-18T08:18:31Z</time></trkpt><trkpt lat="43.53094630091731" lon="10.744250287412266"><ele>156.0</ele><time>2026-04-18T08:18:32Z</time></trkpt><trkpt lat="43.530967266276235" lon="10.744079303884321"><ele>156.0</ele><time>2026-04-18T08:18:34Z</time></trkpt><trkpt lat="43.53097878767545" lon="10.743948632921548"><ele>156.0</ele><time>2026-04-18T08:18:36Z</time></trkpt><trkpt lat="43.53097683284276" lon="10.743798048872371"><ele>156.0</ele><time>2026-04-18T08:18:38Z</time></trkpt><trkpt lat="43.53094096548948" lon="10.743650936886514"><ele>157.2</ele><time>2026-04-18T08:18:40Z</time></trkpt><trkpt lat="43.530929033314834" lon="10.743502450535695"><ele>158.39999999999998</ele><time>2026-04-18T08:18:42Z</time></trkpt><trkpt lat="43.53089741697397" lon="10.743354777571065"><ele>159.6</ele><time>2026-04-18T08:18:44Z</time></trkpt><trkpt lat="43.53086997882632" lon="10.743190426892278"><ele>160.79999999999998</ele><time>2026-04-18T08:18:46Z</time></trkpt><trkpt lat="43.5308576055886" lon="10.74309771599356"><ele>162.0</ele><time>2026-04-18T08:18:47Z</time></trkpt><trkpt lat="43.53084585278291" lon="10.74300280793787"><ele>162.0</ele><time>2026-04-18T08:18:48Z</time></trkpt><trkpt lat="43.53085530118871" lon="10.742838843189642"><ele>162.0</ele><time>2026-04-18T08:18:50Z</time></trkpt><trkpt lat="43.53089855923791" lon="10.74270289498609"><ele>162.0</ele><time>2026-04-18T08:18:52Z</time></trkpt><trkpt lat="43.530940870873785" lon="10.742597511185524"><ele>162.0</ele><time>2026-04-18T08:18:54Z</time></trkpt><trkpt lat="43.53092426739355" lon="10.742447630569552"><ele>162.0</ele><time>2026-04-18T08:18:56Z</time></trkpt><trkpt lat="43.530916245145576" lon="10.742349215348167"><ele>162.66666666666666</ele><time>2026-04-18T08:18:57Z</time></trkpt><trkpt lat="43.530896122783375" lon="10.742263735374927"><ele>163.33333333333334</ele><time>2026-04-18T08:18:58Z</time></trkpt><trkpt lat="43.53086405583727" lon="10.742174780607296"><ele>164.0</ele><time>2026-04-18T08:18:59Z</time></trkpt><trkpt lat="43.53084188782512" lon="10.742092315030488"><ele>164.66666666666669</ele><time>2026-04-18T08:19:00Z</time></trkpt><trkpt lat="43.53081649917957" lon="10.742011541120055"><ele>165.33333333333334</ele><time>2026-04-18T08:19:01Z</time></trkpt><trkpt lat="43.53078727865618" lon="10.741860552306338"><ele>166.0</ele><time>2026-04-18T08:19:03Z</time></trkpt><trkpt lat="43.53074751457768" lon="10.741749230948205"><ele>166.5</ele><time>2026-04-18T08:19:05Z</time></trkpt><trkpt lat="43.530732754187135" lon="10.741629157704008"><ele>167.0</ele><time>2026-04-18T08:19:07Z</time></trkpt><trkpt lat="43.530709470842176" lon="10.74148747452733"><ele>167.5</ele><time>2026-04-18T08:19:09Z</time></trkpt><trkpt lat="43.53071041212002" lon="10.74132591311131"><ele>168.0</ele><time>2026-04-18T08:19:11Z</time></trkpt><trkpt lat="43.53075983428524" lon="10.741265025906499"><ele>168.5</ele><time>2026-04-18T08:19:12Z</time></trkpt><trkpt lat="43.53081537861585" lon="10.741213588903284"><ele>169.0</ele><time>2026-04-18T08:19:13Z</time></trkpt><trkpt lat="43.53085438837303" lon="10.741127572323816"><ele>168.79999999999998</ele><time>2026-04-18T08:19:14Z</time></trkpt><trkpt lat="43.53088785470431" lon="10.74104475945778"><ele>168.6</ele><time>2026-04-18T08:19:15Z</time></trkpt><trkpt lat="43.53091949372593" lon="10.740959183256685"><ele>168.4</ele><time>2026-04-18T08:19:16Z</time></trkpt><trkpt lat="43.530963237199614" lon="10.740796971297307"><ele>168.2</ele><time>2026-04-18T08:19:18Z</time></trkpt><trkpt lat="43.531002222590864" lon="10.740637704895606"><ele>168.0</ele><time>2026-04-18T08:19:20Z</time></trkpt><trkpt lat="43.53103005885088" lon="10.740506716481828"><ele>168.0</ele><time>2026-04-18T08:19:22Z</time></trkpt><trkpt lat="43.531069650587554" lon="10.740379395847317"><ele>168.0</ele><time>2026-04-18T08:19:24Z</time></trkpt><trkpt lat="43.53110410456726" lon="10.740261105713866"><ele>168.0</ele><time>2026-04-18T08:19:26Z</time></trkpt><trkpt lat="43.53112809391305" lon="10.74013791504016"><ele>168.0</ele><time>2026-04-18T08:19:28Z</time></trkpt><trkpt lat="43.53117604519955" lon="10.740010942705164"><ele>168.0</ele><time>2026-04-18T08:19:30Z</time></trkpt><trkpt lat="43.53118312012675" lon="10.739905444559092"><ele>164.6</ele><time>2026-04-18T08:19:32Z</time></trkpt><trkpt lat="43.53123846097868" lon="10.739809862076617"><ele>161.20000000000002</ele><time>2026-04-18T08:19:34Z</time></trkpt><trkpt lat="43.53130013301593" lon="10.73969405428438"><ele>157.8</ele><time>2026-04-18T08:19:36Z</time></trkpt><trkpt lat="43.531343332099226" lon="10.739628776710298"><ele>154.4</ele><time>2026-04-18T08:19:37Z</time></trkpt><trkpt lat="43.53141075977308" lon="10.7395398389834"><ele>151.0</ele><time>2026-04-18T08:19:39Z</time></trkpt><trkpt lat="43.531482003803866" lon="10.739439037579338"><ele>152.4</ele><time>2026-04-18T08:19:41Z</time></trkpt><trkpt lat="43.53155016968361" lon="10.73936412530215"><ele>153.8</ele><time>2026-04-18T08:19:43Z</time></trkpt><trkpt lat="43.53163553488693" lon="10.739269955617717"><ele>155.20000000000002</ele><time>2026-04-18T08:19:45Z</time></trkpt><trkpt lat="43.531713387196476" lon="10.739180819582012"><ele>156.6</ele><time>2026-04-18T08:19:47Z</time></trkpt><trkpt lat="43.53180912543137" lon="10.739080346426622"><ele>158.0</ele><time>2026-04-18T08:19:49Z</time></trkpt><trkpt lat="43.5318623165458" lon="10.739023460214895"><ele>158.0</ele><time>2026-04-18T08:19:50Z</time></trkpt><trkpt lat="43.5319566960111" lon="10.738945417324295"><ele>158.0</ele><time>2026-04-18T08:19:52Z</time></trkpt><trkpt lat="43.53205806201791" lon="10.738866253717188"><ele>158.0</ele><time>2026-04-18T08:19:54Z</time></trkpt><trkpt lat="43.53216546514623" lon="10.738790271993757"><ele>158.0</ele><time>2026-04-18T08:19:56Z</time></trkpt><trkpt lat="43.532274037808136" lon="10.738711388042463"><ele>156.8</ele><time>2026-04-18T08:19:58Z</time></trkpt><trkpt lat="43.532332873964904" lon="10.738680405307216"><ele>155.60000000000002</ele><time>2026-04-18T08:19:59Z</time></trkpt><trkpt lat="43.53244063001155" lon="10.73861267874775"><ele>154.39999999999998</ele><time>2026-04-18T08:20:00.999Z</time></trkpt><trkpt lat="43.53254263499901" lon="10.738539612776744"><ele>153.2</ele><time>2026-04-18T08:20:02.999Z</time></trkpt><trkpt lat="43.53264254977372" lon="10.73845424297021"><ele>152.0</ele><time>2026-04-18T08:20:04.999Z</time></trkpt><trkpt lat="43.5327472354491" lon="10.738376837363084"><ele>152.0</ele><time>2026-04-18T08:20:06.999Z</time></trkpt><trkpt lat="43.53280207086587" lon="10.738331056803709"><ele>152.0</ele><time>2026-04-18T08:20:07.999Z</time></trkpt><trkpt lat="43.532916573945286" lon="10.738261162072197"><ele>152.0</ele><time>2026-04-18T08:20:09.999Z</time></trkpt><trkpt lat="43.532959557298305" lon="10.738193973210395"><ele>152.0</ele><time>2026-04-18T08:20:10.999Z</time></trkpt><trkpt lat="43.53305650295963" lon="10.738091362907195"><ele>152.0</ele><time>2026-04-18T08:20:12.999Z</time></trkpt><trkpt lat="43.53314969568119" lon="10.738011455333341"><ele>151.2</ele><time>2026-04-18T08:20:15Z</time></trkpt><trkpt lat="43.5332348251695" lon="10.737922057761656"><ele>150.39999999999998</ele><time>2026-04-18T08:20:17Z</time></trkpt><trkpt lat="43.53332158367879" lon="10.73783103671508"><ele>149.60000000000002</ele><time>2026-04-18T08:20:19Z</time></trkpt><trkpt lat="43.53341257326302" lon="10.737759301724383"><ele>148.8</ele><time>2026-04-18T08:20:21Z</time></trkpt><trkpt lat="43.5334967509299" lon="10.737712263747165"><ele>148.0</ele><time>2026-04-18T08:20:24Z</time></trkpt><trkpt lat="43.53358182634031" lon="10.737683964248754"><ele>147.8</ele><time>2026-04-18T08:20:27Z</time></trkpt><trkpt lat="43.53366773079704" lon="10.737649455758245"><ele>147.60000000000002</ele><time>2026-04-18T08:20:29Z</time></trkpt><trkpt lat="43.53377163464082" lon="10.737610097765556"><ele>147.39999999999998</ele><time>2026-04-18T08:20:31Z</time></trkpt><trkpt lat="43.53387989777756" lon="10.737560535613504"><ele>147.2</ele><time>2026-04-18T08:20:33Z</time></trkpt><trkpt lat="43.53396874630519" lon="10.737514905618553"><ele>147.0</ele><time>2026-04-18T08:20:35Z</time></trkpt><trkpt lat="43.53404855518343" lon="10.737473327090875"><ele>146.5</ele><time>2026-04-18T08:20:37Z</time></trkpt><trkpt lat="43.53412618196027" lon="10.73743779550312"><ele>146.0</ele><time>2026-04-18T08:20:39Z</time></trkpt><trkpt lat="43.53420326975358" lon="10.737400483721514"><ele>145.5</ele><time>2026-04-18T08:20:41Z</time></trkpt><trkpt lat="43.534284395857924" lon="10.73735633441291"><ele>145.0</ele><time>2026-04-18T08:20:43Z</time></trkpt><trkpt lat="43.534370949214924" lon="10.737307227016982"><ele>144.5</ele><time>2026-04-18T08:20:45Z</time></trkpt><trkpt lat="43.53446321121126" lon="10.737246059807294"><ele>144.0</ele><time>2026-04-18T08:20:47Z</time></trkpt><trkpt lat="43.53456616154802" lon="10.737190721706291"><ele>143.0</ele><time>2026-04-18T08:20:49Z</time></trkpt><trkpt lat="43.534665063480915" lon="10.737138225801521"><ele>142.0</ele><time>2026-04-18T08:20:51Z</time></trkpt><trkpt lat="43.53477358554671" lon="10.73710090805503"><ele>141.0</ele><time>2026-04-18T08:20:53Z</time></trkpt><trkpt lat="43.53487538618939" lon="10.737041806406848"><ele>140.0</ele><time>2026-04-18T08:20:55Z</time></trkpt><trkpt lat="43.53497055093772" lon="10.736973154442486"><ele>139.0</ele><time>2026-04-18T08:20:57Z</time></trkpt><trkpt lat="43.535050922025576" lon="10.736902611287398"><ele>138.8</ele><time>2026-04-18T08:20:59Z</time></trkpt><trkpt lat="43.53512617475508" lon="10.73683965008397"><ele>138.60000000000002</ele><time>2026-04-18T08:21:01Z</time></trkpt><trkpt lat="43.53520318876801" lon="10.736764814146406"><ele>138.4</ele><time>2026-04-18T08:21:03Z</time></trkpt><trkpt lat="43.53528800284539" lon="10.736678459863636"><ele>138.20000000000002</ele><time>2026-04-18T08:21:05Z</time></trkpt><trkpt lat="43.53537725500646" lon="10.7365941695506"><ele>138.0</ele><time>2026-04-18T08:21:07Z</time></trkpt><trkpt lat="43.535468401425774" lon="10.736508539750535"><ele>137.66666666666666</ele><time>2026-04-18T08:21:09Z</time></trkpt><trkpt lat="43.53554772087932" lon="10.736441967703717"><ele>137.33333333333334</ele><time>2026-04-18T08:21:11Z</time></trkpt><trkpt lat="43.53562870043038" lon="10.736371156051671"><ele>137.0</ele><time>2026-04-18T08:21:13Z</time></trkpt><trkpt lat="43.53570096879215" lon="10.736299708830805"><ele>136.66666666666669</ele><time>2026-04-18T08:21:15Z</time></trkpt><trkpt lat="43.535768980989374" lon="10.73622718227469"><ele>136.33333333333334</ele><time>2026-04-18T08:21:17Z</time></trkpt><trkpt lat="43.53582179170109" lon="10.73617349746347"><ele>136.0</ele><time>2026-04-18T08:21:19Z</time></trkpt><trkpt lat="43.5358833809296" lon="10.73612110148927"><ele>135.99999999999997</ele><time>2026-04-18T08:21:21Z</time></trkpt><trkpt lat="43.53593974181678" lon="10.736071249208821"><ele>136.0</ele><time>2026-04-18T08:21:23Z</time></trkpt><trkpt lat="43.536006432071254" lon="10.736016145169852"><ele>136.0</ele><time>2026-04-18T08:21:27Z</time></trkpt><trkpt lat="43.53607303705725" lon="10.735952560915244"><ele>136.0</ele><time>2026-04-18T08:21:31Z</time></trkpt><trkpt lat="43.53613371169923" lon="10.735907277998534"><ele>136.0</ele><time>2026-04-18T08:21:34Z</time></trkpt><trkpt lat="43.536188815041655" lon="10.735836502437477"><ele>135.99999999999997</ele><time>2026-04-18T08:21:37Z</time></trkpt><trkpt lat="43.53625080854595" lon="10.735779080735252"><ele>136.0</ele><time>2026-04-18T08:21:39.001Z</time></trkpt><trkpt lat="43.53631618901733" lon="10.735718978731573"><ele>134.33333333333334</ele><time>2026-04-18T08:21:42.001Z</time></trkpt><trkpt lat="43.53638224112156" lon="10.735657253331727"><ele>132.66666666666669</ele><time>2026-04-18T08:21:45.001Z</time></trkpt><trkpt lat="43.53643634371998" lon="10.735605405731647"><ele>131.0</ele><time>2026-04-18T08:21:47.001Z</time></trkpt><trkpt lat="43.536502851263414" lon="10.735558069485686"><ele>129.33333333333334</ele><time>2026-04-18T08:21:49.001Z</time></trkpt><trkpt lat="43.53656778963307" lon="10.735497093150967"><ele>127.66666666666667</ele><time>2026-04-18T08:21:51.001Z</time></trkpt><trkpt lat="43.536635413680656" lon="10.735438491292468"><ele>126.0</ele><time>2026-04-18T08:21:53.001Z</time></trkpt><trkpt lat="43.53671258761109" lon="10.735361442493234"><ele>126.0</ele><time>2026-04-18T08:21:55.001Z</time></trkpt><trkpt lat="43.53678818883233" lon="10.735277868959276"><ele>126.0</ele><time>2026-04-18T08:21:57.001Z</time></trkpt><trkpt lat="43.53686442420344" lon="10.735208111273057"><ele>126.0</ele><time>2026-04-18T08:21:59.001Z</time></trkpt><trkpt lat="43.53692820689459" lon="10.735147928129532"><ele>126.0</ele><time>2026-04-18T08:22:01.001Z</time></trkpt><trkpt lat="43.536997301349096" lon="10.735082874668612"><ele>126.0</ele><time>2026-04-18T08:22:03.001Z</time></trkpt><trkpt lat="43.53706917560508" lon="10.735004710607406"><ele>126.0</ele><time>2026-04-18T08:22:05.001Z</time></trkpt><trkpt lat="43.53714855763636" lon="10.73492607966767"><ele>125.19999999999999</ele><time>2026-04-18T08:22:07Z</time></trkpt><trkpt lat="43.537233120407095" lon="10.73485499204234"><ele>124.39999999999999</ele><time>2026-04-18T08:22:09Z</time></trkpt><trkpt lat="43.53730986645016" lon="10.734785561077382"><ele>123.6</ele><time>2026-04-18T08:22:12Z</time></trkpt><trkpt lat="43.53737435659756" lon="10.734704220537042"><ele>122.8</ele><time>2026-04-18T08:22:14Z</time></trkpt><trkpt lat="43.537466902706754" lon="10.734601918392318"><ele>122.0</ele><time>2026-04-18T08:22:16Z</time></trkpt><trkpt lat="43.53752542047665" lon="10.734563501339322"><ele>121.99999999999999</ele><time>2026-04-18T08:22:17Z</time></trkpt><trkpt lat="43.537572882864275" lon="10.73450536127172"><ele>122.0</ele><time>2026-04-18T08:22:18Z</time></trkpt><trkpt lat="43.53762261196184" lon="10.734432799629364"><ele>121.99999999999999</ele><time>2026-04-18T08:22:19Z</time></trkpt><trkpt lat="43.53766801117255" lon="10.734361275785202"><ele>121.99999999999999</ele><time>2026-04-18T08:22:20Z</time></trkpt><trkpt lat="43.53771025362827" lon="10.734282005697327"><ele>122.0</ele><time>2026-04-18T08:22:21Z</time></trkpt><trkpt lat="43.53774089912743" lon="10.734198014831524"><ele>121.99999999999999</ele><time>2026-04-18T08:22:22Z</time></trkpt><trkpt lat="43.53776061472673" lon="10.734108855853888"><ele>121.99999999999999</ele><time>2026-04-18T08:22:23Z</time></trkpt><trkpt lat="43.53777761572331" lon="10.734016608296125"><ele>120.7142857142857</ele><time>2026-04-18T08:22:24Z</time></trkpt><trkpt lat="43.53779030368214" lon="10.733925182390635"><ele>119.42857142857142</ele><time>2026-04-18T08:22:25Z</time></trkpt><trkpt lat="43.53780433036437" lon="10.733830940071012"><ele>118.14285714285714</ele><time>2026-04-18T08:22:26Z</time></trkpt><trkpt lat="43.53781976502782" lon="10.733738530570777"><ele>116.85714285714285</ele><time>2026-04-18T08:22:27Z</time></trkpt><trkpt lat="43.537831668028346" lon="10.733642179995442"><ele>115.57142857142856</ele><time>2026-04-18T08:22:28Z</time></trkpt><trkpt lat="43.537832647655534" lon="10.733545331399798"><ele>114.28571428571429</ele><time>2026-04-18T08:22:29Z</time></trkpt><trkpt lat="43.53782093229835" lon="10.733456318252223"><ele>113.0</ele><time>2026-04-18T08:22:30Z</time></trkpt><trkpt lat="43.537811816018284" lon="10.733365640036514"><ele>111.66666666666666</ele><time>2026-04-18T08:22:31Z</time></trkpt><trkpt lat="43.53780303297582" lon="10.733274345162577"><ele>110.33333333333333</ele><time>2026-04-18T08:22:32Z</time></trkpt><trkpt lat="43.53777716474812" lon="10.733102852777128"><ele>109.0</ele><time>2026-04-18T08:22:34Z</time></trkpt><trkpt lat="43.53776549762518" lon="10.733016944467444"><ele>107.66666666666666</ele><time>2026-04-18T08:22:35Z</time></trkpt><trkpt lat="43.537760855377215" lon="10.73292988654522"><ele>106.33333333333333</ele><time>2026-04-18T08:22:36Z</time></trkpt><trkpt lat="43.53775535079933" lon="10.732819691121918"><ele>105.0</ele><time>2026-04-18T08:22:38Z</time></trkpt><trkpt lat="43.53775330892942" lon="10.732716366938527"><ele>103.8</ele><time>2026-04-18T08:22:40Z</time></trkpt><trkpt lat="43.537747881111535" lon="10.732591392157117"><ele>102.6</ele><time>2026-04-18T08:22:42Z</time></trkpt><trkpt lat="43.537756244119144" lon="10.732441196225393"><ele>101.4</ele><time>2026-04-18T08:22:44Z</time></trkpt><trkpt lat="43.53777976832264" lon="10.732282452930901"><ele>100.2</ele><time>2026-04-18T08:22:46Z</time></trkpt><trkpt lat="43.537821892840306" lon="10.732134128824612"><ele>99.0</ele><time>2026-04-18T08:22:48Z</time></trkpt><trkpt lat="43.53788176659191" lon="10.732005759528343"><ele>99.80000000000001</ele><time>2026-04-18T08:22:50Z</time></trkpt><trkpt lat="43.53794914232476" lon="10.731868544086762"><ele>100.60000000000001</ele><time>2026-04-18T08:22:52Z</time></trkpt><trkpt lat="43.538019095749256" lon="10.731734576191222"><ele>101.4</ele><time>2026-04-18T08:22:54Z</time></trkpt><trkpt lat="43.538103564395" lon="10.731664501396128"><ele>102.2</ele><time>2026-04-18T08:22:56Z</time></trkpt><trkpt lat="43.538188053492846" lon="10.731593758136762"><ele>103.0</ele><time>2026-04-18T08:22:58Z</time></trkpt><trkpt lat="43.53828084011145" lon="10.73153972217506"><ele>103.0</ele><time>2026-04-18T08:23:00Z</time></trkpt><trkpt lat="43.53838029733126" lon="10.73147764723646"><ele>103.0</ele><time>2026-04-18T08:23:02Z</time></trkpt><trkpt lat="43.53847690542775" lon="10.731385631864853"><ele>103.0</ele><time>2026-04-18T08:23:04Z</time></trkpt><trkpt lat="43.53853404769736" lon="10.731340903970322"><ele>103.0</ele><time>2026-04-18T08:23:05Z</time></trkpt><trkpt lat="43.53863814729352" lon="10.731283235518129"><ele>103.0</ele><time>2026-04-18T08:23:07Z</time></trkpt><trkpt lat="43.538695001989794" lon="10.731237242135549"><ele>103.60000000000001</ele><time>2026-04-18T08:23:08Z</time></trkpt><trkpt lat="43.53878922732393" lon="10.731159388615819"><ele>104.2</ele><time>2026-04-18T08:23:10Z</time></trkpt><trkpt lat="43.53888889662351" lon="10.73107374079337"><ele>104.8</ele><time>2026-04-18T08:23:12.001Z</time></trkpt><trkpt lat="43.5389432407143" lon="10.73101907597099"><ele>105.4</ele><time>2026-04-18T08:23:13.001Z</time></trkpt><trkpt lat="43.53904226233404" lon="10.730908631124388"><ele>106.0</ele><time>2026-04-18T08:23:15.001Z</time></trkpt><trkpt lat="43.53914120421944" lon="10.730805161241161"><ele>103.66666666666667</ele><time>2026-04-18T08:23:17.001Z</time></trkpt><trkpt lat="43.53918489268832" lon="10.730733937089788"><ele>101.33333333333334</ele><time>2026-04-18T08:23:18.001Z</time></trkpt><trkpt lat="43.53921112268492" lon="10.730653829687066"><ele>99.0</ele><time>2026-04-18T08:23:19.001Z</time></trkpt><trkpt lat="43.53928721741851" lon="10.730530507844387"><ele>96.66666666666667</ele><time>2026-04-18T08:23:21.001Z</time></trkpt><trkpt lat="43.53935975623809" lon="10.730392986797225"><ele>94.33333333333334</ele><time>2026-04-18T08:23:23.001Z</time></trkpt><trkpt lat="43.53940162241723" lon="10.730319558808523"><ele>92.0</ele><time>2026-04-18T08:23:24.001Z</time></trkpt><trkpt lat="43.53945704095516" lon="10.730216398210521"><ele>89.8</ele><time>2026-04-18T08:23:26.001Z</time></trkpt><trkpt lat="43.53953244062239" lon="10.730097756220342"><ele>87.6</ele><time>2026-04-18T08:23:28.001Z</time></trkpt><trkpt lat="43.5395760982387" lon="10.730033143086988"><ele>85.39999999999999</ele><time>2026-04-18T08:23:29.001Z</time></trkpt><trkpt lat="43.53966622285958" lon="10.729930049861952"><ele>83.19999999999999</ele><time>2026-04-18T08:23:31.001Z</time></trkpt><trkpt lat="43.539778625456904" lon="10.729842325861533"><ele>81.0</ele><time>2026-04-18T08:23:33.001Z</time></trkpt><trkpt lat="43.53984308105551" lon="10.729807556833158"><ele>80.5</ele><time>2026-04-18T08:23:34.001Z</time></trkpt><trkpt lat="43.53996439366816" lon="10.729752099734622"><ele>80.0</ele><time>2026-04-18T08:23:36.001Z</time></trkpt><trkpt lat="43.540026352548495" lon="10.729710089907602"><ele>79.5</ele><time>2026-04-18T08:23:37.001Z</time></trkpt><trkpt lat="43.54008901472558" lon="10.72967281603326"><ele>79.0</ele><time>2026-04-18T08:23:38.001Z</time></trkpt><trkpt lat="43.540150310460184" lon="10.729628901805974"><ele>78.5</ele><time>2026-04-18T08:23:39.001Z</time></trkpt><trkpt lat="43.540213918553675" lon="10.729598036859308"><ele>78.0</ele><time>2026-04-18T08:23:40.001Z</time></trkpt><trkpt lat="43.540302032318" lon="10.729546691898179"><ele>78.0</ele><time>2026-04-18T08:23:42.001Z</time></trkpt><trkpt lat="43.540387917959556" lon="10.729515296044008"><ele>78.0</ele><time>2026-04-18T08:23:45.001Z</time></trkpt><trkpt lat="43.540452904206084" lon="10.729510531118597"><ele>78.0</ele><time>2026-04-18T08:23:47.001Z</time></trkpt><trkpt lat="43.540519608966925" lon="10.7294919865536"><ele>78.0</ele><time>2026-04-18T08:23:49.001Z</time></trkpt><trkpt lat="43.54060472724565" lon="10.729485016060318"><ele>78.0</ele><time>2026-04-18T08:23:52.001Z</time></trkpt><trkpt lat="43.54067685052367" lon="10.729466086702901"><ele>78.0</ele><time>2026-04-18T08:23:54.001Z</time></trkpt><trkpt lat="43.540758134054734" lon="10.729423232558355"><ele>76.33333333333333</ele><time>2026-04-18T08:23:56.001Z</time></trkpt><trkpt lat="43.54084237778415" lon="10.729334415834787"><ele>74.66666666666667</ele><time>2026-04-18T08:23:58.001Z</time></trkpt><trkpt lat="43.54088421976334" lon="10.729254667772755"><ele>73.0</ele><time>2026-04-18T08:24:00.001Z</time></trkpt><trkpt lat="43.54091806960008" lon="10.72916635372593"><ele>71.33333333333334</ele><time>2026-04-18T08:24:03.001Z</time></trkpt><trkpt lat="43.54095318371056" lon="10.729091301975732"><ele>69.66666666666667</ele><time>2026-04-18T08:24:05.001Z</time></trkpt><trkpt lat="43.540985522991825" lon="10.728979441552813"><ele>68.0</ele><time>2026-04-18T08:24:09.001Z</time></trkpt><trkpt lat="43.54101288676746" lon="10.728900040063117"><ele>68.0</ele><time>2026-04-18T08:24:11.001Z</time></trkpt><trkpt lat="43.541040713601255" lon="10.728780239278137"><ele>68.0</ele><time>2026-04-18T08:24:14Z</time></trkpt><trkpt lat="43.54107231609163" lon="10.728680139196547"><ele>68.0</ele><time>2026-04-18T08:24:16Z</time></trkpt><trkpt lat="43.5410956409401" lon="10.728568373599987"><ele>68.0</ele><time>2026-04-18T08:24:18Z</time></trkpt><trkpt lat="43.54113567697264" lon="10.728433956642258"><ele>68.0</ele><time>2026-04-18T08:24:20Z</time></trkpt><trkpt lat="43.541161283983385" lon="10.728351314952159"><ele>68.0</ele><time>2026-04-18T08:24:21Z</time></trkpt><trkpt lat="43.54120777002836" lon="10.72824394755068"><ele>66.5</ele><time>2026-04-18T08:24:22Z</time></trkpt><trkpt lat="43.541240623483446" lon="10.728151249711184"><ele>65.0</ele><time>2026-04-18T08:24:23Z</time></trkpt><trkpt lat="43.54127267647153" lon="10.728050074356926"><ele>63.5</ele><time>2026-04-18T08:24:24Z</time></trkpt><trkpt lat="43.54130792035822" lon="10.72795772069242"><ele>62.0</ele><time>2026-04-18T08:24:25Z</time></trkpt><trkpt lat="43.54132940341772" lon="10.72785956721151"><ele>60.50000000000001</ele><time>2026-04-18T08:24:26Z</time></trkpt><trkpt lat="43.54134879551197" lon="10.727751263726706"><ele>59.0</ele><time>2026-04-18T08:24:27Z</time></trkpt><trkpt lat="43.54136121546534" lon="10.727643042330762"><ele>58.6</ele><time>2026-04-18T08:24:28Z</time></trkpt><trkpt lat="43.54136808814175" lon="10.72754993002346"><ele>58.2</ele><time>2026-04-18T08:24:29Z</time></trkpt><trkpt lat="43.5413844030988" lon="10.727402078609472"><ele>57.800000000000004</ele><time>2026-04-18T08:24:31Z</time></trkpt><trkpt lat="43.54142091967375" lon="10.727267420432485"><ele>57.400000000000006</ele><time>2026-04-18T08:24:33Z</time></trkpt><trkpt lat="43.541485638765444" lon="10.727131445434496"><ele>57.0</ele><time>2026-04-18T08:24:35Z</time></trkpt><trkpt lat="43.541538424220406" lon="10.727082361145019"><ele>57.0</ele><time>2026-04-18T08:24:36Z</time></trkpt><trkpt lat="43.54161036235583" lon="10.726976672995827"><ele>57.0</ele><time>2026-04-18T08:24:38Z</time></trkpt><trkpt lat="43.541685243388805" lon="10.726865684248288"><ele>57.0</ele><time>2026-04-18T08:24:40Z</time></trkpt><trkpt lat="43.54175035942805" lon="10.726735557825105"><ele>57.0</ele><time>2026-04-18T08:24:42Z</time></trkpt><trkpt lat="43.54182554639875" lon="10.726633473639039"><ele>57.0</ele><time>2026-04-18T08:24:44Z</time></trkpt><trkpt lat="43.54189285040612" lon="10.726529003600652"><ele>57.400000000000006</ele><time>2026-04-18T08:24:46Z</time></trkpt><trkpt lat="43.54196304124496" lon="10.726420651690615"><ele>57.800000000000004</ele><time>2026-04-18T08:24:48Z</time></trkpt><trkpt lat="43.54203730456959" lon="10.726303647895152"><ele>58.2</ele><time>2026-04-18T08:24:50Z</time></trkpt><trkpt lat="43.542080445065636" lon="10.726238441335314"><ele>58.6</ele><time>2026-04-18T08:24:51Z</time></trkpt><trkpt lat="43.542154908676714" lon="10.726116375946622"><ele>59.0</ele><time>2026-04-18T08:24:53Z</time></trkpt><trkpt lat="43.54222594244506" lon="10.726010182686199"><ele>60.16666666666667</ele><time>2026-04-18T08:24:55Z</time></trkpt><trkpt lat="43.54229727835446" lon="10.72590789782715"><ele>61.333333333333336</ele><time>2026-04-18T08:24:57Z</time></trkpt><trkpt lat="43.54236382926407" lon="10.725814127351551"><ele>62.5</ele><time>2026-04-18T08:24:59Z</time></trkpt><trkpt lat="43.54243469106485" lon="10.72572513174542"><ele>63.66666666666667</ele><time>2026-04-18T08:25:01Z</time></trkpt><trkpt lat="43.542501879835235" lon="10.725670783691825"><ele>64.83333333333333</ele><time>2026-04-18T08:25:03.001Z</time></trkpt><trkpt lat="43.542579191351926" lon="10.725672237755752"><ele>66.0</ele><time>2026-04-18T08:25:05.001Z</time></trkpt><trkpt lat="43.54268397733494" lon="10.725690009774379"><ele>66.0</ele><time>2026-04-18T08:25:07.001Z</time></trkpt><trkpt lat="43.54278635647761" lon="10.725638605249593"><ele>66.0</ele><time>2026-04-18T08:25:09.001Z</time></trkpt><trkpt lat="43.54286800143696" lon="10.725532871916267"><ele>66.0</ele><time>2026-04-18T08:25:11.001Z</time></trkpt><trkpt lat="43.54289543215379" lon="10.72538809357678"><ele>66.0</ele><time>2026-04-18T08:25:13.001Z</time></trkpt><trkpt lat="43.54291277855167" lon="10.725285547207983"><ele>66.0</ele><time>2026-04-18T08:25:15.001Z</time></trkpt><trkpt lat="43.54293104679345" lon="10.725187523672341"><ele>71.8</ele><time>2026-04-18T08:25:17.001Z</time></trkpt><trkpt lat="43.54294684738867" lon="10.725086979985443"><ele>77.6</ele><time>2026-04-18T08:25:19.001Z</time></trkpt><trkpt lat="43.542965993724984" lon="10.724957234796154"><ele>83.4</ele><time>2026-04-18T08:25:21.001Z</time></trkpt><trkpt lat="43.542984666354954" lon="10.724797969076532"><ele>89.2</ele><time>2026-04-18T08:25:23.001Z</time></trkpt><trkpt lat="43.54301706590245" lon="10.724645347506662"><ele>95.0</ele><time>2026-04-18T08:25:25.001Z</time></trkpt><trkpt lat="43.5430918924898" lon="10.724544732932477"><ele>95.0</ele><time>2026-04-18T08:25:27.001Z</time></trkpt><trkpt lat="43.543178565547485" lon="10.724496231759002"><ele>95.0</ele><time>2026-04-18T08:25:29.001Z</time></trkpt><trkpt lat="43.54329404645193" lon="10.724448064481209"><ele>95.0</ele><time>2026-04-18T08:25:31.001Z</time></trkpt><trkpt lat="43.5433962771255" lon="10.724371300522519"><ele>95.0</ele><time>2026-04-18T08:25:33.001Z</time></trkpt><trkpt lat="43.543477997015934" lon="10.724247430151193"><ele>95.6</ele><time>2026-04-18T08:25:35.001Z</time></trkpt><trkpt lat="43.54350263844837" lon="10.724160975518968"><ele>96.2</ele><time>2026-04-18T08:25:36.001Z</time></trkpt><trkpt lat="43.54354679908779" lon="10.724012800568683"><ele>96.80000000000001</ele><time>2026-04-18T08:25:38.001Z</time></trkpt><trkpt lat="43.54361066225368" lon="10.72389226634249"><ele>97.4</ele><time>2026-04-18T08:25:40.001Z</time></trkpt><trkpt lat="43.54368394698907" lon="10.723780085783519"><ele>98.0</ele><time>2026-04-18T08:25:42.001Z</time></trkpt><trkpt lat="43.54375780887587" lon="10.723674284751144"><ele>101.80000000000001</ele><time>2026-04-18T08:25:44.001Z</time></trkpt><trkpt lat="43.54382966734251" lon="10.723562993645146"><ele>105.6</ele><time>2026-04-18T08:25:46.001Z</time></trkpt><trkpt lat="43.54390831622746" lon="10.723469431450082"><ele>109.39999999999999</ele><time>2026-04-18T08:25:48.001Z</time></trkpt><trkpt lat="43.54397928385602" lon="10.723358080160436"><ele>113.19999999999999</ele><time>2026-04-18T08:25:50.001Z</time></trkpt><trkpt lat="43.54402179999546" lon="10.72326796175663"><ele>117.0</ele><time>2026-04-18T08:25:52.001Z</time></trkpt><trkpt lat="43.54404838424767" lon="10.723176821087682"><ele>117.0</ele><time>2026-04-18T08:25:54.001Z</time></trkpt><trkpt lat="43.54406897185709" lon="10.723061211680664"><ele>116.99999999999999</ele><time>2026-04-18T08:25:56.001Z</time></trkpt><trkpt lat="43.54409040286552" lon="10.722948042916908"><ele>116.99999999999999</ele><time>2026-04-18T08:25:58.001Z</time></trkpt><trkpt lat="43.54412984632436" lon="10.722835502833293"><ele>117.0</ele><time>2026-04-18T08:26:01.001Z</time></trkpt><trkpt lat="43.54417972700028" lon="10.72271087918728"><ele>117.0</ele><time>2026-04-18T08:26:04.001Z</time></trkpt><trkpt lat="43.54422933449317" lon="10.722572571953382"><ele>118.0</ele><time>2026-04-18T08:26:06.001Z</time></trkpt><trkpt lat="43.54426516232574" lon="10.722496078517796"><ele>118.99999999999999</ele><time>2026-04-18T08:26:07.001Z</time></trkpt><trkpt lat="43.54433470630424" lon="10.722360890951792"><ele>119.99999999999999</ele><time>2026-04-18T08:26:09.001Z</time></trkpt><trkpt lat="43.54439885730946" lon="10.722233251782944"><ele>121.0</ele><time>2026-04-18T08:26:11.001Z</time></trkpt><trkpt lat="43.54445857594339" lon="10.72211771911482"><ele>122.0</ele><time>2026-04-18T08:26:13.001Z</time></trkpt><trkpt lat="43.54453408087141" lon="10.72198751641415"><ele>121.66666666666666</ele><time>2026-04-18T08:26:15.001Z</time></trkpt><trkpt lat="43.544587677273704" lon="10.721924378257501"><ele>121.33333333333333</ele><time>2026-04-18T08:26:16.001Z</time></trkpt><trkpt lat="43.544645455718" lon="10.72186112173461"><ele>121.0</ele><time>2026-04-18T08:26:17.001Z</time></trkpt><trkpt lat="43.54470462957623" lon="10.721804253585564"><ele>120.66666666666666</ele><time>2026-04-18T08:26:18.001Z</time></trkpt><trkpt lat="43.54476671380137" lon="10.721747703985653"><ele>120.33333333333333</ele><time>2026-04-18T08:26:19Z</time></trkpt><trkpt lat="43.54483464321716" lon="10.721696118010813"><ele>120.0</ele><time>2026-04-18T08:26:20Z</time></trkpt><trkpt lat="43.54490997276865" lon="10.721650366863724"><ele>120.0</ele><time>2026-04-18T08:26:21Z</time></trkpt><trkpt lat="43.54498640538832" lon="10.721611058664674"><ele>120.0</ele><time>2026-04-18T08:26:22Z</time></trkpt><trkpt lat="43.5450598145971" lon="10.721582061055932"><ele>120.0</ele><time>2026-04-18T08:26:23Z</time></trkpt><trkpt lat="43.54513227236584" lon="10.72155376676949"><ele>120.0</ele><time>2026-04-18T08:26:24Z</time></trkpt><trkpt lat="43.54519834764374" lon="10.721510276586375"><ele>120.0</ele><time>2026-04-18T08:26:25Z</time></trkpt><trkpt lat="43.54526642953015" lon="10.721469052284537"><ele>120.0</ele><time>2026-04-18T08:26:26Z</time></trkpt><trkpt lat="43.54533648564778" lon="10.721435356312226"><ele>119.5</ele><time>2026-04-18T08:26:27Z</time></trkpt><trkpt lat="43.545403335661824" lon="10.721402358731394"><ele>119.0</ele><time>2026-04-18T08:26:28Z</time></trkpt><trkpt lat="43.54547691134179" lon="10.721361859076522"><ele>118.5</ele><time>2026-04-18T08:26:29Z</time></trkpt><trkpt lat="43.54554176537066" lon="10.721335409428713"><ele>118.0</ele><time>2026-04-18T08:26:30Z</time></trkpt><trkpt lat="43.54559964706266" lon="10.721301210120105"><ele>117.5</ele><time>2026-04-18T08:26:31Z</time></trkpt><trkpt lat="43.54569579799652" lon="10.72125652139228"><ele>117.0</ele><time>2026-04-18T08:26:33Z</time></trkpt><trkpt lat="43.54577588021652" lon="10.721212492238484"><ele>117.0</ele><time>2026-04-18T08:26:36Z</time></trkpt><trkpt lat="43.54581592394428" lon="10.721139452683676"><ele>116.99999999999999</ele><time>2026-04-18T08:26:38Z</time></trkpt><trkpt lat="43.54575829330371" lon="10.721031129306422"><ele>116.99999999999999</ele><time>2026-04-18T08:26:40Z</time></trkpt><trkpt lat="43.54565485993951" lon="10.720926867090027"><ele>117.0</ele><time>2026-04-18T08:26:42Z</time></trkpt><trkpt lat="43.5455907436315" lon="10.72086694633504"><ele>117.0</ele><time>2026-04-18T08:26:43Z</time></trkpt><trkpt lat="43.54552250957677" lon="10.720803832633157"><ele>117.66666666666667</ele><time>2026-04-18T08:26:44Z</time></trkpt><trkpt lat="43.54544373109509" lon="10.720769311571503"><ele>118.33333333333334</ele><time>2026-04-18T08:26:45Z</time></trkpt><trkpt lat="43.54536545599854" lon="10.720739367792511"><ele>119.0</ele><time>2026-04-18T08:26:46Z</time></trkpt><trkpt lat="43.54528276072097" lon="10.720721074680043"><ele>119.66666666666667</ele><time>2026-04-18T08:26:47Z</time></trkpt><trkpt lat="43.54521077023785" lon="10.720696033197955"><ele>120.33333333333334</ele><time>2026-04-18T08:26:48Z</time></trkpt><trkpt lat="43.54509002090561" lon="10.720641891950459"><ele>121.0</ele><time>2026-04-18T08:26:50Z</time></trkpt><trkpt lat="43.5450339931387" lon="10.720547658699429"><ele>121.00000000000001</ele><time>2026-04-18T08:26:52Z</time></trkpt><trkpt lat="43.54502875111596" lon="10.720415101714186"><ele>121.0</ele><time>2026-04-18T08:26:54Z</time></trkpt><trkpt lat="43.54505873615125" lon="10.720334434354523"><ele>121.0</ele><time>2026-04-18T08:26:55Z</time></trkpt><trkpt lat="43.545100845230095" lon="10.720253669119607"><ele>121.0</ele><time>2026-04-18T08:26:56Z</time></trkpt><trkpt lat="43.54515955543406" lon="10.720165528249275"><ele>121.00000000000001</ele><time>2026-04-18T08:26:57Z</time></trkpt><trkpt lat="43.54522249143455" lon="10.72007844293369"><ele>121.0</ele><time>2026-04-18T08:26:58Z</time></trkpt><trkpt lat="43.54529494670991" lon="10.719975784319548"><ele>120.6</ele><time>2026-04-18T08:26:59Z</time></trkpt><trkpt lat="43.54537337400344" lon="10.719896387002471"><ele>120.19999999999999</ele><time>2026-04-18T08:27:00Z</time></trkpt><trkpt lat="43.545460779290465" lon="10.719825601754408"><ele>119.80000000000001</ele><time>2026-04-18T08:27:01Z</time></trkpt><trkpt lat="43.54555303439423" lon="10.71977863134299"><ele>119.4</ele><time>2026-04-18T08:27:02Z</time></trkpt><trkpt lat="43.545645253261824" lon="10.719738039969945"><ele>119.0</ele><time>2026-04-18T08:27:03Z</time></trkpt><trkpt lat="43.54573303333268" lon="10.71970864499001"><ele>118.99999999999999</ele><time>2026-04-18T08:27:04Z</time></trkpt><trkpt lat="43.5458144938576" lon="10.719679182765022"><ele>119.0</ele><time>2026-04-18T08:27:05Z</time></trkpt><trkpt lat="43.54589776044962" lon="10.719646810287584"><ele>119.0</ele><time>2026-04-18T08:27:06Z</time></trkpt><trkpt lat="43.545973245815674" lon="10.71961182623919"><ele>119.0</ele><time>2026-04-18T08:27:07Z</time></trkpt><trkpt lat="43.546053326169485" lon="10.71957972475505"><ele>118.99999999999999</ele><time>2026-04-18T08:27:08Z</time></trkpt><trkpt lat="43.5461270471106" lon="10.719541785623555"><ele>119.0</ele><time>2026-04-18T08:27:09Z</time></trkpt><trkpt lat="43.54619915599285" lon="10.719509054550983"><ele>119.66666666666666</ele><time>2026-04-18T08:27:10Z</time></trkpt><trkpt lat="43.54627131657267" lon="10.719479087521615"><ele>120.33333333333333</ele><time>2026-04-18T08:27:11Z</time></trkpt><trkpt lat="43.54633290585527" lon="10.719441337427822"><ele>121.0</ele><time>2026-04-18T08:27:12Z</time></trkpt><trkpt lat="43.546393037672885" lon="10.719406602631281"><ele>121.66666666666666</ele><time>2026-04-18T08:27:13Z</time></trkpt><trkpt lat="43.54650128665862" lon="10.719380392681941"><ele>122.33333333333333</ele><time>2026-04-18T08:27:15.001Z</time></trkpt><trkpt lat="43.5466046090383" lon="10.719372256978607"><ele>123.0</ele><time>2026-04-18T08:27:17.001Z</time></trkpt><trkpt lat="43.546725386092575" lon="10.719390051211018"><ele>120.83333333333333</ele><time>2026-04-18T08:27:19.001Z</time></trkpt><trkpt lat="43.54684079684762" lon="10.719389859985773"><ele>118.66666666666666</ele><time>2026-04-18T08:27:21.001Z</time></trkpt><trkpt lat="43.546907677976215" lon="10.719391828269554"><ele>116.5</ele><time>2026-04-18T08:27:22.001Z</time></trkpt><trkpt lat="43.54697423080521" lon="10.719389503186916"><ele>114.33333333333333</ele><time>2026-04-18T08:27:23.001Z</time></trkpt><trkpt lat="43.547044474821085" lon="10.719376519004209"><ele>112.16666666666666</ele><time>2026-04-18T08:27:24.001Z</time></trkpt><trkpt lat="43.54711999583017" lon="10.719365628906232"><ele>110.0</ele><time>2026-04-18T08:27:25.001Z</time></trkpt><trkpt lat="43.54719793596333" lon="10.71935562599948"><ele>109.66666666666666</ele><time>2026-04-18T08:27:26.001Z</time></trkpt><trkpt lat="43.54728140041653" lon="10.719357323134737"><ele>109.33333333333333</ele><time>2026-04-18T08:27:27.001Z</time></trkpt><trkpt lat="43.54736122441304" lon="10.719363060165218"><ele>109.0</ele><time>2026-04-18T08:27:28.001Z</time></trkpt><trkpt lat="43.54744253418445" lon="10.719369223718381"><ele>108.66666666666666</ele><time>2026-04-18T08:27:29.001Z</time></trkpt><trkpt lat="43.54752322021316" lon="10.719369236466935"><ele>108.33333333333333</ele><time>2026-04-18T08:27:30.001Z</time></trkpt><trkpt lat="43.5476115184683" lon="10.719359593313396"><ele>108.0</ele><time>2026-04-18T08:27:31.001Z</time></trkpt><trkpt lat="43.54769398801851" lon="10.719352643396379"><ele>108.0</ele><time>2026-04-18T08:27:32.001Z</time></trkpt><trkpt lat="43.547781028486305" lon="10.719346870857791"><ele>108.00000000000001</ele><time>2026-04-18T08:27:33.001Z</time></trkpt><trkpt lat="43.547871951882456" lon="10.71935268241122"><ele>108.00000000000001</ele><time>2026-04-18T08:27:34.001Z</time></trkpt><trkpt lat="43.547960990405976" lon="10.719349152736509"><ele>108.0</ele><time>2026-04-18T08:27:35.001Z</time></trkpt><trkpt lat="43.548053421560226" lon="10.719347564824846"><ele>108.0</ele><time>2026-04-18T08:27:36.001Z</time></trkpt><trkpt lat="43.548146813820274" lon="10.719345852927685"><ele>109.2</ele><time>2026-04-18T08:27:37.001Z</time></trkpt><trkpt lat="43.54824366787303" lon="10.719339052278942"><ele>110.4</ele><time>2026-04-18T08:27:38.001Z</time></trkpt><trkpt lat="43.54834439825661" lon="10.71933518874807"><ele>111.60000000000001</ele><time>2026-04-18T08:27:39.001Z</time></trkpt><trkpt lat="43.54844393590217" lon="10.719335688129368"><ele>112.80000000000001</ele><time>2026-04-18T08:27:40.001Z</time></trkpt><trkpt lat="43.548545460946215" lon="10.719332563539792"><ele>114.0</ele><time>2026-04-18T08:27:41.001Z</time></trkpt><trkpt lat="43.54864998743487" lon="10.71933228498719"><ele>114.4</ele><time>2026-04-18T08:27:42.001Z</time></trkpt><trkpt lat="43.548756752540385" lon="10.719340012819844"><ele>114.80000000000001</ele><time>2026-04-18T08:27:43.001Z</time></trkpt><trkpt lat="43.54885914229178" lon="10.719358237512354"><ele>115.19999999999999</ele><time>2026-04-18T08:27:44.001Z</time></trkpt><trkpt lat="43.54895873342723" lon="10.719388364978414"><ele>115.6</ele><time>2026-04-18T08:27:45.001Z</time></trkpt><trkpt lat="43.549049803589696" lon="10.719424533714468"><ele>116.0</ele><time>2026-04-18T08:27:46.001Z</time></trkpt><trkpt lat="43.54913794671002" lon="10.719467406385602"><ele>119.14285714285717</ele><time>2026-04-18T08:27:47.001Z</time></trkpt><trkpt lat="43.5492083291238" lon="10.719506984140521"><ele>122.28571428571429</ele><time>2026-04-18T08:27:48.001Z</time></trkpt><trkpt lat="43.54926320069442" lon="10.719562903356849"><ele>125.42857142857144</ele><time>2026-04-18T08:27:49.001Z</time></trkpt><trkpt lat="43.549313846714426" lon="10.719632563106627"><ele>128.57142857142858</ele><time>2026-04-18T08:27:50.001Z</time></trkpt><trkpt lat="43.54936194689352" lon="10.719697092675563"><ele>131.71428571428572</ele><time>2026-04-18T08:27:51.001Z</time></trkpt><trkpt lat="43.54940518497339" lon="10.719770422733202"><ele>134.85714285714286</ele><time>2026-04-18T08:27:52.001Z</time></trkpt><trkpt lat="43.549445936975" lon="10.719844015709084"><ele>138.0</ele><time>2026-04-18T08:27:53.001Z</time></trkpt><trkpt lat="43.54948515514936" lon="10.719917565903947"><ele>138.0</ele><time>2026-04-18T08:27:54.001Z</time></trkpt><trkpt lat="43.549523933808324" lon="10.719993486061574"><ele>138.0</ele><time>2026-04-18T08:27:55.001Z</time></trkpt><trkpt lat="43.549558700753046" lon="10.720068554585959"><ele>138.0</ele><time>2026-04-18T08:27:56.001Z</time></trkpt><trkpt lat="43.5495957970516" lon="10.720148491477488"><ele>138.0</ele><time>2026-04-18T08:27:57.001Z</time></trkpt><trkpt lat="43.54963928782052" lon="10.720229027640546"><ele>138.0</ele><time>2026-04-18T08:27:58.001Z</time></trkpt><trkpt lat="43.549664744785986" lon="10.7203219862506"><ele>138.0</ele><time>2026-04-18T08:27:59.001Z</time></trkpt><trkpt lat="43.549668979138495" lon="10.720421246652656"><ele>138.0</ele><time>2026-04-18T08:28:00.001Z</time></trkpt><trkpt lat="43.549664832736575" lon="10.720519637614686"><ele>137.33333333333334</ele><time>2026-04-18T08:28:01.001Z</time></trkpt><trkpt lat="43.54966481859067" lon="10.720633936837825"><ele>136.66666666666666</ele><time>2026-04-18T08:28:02.001Z</time></trkpt><trkpt lat="43.54965503707703" lon="10.720737847657732"><ele>136.0</ele><time>2026-04-18T08:28:03.001Z</time></trkpt><trkpt lat="43.549646248920105" lon="10.720854587778467"><ele>135.33333333333331</ele><time>2026-04-18T08:28:04.001Z</time></trkpt><trkpt lat="43.54963678970527" lon="10.720957080604194"><ele>134.66666666666666</ele><time>2026-04-18T08:28:05.001Z</time></trkpt><trkpt lat="43.54963166574658" lon="10.721062223800097"><ele>134.0</ele><time>2026-04-18T08:28:06.001Z</time></trkpt><trkpt lat="43.54962380888174" lon="10.721157298716243"><ele>134.0</ele><time>2026-04-18T08:28:07.001Z</time></trkpt><trkpt lat="43.54957924366557" lon="10.721219055461669"><ele>134.0</ele><time>2026-04-18T08:28:08.001Z</time></trkpt><trkpt lat="43.54952958093517" lon="10.721361649289465"><ele>134.0</ele><time>2026-04-18T08:28:10.001Z</time></trkpt><trkpt lat="43.54953540446737" lon="10.721523297724353"><ele>134.0</ele><time>2026-04-18T08:28:12.001Z</time></trkpt><trkpt lat="43.5495850326089" lon="10.72166942130804"><ele>134.0</ele><time>2026-04-18T08:28:14.001Z</time></trkpt><trkpt lat="43.54964739124662" lon="10.72181562356925"><ele>134.0</ele><time>2026-04-18T08:28:16.001Z</time></trkpt><trkpt lat="43.549669634667744" lon="10.721898410604284"><ele>134.0</ele><time>2026-04-18T08:28:17.001Z</time></trkpt><trkpt lat="43.54973329750014" lon="10.722037801870911"><ele>134.0</ele><time>2026-04-18T08:28:19.001Z</time></trkpt><trkpt lat="43.54977210983968" lon="10.722177509513225"><ele>134.0</ele><time>2026-04-18T08:28:21.001Z</time></trkpt><trkpt lat="43.549815216835164" lon="10.722314040330028"><ele>134.0</ele><time>2026-04-18T08:28:23.001Z</time></trkpt><trkpt lat="43.549826271668216" lon="10.72247637145884"><ele>133.83333333333331</ele><time>2026-04-18T08:28:25Z</time></trkpt><trkpt lat="43.549826961376645" lon="10.722575214754372"><ele>133.66666666666666</ele><time>2026-04-18T08:28:26Z</time></trkpt><trkpt lat="43.54981158685169" lon="10.722679965334729"><ele>133.5</ele><time>2026-04-18T08:28:27Z</time></trkpt><trkpt lat="43.549804989493374" lon="10.722788638754894"><ele>133.33333333333334</ele><time>2026-04-18T08:28:28Z</time></trkpt><trkpt lat="43.54982375482626" lon="10.722900631044268"><ele>133.16666666666669</ele><time>2026-04-18T08:28:29Z</time></trkpt><trkpt lat="43.54986471408095" lon="10.723017815740917"><ele>133.0</ele><time>2026-04-18T08:28:30Z</time></trkpt><trkpt lat="43.54991147061557" lon="10.723133401299295"><ele>133.0</ele><time>2026-04-18T08:28:31Z</time></trkpt><trkpt lat="43.549951081060236" lon="10.723248851777752"><ele>133.0</ele><time>2026-04-18T08:28:32Z</time></trkpt><trkpt lat="43.54997236279841" lon="10.723373936876387"><ele>133.0</ele><time>2026-04-18T08:28:33Z</time></trkpt><trkpt lat="43.54998454597107" lon="10.723498601123318"><ele>133.0</ele><time>2026-04-18T08:28:34Z</time></trkpt><trkpt lat="43.549997677715105" lon="10.723615216387913"><ele>133.0</ele><time>2026-04-18T08:28:35Z</time></trkpt><trkpt lat="43.55002492154779" lon="10.72372410897479"><ele>133.0</ele><time>2026-04-18T08:28:36Z</time></trkpt><trkpt lat="43.55006009255938" lon="10.72383683891342"><ele>131.83333333333334</ele><time>2026-04-18T08:28:37Z</time></trkpt><trkpt lat="43.5501132720284" lon="10.723940692180788"><ele>130.66666666666669</ele><time>2026-04-18T08:28:38Z</time></trkpt><trkpt lat="43.550170771048336" lon="10.724036035108417"><ele>129.5</ele><time>2026-04-18T08:28:39Z</time></trkpt><trkpt lat="43.55022105082693" lon="10.72412759820809"><ele>128.33333333333334</ele><time>2026-04-18T08:28:40Z</time></trkpt><trkpt lat="43.55028837327116" lon="10.724202113859116"><ele>127.16666666666667</ele><time>2026-04-18T08:28:41Z</time></trkpt><trkpt lat="43.5503710718062" lon="10.724248999077428"><ele>126.0</ele><time>2026-04-18T08:28:42Z</time></trkpt><trkpt lat="43.55046610024981" lon="10.724272907652983"><ele>126.0</ele><time>2026-04-18T08:28:43Z</time></trkpt><trkpt lat="43.55057399682948" lon="10.724285323811774"><ele>126.0</ele><time>2026-04-18T08:28:44Z</time></trkpt><trkpt lat="43.55069088399555" lon="10.724295643822524"><ele>126.0</ele><time>2026-04-18T08:28:45Z</time></trkpt><trkpt lat="43.550810102960135" lon="10.724310051851123"><ele>126.0</ele><time>2026-04-18T08:28:46Z</time></trkpt><trkpt lat="43.55092554264781" lon="10.724315017165956"><ele>126.0</ele><time>2026-04-18T08:28:47Z</time></trkpt><trkpt lat="43.55103709340678" lon="10.724346784138524"><ele>126.0</ele><time>2026-04-18T08:28:48Z</time></trkpt><trkpt lat="43.551146164820814" lon="10.724405735694907"><ele>126.0</ele><time>2026-04-18T08:28:49Z</time></trkpt><trkpt lat="43.55126898929382" lon="10.724426102448053"><ele>126.0</ele><time>2026-04-18T08:28:50Z</time></trkpt><trkpt lat="43.551382526514715" lon="10.724479587166112"><ele>119.75</ele><time>2026-04-18T08:28:51Z</time></trkpt><trkpt lat="43.551501339033095" lon="10.724511465471348"><ele>113.5</ele><time>2026-04-18T08:28:52Z</time></trkpt><trkpt lat="43.55160824412278" lon="10.724574454375434"><ele>107.25</ele><time>2026-04-18T08:28:53Z</time></trkpt><trkpt lat="43.55171092295204" lon="10.72458419807806"><ele>101.0</ele><time>2026-04-18T08:28:54Z</time></trkpt><trkpt lat="43.551825097157675" lon="10.72462019976997"><ele>101.0</ele><time>2026-04-18T08:28:55Z</time></trkpt><trkpt lat="43.55193949702912" lon="10.724625044105508"><ele>101.0</ele><time>2026-04-18T08:28:56Z</time></trkpt><trkpt lat="43.552055469135695" lon="10.724595603435821"><ele>101.0</ele><time>2026-04-18T08:28:57Z</time></trkpt><trkpt lat="43.55216891679938" lon="10.724580934710445"><ele>101.0</ele><time>2026-04-18T08:28:58Z</time></trkpt><trkpt lat="43.55229095329287" lon="10.724560599168711"><ele>99.5</ele><time>2026-04-18T08:28:59Z</time></trkpt><trkpt lat="43.55241277169069" lon="10.724551646930264"><ele>98.0</ele><time>2026-04-18T08:29:00Z</time></trkpt><trkpt lat="43.55254197562218" lon="10.724561192990034"><ele>96.5</ele><time>2026-04-18T08:29:01Z</time></trkpt><trkpt lat="43.55267617281632" lon="10.724590003406236"><ele>95.0</ele><time>2026-04-18T08:29:02Z</time></trkpt><trkpt lat="43.55281541781306" lon="10.7246179963517"><ele>92.0</ele><time>2026-04-18T08:29:03Z</time></trkpt><trkpt lat="43.55296517930715" lon="10.724651301624073"><ele>89.0</ele><time>2026-04-18T08:29:04Z</time></trkpt><trkpt lat="43.55312618674762" lon="10.724682468783007"><ele>86.0</ele><time>2026-04-18T08:29:05Z</time></trkpt><trkpt lat="43.55329366554769" lon="10.724727121261102"><ele>86.0</ele><time>2026-04-18T08:29:06Z</time></trkpt><trkpt lat="43.55346514338022" lon="10.724742489547904"><ele>86.0</ele><time>2026-04-18T08:29:07Z</time></trkpt><trkpt lat="43.55363957266628" lon="10.724782532997919"><ele>86.0</ele><time>2026-04-18T08:29:08Z</time></trkpt><trkpt lat="43.55381291303114" lon="10.724821921737968"><ele>84.33333333333334</ele><time>2026-04-18T08:29:09Z</time></trkpt><trkpt lat="43.55398682613155" lon="10.724863157571109"><ele>82.66666666666667</ele><time>2026-04-18T08:29:10Z</time></trkpt><trkpt lat="43.55416588301843" lon="10.724891658981418"><ele>81.0</ele><time>2026-04-18T08:29:11Z</time></trkpt><trkpt lat="43.55434953043708" lon="10.72490045430881"><ele>81.0</ele><time>2026-04-18T08:29:12Z</time></trkpt><trkpt lat="43.55452966728615" lon="10.724902477120361"><ele>81.0</ele><time>2026-04-18T08:29:13Z</time></trkpt><trkpt lat="43.554718740819354" lon="10.724884988488398"><ele>81.0</ele><time>2026-04-18T08:29:14Z</time></trkpt><trkpt lat="43.554896986340005" lon="10.724880510323347"><ele>78.0</ele><time>2026-04-18T08:29:15Z</time></trkpt><trkpt lat="43.55507593687743" lon="10.724881879033182"><ele>75.0</ele><time>2026-04-18T08:29:16Z</time></trkpt><trkpt lat="43.555254249458976" lon="10.7248940120762"><ele>72.0</ele><time>2026-04-18T08:29:17Z</time></trkpt><trkpt lat="43.5554281949814" lon="10.724894461198561"><ele>70.33333333333333</ele><time>2026-04-18T08:29:18Z</time></trkpt><trkpt lat="43.55559728878424" lon="10.724894897791225"><ele>68.66666666666666</ele><time>2026-04-18T08:29:19Z</time></trkpt><trkpt lat="43.55577217441411" lon="10.724880231730577"><ele>67.0</ele><time>2026-04-18T08:29:20Z</time></trkpt><trkpt lat="43.555940318528634" lon="10.724932057814325"><ele>67.0</ele><time>2026-04-18T08:29:21Z</time></trkpt><trkpt lat="43.55610776164205" lon="10.724987611095665"><ele>67.0</ele><time>2026-04-18T08:29:22Z</time></trkpt><trkpt lat="43.55627277625267" lon="10.725046615970054"><ele>67.0</ele><time>2026-04-18T08:29:23Z</time></trkpt><trkpt lat="43.55644305734324" lon="10.72510914249888"><ele>66.33333333333333</ele><time>2026-04-18T08:29:24Z</time></trkpt><trkpt lat="43.55661566952198" lon="10.725127351492311"><ele>65.66666666666667</ele><time>2026-04-18T08:29:25Z</time></trkpt><trkpt lat="43.556777177894894" lon="10.725193224728654"><ele>65.0</ele><time>2026-04-18T08:29:26Z</time></trkpt><trkpt lat="43.556934146001346" lon="10.725259700772165"><ele>60.0</ele><time>2026-04-18T08:29:27Z</time></trkpt><trkpt lat="43.557088142520925" lon="10.725345791148243"><ele>55.0</ele><time>2026-04-18T08:29:28Z</time></trkpt><trkpt lat="43.55722265483427" lon="10.72548069257375"><ele>50.0</ele><time>2026-04-18T08:29:29Z</time></trkpt><trkpt lat="43.5573484852455" lon="10.725612322205835"><ele>50.0</ele><time>2026-04-18T08:29:30Z</time></trkpt><trkpt lat="43.55746118380629" lon="10.725761632472922"><ele>50.0</ele><time>2026-04-18T08:29:31Z</time></trkpt><trkpt lat="43.55757041459214" lon="10.7259249231284"><ele>50.0</ele><time>2026-04-18T08:29:32Z</time></trkpt><trkpt lat="43.55767502915465" lon="10.726091580990458"><ele>49.333333333333336</ele><time>2026-04-18T08:29:33Z</time></trkpt><trkpt lat="43.55778067636362" lon="10.726259606026307"><ele>48.66666666666667</ele><time>2026-04-18T08:29:34Z</time></trkpt><trkpt lat="43.55788468748562" lon="10.72642502887276"><ele>48.0</ele><time>2026-04-18T08:29:35Z</time></trkpt><trkpt lat="43.558000156474115" lon="10.726575667292412"><ele>47.666666666666664</ele><time>2026-04-18T08:29:36Z</time></trkpt><trkpt lat="43.558098159933486" lon="10.726748628443362"><ele>47.33333333333333</ele><time>2026-04-18T08:29:37.001Z</time></trkpt><trkpt lat="43.55820193581476" lon="10.726917796220965"><ele>47.0</ele><time>2026-04-18T08:29:38.001Z</time></trkpt><trkpt lat="43.55830900341231" lon="10.727080881737924"><ele>47.0</ele><time>2026-04-18T08:29:39.001Z</time></trkpt><trkpt lat="43.55841296279289" lon="10.72724826460491"><ele>47.0</ele><time>2026-04-18T08:29:40.001Z</time></trkpt><trkpt lat="43.55851654438841" lon="10.727414773152418"><ele>47.0</ele><time>2026-04-18T08:29:41.001Z</time></trkpt><trkpt lat="43.55862162152428" lon="10.727578334339073"><ele>47.0</ele><time>2026-04-18T08:29:42.001Z</time></trkpt><trkpt lat="43.558724473957405" lon="10.72774291884432"><ele>47.0</ele><time>2026-04-18T08:29:43.001Z</time></trkpt><trkpt lat="43.55882742827122" lon="10.727909895204983"><ele>47.0</ele><time>2026-04-18T08:29:44.001Z</time></trkpt><trkpt lat="43.55893194295246" lon="10.72808121594476"><ele>47.0</ele><time>2026-04-18T08:29:45.001Z</time></trkpt><trkpt lat="43.55904678665543" lon="10.728243886258571"><ele>47.0</ele><time>2026-04-18T08:29:46.001Z</time></trkpt><trkpt lat="43.55913982405578" lon="10.728414097710468"><ele>47.0</ele><time>2026-04-18T08:29:47.001Z</time></trkpt><trkpt lat="43.55923972503146" lon="10.728576019906846"><ele>47.666666666666664</ele><time>2026-04-18T08:29:48.001Z</time></trkpt><trkpt lat="43.559344226194426" lon="10.72873663547825"><ele>48.33333333333333</ele><time>2026-04-18T08:29:49.001Z</time></trkpt><trkpt lat="43.5594441819317" lon="10.728898294731293"><ele>49.0</ele><time>2026-04-18T08:29:50.001Z</time></trkpt><trkpt lat="43.55954471288539" lon="10.729062879866024"><ele>47.666666666666664</ele><time>2026-04-18T08:29:51.001Z</time></trkpt><trkpt lat="43.55964793227028" lon="10.729228588005144"><ele>46.33333333333333</ele><time>2026-04-18T08:29:52.001Z</time></trkpt><trkpt lat="43.559748490523255" lon="10.729392969038749"><ele>45.0</ele><time>2026-04-18T08:29:53.001Z</time></trkpt><trkpt lat="43.55985101561877" lon="10.729552742475613"><ele>45.0</ele><time>2026-04-18T08:29:54.001Z</time></trkpt><trkpt lat="43.55995087247446" lon="10.729708699804437"><ele>45.0</ele><time>2026-04-18T08:29:55.001Z</time></trkpt><trkpt lat="43.5600472465705" lon="10.729863319703165"><ele>45.0</ele><time>2026-04-18T08:29:56.001Z</time></trkpt><trkpt lat="43.56014325432803" lon="10.730012515944686"><ele>45.0</ele><time>2026-04-18T08:29:57.001Z</time></trkpt><trkpt lat="43.560237389157685" lon="10.730161370858863"><ele>45.0</ele><time>2026-04-18T08:29:58.001Z</time></trkpt><trkpt lat="43.56032881600508" lon="10.730305082880161"><ele>45.0</ele><time>2026-04-18T08:29:59.001Z</time></trkpt><trkpt lat="43.56041891630192" lon="10.730456537627221"><ele>45.0</ele><time>2026-04-18T08:30:00.001Z</time></trkpt><trkpt lat="43.56050992331239" lon="10.730604562153298"><ele>45.0</ele><time>2026-04-18T08:30:01.001Z</time></trkpt><trkpt lat="43.56060532250928" lon="10.730749191116404"><ele>45.0</ele><time>2026-04-18T08:30:02.001Z</time></trkpt><trkpt lat="43.56070140902103" lon="10.730902876081396"><ele>45.0</ele><time>2026-04-18T08:30:03.001Z</time></trkpt><trkpt lat="43.56080416771667" lon="10.7310636475221"><ele>45.0</ele><time>2026-04-18T08:30:04.001Z</time></trkpt><trkpt lat="43.56090232148969" lon="10.731230781231325"><ele>44.666666666666664</ele><time>2026-04-18T08:30:05.001Z</time></trkpt><trkpt lat="43.56100686596549" lon="10.73139329401444"><ele>44.33333333333333</ele><time>2026-04-18T08:30:06.001Z</time></trkpt><trkpt lat="43.56111109110287" lon="10.731557272597275"><ele>44.0</ele><time>2026-04-18T08:30:07.001Z</time></trkpt><trkpt lat="43.56121461728564" lon="10.73172365834326"><ele>44.0</ele><time>2026-04-18T08:30:08.001Z</time></trkpt><trkpt lat="43.56131746945531" lon="10.731888616506014"><ele>44.0</ele><time>2026-04-18T08:30:09.001Z</time></trkpt><trkpt lat="43.561419609513365" lon="10.732055307234385"><ele>44.0</ele><time>2026-04-18T08:30:10.001Z</time></trkpt><trkpt lat="43.56153069480495" lon="10.732222599402226"><ele>44.33333333333333</ele><time>2026-04-18T08:30:11.001Z</time></trkpt><trkpt lat="43.561635811265404" lon="10.732391177186788"><ele>44.666666666666664</ele><time>2026-04-18T08:30:12.001Z</time></trkpt><trkpt lat="43.561740044138226" lon="10.732564647784338"><ele>45.0</ele><time>2026-04-18T08:30:13.001Z</time></trkpt><trkpt lat="43.56184111580955" lon="10.732731108142676"><ele>45.333333333333336</ele><time>2026-04-18T08:30:14.001Z</time></trkpt><trkpt lat="43.56194868940583" lon="10.73290421045014"><ele>45.66666666666667</ele><time>2026-04-18T08:30:15.001Z</time></trkpt><trkpt lat="43.5620606341856" lon="10.733075543246425"><ele>46.0</ele><time>2026-04-18T08:30:16.001Z</time></trkpt><trkpt lat="43.56217347720245" lon="10.733257982407082"><ele>46.333333333333336</ele><time>2026-04-18T08:30:17.001Z</time></trkpt><trkpt lat="43.562284508117244" lon="10.73344277493407"><ele>46.666666666666664</ele><time>2026-04-18T08:30:18.001Z</time></trkpt><trkpt lat="43.56240059947745" lon="10.733628191426831"><ele>47.0</ele><time>2026-04-18T08:30:19.001Z</time></trkpt><trkpt lat="43.56252036700761" lon="10.733819745695097"><ele>47.0</ele><time>2026-04-18T08:30:20.001Z</time></trkpt><trkpt lat="43.562640454877986" lon="10.734020927289752"><ele>47.0</ele><time>2026-04-18T08:30:21.001Z</time></trkpt><trkpt lat="43.56276347639457" lon="10.734211147645292"><ele>47.0</ele><time>2026-04-18T08:30:22.001Z</time></trkpt><trkpt lat="43.56287432109038" lon="10.734403951294262"><ele>47.33333333333333</ele><time>2026-04-18T08:30:23.001Z</time></trkpt><trkpt lat="43.562983995667736" lon="10.734596032851528"><ele>47.666666666666664</ele><time>2026-04-18T08:30:24.001Z</time></trkpt><trkpt lat="43.56308612082257" lon="10.734794021418171"><ele>48.0</ele><time>2026-04-18T08:30:25.001Z</time></trkpt><trkpt lat="43.563178054631756" lon="10.734998619130836"><ele>48.0</ele><time>2026-04-18T08:30:26.001Z</time></trkpt><trkpt lat="43.563266503737275" lon="10.735205344766074"><ele>48.0</ele><time>2026-04-18T08:30:27.001Z</time></trkpt><trkpt lat="43.563349152486126" lon="10.735409411897162"><ele>48.0</ele><time>2026-04-18T08:30:28.001Z</time></trkpt><trkpt lat="43.563429696131976" lon="10.735608880530767"><ele>48.0</ele><time>2026-04-18T08:30:29.001Z</time></trkpt><trkpt lat="43.563509715895485" lon="10.735804597169032"><ele>48.0</ele><time>2026-04-18T08:30:30.001Z</time></trkpt><trkpt lat="43.56359131333432" lon="10.736000374122531"><ele>48.0</ele><time>2026-04-18T08:30:31Z</time></trkpt><trkpt lat="43.56367061277204" lon="10.736189445476436"><ele>48.0</ele><time>2026-04-18T08:30:32Z</time></trkpt><trkpt lat="43.56374993189553" lon="10.73637688357269"><ele>48.0</ele><time>2026-04-18T08:30:33Z</time></trkpt><trkpt lat="43.563827263719126" lon="10.736560649727132"><ele>48.0</ele><time>2026-04-18T08:30:34Z</time></trkpt><trkpt lat="43.56390513881615" lon="10.736743993177921"><ele>48.0</ele><time>2026-04-18T08:30:35Z</time></trkpt><trkpt lat="43.56398082152096" lon="10.73692716392886"><ele>48.0</ele><time>2026-04-18T08:30:36Z</time></trkpt><trkpt lat="43.56405643485166" lon="10.737109458790345"><ele>48.0</ele><time>2026-04-18T08:30:37Z</time></trkpt><trkpt lat="43.56413482867167" lon="10.737296447650092"><ele>48.0</ele><time>2026-04-18T08:30:38Z</time></trkpt><trkpt lat="43.564215649049444" lon="10.737487544279146"><ele>48.0</ele><time>2026-04-18T08:30:39Z</time></trkpt><trkpt lat="43.564290339883264" lon="10.737686235743688"><ele>48.0</ele><time>2026-04-18T08:30:40Z</time></trkpt><trkpt lat="43.56437300736177" lon="10.737879117895622"><ele>48.0</ele><time>2026-04-18T08:30:41Z</time></trkpt><trkpt lat="43.56445478670233" lon="10.738064935753776"><ele>48.0</ele><time>2026-04-18T08:30:42Z</time></trkpt><trkpt lat="43.56453162643667" lon="10.738247886964832"><ele>48.0</ele><time>2026-04-18T08:30:43Z</time></trkpt><trkpt lat="43.56460740318409" lon="10.738415520623338"><ele>48.75</ele><time>2026-04-18T08:30:44Z</time></trkpt><trkpt lat="43.56468146268943" lon="10.738569759711622"><ele>49.5</ele><time>2026-04-18T08:30:45Z</time></trkpt><trkpt lat="43.56475614332303" lon="10.738709820162406"><ele>50.25</ele><time>2026-04-18T08:30:46Z</time></trkpt><trkpt lat="43.564834461132406" lon="10.738828018916692"><ele>51.0</ele><time>2026-04-18T08:30:47Z</time></trkpt><trkpt lat="43.564903751162376" lon="10.738924277832059"><ele>51.0</ele><time>2026-04-18T08:30:48Z</time></trkpt><trkpt lat="43.56496002529099" lon="10.739015567884508"><ele>51.0</ele><time>2026-04-18T08:30:49Z</time></trkpt><trkpt lat="43.565007731320705" lon="10.739086718742051"><ele>51.0</ele><time>2026-04-18T08:30:50Z</time></trkpt><trkpt lat="43.56504730691224" lon="10.739180787802267"><ele>51.0</ele><time>2026-04-18T08:30:51Z</time></trkpt><trkpt lat="43.565055320097684" lon="10.739315336544976"><ele>51.0</ele><time>2026-04-18T08:30:53Z</time></trkpt><trkpt lat="43.565022146017434" lon="10.739486747700843"><ele>51.4</ele><time>2026-04-18T08:30:55Z</time></trkpt><trkpt lat="43.56499264826265" lon="10.739593722951856"><ele>51.8</ele><time>2026-04-18T08:30:56Z</time></trkpt><trkpt lat="43.56489831382011" lon="10.739666489273011"><ele>52.199999999999996</ele><time>2026-04-18T08:30:57Z</time></trkpt><trkpt lat="43.56484058449676" lon="10.739763051595544"><ele>52.599999999999994</ele><time>2026-04-18T08:30:58Z</time></trkpt><trkpt lat="43.56476897448444" lon="10.739868693212333"><ele>53.0</ele><time>2026-04-18T08:30:59Z</time></trkpt><trkpt lat="43.5647070201717" lon="10.73999467333976"><ele>53.0</ele><time>2026-04-18T08:31:00Z</time></trkpt><trkpt lat="43.564632699429666" lon="10.740112766515248"><ele>53.0</ele><time>2026-04-18T08:31:01Z</time></trkpt><trkpt lat="43.564550391505556" lon="10.740241369782915"><ele>53.0</ele><time>2026-04-18T08:31:02Z</time></trkpt><trkpt lat="43.56448418659738" lon="10.740363726929344"><ele>53.0</ele><time>2026-04-18T08:31:03Z</time></trkpt><trkpt lat="43.56441442806768" lon="10.740496352229686"><ele>52.5</ele><time>2026-04-18T08:31:04Z</time></trkpt><trkpt lat="43.564345584724315" lon="10.740630492875264"><ele>52.0</ele><time>2026-04-18T08:31:05Z</time></trkpt><trkpt lat="43.564274699651676" lon="10.740765301390338"><ele>51.5</ele><time>2026-04-18T08:31:06Z</time></trkpt><trkpt lat="43.56419926488881" lon="10.740907907169632"><ele>51.0</ele><time>2026-04-18T08:31:07Z</time></trkpt><trkpt lat="43.564124448212944" lon="10.741039283153247"><ele>52.5</ele><time>2026-04-18T08:31:08Z</time></trkpt><trkpt lat="43.564050150651155" lon="10.741173982407524"><ele>54.0</ele><time>2026-04-18T08:31:09Z</time></trkpt><trkpt lat="43.563971624258606" lon="10.741314729714006"><ele>55.5</ele><time>2026-04-18T08:31:10Z</time></trkpt><trkpt lat="43.563891216249125" lon="10.7414552818952"><ele>57.0</ele><time>2026-04-18T08:31:11Z</time></trkpt><trkpt lat="43.5638182938868" lon="10.741582211383571"><ele>57.0</ele><time>2026-04-18T08:31:12Z</time></trkpt><trkpt lat="43.5637352628321" lon="10.741735152461056"><ele>57.0</ele><time>2026-04-18T08:31:13Z</time></trkpt><trkpt lat="43.563653922894225" lon="10.741901025231916"><ele>57.0</ele><time>2026-04-18T08:31:14Z</time></trkpt><trkpt lat="43.563558359717874" lon="10.742070246168423"><ele>57.0</ele><time>2026-04-18T08:31:15Z</time></trkpt><trkpt lat="43.56346362529721" lon="10.742245151809028"><ele>57.33333333333333</ele><time>2026-04-18T08:31:16Z</time></trkpt><trkpt lat="43.56335175011981" lon="10.742433014158895"><ele>57.666666666666664</ele><time>2026-04-18T08:31:17Z</time></trkpt><trkpt lat="43.563253541968365" lon="10.742612699856302"><ele>58.0</ele><time>2026-04-18T08:31:18Z</time></trkpt><trkpt lat="43.563155848991435" lon="10.742788809595114"><ele>58.0</ele><time>2026-04-18T08:31:19Z</time></trkpt><trkpt lat="43.56306624874351" lon="10.74295989937045"><ele>58.0</ele><time>2026-04-18T08:31:20Z</time></trkpt><trkpt lat="43.56297582671863" lon="10.743129713306212"><ele>58.0</ele><time>2026-04-18T08:31:21Z</time></trkpt><trkpt lat="43.562870327863386" lon="10.743305196124432"><ele>57.0</ele><time>2026-04-18T08:31:22Z</time></trkpt><trkpt lat="43.562766251779934" lon="10.743483562702"><ele>56.0</ele><time>2026-04-18T08:31:23Z</time></trkpt><trkpt lat="43.5626633948149" lon="10.743666432819776"><ele>55.0</ele><time>2026-04-18T08:31:24Z</time></trkpt><trkpt lat="43.56257212047946" lon="10.743846399185845"><ele>55.0</ele><time>2026-04-18T08:31:25Z</time></trkpt><trkpt lat="43.56248230283297" lon="10.744037638330939"><ele>55.0</ele><time>2026-04-18T08:31:26Z</time></trkpt><trkpt lat="43.56241205142222" lon="10.744226353698332"><ele>55.0</ele><time>2026-04-18T08:31:27Z</time></trkpt><trkpt lat="43.562347266072365" lon="10.744425765769911"><ele>56.0</ele><time>2026-04-18T08:31:28Z</time></trkpt><trkpt lat="43.562288506661666" lon="10.744638428578554"><ele>57.0</ele><time>2026-04-18T08:31:29Z</time></trkpt><trkpt lat="43.562233783174875" lon="10.744853940218091"><ele>58.0</ele><time>2026-04-18T08:31:30Z</time></trkpt><trkpt lat="43.56218932091701" lon="10.745070113476633"><ele>58.0</ele><time>2026-04-18T08:31:31Z</time></trkpt><trkpt lat="43.56216422471203" lon="10.745298846449895"><ele>58.0</ele><time>2026-04-18T08:31:32Z</time></trkpt><trkpt lat="43.56214454171734" lon="10.745525771282988"><ele>58.0</ele><time>2026-04-18T08:31:33Z</time></trkpt><trkpt lat="43.56212454529211" lon="10.745754574041488"><ele>58.0</ele><time>2026-04-18T08:31:34Z</time></trkpt><trkpt lat="43.562119748272636" lon="10.745992382554746"><ele>58.0</ele><time>2026-04-18T08:31:35Z</time></trkpt><trkpt lat="43.56212205725024" lon="10.74622943024951"><ele>58.0</ele><time>2026-04-18T08:31:36Z</time></trkpt><trkpt lat="43.562136759746785" lon="10.746455332693204"><ele>57.0</ele><time>2026-04-18T08:31:37Z</time></trkpt><trkpt lat="43.5621601382886" lon="10.746659486109861"><ele>56.0</ele><time>2026-04-18T08:31:38.001Z</time></trkpt><trkpt lat="43.56219099541069" lon="10.746844190344705"><ele>55.0</ele><time>2026-04-18T08:31:39.001Z</time></trkpt><trkpt lat="43.56222900947422" lon="10.747020181523874"><ele>54.0</ele><time>2026-04-18T08:31:40.001Z</time></trkpt><trkpt lat="43.562274821462346" lon="10.747189505799774"><ele>53.75</ele><time>2026-04-18T08:31:41.001Z</time></trkpt><trkpt lat="43.56232615016611" lon="10.747358154122493"><ele>53.5</ele><time>2026-04-18T08:31:42.001Z</time></trkpt><trkpt lat="43.56237963256267" lon="10.747519818481834"><ele>53.25</ele><time>2026-04-18T08:31:43.001Z</time></trkpt><trkpt lat="43.56243371144389" lon="10.747677262622615"><ele>53.0</ele><time>2026-04-18T08:31:44.001Z</time></trkpt><trkpt lat="43.562481954276784" lon="10.747825838104578"><ele>53.0</ele><time>2026-04-18T08:31:45.001Z</time></trkpt><trkpt lat="43.562524471802334" lon="10.74796903394226"><ele>53.0</ele><time>2026-04-18T08:31:46.001Z</time></trkpt><trkpt lat="43.56256912903695" lon="10.748106957188236"><ele>53.0</ele><time>2026-04-18T08:31:47.001Z</time></trkpt><trkpt lat="43.56261620946075" lon="10.748236369402392"><ele>53.0</ele><time>2026-04-18T08:31:48.001Z</time></trkpt><trkpt lat="43.56265569251712" lon="10.74835499503133"><ele>53.0</ele><time>2026-04-18T08:31:49.001Z</time></trkpt><trkpt lat="43.56268858681881" lon="10.74845812392056"><ele>52.85714285714286</ele><time>2026-04-18T08:31:50.001Z</time></trkpt><trkpt lat="43.56270971580886" lon="10.748557141105115"><ele>52.71428571428571</ele><time>2026-04-18T08:31:51.001Z</time></trkpt><trkpt lat="43.56271558929089" lon="10.74865654582344"><ele>52.57142857142857</ele><time>2026-04-18T08:31:52.001Z</time></trkpt><trkpt lat="43.56269460030676" lon="10.748748329087517"><ele>52.42857142857143</ele><time>2026-04-18T08:31:53.001Z</time></trkpt><trkpt lat="43.56265502293835" lon="10.748820338704816"><ele>52.28571428571429</ele><time>2026-04-18T08:31:54.001Z</time></trkpt><trkpt lat="43.562600926738035" lon="10.748883227020515"><ele>52.14285714285714</ele><time>2026-04-18T08:31:55.001Z</time></trkpt><trkpt lat="43.562537564144975" lon="10.748927076137418"><ele>52.0</ele><time>2026-04-18T08:31:56.001Z</time></trkpt><trkpt lat="43.56244991923501" lon="10.748949238393516"><ele>52.0</ele><time>2026-04-18T08:31:57.001Z</time></trkpt><trkpt lat="43.562353311506904" lon="10.748945020543927"><ele>52.0</ele><time>2026-04-18T08:31:58.001Z</time></trkpt><trkpt lat="43.562245896345246" lon="10.748930005486075"><ele>52.0</ele><time>2026-04-18T08:31:59.001Z</time></trkpt><trkpt lat="43.562133783159446" lon="10.748911335754276"><ele>52.0</ele><time>2026-04-18T08:32:00.001Z</time></trkpt><trkpt lat="43.56201527922771" lon="10.748887722881616"><ele>52.0</ele><time>2026-04-18T08:32:01.001Z</time></trkpt><trkpt lat="43.56189667933588" lon="10.748863815029734"><ele>51.5</ele><time>2026-04-18T08:32:02.001Z</time></trkpt><trkpt lat="43.56177923785411" lon="10.74884356538398"><ele>51.0</ele><time>2026-04-18T08:32:03.001Z</time></trkpt><trkpt lat="43.561669207015" lon="10.748813077486862"><ele>50.5</ele><time>2026-04-18T08:32:04.001Z</time></trkpt><trkpt lat="43.56155748759494" lon="10.748796471105033"><ele>50.0</ele><time>2026-04-18T08:32:05.001Z</time></trkpt><trkpt lat="43.56144377796794" lon="10.748782499179296"><ele>50.0</ele><time>2026-04-18T08:32:06.001Z</time></trkpt><trkpt lat="43.56133388519443" lon="10.748780952651884"><ele>50.0</ele><time>2026-04-18T08:32:07.001Z</time></trkpt><trkpt lat="43.5612219720487" lon="10.748793276180264"><ele>50.0</ele><time>2026-04-18T08:32:08.001Z</time></trkpt><trkpt lat="43.56111047790783" lon="10.748824315731223"><ele>50.0</ele><time>2026-04-18T08:32:09.001Z</time></trkpt><trkpt lat="43.56099564220424" lon="10.74885696236023"><ele>50.5</ele><time>2026-04-18T08:32:10.001Z</time></trkpt><trkpt lat="43.560879534396086" lon="10.74889214058024"><ele>51.0</ele><time>2026-04-18T08:32:11.001Z</time></trkpt><trkpt lat="43.560757569809745" lon="10.748924777101323"><ele>51.5</ele><time>2026-04-18T08:32:12.001Z</time></trkpt><trkpt lat="43.560628728922524" lon="10.748949860436595"><ele>52.0</ele><time>2026-04-18T08:32:13.001Z</time></trkpt><trkpt lat="43.560518149349555" lon="10.748966314386726"><ele>52.0</ele><time>2026-04-18T08:32:14.001Z</time></trkpt><trkpt lat="43.560401857622836" lon="10.748997588201663"><ele>52.0</ele><time>2026-04-18T08:32:15.001Z</time></trkpt><trkpt lat="43.56029304584031" lon="10.74902121092738"><ele>52.0</ele><time>2026-04-18T08:32:16.001Z</time></trkpt><trkpt lat="43.560187641968334" lon="10.749053244465438"><ele>52.0</ele><time>2026-04-18T08:32:17.001Z</time></trkpt><trkpt lat="43.56007735456454" lon="10.749088086409138"><ele>51.75</ele><time>2026-04-18T08:32:18.001Z</time></trkpt><trkpt lat="43.559962497895945" lon="10.749125332399226"><ele>51.5</ele><time>2026-04-18T08:32:19.001Z</time></trkpt><trkpt lat="43.55984907143835" lon="10.749174252662682"><ele>51.25</ele><time>2026-04-18T08:32:20.001Z</time></trkpt><trkpt lat="43.559748664223775" lon="10.749227112467228"><ele>51.0</ele><time>2026-04-18T08:32:21.001Z</time></trkpt><trkpt lat="43.55964679325916" lon="10.749304419255315"><ele>51.0</ele><time>2026-04-18T08:32:22.001Z</time></trkpt><trkpt lat="43.559558429363726" lon="10.749407946532754"><ele>51.0</ele><time>2026-04-18T08:32:23.001Z</time></trkpt><trkpt lat="43.55947726155055" lon="10.74951458938509"><ele>51.0</ele><time>2026-04-18T08:32:24.001Z</time></trkpt><trkpt lat="43.55940240428315" lon="10.749624709724722"><ele>51.0</ele><time>2026-04-18T08:32:25.001Z</time></trkpt><trkpt lat="43.55933097347045" lon="10.749734044708767"><ele>51.0</ele><time>2026-04-18T08:32:26.001Z</time></trkpt><trkpt lat="43.559269925122955" lon="10.74983673724787"><ele>51.0</ele><time>2026-04-18T08:32:27.001Z</time></trkpt><trkpt lat="43.55920486706189" lon="10.749939926782652"><ele>51.0</ele><time>2026-04-18T08:32:28.001Z</time></trkpt><trkpt lat="43.559141516293536" lon="10.750030760202636"><ele>51.0</ele><time>2026-04-18T08:32:29.001Z</time></trkpt><trkpt lat="43.55908644738963" lon="10.750112286834622"><ele>51.0</ele><time>2026-04-18T08:32:30.001Z</time></trkpt><trkpt lat="43.55903046466212" lon="10.750187264526827"><ele>51.0</ele><time>2026-04-18T08:32:31.001Z</time></trkpt><trkpt lat="43.55896636367922" lon="10.750261935683497"><ele>51.0</ele><time>2026-04-18T08:32:32.001Z</time></trkpt><trkpt lat="43.55891787099508" lon="10.7503193849757"><ele>52.25</ele><time>2026-04-18T08:32:33.001Z</time></trkpt><trkpt lat="43.55884580904611" lon="10.750406236706471"><ele>53.5</ele><time>2026-04-18T08:32:35.001Z</time></trkpt><trkpt lat="43.558910453295404" lon="10.750661455062984"><ele>54.75</ele><time>2026-04-18T08:32:38Z</time></trkpt><trkpt lat="43.55895723953975" lon="10.750745507841083"><ele>56.0</ele><time>2026-04-18T08:32:39Z</time></trkpt><trkpt lat="43.559005045211016" lon="10.750836197608127"><ele>56.00000000000001</ele><time>2026-04-18T08:32:40Z</time></trkpt><trkpt lat="43.5590548305934" lon="10.750927724914476"><ele>56.0</ele><time>2026-04-18T08:32:41Z</time></trkpt><trkpt lat="43.5590975821037" lon="10.751030064689697"><ele>56.0</ele><time>2026-04-18T08:32:42Z</time></trkpt><trkpt lat="43.55912184886448" lon="10.751148792005875"><ele>56.0</ele><time>2026-04-18T08:32:43Z</time></trkpt><trkpt lat="43.55913742502418" lon="10.751263756340856"><ele>56.00000000000001</ele><time>2026-04-18T08:32:44Z</time></trkpt><trkpt lat="43.55914216894741" lon="10.751379916303454"><ele>56.0</ele><time>2026-04-18T08:32:45Z</time></trkpt><trkpt lat="43.559149381016134" lon="10.751494565267391"><ele>56.833333333333336</ele><time>2026-04-18T08:32:46Z</time></trkpt><trkpt lat="43.55916764476265" lon="10.751617480319533"><ele>57.66666666666667</ele><time>2026-04-18T08:32:47Z</time></trkpt><trkpt lat="43.55917978749431" lon="10.751740285984038"><ele>58.5</ele><time>2026-04-18T08:32:48Z</time></trkpt><trkpt lat="43.55918815705709" lon="10.751854322105416"><ele>59.33333333333333</ele><time>2026-04-18T08:32:49Z</time></trkpt><trkpt lat="43.55918235280959" lon="10.751945431643454"><ele>60.166666666666664</ele><time>2026-04-18T08:32:50Z</time></trkpt><trkpt lat="43.559156570542875" lon="10.752052512021761"><ele>61.0</ele><time>2026-04-18T08:32:51Z</time></trkpt><trkpt lat="43.55910573171683" lon="10.752129301354472"><ele>61.71428571428571</ele><time>2026-04-18T08:32:52Z</time></trkpt><trkpt lat="43.559039443722" lon="10.752184712973447"><ele>62.42857142857143</ele><time>2026-04-18T08:32:53Z</time></trkpt><trkpt lat="43.558966172829315" lon="10.752220650493644"><ele>63.14285714285714</ele><time>2026-04-18T08:32:54Z</time></trkpt><trkpt lat="43.55889778177995" lon="10.752261302021312"><ele>63.857142857142854</ele><time>2026-04-18T08:32:55Z</time></trkpt><trkpt lat="43.55882989760918" lon="10.752299084107946"><ele>64.57142857142857</ele><time>2026-04-18T08:32:56Z</time></trkpt><trkpt lat="43.55876351078428" lon="10.752329199366825"><ele>65.28571428571428</ele><time>2026-04-18T08:32:57Z</time></trkpt><trkpt lat="43.558699605310636" lon="10.752380430085955"><ele>66.0</ele><time>2026-04-18T08:32:58Z</time></trkpt><trkpt lat="43.55864850810449" lon="10.752467270877908"><ele>66.33333333333333</ele><time>2026-04-18T08:32:59Z</time></trkpt><trkpt lat="43.55861014010465" lon="10.752575493437822"><ele>66.66666666666667</ele><time>2026-04-18T08:33:00Z</time></trkpt><trkpt lat="43.558578905004765" lon="10.752681426213327"><ele>67.0</ele><time>2026-04-18T08:33:01Z</time></trkpt><trkpt lat="43.55855325938856" lon="10.752791201637162"><ele>67.33333333333334</ele><time>2026-04-18T08:33:02Z</time></trkpt><trkpt lat="43.55852966444805" lon="10.752896518712202"><ele>67.66666666666667</ele><time>2026-04-18T08:33:03Z</time></trkpt><trkpt lat="43.55851627298914" lon="10.753008808291247"><ele>68.0</ele><time>2026-04-18T08:33:04Z</time></trkpt><trkpt lat="43.55849789615394" lon="10.753123044812044"><ele>69.0</ele><time>2026-04-18T08:33:05Z</time></trkpt><trkpt lat="43.55848263942594" lon="10.75324650635976"><ele>70.0</ele><time>2026-04-18T08:33:06Z</time></trkpt><trkpt lat="43.55846765587024" lon="10.753362465723791"><ele>71.0</ele><time>2026-04-18T08:33:07Z</time></trkpt><trkpt lat="43.558456258387636" lon="10.753486432948137"><ele>72.0</ele><time>2026-04-18T08:33:08Z</time></trkpt><trkpt lat="43.558438055990294" lon="10.753616450602962"><ele>73.0</ele><time>2026-04-18T08:33:09Z</time></trkpt><trkpt lat="43.55843007191521" lon="10.75374231582617"><ele>75.0</ele><time>2026-04-18T08:33:10Z</time></trkpt><trkpt lat="43.55841068784199" lon="10.753861737708275"><ele>77.0</ele><time>2026-04-18T08:33:11Z</time></trkpt><trkpt lat="43.558390561488466" lon="10.753981739423805"><ele>79.0</ele><time>2026-04-18T08:33:12Z</time></trkpt><trkpt lat="43.55836502261116" lon="10.754100817255186"><ele>81.0</ele><time>2026-04-18T08:33:13Z</time></trkpt><trkpt lat="43.55834018897919" lon="10.754230890694588"><ele>83.0</ele><time>2026-04-18T08:33:14Z</time></trkpt><trkpt lat="43.55831441589265" lon="10.75435533865692"><ele>84.4</ele><time>2026-04-18T08:33:15Z</time></trkpt><trkpt lat="43.55828490687409" lon="10.754496554347046"><ele>85.80000000000001</ele><time>2026-04-18T08:33:16Z</time></trkpt><trkpt lat="43.55826339458007" lon="10.754624452580082"><ele>87.2</ele><time>2026-04-18T08:33:17Z</time></trkpt><trkpt lat="43.55824070784388" lon="10.754760225841338"><ele>88.6</ele><time>2026-04-18T08:33:18Z</time></trkpt><trkpt lat="43.558216146047855" lon="10.754893871639512"><ele>90.0</ele><time>2026-04-18T08:33:19Z</time></trkpt><trkpt lat="43.558188502909005" lon="10.755026638708527"><ele>90.0</ele><time>2026-04-18T08:33:20Z</time></trkpt><trkpt lat="43.55815011546694" lon="10.755159461646764"><ele>90.0</ele><time>2026-04-18T08:33:21Z</time></trkpt><trkpt lat="43.55810066853619" lon="10.755289632062365"><ele>90.0</ele><time>2026-04-18T08:33:22Z</time></trkpt><trkpt lat="43.55804062956247" lon="10.755404246675598"><ele>90.0</ele><time>2026-04-18T08:33:23Z</time></trkpt><trkpt lat="43.557972057229506" lon="10.75553802768731"><ele>90.0</ele><time>2026-04-18T08:33:24Z</time></trkpt><trkpt lat="43.55792142642041" lon="10.75567212137968"><ele>90.0</ele><time>2026-04-18T08:33:25Z</time></trkpt><trkpt lat="43.55786769868638" lon="10.75579365750415"><ele>90.0</ele><time>2026-04-18T08:33:26Z</time></trkpt><trkpt lat="43.55782530681619" lon="10.755902185588143"><ele>90.0</ele><time>2026-04-18T08:33:27Z</time></trkpt><trkpt lat="43.557783102444475" lon="10.756014619168266"><ele>90.0</ele><time>2026-04-18T08:33:28Z</time></trkpt><trkpt lat="43.55777992087759" lon="10.75614933465974"><ele>90.0</ele><time>2026-04-18T08:33:29Z</time></trkpt><trkpt lat="43.55779344058851" lon="10.756267213214217"><ele>90.4</ele><time>2026-04-18T08:33:30Z</time></trkpt><trkpt lat="43.5578580018045" lon="10.756371560628642"><ele>90.8</ele><time>2026-04-18T08:33:31Z</time></trkpt><trkpt lat="43.55790313892504" lon="10.75649027347062"><ele>91.19999999999999</ele><time>2026-04-18T08:33:32Z</time></trkpt><trkpt lat="43.55793378493182" lon="10.756614799243998"><ele>91.6</ele><time>2026-04-18T08:33:33Z</time></trkpt><trkpt lat="43.55795718769335" lon="10.756742592370458"><ele>92.0</ele><time>2026-04-18T08:33:34Z</time></trkpt><trkpt lat="43.55796968230024" lon="10.756866210822245"><ele>93.19999999999999</ele><time>2026-04-18T08:33:35Z</time></trkpt><trkpt lat="43.557972817196706" lon="10.756980648162376"><ele>94.4</ele><time>2026-04-18T08:33:36Z</time></trkpt><trkpt lat="43.557969831528176" lon="10.757097569605316"><ele>95.6</ele><time>2026-04-18T08:33:37Z</time></trkpt><trkpt lat="43.55795831284436" lon="10.757237064676938"><ele>96.80000000000001</ele><time>2026-04-18T08:33:38Z</time></trkpt><trkpt lat="43.55791898482309" lon="10.757379613972853"><ele>98.0</ele><time>2026-04-18T08:33:39Z</time></trkpt><trkpt lat="43.55790418694657" lon="10.75753259630738"><ele>98.0</ele><time>2026-04-18T08:33:40Z</time></trkpt><trkpt lat="43.55787351257003" lon="10.757677542949544"><ele>98.0</ele><time>2026-04-18T08:33:41Z</time></trkpt><trkpt lat="43.55784877899175" lon="10.757834816371762"><ele>98.0</ele><time>2026-04-18T08:33:42Z</time></trkpt><trkpt lat="43.557820651490324" lon="10.757992788004165"><ele>98.0</ele><time>2026-04-18T08:33:43Z</time></trkpt><trkpt lat="43.557784573635296" lon="10.758168629746608"><ele>98.5</ele><time>2026-04-18T08:33:44Z</time></trkpt><trkpt lat="43.557762131924456" lon="10.758326139404323"><ele>99.0</ele><time>2026-04-18T08:33:45Z</time></trkpt><trkpt lat="43.557707111693624" lon="10.758482731588245"><ele>99.5</ele><time>2026-04-18T08:33:46Z</time></trkpt><trkpt lat="43.55763989803126" lon="10.758641508722784"><ele>100.0</ele><time>2026-04-18T08:33:47Z</time></trkpt><trkpt lat="43.557563301008656" lon="10.75879997167723"><ele>101.8</ele><time>2026-04-18T08:33:48Z</time></trkpt><trkpt lat="43.55749462801737" lon="10.758912995708146"><ele>103.6</ele><time>2026-04-18T08:33:49Z</time></trkpt><trkpt lat="43.557415409483106" lon="10.759026705637039"><ele>105.4</ele><time>2026-04-18T08:33:50Z</time></trkpt><trkpt lat="43.55733401799845" lon="10.75912742659399"><ele>107.2</ele><time>2026-04-18T08:33:51Z</time></trkpt><trkpt lat="43.557252007799676" lon="10.759223417173452"><ele>109.0</ele><time>2026-04-18T08:33:52Z</time></trkpt><trkpt lat="43.55718131206973" lon="10.759304919503817"><ele>110.2</ele><time>2026-04-18T08:33:53Z</time></trkpt><trkpt lat="43.55713410499377" lon="10.759378438548353"><ele>111.4</ele><time>2026-04-18T08:33:54Z</time></trkpt><trkpt lat="43.55708970069374" lon="10.75948838284127"><ele>112.6</ele><time>2026-04-18T08:33:55Z</time></trkpt><trkpt lat="43.55705322443099" lon="10.759704542338675"><ele>113.8</ele><time>2026-04-18T08:33:57Z</time></trkpt><trkpt lat="43.557082269904825" lon="10.759848786940138"><ele>115.0</ele><time>2026-04-18T08:33:58Z</time></trkpt><trkpt lat="43.5571108349491" lon="10.760000076857361"><ele>115.0</ele><time>2026-04-18T08:33:59Z</time></trkpt><trkpt lat="43.55713555422505" lon="10.760130527276875"><ele>115.0</ele><time>2026-04-18T08:34:00Z</time></trkpt><trkpt lat="43.557160490258795" lon="10.760262121298076"><ele>115.0</ele><time>2026-04-18T08:34:01Z</time></trkpt><trkpt lat="43.557198718794645" lon="10.760391588070373"><ele>115.0</ele><time>2026-04-18T08:34:02Z</time></trkpt><trkpt lat="43.55722328494352" lon="10.76054874833673"><ele>115.0</ele><time>2026-04-18T08:34:03Z</time></trkpt><trkpt lat="43.557251614570006" lon="10.760693632640015"><ele>116.25</ele><time>2026-04-18T08:34:04Z</time></trkpt><trkpt lat="43.55728115452376" lon="10.760852005486582"><ele>117.5</ele><time>2026-04-18T08:34:05Z</time></trkpt><trkpt lat="43.5573184048302" lon="10.761017777467867"><ele>118.75</ele><time>2026-04-18T08:34:06Z</time></trkpt><trkpt lat="43.55735404089836" lon="10.761173100691995"><ele>120.0</ele><time>2026-04-18T08:34:07Z</time></trkpt><trkpt lat="43.55737299033307" lon="10.761338497085768"><ele>121.0</ele><time>2026-04-18T08:34:08Z</time></trkpt><trkpt lat="43.557407954825884" lon="10.76150889451016"><ele>122.0</ele><time>2026-04-18T08:34:09.001Z</time></trkpt><trkpt lat="43.55744217412509" lon="10.76167565997829"><ele>123.0</ele><time>2026-04-18T08:34:10.001Z</time></trkpt><trkpt lat="43.5574774975339" lon="10.761847806459203"><ele>124.0</ele><time>2026-04-18T08:34:11.001Z</time></trkpt><trkpt lat="43.557511760810904" lon="10.762014786599892"><ele>124.75</ele><time>2026-04-18T08:34:12.001Z</time></trkpt><trkpt lat="43.55754497320249" lon="10.762176645353627"><ele>125.5</ele><time>2026-04-18T08:34:13.001Z</time></trkpt><trkpt lat="43.557579316001565" lon="10.762344012817216"><ele>126.25</ele><time>2026-04-18T08:34:14.001Z</time></trkpt><trkpt lat="43.55761227263779" lon="10.762493443608342"><ele>127.0</ele><time>2026-04-18T08:34:15.001Z</time></trkpt><trkpt lat="43.557603264463296" lon="10.76265991334114"><ele>128.0</ele><time>2026-04-18T08:34:16.001Z</time></trkpt><trkpt lat="43.557597719676664" lon="10.762796556925528"><ele>129.0</ele><time>2026-04-18T08:34:17.001Z</time></trkpt><trkpt lat="43.557604372582816" lon="10.76294163528088"><ele>130.0</ele><time>2026-04-18T08:34:18.001Z</time></trkpt><trkpt lat="43.55757925696183" lon="10.763077244109482"><ele>131.0</ele><time>2026-04-18T08:34:19.001Z</time></trkpt><trkpt lat="43.557570255223894" lon="10.763187632980197"><ele>132.0</ele><time>2026-04-18T08:34:20.001Z</time></trkpt><trkpt lat="43.557558870993056" lon="10.76329438409628"><ele>132.0</ele><time>2026-04-18T08:34:21.001Z</time></trkpt><trkpt lat="43.55755348669984" lon="10.763408305773346"><ele>132.0</ele><time>2026-04-18T08:34:22.001Z</time></trkpt><trkpt lat="43.55756246158825" lon="10.763519786776836"><ele>132.0</ele><time>2026-04-18T08:34:23.001Z</time></trkpt><trkpt lat="43.55757837512685" lon="10.76364439876557"><ele>132.0</ele><time>2026-04-18T08:34:24.001Z</time></trkpt><trkpt lat="43.557600740790946" lon="10.763776209726679"><ele>132.0</ele><time>2026-04-18T08:34:25.001Z</time></trkpt><trkpt lat="43.5576323633385" lon="10.763907243915348"><ele>133.4</ele><time>2026-04-18T08:34:26.001Z</time></trkpt><trkpt lat="43.55764648560068" lon="10.764037304327017"><ele>134.79999999999998</ele><time>2026-04-18T08:34:27.001Z</time></trkpt><trkpt lat="43.55764210822843" lon="10.764165241300605"><ele>136.2</ele><time>2026-04-18T08:34:28.001Z</time></trkpt><trkpt lat="43.55762090837681" lon="10.76426853708294"><ele>137.6</ele><time>2026-04-18T08:34:29.001Z</time></trkpt><trkpt lat="43.557559976734076" lon="10.764341224379125"><ele>139.0</ele><time>2026-04-18T08:34:30.001Z</time></trkpt><trkpt lat="43.55742171049726" lon="10.764387074959611"><ele>140.33333333333334</ele><time>2026-04-18T08:34:32.001Z</time></trkpt><trkpt lat="43.5573383851722" lon="10.764436869669419"><ele>141.66666666666669</ele><time>2026-04-18T08:34:33.001Z</time></trkpt><trkpt lat="43.557285423167436" lon="10.764505653564546"><ele>143.0</ele><time>2026-04-18T08:34:34.001Z</time></trkpt><trkpt lat="43.55723106747811" lon="10.76458198262845"><ele>144.33333333333334</ele><time>2026-04-18T08:34:35.001Z</time></trkpt><trkpt lat="43.55719842033887" lon="10.764697098009416"><ele>145.66666666666666</ele><time>2026-04-18T08:34:36.001Z</time></trkpt><trkpt lat="43.557151766112554" lon="10.764837105078902"><ele>147.0</ele><time>2026-04-18T08:34:37.001Z</time></trkpt><trkpt lat="43.55712056031815" lon="10.764968153224133"><ele>147.0</ele><time>2026-04-18T08:34:38.001Z</time></trkpt><trkpt lat="43.557083376821396" lon="10.765103915016448"><ele>147.0</ele><time>2026-04-18T08:34:39.001Z</time></trkpt><trkpt lat="43.55704180456384" lon="10.765237260636876"><ele>147.0</ele><time>2026-04-18T08:34:40.001Z</time></trkpt><trkpt lat="43.557002248026194" lon="10.765373771258128"><ele>147.0</ele><time>2026-04-18T08:34:41.001Z</time></trkpt><trkpt lat="43.55696400382185" lon="10.765509500041615"><ele>147.0</ele><time>2026-04-18T08:34:42.001Z</time></trkpt><trkpt lat="43.55692792715113" lon="10.765633929521261"><ele>146.79999999999998</ele><time>2026-04-18T08:34:43Z</time></trkpt><trkpt lat="43.556884109622224" lon="10.765749303637923"><ele>146.6</ele><time>2026-04-18T08:34:44Z</time></trkpt><trkpt lat="43.556829932332676" lon="10.765851152418508"><ele>146.39999999999998</ele><time>2026-04-18T08:34:45Z</time></trkpt><trkpt lat="43.55676407903031" lon="10.765933870657047"><ele>146.2</ele><time>2026-04-18T08:34:46Z</time></trkpt><trkpt lat="43.55667880040945" lon="10.766023528331742"><ele>146.0</ele><time>2026-04-18T08:34:47Z</time></trkpt><trkpt lat="43.55660672233162" lon="10.766098788986199"><ele>148.4</ele><time>2026-04-18T08:34:48Z</time></trkpt><trkpt lat="43.55652840690194" lon="10.766181466313775"><ele>150.8</ele><time>2026-04-18T08:34:49Z</time></trkpt><trkpt lat="43.556451193173736" lon="10.766265350441694"><ele>153.20000000000002</ele><time>2026-04-18T08:34:50Z</time></trkpt><trkpt lat="43.55637432774034" lon="10.766348360635288"><ele>155.6</ele><time>2026-04-18T08:34:51Z</time></trkpt><trkpt lat="43.55630258402339" lon="10.766425402696955"><ele>158.0</ele><time>2026-04-18T08:34:52Z</time></trkpt><trkpt lat="43.55622845344573" lon="10.766487349458602"><ele>156.6</ele><time>2026-04-18T08:34:53Z</time></trkpt><trkpt lat="43.55615544348604" lon="10.766523024195886"><ele>155.20000000000002</ele><time>2026-04-18T08:34:54Z</time></trkpt><trkpt lat="43.556072993879134" lon="10.766543640717757"><ele>153.8</ele><time>2026-04-18T08:34:55Z</time></trkpt><trkpt lat="43.55599807170546" lon="10.766554983720145"><ele>152.4</ele><time>2026-04-18T08:34:56Z</time></trkpt><trkpt lat="43.555928147559264" lon="10.766592339231861"><ele>151.0</ele><time>2026-04-18T08:34:57Z</time></trkpt><trkpt lat="43.555795196240496" lon="10.766660669262906"><ele>151.0</ele><time>2026-04-18T08:34:59Z</time></trkpt><trkpt lat="43.555742247660454" lon="10.766719510266537"><ele>151.0</ele><time>2026-04-18T08:35:00Z</time></trkpt><trkpt lat="43.555695140485646" lon="10.766803062700799"><ele>151.0</ele><time>2026-04-18T08:35:01Z</time></trkpt><trkpt lat="43.55568626003256" lon="10.766910901288679"><ele>151.0</ele><time>2026-04-18T08:35:02Z</time></trkpt><trkpt lat="43.55570419053591" lon="10.767024434611175"><ele>151.0</ele><time>2026-04-18T08:35:03Z</time></trkpt><trkpt lat="43.55575552047092" lon="10.767195711725499"><ele>151.0</ele><time>2026-04-18T08:35:05Z</time></trkpt><trkpt lat="43.55580341243804" lon="10.767289148251772"><ele>150.8</ele><time>2026-04-18T08:35:06Z</time></trkpt><trkpt lat="43.55584121719645" lon="10.767394191630423"><ele>150.6</ele><time>2026-04-18T08:35:07Z</time></trkpt><trkpt lat="43.55589095989125" lon="10.76754260123372"><ele>150.4</ele><time>2026-04-18T08:35:08Z</time></trkpt><trkpt lat="43.555934243654605" lon="10.767636119294574"><ele>150.2</ele><time>2026-04-18T08:35:09Z</time></trkpt><trkpt lat="43.55597868808385" lon="10.76772666108856"><ele>150.0</ele><time>2026-04-18T08:35:10Z</time></trkpt><trkpt lat="43.55604398158009" lon="10.767868597401797"><ele>149.0</ele><time>2026-04-18T08:35:12Z</time></trkpt><trkpt lat="43.55600659392672" lon="10.768021182888"><ele>148.0</ele><time>2026-04-18T08:35:14Z</time></trkpt><trkpt lat="43.55594937023405" lon="10.76807765569796"><ele>147.0</ele><time>2026-04-18T08:35:15Z</time></trkpt><trkpt lat="43.555893694953944" lon="10.768171218899653"><ele>146.0</ele><time>2026-04-18T08:35:16Z</time></trkpt><trkpt lat="43.55581139559735" lon="10.768271985866336"><ele>145.0</ele><time>2026-04-18T08:35:17Z</time></trkpt><trkpt lat="43.5557174744861" lon="10.768377862695653"><ele>145.0</ele><time>2026-04-18T08:35:18Z</time></trkpt><trkpt lat="43.55562077036183" lon="10.768505027521384"><ele>145.0</ele><time>2026-04-18T08:35:19Z</time></trkpt><trkpt lat="43.5555072955681" lon="10.768628435700943"><ele>145.0</ele><time>2026-04-18T08:35:20Z</time></trkpt><trkpt lat="43.55540594579787" lon="10.768758497512447"><ele>145.0</ele><time>2026-04-18T08:35:21Z</time></trkpt><trkpt lat="43.55531350430478" lon="10.768875367365046"><ele>143.25</ele><time>2026-04-18T08:35:22Z</time></trkpt><trkpt lat="43.55522102474676" lon="10.769014026992359"><ele>141.5</ele><time>2026-04-18T08:35:23Z</time></trkpt><trkpt lat="43.555129781749855" lon="10.76912812946351"><ele>139.75</ele><time>2026-04-18T08:35:24Z</time></trkpt><trkpt lat="43.55502821137588" lon="10.769234853566592"><ele>138.0</ele><time>2026-04-18T08:35:25Z</time></trkpt><trkpt lat="43.554930674065396" lon="10.769349761601843"><ele>137.4</ele><time>2026-04-18T08:35:26Z</time></trkpt><trkpt lat="43.55484546128692" lon="10.769473491874487"><ele>136.8</ele><time>2026-04-18T08:35:27Z</time></trkpt><trkpt lat="43.5547571383892" lon="10.76957735025819"><ele>136.2</ele><time>2026-04-18T08:35:28Z</time></trkpt><trkpt lat="43.554691482201704" lon="10.769662856771301"><ele>135.6</ele><time>2026-04-18T08:35:29Z</time></trkpt><trkpt lat="43.554632544463686" lon="10.769780852808918"><ele>135.0</ele><time>2026-04-18T08:35:30Z</time></trkpt><trkpt lat="43.554574400080924" lon="10.769916692240562"><ele>136.5</ele><time>2026-04-18T08:35:31Z</time></trkpt><trkpt lat="43.554518261056124" lon="10.770063748509964"><ele>138.0</ele><time>2026-04-18T08:35:32Z</time></trkpt><trkpt lat="43.55446906622492" lon="10.770222617090235"><ele>139.5</ele><time>2026-04-18T08:35:33Z</time></trkpt><trkpt lat="43.55442634175325" lon="10.770378597937711"><ele>141.0</ele><time>2026-04-18T08:35:34Z</time></trkpt><trkpt lat="43.55437061702808" lon="10.770522337268533"><ele>141.2</ele><time>2026-04-18T08:35:35Z</time></trkpt><trkpt lat="43.55432529193778" lon="10.770656041996043"><ele>141.39999999999998</ele><time>2026-04-18T08:35:36Z</time></trkpt><trkpt lat="43.55427846480175" lon="10.770789754371346"><ele>141.6</ele><time>2026-04-18T08:35:37Z</time></trkpt><trkpt lat="43.55422885264727" lon="10.7709339858948"><ele>141.79999999999998</ele><time>2026-04-18T08:35:38Z</time></trkpt><trkpt lat="43.55418988210834" lon="10.771061672844885"><ele>142.0</ele><time>2026-04-18T08:35:39Z</time></trkpt><trkpt lat="43.55414665755369" lon="10.771198199850888"><ele>142.25</ele><time>2026-04-18T08:35:40Z</time></trkpt><trkpt lat="43.55412305256673" lon="10.77134381717506"><ele>142.5</ele><time>2026-04-18T08:35:41Z</time></trkpt><trkpt lat="43.554102272560435" lon="10.771505440257993"><ele>142.75</ele><time>2026-04-18T08:35:42Z</time></trkpt><trkpt lat="43.55410790252828" lon="10.771669817001149"><ele>143.0</ele><time>2026-04-18T08:35:43Z</time></trkpt><trkpt lat="43.554114808024025" lon="10.771839367080123"><ele>142.75</ele><time>2026-04-18T08:35:44Z</time></trkpt><trkpt lat="43.55411435615134" lon="10.772011614804716"><ele>142.5</ele><time>2026-04-18T08:35:45Z</time></trkpt><trkpt lat="43.55411794435533" lon="10.772166460362314"><ele>142.25</ele><time>2026-04-18T08:35:46Z</time></trkpt><trkpt lat="43.55412216155383" lon="10.772325782127368"><ele>142.0</ele><time>2026-04-18T08:35:47Z</time></trkpt><trkpt lat="43.55412542293849" lon="10.772493422627926"><ele>142.0</ele><time>2026-04-18T08:35:48Z</time></trkpt><trkpt lat="43.55412774468884" lon="10.772659465844166"><ele>142.0</ele><time>2026-04-18T08:35:49Z</time></trkpt><trkpt lat="43.5541293753189" lon="10.772828604161825"><ele>142.0</ele><time>2026-04-18T08:35:50Z</time></trkpt><trkpt lat="43.554130399511514" lon="10.772995960024293"><ele>142.0</ele><time>2026-04-18T08:35:51Z</time></trkpt><trkpt lat="43.55413855039617" lon="10.773169172798955"><ele>142.75</ele><time>2026-04-18T08:35:52Z</time></trkpt><trkpt lat="43.55414247424459" lon="10.77333987490282"><ele>143.5</ele><time>2026-04-18T08:35:53Z</time></trkpt><trkpt lat="43.55414760826794" lon="10.773505767365691"><ele>144.25</ele><time>2026-04-18T08:35:54Z</time></trkpt><trkpt lat="43.5541537677916" lon="10.773665722157217"><ele>145.0</ele><time>2026-04-18T08:35:55Z</time></trkpt><trkpt lat="43.554157482936006" lon="10.773829923555727"><ele>146.75</ele><time>2026-04-18T08:35:56Z</time></trkpt><trkpt lat="43.5541535431579" lon="10.774003396204938"><ele>148.5</ele><time>2026-04-18T08:35:57Z</time></trkpt><trkpt lat="43.55415084879978" lon="10.77416698052856"><ele>150.25</ele><time>2026-04-18T08:35:58Z</time></trkpt><trkpt lat="43.554138140902054" lon="10.774308580057003"><ele>152.0</ele><time>2026-04-18T08:35:59Z</time></trkpt><trkpt lat="43.55412484213239" lon="10.774473825819037"><ele>153.6</ele><time>2026-04-18T08:36:00Z</time></trkpt><trkpt lat="43.554100008361246" lon="10.774625626000034"><ele>155.2</ele><time>2026-04-18T08:36:01Z</time></trkpt><trkpt lat="43.55407892431533" lon="10.774768674055606"><ele>156.8</ele><time>2026-04-18T08:36:02Z</time></trkpt><trkpt lat="43.55405999814274" lon="10.77489377216435"><ele>158.4</ele><time>2026-04-18T08:36:03Z</time></trkpt><trkpt lat="43.55404961412857" lon="10.77501606266738"><ele>160.0</ele><time>2026-04-18T08:36:04Z</time></trkpt><trkpt lat="43.55404548216853" lon="10.77514697578732"><ele>160.0</ele><time>2026-04-18T08:36:05Z</time></trkpt><trkpt lat="43.554070909897995" lon="10.775272617610621"><ele>160.0</ele><time>2026-04-18T08:36:06Z</time></trkpt><trkpt lat="43.55413690024435" lon="10.77532187277326"><ele>160.0</ele><time>2026-04-18T08:36:07Z</time></trkpt><trkpt lat="43.55419350886353" lon="10.775391890723533"><ele>160.0</ele><time>2026-04-18T08:36:08Z</time></trkpt><trkpt lat="43.55425444100844" lon="10.775466626208484"><ele>160.0</ele><time>2026-04-18T08:36:09Z</time></trkpt><trkpt lat="43.554324681231456" lon="10.775541125932493"><ele>160.0</ele><time>2026-04-18T08:36:10Z</time></trkpt><trkpt lat="43.55439651623127" lon="10.775613322919716"><ele>160.0</ele><time>2026-04-18T08:36:11Z</time></trkpt><trkpt lat="43.55446312443359" lon="10.775693329408346"><ele>160.0</ele><time>2026-04-18T08:36:12Z</time></trkpt><trkpt lat="43.55452933876715" lon="10.775789663485304"><ele>160.0</ele><time>2026-04-18T08:36:13Z</time></trkpt><trkpt lat="43.55458618547109" lon="10.775900709629001"><ele>160.0</ele><time>2026-04-18T08:36:14Z</time></trkpt><trkpt lat="43.55465498763454" lon="10.776015671946086"><ele>160.0</ele><time>2026-04-18T08:36:15.001Z</time></trkpt><trkpt lat="43.55472707227658" lon="10.776122219732883"><ele>163.5</ele><time>2026-04-18T08:36:16.001Z</time></trkpt><trkpt lat="43.55480303729199" lon="10.776236580538518"><ele>167.0</ele><time>2026-04-18T08:36:17.001Z</time></trkpt><trkpt lat="43.554863446684074" lon="10.776358698773908"><ele>170.5</ele><time>2026-04-18T08:36:18.001Z</time></trkpt><trkpt lat="43.554903945378186" lon="10.776457849980455"><ele>174.0</ele><time>2026-04-18T08:36:19.001Z</time></trkpt><trkpt lat="43.55492805056888" lon="10.776545362566385"><ele>177.5</ele><time>2026-04-18T08:36:20.001Z</time></trkpt><trkpt lat="43.5549375709735" lon="10.7766417541101"><ele>181.0</ele><time>2026-04-18T08:36:21.001Z</time></trkpt><trkpt lat="43.55492205841695" lon="10.776812902949201"><ele>181.83333333333334</ele><time>2026-04-18T08:36:23.001Z</time></trkpt><trkpt lat="43.55491745449777" lon="10.776912856303404"><ele>182.66666666666669</ele><time>2026-04-18T08:36:24.001Z</time></trkpt><trkpt lat="43.55489588627986" lon="10.777017611518648"><ele>183.5</ele><time>2026-04-18T08:36:25.001Z</time></trkpt><trkpt lat="43.55487934716495" lon="10.777119775856844"><ele>184.33333333333334</ele><time>2026-04-18T08:36:26.001Z</time></trkpt><trkpt lat="43.55488360107556" lon="10.777306278798982"><ele>185.16666666666666</ele><time>2026-04-18T08:36:28.001Z</time></trkpt><trkpt lat="43.55488843552272" lon="10.777415426113572"><ele>186.0</ele><time>2026-04-18T08:36:29.001Z</time></trkpt><trkpt lat="43.55491032786592" lon="10.777520373744025"><ele>186.00000000000003</ele><time>2026-04-18T08:36:30.001Z</time></trkpt><trkpt lat="43.55495821465888" lon="10.77761683314094"><ele>186.0</ele><time>2026-04-18T08:36:31.001Z</time></trkpt><trkpt lat="43.55502083182418" lon="10.777680957111356"><ele>186.0</ele><time>2026-04-18T08:36:32.001Z</time></trkpt><trkpt lat="43.5550681558665" lon="10.777742014579546"><ele>186.0</ele><time>2026-04-18T08:36:33.001Z</time></trkpt><trkpt lat="43.55513106029769" lon="10.777795177831601"><ele>186.0</ele><time>2026-04-18T08:36:34.001Z</time></trkpt><trkpt lat="43.55519462709195" lon="10.777835969764608"><ele>186.00000000000003</ele><time>2026-04-18T08:36:35.001Z</time></trkpt><trkpt lat="43.555245127440344" lon="10.777894600367263"><ele>186.0</ele><time>2026-04-18T08:36:36.001Z</time></trkpt><trkpt lat="43.55531720628613" lon="10.77800337604033"><ele>185.5</ele><time>2026-04-18T08:36:38.001Z</time></trkpt><trkpt lat="43.55534939788064" lon="10.778095266426684"><ele>185.0</ele><time>2026-04-18T08:36:40.001Z</time></trkpt><trkpt lat="43.555367274588505" lon="10.77824584361141"><ele>184.5</ele><time>2026-04-18T08:36:42.001Z</time></trkpt><trkpt lat="43.55538036077368" lon="10.778344814606093"><ele>184.0</ele><time>2026-04-18T08:36:43.001Z</time></trkpt><trkpt lat="43.55539727573592" lon="10.778456594444478"><ele>183.5</ele><time>2026-04-18T08:36:44.001Z</time></trkpt><trkpt lat="43.555392822648855" lon="10.778591861529565"><ele>183.0</ele><time>2026-04-18T08:36:45.001Z</time></trkpt><trkpt lat="43.55540077174917" lon="10.778728319653997"><ele>182.4</ele><time>2026-04-18T08:36:46.001Z</time></trkpt><trkpt lat="43.555404049352944" lon="10.778870365797156"><ele>181.8</ele><time>2026-04-18T08:36:47.001Z</time></trkpt><trkpt lat="43.555401643356554" lon="10.779012888258922"><ele>181.2</ele><time>2026-04-18T08:36:48.001Z</time></trkpt><trkpt lat="43.55539868674295" lon="10.77915796262751"><ele>180.6</ele><time>2026-04-18T08:36:49Z</time></trkpt><trkpt lat="43.55541259462872" lon="10.779298996830848"><ele>180.0</ele><time>2026-04-18T08:36:50Z</time></trkpt><trkpt lat="43.55539638945143" lon="10.779442460667111"><ele>179.6</ele><time>2026-04-18T08:36:51Z</time></trkpt><trkpt lat="43.555398207362074" lon="10.779573700246127"><ele>179.2</ele><time>2026-04-18T08:36:52Z</time></trkpt><trkpt lat="43.55540939382276" lon="10.779697693821943"><ele>178.8</ele><time>2026-04-18T08:36:53Z</time></trkpt><trkpt lat="43.555437514401625" lon="10.779833795501995"><ele>178.4</ele><time>2026-04-18T08:36:54Z</time></trkpt><trkpt lat="43.55546974434646" lon="10.77996004064174"><ele>178.0</ele><time>2026-04-18T08:36:55Z</time></trkpt><trkpt lat="43.555512059413076" lon="10.78008596755506"><ele>178.60000000000002</ele><time>2026-04-18T08:36:56Z</time></trkpt><trkpt lat="43.555552088252774" lon="10.780210361649763"><ele>179.20000000000002</ele><time>2026-04-18T08:36:57Z</time></trkpt><trkpt lat="43.55557836098271" lon="10.780340500286956"><ele>179.8</ele><time>2026-04-18T08:36:58Z</time></trkpt><trkpt lat="43.55562753745558" lon="10.780456070611475"><ele>180.4</ele><time>2026-04-18T08:36:59Z</time></trkpt><trkpt lat="43.55566628199194" lon="10.7805757696367"><ele>181.0</ele><time>2026-04-18T08:37:00Z</time></trkpt><trkpt lat="43.55570237696045" lon="10.780691096237147"><ele>181.0</ele><time>2026-04-18T08:37:01Z</time></trkpt><trkpt lat="43.55573045104732" lon="10.78079145477438"><ele>181.0</ele><time>2026-04-18T08:37:02Z</time></trkpt><trkpt lat="43.55575410190959" lon="10.780895511985705"><ele>181.0</ele><time>2026-04-18T08:37:03Z</time></trkpt><trkpt lat="43.555749787713154" lon="10.781012783949244"><ele>181.0</ele><time>2026-04-18T08:37:04Z</time></trkpt><trkpt lat="43.55576874940146" lon="10.781154847796117"><ele>181.0</ele><time>2026-04-18T08:37:05Z</time></trkpt><trkpt lat="43.555773532090775" lon="10.781279846090452"><ele>181.0</ele><time>2026-04-18T08:37:06Z</time></trkpt><trkpt lat="43.55576422196302" lon="10.78140643070184"><ele>181.0</ele><time>2026-04-18T08:37:07Z</time></trkpt><trkpt lat="43.555759572468126" lon="10.781521017777422"><ele>181.0</ele><time>2026-04-18T08:37:08Z</time></trkpt><trkpt lat="43.55575891881289" lon="10.781648979404421"><ele>181.0</ele><time>2026-04-18T08:37:09Z</time></trkpt><trkpt lat="43.55573170831194" lon="10.781741072341118"><ele>181.0</ele><time>2026-04-18T08:37:10Z</time></trkpt><trkpt lat="43.55570997137762" lon="10.781822958529625"><ele>181.0</ele><time>2026-04-18T08:37:11Z</time></trkpt><trkpt lat="43.5556914520771" lon="10.781919834040137"><ele>181.0</ele><time>2026-04-18T08:37:12Z</time></trkpt><trkpt lat="43.55566468788289" lon="10.782008145870813"><ele>179.4</ele><time>2026-04-18T08:37:13Z</time></trkpt><trkpt lat="43.555629539019094" lon="10.782175262602907"><ele>177.8</ele><time>2026-04-18T08:37:15Z</time></trkpt><trkpt lat="43.55561506776349" lon="10.782270449717963"><ele>176.20000000000002</ele><time>2026-04-18T08:37:16Z</time></trkpt><trkpt lat="43.555586490884565" lon="10.7824050036634"><ele>174.60000000000002</ele><time>2026-04-18T08:37:18Z</time></trkpt><trkpt lat="43.55557841306333" lon="10.782565736312971"><ele>173.0</ele><time>2026-04-18T08:37:20Z</time></trkpt><trkpt lat="43.555541620615344" lon="10.782724302664343"><ele>171.0</ele><time>2026-04-18T08:37:22Z</time></trkpt><trkpt lat="43.555529558992774" lon="10.782826395601221"><ele>169.0</ele><time>2026-04-18T08:37:23Z</time></trkpt><trkpt lat="43.555515737400796" lon="10.782968973391428"><ele>167.0</ele><time>2026-04-18T08:37:25Z</time></trkpt><trkpt lat="43.555521902822036" lon="10.783130437952206"><ele>165.0</ele><time>2026-04-18T08:37:27Z</time></trkpt><trkpt lat="43.55551122467463" lon="10.783230102364213"><ele>163.0</ele><time>2026-04-18T08:37:28Z</time></trkpt><trkpt lat="43.55550816685165" lon="10.783376214325287"><ele>161.6</ele><time>2026-04-18T08:37:30Z</time></trkpt><trkpt lat="43.55549443204924" lon="10.783531023514245"><ele>160.20000000000002</ele><time>2026-04-18T08:37:32Z</time></trkpt><trkpt lat="43.55547823906572" lon="10.783687025646568"><ele>158.8</ele><time>2026-04-18T08:37:34Z</time></trkpt><trkpt lat="43.5554480762534" lon="10.783840752785826"><ele>157.4</ele><time>2026-04-18T08:37:36Z</time></trkpt><trkpt lat="43.5554513351089" lon="10.78397415624281"><ele>156.0</ele><time>2026-04-18T08:37:38Z</time></trkpt><trkpt lat="43.55545521510247" lon="10.784104086911503"><ele>156.0</ele><time>2026-04-18T08:37:40Z</time></trkpt><trkpt lat="43.5554822322131" lon="10.784260152051518"><ele>156.0</ele><time>2026-04-18T08:37:42Z</time></trkpt><trkpt lat="43.555534469940824" lon="10.784418983472905"><ele>156.0</ele><time>2026-04-18T08:37:44Z</time></trkpt><trkpt lat="43.55556081924591" lon="10.78450637566555"><ele>156.0</ele><time>2026-04-18T08:37:45Z</time></trkpt><trkpt lat="43.55558856451438" lon="10.784585620776257"><ele>156.0</ele><time>2026-04-18T08:37:46Z</time></trkpt><trkpt lat="43.555616002123635" lon="10.784665441765114"><ele>156.0</ele><time>2026-04-18T08:37:47Z</time></trkpt><trkpt lat="43.55564576868083" lon="10.784744836401154"><ele>156.14285714285714</ele><time>2026-04-18T08:37:48Z</time></trkpt><trkpt lat="43.55567457863746" lon="10.784826873426747"><ele>156.28571428571428</ele><time>2026-04-18T08:37:49Z</time></trkpt><trkpt lat="43.55570017971984" lon="10.784909900003957"><ele>156.42857142857142</ele><time>2026-04-18T08:37:50Z</time></trkpt><trkpt lat="43.55571821797187" lon="10.784998500722299"><ele>156.57142857142856</ele><time>2026-04-18T08:37:51Z</time></trkpt><trkpt lat="43.55572255565197" lon="10.785098758169827"><ele>156.71428571428572</ele><time>2026-04-18T08:37:52Z</time></trkpt><trkpt lat="43.55571616279863" lon="10.785200636986849"><ele>156.85714285714283</ele><time>2026-04-18T08:37:53Z</time></trkpt><trkpt lat="43.55569826817139" lon="10.785291282350233"><ele>157.0</ele><time>2026-04-18T08:37:54Z</time></trkpt><trkpt lat="43.555681669541364" lon="10.785383723038475"><ele>157.0</ele><time>2026-04-18T08:37:55Z</time></trkpt><trkpt lat="43.55566287170801" lon="10.785470918861298"><ele>157.0</ele><time>2026-04-18T08:37:56Z</time></trkpt><trkpt lat="43.555621699651454" lon="10.785624278954794"><ele>157.0</ele><time>2026-04-18T08:37:58Z</time></trkpt><trkpt lat="43.555616734472075" lon="10.785791113776066"><ele>157.0</ele><time>2026-04-18T08:38:00Z</time></trkpt><trkpt lat="43.555636969404404" lon="10.785875759197067"><ele>157.0</ele><time>2026-04-18T08:38:01Z</time></trkpt><trkpt lat="43.55567782635412" lon="10.785942508162318"><ele>157.0</ele><time>2026-04-18T08:38:02Z</time></trkpt><trkpt lat="43.555738246128506" lon="10.785995389990315"><ele>156.83333333333334</ele><time>2026-04-18T08:38:03Z</time></trkpt><trkpt lat="43.55580220974156" lon="10.786049432687898"><ele>156.66666666666669</ele><time>2026-04-18T08:38:04Z</time></trkpt><trkpt lat="43.55587159854495" lon="10.786111355776425"><ele>156.5</ele><time>2026-04-18T08:38:05Z</time></trkpt><trkpt lat="43.555936497376635" lon="10.786188920386655"><ele>156.33333333333334</ele><time>2026-04-18T08:38:06Z</time></trkpt><trkpt lat="43.55599996800671" lon="10.78625200582705"><ele>156.16666666666666</ele><time>2026-04-18T08:38:07Z</time></trkpt><trkpt lat="43.556060682265795" lon="10.786323285337042"><ele>156.0</ele><time>2026-04-18T08:38:08Z</time></trkpt><trkpt lat="43.556129180426986" lon="10.786381836610724"><ele>156.0</ele><time>2026-04-18T08:38:09Z</time></trkpt><trkpt lat="43.55618516599921" lon="10.78646384970962"><ele>156.0</ele><time>2026-04-18T08:38:10Z</time></trkpt><trkpt lat="43.55622506239488" lon="10.786560355307573"><ele>156.0</ele><time>2026-04-18T08:38:11Z</time></trkpt><trkpt lat="43.55628476805914" lon="10.786624340852958"><ele>156.0</ele><time>2026-04-18T08:38:12Z</time></trkpt><trkpt lat="43.55632379941707" lon="10.786718616561703"><ele>156.0</ele><time>2026-04-18T08:38:13Z</time></trkpt><trkpt lat="43.556382648260566" lon="10.786776292781513"><ele>156.0</ele><time>2026-04-18T08:38:14Z</time></trkpt><trkpt lat="43.556427045005904" lon="10.786846605093256"><ele>155.42857142857144</ele><time>2026-04-18T08:38:15Z</time></trkpt><trkpt lat="43.55646664623224" lon="10.786914142440716"><ele>154.85714285714283</ele><time>2026-04-18T08:38:16Z</time></trkpt><trkpt lat="43.55650739020918" lon="10.786980992403967"><ele>154.28571428571428</ele><time>2026-04-18T08:38:17Z</time></trkpt><trkpt lat="43.55654960464286" lon="10.787053371673325"><ele>153.71428571428572</ele><time>2026-04-18T08:38:18Z</time></trkpt><trkpt lat="43.55659269051146" lon="10.787125433245249"><ele>153.14285714285717</ele><time>2026-04-18T08:38:19Z</time></trkpt><trkpt lat="43.55663624259409" lon="10.787203879984572"><ele>152.57142857142856</ele><time>2026-04-18T08:38:20Z</time></trkpt><trkpt lat="43.556684281287" lon="10.787291401741832"><ele>152.0</ele><time>2026-04-18T08:38:21Z</time></trkpt><trkpt lat="43.556735857489755" lon="10.787384048343394"><ele>152.0</ele><time>2026-04-18T08:38:22Z</time></trkpt><trkpt lat="43.55678525787472" lon="10.787485033173798"><ele>152.0</ele><time>2026-04-18T08:38:23Z</time></trkpt><trkpt lat="43.556812648907496" lon="10.78760950108486"><ele>152.0</ele><time>2026-04-18T08:38:24Z</time></trkpt><trkpt lat="43.55684991248303" lon="10.787732841491486"><ele>152.0</ele><time>2026-04-18T08:38:25Z</time></trkpt><trkpt lat="43.55689358092057" lon="10.787830848190085"><ele>152.0</ele><time>2026-04-18T08:38:26Z</time></trkpt><trkpt lat="43.556918468153235" lon="10.78793475438425"><ele>152.0</ele><time>2026-04-18T08:38:27Z</time></trkpt><trkpt lat="43.556946182802115" lon="10.788037835803982"><ele>152.66666666666666</ele><time>2026-04-18T08:38:28Z</time></trkpt><trkpt lat="43.55697260970712" lon="10.788133108298776"><ele>153.33333333333331</ele><time>2026-04-18T08:38:29Z</time></trkpt><trkpt lat="43.55699937465848" lon="10.788220393102597"><ele>154.0</ele><time>2026-04-18T08:38:30Z</time></trkpt><trkpt lat="43.55702826027419" lon="10.788302007779713"><ele>154.66666666666666</ele><time>2026-04-18T08:38:31Z</time></trkpt><trkpt lat="43.557060116273114" lon="10.78838522699762"><ele>155.33333333333334</ele><time>2026-04-18T08:38:32Z</time></trkpt><trkpt lat="43.5570917190733" lon="10.788462991375225"><ele>156.0</ele><time>2026-04-18T08:38:33Z</time></trkpt><trkpt lat="43.55715731062415" lon="10.788600894643713"><ele>156.0</ele><time>2026-04-18T08:38:35Z</time></trkpt><trkpt lat="43.55722200568803" lon="10.788750470227166"><ele>156.0</ele><time>2026-04-18T08:38:37Z</time></trkpt><trkpt lat="43.55726118899556" lon="10.788822572801921"><ele>156.0</ele><time>2026-04-18T08:38:38Z</time></trkpt><trkpt lat="43.55729492941225" lon="10.788913105862658"><ele>156.0</ele><time>2026-04-18T08:38:39Z</time></trkpt><trkpt lat="43.55732481077729" lon="10.789012284957325"><ele>156.0</ele><time>2026-04-18T08:38:40Z</time></trkpt><trkpt lat="43.55734726437028" lon="10.789111197062525"><ele>156.0</ele><time>2026-04-18T08:38:41Z</time></trkpt><trkpt lat="43.55735609780162" lon="10.789208833842746"><ele>156.0</ele><time>2026-04-18T08:38:42Z</time></trkpt><trkpt lat="43.557363971579285" lon="10.789314321349249"><ele>156.0</ele><time>2026-04-18T08:38:43Z</time></trkpt><trkpt lat="43.557369060297354" lon="10.789420677030245"><ele>156.0</ele><time>2026-04-18T08:38:44.001Z</time></trkpt><trkpt lat="43.55737594184529" lon="10.789534500562343"><ele>156.0</ele><time>2026-04-18T08:38:45.001Z</time></trkpt><trkpt lat="43.55739657619835" lon="10.789649410613226"><ele>156.0</ele><time>2026-04-18T08:38:46.001Z</time></trkpt><trkpt lat="43.557418539266365" lon="10.78974958726849"><ele>156.0</ele><time>2026-04-18T08:38:47.001Z</time></trkpt><trkpt lat="43.55747876695058" lon="10.789903702007118"><ele>155.33333333333334</ele><time>2026-04-18T08:38:49.001Z</time></trkpt><trkpt lat="43.55751402306097" lon="10.789979814973035"><ele>154.66666666666666</ele><time>2026-04-18T08:38:50.001Z</time></trkpt><trkpt lat="43.55755759539099" lon="10.790059114863178"><ele>154.0</ele><time>2026-04-18T08:38:51.001Z</time></trkpt><trkpt lat="43.55760565394491" lon="10.790136434028106"><ele>153.33333333333331</ele><time>2026-04-18T08:38:52.001Z</time></trkpt><trkpt lat="43.5576551461208" lon="10.790219917914992"><ele>152.66666666666666</ele><time>2026-04-18T08:38:53.001Z</time></trkpt><trkpt lat="43.557698251598914" lon="10.79031614854663"><ele>152.0</ele><time>2026-04-18T08:38:54.001Z</time></trkpt><trkpt lat="43.55774770277996" lon="10.79039960913502"><ele>150.5</ele><time>2026-04-18T08:38:55Z</time></trkpt><trkpt lat="43.55778663046902" lon="10.790484940705033"><ele>149.0</ele><time>2026-04-18T08:38:56Z</time></trkpt><trkpt lat="43.55782946017951" lon="10.79056634898187"><ele>147.5</ele><time>2026-04-18T08:38:57Z</time></trkpt><trkpt lat="43.55786324976259" lon="10.790642038458053"><ele>146.0</ele><time>2026-04-18T08:38:58Z</time></trkpt><trkpt lat="43.5579432776899" lon="10.79079113954461"><ele>144.5</ele><time>2026-04-18T08:39:00Z</time></trkpt><trkpt lat="43.55798238938868" lon="10.79087738209533"><ele>143.0</ele><time>2026-04-18T08:39:01Z</time></trkpt><trkpt lat="43.558014584819006" lon="10.790976113095745"><ele>142.28571428571428</ele><time>2026-04-18T08:39:02Z</time></trkpt><trkpt lat="43.558043981361344" lon="10.791081369118363"><ele>141.57142857142856</ele><time>2026-04-18T08:39:03Z</time></trkpt><trkpt lat="43.55806123360614" lon="10.791183774618897"><ele>140.85714285714286</ele><time>2026-04-18T08:39:04Z</time></trkpt><trkpt lat="43.558067658915164" lon="10.79128541885441"><ele>140.14285714285714</ele><time>2026-04-18T08:39:05Z</time></trkpt><trkpt lat="43.558064525843186" lon="10.791393436306821"><ele>139.42857142857144</ele><time>2026-04-18T08:39:06Z</time></trkpt><trkpt lat="43.55804975429133" lon="10.791488599339486"><ele>138.71428571428572</ele><time>2026-04-18T08:39:07Z</time></trkpt><trkpt lat="43.55803969220313" lon="10.79157752420628"><ele>138.0</ele><time>2026-04-18T08:39:08Z</time></trkpt><trkpt lat="43.55802004206373" lon="10.791676515655555"><ele>138.0</ele><time>2026-04-18T08:39:09Z</time></trkpt><trkpt lat="43.55799472476578" lon="10.791773685450337"><ele>138.0</ele><time>2026-04-18T08:39:10Z</time></trkpt><trkpt lat="43.55795780046585" lon="10.791864821804282"><ele>138.0</ele><time>2026-04-18T08:39:11Z</time></trkpt><trkpt lat="43.55791318120806" lon="10.791949454960204"><ele>138.0</ele><time>2026-04-18T08:39:12Z</time></trkpt><trkpt lat="43.55785901590792" lon="10.792018222724803"><ele>138.0</ele><time>2026-04-18T08:39:13Z</time></trkpt><trkpt lat="43.5578201518376" lon="10.792105143297583"><ele>138.0</ele><time>2026-04-18T08:39:14Z</time></trkpt><trkpt lat="43.557794611551735" lon="10.79220503693011"><ele>138.5</ele><time>2026-04-18T08:39:15Z</time></trkpt><trkpt lat="43.55779121587174" lon="10.79230490884721"><ele>139.0</ele><time>2026-04-18T08:39:16Z</time></trkpt><trkpt lat="43.55780679389186" lon="10.792395750531098"><ele>139.5</ele><time>2026-04-18T08:39:17Z</time></trkpt><trkpt lat="43.55784827961199" lon="10.792496873773425"><ele>140.0</ele><time>2026-04-18T08:39:18Z</time></trkpt><trkpt lat="43.55787224652673" lon="10.792597134600195"><ele>140.5</ele><time>2026-04-18T08:39:19Z</time></trkpt><trkpt lat="43.55790030942423" lon="10.792700066300572"><ele>141.0</ele><time>2026-04-18T08:39:20Z</time></trkpt><trkpt lat="43.55792603429209" lon="10.792803207107493"><ele>142.66666666666666</ele><time>2026-04-18T08:39:21Z</time></trkpt><trkpt lat="43.55794979618656" lon="10.792897443462493"><ele>144.33333333333334</ele><time>2026-04-18T08:39:22Z</time></trkpt><trkpt lat="43.55797054473169" lon="10.79299967401133"><ele>146.0</ele><time>2026-04-18T08:39:23Z</time></trkpt><trkpt lat="43.55799470377728" lon="10.793101014275738"><ele>147.66666666666669</ele><time>2026-04-18T08:39:24Z</time></trkpt><trkpt lat="43.558021929423596" lon="10.793202066666494"><ele>149.33333333333334</ele><time>2026-04-18T08:39:25Z</time></trkpt><trkpt lat="43.558049722991214" lon="10.793302477027774"><ele>151.0</ele><time>2026-04-18T08:39:26Z</time></trkpt><trkpt lat="43.558076537741286" lon="10.793398631889495"><ele>151.00000000000003</ele><time>2026-04-18T08:39:27Z</time></trkpt><trkpt lat="43.55809989306879" lon="10.79348722102076"><ele>151.0</ele><time>2026-04-18T08:39:28Z</time></trkpt><trkpt lat="43.55812534230082" lon="10.79357761340443"><ele>151.0</ele><time>2026-04-18T08:39:29Z</time></trkpt><trkpt lat="43.55814703431368" lon="10.793661460360966"><ele>151.0</ele><time>2026-04-18T08:39:30Z</time></trkpt><trkpt lat="43.55816336044855" lon="10.793757680159496"><ele>151.0</ele><time>2026-04-18T08:39:31Z</time></trkpt><trkpt lat="43.55817293790613" lon="10.793846356910535"><ele>151.00000000000003</ele><time>2026-04-18T08:39:32Z</time></trkpt><trkpt lat="43.55817946365494" lon="10.793934942665725"><ele>151.0</ele><time>2026-04-18T08:39:33Z</time></trkpt><trkpt lat="43.558184645710604" lon="10.794023754665355"><ele>150.85714285714286</ele><time>2026-04-18T08:39:34Z</time></trkpt><trkpt lat="43.55819415732021" lon="10.79411369890162"><ele>150.71428571428572</ele><time>2026-04-18T08:39:35Z</time></trkpt><trkpt lat="43.558211098637514" lon="10.794206864633745"><ele>150.57142857142856</ele><time>2026-04-18T08:39:36Z</time></trkpt><trkpt lat="43.558234376789635" lon="10.79429838270446"><ele>150.42857142857144</ele><time>2026-04-18T08:39:37Z</time></trkpt><trkpt lat="43.558272986132344" lon="10.79438640292384"><ele>150.28571428571428</ele><time>2026-04-18T08:39:38Z</time></trkpt><trkpt lat="43.558323407374196" lon="10.794473784919226"><ele>150.14285714285714</ele><time>2026-04-18T08:39:39Z</time></trkpt><trkpt lat="43.5583754447739" lon="10.794564049578476"><ele>150.0</ele><time>2026-04-18T08:39:40Z</time></trkpt><trkpt lat="43.55842418743828" lon="10.794659593946992"><ele>150.16666666666666</ele><time>2026-04-18T08:39:41Z</time></trkpt><trkpt lat="43.55847025970324" lon="10.79476121781174"><ele>150.33333333333334</ele><time>2026-04-18T08:39:42Z</time></trkpt><trkpt lat="43.55851498906615" lon="10.794860625819425"><ele>150.5</ele><time>2026-04-18T08:39:43Z</time></trkpt><trkpt lat="43.55855963254477" lon="10.79496188937151"><ele>150.66666666666669</ele><time>2026-04-18T08:39:44Z</time></trkpt><trkpt lat="43.55861518546541" lon="10.795060516045956"><ele>150.83333333333334</ele><time>2026-04-18T08:39:45Z</time></trkpt><trkpt lat="43.55866550312029" lon="10.795149700918476"><ele>151.0</ele><time>2026-04-18T08:39:46Z</time></trkpt><trkpt lat="43.558720932435676" lon="10.795232858116849"><ele>151.0</ele><time>2026-04-18T08:39:47Z</time></trkpt><trkpt lat="43.55877810955733" lon="10.795306799802606"><ele>151.0</ele><time>2026-04-18T08:39:48Z</time></trkpt><trkpt lat="43.55883841989591" lon="10.795378071404258"><ele>151.0</ele><time>2026-04-18T08:39:49Z</time></trkpt><trkpt lat="43.55889877717786" lon="10.795447071025018"><ele>151.0</ele><time>2026-04-18T08:39:50Z</time></trkpt><trkpt lat="43.55896010659037" lon="10.795505600789015"><ele>151.0</ele><time>2026-04-18T08:39:51Z</time></trkpt><trkpt lat="43.559021604990704" lon="10.79555721169018"><ele>151.0</ele><time>2026-04-18T08:39:52Z</time></trkpt><trkpt lat="43.55908143086137" lon="10.795606376136275"><ele>151.0</ele><time>2026-04-18T08:39:53Z</time></trkpt><trkpt lat="43.55919147001158" lon="10.795693312111709"><ele>151.0</ele><time>2026-04-18T08:39:55Z</time></trkpt><trkpt lat="43.559300047420884" lon="10.795784581634079"><ele>151.0</ele><time>2026-04-18T08:39:57Z</time></trkpt><trkpt lat="43.55935978643926" lon="10.795841681736135"><ele>151.0</ele><time>2026-04-18T08:39:58Z</time></trkpt><trkpt lat="43.55942189455175" lon="10.79590989684842"><ele>151.0</ele><time>2026-04-18T08:39:59Z</time></trkpt><trkpt lat="43.55947498462597" lon="10.795995809419736"><ele>150.16666666666669</ele><time>2026-04-18T08:40:00Z</time></trkpt><trkpt lat="43.55951617312023" lon="10.796070096541222"><ele>149.33333333333334</ele><time>2026-04-18T08:40:01Z</time></trkpt><trkpt lat="43.55955397755792" lon="10.796147995771154"><ele>148.5</ele><time>2026-04-18T08:40:02Z</time></trkpt><trkpt lat="43.55962249814209" lon="10.796282444635212"><ele>147.66666666666666</ele><time>2026-04-18T08:40:04Z</time></trkpt><trkpt lat="43.55968020599072" lon="10.796398657328213"><ele>146.83333333333331</ele><time>2026-04-18T08:40:06Z</time></trkpt><trkpt lat="43.55973503072116" lon="10.796489441498355"><ele>146.0</ele><time>2026-04-18T08:40:08Z</time></trkpt><trkpt lat="43.55978663785255" lon="10.796574897896237"><ele>148.2</ele><time>2026-04-18T08:40:10Z</time></trkpt><trkpt lat="43.559843600658304" lon="10.79666922278771"><ele>150.39999999999998</ele><time>2026-04-18T08:40:12Z</time></trkpt><trkpt lat="43.55990056597971" lon="10.796763551913568"><ele>152.6</ele><time>2026-04-18T08:40:14Z</time></trkpt><trkpt lat="43.55997408091294" lon="10.796851567962504"><ele>154.79999999999998</ele><time>2026-04-18T08:40:16Z</time></trkpt><trkpt lat="43.56005038551725" lon="10.79698910589391"><ele>157.0</ele><time>2026-04-18T08:40:18Z</time></trkpt><trkpt lat="43.560123378740734" lon="10.797112006279384"><ele>157.0</ele><time>2026-04-18T08:40:20Z</time></trkpt><trkpt lat="43.560201919755244" lon="10.797235020368756"><ele>157.0</ele><time>2026-04-18T08:40:22Z</time></trkpt><trkpt lat="43.560285494584235" lon="10.797327811794226"><ele>157.0</ele><time>2026-04-18T08:40:24Z</time></trkpt><trkpt lat="43.56037082830575" lon="10.79738422492537"><ele>157.0</ele><time>2026-04-18T08:40:26Z</time></trkpt><trkpt lat="43.56045282387621" lon="10.797443891301914"><ele>157.0</ele><time>2026-04-18T08:40:28Z</time></trkpt><trkpt lat="43.560535835340524" lon="10.797472108692364"><ele>159.2</ele><time>2026-04-18T08:40:30Z</time></trkpt><trkpt lat="43.56062477918295" lon="10.79747177334384"><ele>161.39999999999998</ele><time>2026-04-18T08:40:32Z</time></trkpt><trkpt lat="43.560716724183216" lon="10.79747625574351"><ele>163.60000000000002</ele><time>2026-04-18T08:40:34.001Z</time></trkpt><trkpt lat="43.56080408867176" lon="10.797495595104975"><ele>165.8</ele><time>2026-04-18T08:40:36.001Z</time></trkpt><trkpt lat="43.56089587457692" lon="10.797490611580926"><ele>168.0</ele><time>2026-04-18T08:40:38.001Z</time></trkpt><trkpt lat="43.560989016487305" lon="10.797460485305168"><ele>168.0</ele><time>2026-04-18T08:40:40.001Z</time></trkpt><trkpt lat="43.56109584799903" lon="10.79746152045237"><ele>168.0</ele><time>2026-04-18T08:40:42.001Z</time></trkpt><trkpt lat="43.561202242596885" lon="10.797496694916509"><ele>168.0</ele><time>2026-04-18T08:40:44.001Z</time></trkpt><trkpt lat="43.56131794981831" lon="10.797524215921957"><ele>168.0</ele><time>2026-04-18T08:40:46.001Z</time></trkpt><trkpt lat="43.561420998271714" lon="10.797550984973324"><ele>168.0</ele><time>2026-04-18T08:40:48.001Z</time></trkpt><trkpt lat="43.56151501238232" lon="10.797577487137879"><ele>168.0</ele><time>2026-04-18T08:40:50.001Z</time></trkpt><trkpt lat="43.56161387283931" lon="10.797606096292958"><ele>168.0</ele><time>2026-04-18T08:40:52.001Z</time></trkpt><trkpt lat="43.561706842218214" lon="10.797614446906671"><ele>168.0</ele><time>2026-04-18T08:40:54.001Z</time></trkpt><trkpt lat="43.56180419917807" lon="10.797646915733631"><ele>168.0</ele><time>2026-04-18T08:40:56.001Z</time></trkpt><trkpt lat="43.561915874412044" lon="10.797685253667057"><ele>168.0</ele><time>2026-04-18T08:40:58.001Z</time></trkpt><trkpt lat="43.562030623242165" lon="10.797723423680763"><ele>170.0</ele><time>2026-04-18T08:41:00.001Z</time></trkpt><trkpt lat="43.56214076622218" lon="10.797770765050933"><ele>172.0</ele><time>2026-04-18T08:41:02Z</time></trkpt><trkpt lat="43.56225661686063" lon="10.797842324815662"><ele>174.0</ele><time>2026-04-18T08:41:04Z</time></trkpt><trkpt lat="43.56236602243197" lon="10.797932182034272"><ele>176.0</ele><time>2026-04-18T08:41:06Z</time></trkpt><trkpt lat="43.562413056283425" lon="10.798001360350097"><ele>178.0</ele><time>2026-04-18T08:41:07Z</time></trkpt><trkpt lat="43.562465205289826" lon="10.798054337383373"><ele>177.99999999999997</ele><time>2026-04-18T08:41:08Z</time></trkpt><trkpt lat="43.56251807088102" lon="10.798111827354484"><ele>178.0</ele><time>2026-04-18T08:41:09Z</time></trkpt><trkpt lat="43.562575603476276" lon="10.798175990454563"><ele>178.0</ele><time>2026-04-18T08:41:10Z</time></trkpt><trkpt lat="43.56263030110511" lon="10.798236991709143"><ele>178.0</ele><time>2026-04-18T08:41:11Z</time></trkpt><trkpt lat="43.56269593652806" lon="10.798279736264924"><ele>178.0</ele><time>2026-04-18T08:41:12Z</time></trkpt><trkpt lat="43.5627500705662" lon="10.79833563217734"><ele>177.99999999999997</ele><time>2026-04-18T08:41:13Z</time></trkpt><trkpt lat="43.562800215636734" lon="10.79839052593854"><ele>178.0</ele><time>2026-04-18T08:41:14Z</time></trkpt><trkpt lat="43.562890336640926" lon="10.798478245783464"><ele>180.2</ele><time>2026-04-18T08:41:16Z</time></trkpt><trkpt lat="43.56299171779808" lon="10.798552499326984"><ele>182.4</ele><time>2026-04-18T08:41:18Z</time></trkpt><trkpt lat="43.563081924981674" lon="10.798626105848207"><ele>184.6</ele><time>2026-04-18T08:41:20Z</time></trkpt><trkpt lat="43.56317490691972" lon="10.798702345522301"><ele>186.79999999999998</ele><time>2026-04-18T08:41:22Z</time></trkpt><trkpt lat="43.56324670434015" lon="10.79877810039981"><ele>189.0</ele><time>2026-04-18T08:41:24Z</time></trkpt><trkpt lat="43.56331971439265" lon="10.79885660601538"><ele>189.0</ele><time>2026-04-18T08:41:26Z</time></trkpt><trkpt lat="43.56341442082198" lon="10.798923305248062"><ele>189.0</ele><time>2026-04-18T08:41:28Z</time></trkpt><trkpt lat="43.56350562750395" lon="10.79899947219553"><ele>189.0</ele><time>2026-04-18T08:41:30Z</time></trkpt><trkpt lat="43.563588746564996" lon="10.799093436391221"><ele>189.0</ele><time>2026-04-18T08:41:32Z</time></trkpt><trkpt lat="43.563686381228095" lon="10.799203749793875"><ele>189.0</ele><time>2026-04-18T08:41:34Z</time></trkpt><trkpt lat="43.56372997647923" lon="10.79927611332595"><ele>188.2</ele><time>2026-04-18T08:41:35Z</time></trkpt><trkpt lat="43.56376224694337" lon="10.799353376439903"><ele>187.39999999999998</ele><time>2026-04-18T08:41:36Z</time></trkpt><trkpt lat="43.56379946497876" lon="10.799508951305215"><ele>186.6</ele><time>2026-04-18T08:41:38Z</time></trkpt><trkpt lat="43.56383272104928" lon="10.799660810578553"><ele>185.8</ele><time>2026-04-18T08:41:40Z</time></trkpt><trkpt lat="43.56390776879691" lon="10.799791902625028"><ele>185.0</ele><time>2026-04-18T08:41:42Z</time></trkpt><trkpt lat="43.564006176985345" lon="10.799892812920387"><ele>185.0</ele><time>2026-04-18T08:41:44Z</time></trkpt><trkpt lat="43.56410103783435" lon="10.799971559834358"><ele>185.0</ele><time>2026-04-18T08:41:46Z</time></trkpt><trkpt lat="43.564190417790776" lon="10.800044726369137"><ele>185.0</ele><time>2026-04-18T08:41:48Z</time></trkpt><trkpt lat="43.56424994693695" lon="10.800074912037234"><ele>185.0</ele><time>2026-04-18T08:41:49Z</time></trkpt><trkpt lat="43.564377266782756" lon="10.800143190258806"><ele>185.0</ele><time>2026-04-18T08:41:51Z</time></trkpt><trkpt lat="43.56445438650323" lon="10.800173683344228"><ele>184.16666666666666</ele><time>2026-04-18T08:41:52Z</time></trkpt><trkpt lat="43.564526152185955" lon="10.800211787253783"><ele>183.33333333333331</ele><time>2026-04-18T08:41:53Z</time></trkpt><trkpt lat="43.5645978078975" lon="10.800250643747683"><ele>182.5</ele><time>2026-04-18T08:41:54Z</time></trkpt><trkpt lat="43.56467332807573" lon="10.80028649511872"><ele>181.66666666666666</ele><time>2026-04-18T08:41:55Z</time></trkpt><trkpt lat="43.56474774379321" lon="10.800324717946557"><ele>180.83333333333334</ele><time>2026-04-18T08:41:56Z</time></trkpt><trkpt lat="43.56482455153812" lon="10.800364179920093"><ele>180.0</ele><time>2026-04-18T08:41:57Z</time></trkpt><trkpt lat="43.5649005380783" lon="10.800401801179328"><ele>180.0</ele><time>2026-04-18T08:41:58Z</time></trkpt><trkpt lat="43.5649757171639" lon="10.800433914919472"><ele>180.0</ele><time>2026-04-18T08:41:59Z</time></trkpt><trkpt lat="43.56505092344156" lon="10.8004489906893"><ele>180.0</ele><time>2026-04-18T08:42:00Z</time></trkpt><trkpt lat="43.56512296160965" lon="10.800450017631093"><ele>180.0</ele><time>2026-04-18T08:42:01Z</time></trkpt><trkpt lat="43.565186326520084" lon="10.80044317699318"><ele>180.0</ele><time>2026-04-18T08:42:02Z</time></trkpt><trkpt lat="43.56528905588208" lon="10.800427972602908"><ele>180.0</ele><time>2026-04-18T08:42:04Z</time></trkpt><trkpt lat="43.565456422849024" lon="10.800456671223674"><ele>180.33333333333334</ele><time>2026-04-18T08:42:07Z</time></trkpt><trkpt lat="43.56552563196085" lon="10.80049403350445"><ele>180.66666666666666</ele><time>2026-04-18T08:42:08Z</time></trkpt><trkpt lat="43.56559028972757" lon="10.800559507012355"><ele>181.0</ele><time>2026-04-18T08:42:09Z</time></trkpt><trkpt lat="43.56564712170134" lon="10.800644110198169"><ele>181.33333333333331</ele><time>2026-04-18T08:42:10Z</time></trkpt><trkpt lat="43.56570669237706" lon="10.800734332622937"><ele>181.66666666666666</ele><time>2026-04-18T08:42:11Z</time></trkpt><trkpt lat="43.565778232723574" lon="10.800818838493132"><ele>182.0</ele><time>2026-04-18T08:42:12Z</time></trkpt><trkpt lat="43.56585326783406" lon="10.800899040116262"><ele>182.0</ele><time>2026-04-18T08:42:13Z</time></trkpt><trkpt lat="43.565936213914014" lon="10.800972650959658"><ele>182.0</ele><time>2026-04-18T08:42:14Z</time></trkpt><trkpt lat="43.56601475467627" lon="10.801037584474226"><ele>182.0</ele><time>2026-04-18T08:42:15Z</time></trkpt><trkpt lat="43.56611281047323" lon="10.801098812853166"><ele>182.0</ele><time>2026-04-18T08:42:16Z</time></trkpt><trkpt lat="43.566213278083076" lon="10.801162238871898"><ele>182.0</ele><time>2026-04-18T08:42:17Z</time></trkpt><trkpt lat="43.566315121645495" lon="10.801226311949499"><ele>182.2</ele><time>2026-04-18T08:42:18Z</time></trkpt><trkpt lat="43.56641387023763" lon="10.801287688383214"><ele>182.39999999999998</ele><time>2026-04-18T08:42:19Z</time></trkpt><trkpt lat="43.566506484498284" lon="10.801345523488186"><ele>182.60000000000002</ele><time>2026-04-18T08:42:20Z</time></trkpt><trkpt lat="43.56659322111808" lon="10.801406047630188"><ele>182.8</ele><time>2026-04-18T08:42:21Z</time></trkpt><trkpt lat="43.56668198787409" lon="10.80145905127163"><ele>183.0</ele><time>2026-04-18T08:42:22Z</time></trkpt><trkpt lat="43.566774171460494" lon="10.801513375409884"><ele>183.0</ele><time>2026-04-18T08:42:23Z</time></trkpt><trkpt lat="43.56687136207081" lon="10.801569891057119"><ele>183.0</ele><time>2026-04-18T08:42:24Z</time></trkpt><trkpt lat="43.56696577540266" lon="10.80162507997463"><ele>183.0</ele><time>2026-04-18T08:42:25Z</time></trkpt><trkpt lat="43.56706095247633" lon="10.801675540392456"><ele>183.0</ele><time>2026-04-18T08:42:26Z</time></trkpt><trkpt lat="43.56715632207953" lon="10.801725401045609"><ele>183.0</ele><time>2026-04-18T08:42:27Z</time></trkpt><trkpt lat="43.56724994145439" lon="10.801779937591727"><ele>183.0</ele><time>2026-04-18T08:42:28Z</time></trkpt><trkpt lat="43.56734998865729" lon="10.801820491288325"><ele>183.0</ele><time>2026-04-18T08:42:29Z</time></trkpt><trkpt lat="43.56744527744368" lon="10.801848459204495"><ele>183.0</ele><time>2026-04-18T08:42:30Z</time></trkpt><trkpt lat="43.56754086974023" lon="10.8018729310966"><ele>183.0</ele><time>2026-04-18T08:42:31Z</time></trkpt><trkpt lat="43.56764168567661" lon="10.801879663959339"><ele>183.0</ele><time>2026-04-18T08:42:32Z</time></trkpt><trkpt lat="43.5677448392521" lon="10.80189293161169"><ele>183.0</ele><time>2026-04-18T08:42:33Z</time></trkpt><trkpt lat="43.56785733885379" lon="10.801902609135105"><ele>183.0</ele><time>2026-04-18T08:42:34Z</time></trkpt><trkpt lat="43.56797534322714" lon="10.801910637609092"><ele>183.0</ele><time>2026-04-18T08:42:35Z</time></trkpt><trkpt lat="43.56810389607235" lon="10.801917748002692"><ele>183.0</ele><time>2026-04-18T08:42:36Z</time></trkpt><trkpt lat="43.56823681074323" lon="10.801926200904798"><ele>182.5</ele><time>2026-04-18T08:42:37Z</time></trkpt><trkpt lat="43.56836953791313" lon="10.801933724012208"><ele>182.0</ele><time>2026-04-18T08:42:38Z</time></trkpt><trkpt lat="43.56849905663758" lon="10.80194111841125"><ele>181.5</ele><time>2026-04-18T08:42:39Z</time></trkpt><trkpt lat="43.56862618701125" lon="10.8019509425328"><ele>181.0</ele><time>2026-04-18T08:42:40Z</time></trkpt><trkpt lat="43.56874535242842" lon="10.801954876083155"><ele>183.60000000000002</ele><time>2026-04-18T08:42:41Z</time></trkpt><trkpt lat="43.56885450530554" lon="10.801946875779896"><ele>186.2</ele><time>2026-04-18T08:42:42Z</time></trkpt><trkpt lat="43.56895704941427" lon="10.801929559150548"><ele>188.8</ele><time>2026-04-18T08:42:43Z</time></trkpt><trkpt lat="43.56905629527736" lon="10.801892622807888"><ele>191.39999999999998</ele><time>2026-04-18T08:42:44Z</time></trkpt><trkpt lat="43.56915414392811" lon="10.801853000824524"><ele>194.0</ele><time>2026-04-18T08:42:45Z</time></trkpt><trkpt lat="43.56924615350094" lon="10.801825847875511"><ele>194.00000000000003</ele><time>2026-04-18T08:42:46.001Z</time></trkpt><trkpt lat="43.56933727123805" lon="10.801821125546901"><ele>194.0</ele><time>2026-04-18T08:42:47.001Z</time></trkpt><trkpt lat="43.5694178649421" lon="10.801850039230073"><ele>194.0</ele><time>2026-04-18T08:42:48.001Z</time></trkpt><trkpt lat="43.56948311177993" lon="10.801902714932941"><ele>194.0</ele><time>2026-04-18T08:42:49.001Z</time></trkpt><trkpt lat="43.56953760610644" lon="10.801981587679514"><ele>194.00000000000003</ele><time>2026-04-18T08:42:50.001Z</time></trkpt><trkpt lat="43.56958604566856" lon="10.802068601768891"><ele>194.0</ele><time>2026-04-18T08:42:51.001Z</time></trkpt><trkpt lat="43.56963150105884" lon="10.802162019774633"><ele>196.2</ele><time>2026-04-18T08:42:52.001Z</time></trkpt><trkpt lat="43.56967623824398" lon="10.802262683520311"><ele>198.39999999999998</ele><time>2026-04-18T08:42:53.001Z</time></trkpt><trkpt lat="43.569720976471245" lon="10.802361796039847"><ele>200.6</ele><time>2026-04-18T08:42:54.001Z</time></trkpt><trkpt lat="43.56976477531337" lon="10.802467894819987"><ele>202.8</ele><time>2026-04-18T08:42:55.001Z</time></trkpt><trkpt lat="43.56981526301764" lon="10.802581232999682"><ele>205.0</ele><time>2026-04-18T08:42:56.001Z</time></trkpt><trkpt lat="43.56986340513333" lon="10.802694923763243"><ele>205.0</ele><time>2026-04-18T08:42:57.001Z</time></trkpt><trkpt lat="43.56990995115941" lon="10.802817575704243"><ele>205.0</ele><time>2026-04-18T08:42:58.001Z</time></trkpt><trkpt lat="43.56996265582985" lon="10.802942756317584"><ele>205.0</ele><time>2026-04-18T08:42:59.001Z</time></trkpt><trkpt lat="43.57001686867133" lon="10.803062184712788"><ele>205.0</ele><time>2026-04-18T08:43:00.001Z</time></trkpt><trkpt lat="43.570071274508194" lon="10.80316778364036"><ele>205.0</ele><time>2026-04-18T08:43:01.001Z</time></trkpt><trkpt lat="43.570143203110646" lon="10.803258220184546"><ele>205.0</ele><time>2026-04-18T08:43:02.001Z</time></trkpt><trkpt lat="43.570229258127746" lon="10.803331871913516"><ele>205.0</ele><time>2026-04-18T08:43:03.001Z</time></trkpt><trkpt lat="43.57032941332927" lon="10.803390576467548"><ele>205.0</ele><time>2026-04-18T08:43:04.001Z</time></trkpt><trkpt lat="43.57043495210873" lon="10.803452409334568"><ele>205.0</ele><time>2026-04-18T08:43:05.001Z</time></trkpt><trkpt lat="43.570545948196965" lon="10.80351550888964"><ele>205.0</ele><time>2026-04-18T08:43:06.001Z</time></trkpt><trkpt lat="43.570653788558865" lon="10.80357957815447"><ele>204.25</ele><time>2026-04-18T08:43:07Z</time></trkpt><trkpt lat="43.57075883224347" lon="10.80364975453461"><ele>203.5</ele><time>2026-04-18T08:43:08Z</time></trkpt><trkpt lat="43.57086056403517" lon="10.803733446394459"><ele>202.75</ele><time>2026-04-18T08:43:09Z</time></trkpt><trkpt lat="43.57094323775605" lon="10.803843745778142"><ele>202.0</ele><time>2026-04-18T08:43:10Z</time></trkpt><trkpt lat="43.571000898043444" lon="10.803975756810821"><ele>202.0</ele><time>2026-04-18T08:43:11Z</time></trkpt><trkpt lat="43.5710427655774" lon="10.804121244640529"><ele>202.0</ele><time>2026-04-18T08:43:12Z</time></trkpt><trkpt lat="43.57106656455948" lon="10.804279249381558"><ele>202.0</ele><time>2026-04-18T08:43:13Z</time></trkpt><trkpt lat="43.57107557442254" lon="10.804448104989659"><ele>202.0</ele><time>2026-04-18T08:43:14Z</time></trkpt><trkpt lat="43.571071641566256" lon="10.804624708377762"><ele>199.5</ele><time>2026-04-18T08:43:15Z</time></trkpt><trkpt lat="43.57106230250118" lon="10.804808822770484"><ele>197.0</ele><time>2026-04-18T08:43:16Z</time></trkpt><trkpt lat="43.57104470533594" lon="10.804986171914399"><ele>194.5</ele><time>2026-04-18T08:43:17Z</time></trkpt><trkpt lat="43.57102330115667" lon="10.80516984974274"><ele>192.0</ele><time>2026-04-18T08:43:18Z</time></trkpt><trkpt lat="43.57100729483497" lon="10.805347291563153"><ele>189.25</ele><time>2026-04-18T08:43:19Z</time></trkpt><trkpt lat="43.57099254737692" lon="10.805515721188659"><ele>186.5</ele><time>2026-04-18T08:43:20Z</time></trkpt><trkpt lat="43.57099076427734" lon="10.805669966522544"><ele>183.75</ele><time>2026-04-18T08:43:21Z</time></trkpt><trkpt lat="43.570991155899776" lon="10.805840001721261"><ele>181.0</ele><time>2026-04-18T08:43:22Z</time></trkpt><trkpt lat="43.571002974284774" lon="10.806015578914595"><ele>179.75</ele><time>2026-04-18T08:43:23Z</time></trkpt><trkpt lat="43.57100693098849" lon="10.806190487572875"><ele>178.5</ele><time>2026-04-18T08:43:24Z</time></trkpt><trkpt lat="43.57104586365177" lon="10.806363384398278"><ele>177.25</ele><time>2026-04-18T08:43:25Z</time></trkpt><trkpt lat="43.571071454328006" lon="10.80654098353351"><ele>176.0</ele><time>2026-04-18T08:43:26Z</time></trkpt><trkpt lat="43.571098392479215" lon="10.80671411019949"><ele>177.0</ele><time>2026-04-18T08:43:27Z</time></trkpt><trkpt lat="43.571127768701025" lon="10.806885237995095"><ele>178.0</ele><time>2026-04-18T08:43:28Z</time></trkpt><trkpt lat="43.57115202477894" lon="10.807053343891221"><ele>179.0</ele><time>2026-04-18T08:43:29Z</time></trkpt><trkpt lat="43.571167344384996" lon="10.807218041171119"><ele>180.0</ele><time>2026-04-18T08:43:30Z</time></trkpt><trkpt lat="43.571162636774964" lon="10.807388469123778"><ele>180.0</ele><time>2026-04-18T08:43:31Z</time></trkpt><trkpt lat="43.571137467360664" lon="10.80754746391928"><ele>180.0</ele><time>2026-04-18T08:43:32Z</time></trkpt><trkpt lat="43.57108286886187" lon="10.807708499042096"><ele>180.0</ele><time>2026-04-18T08:43:33Z</time></trkpt><trkpt lat="43.571007473245444" lon="10.807841052725857"><ele>180.0</ele><time>2026-04-18T08:43:34Z</time></trkpt><trkpt lat="43.570933654473684" lon="10.807969676812299"><ele>179.0</ele><time>2026-04-18T08:43:35Z</time></trkpt><trkpt lat="43.5708562656382" lon="10.808094935306167"><ele>178.0</ele><time>2026-04-18T08:43:36Z</time></trkpt><trkpt lat="43.57077862612335" lon="10.808223459288985"><ele>177.0</ele><time>2026-04-18T08:43:37Z</time></trkpt><trkpt lat="43.57069918259749" lon="10.808353674281744"><ele>176.0</ele><time>2026-04-18T08:43:38Z</time></trkpt><trkpt lat="43.57061896393595" lon="10.808481818399725"><ele>174.8</ele><time>2026-04-18T08:43:39Z</time></trkpt><trkpt lat="43.57053789495749" lon="10.80860082971751"><ele>173.60000000000002</ele><time>2026-04-18T08:43:40Z</time></trkpt><trkpt lat="43.570476498084666" lon="10.808704645601214"><ele>172.4</ele><time>2026-04-18T08:43:41Z</time></trkpt><trkpt lat="43.5703900195817" lon="10.808774072993018"><ele>171.2</ele><time>2026-04-18T08:43:42Z</time></trkpt><trkpt lat="43.57029802155636" lon="10.808833833331118"><ele>170.0</ele><time>2026-04-18T08:43:43Z</time></trkpt><trkpt lat="43.57019969186044" lon="10.808864249225635"><ele>170.0</ele><time>2026-04-18T08:43:44Z</time></trkpt><trkpt lat="43.570100712178856" lon="10.80885111024702"><ele>170.0</ele><time>2026-04-18T08:43:45Z</time></trkpt><trkpt lat="43.569996302566445" lon="10.808825615937005"><ele>170.0</ele><time>2026-04-18T08:43:46Z</time></trkpt><trkpt lat="43.56989831681756" lon="10.808771453194929"><ele>170.0</ele><time>2026-04-18T08:43:47Z</time></trkpt><trkpt lat="43.56979726319014" lon="10.808708927185476"><ele>170.0</ele><time>2026-04-18T08:43:48Z</time></trkpt><trkpt lat="43.569701387905454" lon="10.80865272015361"><ele>170.0</ele><time>2026-04-18T08:43:49Z</time></trkpt><trkpt lat="43.56960527248771" lon="10.808622004894882"><ele>170.0</ele><time>2026-04-18T08:43:50Z</time></trkpt><trkpt lat="43.56951427663683" lon="10.80863035115742"><ele>170.0</ele><time>2026-04-18T08:43:51Z</time></trkpt><trkpt lat="43.569411240687174" lon="10.808665396372913"><ele>170.0</ele><time>2026-04-18T08:43:52Z</time></trkpt><trkpt lat="43.56931281877846" lon="10.808743060603874"><ele>170.0</ele><time>2026-04-18T08:43:53Z</time></trkpt><trkpt lat="43.56921823597424" lon="10.808827205864551"><ele>169.5</ele><time>2026-04-18T08:43:54Z</time></trkpt><trkpt lat="43.569127371691145" lon="10.80891817276937"><ele>169.0</ele><time>2026-04-18T08:43:55Z</time></trkpt><trkpt lat="43.56904484538504" lon="10.809023639196361"><ele>168.5</ele><time>2026-04-18T08:43:56Z</time></trkpt><trkpt lat="43.56896672273237" lon="10.809135856273768"><ele>168.0</ele><time>2026-04-18T08:43:57Z</time></trkpt><trkpt lat="43.56889280238561" lon="10.809255420309709"><ele>168.2</ele><time>2026-04-18T08:43:58Z</time></trkpt><trkpt lat="43.56882226474933" lon="10.809375010721007"><ele>168.4</ele><time>2026-04-18T08:43:59Z</time></trkpt><trkpt lat="43.56875104897008" lon="10.809495297624608"><ele>168.6</ele><time>2026-04-18T08:44:00Z</time></trkpt><trkpt lat="43.56868183369134" lon="10.809610118735115"><ele>168.79999999999998</ele><time>2026-04-18T08:44:01Z</time></trkpt><trkpt lat="43.56860905363371" lon="10.809715538764111"><ele>169.0</ele><time>2026-04-18T08:44:02Z</time></trkpt><trkpt lat="43.56853427878276" lon="10.809802301980833"><ele>169.0</ele><time>2026-04-18T08:44:03Z</time></trkpt><trkpt lat="43.5684545076461" lon="10.809860991894015"><ele>169.0</ele><time>2026-04-18T08:44:04Z</time></trkpt><trkpt lat="43.56836320797587" lon="10.809900873289283"><ele>169.0</ele><time>2026-04-18T08:44:05Z</time></trkpt><trkpt lat="43.568271086510414" lon="10.809919321244381"><ele>169.0</ele><time>2026-04-18T08:44:06Z</time></trkpt><trkpt lat="43.568180834640046" lon="10.809936540631394"><ele>169.0</ele><time>2026-04-18T08:44:07Z</time></trkpt><trkpt lat="43.568085637934566" lon="10.809988267696719"><ele>169.0</ele><time>2026-04-18T08:44:08Z</time></trkpt><trkpt lat="43.568001594097716" lon="10.810077339075484"><ele>169.0</ele><time>2026-04-18T08:44:09Z</time></trkpt><trkpt lat="43.56793252598469" lon="10.81018963228707"><ele>169.0</ele><time>2026-04-18T08:44:10Z</time></trkpt><trkpt lat="43.56787418658666" lon="10.81030716894364"><ele>169.0</ele><time>2026-04-18T08:44:11Z</time></trkpt><trkpt lat="43.56781726015662" lon="10.810421109398954"><ele>169.0</ele><time>2026-04-18T08:44:12Z</time></trkpt><trkpt lat="43.56776714390737" lon="10.810532366940022"><ele>170.0</ele><time>2026-04-18T08:44:13Z</time></trkpt><trkpt lat="43.5677329517028" lon="10.810650091294155"><ele>171.0</ele><time>2026-04-18T08:44:14Z</time></trkpt><trkpt lat="43.56771013021852" lon="10.810787784895737"><ele>172.0</ele><time>2026-04-18T08:44:15Z</time></trkpt><trkpt lat="43.56771793913405" lon="10.81090396816582"><ele>173.0</ele><time>2026-04-18T08:44:16Z</time></trkpt><trkpt lat="43.5677529940167" lon="10.811019323818643"><ele>174.0</ele><time>2026-04-18T08:44:17Z</time></trkpt><trkpt lat="43.56778873604439" lon="10.811131492024055"><ele>172.6</ele><time>2026-04-18T08:44:18Z</time></trkpt><trkpt lat="43.56784306380714" lon="10.811240713421768"><ele>171.2</ele><time>2026-04-18T08:44:19Z</time></trkpt><trkpt lat="43.56787555212396" lon="10.811364149079909"><ele>169.79999999999998</ele><time>2026-04-18T08:44:20Z</time></trkpt><trkpt lat="43.56790708479127" lon="10.811485041094032"><ele>168.39999999999998</ele><time>2026-04-18T08:44:21Z</time></trkpt><trkpt lat="43.567939292465184" lon="10.811615077728025"><ele>167.0</ele><time>2026-04-18T08:44:22Z</time></trkpt><trkpt lat="43.567974222792074" lon="10.811743297114907"><ele>168.8</ele><time>2026-04-18T08:44:23Z</time></trkpt><trkpt lat="43.5680065549105" lon="10.811884258680612"><ele>170.6</ele><time>2026-04-18T08:44:24Z</time></trkpt><trkpt lat="43.56804844186278" lon="10.812024798266249"><ele>172.4</ele><time>2026-04-18T08:44:25Z</time></trkpt><trkpt lat="43.568078838743276" lon="10.812168553574088"><ele>174.20000000000002</ele><time>2026-04-18T08:44:26Z</time></trkpt><trkpt lat="43.56812336357234" lon="10.812311523298769"><ele>176.0</ele><time>2026-04-18T08:44:27Z</time></trkpt><trkpt lat="43.568157162371364" lon="10.812452255979403"><ele>176.0</ele><time>2026-04-18T08:44:28Z</time></trkpt><trkpt lat="43.56818848609146" lon="10.812583095655674"><ele>176.0</ele><time>2026-04-18T08:44:29Z</time></trkpt><trkpt lat="43.56821090503348" lon="10.812704387872289"><ele>176.0</ele><time>2026-04-18T08:44:30Z</time></trkpt><trkpt lat="43.56821778497362" lon="10.812828192336633"><ele>176.0</ele><time>2026-04-18T08:44:31Z</time></trkpt><trkpt lat="43.56819964565755" lon="10.812953628252211"><ele>176.0</ele><time>2026-04-18T08:44:32Z</time></trkpt><trkpt lat="43.568163878404434" lon="10.813070412267281"><ele>175.4</ele><time>2026-04-18T08:44:33Z</time></trkpt><trkpt lat="43.56811631454968" lon="10.81318521495911"><ele>174.8</ele><time>2026-04-18T08:44:34Z</time></trkpt><trkpt lat="43.568066971933646" lon="10.813305641011265"><ele>174.20000000000002</ele><time>2026-04-18T08:44:35Z</time></trkpt><trkpt lat="43.56802607546099" lon="10.813437966391204"><ele>173.60000000000002</ele><time>2026-04-18T08:44:36Z</time></trkpt><trkpt lat="43.568000809517606" lon="10.813577688070456"><ele>173.0</ele><time>2026-04-18T08:44:37Z</time></trkpt><trkpt lat="43.56799589055979" lon="10.813726623627835"><ele>173.0</ele><time>2026-04-18T08:44:38Z</time></trkpt><trkpt lat="43.56800039925074" lon="10.813879789666789"><ele>173.0</ele><time>2026-04-18T08:44:39Z</time></trkpt><trkpt lat="43.568014694043995" lon="10.814035650855704"><ele>173.0</ele><time>2026-04-18T08:44:40Z</time></trkpt><trkpt lat="43.56803133026206" lon="10.814188360599402"><ele>173.0</ele><time>2026-04-18T08:44:41Z</time></trkpt><trkpt lat="43.56804694472013" lon="10.814344143933347"><ele>174.25</ele><time>2026-04-18T08:44:42Z</time></trkpt><trkpt lat="43.568062255792476" lon="10.814499949274367"><ele>175.5</ele><time>2026-04-18T08:44:43Z</time></trkpt><trkpt lat="43.56807868519094" lon="10.814658978730712"><ele>176.75</ele><time>2026-04-18T08:44:44Z</time></trkpt><trkpt lat="43.568095851225266" lon="10.814821435668179"><ele>178.0</ele><time>2026-04-18T08:44:45Z</time></trkpt><trkpt lat="43.568111799159304" lon="10.814990662952283"><ele>178.75</ele><time>2026-04-18T08:44:46Z</time></trkpt><trkpt lat="43.568129024633144" lon="10.815162066927579"><ele>179.5</ele><time>2026-04-18T08:44:47Z</time></trkpt><trkpt lat="43.56815306133977" lon="10.815330858811896"><ele>180.25</ele><time>2026-04-18T08:44:48Z</time></trkpt><trkpt lat="43.56818421525905" lon="10.815494676579048"><ele>181.0</ele><time>2026-04-18T08:44:49Z</time></trkpt><trkpt lat="43.5682245963518" lon="10.815669933305156"><ele>181.0</ele><time>2026-04-18T08:44:50Z</time></trkpt><trkpt lat="43.568276331656435" lon="10.815825936884751"><ele>181.0</ele><time>2026-04-18T08:44:51Z</time></trkpt><trkpt lat="43.56833581444547" lon="10.815979928138157"><ele>181.0</ele><time>2026-04-18T08:44:52Z</time></trkpt><trkpt lat="43.56840385119319" lon="10.81612834927295"><ele>181.0</ele><time>2026-04-18T08:44:53.001Z</time></trkpt><trkpt lat="43.56847506940951" lon="10.816276250056205"><ele>181.25</ele><time>2026-04-18T08:44:54.001Z</time></trkpt><trkpt lat="43.568550733585525" lon="10.816425355816005"><ele>181.5</ele><time>2026-04-18T08:44:55.001Z</time></trkpt><trkpt lat="43.568625081989445" lon="10.816571788615684"><ele>181.75</ele><time>2026-04-18T08:44:56.001Z</time></trkpt><trkpt lat="43.56869633124984" lon="10.81671660425796"><ele>182.0</ele><time>2026-04-18T08:44:57.001Z</time></trkpt><trkpt lat="43.56876602414354" lon="10.816860885214414"><ele>182.0</ele><time>2026-04-18T08:44:58.001Z</time></trkpt><trkpt lat="43.56883536936144" lon="10.817008367715006"><ele>182.0</ele><time>2026-04-18T08:44:59.001Z</time></trkpt><trkpt lat="43.56890113605172" lon="10.817158260839088"><ele>182.0</ele><time>2026-04-18T08:45:00.001Z</time></trkpt><trkpt lat="43.56896848157497" lon="10.817310107006168"><ele>182.0</ele><time>2026-04-18T08:45:01.001Z</time></trkpt><trkpt lat="43.56904197323827" lon="10.817461632544605"><ele>182.0</ele><time>2026-04-18T08:45:02.001Z</time></trkpt><trkpt lat="43.5691083954668" lon="10.817615872326767"><ele>182.0</ele><time>2026-04-18T08:45:03.001Z</time></trkpt><trkpt lat="43.56917045709947" lon="10.817765910033616"><ele>182.0</ele><time>2026-04-18T08:45:04.001Z</time></trkpt><trkpt lat="43.56923210441973" lon="10.817921853191345"><ele>182.0</ele><time>2026-04-18T08:45:05.001Z</time></trkpt><trkpt lat="43.56930178856038" lon="10.818073245673059"><ele>179.5</ele><time>2026-04-18T08:45:06.001Z</time></trkpt><trkpt lat="43.5693633655031" lon="10.818223746214834"><ele>177.0</ele><time>2026-04-18T08:45:07.001Z</time></trkpt><trkpt lat="43.569417997841626" lon="10.81837382878964"><ele>174.5</ele><time>2026-04-18T08:45:08.001Z</time></trkpt><trkpt lat="43.56944934211288" lon="10.818556792670458"><ele>172.0</ele><time>2026-04-18T08:45:09.001Z</time></trkpt><trkpt lat="43.569477876383964" lon="10.818719593275235"><ele>171.5</ele><time>2026-04-18T08:45:10.001Z</time></trkpt><trkpt lat="43.56948212467193" lon="10.81888560716647"><ele>171.0</ele><time>2026-04-18T08:45:11.001Z</time></trkpt><trkpt lat="43.56946972473165" lon="10.81904677332491"><ele>170.5</ele><time>2026-04-18T08:45:12.001Z</time></trkpt><trkpt lat="43.56943585978108" lon="10.819194424284783"><ele>170.0</ele><time>2026-04-18T08:45:13Z</time></trkpt><trkpt lat="43.569362495573415" lon="10.81931133088985"><ele>169.75</ele><time>2026-04-18T08:45:14Z</time></trkpt><trkpt lat="43.56931122775241" lon="10.819452254877332"><ele>169.5</ele><time>2026-04-18T08:45:15Z</time></trkpt><trkpt lat="43.5692445360077" lon="10.819580420025437"><ele>169.25</ele><time>2026-04-18T08:45:16Z</time></trkpt><trkpt lat="43.56917974719702" lon="10.81971522174999"><ele>169.0</ele><time>2026-04-18T08:45:17Z</time></trkpt><trkpt lat="43.56910772872778" lon="10.819845671015008"><ele>169.0</ele><time>2026-04-18T08:45:18Z</time></trkpt><trkpt lat="43.56905214231877" lon="10.819979610850739"><ele>169.0</ele><time>2026-04-18T08:45:19Z</time></trkpt><trkpt lat="43.56899250408775" lon="10.820111376038836"><ele>169.0</ele><time>2026-04-18T08:45:20Z</time></trkpt><trkpt lat="43.56894334919992" lon="10.820230043338407"><ele>169.0</ele><time>2026-04-18T08:45:21Z</time></trkpt><trkpt lat="43.56890507927758" lon="10.82034668773791"><ele>169.0</ele><time>2026-04-18T08:45:22Z</time></trkpt><trkpt lat="43.56887295829786" lon="10.820479996993317"><ele>167.6</ele><time>2026-04-18T08:45:23Z</time></trkpt><trkpt lat="43.56886192758293" lon="10.820617802592137"><ele>166.2</ele><time>2026-04-18T08:45:24Z</time></trkpt><trkpt lat="43.568877820803294" lon="10.820763111098675"><ele>164.79999999999998</ele><time>2026-04-18T08:45:25Z</time></trkpt><trkpt lat="43.568903228178534" lon="10.82091515625207"><ele>163.39999999999998</ele><time>2026-04-18T08:45:26Z</time></trkpt><trkpt lat="43.56893124415835" lon="10.821083082759495"><ele>162.0</ele><time>2026-04-18T08:45:27Z</time></trkpt><trkpt lat="43.568964047698756" lon="10.82125348898207"><ele>159.75</ele><time>2026-04-18T08:45:28Z</time></trkpt><trkpt lat="43.568997027622615" lon="10.821441392225148"><ele>157.5</ele><time>2026-04-18T08:45:29Z</time></trkpt><trkpt lat="43.569028107368645" lon="10.82162916312298"><ele>155.25</ele><time>2026-04-18T08:45:30Z</time></trkpt><trkpt lat="43.569056775840124" lon="10.82181232879815"><ele>153.0</ele><time>2026-04-18T08:45:31Z</time></trkpt><trkpt lat="43.56907550068511" lon="10.821997336376862"><ele>151.75</ele><time>2026-04-18T08:45:32Z</time></trkpt><trkpt lat="43.56908287914005" lon="10.82218865810071"><ele>150.5</ele><time>2026-04-18T08:45:33Z</time></trkpt><trkpt lat="43.569078485327516" lon="10.822383724738865"><ele>149.25</ele><time>2026-04-18T08:45:34Z</time></trkpt><trkpt lat="43.569066337439374" lon="10.822575521335056"><ele>148.0</ele><time>2026-04-18T08:45:35Z</time></trkpt><trkpt lat="43.569050484800975" lon="10.82276334448187"><ele>147.5</ele><time>2026-04-18T08:45:36Z</time></trkpt><trkpt lat="43.569036155521175" lon="10.822940554280692"><ele>147.0</ele><time>2026-04-18T08:45:37Z</time></trkpt><trkpt lat="43.56901703063" lon="10.823118740159629"><ele>146.5</ele><time>2026-04-18T08:45:38Z</time></trkpt><trkpt lat="43.568996986989944" lon="10.823287002794254"><ele>146.0</ele><time>2026-04-18T08:45:39Z</time></trkpt><trkpt lat="43.568977618283746" lon="10.823450917897413"><ele>145.0</ele><time>2026-04-18T08:45:40Z</time></trkpt><trkpt lat="43.56895543268663" lon="10.823607561568288"><ele>144.0</ele><time>2026-04-18T08:45:41Z</time></trkpt><trkpt lat="43.568933859881824" lon="10.823759425342637"><ele>143.0</ele><time>2026-04-18T08:45:42Z</time></trkpt><trkpt lat="43.568901689248534" lon="10.823909883190456"><ele>142.0</ele><time>2026-04-18T08:45:43Z</time></trkpt><trkpt lat="43.56887856628094" lon="10.824051596952122"><ele>141.0</ele><time>2026-04-18T08:45:44Z</time></trkpt><trkpt lat="43.56885482357438" lon="10.824190404178797"><ele>140.33333333333334</ele><time>2026-04-18T08:45:45Z</time></trkpt><trkpt lat="43.56883087163268" lon="10.824314138445446"><ele>139.66666666666666</ele><time>2026-04-18T08:45:46Z</time></trkpt><trkpt lat="43.56881048844141" lon="10.824426779819603"><ele>139.0</ele><time>2026-04-18T08:45:47Z</time></trkpt><trkpt lat="43.5687908168433" lon="10.824533407308257"><ele>138.33333333333331</ele><time>2026-04-18T08:45:48Z</time></trkpt><trkpt lat="43.56877094227191" lon="10.824638401480234"><ele>137.66666666666666</ele><time>2026-04-18T08:45:49Z</time></trkpt><trkpt lat="43.568756223887334" lon="10.82473260122548"><ele>137.0</ele><time>2026-04-18T08:45:50Z</time></trkpt><trkpt lat="43.56873518161759" lon="10.82489090201484"><ele>137.0</ele><time>2026-04-18T08:45:52Z</time></trkpt><trkpt lat="43.56869469628269" lon="10.825014918662168"><ele>137.0</ele><time>2026-04-18T08:45:54Z</time></trkpt><trkpt lat="43.56862146618491" lon="10.825108806699419"><ele>137.0</ele><time>2026-04-18T08:45:56Z</time></trkpt><trkpt lat="43.56858114400607" lon="10.824882817201921"><ele>137.0</ele><time>2026-04-18T08:45:58Z</time></trkpt><trkpt lat="43.56856730659626" lon="10.82479231629539"><ele>137.0</ele><time>2026-04-18T08:45:59Z</time></trkpt><trkpt lat="43.56855624504955" lon="10.824694942143138"><ele>136.83333333333331</ele><time>2026-04-18T08:46:00Z</time></trkpt><trkpt lat="43.56854621984029" lon="10.82459287819374"><ele>136.66666666666666</ele><time>2026-04-18T08:46:01Z</time></trkpt><trkpt lat="43.568533622148756" lon="10.824487789682921"><ele>136.5</ele><time>2026-04-18T08:46:02Z</time></trkpt><trkpt lat="43.568518460836465" lon="10.824385395461913"><ele>136.33333333333334</ele><time>2026-04-18T08:46:03Z</time></trkpt><trkpt lat="43.568492117246976" lon="10.82428740057186"><ele>136.16666666666669</ele><time>2026-04-18T08:46:04Z</time></trkpt><trkpt lat="43.568476482426775" lon="10.824176459499633"><ele>136.0</ele><time>2026-04-18T08:46:05Z</time></trkpt><trkpt lat="43.56845844926563" lon="10.824055243556801"><ele>135.0</ele><time>2026-04-18T08:46:06Z</time></trkpt><trkpt lat="43.56845834435052" lon="10.823914096151757"><ele>134.0</ele><time>2026-04-18T08:46:07Z</time></trkpt><trkpt lat="43.568447665053625" lon="10.823789449467471"><ele>133.0</ele><time>2026-04-18T08:46:08Z</time></trkpt><trkpt lat="43.56843588227864" lon="10.823653278963823"><ele>132.0</ele><time>2026-04-18T08:46:09Z</time></trkpt><trkpt lat="43.56842431128282" lon="10.823512002490517"><ele>131.0</ele><time>2026-04-18T08:46:10Z</time></trkpt><trkpt lat="43.568413434602085" lon="10.823373918160101"><ele>130.8</ele><time>2026-04-18T08:46:11Z</time></trkpt><trkpt lat="43.56840356384043" lon="10.823246039330005"><ele>130.6</ele><time>2026-04-18T08:46:12Z</time></trkpt><trkpt lat="43.56839304026576" lon="10.823100047616672"><ele>130.4</ele><time>2026-04-18T08:46:13Z</time></trkpt><trkpt lat="43.56838404263092" lon="10.822946667326583"><ele>130.2</ele><time>2026-04-18T08:46:14Z</time></trkpt><trkpt lat="43.56837510084013" lon="10.822794238894797"><ele>130.0</ele><time>2026-04-18T08:46:15Z</time></trkpt><trkpt lat="43.5683646068451" lon="10.82264302261944"><ele>130.0</ele><time>2026-04-18T08:46:16Z</time></trkpt><trkpt lat="43.56834303454631" lon="10.82249851853255"><ele>130.0</ele><time>2026-04-18T08:46:17Z</time></trkpt><trkpt lat="43.56833094559055" lon="10.822362134617455"><ele>130.0</ele><time>2026-04-18T08:46:18Z</time></trkpt><trkpt lat="43.56830622815648" lon="10.822235769035112"><ele>130.0</ele><time>2026-04-18T08:46:19Z</time></trkpt><trkpt lat="43.56826821040526" lon="10.822121496249972"><ele>130.0</ele><time>2026-04-18T08:46:20Z</time></trkpt><trkpt lat="43.56823373234751" lon="10.822016964938122"><ele>130.0</ele><time>2026-04-18T08:46:21Z</time></trkpt><trkpt lat="43.568169483505955" lon="10.821934676931388"><ele>130.0</ele><time>2026-04-18T08:46:22Z</time></trkpt><trkpt lat="43.56810008824984" lon="10.821906454048204"><ele>130.0</ele><time>2026-04-18T08:46:23Z</time></trkpt><trkpt lat="43.56797926244772" lon="10.821860026675932"><ele>130.0</ele><time>2026-04-18T08:46:25Z</time></trkpt><trkpt lat="43.56786946017146" lon="10.821831619961118"><ele>130.0</ele><time>2026-04-18T08:46:27Z</time></trkpt><trkpt lat="43.567758986665844" lon="10.821804482389842"><ele>129.2</ele><time>2026-04-18T08:46:29Z</time></trkpt><trkpt lat="43.56765523628816" lon="10.82177391834968"><ele>128.4</ele><time>2026-04-18T08:46:31Z</time></trkpt><trkpt lat="43.56755101242538" lon="10.821740995005923"><ele>127.6</ele><time>2026-04-18T08:46:33Z</time></trkpt><trkpt lat="43.567444941274324" lon="10.821713884409252"><ele>126.8</ele><time>2026-04-18T08:46:35Z</time></trkpt><trkpt lat="43.567328422077075" lon="10.821685144660089"><ele>126.0</ele><time>2026-04-18T08:46:37.001Z</time></trkpt><trkpt lat="43.567264589078476" lon="10.821667899292278"><ele>126.0</ele><time>2026-04-18T08:46:38.001Z</time></trkpt><trkpt lat="43.567198597117304" lon="10.821649935795943"><ele>126.0</ele><time>2026-04-18T08:46:39.001Z</time></trkpt><trkpt lat="43.56712742673084" lon="10.821627957416876"><ele>126.0</ele><time>2026-04-18T08:46:40.001Z</time></trkpt><trkpt lat="43.56705179286108" lon="10.821604505072193"><ele>126.0</ele><time>2026-04-18T08:46:41.001Z</time></trkpt><trkpt lat="43.56697276838826" lon="10.821579493610423"><ele>126.0</ele><time>2026-04-18T08:46:42.001Z</time></trkpt><trkpt lat="43.56688880185844" lon="10.821554119745095"><ele>126.0</ele><time>2026-04-18T08:46:43.001Z</time></trkpt><trkpt lat="43.56680498858069" lon="10.821532768161699"><ele>123.33333333333333</ele><time>2026-04-18T08:46:44.001Z</time></trkpt><trkpt lat="43.5667221861512" lon="10.821506349453758"><ele>120.66666666666666</ele><time>2026-04-18T08:46:45.001Z</time></trkpt><trkpt lat="43.56664754003513" lon="10.82148267485339"><ele>118.0</ele><time>2026-04-18T08:46:46.001Z</time></trkpt><trkpt lat="43.56658600139036" lon="10.821460186490054"><ele>115.33333333333333</ele><time>2026-04-18T08:46:47.001Z</time></trkpt><trkpt lat="43.566489276950904" lon="10.821419211449586"><ele>112.66666666666666</ele><time>2026-04-18T08:46:49.001Z</time></trkpt><trkpt lat="43.56637832324163" lon="10.821370798537538"><ele>110.0</ele><time>2026-04-18T08:46:51.001Z</time></trkpt><trkpt lat="43.566316427283276" lon="10.821334029712311"><ele>109.99999999999999</ele><time>2026-04-18T08:46:52.001Z</time></trkpt><trkpt lat="43.566250916161756" lon="10.82130783079122"><ele>110.0</ele><time>2026-04-18T08:46:53.001Z</time></trkpt><trkpt lat="43.56618032847616" lon="10.82129479424705"><ele>110.0</ele><time>2026-04-18T08:46:54.001Z</time></trkpt><trkpt lat="43.56610876040859" lon="10.821290756274221"><ele>110.0</ele><time>2026-04-18T08:46:55.001Z</time></trkpt><trkpt lat="43.56603372282512" lon="10.821285128904716"><ele>110.0</ele><time>2026-04-18T08:46:56.001Z</time></trkpt><trkpt lat="43.565957249893486" lon="10.821275584747626"><ele>109.99999999999999</ele><time>2026-04-18T08:46:57.001Z</time></trkpt><trkpt lat="43.56587767177567" lon="10.82125823927"><ele>110.0</ele><time>2026-04-18T08:46:58.001Z</time></trkpt><trkpt lat="43.565793078501656" lon="10.821235712633538"><ele>107.8</ele><time>2026-04-18T08:46:59.001Z</time></trkpt><trkpt lat="43.56570367936948" lon="10.821202942997996"><ele>105.6</ele><time>2026-04-18T08:47:00.001Z</time></trkpt><trkpt lat="43.56561618854081" lon="10.821163899467635"><ele>103.4</ele><time>2026-04-18T08:47:01.001Z</time></trkpt><trkpt lat="43.56552480694062" lon="10.82110220046913"><ele>101.2</ele><time>2026-04-18T08:47:02.001Z</time></trkpt><trkpt lat="43.56543464149237" lon="10.821025396850336"><ele>99.0</ele><time>2026-04-18T08:47:03.001Z</time></trkpt><trkpt lat="43.565343529367624" lon="10.820932915814165"><ele>99.0</ele><time>2026-04-18T08:47:04.001Z</time></trkpt><trkpt lat="43.565247283361074" lon="10.820826997603646"><ele>99.0</ele><time>2026-04-18T08:47:05.001Z</time></trkpt><trkpt lat="43.56514827692183" lon="10.82071427530969"><ele>99.0</ele><time>2026-04-18T08:47:06.001Z</time></trkpt><trkpt lat="43.56504592722679" lon="10.820601944480568"><ele>99.0</ele><time>2026-04-18T08:47:07.001Z</time></trkpt><trkpt lat="43.564943581063304" lon="10.820487720631306"><ele>99.0</ele><time>2026-04-18T08:47:08.001Z</time></trkpt><trkpt lat="43.5648459165972" lon="10.82038072447226"><ele>99.0</ele><time>2026-04-18T08:47:09.001Z</time></trkpt><trkpt lat="43.56475567338158" lon="10.820278675653167"><ele>99.0</ele><time>2026-04-18T08:47:10.001Z</time></trkpt><trkpt lat="43.56467074242333" lon="10.82018364889831"><ele>99.0</ele><time>2026-04-18T08:47:11.001Z</time></trkpt><trkpt lat="43.56458741629726" lon="10.820084485540944"><ele>95.5</ele><time>2026-04-18T08:47:12.001Z</time></trkpt><trkpt lat="43.564505323527015" lon="10.819973973736758"><ele>92.0</ele><time>2026-04-18T08:47:13.001Z</time></trkpt><trkpt lat="43.564426329522405" lon="10.81985505115227"><ele>88.5</ele><time>2026-04-18T08:47:14.001Z</time></trkpt><trkpt lat="43.56435312820242" lon="10.819727508030866"><ele>85.0</ele><time>2026-04-18T08:47:15.001Z</time></trkpt><trkpt lat="43.56428548775253" lon="10.819589611620883"><ele>85.0</ele><time>2026-04-18T08:47:16.001Z</time></trkpt><trkpt lat="43.56421982679771" lon="10.819446342019718"><ele>85.0</ele><time>2026-04-18T08:47:17.001Z</time></trkpt><trkpt lat="43.56415754539018" lon="10.819303985851555"><ele>85.0</ele><time>2026-04-18T08:47:18.001Z</time></trkpt><trkpt lat="43.564097295086015" lon="10.819170257318998"><ele>85.0</ele><time>2026-04-18T08:47:19Z</time></trkpt><trkpt lat="43.56404120415361" lon="10.81904070115019"><ele>85.28571428571429</ele><time>2026-04-18T08:47:20Z</time></trkpt><trkpt lat="43.56399487585955" lon="10.81893430661577"><ele>85.57142857142857</ele><time>2026-04-18T08:47:21Z</time></trkpt><trkpt lat="43.56395563007109" lon="10.81884336897692"><ele>85.85714285714286</ele><time>2026-04-18T08:47:22Z</time></trkpt><trkpt lat="43.563916836785644" lon="10.81876324615576"><ele>86.14285714285714</ele><time>2026-04-18T08:47:23Z</time></trkpt><trkpt lat="43.56387831969915" lon="10.818683034408883"><ele>86.42857142857143</ele><time>2026-04-18T08:47:24Z</time></trkpt><trkpt lat="43.563825926082515" lon="10.8186142236123"><ele>86.71428571428571</ele><time>2026-04-18T08:47:25Z</time></trkpt><trkpt lat="43.563795379582416" lon="10.818530425538281"><ele>87.0</ele><time>2026-04-18T08:47:26Z</time></trkpt><trkpt lat="43.563702674183176" lon="10.818529132337282"><ele>85.66666666666667</ele><time>2026-04-18T08:47:27Z</time></trkpt><trkpt lat="43.56363867568867" lon="10.818512014572716"><ele>84.33333333333333</ele><time>2026-04-18T08:47:28Z</time></trkpt><trkpt lat="43.56357174417243" lon="10.818505737166468"><ele>83.0</ele><time>2026-04-18T08:47:29Z</time></trkpt><trkpt lat="43.56350087467651" lon="10.818515373498967"><ele>81.66666666666666</ele><time>2026-04-18T08:47:30Z</time></trkpt><trkpt lat="43.56342962645622" lon="10.818538908223749"><ele>80.33333333333333</ele><time>2026-04-18T08:47:31Z</time></trkpt><trkpt lat="43.56336206362807" lon="10.818574678347767"><ele>79.0</ele><time>2026-04-18T08:47:32Z</time></trkpt><trkpt lat="43.5632580639289" lon="10.818638548245477"><ele>79.0</ele><time>2026-04-18T08:47:34Z</time></trkpt><trkpt lat="43.5631602673055" lon="10.818707466300578"><ele>79.0</ele><time>2026-04-18T08:47:36Z</time></trkpt><trkpt lat="43.56306388953349" lon="10.8187761219658"><ele>79.0</ele><time>2026-04-18T08:47:38Z</time></trkpt><trkpt lat="43.562964466116085" lon="10.818845565929825"><ele>79.0</ele><time>2026-04-18T08:47:40Z</time></trkpt><trkpt lat="43.5628767560901" lon="10.818914065218847"><ele>79.0</ele><time>2026-04-18T08:47:42Z</time></trkpt><trkpt lat="43.562788500573326" lon="10.818978532370446"><ele>79.83333333333333</ele><time>2026-04-18T08:47:44Z</time></trkpt><trkpt lat="43.56268065543559" lon="10.819055979353479"><ele>80.66666666666666</ele><time>2026-04-18T08:47:46Z</time></trkpt><trkpt lat="43.56261452181151" lon="10.819101709794358"><ele>81.5</ele><time>2026-04-18T08:47:47Z</time></trkpt><trkpt lat="43.562545705717696" lon="10.819146233360668"><ele>82.33333333333333</ele><time>2026-04-18T08:47:48Z</time></trkpt><trkpt lat="43.56247267913142" lon="10.819186164030056"><ele>83.16666666666667</ele><time>2026-04-18T08:47:49Z</time></trkpt><trkpt lat="43.562390409237246" lon="10.819206589021686"><ele>84.0</ele><time>2026-04-18T08:47:50Z</time></trkpt><trkpt lat="43.562307604024134" lon="10.819210432897133"><ele>84.0</ele><time>2026-04-18T08:47:51Z</time></trkpt><trkpt lat="43.562224811937156" lon="10.819191453935586"><ele>84.0</ele><time>2026-04-18T08:47:52Z</time></trkpt><trkpt lat="43.56214696919051" lon="10.819147183073554"><ele>84.0</ele><time>2026-04-18T08:47:53Z</time></trkpt><trkpt lat="43.56207891961692" lon="10.819088215085921"><ele>84.0</ele><time>2026-04-18T08:47:54Z</time></trkpt><trkpt lat="43.562030135388476" lon="10.818997840854493"><ele>84.0</ele><time>2026-04-18T08:47:55Z</time></trkpt><trkpt lat="43.56197842841758" lon="10.818913954447336"><ele>84.0</ele><time>2026-04-18T08:47:56Z</time></trkpt><trkpt lat="43.56192653516117" lon="10.81882921559544"><ele>83.66666666666667</ele><time>2026-04-18T08:47:57Z</time></trkpt><trkpt lat="43.56187328886506" lon="10.818739654388592"><ele>83.33333333333333</ele><time>2026-04-18T08:47:58Z</time></trkpt><trkpt lat="43.561807540211554" lon="10.818663808675788"><ele>83.0</ele><time>2026-04-18T08:47:59Z</time></trkpt><trkpt lat="43.56176120890143" lon="10.818560447130913"><ele>82.66666666666666</ele><time>2026-04-18T08:48:00Z</time></trkpt><trkpt lat="43.56170602516608" lon="10.818465219146916"><ele>82.33333333333333</ele><time>2026-04-18T08:48:01Z</time></trkpt><trkpt lat="43.56165093989123" lon="10.818370520919386"><ele>82.0</ele><time>2026-04-18T08:48:02Z</time></trkpt><trkpt lat="43.561599183791245" lon="10.818273478564508"><ele>82.0</ele><time>2026-04-18T08:48:03Z</time></trkpt><trkpt lat="43.56153113029941" lon="10.818189746345084"><ele>82.0</ele><time>2026-04-18T08:48:04Z</time></trkpt><trkpt lat="43.56147887371365" lon="10.818091784178035"><ele>82.0</ele><time>2026-04-18T08:48:05Z</time></trkpt><trkpt lat="43.56142741888365" lon="10.817998320352961"><ele>82.0</ele><time>2026-04-18T08:48:06Z</time></trkpt><trkpt lat="43.56137327461852" lon="10.81791245263281"><ele>82.0</ele><time>2026-04-18T08:48:07Z</time></trkpt><trkpt lat="43.561324892247626" lon="10.817827721157226"><ele>82.0</ele><time>2026-04-18T08:48:08Z</time></trkpt><trkpt lat="43.56127647408728" lon="10.817742983996608"><ele>82.0</ele><time>2026-04-18T08:48:09Z</time></trkpt><trkpt lat="43.561226104596216" lon="10.817654731755274"><ele>82.0</ele><time>2026-04-18T08:48:10Z</time></trkpt><trkpt lat="43.561175282048" lon="10.817567010278234"><ele>82.0</ele><time>2026-04-18T08:48:11Z</time></trkpt><trkpt lat="43.56112448301072" lon="10.817477733296174"><ele>82.0</ele><time>2026-04-18T08:48:12Z</time></trkpt><trkpt lat="43.561074073154" lon="10.817389703597822"><ele>82.0</ele><time>2026-04-18T08:48:13Z</time></trkpt><trkpt lat="43.56102222840349" lon="10.817298419136437"><ele>82.0</ele><time>2026-04-18T08:48:14Z</time></trkpt><trkpt lat="43.56096986176571" lon="10.81720632468848"><ele>81.66666666666666</ele><time>2026-04-18T08:48:15Z</time></trkpt><trkpt lat="43.56091753394652" lon="10.817115736029642"><ele>81.33333333333333</ele><time>2026-04-18T08:48:16Z</time></trkpt><trkpt lat="43.560865201221155" lon="10.817020240522961"><ele>81.0</ele><time>2026-04-18T08:48:17Z</time></trkpt><trkpt lat="43.560806827403916" lon="10.81693495134366"><ele>80.66666666666667</ele><time>2026-04-18T08:48:18Z</time></trkpt><trkpt lat="43.560742453167926" lon="10.816857969685664"><ele>80.33333333333334</ele><time>2026-04-18T08:48:19Z</time></trkpt><trkpt lat="43.560673689971516" lon="10.81678459115784"><ele>80.0</ele><time>2026-04-18T08:48:20Z</time></trkpt><trkpt lat="43.560610097215616" lon="10.816708755170936"><ele>80.0</ele><time>2026-04-18T08:48:21Z</time></trkpt><trkpt lat="43.56053626536129" lon="10.816651140619268"><ele>80.0</ele><time>2026-04-18T08:48:22Z</time></trkpt><trkpt lat="43.56047057601461" lon="10.816587656343481"><ele>80.0</ele><time>2026-04-18T08:48:23Z</time></trkpt><trkpt lat="43.5604128631657" lon="10.816529884372871"><ele>80.0</ele><time>2026-04-18T08:48:24Z</time></trkpt><trkpt lat="43.56032586216289" lon="10.81644401601347"><ele>80.0</ele><time>2026-04-18T08:48:26Z</time></trkpt><trkpt lat="43.56024392175137" lon="10.816364480667577"><ele>80.0</ele><time>2026-04-18T08:48:28Z</time></trkpt><trkpt lat="43.56014697793051" lon="10.816270833412398"><ele>79.57142857142857</ele><time>2026-04-18T08:48:30Z</time></trkpt><trkpt lat="43.560094681062985" lon="10.816219518593229"><ele>79.14285714285714</ele><time>2026-04-18T08:48:31Z</time></trkpt><trkpt lat="43.56003633134152" lon="10.816162641042625"><ele>78.71428571428572</ele><time>2026-04-18T08:48:32Z</time></trkpt><trkpt lat="43.559978740240105" lon="10.816104876694157"><ele>78.28571428571428</ele><time>2026-04-18T08:48:33Z</time></trkpt><trkpt lat="43.55991840824012" lon="10.81604561580309"><ele>77.85714285714286</ele><time>2026-04-18T08:48:34Z</time></trkpt><trkpt lat="43.55985343041339" lon="10.815983681780251"><ele>77.42857142857143</ele><time>2026-04-18T08:48:35Z</time></trkpt><trkpt lat="43.559785611893346" lon="10.81591920611741"><ele>77.0</ele><time>2026-04-18T08:48:36Z</time></trkpt><trkpt lat="43.559717406064124" lon="10.815857893992359"><ele>77.0</ele><time>2026-04-18T08:48:37Z</time></trkpt><trkpt lat="43.559645828222614" lon="10.815801076898202"><ele>77.0</ele><time>2026-04-18T08:48:38Z</time></trkpt><trkpt lat="43.55956620454064" lon="10.815750141800828"><ele>77.0</ele><time>2026-04-18T08:48:39Z</time></trkpt><trkpt lat="43.55949013055519" lon="10.815706667890366"><ele>77.0</ele><time>2026-04-18T08:48:40Z</time></trkpt><trkpt lat="43.559410029065205" lon="10.815673419098635"><ele>77.0</ele><time>2026-04-18T08:48:41Z</time></trkpt><trkpt lat="43.55932409208499" lon="10.815653716105714"><ele>77.0</ele><time>2026-04-18T08:48:42Z</time></trkpt><trkpt lat="43.559240568928104" lon="10.815637205560618"><ele>77.66666666666667</ele><time>2026-04-18T08:48:43Z</time></trkpt><trkpt lat="43.55915802812651" lon="10.81561655826427"><ele>78.33333333333334</ele><time>2026-04-18T08:48:44.001Z</time></trkpt><trkpt lat="43.559075972059226" lon="10.815596386839701"><ele>79.0</ele><time>2026-04-18T08:48:45.001Z</time></trkpt><trkpt lat="43.55898636049903" lon="10.815578288740335"><ele>79.66666666666667</ele><time>2026-04-18T08:48:46.001Z</time></trkpt><trkpt lat="43.558896306480236" lon="10.815561213628506"><ele>80.33333333333333</ele><time>2026-04-18T08:48:47.001Z</time></trkpt><trkpt lat="43.55880249455921" lon="10.815538935190178"><ele>81.0</ele><time>2026-04-18T08:48:48.001Z</time></trkpt><trkpt lat="43.55870413286556" lon="10.81551419992725"><ele>80.8</ele><time>2026-04-18T08:48:49.001Z</time></trkpt><trkpt lat="43.558606193149956" lon="10.815489927606599"><ele>80.6</ele><time>2026-04-18T08:48:50.001Z</time></trkpt><trkpt lat="43.558505958179346" lon="10.815467387896964"><ele>80.4</ele><time>2026-04-18T08:48:51.001Z</time></trkpt><trkpt lat="43.55840903382178" lon="10.815445643447948"><ele>80.2</ele><time>2026-04-18T08:48:52.001Z</time></trkpt><trkpt lat="43.558312268370585" lon="10.815424436928419"><ele>80.0</ele><time>2026-04-18T08:48:53.001Z</time></trkpt><trkpt lat="43.55821859604656" lon="10.815399489088291"><ele>80.0</ele><time>2026-04-18T08:48:54.001Z</time></trkpt><trkpt lat="43.558121745310615" lon="10.815379861841901"><ele>80.0</ele><time>2026-04-18T08:48:55.001Z</time></trkpt><trkpt lat="43.558028681046125" lon="10.815352783213594"><ele>80.0</ele><time>2026-04-18T08:48:56.001Z</time></trkpt><trkpt lat="43.557928873941535" lon="10.815333663506676"><ele>80.0</ele><time>2026-04-18T08:48:57.001Z</time></trkpt><trkpt lat="43.557830633853854" lon="10.815310579617035"><ele>80.0</ele><time>2026-04-18T08:48:58.001Z</time></trkpt><trkpt lat="43.55773533709391" lon="10.815286497490881"><ele>79.4</ele><time>2026-04-18T08:48:59.001Z</time></trkpt><trkpt lat="43.55764109494543" lon="10.81526216200318"><ele>78.8</ele><time>2026-04-18T08:49:00.001Z</time></trkpt><trkpt lat="43.55754572658268" lon="10.815236756131412"><ele>78.2</ele><time>2026-04-18T08:49:01.001Z</time></trkpt><trkpt lat="43.557456460195255" lon="10.815209806338423"><ele>77.6</ele><time>2026-04-18T08:49:02.001Z</time></trkpt><trkpt lat="43.55736123161092" lon="10.815188616242589"><ele>77.0</ele><time>2026-04-18T08:49:03.001Z</time></trkpt><trkpt lat="43.557268796907586" lon="10.815166085297435"><ele>77.0</ele><time>2026-04-18T08:49:04.001Z</time></trkpt><trkpt lat="43.5571755971664" lon="10.815146737879552"><ele>77.0</ele><time>2026-04-18T08:49:05.001Z</time></trkpt><trkpt lat="43.55705175902975" lon="10.815132394707632"><ele>77.0</ele><time>2026-04-18T08:49:06.001Z</time></trkpt><trkpt lat="43.55690176922711" lon="10.815136577949096"><ele>77.0</ele><time>2026-04-18T08:49:07.001Z</time></trkpt><trkpt lat="43.556739579011264" lon="10.81518185193018"><ele>78.33333333333334</ele><time>2026-04-18T08:49:08.001Z</time></trkpt><trkpt lat="43.556568535889205" lon="10.815244265024035"><ele>79.66666666666667</ele><time>2026-04-18T08:49:09.001Z</time></trkpt><trkpt lat="43.55638995119914" lon="10.815312777936304"><ele>81.0</ele><time>2026-04-18T08:49:10.001Z</time></trkpt><trkpt lat="43.5562055529558" lon="10.81538258667497"><ele>83.66666666666667</ele><time>2026-04-18T08:49:11.001Z</time></trkpt><trkpt lat="43.5560306961467" lon="10.815445695392267"><ele>86.33333333333334</ele><time>2026-04-18T08:49:12.001Z</time></trkpt><trkpt lat="43.55588306055893" lon="10.81548949371225"><ele>89.0</ele><time>2026-04-18T08:49:13.001Z</time></trkpt><trkpt lat="43.55575736898598" lon="10.815520273584056"><ele>89.0</ele><time>2026-04-18T08:49:14.001Z</time></trkpt><trkpt lat="43.55564237354366" lon="10.815567217508038"><ele>89.0</ele><time>2026-04-18T08:49:15.001Z</time></trkpt><trkpt lat="43.55553511624253" lon="10.815638225801246"><ele>89.0</ele><time>2026-04-18T08:49:16.001Z</time></trkpt><trkpt lat="43.55542775940268" lon="10.815737548889528"><ele>89.0</ele><time>2026-04-18T08:49:17.001Z</time></trkpt><trkpt lat="43.55532894305492" lon="10.815856014685398"><ele>91.0</ele><time>2026-04-18T08:49:18.001Z</time></trkpt><trkpt lat="43.55525164118901" lon="10.815992688331788"><ele>93.0</ele><time>2026-04-18T08:49:19.001Z</time></trkpt><trkpt lat="43.555173059039355" lon="10.81614948830248"><ele>95.0</ele><time>2026-04-18T08:49:20.001Z</time></trkpt><trkpt lat="43.555097559935035" lon="10.816287380103415"><ele>97.0</ele><time>2026-04-18T08:49:21.001Z</time></trkpt><trkpt lat="43.555028843108445" lon="10.816402962978039"><ele>97.00000000000001</ele><time>2026-04-18T08:49:22.001Z</time></trkpt><trkpt lat="43.55497024856465" lon="10.816505657450334"><ele>97.0</ele><time>2026-04-18T08:49:23.001Z</time></trkpt><trkpt lat="43.55491782329568" lon="10.816604049399206"><ele>97.0</ele><time>2026-04-18T08:49:24.001Z</time></trkpt><trkpt lat="43.55487063416759" lon="10.81669039559084"><ele>97.0</ele><time>2026-04-18T08:49:25Z</time></trkpt><trkpt lat="43.55482791721185" lon="10.816772059439332"><ele>97.00000000000001</ele><time>2026-04-18T08:49:26Z</time></trkpt><trkpt lat="43.55478624297822" lon="10.816850988433883"><ele>97.0</ele><time>2026-04-18T08:49:27Z</time></trkpt><trkpt lat="43.55474727089023" lon="10.816923676259362"><ele>97.8</ele><time>2026-04-18T08:49:28Z</time></trkpt><trkpt lat="43.55467953860464" lon="10.817046187336544"><ele>98.6</ele><time>2026-04-18T08:49:30Z</time></trkpt><trkpt lat="43.554623187835126" lon="10.817151103657325"><ele>99.39999999999999</ele><time>2026-04-18T08:49:32Z</time></trkpt><trkpt lat="43.5545734139022" lon="10.817244860957269"><ele>100.19999999999999</ele><time>2026-04-18T08:49:34Z</time></trkpt><trkpt lat="43.55452015314936" lon="10.817342813757021"><ele>101.0</ele><time>2026-04-18T08:49:36Z</time></trkpt><trkpt lat="43.554463819251644" lon="10.817450964778807"><ele>101.4</ele><time>2026-04-18T08:49:38Z</time></trkpt><trkpt lat="43.55439873753421" lon="10.817570042281686"><ele>101.8</ele><time>2026-04-18T08:49:40Z</time></trkpt><trkpt lat="43.55433427796178" lon="10.817691070323438"><ele>102.2</ele><time>2026-04-18T08:49:42Z</time></trkpt><trkpt lat="43.55427603208085" lon="10.817802312546686"><ele>102.60000000000001</ele><time>2026-04-18T08:49:44Z</time></trkpt><trkpt lat="43.55422167108728" lon="10.817904070943934"><ele>103.0</ele><time>2026-04-18T08:49:46Z</time></trkpt><trkpt lat="43.55416973023823" lon="10.81800639269136"><ele>104.2</ele><time>2026-04-18T08:49:48Z</time></trkpt><trkpt lat="43.5541132290982" lon="10.818103110799845"><ele>105.4</ele><time>2026-04-18T08:49:50Z</time></trkpt><trkpt lat="43.55404654407896" lon="10.818207908961197"><ele>106.60000000000001</ele><time>2026-04-18T08:49:52Z</time></trkpt><trkpt lat="43.553979582846424" lon="10.818323601407306"><ele>107.80000000000001</ele><time>2026-04-18T08:49:54Z</time></trkpt><trkpt lat="43.553914146490634" lon="10.818462363063206"><ele>109.0</ele><time>2026-04-18T08:49:56Z</time></trkpt><trkpt lat="43.55384629520421" lon="10.818603529830536"><ele>110.0</ele><time>2026-04-18T08:49:58Z</time></trkpt><trkpt lat="43.55377534303638" lon="10.818739184879702"><ele>111.0</ele><time>2026-04-18T08:50:00Z</time></trkpt><trkpt lat="43.5537003304574" lon="10.818872806373308"><ele>112.0</ele><time>2026-04-18T08:50:02Z</time></trkpt><trkpt lat="43.5536209489522" lon="10.81900725311108"><ele>113.0</ele><time>2026-04-18T08:50:04Z</time></trkpt><trkpt lat="43.55354596742999" lon="10.819119990046882"><ele>113.75</ele><time>2026-04-18T08:50:06Z</time></trkpt><trkpt lat="43.553475323873265" lon="10.819243578531461"><ele>114.5</ele><time>2026-04-18T08:50:08Z</time></trkpt><trkpt lat="43.55340285388987" lon="10.819376040939918"><ele>115.25</ele><time>2026-04-18T08:50:10Z</time></trkpt><trkpt lat="43.55332957323774" lon="10.819508249857405"><ele>116.0</ele><time>2026-04-18T08:50:12Z</time></trkpt><trkpt lat="43.55325835890667" lon="10.819638415548571"><ele>116.99999999999999</ele><time>2026-04-18T08:50:14Z</time></trkpt><trkpt lat="43.55318725840468" lon="10.819764632254559"><ele>118.0</ele><time>2026-04-18T08:50:16Z</time></trkpt><trkpt lat="43.55311299658914" lon="10.819898964421498"><ele>119.0</ele><time>2026-04-18T08:50:18Z</time></trkpt><trkpt lat="43.55307437053117" lon="10.819969918634188"><ele>120.0</ele><time>2026-04-18T08:50:19Z</time></trkpt><trkpt lat="43.55303342347272" lon="10.820039043317966"><ele>120.99999999999999</ele><time>2026-04-18T08:50:20Z</time></trkpt><trkpt lat="43.55299052317174" lon="10.820115170062504"><ele>122.0</ele><time>2026-04-18T08:50:21Z</time></trkpt><trkpt lat="43.55294603684182" lon="10.820192440195674"><ele>122.66666666666666</ele><time>2026-04-18T08:50:22Z</time></trkpt><trkpt lat="43.55289938246528" lon="10.820271172589988"><ele>123.33333333333333</ele><time>2026-04-18T08:50:23Z</time></trkpt><trkpt lat="43.55285181338334" lon="10.82035565077914"><ele>124.0</ele><time>2026-04-18T08:50:24Z</time></trkpt><trkpt lat="43.55280135459536" lon="10.820445460445809"><ele>124.66666666666666</ele><time>2026-04-18T08:50:25Z</time></trkpt><trkpt lat="43.5527506486395" lon="10.820537562912266"><ele>125.33333333333333</ele><time>2026-04-18T08:50:26Z</time></trkpt><trkpt lat="43.552698469235686" lon="10.820636764206107"><ele>126.0</ele><time>2026-04-18T08:50:27Z</time></trkpt><trkpt lat="43.55264493074979" lon="10.820738803104872"><ele>126.0</ele><time>2026-04-18T08:50:28Z</time></trkpt><trkpt lat="43.552589652335115" lon="10.82084295779268"><ele>126.0</ele><time>2026-04-18T08:50:29Z</time></trkpt><trkpt lat="43.55253275873303" lon="10.820949773507685"><ele>126.0</ele><time>2026-04-18T08:50:30Z</time></trkpt><trkpt lat="43.55247345029408" lon="10.821060794866321"><ele>126.0</ele><time>2026-04-18T08:50:31Z</time></trkpt><trkpt lat="43.552410520046955" lon="10.821177895410806"><ele>126.0</ele><time>2026-04-18T08:50:32Z</time></trkpt><trkpt lat="43.552344582563016" lon="10.821301366513426"><ele>127.25</ele><time>2026-04-18T08:50:33Z</time></trkpt><trkpt lat="43.55227745730637" lon="10.82142869564309"><ele>128.5</ele><time>2026-04-18T08:50:34Z</time></trkpt><trkpt lat="43.55220979804506" lon="10.821552659563467"><ele>129.75</ele><time>2026-04-18T08:50:35Z</time></trkpt><trkpt lat="43.55214452363067" lon="10.82168075572686"><ele>131.0</ele><time>2026-04-18T08:50:36Z</time></trkpt><trkpt lat="43.552080430681656" lon="10.821803712194791"><ele>132.2</ele><time>2026-04-18T08:50:37.001Z</time></trkpt><trkpt lat="43.55201761234814" lon="10.821930225037216"><ele>133.39999999999998</ele><time>2026-04-18T08:50:38.001Z</time></trkpt><trkpt lat="43.55195118782982" lon="10.822053867005755"><ele>134.6</ele><time>2026-04-18T08:50:39.001Z</time></trkpt><trkpt lat="43.55187993577645" lon="10.822172494237691"><ele>135.79999999999998</ele><time>2026-04-18T08:50:40.001Z</time></trkpt><trkpt lat="43.55181132581652" lon="10.822293906660672"><ele>137.0</ele><time>2026-04-18T08:50:41.001Z</time></trkpt><trkpt lat="43.55174382846065" lon="10.822414914936466"><ele>137.0</ele><time>2026-04-18T08:50:42.001Z</time></trkpt><trkpt lat="43.55167785181982" lon="10.822534037785873"><ele>137.0</ele><time>2026-04-18T08:50:43.001Z</time></trkpt><trkpt lat="43.55161554512717" lon="10.822641610721126"><ele>137.0</ele><time>2026-04-18T08:50:44.001Z</time></trkpt><trkpt lat="43.551546778613066" lon="10.822744483016166"><ele>137.0</ele><time>2026-04-18T08:50:45.001Z</time></trkpt><trkpt lat="43.55146721393617" lon="10.822826901503806"><ele>137.0</ele><time>2026-04-18T08:50:46.001Z</time></trkpt><trkpt lat="43.55137668205891" lon="10.822896619854859"><ele>139.5</ele><time>2026-04-18T08:50:47.001Z</time></trkpt><trkpt lat="43.55127105516595" lon="10.822924945120835"><ele>142.0</ele><time>2026-04-18T08:50:48.001Z</time></trkpt><trkpt lat="43.551163698300606" lon="10.8229689568867"><ele>144.5</ele><time>2026-04-18T08:50:49.001Z</time></trkpt><trkpt lat="43.55102612073885" lon="10.822974261423582"><ele>147.0</ele><time>2026-04-18T08:50:50.001Z</time></trkpt><trkpt lat="43.55089613628069" lon="10.822970928303716"><ele>147.0</ele><time>2026-04-18T08:50:51.001Z</time></trkpt><trkpt lat="43.550767051537846" lon="10.822947383001921"><ele>147.0</ele><time>2026-04-18T08:50:52.001Z</time></trkpt><trkpt lat="43.55062264162849" lon="10.822902742224272"><ele>147.0</ele><time>2026-04-18T08:50:53.001Z</time></trkpt><trkpt lat="43.550476947886835" lon="10.822858947805043"><ele>147.0</ele><time>2026-04-18T08:50:54.001Z</time></trkpt><trkpt lat="43.55034352561745" lon="10.822816610160546"><ele>147.75</ele><time>2026-04-18T08:50:55.001Z</time></trkpt><trkpt lat="43.550216737483865" lon="10.82277305015743"><ele>148.5</ele><time>2026-04-18T08:50:56.001Z</time></trkpt><trkpt lat="43.550099075076226" lon="10.82274504312576"><ele>149.25</ele><time>2026-04-18T08:50:57.001Z</time></trkpt><trkpt lat="43.549997977379455" lon="10.822679749011488"><ele>150.0</ele><time>2026-04-18T08:50:58.001Z</time></trkpt><trkpt lat="43.54989576573967" lon="10.822654177661649"><ele>149.16666666666666</ele><time>2026-04-18T08:50:59.001Z</time></trkpt><trkpt lat="43.549804276626965" lon="10.82263417821168"><ele>148.33333333333334</ele><time>2026-04-18T08:51:00.001Z</time></trkpt><trkpt lat="43.549734653617165" lon="10.822618958660575"><ele>147.5</ele><time>2026-04-18T08:51:01.001Z</time></trkpt><trkpt lat="43.549608211683434" lon="10.822613282363546"><ele>146.66666666666669</ele><time>2026-04-18T08:51:03.001Z</time></trkpt><trkpt lat="43.54953656708708" lon="10.822596980938995"><ele>145.83333333333334</ele><time>2026-04-18T08:51:04.001Z</time></trkpt><trkpt lat="43.54946408043142" lon="10.822576366529072"><ele>145.0</ele><time>2026-04-18T08:51:05.001Z</time></trkpt><trkpt lat="43.54938638819882" lon="10.822558664729225"><ele>145.0</ele><time>2026-04-18T08:51:06.001Z</time></trkpt><trkpt lat="43.549304768475594" lon="10.822538145073459"><ele>145.0</ele><time>2026-04-18T08:51:07.001Z</time></trkpt><trkpt lat="43.549217611827025" lon="10.822518265301461"><ele>145.0</ele><time>2026-04-18T08:51:08.001Z</time></trkpt><trkpt lat="43.54912716895077" lon="10.82249517728753"><ele>145.0</ele><time>2026-04-18T08:51:09.001Z</time></trkpt><trkpt lat="43.549032533959426" lon="10.822472144785957"><ele>145.0</ele><time>2026-04-18T08:51:10.001Z</time></trkpt><trkpt lat="43.548935104425986" lon="10.822444853808596"><ele>145.0</ele><time>2026-04-18T08:51:11.001Z</time></trkpt><trkpt lat="43.548842522029794" lon="10.8223896828274"><ele>145.0</ele><time>2026-04-18T08:51:12.001Z</time></trkpt><trkpt lat="43.54874661504959" lon="10.82234857944818"><ele>145.0</ele><time>2026-04-18T08:51:13.001Z</time></trkpt><trkpt lat="43.54865484283244" lon="10.822297807388649"><ele>145.0</ele><time>2026-04-18T08:51:14.001Z</time></trkpt><trkpt lat="43.548568800622796" lon="10.822236485498781"><ele>145.0</ele><time>2026-04-18T08:51:15.001Z</time></trkpt><trkpt lat="43.54848250412245" lon="10.82216838585441"><ele>145.4</ele><time>2026-04-18T08:51:16.001Z</time></trkpt><trkpt lat="43.54840846920114" lon="10.822090271421558"><ele>145.8</ele><time>2026-04-18T08:51:17.001Z</time></trkpt><trkpt lat="43.548334061267454" lon="10.822003450326225"><ele>146.2</ele><time>2026-04-18T08:51:18.001Z</time></trkpt><trkpt lat="43.548264388040735" lon="10.821911128396746"><ele>146.6</ele><time>2026-04-18T08:51:19.001Z</time></trkpt><trkpt lat="43.54819811343842" lon="10.821820005151183"><ele>147.0</ele><time>2026-04-18T08:51:20.001Z</time></trkpt><trkpt lat="43.54813455473657" lon="10.82172894876436"><ele>147.0</ele><time>2026-04-18T08:51:21.001Z</time></trkpt><trkpt lat="43.54806521062555" lon="10.821646653078412"><ele>147.0</ele><time>2026-04-18T08:51:22.001Z</time></trkpt><trkpt lat="43.54800289947753" lon="10.82155588764201"><ele>147.0</ele><time>2026-04-18T08:51:23.001Z</time></trkpt><trkpt lat="43.547943178020674" lon="10.82145898445956"><ele>147.0</ele><time>2026-04-18T08:51:24.001Z</time></trkpt><trkpt lat="43.54781049310398" lon="10.821292517954884"><ele>146.5</ele><time>2026-04-18T08:51:26.001Z</time></trkpt><trkpt lat="43.547749979821404" lon="10.821215327529254"><ele>146.0</ele><time>2026-04-18T08:51:27.001Z</time></trkpt><trkpt lat="43.54768670763696" lon="10.821136244599169"><ele>145.5</ele><time>2026-04-18T08:51:28.001Z</time></trkpt><trkpt lat="43.54761987011888" lon="10.82105323365589"><ele>145.0</ele><time>2026-04-18T08:51:29.001Z</time></trkpt><trkpt lat="43.5475521071521" lon="10.820962586428006"><ele>144.5</ele><time>2026-04-18T08:51:30.001Z</time></trkpt><trkpt lat="43.54750270542814" lon="10.820858838928363"><ele>144.0</ele><time>2026-04-18T08:51:30.999Z</time></trkpt><trkpt lat="43.547440688177865" lon="10.820780113844371"><ele>144.0</ele><time>2026-04-18T08:51:31.999Z</time></trkpt><trkpt lat="43.547388403231075" lon="10.820696626462167"><ele>144.0</ele><time>2026-04-18T08:51:32.999Z</time></trkpt><trkpt lat="43.54733553614856" lon="10.820623095814307"><ele>144.0</ele><time>2026-04-18T08:51:33.999Z</time></trkpt><trkpt lat="43.54728737482078" lon="10.820555384197624"><ele>144.0</ele><time>2026-04-18T08:51:34.999Z</time></trkpt><trkpt lat="43.54723152079934" lon="10.820484590767682"><ele>144.0</ele><time>2026-04-18T08:51:35.999Z</time></trkpt><trkpt lat="43.54718638660498" lon="10.8204182815903"><ele>144.0</ele><time>2026-04-18T08:51:36.999Z</time></trkpt><trkpt lat="43.54709701606255" lon="10.820340008401637"><ele>141.5</ele><time>2026-04-18T08:51:38.999Z</time></trkpt><trkpt lat="43.54698252864144" lon="10.820347766596928"><ele>139.0</ele><time>2026-04-18T08:51:40.999Z</time></trkpt><trkpt lat="43.54692464150305" lon="10.82040177864148"><ele>136.5</ele><time>2026-04-18T08:51:41.999Z</time></trkpt><trkpt lat="43.546876272034936" lon="10.820479798864287"><ele>134.0</ele><time>2026-04-18T08:51:42.999Z</time></trkpt><trkpt lat="43.546843599745486" lon="10.820576014070808"><ele>131.5</ele><time>2026-04-18T08:51:43.999Z</time></trkpt><trkpt lat="43.54681118167958" lon="10.820689232830539"><ele>129.0</ele><time>2026-04-18T08:51:44.999Z</time></trkpt><trkpt lat="43.546782638432255" lon="10.82080891420547"><ele>129.0</ele><time>2026-04-18T08:51:45.999Z</time></trkpt><trkpt lat="43.54675993229746" lon="10.820925025232077"><ele>129.0</ele><time>2026-04-18T08:51:46.999Z</time></trkpt><trkpt lat="43.54673373086296" lon="10.821048787731831"><ele>129.0</ele><time>2026-04-18T08:51:47.999Z</time></trkpt><trkpt lat="43.54670546427354" lon="10.82117308503592"><ele>129.0</ele><time>2026-04-18T08:51:48.999Z</time></trkpt><trkpt lat="43.546667496549844" lon="10.821298499881484"><ele>129.0</ele><time>2026-04-18T08:51:49.999Z</time></trkpt><trkpt lat="43.54664153056135" lon="10.82142684120176"><ele>128.6</ele><time>2026-04-18T08:51:50.999Z</time></trkpt><trkpt lat="43.546615046760785" lon="10.821558114187994"><ele>128.2</ele><time>2026-04-18T08:51:52Z</time></trkpt><trkpt lat="43.54658923516167" lon="10.82168974577562"><ele>127.79999999999998</ele><time>2026-04-18T08:51:53Z</time></trkpt><trkpt lat="43.54656237724739" lon="10.82182033749422"><ele>127.39999999999999</ele><time>2026-04-18T08:51:54Z</time></trkpt><trkpt lat="43.54653422560281" lon="10.82195037072883"><ele>127.0</ele><time>2026-04-18T08:51:55Z</time></trkpt><trkpt lat="43.54650709972295" lon="10.822083107093306"><ele>126.39999999999999</ele><time>2026-04-18T08:51:56Z</time></trkpt><trkpt lat="43.54648214362389" lon="10.82219974513405"><ele>125.79999999999998</ele><time>2026-04-18T08:51:57Z</time></trkpt><trkpt lat="43.54646106310194" lon="10.822293613783925"><ele>125.2</ele><time>2026-04-18T08:51:58Z</time></trkpt><trkpt lat="43.54642264447235" lon="10.822447480211135"><ele>124.6</ele><time>2026-04-18T08:52:00Z</time></trkpt><trkpt lat="43.54637990950469" lon="10.822606898372232"><ele>124.0</ele><time>2026-04-18T08:52:02Z</time></trkpt><trkpt lat="43.54636058980537" lon="10.822690427586979"><ele>123.66666666666667</ele><time>2026-04-18T08:52:03Z</time></trkpt><trkpt lat="43.546303825826186" lon="10.822835591414414"><ele>123.33333333333334</ele><time>2026-04-18T08:52:05Z</time></trkpt><trkpt lat="43.54619067517047" lon="10.822872393606215"><ele>123.0</ele><time>2026-04-18T08:52:07Z</time></trkpt><trkpt lat="43.54612503158712" lon="10.822859547438354"><ele>122.66666666666666</ele><time>2026-04-18T08:52:08Z</time></trkpt><trkpt lat="43.54606344558723" lon="10.822814979690643"><ele>122.33333333333333</ele><time>2026-04-18T08:52:09Z</time></trkpt><trkpt lat="43.546016876798674" lon="10.822738884282511"><ele>122.0</ele><time>2026-04-18T08:52:10Z</time></trkpt><trkpt lat="43.54596640290201" lon="10.822648377119862"><ele>119.99999999999999</ele><time>2026-04-18T08:52:11Z</time></trkpt><trkpt lat="43.54592239601069" lon="10.822554697667012"><ele>118.0</ele><time>2026-04-18T08:52:12Z</time></trkpt><trkpt lat="43.54587883344267" lon="10.822460169849304"><ele>116.0</ele><time>2026-04-18T08:52:13Z</time></trkpt><trkpt lat="43.54583946872063" lon="10.822372199366454"><ele>114.0</ele><time>2026-04-18T08:52:14Z</time></trkpt><trkpt lat="43.54580153401836" lon="10.82228507313043"><ele>111.99999999999999</ele><time>2026-04-18T08:52:15Z</time></trkpt><trkpt lat="43.54576513316211" lon="10.822189383753297"><ele>110.0</ele><time>2026-04-18T08:52:16Z</time></trkpt><trkpt lat="43.54573017271252" lon="10.822088431802337"><ele>110.0</ele><time>2026-04-18T08:52:17Z</time></trkpt><trkpt lat="43.54569804165092" lon="10.821983158599563"><ele>110.0</ele><time>2026-04-18T08:52:18Z</time></trkpt><trkpt lat="43.54566829166332" lon="10.82186970660131"><ele>110.0</ele><time>2026-04-18T08:52:19Z</time></trkpt><trkpt lat="43.54564181356555" lon="10.821749838129783"><ele>110.0</ele><time>2026-04-18T08:52:20Z</time></trkpt><trkpt lat="43.545616989246" lon="10.821624428045126"><ele>110.0</ele><time>2026-04-18T08:52:21Z</time></trkpt><trkpt lat="43.54557566292547" lon="10.82149491378016"><ele>110.0</ele><time>2026-04-18T08:52:22Z</time></trkpt><trkpt lat="43.54555571502286" lon="10.821351782605952"><ele>110.0</ele><time>2026-04-18T08:52:23Z</time></trkpt><trkpt lat="43.54552515386909" lon="10.821209349503613"><ele>110.0</ele><time>2026-04-18T08:52:24Z</time></trkpt><trkpt lat="43.545496648380386" lon="10.821063757942724"><ele>110.0</ele><time>2026-04-18T08:52:25Z</time></trkpt><trkpt lat="43.5454850947962" lon="10.820915131738607"><ele>110.0</ele><time>2026-04-18T08:52:26Z</time></trkpt><trkpt lat="43.54544256094085" lon="10.8207708590407"><ele>109.8</ele><time>2026-04-18T08:52:27Z</time></trkpt><trkpt lat="43.54541805346314" lon="10.82063509916507"><ele>109.6</ele><time>2026-04-18T08:52:28Z</time></trkpt><trkpt lat="43.545375395087376" lon="10.82050274502052"><ele>109.4</ele><time>2026-04-18T08:52:29Z</time></trkpt><trkpt lat="43.545321735612944" lon="10.820379124622919"><ele>109.2</ele><time>2026-04-18T08:52:30Z</time></trkpt><trkpt lat="43.545252278874806" lon="10.820270006050475"><ele>109.0</ele><time>2026-04-18T08:52:31Z</time></trkpt><trkpt lat="43.545180512145855" lon="10.820188025526297"><ele>106.6</ele><time>2026-04-18T08:52:32Z</time></trkpt><trkpt lat="43.545111313886046" lon="10.820111920051186"><ele>104.2</ele><time>2026-04-18T08:52:33Z</time></trkpt><trkpt lat="43.545042166163256" lon="10.820032685641022"><ele>101.8</ele><time>2026-04-18T08:52:34Z</time></trkpt><trkpt lat="43.54497360531161" lon="10.819949028402965"><ele>99.39999999999999</ele><time>2026-04-18T08:52:35Z</time></trkpt><trkpt lat="43.544908152898316" lon="10.819857564365513"><ele>97.0</ele><time>2026-04-18T08:52:36Z</time></trkpt><trkpt lat="43.544847238013645" lon="10.819756204239743"><ele>97.0</ele><time>2026-04-18T08:52:37Z</time></trkpt><trkpt lat="43.544791612064714" lon="10.819645912777007"><ele>97.0</ele><time>2026-04-18T08:52:38Z</time></trkpt><trkpt lat="43.54474393447359" lon="10.81952386818134"><ele>97.0</ele><time>2026-04-18T08:52:39Z</time></trkpt><trkpt lat="43.54470941278217" lon="10.819399829622478"><ele>97.0</ele><time>2026-04-18T08:52:40Z</time></trkpt><trkpt lat="43.54468964777323" lon="10.819278447506633"><ele>97.0</ele><time>2026-04-18T08:52:41Z</time></trkpt><trkpt lat="43.5446681800807" lon="10.819155710228413"><ele>96.83333333333334</ele><time>2026-04-18T08:52:42Z</time></trkpt><trkpt lat="43.54464871841309" lon="10.81903710616598"><ele>96.66666666666667</ele><time>2026-04-18T08:52:43Z</time></trkpt><trkpt lat="43.54464770124177" lon="10.81891617893931"><ele>96.5</ele><time>2026-04-18T08:52:44Z</time></trkpt><trkpt lat="43.54463314469779" lon="10.81880127307744"><ele>96.33333333333334</ele><time>2026-04-18T08:52:45Z</time></trkpt><trkpt lat="43.54460189571238" lon="10.818690006761305"><ele>96.16666666666667</ele><time>2026-04-18T08:52:46Z</time></trkpt><trkpt lat="43.544592939502536" lon="10.81857006416702"><ele>96.0</ele><time>2026-04-18T08:52:47Z</time></trkpt><trkpt lat="43.54457866293447" lon="10.818449525475708"><ele>96.0</ele><time>2026-04-18T08:52:48Z</time></trkpt><trkpt lat="43.54456290878973" lon="10.818327483964206"><ele>96.0</ele><time>2026-04-18T08:52:49Z</time></trkpt><trkpt lat="43.5445453277372" lon="10.818204820354133"><ele>96.0</ele><time>2026-04-18T08:52:50Z</time></trkpt><trkpt lat="43.544529481923554" lon="10.81807801737212"><ele>96.0</ele><time>2026-04-18T08:52:51Z</time></trkpt><trkpt lat="43.544513736552865" lon="10.817947638754104"><ele>96.0</ele><time>2026-04-18T08:52:52Z</time></trkpt><trkpt lat="43.544498301053984" lon="10.8178134101188"><ele>93.4</ele><time>2026-04-18T08:52:53Z</time></trkpt><trkpt lat="43.544480590979376" lon="10.8176784244282"><ele>90.8</ele><time>2026-04-18T08:52:54Z</time></trkpt><trkpt lat="43.5444639166835" lon="10.817547562355808"><ele>88.2</ele><time>2026-04-18T08:52:55Z</time></trkpt><trkpt lat="43.54444660955327" lon="10.817412635245404"><ele>85.60000000000001</ele><time>2026-04-18T08:52:56Z</time></trkpt><trkpt lat="43.544423618900325" lon="10.817279193359068"><ele>83.0</ele><time>2026-04-18T08:52:57Z</time></trkpt><trkpt lat="43.54439723762167" lon="10.817145691111227"><ele>83.0</ele><time>2026-04-18T08:52:58Z</time></trkpt><trkpt lat="43.5443673158807" lon="10.817027171314658"><ele>83.0</ele><time>2026-04-18T08:52:59Z</time></trkpt><trkpt lat="43.544320927504025" lon="10.81692324782036"><ele>83.0</ele><time>2026-04-18T08:53:00Z</time></trkpt><trkpt lat="43.54425673625793" lon="10.816837162253734"><ele>83.0</ele><time>2026-04-18T08:53:01Z</time></trkpt><trkpt lat="43.54419607644634" lon="10.816751081224563"><ele>83.0</ele><time>2026-04-18T08:53:02Z</time></trkpt><trkpt lat="43.544139482684585" lon="10.816676089440739"><ele>83.0</ele><time>2026-04-18T08:53:03Z</time></trkpt><trkpt lat="43.544083422466485" lon="10.8166283058525"><ele>83.5</ele><time>2026-04-18T08:53:04Z</time></trkpt><trkpt lat="43.54390029982672" lon="10.816774092248357"><ele>84.0</ele><time>2026-04-18T08:53:05Z</time></trkpt><trkpt lat="43.54379728308139" lon="10.816813417095998"><ele>84.5</ele><time>2026-04-18T08:53:06Z</time></trkpt><trkpt lat="43.54369222077085" lon="10.81685983185901"><ele>85.0</ele><time>2026-04-18T08:53:07Z</time></trkpt><trkpt lat="43.5435839391941" lon="10.816909626170956"><ele>83.75</ele><time>2026-04-18T08:53:08Z</time></trkpt><trkpt lat="43.54347445719012" lon="10.816962266230531"><ele>82.5</ele><time>2026-04-18T08:53:09Z</time></trkpt><trkpt lat="43.54336361929902" lon="10.817014278222537"><ele>81.25</ele><time>2026-04-18T08:53:10Z</time></trkpt><trkpt lat="43.54325000992652" lon="10.817063324221639"><ele>80.0</ele><time>2026-04-18T08:53:11Z</time></trkpt><trkpt lat="43.54313815883796" lon="10.817113692748723"><ele>80.0</ele><time>2026-04-18T08:53:12.001Z</time></trkpt><trkpt lat="43.54303455070979" lon="10.817159802085095"><ele>80.0</ele><time>2026-04-18T08:53:13.001Z</time></trkpt><trkpt lat="43.54293592805763" lon="10.817214743507087"><ele>80.0</ele><time>2026-04-18T08:53:14.001Z</time></trkpt><trkpt lat="43.54284814915196" lon="10.817289918265441"><ele>80.0</ele><time>2026-04-18T08:53:15.001Z</time></trkpt><trkpt lat="43.542775290424295" lon="10.817384685101123"><ele>80.0</ele><time>2026-04-18T08:53:16.001Z</time></trkpt><trkpt lat="43.542723328179086" lon="10.817496840536517"><ele>81.2</ele><time>2026-04-18T08:53:17.001Z</time></trkpt><trkpt lat="43.5426894306365" lon="10.817614950897816"><ele>82.4</ele><time>2026-04-18T08:53:18.001Z</time></trkpt><trkpt lat="43.54266467231122" lon="10.817746877526828"><ele>83.6</ele><time>2026-04-18T08:53:19.001Z</time></trkpt><trkpt lat="43.54264550527262" lon="10.817887561168543"><ele>84.8</ele><time>2026-04-18T08:53:20.001Z</time></trkpt><trkpt lat="43.54263392358935" lon="10.818065668271183"><ele>86.0</ele><time>2026-04-18T08:53:21.001Z</time></trkpt><trkpt lat="43.542623809653044" lon="10.818254595403701"><ele>87.5</ele><time>2026-04-18T08:53:22.001Z</time></trkpt><trkpt lat="43.54261635494882" lon="10.818431121703089"><ele>89.0</ele><time>2026-04-18T08:53:23.001Z</time></trkpt><trkpt lat="43.54261007785557" lon="10.818592736145863"><ele>90.5</ele><time>2026-04-18T08:53:24.001Z</time></trkpt><trkpt lat="43.54260057506878" lon="10.818759623935778"><ele>92.0</ele><time>2026-04-18T08:53:25.001Z</time></trkpt><trkpt lat="43.54259428493219" lon="10.818914576136633"><ele>93.25</ele><time>2026-04-18T08:53:26.001Z</time></trkpt><trkpt lat="43.542583502918895" lon="10.819068859183854"><ele>94.5</ele><time>2026-04-18T08:53:27.001Z</time></trkpt><trkpt lat="43.54256772787447" lon="10.819228964092133"><ele>95.75</ele><time>2026-04-18T08:53:28.001Z</time></trkpt><trkpt lat="43.54255609805029" lon="10.819381942745201"><ele>97.0</ele><time>2026-04-18T08:53:29.001Z</time></trkpt><trkpt lat="43.54254350557134" lon="10.819537990131487"><ele>97.8</ele><time>2026-04-18T08:53:30.001Z</time></trkpt><trkpt lat="43.54252765980656" lon="10.819694416468588"><ele>98.6</ele><time>2026-04-18T08:53:31.001Z</time></trkpt><trkpt lat="43.542504535916365" lon="10.819848087104363"><ele>99.39999999999999</ele><time>2026-04-18T08:53:32.001Z</time></trkpt><trkpt lat="43.54247874240138" lon="10.819995145556462"><ele>100.19999999999999</ele><time>2026-04-18T08:53:33.001Z</time></trkpt><trkpt lat="43.542449699372305" lon="10.820138522939466"><ele>101.0</ele><time>2026-04-18T08:53:34.001Z</time></trkpt><trkpt lat="43.54241801741612" lon="10.820276707885096"><ele>101.6</ele><time>2026-04-18T08:53:35.001Z</time></trkpt><trkpt lat="43.5423871777914" lon="10.82041293604429"><ele>102.19999999999999</ele><time>2026-04-18T08:53:36.001Z</time></trkpt><trkpt lat="43.5423545975004" lon="10.820544312366575"><ele>102.80000000000001</ele><time>2026-04-18T08:53:36.999Z</time></trkpt><trkpt lat="43.54231651018155" lon="10.820667019100584"><ele>103.4</ele><time>2026-04-18T08:53:37.999Z</time></trkpt><trkpt lat="43.54228529407147" lon="10.820789298782838"><ele>104.0</ele><time>2026-04-18T08:53:38.999Z</time></trkpt><trkpt lat="43.542248199244575" lon="10.820917403362774"><ele>104.0</ele><time>2026-04-18T08:53:39.999Z</time></trkpt><trkpt lat="43.54219948357836" lon="10.821044157501655"><ele>104.0</ele><time>2026-04-18T08:53:40.999Z</time></trkpt><trkpt lat="43.542135569847666" lon="10.82118871666513"><ele>104.0</ele><time>2026-04-18T08:53:41.999Z</time></trkpt><trkpt lat="43.54205287360347" lon="10.82133649602691"><ele>104.0</ele><time>2026-04-18T08:53:42.999Z</time></trkpt><trkpt lat="43.541962942769025" lon="10.821484635185723"><ele>108.0</ele><time>2026-04-18T08:53:43.999Z</time></trkpt><trkpt lat="43.54188576630097" lon="10.821628744368105"><ele>112.0</ele><time>2026-04-18T08:53:44.999Z</time></trkpt><trkpt lat="43.54179966908357" lon="10.821766257189196"><ele>116.0</ele><time>2026-04-18T08:53:45.999Z</time></trkpt><trkpt lat="43.54178614358913" lon="10.821984591611008"><ele>120.0</ele><time>2026-04-18T08:53:46.999Z</time></trkpt><trkpt lat="43.54177926706756" lon="10.822188274552238"><ele>120.5</ele><time>2026-04-18T08:53:47.999Z</time></trkpt><trkpt lat="43.54177831424859" lon="10.822416846648586"><ele>121.0</ele><time>2026-04-18T08:53:48.999Z</time></trkpt><trkpt lat="43.541771472079624" lon="10.82261906662254"><ele>121.5</ele><time>2026-04-18T08:53:49.999Z</time></trkpt><trkpt lat="43.54175592976542" lon="10.822805570871758"><ele>122.0</ele><time>2026-04-18T08:53:51Z</time></trkpt><trkpt lat="43.54172365715983" lon="10.822974668033606"><ele>122.75</ele><time>2026-04-18T08:53:52Z</time></trkpt><trkpt lat="43.54168426422453" lon="10.823137894876528"><ele>123.5</ele><time>2026-04-18T08:53:53Z</time></trkpt><trkpt lat="43.54163824065803" lon="10.82330543770369"><ele>124.25</ele><time>2026-04-18T08:53:54Z</time></trkpt><trkpt lat="43.54158556020428" lon="10.823478127589013"><ele>125.0</ele><time>2026-04-18T08:53:55Z</time></trkpt><trkpt lat="43.54152777267197" lon="10.823668054224196"><ele>125.0</ele><time>2026-04-18T08:53:56Z</time></trkpt><trkpt lat="43.54146704740789" lon="10.82386938705047"><ele>125.0</ele><time>2026-04-18T08:53:57Z</time></trkpt><trkpt lat="43.54139800223333" lon="10.824078843215572"><ele>125.0</ele><time>2026-04-18T08:53:58Z</time></trkpt><trkpt lat="43.54133098776243" lon="10.824275880338536"><ele>124.25</ele><time>2026-04-18T08:53:59Z</time></trkpt><trkpt lat="43.54127206291656" lon="10.824461553668044"><ele>123.5</ele><time>2026-04-18T08:54:00Z</time></trkpt><trkpt lat="43.541212368168736" lon="10.82464457957847"><ele>122.75</ele><time>2026-04-18T08:54:01Z</time></trkpt><trkpt lat="43.54115381692771" lon="10.824832568393745"><ele>122.0</ele><time>2026-04-18T08:54:02Z</time></trkpt><trkpt lat="43.54110614153638" lon="10.824995636023218"><ele>125.8</ele><time>2026-04-18T08:54:03Z</time></trkpt><trkpt lat="43.541070923335646" lon="10.825119466886274"><ele>129.6</ele><time>2026-04-18T08:54:04Z</time></trkpt><trkpt lat="43.54103829911848" lon="10.82523471418702"><ele>133.39999999999998</ele><time>2026-04-18T08:54:05Z</time></trkpt><trkpt lat="43.54100585432483" lon="10.825348853771118"><ele>137.2</ele><time>2026-04-18T08:54:06Z</time></trkpt><trkpt lat="43.540973328551445" lon="10.825467611475679"><ele>141.0</ele><time>2026-04-18T08:54:07Z</time></trkpt><trkpt lat="43.54094151724375" lon="10.825596529310927"><ele>141.0</ele><time>2026-04-18T08:54:08Z</time></trkpt><trkpt lat="43.54090593348425" lon="10.825737108606788"><ele>141.0</ele><time>2026-04-18T08:54:09Z</time></trkpt><trkpt lat="43.540868051794696" lon="10.825877833238309"><ele>141.0</ele><time>2026-04-18T08:54:10Z</time></trkpt><trkpt lat="43.540836322673876" lon="10.82601423041397"><ele>141.0</ele><time>2026-04-18T08:54:11Z</time></trkpt><trkpt lat="43.540804044806094" lon="10.826147879518954"><ele>141.0</ele><time>2026-04-18T08:54:12Z</time></trkpt><trkpt lat="43.54077754403197" lon="10.826277461420753"><ele>141.0</ele><time>2026-04-18T08:54:13Z</time></trkpt><trkpt lat="43.54073979731765" lon="10.826403070786537"><ele>141.0</ele><time>2026-04-18T08:54:14Z</time></trkpt><trkpt lat="43.540705809173545" lon="10.826530926644134"><ele>141.0</ele><time>2026-04-18T08:54:15Z</time></trkpt><trkpt lat="43.54067293715065" lon="10.82665686142819"><ele>141.0</ele><time>2026-04-18T08:54:16Z</time></trkpt><trkpt lat="43.540641052914395" lon="10.82678249985905"><ele>141.0</ele><time>2026-04-18T08:54:17Z</time></trkpt><trkpt lat="43.54060652011055" lon="10.82690904617192"><ele>141.0</ele><time>2026-04-18T08:54:18Z</time></trkpt><trkpt lat="43.54057047402159" lon="10.82703704122831"><ele>141.0</ele><time>2026-04-18T08:54:19Z</time></trkpt><trkpt lat="43.540531519658785" lon="10.82716397432437"><ele>141.0</ele><time>2026-04-18T08:54:20Z</time></trkpt><trkpt lat="43.54048605647318" lon="10.827293096548091"><ele>141.0</ele><time>2026-04-18T08:54:21Z</time></trkpt><trkpt lat="43.54043552360438" lon="10.827419557244776"><ele>141.0</ele><time>2026-04-18T08:54:22Z</time></trkpt><trkpt lat="43.54038152357627" lon="10.827538880196036"><ele>142.66666666666666</ele><time>2026-04-18T08:54:23Z</time></trkpt><trkpt lat="43.540323140962975" lon="10.827652650152448"><ele>144.33333333333334</ele><time>2026-04-18T08:54:24Z</time></trkpt><trkpt lat="43.540264713534675" lon="10.827756500248402"><ele>146.0</ele><time>2026-04-18T08:54:25Z</time></trkpt><trkpt lat="43.54020902402364" lon="10.827855436569273"><ele>147.66666666666669</ele><time>2026-04-18T08:54:26Z</time></trkpt><trkpt lat="43.54015470079032" lon="10.827949742620639"><ele>149.33333333333334</ele><time>2026-04-18T08:54:27Z</time></trkpt><trkpt lat="43.5401010943263" lon="10.82802174546682"><ele>151.0</ele><time>2026-04-18T08:54:28Z</time></trkpt><trkpt lat="43.54005245399699" lon="10.828077578873847"><ele>151.0</ele><time>2026-04-18T08:54:29Z</time></trkpt><trkpt lat="43.54000410982768" lon="10.828224886587664"><ele>151.0</ele><time>2026-04-18T08:54:31Z</time></trkpt><trkpt lat="43.54001321912228" lon="10.828371859407488"><ele>151.0</ele><time>2026-04-18T08:54:32Z</time></trkpt><trkpt lat="43.54002682437812" lon="10.828531107054259"><ele>151.0</ele><time>2026-04-18T08:54:33Z</time></trkpt><trkpt lat="43.540042183196164" lon="10.828687725732122"><ele>151.2</ele><time>2026-04-18T08:54:34Z</time></trkpt><trkpt lat="43.54006092177392" lon="10.828835273223309"><ele>151.39999999999998</ele><time>2026-04-18T08:54:35Z</time></trkpt><trkpt lat="43.54008205625282" lon="10.828974513138139"><ele>151.6</ele><time>2026-04-18T08:54:36Z</time></trkpt><trkpt lat="43.54010349692879" lon="10.829114684161155"><ele>151.79999999999998</ele><time>2026-04-18T08:54:37Z</time></trkpt><trkpt lat="43.54012284586978" lon="10.829251140353747"><ele>152.0</ele><time>2026-04-18T08:54:38Z</time></trkpt><trkpt lat="43.54013924290038" lon="10.829380341497448"><ele>152.2</ele><time>2026-04-18T08:54:39Z</time></trkpt><trkpt lat="43.540155526333876" lon="10.829504515582565"><ele>152.39999999999998</ele><time>2026-04-18T08:54:40Z</time></trkpt><trkpt lat="43.54017242096647" lon="10.829622945083294"><ele>152.60000000000002</ele><time>2026-04-18T08:54:41Z</time></trkpt><trkpt lat="43.5401825562071" lon="10.829719259883207"><ele>152.8</ele><time>2026-04-18T08:54:42Z</time></trkpt><trkpt lat="43.54019010552169" lon="10.829863277670139"><ele>153.0</ele><time>2026-04-18T08:54:44Z</time></trkpt><trkpt lat="43.54020900871226" lon="10.830003936189888"><ele>153.0</ele><time>2026-04-18T08:54:46Z</time></trkpt><trkpt lat="43.54021727750508" lon="10.830132342797263"><ele>153.0</ele><time>2026-04-18T08:54:48Z</time></trkpt><trkpt lat="43.54023627016623" lon="10.830253117378382"><ele>153.0</ele><time>2026-04-18T08:54:50Z</time></trkpt><trkpt lat="43.540240763737124" lon="10.830371755349347"><ele>153.0</ele><time>2026-04-18T08:54:52Z</time></trkpt><trkpt lat="43.54024881483779" lon="10.830479793523734"><ele>153.0</ele><time>2026-04-18T08:54:54.001Z</time></trkpt><trkpt lat="43.540244857956836" lon="10.830600125402782"><ele>153.0</ele><time>2026-04-18T08:54:56.001Z</time></trkpt><trkpt lat="43.5402435929612" lon="10.830744817909455"><ele>153.66666666666666</ele><time>2026-04-18T08:54:58.001Z</time></trkpt><trkpt lat="43.54023665209704" lon="10.830919208720166"><ele>154.33333333333334</ele><time>2026-04-18T08:55:00.001Z</time></trkpt><trkpt lat="43.540232421965946" lon="10.831006135485"><ele>155.0</ele><time>2026-04-18T08:55:01.001Z</time></trkpt><trkpt lat="43.540226686401475" lon="10.831098589689283"><ele>155.66666666666669</ele><time>2026-04-18T08:55:02.001Z</time></trkpt><trkpt lat="43.54021427410791" lon="10.831189342299519"><ele>156.33333333333334</ele><time>2026-04-18T08:55:03.001Z</time></trkpt><trkpt lat="43.54021270523062" lon="10.831282540235291"><ele>157.0</ele><time>2026-04-18T08:55:04.001Z</time></trkpt><trkpt lat="43.54021009091145" lon="10.831383723528425"><ele>157.7142857142857</ele><time>2026-04-18T08:55:05.001Z</time></trkpt><trkpt lat="43.54020398777933" lon="10.831485277522606"><ele>158.42857142857142</ele><time>2026-04-18T08:55:06.001Z</time></trkpt><trkpt lat="43.54020194665227" lon="10.831585991476059"><ele>159.14285714285714</ele><time>2026-04-18T08:55:07.001Z</time></trkpt><trkpt lat="43.540198006047355" lon="10.831685605725426"><ele>159.85714285714283</ele><time>2026-04-18T08:55:08.001Z</time></trkpt><trkpt lat="43.54019103280902" lon="10.831785351869652"><ele>160.57142857142856</ele><time>2026-04-18T08:55:09.001Z</time></trkpt><trkpt lat="43.54019098729779" lon="10.831883721510607"><ele>161.28571428571428</ele><time>2026-04-18T08:55:10.001Z</time></trkpt><trkpt lat="43.540200347683374" lon="10.831983762260457"><ele>162.0</ele><time>2026-04-18T08:55:11.001Z</time></trkpt><trkpt lat="43.54020427485826" lon="10.832088927061577"><ele>162.16666666666666</ele><time>2026-04-18T08:55:12.001Z</time></trkpt><trkpt lat="43.540209835196976" lon="10.832186717597605"><ele>162.33333333333334</ele><time>2026-04-18T08:55:13.001Z</time></trkpt><trkpt lat="43.54022131180524" lon="10.83227430333389"><ele>162.5</ele><time>2026-04-18T08:55:14.001Z</time></trkpt><trkpt lat="43.54023536016976" lon="10.832363147232975"><ele>162.66666666666669</ele><time>2026-04-18T08:55:15.001Z</time></trkpt><trkpt lat="43.540266057751936" lon="10.832519335213458"><ele>162.83333333333334</ele><time>2026-04-18T08:55:17.001Z</time></trkpt><trkpt lat="43.540293246504106" lon="10.832659650649651"><ele>163.0</ele><time>2026-04-18T08:55:19.001Z</time></trkpt><trkpt lat="43.54031757176454" lon="10.832797747811918"><ele>163.0</ele><time>2026-04-18T08:55:21.001Z</time></trkpt><trkpt lat="43.5403393432202" lon="10.832935840061953"><ele>163.0</ele><time>2026-04-18T08:55:23.001Z</time></trkpt><trkpt lat="43.54035285735593" lon="10.83306548835167"><ele>163.0</ele><time>2026-04-18T08:55:25.001Z</time></trkpt><trkpt lat="43.54036228546517" lon="10.833193684983904"><ele>163.0</ele><time>2026-04-18T08:55:27.001Z</time></trkpt><trkpt lat="43.540364955712384" lon="10.83334031269463"><ele>163.0</ele><time>2026-04-18T08:55:29.001Z</time></trkpt><trkpt lat="43.54034943968567" lon="10.833514468492258"><ele>162.5</ele><time>2026-04-18T08:55:31.001Z</time></trkpt><trkpt lat="43.54034632582267" lon="10.833605453918207"><ele>162.0</ele><time>2026-04-18T08:55:32.001Z</time></trkpt><trkpt lat="43.54035830925806" lon="10.833707980652832"><ele>161.5</ele><time>2026-04-18T08:55:33.001Z</time></trkpt><trkpt lat="43.54035468780692" lon="10.833808416151918"><ele>161.0</ele><time>2026-04-18T08:55:34.001Z</time></trkpt><trkpt lat="43.54033393405687" lon="10.833911768093584"><ele>160.5</ele><time>2026-04-18T08:55:35.001Z</time></trkpt><trkpt lat="43.54032923431378" lon="10.834018142250052"><ele>160.0</ele><time>2026-04-18T08:55:36.001Z</time></trkpt><trkpt lat="43.540324190998675" lon="10.834132164379579"><ele>160.0</ele><time>2026-04-18T08:55:37.001Z</time></trkpt><trkpt lat="43.5403191620598" lon="10.83424586148799"><ele>160.0</ele><time>2026-04-18T08:55:38.001Z</time></trkpt><trkpt lat="43.54033059061636" lon="10.83436445237854"><ele>160.0</ele><time>2026-04-18T08:55:39.001Z</time></trkpt><trkpt lat="43.54030905226845" lon="10.834474429412548"><ele>160.0</ele><time>2026-04-18T08:55:40.001Z</time></trkpt><trkpt lat="43.540304089671324" lon="10.83458662663567"><ele>160.0</ele><time>2026-04-18T08:55:41.001Z</time></trkpt><trkpt lat="43.540299175348466" lon="10.834697732460112"><ele>160.0</ele><time>2026-04-18T08:55:42.001Z</time></trkpt><trkpt lat="43.54030980765348" lon="10.834811327626387"><ele>160.0</ele><time>2026-04-18T08:55:43Z</time></trkpt><trkpt lat="43.54030251876724" lon="10.834928219777915"><ele>160.0</ele><time>2026-04-18T08:55:44Z</time></trkpt><trkpt lat="43.54029160319797" lon="10.835050685767387"><ele>160.0</ele><time>2026-04-18T08:55:45Z</time></trkpt><trkpt lat="43.54028696852451" lon="10.83517155447437"><ele>160.0</ele><time>2026-04-18T08:55:46Z</time></trkpt><trkpt lat="43.5402808847595" lon="10.835296467715764"><ele>160.0</ele><time>2026-04-18T08:55:47Z</time></trkpt><trkpt lat="43.540274931853816" lon="10.835423595658153"><ele>160.0</ele><time>2026-04-18T08:55:48Z</time></trkpt><trkpt lat="43.540270138046736" lon="10.835552109837026"><ele>160.0</ele><time>2026-04-18T08:55:49Z</time></trkpt><trkpt lat="43.5402641581182" lon="10.835675796492014"><ele>160.0</ele><time>2026-04-18T08:55:50Z</time></trkpt><trkpt lat="43.54025786872231" lon="10.835802091119405"><ele>160.0</ele><time>2026-04-18T08:55:51Z</time></trkpt><trkpt lat="43.540251884886786" lon="10.835930377994218"><ele>160.0</ele><time>2026-04-18T08:55:52Z</time></trkpt><trkpt lat="43.54024670604902" lon="10.83605848601004"><ele>160.0</ele><time>2026-04-18T08:55:53Z</time></trkpt><trkpt lat="43.54024111478363" lon="10.836183270189949"><ele>159.4</ele><time>2026-04-18T08:55:54Z</time></trkpt><trkpt lat="43.540235464064395" lon="10.836306470893533"><ele>158.8</ele><time>2026-04-18T08:55:55Z</time></trkpt><trkpt lat="43.54022859649425" lon="10.836430919207945"><ele>158.2</ele><time>2026-04-18T08:55:56Z</time></trkpt><trkpt lat="43.54022457027028" lon="10.836561739546626"><ele>157.6</ele><time>2026-04-18T08:55:57Z</time></trkpt><trkpt lat="43.54022166768269" lon="10.83668883895396"><ele>157.0</ele><time>2026-04-18T08:55:58Z</time></trkpt><trkpt lat="43.540223459312934" lon="10.83682432043151"><ele>157.0</ele><time>2026-04-18T08:55:59Z</time></trkpt><trkpt lat="43.54022791081795" lon="10.836963474912368"><ele>157.0</ele><time>2026-04-18T08:56:00Z</time></trkpt><trkpt lat="43.54023691247163" lon="10.837103397309342"><ele>157.0</ele><time>2026-04-18T08:56:01Z</time></trkpt><trkpt lat="43.540251121681635" lon="10.837247426116704"><ele>157.0</ele><time>2026-04-18T08:56:02Z</time></trkpt><trkpt lat="43.54026977443256" lon="10.837395937921581"><ele>157.0</ele><time>2026-04-18T08:56:03Z</time></trkpt><trkpt lat="43.54028850492971" lon="10.837549508322452"><ele>157.4</ele><time>2026-04-18T08:56:04Z</time></trkpt><trkpt lat="43.540311619771174" lon="10.837692387773314"><ele>157.79999999999998</ele><time>2026-04-18T08:56:05Z</time></trkpt><trkpt lat="43.54033707464072" lon="10.837839990990997"><ele>158.2</ele><time>2026-04-18T08:56:06Z</time></trkpt><trkpt lat="43.540362140451144" lon="10.837987573277184"><ele>158.6</ele><time>2026-04-18T08:56:07Z</time></trkpt><trkpt lat="43.540386789541984" lon="10.83813573566828"><ele>159.0</ele><time>2026-04-18T08:56:08Z</time></trkpt><trkpt lat="43.54041100631582" lon="10.838278378569127"><ele>159.0</ele><time>2026-04-18T08:56:09Z</time></trkpt><trkpt lat="43.540435497827175" lon="10.83841506061429"><ele>159.0</ele><time>2026-04-18T08:56:10Z</time></trkpt><trkpt lat="43.54045824141811" lon="10.838553675629381"><ele>159.0</ele><time>2026-04-18T08:56:11Z</time></trkpt><trkpt lat="43.540481771128796" lon="10.838686048049977"><ele>159.0</ele><time>2026-04-18T08:56:12Z</time></trkpt><trkpt lat="43.54050571788843" lon="10.838814083491318"><ele>159.0</ele><time>2026-04-18T08:56:13Z</time></trkpt><trkpt lat="43.54053003171165" lon="10.838937809272482"><ele>160.5</ele><time>2026-04-18T08:56:14Z</time></trkpt><trkpt lat="43.540554502972164" lon="10.839059337897481"><ele>162.0</ele><time>2026-04-18T08:56:15Z</time></trkpt><trkpt lat="43.540577070453296" lon="10.839171392546003"><ele>163.5</ele><time>2026-04-18T08:56:16Z</time></trkpt><trkpt lat="43.540598318536155" lon="10.839278638647704"><ele>165.0</ele><time>2026-04-18T08:56:17Z</time></trkpt><trkpt lat="43.5406198784278" lon="10.839380662672458"><ele>166.5</ele><time>2026-04-18T08:56:18Z</time></trkpt><trkpt lat="43.54064098182761" lon="10.839481841163872"><ele>168.0</ele><time>2026-04-18T08:56:19Z</time></trkpt><trkpt lat="43.540659767513034" lon="10.839570848772533"><ele>169.4</ele><time>2026-04-18T08:56:20Z</time></trkpt><trkpt lat="43.54065278041249" lon="10.839701843232229"><ele>170.8</ele><time>2026-04-18T08:56:22Z</time></trkpt><trkpt lat="43.540585120364646" lon="10.83964564163016"><ele>172.2</ele><time>2026-04-18T08:56:24Z</time></trkpt><trkpt lat="43.54048699453063" lon="10.839572394031718"><ele>173.6</ele><time>2026-04-18T08:56:27Z</time></trkpt><trkpt lat="43.540370787063765" lon="10.839547796261009"><ele>175.0</ele><time>2026-04-18T08:56:29Z</time></trkpt><trkpt lat="43.540267330416896" lon="10.83954631113077"><ele>175.2</ele><time>2026-04-18T08:56:31Z</time></trkpt><trkpt lat="43.5401767991395" lon="10.839550464967175"><ele>175.4</ele><time>2026-04-18T08:56:33Z</time></trkpt><trkpt lat="43.540114529989324" lon="10.83944713651154"><ele>175.60000000000002</ele><time>2026-04-18T08:56:35Z</time></trkpt><trkpt lat="43.54003374537714" lon="10.839382241831903"><ele>175.8</ele><time>2026-04-18T08:56:37Z</time></trkpt><trkpt lat="43.53993351503275" lon="10.839322437643206"><ele>176.0</ele><time>2026-04-18T08:56:39Z</time></trkpt><trkpt lat="43.539844696393395" lon="10.839218833375709"><ele>174.8</ele><time>2026-04-18T08:56:41.001Z</time></trkpt><trkpt lat="43.53975156823305" lon="10.839138244205834"><ele>173.60000000000002</ele><time>2026-04-18T08:56:43.001Z</time></trkpt><trkpt lat="43.53966032955297" lon="10.839064251323395"><ele>172.4</ele><time>2026-04-18T08:56:45.001Z</time></trkpt><trkpt lat="43.53955704997809" lon="10.83900114494525"><ele>171.2</ele><time>2026-04-18T08:56:47.001Z</time></trkpt><trkpt lat="43.53946528513507" lon="10.838927551406123"><ele>170.0</ele><time>2026-04-18T08:56:49.001Z</time></trkpt><trkpt lat="43.53937981851932" lon="10.83886437861899"><ele>169.83333333333331</ele><time>2026-04-18T08:56:51.001Z</time></trkpt><trkpt lat="43.539296722535745" lon="10.83879525052057"><ele>169.66666666666666</ele><time>2026-04-18T08:56:53.001Z</time></trkpt><trkpt lat="43.539216639709394" lon="10.838697026483379"><ele>169.5</ele><time>2026-04-18T08:56:55.001Z</time></trkpt><trkpt lat="43.539161083157744" lon="10.83864673222468"><ele>169.33333333333334</ele><time>2026-04-18T08:56:56.001Z</time></trkpt><trkpt lat="43.53910058315717" lon="10.838591962761257"><ele>169.16666666666669</ele><time>2026-04-18T08:56:57.001Z</time></trkpt><trkpt lat="43.539027320924134" lon="10.838553208966522"><ele>169.0</ele><time>2026-04-18T08:56:58.001Z</time></trkpt><trkpt lat="43.538965618252035" lon="10.83849733786924"><ele>168.2</ele><time>2026-04-18T08:56:59.001Z</time></trkpt><trkpt lat="43.5388719154588" lon="10.838400265051728"><ele>167.39999999999998</ele><time>2026-04-18T08:57:01.001Z</time></trkpt><trkpt lat="43.53877103779083" lon="10.838348204747769"><ele>166.6</ele><time>2026-04-18T08:57:03.001Z</time></trkpt><trkpt lat="43.538688601232494" lon="10.838266038750483"><ele>165.8</ele><time>2026-04-18T08:57:05.001Z</time></trkpt><trkpt lat="43.53860605233833" lon="10.838197827637954"><ele>165.0</ele><time>2026-04-18T08:57:07.001Z</time></trkpt><trkpt lat="43.53851812467797" lon="10.83814509099235"><ele>165.0</ele><time>2026-04-18T08:57:09.001Z</time></trkpt><trkpt lat="43.538444286249046" lon="10.83805905371533"><ele>165.0</ele><time>2026-04-18T08:57:11.001Z</time></trkpt><trkpt lat="43.538321401789" lon="10.83797459345179"><ele>165.0</ele><time>2026-04-18T08:57:14.001Z</time></trkpt><trkpt lat="43.53823896476509" lon="10.837902627578446"><ele>165.0</ele><time>2026-04-18T08:57:16.001Z</time></trkpt><trkpt lat="43.538150093169335" lon="10.837823092571163"><ele>165.0</ele><time>2026-04-18T08:57:18.001Z</time></trkpt><trkpt lat="43.538089379250465" lon="10.837771291412267"><ele>165.0</ele><time>2026-04-18T08:57:19.001Z</time></trkpt><trkpt lat="43.538031420599744" lon="10.837728213458673"><ele>165.0</ele><time>2026-04-18T08:57:20.001Z</time></trkpt><trkpt lat="43.53793182100439" lon="10.837635930375619"><ele>165.0</ele><time>2026-04-18T08:57:22.001Z</time></trkpt><trkpt lat="43.537854364757045" lon="10.837548652493934"><ele>165.0</ele><time>2026-04-18T08:57:24.001Z</time></trkpt><trkpt lat="43.53777353055153" lon="10.837478714455859"><ele>165.0</ele><time>2026-04-18T08:57:26.001Z</time></trkpt><trkpt lat="43.537679402489545" lon="10.837415235794927"><ele>163.83333333333334</ele><time>2026-04-18T08:57:28.001Z</time></trkpt><trkpt lat="43.537587484783636" lon="10.837355468934208"><ele>162.66666666666666</ele><time>2026-04-18T08:57:30.001Z</time></trkpt><trkpt lat="43.53749962240694" lon="10.837311647903878"><ele>161.5</ele><time>2026-04-18T08:57:32.001Z</time></trkpt><trkpt lat="43.5374259709192" lon="10.837285181802663"><ele>160.33333333333331</ele><time>2026-04-18T08:57:34.001Z</time></trkpt><trkpt lat="43.53735273635179" lon="10.837272122803155"><ele>159.16666666666666</ele><time>2026-04-18T08:57:48.001Z</time></trkpt><trkpt lat="43.537253415263486" lon="10.8372474921063"><ele>158.0</ele><time>2026-04-18T09:00:57.001Z</time></trkpt><trkpt lat="43.53719027029386" lon="10.837227156304836"><ele>158.00000000000003</ele><time>2026-04-18T09:00:59.001Z</time></trkpt><trkpt lat="43.53712650440338" lon="10.83721892694852"><ele>158.0</ele><time>2026-04-18T09:01:12.001Z</time></trkpt><trkpt lat="43.537062100379956" lon="10.837176705170602"><ele>158.0</ele><time>2026-04-18T09:01:15.001Z</time></trkpt><trkpt lat="43.53699812167113" lon="10.837113351278587"><ele>158.0</ele><time>2026-04-18T09:01:18.001Z</time></trkpt><trkpt lat="43.53693545594714" lon="10.837051045700505"><ele>158.0</ele><time>2026-04-18T09:01:20.001Z</time></trkpt><trkpt lat="43.53688033188103" lon="10.836996238440848"><ele>158.00000000000003</ele><time>2026-04-18T09:01:22.001Z</time></trkpt><trkpt lat="43.536813986077" lon="10.836936338113464"><ele>158.0</ele><time>2026-04-18T09:01:24.001Z</time></trkpt><trkpt lat="43.536734096825164" lon="10.83687332661761"><ele>157.8</ele><time>2026-04-18T09:01:26.001Z</time></trkpt><trkpt lat="43.536622254586675" lon="10.836818695938577"><ele>157.60000000000002</ele><time>2026-04-18T09:01:28.001Z</time></trkpt><trkpt lat="43.536534153703315" lon="10.836741790380172"><ele>157.39999999999998</ele><time>2026-04-18T09:01:30.001Z</time></trkpt><trkpt lat="43.53646479002469" lon="10.83668586169557"><ele>157.2</ele><time>2026-04-18T09:01:32.001Z</time></trkpt><trkpt lat="43.536368432152855" lon="10.836584150598481"><ele>157.0</ele><time>2026-04-18T09:01:34.001Z</time></trkpt><trkpt lat="43.53630832760225" lon="10.836516329121196"><ele>157.0</ele><time>2026-04-18T09:01:35.001Z</time></trkpt><trkpt lat="43.53625176321064" lon="10.83645269418272"><ele>157.0</ele><time>2026-04-18T09:01:36.001Z</time></trkpt><trkpt lat="43.53619718780445" lon="10.836395461266779"><ele>157.0</ele><time>2026-04-18T09:01:37.001Z</time></trkpt><trkpt lat="43.53607573073283" lon="10.836329949002138"><ele>157.0</ele><time>2026-04-18T09:01:39.001Z</time></trkpt><trkpt lat="43.536014538196696" lon="10.83630161643981"><ele>157.0</ele><time>2026-04-18T09:01:40.001Z</time></trkpt><trkpt lat="43.53590562812259" lon="10.836217612422084"><ele>157.7142857142857</ele><time>2026-04-18T09:01:42.001Z</time></trkpt><trkpt lat="43.535859922552106" lon="10.836154228642478"><ele>158.42857142857142</ele><time>2026-04-18T09:01:43.001Z</time></trkpt><trkpt lat="43.53581273408221" lon="10.836083809826965"><ele>159.14285714285714</ele><time>2026-04-18T09:01:44.001Z</time></trkpt><trkpt lat="43.53576582343081" lon="10.836015639074219"><ele>159.85714285714283</ele><time>2026-04-18T09:01:45.001Z</time></trkpt><trkpt lat="43.53571505488613" lon="10.835941862009765"><ele>160.57142857142856</ele><time>2026-04-18T09:01:46.001Z</time></trkpt><trkpt lat="43.53566623945351" lon="10.83587092321852"><ele>161.28571428571428</ele><time>2026-04-18T09:01:47.001Z</time></trkpt><trkpt lat="43.53560721838013" lon="10.835812928222088"><ele>162.0</ele><time>2026-04-18T09:01:48.001Z</time></trkpt><trkpt lat="43.53555732381245" lon="10.835745485684336"><ele>162.0</ele><time>2026-04-18T09:01:49.001Z</time></trkpt><trkpt lat="43.535516824059314" lon="10.835658045649017"><ele>162.0</ele><time>2026-04-18T09:01:50.001Z</time></trkpt><trkpt lat="43.535453157422005" lon="10.83560108239592"><ele>162.0</ele><time>2026-04-18T09:01:51.001Z</time></trkpt><trkpt lat="43.535400439747065" lon="10.835535888151961"><ele>162.0</ele><time>2026-04-18T09:01:52.001Z</time></trkpt><trkpt lat="43.53535350034761" lon="10.835452990903574"><ele>162.0</ele><time>2026-04-18T09:01:53.001Z</time></trkpt><trkpt lat="43.53530116794106" lon="10.835398066125904"><ele>162.0</ele><time>2026-04-18T09:01:54.001Z</time></trkpt><trkpt lat="43.53518850315045" lon="10.835332607021375"><ele>163.6</ele><time>2026-04-18T09:01:56.001Z</time></trkpt><trkpt lat="43.53507193625096" lon="10.835310542794462"><ele>165.2</ele><time>2026-04-18T09:01:58.001Z</time></trkpt><trkpt lat="43.53498226747612" lon="10.835233519289654"><ele>166.8</ele><time>2026-04-18T09:02:00.001Z</time></trkpt><trkpt lat="43.534939110314" lon="10.835167176498825"><ele>168.4</ele><time>2026-04-18T09:02:01.001Z</time></trkpt><trkpt lat="43.53495563788396" lon="10.835058065538913"><ele>170.0</ele><time>2026-04-18T09:02:02.001Z</time></trkpt><trkpt lat="43.53490052910625" lon="10.834897140663436"><ele>170.0</ele><time>2026-04-18T09:02:04.001Z</time></trkpt><trkpt lat="43.53486910624311" lon="10.834809984205336"><ele>170.0</ele><time>2026-04-18T09:02:05.001Z</time></trkpt><trkpt lat="43.53483083101473" lon="10.834715858515766"><ele>170.0</ele><time>2026-04-18T09:02:06.001Z</time></trkpt><trkpt lat="43.53478724340001" lon="10.834628250033669"><ele>170.0</ele><time>2026-04-18T09:02:07.001Z</time></trkpt><trkpt lat="43.53474187807737" lon="10.83454546699291"><ele>170.0</ele><time>2026-04-18T09:02:08.001Z</time></trkpt><trkpt lat="43.53469783581594" lon="10.834474455115782"><ele>170.0</ele><time>2026-04-18T09:02:09.001Z</time></trkpt><trkpt lat="43.53465471476396" lon="10.83440936460863"><ele>170.0</ele><time>2026-04-18T09:02:10.001Z</time></trkpt><trkpt lat="43.534599485554516" lon="10.834351938094231"><ele>170.33333333333331</ele><time>2026-04-18T09:02:11.001Z</time></trkpt><trkpt lat="43.53453658678843" lon="10.834284016016303"><ele>170.66666666666666</ele><time>2026-04-18T09:02:12.001Z</time></trkpt><trkpt lat="43.53447482248252" lon="10.834212074383787"><ele>171.0</ele><time>2026-04-18T09:02:13.001Z</time></trkpt><trkpt lat="43.53442079159422" lon="10.834144156629902"><ele>171.33333333333334</ele><time>2026-04-18T09:02:14.001Z</time></trkpt><trkpt lat="43.53436097609158" lon="10.834082179338248"><ele>171.66666666666669</ele><time>2026-04-18T09:02:15.001Z</time></trkpt><trkpt lat="43.53431504234965" lon="10.834005684413418"><ele>172.0</ele><time>2026-04-18T09:02:16.001Z</time></trkpt><trkpt lat="43.53424979993646" lon="10.833966976389313"><ele>172.0</ele><time>2026-04-18T09:02:17.001Z</time></trkpt><trkpt lat="43.53419656719902" lon="10.833894136399998"><ele>172.0</ele><time>2026-04-18T09:02:18.001Z</time></trkpt><trkpt lat="43.53412241198351" lon="10.833844593648113"><ele>172.0</ele><time>2026-04-18T09:02:19.001Z</time></trkpt><trkpt lat="43.53404221868598" lon="10.83379555652081"><ele>172.0</ele><time>2026-04-18T09:02:20.001Z</time></trkpt><trkpt lat="43.533963658938184" lon="10.833730179515056"><ele>172.0</ele><time>2026-04-18T09:02:21.001Z</time></trkpt><trkpt lat="43.533903005442085" lon="10.833654129401925"><ele>172.0</ele><time>2026-04-18T09:02:22.001Z</time></trkpt><trkpt lat="43.5338563758909" lon="10.833571678171893"><ele>172.0</ele><time>2026-04-18T09:02:23.001Z</time></trkpt><trkpt lat="43.53380828839279" lon="10.83349946563759"><ele>172.0</ele><time>2026-04-18T09:02:24.001Z</time></trkpt><trkpt lat="43.53376202412154" lon="10.833420720961897"><ele>172.0</ele><time>2026-04-18T09:02:25.001Z</time></trkpt><trkpt lat="43.53368368021335" lon="10.833268612439364"><ele>172.0</ele><time>2026-04-18T09:02:27.001Z</time></trkpt><trkpt lat="43.5336244596384" lon="10.833207341622215"><ele>172.0</ele><time>2026-04-18T09:02:28.001Z</time></trkpt><trkpt lat="43.533579740990504" lon="10.833135559165061"><ele>172.0</ele><time>2026-04-18T09:02:29.001Z</time></trkpt><trkpt lat="43.53354420119876" lon="10.83304898897911"><ele>171.66666666666669</ele><time>2026-04-18T09:02:30.001Z</time></trkpt><trkpt lat="43.533506443337906" lon="10.832965776337142"><ele>171.33333333333334</ele><time>2026-04-18T09:02:31.001Z</time></trkpt><trkpt lat="43.533451897920834" lon="10.83288164458959"><ele>171.0</ele><time>2026-04-18T09:02:32.001Z</time></trkpt><trkpt lat="43.53341572975806" lon="10.832792044753317"><ele>170.66666666666666</ele><time>2026-04-18T09:02:33.001Z</time></trkpt><trkpt lat="43.533383613298646" lon="10.832695228526998"><ele>170.33333333333331</ele><time>2026-04-18T09:02:34.001Z</time></trkpt><trkpt lat="43.53335803874196" lon="10.832592249030876"><ele>170.0</ele><time>2026-04-18T09:02:35.001Z</time></trkpt><trkpt lat="43.53330420290426" lon="10.832509210569796"><ele>170.0</ele><time>2026-04-18T09:02:36.001Z</time></trkpt><trkpt lat="43.533260646362315" lon="10.832420967321328"><ele>170.0</ele><time>2026-04-18T09:02:37.001Z</time></trkpt><trkpt lat="43.53320552383404" lon="10.832341959209572"><ele>170.0</ele><time>2026-04-18T09:02:38.001Z</time></trkpt><trkpt lat="43.533141532706146" lon="10.832250170974108"><ele>170.0</ele><time>2026-04-18T09:02:39.001Z</time></trkpt><trkpt lat="43.53308500312606" lon="10.832147338875538"><ele>170.0</ele><time>2026-04-18T09:02:40.001Z</time></trkpt><trkpt lat="43.53301547232764" lon="10.832047271110081"><ele>170.0</ele><time>2026-04-18T09:02:41.001Z</time></trkpt><trkpt lat="43.532956446701" lon="10.831955865854166"><ele>170.0</ele><time>2026-04-18T09:02:42.001Z</time></trkpt><trkpt lat="43.532902579647555" lon="10.831852164513299"><ele>170.0</ele><time>2026-04-18T09:02:43.001Z</time></trkpt><trkpt lat="43.53285221042961" lon="10.831742473057066"><ele>170.0</ele><time>2026-04-18T09:02:44.001Z</time></trkpt><trkpt lat="43.53280631728756" lon="10.8316225490345"><ele>170.0</ele><time>2026-04-18T09:02:45.001Z</time></trkpt><trkpt lat="43.532758768869265" lon="10.83150403042423"><ele>170.0</ele><time>2026-04-18T09:02:46.001Z</time></trkpt><trkpt lat="43.53270457463424" lon="10.831399653234042"><ele>170.0</ele><time>2026-04-18T09:02:47.001Z</time></trkpt><trkpt lat="43.532648965007155" lon="10.831307625518614"><ele>170.0</ele><time>2026-04-18T09:02:48.001Z</time></trkpt><trkpt lat="43.53259234760247" lon="10.83122508889521"><ele>170.0</ele><time>2026-04-18T09:02:49.001Z</time></trkpt><trkpt lat="43.532527512368915" lon="10.831145046824377"><ele>170.0</ele><time>2026-04-18T09:02:50.001Z</time></trkpt><trkpt lat="43.532453424015756" lon="10.831067834188774"><ele>170.0</ele><time>2026-04-18T09:02:51.001Z</time></trkpt><trkpt lat="43.532376029923824" lon="10.830996206835968"><ele>170.0</ele><time>2026-04-18T09:02:52.001Z</time></trkpt><trkpt lat="43.53229124079015" lon="10.830937767968889"><ele>171.4</ele><time>2026-04-18T09:02:53.001Z</time></trkpt><trkpt lat="43.532205012563935" lon="10.83088659697538"><ele>172.8</ele><time>2026-04-18T09:02:54.001Z</time></trkpt><trkpt lat="43.53210851303405" lon="10.830853361170925"><ele>174.2</ele><time>2026-04-18T09:02:55.001Z</time></trkpt><trkpt lat="43.5320191284759" lon="10.830812989936666"><ele>175.6</ele><time>2026-04-18T09:02:56.001Z</time></trkpt><trkpt lat="43.531928756399616" lon="10.830776635871679"><ele>177.0</ele><time>2026-04-18T09:02:57.001Z</time></trkpt><trkpt lat="43.531839126091924" lon="10.830741031679045"><ele>177.66666666666666</ele><time>2026-04-18T09:02:58.001Z</time></trkpt><trkpt lat="43.53176067482528" lon="10.830687380857567"><ele>178.33333333333334</ele><time>2026-04-18T09:02:59.001Z</time></trkpt><trkpt lat="43.53168643477" lon="10.83064639472371"><ele>179.0</ele><time>2026-04-18T09:03:00.001Z</time></trkpt><trkpt lat="43.531602100950394" lon="10.830623246042265"><ele>179.66666666666669</ele><time>2026-04-18T09:03:01.001Z</time></trkpt><trkpt lat="43.531532406143896" lon="10.830578663145397"><ele>180.33333333333334</ele><time>2026-04-18T09:03:02.001Z</time></trkpt><trkpt lat="43.531453692828784" lon="10.830534109184086"><ele>181.0</ele><time>2026-04-18T09:03:03.001Z</time></trkpt><trkpt lat="43.53137066468741" lon="10.830497927302593"><ele>181.0</ele><time>2026-04-18T09:03:04.001Z</time></trkpt><trkpt lat="43.5312911298163" lon="10.830462863502811"><ele>181.0</ele><time>2026-04-18T09:03:05.001Z</time></trkpt><trkpt lat="43.531228741622705" lon="10.830404073941535"><ele>181.0</ele><time>2026-04-18T09:03:06.001Z</time></trkpt><trkpt lat="43.531163589782736" lon="10.830351137015011"><ele>181.0</ele><time>2026-04-18T09:03:07.001Z</time></trkpt><trkpt lat="43.53111246449138" lon="10.83028379732851"><ele>181.0</ele><time>2026-04-18T09:03:08.001Z</time></trkpt><trkpt lat="43.53107923546278" lon="10.830204475374297"><ele>181.0</ele><time>2026-04-18T09:03:09.001Z</time></trkpt><trkpt lat="43.53105118623689" lon="10.83011443221938"><ele>181.0</ele><time>2026-04-18T09:03:10.001Z</time></trkpt><trkpt lat="43.531020661411524" lon="10.829997104663741"><ele>180.5</ele><time>2026-04-18T09:03:11.001Z</time></trkpt><trkpt lat="43.53100164516551" lon="10.829878561924316"><ele>180.0</ele><time>2026-04-18T09:03:12.001Z</time></trkpt><trkpt lat="43.53098674455925" lon="10.829748254625464"><ele>179.5</ele><time>2026-04-18T09:03:13.001Z</time></trkpt><trkpt lat="43.53097437481924" lon="10.829624067305126"><ele>179.0</ele><time>2026-04-18T09:03:14.001Z</time></trkpt><trkpt lat="43.530948420949244" lon="10.829509688532623"><ele>178.5</ele><time>2026-04-18T09:03:15.001Z</time></trkpt><trkpt lat="43.530941922680825" lon="10.829391093554715"><ele>178.0</ele><time>2026-04-18T09:03:16.001Z</time></trkpt><trkpt lat="43.53093119850739" lon="10.82928577689586"><ele>177.66666666666669</ele><time>2026-04-18T09:03:17.001Z</time></trkpt><trkpt lat="43.53091158096205" lon="10.82917973711697"><ele>177.33333333333334</ele><time>2026-04-18T09:03:18.001Z</time></trkpt><trkpt lat="43.53088036167393" lon="10.829069431856892"><ele>177.0</ele><time>2026-04-18T09:03:19.001Z</time></trkpt><trkpt lat="43.53084502765794" lon="10.82896545263459"><ele>176.66666666666666</ele><time>2026-04-18T09:03:20.001Z</time></trkpt><trkpt lat="43.53080383569282" lon="10.82886086118083"><ele>176.33333333333331</ele><time>2026-04-18T09:03:21.001Z</time></trkpt><trkpt lat="43.530747116926456" lon="10.82878038379622"><ele>176.0</ele><time>2026-04-18T09:03:22.001Z</time></trkpt><trkpt lat="43.53069443568294" lon="10.828690675292043"><ele>176.0</ele><time>2026-04-18T09:03:23.001Z</time></trkpt><trkpt lat="43.530642807989345" lon="10.8286086680192"><ele>176.0</ele><time>2026-04-18T09:03:24.001Z</time></trkpt><trkpt lat="43.53058584227894" lon="10.828527529832561"><ele>176.0</ele><time>2026-04-18T09:03:25.001Z</time></trkpt><trkpt lat="43.53054099474133" lon="10.828433573603993"><ele>176.0</ele><time>2026-04-18T09:03:26.001Z</time></trkpt><trkpt lat="43.530479718295844" lon="10.828373261922664"><ele>176.0</ele><time>2026-04-18T09:03:27.001Z</time></trkpt><trkpt lat="43.53043317926179" lon="10.82828405920386"><ele>176.0</ele><time>2026-04-18T09:03:28.001Z</time></trkpt><trkpt lat="43.53038445762271" lon="10.828220275291004"><ele>174.66666666666666</ele><time>2026-04-18T09:03:29.001Z</time></trkpt><trkpt lat="43.53032384477589" lon="10.828176674863322"><ele>173.33333333333331</ele><time>2026-04-18T09:03:30.001Z</time></trkpt><trkpt lat="43.53027743628666" lon="10.828116041777097"><ele>172.0</ele><time>2026-04-18T09:03:31.001Z</time></trkpt><trkpt lat="43.530201544364886" lon="10.828002100574666"><ele>170.66666666666666</ele><time>2026-04-18T09:03:33.001Z</time></trkpt><trkpt lat="43.53013090637377" lon="10.827903894615595"><ele>169.33333333333334</ele><time>2026-04-18T09:03:35.001Z</time></trkpt><trkpt lat="43.53007104193008" lon="10.827842483914363"><ele>168.0</ele><time>2026-04-18T09:03:38.001Z</time></trkpt><trkpt lat="43.530047766839886" lon="10.827746855526877"><ele>168.0</ele><time>2026-04-18T09:03:41.001Z</time></trkpt><trkpt lat="43.52997596187696" lon="10.827653099535988"><ele>168.0</ele><time>2026-04-18T09:03:43.001Z</time></trkpt><trkpt lat="43.52991264376545" lon="10.82753814676235"><ele>168.0</ele><time>2026-04-18T09:03:45.001Z</time></trkpt><trkpt lat="43.52986480210048" lon="10.827408781512462"><ele>168.0</ele><time>2026-04-18T09:03:47.001Z</time></trkpt><trkpt lat="43.52978843562877" lon="10.827304479137242"><ele>168.0</ele><time>2026-04-18T09:03:49.001Z</time></trkpt><trkpt lat="43.529720610184796" lon="10.82717913768274"><ele>168.0</ele><time>2026-04-18T09:03:51.001Z</time></trkpt><trkpt lat="43.52965418735689" lon="10.827041539327631"><ele>168.0</ele><time>2026-04-18T09:03:53.001Z</time></trkpt><trkpt lat="43.529567284501184" lon="10.826925355519064"><ele>168.0</ele><time>2026-04-18T09:03:55.001Z</time></trkpt><trkpt lat="43.529498128239645" lon="10.826811419160457"><ele>168.0</ele><time>2026-04-18T09:03:57.001Z</time></trkpt><trkpt lat="43.5294541611413" lon="10.826745006163735"><ele>168.0</ele><time>2026-04-18T09:03:58.001Z</time></trkpt><trkpt lat="43.529428289476066" lon="10.826659350785105"><ele>165.83333333333334</ele><time>2026-04-18T09:03:59.001Z</time></trkpt><trkpt lat="43.52934313973537" lon="10.82652860862249"><ele>163.66666666666666</ele><time>2026-04-18T09:04:01.001Z</time></trkpt><trkpt lat="43.529302138885456" lon="10.826444709571033"><ele>161.5</ele><time>2026-04-18T09:04:02.001Z</time></trkpt><trkpt lat="43.529262557827465" lon="10.826364356122347"><ele>159.33333333333331</ele><time>2026-04-18T09:04:03.001Z</time></trkpt><trkpt lat="43.529215221539495" lon="10.82628327194251"><ele>157.16666666666666</ele><time>2026-04-18T09:04:04.001Z</time></trkpt><trkpt lat="43.52918165878298" lon="10.826209077141776"><ele>155.0</ele><time>2026-04-18T09:04:05.001Z</time></trkpt><trkpt lat="43.529150600085714" lon="10.826124455424864"><ele>155.0</ele><time>2026-04-18T09:04:06.001Z</time></trkpt><trkpt lat="43.529074184196034" lon="10.825979761470245"><ele>155.0</ele><time>2026-04-18T09:04:07.999Z</time></trkpt><trkpt lat="43.529036913025394" lon="10.825899224784552"><ele>155.0</ele><time>2026-04-18T09:04:09Z</time></trkpt><trkpt lat="43.529004836329314" lon="10.825817950783959"><ele>155.0</ele><time>2026-04-18T09:04:10Z</time></trkpt><trkpt lat="43.528945189393596" lon="10.825682866695821"><ele>155.0</ele><time>2026-04-18T09:04:12Z</time></trkpt><trkpt lat="43.528906005729" lon="10.825556517797061"><ele>152.6</ele><time>2026-04-18T09:04:14Z</time></trkpt><trkpt lat="43.5288667273648" lon="10.825420958196343"><ele>150.2</ele><time>2026-04-18T09:04:16Z</time></trkpt><trkpt lat="43.52883490467434" lon="10.82528920542341"><ele>147.8</ele><time>2026-04-18T09:04:18Z</time></trkpt><trkpt lat="43.5288064634351" lon="10.825149836110773"><ele>145.4</ele><time>2026-04-18T09:04:20Z</time></trkpt><trkpt lat="43.528775734689845" lon="10.825007746498395"><ele>143.0</ele><time>2026-04-18T09:04:22Z</time></trkpt><trkpt lat="43.528744384155814" lon="10.824866102356745"><ele>141.8</ele><time>2026-04-18T09:04:24Z</time></trkpt><trkpt lat="43.5287206329621" lon="10.824732132638779"><ele>140.60000000000002</ele><time>2026-04-18T09:04:26Z</time></trkpt><trkpt lat="43.52869452126298" lon="10.824609635436977"><ele>139.39999999999998</ele><time>2026-04-18T09:04:28Z</time></trkpt><trkpt lat="43.52866859416349" lon="10.824487851293538"><ele>138.2</ele><time>2026-04-18T09:04:30Z</time></trkpt><trkpt lat="43.52864838583237" lon="10.82435667762132"><ele>137.0</ele><time>2026-04-18T09:04:33Z</time></trkpt><trkpt lat="43.528622862310854" lon="10.824262603008007"><ele>136.79999999999998</ele><time>2026-04-18T09:04:35Z</time></trkpt><trkpt lat="43.52857178411897" lon="10.824149840084297"><ele>136.6</ele><time>2026-04-18T09:04:37Z</time></trkpt><trkpt lat="43.52854754005041" lon="10.824026763282653"><ele>136.39999999999998</ele><time>2026-04-18T09:04:39Z</time></trkpt><trkpt lat="43.528509564831786" lon="10.823913768553503"><ele>136.2</ele><time>2026-04-18T09:04:41Z</time></trkpt><trkpt lat="43.528458032976076" lon="10.823819255988697"><ele>136.0</ele><time>2026-04-18T09:04:43Z</time></trkpt><trkpt lat="43.528411930107694" lon="10.823698973714386"><ele>136.0</ele><time>2026-04-18T09:04:45Z</time></trkpt><trkpt lat="43.52836994970628" lon="10.823588525044276"><ele>136.0</ele><time>2026-04-18T09:04:47Z</time></trkpt><trkpt lat="43.52833038254214" lon="10.823458203175635"><ele>136.0</ele><time>2026-04-18T09:04:49Z</time></trkpt><trkpt lat="43.528261961892966" lon="10.823339966753528"><ele>136.0</ele><time>2026-04-18T09:04:51Z</time></trkpt><trkpt lat="43.52821401629453" lon="10.823227291433414"><ele>136.0</ele><time>2026-04-18T09:04:53Z</time></trkpt><trkpt lat="43.52816318287819" lon="10.82311589197984"><ele>134.83333333333334</ele><time>2026-04-18T09:04:55Z</time></trkpt><trkpt lat="43.52812830473938" lon="10.823023750009718"><ele>133.66666666666669</ele><time>2026-04-18T09:04:57Z</time></trkpt><trkpt lat="43.52807705831131" lon="10.822918925851162"><ele>132.5</ele><time>2026-04-18T09:05:00Z</time></trkpt><trkpt lat="43.52803930503467" lon="10.822840924588938"><ele>131.33333333333334</ele><time>2026-04-18T09:05:02Z</time></trkpt><trkpt lat="43.52800185044327" lon="10.822758194496116"><ele>130.16666666666666</ele><time>2026-04-18T09:05:04Z</time></trkpt><trkpt lat="43.527962681530326" lon="10.822673232043142"><ele>129.0</ele><time>2026-04-18T09:05:06Z</time></trkpt><trkpt lat="43.527916978619174" lon="10.822580946554698"><ele>127.5</ele><time>2026-04-18T09:05:08Z</time></trkpt><trkpt lat="43.527876512262054" lon="10.822475130702284"><ele>126.0</ele><time>2026-04-18T09:05:11Z</time></trkpt><trkpt lat="43.52786999892502" lon="10.822386126198483"><ele>124.5</ele><time>2026-04-18T09:05:13Z</time></trkpt><trkpt lat="43.52785793167021" lon="10.822275661801237"><ele>123.0</ele><time>2026-04-18T09:05:15Z</time></trkpt><trkpt lat="43.52791739486151" lon="10.822195567505311"><ele>121.5</ele><time>2026-04-18T09:05:17Z</time></trkpt><trkpt lat="43.52797949361045" lon="10.822077808822453"><ele>120.0</ele><time>2026-04-18T09:05:19Z</time></trkpt><trkpt lat="43.52800671560048" lon="10.821994788114326"><ele>120.0</ele><time>2026-04-18T09:05:20Z</time></trkpt><trkpt lat="43.52801199971364" lon="10.821882620947077"><ele>120.0</ele><time>2026-04-18T09:05:21Z</time></trkpt><trkpt lat="43.52802235790554" lon="10.82175363247821"><ele>120.0</ele><time>2026-04-18T09:05:22Z</time></trkpt><trkpt lat="43.52801897685631" lon="10.821604111673182"><ele>120.0</ele><time>2026-04-18T09:05:23Z</time></trkpt><trkpt lat="43.52800312392411" lon="10.821473770122989"><ele>120.0</ele><time>2026-04-18T09:05:24Z</time></trkpt><trkpt lat="43.52798816128056" lon="10.82134186492888"><ele>118.66666666666667</ele><time>2026-04-18T09:05:25Z</time></trkpt><trkpt lat="43.52796903728077" lon="10.82121334929652"><ele>117.33333333333334</ele><time>2026-04-18T09:05:26Z</time></trkpt><trkpt lat="43.52794714979036" lon="10.82108260637326"><ele>116.0</ele><time>2026-04-18T09:05:27Z</time></trkpt><trkpt lat="43.5279286163272" lon="10.820959237411238"><ele>114.66666666666667</ele><time>2026-04-18T09:05:28Z</time></trkpt><trkpt lat="43.527912649912366" lon="10.820848178012488"><ele>113.33333333333334</ele><time>2026-04-18T09:05:29Z</time></trkpt><trkpt lat="43.52789751043049" lon="10.820745917096856"><ele>112.0</ele><time>2026-04-18T09:05:30Z</time></trkpt><trkpt lat="43.527873834689004" lon="10.820650064523146"><ele>111.66666666666667</ele><time>2026-04-18T09:05:31Z</time></trkpt><trkpt lat="43.527849379878674" lon="10.820543788560107"><ele>111.33333333333334</ele><time>2026-04-18T09:05:32Z</time></trkpt><trkpt lat="43.52776980543362" lon="10.82048590080578"><ele>111.0</ele><time>2026-04-18T09:05:33Z</time></trkpt><trkpt lat="43.527690966271905" lon="10.820432379655996"><ele>110.66666666666666</ele><time>2026-04-18T09:05:34Z</time></trkpt><trkpt lat="43.52759773272977" lon="10.820409852445826"><ele>110.33333333333333</ele><time>2026-04-18T09:05:35Z</time></trkpt><trkpt lat="43.52750579489872" lon="10.820385489656486"><ele>110.0</ele><time>2026-04-18T09:05:36Z</time></trkpt><trkpt lat="43.52741524738892" lon="10.820365850551163"><ele>110.0</ele><time>2026-04-18T09:05:37Z</time></trkpt><trkpt lat="43.52732322949809" lon="10.820345513513553"><ele>110.0</ele><time>2026-04-18T09:05:38Z</time></trkpt><trkpt lat="43.52722725838498" lon="10.820315410367046"><ele>110.0</ele><time>2026-04-18T09:05:39Z</time></trkpt><trkpt lat="43.527138626870254" lon="10.820265285384114"><ele>110.0</ele><time>2026-04-18T09:05:40Z</time></trkpt><trkpt lat="43.52706914975626" lon="10.820195946158728"><ele>110.0</ele><time>2026-04-18T09:05:41Z</time></trkpt><trkpt lat="43.52700339121642" lon="10.820111286048386"><ele>106.6</ele><time>2026-04-18T09:05:42Z</time></trkpt><trkpt lat="43.52702064247216" lon="10.819999451185652"><ele>103.2</ele><time>2026-04-18T09:05:43Z</time></trkpt><trkpt lat="43.52703412310488" lon="10.819814510367767"><ele>99.80000000000001</ele><time>2026-04-18T09:05:45Z</time></trkpt><trkpt lat="43.527039686288795" lon="10.819704459286923"><ele>96.4</ele><time>2026-04-18T09:05:46Z</time></trkpt><trkpt lat="43.527045921661696" lon="10.819593701384994"><ele>93.0</ele><time>2026-04-18T09:05:47Z</time></trkpt><trkpt lat="43.52703949148475" lon="10.819478843255697"><ele>93.00000000000001</ele><time>2026-04-18T09:05:48Z</time></trkpt><trkpt lat="43.52704639325684" lon="10.81936926999114"><ele>93.0</ele><time>2026-04-18T09:05:49Z</time></trkpt><trkpt lat="43.527066950964745" lon="10.819268201193507"><ele>93.0</ele><time>2026-04-18T09:05:50Z</time></trkpt><trkpt lat="43.52704628693873" lon="10.819170398257484"><ele>93.0</ele><time>2026-04-18T09:05:51Z</time></trkpt><trkpt lat="43.5270515191903" lon="10.8190826487696"><ele>93.0</ele><time>2026-04-18T09:05:52Z</time></trkpt><trkpt lat="43.527030052382614" lon="10.81898566005013"><ele>93.00000000000001</ele><time>2026-04-18T09:05:53Z</time></trkpt><trkpt lat="43.5269944409765" lon="10.818899221368135"><ele>93.0</ele><time>2026-04-18T09:05:54Z</time></trkpt><trkpt lat="43.52694940393078" lon="10.818828319242758"><ele>92.33333333333333</ele><time>2026-04-18T09:05:55Z</time></trkpt><trkpt lat="43.52687763100824" lon="10.818705739643697"><ele>91.66666666666667</ele><time>2026-04-18T09:05:57Z</time></trkpt><trkpt lat="43.52683061660197" lon="10.818609112733593"><ele>91.0</ele><time>2026-04-18T09:05:59Z</time></trkpt><trkpt lat="43.52679802947943" lon="10.81851885023388"><ele>90.33333333333334</ele><time>2026-04-18T09:06:01Z</time></trkpt><trkpt lat="43.526874634862644" lon="10.818412977557411"><ele>89.66666666666667</ele><time>2026-04-18T09:06:03Z</time></trkpt><trkpt lat="43.52691386028054" lon="10.818340249273964"><ele>89.0</ele><time>2026-04-18T09:06:04Z</time></trkpt><trkpt lat="43.52695383293657" lon="10.818271639469412"><ele>89.0</ele><time>2026-04-18T09:06:05Z</time></trkpt><trkpt lat="43.52700651639275" lon="10.818170115917933"><ele>89.0</ele><time>2026-04-18T09:06:07Z</time></trkpt><trkpt lat="43.52704348410373" lon="10.81808798764321"><ele>89.0</ele><time>2026-04-18T09:06:09Z</time></trkpt><trkpt lat="43.527107387931316" lon="10.818009702486803"><ele>89.0</ele><time>2026-04-18T09:06:11Z</time></trkpt><trkpt lat="43.52715956596673" lon="10.817911516569403"><ele>89.0</ele><time>2026-04-18T09:06:12.999Z</time></trkpt><trkpt lat="43.52720956559093" lon="10.817781630342724"><ele>89.0</ele><time>2026-04-18T09:06:14.999Z</time></trkpt><trkpt lat="43.52726632301825" lon="10.817663289321498"><ele>88.0</ele><time>2026-04-18T09:06:16.999Z</time></trkpt><trkpt lat="43.527334469050444" lon="10.817575086746551"><ele>87.0</ele><time>2026-04-18T09:06:18.999Z</time></trkpt><trkpt lat="43.52739639470965" lon="10.817494769825677"><ele>86.0</ele><time>2026-04-18T09:06:20.999Z</time></trkpt><trkpt lat="43.52747329171858" lon="10.817416892663386"><ele>85.0</ele><time>2026-04-18T09:06:22.999Z</time></trkpt><trkpt lat="43.52756400980009" lon="10.817343711523296"><ele>84.0</ele><time>2026-04-18T09:06:24.999Z</time></trkpt><trkpt lat="43.527673536077884" lon="10.817259160706687"><ele>84.0</ele><time>2026-04-18T09:06:26.999Z</time></trkpt><trkpt lat="43.52772186449414" lon="10.817195011829494"><ele>84.0</ele><time>2026-04-18T09:06:27.999Z</time></trkpt><trkpt lat="43.52778154684555" lon="10.817044548260009"><ele>84.0</ele><time>2026-04-18T09:06:29.999Z</time></trkpt><trkpt lat="43.52780827262463" lon="10.81696500202048"><ele>84.0</ele><time>2026-04-18T09:06:30.999Z</time></trkpt><trkpt lat="43.52782350470491" lon="10.816872609375396"><ele>84.0</ele><time>2026-04-18T09:06:31.999Z</time></trkpt><trkpt lat="43.5278489903852" lon="10.816777863431382"><ele>84.0</ele><time>2026-04-18T09:06:32.999Z</time></trkpt><trkpt lat="43.52789179621804" lon="10.816691368789202"><ele>85.0</ele><time>2026-04-18T09:06:33.999Z</time></trkpt><trkpt lat="43.52792238865335" lon="10.81659353902247"><ele>86.0</ele><time>2026-04-18T09:06:34.999Z</time></trkpt><trkpt lat="43.527954223895016" lon="10.81649657797693"><ele>87.0</ele><time>2026-04-18T09:06:35.999Z</time></trkpt><trkpt lat="43.52797461772105" lon="10.816391317044328"><ele>88.0</ele><time>2026-04-18T09:06:36.999Z</time></trkpt><trkpt lat="43.52800614152171" lon="10.816300113871971"><ele>89.0</ele><time>2026-04-18T09:06:37.999Z</time></trkpt><trkpt lat="43.52804912288048" lon="10.816233323291886"><ele>90.0</ele><time>2026-04-18T09:06:38.999Z</time></trkpt><trkpt lat="43.52811703368934" lon="10.816109665402932"><ele>90.0</ele><time>2026-04-18T09:06:41Z</time></trkpt><trkpt lat="43.528203902048205" lon="10.816022607950526"><ele>90.0</ele><time>2026-04-18T09:06:43Z</time></trkpt><trkpt lat="43.52829895863084" lon="10.816009587150313"><ele>90.0</ele><time>2026-04-18T09:06:45Z</time></trkpt><trkpt lat="43.52840434378092" lon="10.816031449672927"><ele>90.0</ele><time>2026-04-18T09:06:47Z</time></trkpt><trkpt lat="43.528474187401365" lon="10.816053761102353"><ele>90.0</ele><time>2026-04-18T09:06:48Z</time></trkpt><trkpt lat="43.52854743373799" lon="10.816047188557272"><ele>90.0</ele><time>2026-04-18T09:06:49Z</time></trkpt><trkpt lat="43.528617204270496" lon="10.816068780164942"><ele>90.0</ele><time>2026-04-18T09:06:50Z</time></trkpt><trkpt lat="43.52868407540869" lon="10.816107731816372"><ele>90.0</ele><time>2026-04-18T09:06:51Z</time></trkpt><trkpt lat="43.52875674284223" lon="10.81612430082548"><ele>90.0</ele><time>2026-04-18T09:06:52Z</time></trkpt><trkpt lat="43.528826939678" lon="10.816136634270347"><ele>90.0</ele><time>2026-04-18T09:06:53Z</time></trkpt><trkpt lat="43.528899981468776" lon="10.816135984046578"><ele>90.0</ele><time>2026-04-18T09:06:54Z</time></trkpt><trkpt lat="43.528973399478524" lon="10.816120200937716"><ele>90.0</ele><time>2026-04-18T09:06:55Z</time></trkpt><trkpt lat="43.5290459015761" lon="10.81608727677983"><ele>91.5</ele><time>2026-04-18T09:06:56Z</time></trkpt><trkpt lat="43.52911417802089" lon="10.816031904502704"><ele>93.0</ele><time>2026-04-18T09:06:57Z</time></trkpt><trkpt lat="43.52918787705345" lon="10.815995196514443"><ele>94.5</ele><time>2026-04-18T09:06:58Z</time></trkpt><trkpt lat="43.5292530804802" lon="10.815961388641892"><ele>96.0</ele><time>2026-04-18T09:06:59Z</time></trkpt><trkpt lat="43.52935784877062" lon="10.815901924966925"><ele>97.5</ele><time>2026-04-18T09:07:01Z</time></trkpt><trkpt lat="43.529446111923995" lon="10.81585545475418"><ele>99.0</ele><time>2026-04-18T09:07:03Z</time></trkpt><trkpt lat="43.52953241189067" lon="10.815845235062273"><ele>104.0</ele><time>2026-04-18T09:07:05Z</time></trkpt><trkpt lat="43.5296318173926" lon="10.81579394783258"><ele>109.0</ele><time>2026-04-18T09:07:07Z</time></trkpt><trkpt lat="43.52974563567893" lon="10.815785735065017"><ele>114.0</ele><time>2026-04-18T09:07:09Z</time></trkpt><trkpt lat="43.52985773933608" lon="10.815760623592357"><ele>119.0</ele><time>2026-04-18T09:07:11Z</time></trkpt><trkpt lat="43.529968366979155" lon="10.815720717106288"><ele>124.0</ele><time>2026-04-18T09:07:13Z</time></trkpt><trkpt lat="43.53009448227737" lon="10.815717991152257"><ele>124.00000000000001</ele><time>2026-04-18T09:07:15Z</time></trkpt><trkpt lat="43.53015865998229" lon="10.81568873541133"><ele>124.0</ele><time>2026-04-18T09:07:16Z</time></trkpt><trkpt lat="43.53022627105963" lon="10.815681669926995"><ele>124.0</ele><time>2026-04-18T09:07:17Z</time></trkpt><trkpt lat="43.53029266354228" lon="10.815674266709193"><ele>124.0</ele><time>2026-04-18T09:07:18Z</time></trkpt><trkpt lat="43.53041285716813" lon="10.815654027458132"><ele>124.00000000000001</ele><time>2026-04-18T09:07:20Z</time></trkpt><trkpt lat="43.53047704957415" lon="10.815640637133681"><ele>124.0</ele><time>2026-04-18T09:07:21Z</time></trkpt><trkpt lat="43.530598632012776" lon="10.815603766550877"><ele>124.50000000000001</ele><time>2026-04-18T09:07:23Z</time></trkpt><trkpt lat="43.53066400195539" lon="10.815589381172238"><ele>125.0</ele><time>2026-04-18T09:07:24Z</time></trkpt><trkpt lat="43.530730638857904" lon="10.815588660153955"><ele>125.5</ele><time>2026-04-18T09:07:25Z</time></trkpt><trkpt lat="43.53079445603434" lon="10.81559794528313"><ele>126.0</ele><time>2026-04-18T09:07:26Z</time></trkpt><trkpt lat="43.53091780368616" lon="10.815649287660586"><ele>126.50000000000001</ele><time>2026-04-18T09:07:28Z</time></trkpt><trkpt lat="43.53098216715716" lon="10.81567688738809"><ele>127.0</ele><time>2026-04-18T09:07:29Z</time></trkpt><trkpt lat="43.53104542034718" lon="10.815703850276115"><ele>127.00000000000001</ele><time>2026-04-18T09:07:30Z</time></trkpt><trkpt lat="43.531114280928385" lon="10.81570940139541"><ele>127.0</ele><time>2026-04-18T09:07:31Z</time></trkpt><trkpt lat="43.53118405282208" lon="10.815743364854"><ele>127.0</ele><time>2026-04-18T09:07:32Z</time></trkpt><trkpt lat="43.531253540013864" lon="10.815774673415882"><ele>127.0</ele><time>2026-04-18T09:07:33Z</time></trkpt><trkpt lat="43.53132842247509" lon="10.81580185923947"><ele>127.00000000000001</ele><time>2026-04-18T09:07:34Z</time></trkpt><trkpt lat="43.53140640411543" lon="10.8158298773648"><ele>127.0</ele><time>2026-04-18T09:07:35Z</time></trkpt><trkpt lat="43.53148260696354" lon="10.815840429483776"><ele>127.83333333333334</ele><time>2026-04-18T09:07:36Z</time></trkpt><trkpt lat="43.53156927508935" lon="10.815840864299838"><ele>128.66666666666669</ele><time>2026-04-18T09:07:37Z</time></trkpt><trkpt lat="43.531655296659224" lon="10.815840899054344"><ele>129.5</ele><time>2026-04-18T09:07:38Z</time></trkpt><trkpt lat="43.53174392285242" lon="10.81583668194512"><ele>130.33333333333334</ele><time>2026-04-18T09:07:39Z</time></trkpt><trkpt lat="43.531815026272966" lon="10.815856529898419"><ele>131.16666666666666</ele><time>2026-04-18T09:07:40Z</time></trkpt><trkpt lat="43.53189470549285" lon="10.815876481793701"><ele>132.0</ele><time>2026-04-18T09:07:41Z</time></trkpt><trkpt lat="43.531972685337635" lon="10.815914724855567"><ele>132.0</ele><time>2026-04-18T09:07:42Z</time></trkpt><trkpt lat="43.53204603184011" lon="10.815957987901202"><ele>132.0</ele><time>2026-04-18T09:07:43Z</time></trkpt><trkpt lat="43.53211493426358" lon="10.816003662655014"><ele>132.0</ele><time>2026-04-18T09:07:44Z</time></trkpt><trkpt lat="43.532188113861665" lon="10.816071854889955"><ele>132.0</ele><time>2026-04-18T09:07:45Z</time></trkpt><trkpt lat="43.53227527783184" lon="10.816135455072988"><ele>132.0</ele><time>2026-04-18T09:07:46Z</time></trkpt><trkpt lat="43.532350810213174" lon="10.816224530268732"><ele>132.0</ele><time>2026-04-18T09:07:47Z</time></trkpt><trkpt lat="43.53243523353575" lon="10.816270876807426"><ele>133.0</ele><time>2026-04-18T09:07:48Z</time></trkpt><trkpt lat="43.532505742030054" lon="10.816325461513486"><ele>134.0</ele><time>2026-04-18T09:07:49Z</time></trkpt><trkpt lat="43.532602306056894" lon="10.816364450780044"><ele>135.0</ele><time>2026-04-18T09:07:50Z</time></trkpt><trkpt lat="43.53269453062996" lon="10.816427021116686"><ele>136.0</ele><time>2026-04-18T09:07:51Z</time></trkpt><trkpt lat="43.5327929349644" lon="10.816473262351497"><ele>137.0</ele><time>2026-04-18T09:07:52Z</time></trkpt><trkpt lat="43.53290324866004" lon="10.816493686774448"><ele>137.0</ele><time>2026-04-18T09:07:53Z</time></trkpt><trkpt lat="43.53300717681596" lon="10.816537792858249"><ele>137.0</ele><time>2026-04-18T09:07:54Z</time></trkpt><trkpt lat="43.53312490456334" lon="10.816584620518887"><ele>137.0</ele><time>2026-04-18T09:07:55Z</time></trkpt><trkpt lat="43.53323479523973" lon="10.816635766709013"><ele>137.0</ele><time>2026-04-18T09:07:56Z</time></trkpt><trkpt lat="43.53333560585314" lon="10.816690852757388"><ele>137.0</ele><time>2026-04-18T09:07:57Z</time></trkpt><trkpt lat="43.53343406962324" lon="10.81674507308009"><ele>137.0</ele><time>2026-04-18T09:07:58Z</time></trkpt><trkpt lat="43.53353619738593" lon="10.816775019370642"><ele>137.0</ele><time>2026-04-18T09:07:59Z</time></trkpt><trkpt lat="43.5336286663357" lon="10.81678264000293"><ele>137.0</ele><time>2026-04-18T09:08:00Z</time></trkpt><trkpt lat="43.533725234822086" lon="10.816758019336545"><ele>137.0</ele><time>2026-04-18T09:08:01Z</time></trkpt><trkpt lat="43.5338370565611" lon="10.816712855302585"><ele>138.2</ele><time>2026-04-18T09:08:02Z</time></trkpt><trkpt lat="43.53394461697881" lon="10.81667034125326"><ele>139.39999999999998</ele><time>2026-04-18T09:08:03Z</time></trkpt><trkpt lat="43.534043317146725" lon="10.816669088962623"><ele>140.60000000000002</ele><time>2026-04-18T09:08:04Z</time></trkpt><trkpt lat="43.53414386689791" lon="10.816667185762512"><ele>141.8</ele><time>2026-04-18T09:08:05Z</time></trkpt><trkpt lat="43.53425581317717" lon="10.816669970371072"><ele>143.0</ele><time>2026-04-18T09:08:06Z</time></trkpt><trkpt lat="43.534367270821676" lon="10.81665658278022"><ele>143.0</ele><time>2026-04-18T09:08:07Z</time></trkpt><trkpt lat="43.53447398320385" lon="10.816666780422695"><ele>143.0</ele><time>2026-04-18T09:08:08Z</time></trkpt><trkpt lat="43.53458615436062" lon="10.816699075876228"><ele>143.0</ele><time>2026-04-18T09:08:09Z</time></trkpt><trkpt lat="43.53468480009788" lon="10.816713070473849"><ele>143.0</ele><time>2026-04-18T09:08:10Z</time></trkpt><trkpt lat="43.534776621861674" lon="10.81670549437603"><ele>143.0</ele><time>2026-04-18T09:08:11Z</time></trkpt><trkpt lat="43.534863460161844" lon="10.816723126821834"><ele>144.5</ele><time>2026-04-18T09:08:12Z</time></trkpt><trkpt lat="43.534951523302226" lon="10.816724424646164"><ele>146.0</ele><time>2026-04-18T09:08:13Z</time></trkpt><trkpt lat="43.53503191680473" lon="10.816701294596628"><ele>147.5</ele><time>2026-04-18T09:08:14Z</time></trkpt><trkpt lat="43.53511309328575" lon="10.816652887965146"><ele>149.0</ele><time>2026-04-18T09:08:15.001Z</time></trkpt><trkpt lat="43.5351863922482" lon="10.816592392185758"><ele>150.5</ele><time>2026-04-18T09:08:16.001Z</time></trkpt><trkpt lat="43.535250568519274" lon="10.816533948364444"><ele>152.0</ele><time>2026-04-18T09:08:17.001Z</time></trkpt><trkpt lat="43.535323045280954" lon="10.816494798069757"><ele>152.0</ele><time>2026-04-18T09:08:18.001Z</time></trkpt><trkpt lat="43.53537960279639" lon="10.816418051131427"><ele>152.0</ele><time>2026-04-18T09:08:18.999Z</time></trkpt><trkpt lat="43.535458430893655" lon="10.816374182995343"><ele>152.0</ele><time>2026-04-18T09:08:19.999Z</time></trkpt><trkpt lat="43.53552398818089" lon="10.81631165526991"><ele>152.0</ele><time>2026-04-18T09:08:20.999Z</time></trkpt><trkpt lat="43.53558335798806" lon="10.816233050967584"><ele>152.0</ele><time>2026-04-18T09:08:21.999Z</time></trkpt><trkpt lat="43.53564945679721" lon="10.816169659873816"><ele>152.0</ele><time>2026-04-18T09:08:22.999Z</time></trkpt><trkpt lat="43.535711410519895" lon="10.816114298622992"><ele>154.0</ele><time>2026-04-18T09:08:23.999Z</time></trkpt><trkpt lat="43.53577393660253" lon="10.81605517598398"><ele>156.0</ele><time>2026-04-18T09:08:24.999Z</time></trkpt><trkpt lat="43.53584086771762" lon="10.815997373155673"><ele>158.0</ele><time>2026-04-18T09:08:25.999Z</time></trkpt><trkpt lat="43.535899127971135" lon="10.815954457315245"><ele>160.0</ele><time>2026-04-18T09:08:26.999Z</time></trkpt><trkpt lat="43.53596785255864" lon="10.815908726451662"><ele>162.0</ele><time>2026-04-18T09:08:27.999Z</time></trkpt><trkpt lat="43.53604407758053" lon="10.815854378546844"><ele>164.0</ele><time>2026-04-18T09:08:28.999Z</time></trkpt><trkpt lat="43.53612237667298" lon="10.815806096992524"><ele>164.0</ele><time>2026-04-18T09:08:29.999Z</time></trkpt><trkpt lat="43.53620395196694" lon="10.815763538422278"><ele>164.0</ele><time>2026-04-18T09:08:30.999Z</time></trkpt><trkpt lat="43.53629326089008" lon="10.815728280857565"><ele>164.0</ele><time>2026-04-18T09:08:31.999Z</time></trkpt><trkpt lat="43.53637952842891" lon="10.815702095854993"><ele>164.0</ele><time>2026-04-18T09:08:32.999Z</time></trkpt><trkpt lat="43.536464199587265" lon="10.81567625973983"><ele>164.0</ele><time>2026-04-18T09:08:33.999Z</time></trkpt><trkpt lat="43.53655324756656" lon="10.815658008104789"><ele>164.0</ele><time>2026-04-18T09:08:34.999Z</time></trkpt><trkpt lat="43.53663990480414" lon="10.815651861524486"><ele>163.7142857142857</ele><time>2026-04-18T09:08:35.999Z</time></trkpt><trkpt lat="43.536718238150314" lon="10.815643286878474"><ele>163.42857142857142</ele><time>2026-04-18T09:08:36.999Z</time></trkpt><trkpt lat="43.53679475864096" lon="10.815647068781585"><ele>163.14285714285714</ele><time>2026-04-18T09:08:37.999Z</time></trkpt><trkpt lat="43.53686568241932" lon="10.8156466999311"><ele>162.85714285714283</ele><time>2026-04-18T09:08:38.999Z</time></trkpt><trkpt lat="43.536927672349435" lon="10.815618830053653"><ele>162.57142857142856</ele><time>2026-04-18T09:08:39.999Z</time></trkpt><trkpt lat="43.53699550526415" lon="10.81557574996761"><ele>162.28571428571428</ele><time>2026-04-18T09:08:40.999Z</time></trkpt><trkpt lat="43.537038857182225" lon="10.815479570019715"><ele>162.0</ele><time>2026-04-18T09:08:41.999Z</time></trkpt><trkpt lat="43.53709762076809" lon="10.815386202000195"><ele>162.0</ele><time>2026-04-18T09:08:43Z</time></trkpt><trkpt lat="43.5371357421959" lon="10.815308317456129"><ele>162.0</ele><time>2026-04-18T09:08:44Z</time></trkpt><trkpt lat="43.53718300969402" lon="10.815178295497214"><ele>162.0</ele><time>2026-04-18T09:08:46Z</time></trkpt><trkpt lat="43.53721912135696" lon="10.81509347808718"><ele>162.0</ele><time>2026-04-18T09:08:48Z</time></trkpt><trkpt lat="43.537274462305604" lon="10.81499496627102"><ele>162.0</ele><time>2026-04-18T09:08:51Z</time></trkpt><trkpt lat="43.53723794754183" lon="10.81489607162838"><ele>162.0</ele><time>2026-04-18T09:08:52Z</time></trkpt><trkpt lat="43.53721009145333" lon="10.814740826357363"><ele>161.71428571428572</ele><time>2026-04-18T09:08:54Z</time></trkpt><trkpt lat="43.537193632332865" lon="10.814655474334629"><ele>161.42857142857142</ele><time>2026-04-18T09:08:55Z</time></trkpt><trkpt lat="43.537173850932994" lon="10.81456231957612"><ele>161.14285714285714</ele><time>2026-04-18T09:08:56Z</time></trkpt><trkpt lat="43.537158944093804" lon="10.814466064061499"><ele>160.85714285714286</ele><time>2026-04-18T09:08:57Z</time></trkpt><trkpt lat="43.53716068004705" lon="10.814364898979045"><ele>160.57142857142858</ele><time>2026-04-18T09:08:58Z</time></trkpt><trkpt lat="43.53716534337277" lon="10.814257095352234"><ele>160.28571428571428</ele><time>2026-04-18T09:08:59Z</time></trkpt><trkpt lat="43.53718595805726" lon="10.814154503226856"><ele>160.0</ele><time>2026-04-18T09:09:00Z</time></trkpt><trkpt lat="43.537216813854855" lon="10.814057249821062"><ele>161.16666666666669</ele><time>2026-04-18T09:09:01Z</time></trkpt><trkpt lat="43.53725787585867" lon="10.813960665284608"><ele>162.33333333333334</ele><time>2026-04-18T09:09:02Z</time></trkpt><trkpt lat="43.53730077001191" lon="10.813866993938872"><ele>163.5</ele><time>2026-04-18T09:09:03Z</time></trkpt><trkpt lat="43.53734573371409" lon="10.813773071265418"><ele>164.66666666666666</ele><time>2026-04-18T09:09:04Z</time></trkpt><trkpt lat="43.53739291643854" lon="10.813678483194066"><ele>165.83333333333331</ele><time>2026-04-18T09:09:05Z</time></trkpt><trkpt lat="43.537440527890126" lon="10.813584219448993"><ele>167.0</ele><time>2026-04-18T09:09:06Z</time></trkpt><trkpt lat="43.53748805304861" lon="10.813487083172584"><ele>168.66666666666666</ele><time>2026-04-18T09:09:07Z</time></trkpt><trkpt lat="43.537528446773266" lon="10.813385324032204"><ele>170.33333333333331</ele><time>2026-04-18T09:09:08Z</time></trkpt><trkpt lat="43.537553298409975" lon="10.813279539876438"><ele>172.0</ele><time>2026-04-18T09:09:09Z</time></trkpt><trkpt lat="43.537556253638115" lon="10.813163689802646"><ele>173.66666666666666</ele><time>2026-04-18T09:09:10Z</time></trkpt><trkpt lat="43.53753550740335" lon="10.813046549508291"><ele>175.33333333333334</ele><time>2026-04-18T09:09:11Z</time></trkpt><trkpt lat="43.53749300522837" lon="10.812930972235204"><ele>177.0</ele><time>2026-04-18T09:09:12Z</time></trkpt><trkpt lat="43.537423509102254" lon="10.812841242171995"><ele>177.0</ele><time>2026-04-18T09:09:13Z</time></trkpt><trkpt lat="43.53733933301476" lon="10.81276378233849"><ele>177.0</ele><time>2026-04-18T09:09:14Z</time></trkpt><trkpt lat="43.53725811587229" lon="10.812703062740423"><ele>177.0</ele><time>2026-04-18T09:09:15Z</time></trkpt><trkpt lat="43.53716515123537" lon="10.812619533042003"><ele>177.0</ele><time>2026-04-18T09:09:16Z</time></trkpt><trkpt lat="43.5370788512857" lon="10.81251933751007"><ele>177.0</ele><time>2026-04-18T09:09:17Z</time></trkpt><trkpt lat="43.53699673814459" lon="10.812402213930058"><ele>176.5</ele><time>2026-04-18T09:09:18Z</time></trkpt><trkpt lat="43.53691090180255" lon="10.812289852982328"><ele>176.0</ele><time>2026-04-18T09:09:19Z</time></trkpt><trkpt lat="43.53683143273535" lon="10.812165632639813"><ele>175.5</ele><time>2026-04-18T09:09:20Z</time></trkpt><trkpt lat="43.53675366176267" lon="10.812040545882402"><ele>175.0</ele><time>2026-04-18T09:09:21Z</time></trkpt><trkpt lat="43.53667724273039" lon="10.81191015664296"><ele>173.8</ele><time>2026-04-18T09:09:22Z</time></trkpt><trkpt lat="43.536609723263965" lon="10.811785165828375"><ele>172.6</ele><time>2026-04-18T09:09:23Z</time></trkpt><trkpt lat="43.536551724874876" lon="10.811657640811326"><ele>171.39999999999998</ele><time>2026-04-18T09:09:24Z</time></trkpt><trkpt lat="43.536505533536904" lon="10.811521929322156"><ele>170.2</ele><time>2026-04-18T09:09:25Z</time></trkpt><trkpt lat="43.536471512781176" lon="10.811378949194932"><ele>169.0</ele><time>2026-04-18T09:09:26Z</time></trkpt><trkpt lat="43.53644945351133" lon="10.811222657577074"><ele>169.0</ele><time>2026-04-18T09:09:27Z</time></trkpt><trkpt lat="43.53643794483694" lon="10.81105409867467"><ele>169.0</ele><time>2026-04-18T09:09:28Z</time></trkpt><trkpt lat="43.536437361503516" lon="10.810886724751743"><ele>169.0</ele><time>2026-04-18T09:09:29Z</time></trkpt><trkpt lat="43.536434984532335" lon="10.810718931626226"><ele>169.0</ele><time>2026-04-18T09:09:30Z</time></trkpt><trkpt lat="43.53643737463319" lon="10.81055398681718"><ele>168.5</ele><time>2026-04-18T09:09:31Z</time></trkpt><trkpt lat="43.53643781532085" lon="10.810399838590026"><ele>168.0</ele><time>2026-04-18T09:09:32Z</time></trkpt><trkpt lat="43.536417415811634" lon="10.810251005954102"><ele>167.5</ele><time>2026-04-18T09:09:33Z</time></trkpt><trkpt lat="43.536375699216926" lon="10.810101007208555"><ele>167.0</ele><time>2026-04-18T09:09:34Z</time></trkpt><trkpt lat="43.53629051599028" lon="10.809968588401667"><ele>167.75</ele><time>2026-04-18T09:09:35Z</time></trkpt><trkpt lat="43.536217762336" lon="10.809829430980367"><ele>168.5</ele><time>2026-04-18T09:09:36Z</time></trkpt><trkpt lat="43.53614514332988" lon="10.809698028458293"><ele>169.25</ele><time>2026-04-18T09:09:37Z</time></trkpt><trkpt lat="43.53609443452051" lon="10.809552201655185"><ele>170.0</ele><time>2026-04-18T09:09:38Z</time></trkpt><trkpt lat="43.53605601339371" lon="10.809400306403933"><ele>168.5</ele><time>2026-04-18T09:09:39Z</time></trkpt><trkpt lat="43.536025228877264" lon="10.809244829546724"><ele>167.0</ele><time>2026-04-18T09:09:40Z</time></trkpt><trkpt lat="43.53600099206097" lon="10.809091634356147"><ele>165.5</ele><time>2026-04-18T09:09:41Z</time></trkpt><trkpt lat="43.53598744741823" lon="10.80893737640037"><ele>164.0</ele><time>2026-04-18T09:09:42Z</time></trkpt><trkpt lat="43.53597815816598" lon="10.808777749821864"><ele>164.0</ele><time>2026-04-18T09:09:43Z</time></trkpt><trkpt lat="43.53602080316604" lon="10.808624652171785"><ele>164.0</ele><time>2026-04-18T09:09:44Z</time></trkpt><trkpt lat="43.536052848232494" lon="10.808464146910975"><ele>164.0</ele><time>2026-04-18T09:09:45Z</time></trkpt><trkpt lat="43.53606713804819" lon="10.808296113303358"><ele>164.0</ele><time>2026-04-18T09:09:46Z</time></trkpt><trkpt lat="43.53611357964557" lon="10.808133570229426"><ele>163.75</ele><time>2026-04-18T09:09:47Z</time></trkpt><trkpt lat="43.536133712272736" lon="10.807961053001561"><ele>163.5</ele><time>2026-04-18T09:09:48Z</time></trkpt><trkpt lat="43.536118734842965" lon="10.807784942382133"><ele>163.25</ele><time>2026-04-18T09:09:49Z</time></trkpt><trkpt lat="43.53612762077374" lon="10.807605685188005"><ele>163.0</ele><time>2026-04-18T09:09:50Z</time></trkpt><trkpt lat="43.53612145122946" lon="10.807434955726333"><ele>163.0</ele><time>2026-04-18T09:09:51Z</time></trkpt><trkpt lat="43.53611446813295" lon="10.807269974379643"><ele>163.0</ele><time>2026-04-18T09:09:52.001Z</time></trkpt><trkpt lat="43.53610574433458" lon="10.807098112471728"><ele>163.0</ele><time>2026-04-18T09:09:53.001Z</time></trkpt><trkpt lat="43.53607520622331" lon="10.80693526812854"><ele>163.0</ele><time>2026-04-18T09:09:54.001Z</time></trkpt><trkpt lat="43.536048912422544" lon="10.806778251405401"><ele>163.4</ele><time>2026-04-18T09:09:55.001Z</time></trkpt><trkpt lat="43.53602337446296" lon="10.806629047700495"><ele>163.8</ele><time>2026-04-18T09:09:56.001Z</time></trkpt><trkpt lat="43.5359974643528" lon="10.806486222412946"><ele>164.2</ele><time>2026-04-18T09:09:57.001Z</time></trkpt><trkpt lat="43.53598595686505" lon="10.806342442354609"><ele>164.6</ele><time>2026-04-18T09:09:58.001Z</time></trkpt><trkpt lat="43.53599048096526" lon="10.806198849886606"><ele>165.0</ele><time>2026-04-18T09:09:59.001Z</time></trkpt><trkpt lat="43.53600323403714" lon="10.806066934199077"><ele>164.8</ele><time>2026-04-18T09:10:00.001Z</time></trkpt><trkpt lat="43.53603917630241" lon="10.805929093649235"><ele>164.6</ele><time>2026-04-18T09:10:01.001Z</time></trkpt><trkpt lat="43.53605247300158" lon="10.805779423457958"><ele>164.39999999999998</ele><time>2026-04-18T09:10:02.001Z</time></trkpt><trkpt lat="43.53608498679796" lon="10.805633443465345"><ele>164.2</ele><time>2026-04-18T09:10:03.001Z</time></trkpt><trkpt lat="43.53612111051212" lon="10.805483337035342"><ele>164.0</ele><time>2026-04-18T09:10:04.001Z</time></trkpt><trkpt lat="43.536188712711215" lon="10.805356042794445"><ele>164.0</ele><time>2026-04-18T09:10:05.001Z</time></trkpt><trkpt lat="43.53624470771447" lon="10.805214413987065"><ele>164.0</ele><time>2026-04-18T09:10:06.001Z</time></trkpt><trkpt lat="43.536301081881675" lon="10.805068780418793"><ele>164.0</ele><time>2026-04-18T09:10:07.001Z</time></trkpt><trkpt lat="43.53634268081282" lon="10.804911072610308"><ele>164.0</ele><time>2026-04-18T09:10:08.001Z</time></trkpt><trkpt lat="43.53640359469862" lon="10.804759762152875"><ele>164.0</ele><time>2026-04-18T09:10:09.001Z</time></trkpt><trkpt lat="43.53645617138673" lon="10.804603643616986"><ele>164.0</ele><time>2026-04-18T09:10:10.001Z</time></trkpt><trkpt lat="43.53650246697984" lon="10.804438857498244"><ele>164.0</ele><time>2026-04-18T09:10:11.001Z</time></trkpt><trkpt lat="43.53654307959912" lon="10.80426860675744"><ele>164.0</ele><time>2026-04-18T09:10:12.001Z</time></trkpt><trkpt lat="43.5365832818815" lon="10.804095877335433"><ele>162.5</ele><time>2026-04-18T09:10:13.001Z</time></trkpt><trkpt lat="43.536634072844464" lon="10.803922534091381"><ele>161.0</ele><time>2026-04-18T09:10:14.001Z</time></trkpt><trkpt lat="43.536661573278906" lon="10.80373839166865"><ele>159.5</ele><time>2026-04-18T09:10:15.001Z</time></trkpt><trkpt lat="43.53668307341403" lon="10.803555278574192"><ele>158.0</ele><time>2026-04-18T09:10:16.001Z</time></trkpt><trkpt lat="43.536699309339255" lon="10.803367121960848"><ele>157.5</ele><time>2026-04-18T09:10:17.001Z</time></trkpt><trkpt lat="43.53669403006501" lon="10.803175226647486"><ele>157.0</ele><time>2026-04-18T09:10:18.001Z</time></trkpt><trkpt lat="43.53670326663574" lon="10.802986760597532"><ele>156.5</ele><time>2026-04-18T09:10:19.001Z</time></trkpt><trkpt lat="43.53670735771133" lon="10.802799543748447"><ele>156.0</ele><time>2026-04-18T09:10:20.001Z</time></trkpt><trkpt lat="43.536717312294094" lon="10.802600047649216"><ele>157.0</ele><time>2026-04-18T09:10:21.001Z</time></trkpt><trkpt lat="43.536732564641376" lon="10.802415967271195"><ele>158.0</ele><time>2026-04-18T09:10:22.001Z</time></trkpt><trkpt lat="43.536748759174465" lon="10.802251260796956"><ele>159.0</ele><time>2026-04-18T09:10:23.001Z</time></trkpt><trkpt lat="43.53677433509478" lon="10.802086352293477"><ele>160.0</ele><time>2026-04-18T09:10:24.001Z</time></trkpt><trkpt lat="43.53681405734751" lon="10.801927485975153"><ele>161.0</ele><time>2026-04-18T09:10:24.999Z</time></trkpt><trkpt lat="43.536866585091246" lon="10.801779000699268"><ele>162.0</ele><time>2026-04-18T09:10:25.999Z</time></trkpt><trkpt lat="43.536945561720714" lon="10.801643772054472"><ele>163.0</ele><time>2026-04-18T09:10:26.999Z</time></trkpt><trkpt lat="43.53701827718634" lon="10.80151303036536"><ele>164.0</ele><time>2026-04-18T09:10:27.999Z</time></trkpt><trkpt lat="43.537105299045166" lon="10.801405439712504"><ele>164.0</ele><time>2026-04-18T09:10:28.999Z</time></trkpt><trkpt lat="43.53719766910149" lon="10.801313445238327"><ele>164.0</ele><time>2026-04-18T09:10:29.999Z</time></trkpt><trkpt lat="43.537294697678526" lon="10.801233855925059"><ele>164.0</ele><time>2026-04-18T09:10:30.999Z</time></trkpt><trkpt lat="43.537389938085006" lon="10.80113300320141"><ele>164.0</ele><time>2026-04-18T09:10:31.999Z</time></trkpt><trkpt lat="43.537493643579495" lon="10.801035999058842"><ele>166.0</ele><time>2026-04-18T09:10:32.999Z</time></trkpt><trkpt lat="43.53759293539533" lon="10.800932893251803"><ele>168.0</ele><time>2026-04-18T09:10:33.999Z</time></trkpt><trkpt lat="43.537688429379436" lon="10.800824187968548"><ele>170.0</ele><time>2026-04-18T09:10:34.999Z</time></trkpt><trkpt lat="43.537778739744894" lon="10.800715731243798"><ele>172.0</ele><time>2026-04-18T09:10:35.999Z</time></trkpt><trkpt lat="43.53786725900961" lon="10.80060080618231"><ele>170.5</ele><time>2026-04-18T09:10:36.999Z</time></trkpt><trkpt lat="43.53795301948171" lon="10.800483723092816"><ele>169.0</ele><time>2026-04-18T09:10:37.999Z</time></trkpt><trkpt lat="43.53802711507083" lon="10.800352347303395"><ele>167.5</ele><time>2026-04-18T09:10:38.999Z</time></trkpt><trkpt lat="43.53809442601588" lon="10.80019495503969"><ele>166.0</ele><time>2026-04-18T09:10:39.999Z</time></trkpt><trkpt lat="43.538152429935735" lon="10.800030442431837"><ele>166.0</ele><time>2026-04-18T09:10:41Z</time></trkpt><trkpt lat="43.53821596574744" lon="10.799860515496645"><ele>166.0</ele><time>2026-04-18T09:10:42Z</time></trkpt><trkpt lat="43.53828829696263" lon="10.7996868063261"><ele>166.0</ele><time>2026-04-18T09:10:43Z</time></trkpt><trkpt lat="43.53835732899051" lon="10.799509937380058"><ele>166.0</ele><time>2026-04-18T09:10:44Z</time></trkpt><trkpt lat="43.538420324028834" lon="10.799339426977639"><ele>165.0</ele><time>2026-04-18T09:10:45Z</time></trkpt><trkpt lat="43.53847140996744" lon="10.799173986835163"><ele>164.0</ele><time>2026-04-18T09:10:46Z</time></trkpt><trkpt lat="43.538506376307055" lon="10.799012857301566"><ele>163.0</ele><time>2026-04-18T09:10:47Z</time></trkpt><trkpt lat="43.538540955847424" lon="10.798856809214884"><ele>162.0</ele><time>2026-04-18T09:10:48Z</time></trkpt><trkpt lat="43.538529903531405" lon="10.79869151965245"><ele>162.0</ele><time>2026-04-18T09:10:49Z</time></trkpt><trkpt lat="43.538519821771466" lon="10.798525826342091"><ele>162.0</ele><time>2026-04-18T09:10:50Z</time></trkpt><trkpt lat="43.538511581482474" lon="10.798341643227868"><ele>162.0</ele><time>2026-04-18T09:10:51Z</time></trkpt><trkpt lat="43.53847861599682" lon="10.798173310010759"><ele>162.0</ele><time>2026-04-18T09:10:52Z</time></trkpt><trkpt lat="43.53845367057641" lon="10.797992981493143"><ele>161.5</ele><time>2026-04-18T09:10:53Z</time></trkpt><trkpt lat="43.53842806093623" lon="10.797810416130247"><ele>161.0</ele><time>2026-04-18T09:10:54Z</time></trkpt><trkpt lat="43.53840412694928" lon="10.797623464457331"><ele>160.5</ele><time>2026-04-18T09:10:55Z</time></trkpt><trkpt lat="43.538377827118914" lon="10.797436959560534"><ele>160.0</ele><time>2026-04-18T09:10:56Z</time></trkpt><trkpt lat="43.53835132627944" lon="10.797252986698274"><ele>160.0</ele><time>2026-04-18T09:10:57Z</time></trkpt><trkpt lat="43.53831653324317" lon="10.797072850266064"><ele>160.0</ele><time>2026-04-18T09:10:58Z</time></trkpt><trkpt lat="43.53828481996263" lon="10.796894413302061"><ele>160.0</ele><time>2026-04-18T09:10:59Z</time></trkpt><trkpt lat="43.53823033709453" lon="10.796734211823274"><ele>160.0</ele><time>2026-04-18T09:11:00Z</time></trkpt><trkpt lat="43.53818172057418" lon="10.796576370932605"><ele>161.6</ele><time>2026-04-18T09:11:01Z</time></trkpt><trkpt lat="43.53813750018606" lon="10.79642160040672"><ele>163.2</ele><time>2026-04-18T09:11:02Z</time></trkpt><trkpt lat="43.538113569542425" lon="10.796276426835702"><ele>164.8</ele><time>2026-04-18T09:11:03Z</time></trkpt><trkpt lat="43.538117520186184" lon="10.796137376947067"><ele>166.4</ele><time>2026-04-18T09:11:04Z</time></trkpt><trkpt lat="43.53815395291639" lon="10.796014419643008"><ele>168.0</ele><time>2026-04-18T09:11:05Z</time></trkpt><trkpt lat="43.538193714643384" lon="10.795890447722304"><ele>169.4</ele><time>2026-04-18T09:11:06Z</time></trkpt><trkpt lat="43.53823726138574" lon="10.795764401130581"><ele>170.8</ele><time>2026-04-18T09:11:07Z</time></trkpt><trkpt lat="43.53828733686684" lon="10.795642747592765"><ele>172.2</ele><time>2026-04-18T09:11:08Z</time></trkpt><trkpt lat="43.53834308520254" lon="10.795557877076748"><ele>173.6</ele><time>2026-04-18T09:11:09Z</time></trkpt><trkpt lat="43.538412761046374" lon="10.79551459335409"><ele>175.0</ele><time>2026-04-18T09:11:10Z</time></trkpt><trkpt lat="43.53849552695073" lon="10.795460047453043"><ele>175.0</ele><time>2026-04-18T09:11:11Z</time></trkpt><trkpt lat="43.53858138763118" lon="10.795403339328308"><ele>175.0</ele><time>2026-04-18T09:11:12Z</time></trkpt><trkpt lat="43.53866725767272" lon="10.795346624975192"><ele>175.0</ele><time>2026-04-18T09:11:13Z</time></trkpt><trkpt lat="43.53875287555759" lon="10.795274580084547"><ele>175.0</ele><time>2026-04-18T09:11:14Z</time></trkpt><trkpt lat="43.53883116011562" lon="10.795183021607889"><ele>175.0</ele><time>2026-04-18T09:11:15Z</time></trkpt><trkpt lat="43.53889456171203" lon="10.795074621084558"><ele>175.66666666666669</ele><time>2026-04-18T09:11:16Z</time></trkpt><trkpt lat="43.53893350509417" lon="10.79495162365205"><ele>176.33333333333334</ele><time>2026-04-18T09:11:17Z</time></trkpt><trkpt lat="43.53895397547717" lon="10.79482515824968"><ele>177.0</ele><time>2026-04-18T09:11:18Z</time></trkpt><trkpt lat="43.538970425741844" lon="10.794717946364543"><ele>177.66666666666666</ele><time>2026-04-18T09:11:19Z</time></trkpt><trkpt lat="43.5389836403497" lon="10.794618035936857"><ele>178.33333333333331</ele><time>2026-04-18T09:11:20Z</time></trkpt><trkpt lat="43.53899690361738" lon="10.794517757605488"><ele>179.0</ele><time>2026-04-18T09:11:21Z</time></trkpt><trkpt lat="43.5390114087028" lon="10.794408089322777"><ele>179.16666666666666</ele><time>2026-04-18T09:11:22Z</time></trkpt><trkpt lat="43.53902992426567" lon="10.79429984301099"><ele>179.33333333333331</ele><time>2026-04-18T09:11:23Z</time></trkpt><trkpt lat="43.53903950429994" lon="10.794194222616813"><ele>179.5</ele><time>2026-04-18T09:11:24Z</time></trkpt><trkpt lat="43.53908154020591" lon="10.794106354503784"><ele>179.66666666666666</ele><time>2026-04-18T09:11:25Z</time></trkpt><trkpt lat="43.53915741364667" lon="10.79404053083139"><ele>179.83333333333334</ele><time>2026-04-18T09:11:26Z</time></trkpt><trkpt lat="43.53922182511869" lon="10.79397399255192"><ele>180.0</ele><time>2026-04-18T09:11:27Z</time></trkpt><trkpt lat="43.5392780856805" lon="10.793912466116062"><ele>180.0</ele><time>2026-04-18T09:11:28Z</time></trkpt><trkpt lat="43.53931883232715" lon="10.793842802087816"><ele>180.0</ele><time>2026-04-18T09:11:29Z</time></trkpt><trkpt lat="43.539410245562145" lon="10.793760300101848"><ele>180.0</ele><time>2026-04-18T09:11:31Z</time></trkpt><trkpt lat="43.53946998591851" lon="10.793684474107259"><ele>180.0</ele><time>2026-04-18T09:11:33Z</time></trkpt><trkpt lat="43.5395243969316" lon="10.793614460313607"><ele>180.0</ele><time>2026-04-18T09:11:35Z</time></trkpt><trkpt lat="43.53955936714338" lon="10.793528242945568"><ele>180.0</ele><time>2026-04-18T09:11:37Z</time></trkpt><trkpt lat="43.53958087022717" lon="10.79343320360209"><ele>180.16666666666666</ele><time>2026-04-18T09:11:39.001Z</time></trkpt><trkpt lat="43.539589544736074" lon="10.793341306092001"><ele>180.33333333333334</ele><time>2026-04-18T09:11:41.001Z</time></trkpt><trkpt lat="43.53958997973621" lon="10.793228371808162"><ele>180.5</ele><time>2026-04-18T09:11:43.001Z</time></trkpt><trkpt lat="43.5395941014964" lon="10.793125534596191"><ele>180.66666666666669</ele><time>2026-04-18T09:11:45.001Z</time></trkpt><trkpt lat="43.5395917378615" lon="10.793003417059838"><ele>180.83333333333334</ele><time>2026-04-18T09:11:48.001Z</time></trkpt><trkpt lat="43.53955912609336" lon="10.792877591910498"><ele>181.0</ele><time>2026-04-18T09:11:51.001Z</time></trkpt><trkpt lat="43.53952775370866" lon="10.792779690682583"><ele>181.0</ele><time>2026-04-18T09:11:53.001Z</time></trkpt><trkpt lat="43.539481353485854" lon="10.792668754925558"><ele>181.0</ele><time>2026-04-18T09:11:55.001Z</time></trkpt><trkpt lat="43.53942706732242" lon="10.792556333004494"><ele>181.0</ele><time>2026-04-18T09:11:57.001Z</time></trkpt><trkpt lat="43.53937486893824" lon="10.792419135683264"><ele>181.0</ele><time>2026-04-18T09:11:59.001Z</time></trkpt><trkpt lat="43.53930943078957" lon="10.792273829665941"><ele>181.0</ele><time>2026-04-18T09:12:01.001Z</time></trkpt><trkpt lat="43.53926795853377" lon="10.79220006229681"><ele>181.0</ele><time>2026-04-18T09:12:02.001Z</time></trkpt><trkpt lat="43.53922372635055" lon="10.792055529054409"><ele>181.0</ele><time>2026-04-18T09:12:04.001Z</time></trkpt><trkpt lat="43.53916747028604" lon="10.791941332032428"><ele>181.0</ele><time>2026-04-18T09:12:06.001Z</time></trkpt><trkpt lat="43.539121938894866" lon="10.791810311716006"><ele>181.0</ele><time>2026-04-18T09:12:08.001Z</time></trkpt><trkpt lat="43.5390682565453" lon="10.791670232079682"><ele>181.0</ele><time>2026-04-18T09:12:10.001Z</time></trkpt><trkpt lat="43.539021954881804" lon="10.791592038704959"><ele>182.4</ele><time>2026-04-18T09:12:11.001Z</time></trkpt><trkpt lat="43.538976794559666" lon="10.79152218282856"><ele>183.8</ele><time>2026-04-18T09:12:12.001Z</time></trkpt><trkpt lat="43.53891419152991" lon="10.79142734888348"><ele>185.20000000000002</ele><time>2026-04-18T09:12:13.001Z</time></trkpt><trkpt lat="43.538849025514914" lon="10.79133021448825"><ele>186.60000000000002</ele><time>2026-04-18T09:12:14.001Z</time></trkpt><trkpt lat="43.53877688810528" lon="10.79123416436966"><ele>188.0</ele><time>2026-04-18T09:12:15.001Z</time></trkpt><trkpt lat="43.538706647772784" lon="10.791145119952573"><ele>186.2</ele><time>2026-04-18T09:12:16.001Z</time></trkpt><trkpt lat="43.538652893571786" lon="10.791065400930963"><ele>184.4</ele><time>2026-04-18T09:12:17.001Z</time></trkpt><trkpt lat="43.53857747236169" lon="10.790940676674866"><ele>182.6</ele><time>2026-04-18T09:12:19.001Z</time></trkpt><trkpt lat="43.538508041909594" lon="10.790864791191897"><ele>180.79999999999998</ele><time>2026-04-18T09:12:21.001Z</time></trkpt><trkpt lat="43.538466680941795" lon="10.790775205319974"><ele>179.0</ele><time>2026-04-18T09:12:23.001Z</time></trkpt><trkpt lat="43.53837583201351" lon="10.790793164892001"><ele>179.00000000000003</ele><time>2026-04-18T09:12:24.001Z</time></trkpt><trkpt lat="43.53828264234004" lon="10.790729659580869"><ele>179.0</ele><time>2026-04-18T09:12:26.001Z</time></trkpt><trkpt lat="43.538217410220994" lon="10.79070200924308"><ele>179.0</ele><time>2026-04-18T09:12:27.001Z</time></trkpt><trkpt lat="43.53815281931938" lon="10.790672850931344"><ele>179.0</ele><time>2026-04-18T09:12:28.001Z</time></trkpt><trkpt lat="43.538081766935925" lon="10.79064965819599"><ele>179.0</ele><time>2026-04-18T09:12:29.001Z</time></trkpt><trkpt lat="43.538019273707086" lon="10.790611652016414"><ele>179.00000000000003</ele><time>2026-04-18T09:12:30.001Z</time></trkpt><trkpt lat="43.53795501261429" lon="10.790597905065585"><ele>179.0</ele><time>2026-04-18T09:12:30.999Z</time></trkpt><trkpt lat="43.53787932783354" lon="10.79060659397079"><ele>178.66666666666666</ele><time>2026-04-18T09:12:31.999Z</time></trkpt><trkpt lat="43.53780813064183" lon="10.790600959343486"><ele>178.33333333333331</ele><time>2026-04-18T09:12:32.999Z</time></trkpt><trkpt lat="43.53773344180213" lon="10.790597499183242"><ele>178.0</ele><time>2026-04-18T09:12:33.999Z</time></trkpt><trkpt lat="43.53765665909254" lon="10.790603897979128"><ele>177.66666666666666</ele><time>2026-04-18T09:12:34.999Z</time></trkpt><trkpt lat="43.53757471229636" lon="10.790626704888982"><ele>177.33333333333334</ele><time>2026-04-18T09:12:35.999Z</time></trkpt><trkpt lat="43.53749493431558" lon="10.790646164568921"><ele>177.0</ele><time>2026-04-18T09:12:36.999Z</time></trkpt><trkpt lat="43.537417819554555" lon="10.790661887497764"><ele>177.0</ele><time>2026-04-18T09:12:37.999Z</time></trkpt><trkpt lat="43.537338778951295" lon="10.7906950902438"><ele>177.0</ele><time>2026-04-18T09:12:38.999Z</time></trkpt><trkpt lat="43.537255898436044" lon="10.790735205172723"><ele>177.0</ele><time>2026-04-18T09:12:39.999Z</time></trkpt><trkpt lat="43.537176948698715" lon="10.790774318325285"><ele>177.0</ele><time>2026-04-18T09:12:40.999Z</time></trkpt><trkpt lat="43.537092526636336" lon="10.790803283175924"><ele>177.0</ele><time>2026-04-18T09:12:42Z</time></trkpt><trkpt lat="43.53700715035871" lon="10.790819109984476"><ele>177.0</ele><time>2026-04-18T09:12:43Z</time></trkpt><trkpt lat="43.53691885940924" lon="10.790821183435751"><ele>177.39999999999998</ele><time>2026-04-18T09:12:44Z</time></trkpt><trkpt lat="43.536831100238565" lon="10.790806381213418"><ele>177.79999999999998</ele><time>2026-04-18T09:12:45Z</time></trkpt><trkpt lat="43.536740832265785" lon="10.790795417891996"><ele>178.2</ele><time>2026-04-18T09:12:46Z</time></trkpt><trkpt lat="43.536648283741464" lon="10.790788573707742"><ele>178.6</ele><time>2026-04-18T09:12:47Z</time></trkpt><trkpt lat="43.536556634145406" lon="10.790784828517914"><ele>179.0</ele><time>2026-04-18T09:12:48Z</time></trkpt><trkpt lat="43.53647050497251" lon="10.790790508575203"><ele>179.00000000000003</ele><time>2026-04-18T09:12:49Z</time></trkpt><trkpt lat="43.5363876504351" lon="10.790807748723669"><ele>179.0</ele><time>2026-04-18T09:12:50Z</time></trkpt><trkpt lat="43.536313545329484" lon="10.790818003177629"><ele>179.0</ele><time>2026-04-18T09:12:51Z</time></trkpt><trkpt lat="43.53623851322917" lon="10.790836316022473"><ele>179.0</ele><time>2026-04-18T09:12:52Z</time></trkpt><trkpt lat="43.53616915104408" lon="10.790848028338567"><ele>179.0</ele><time>2026-04-18T09:12:53Z</time></trkpt><trkpt lat="43.5361000193304" lon="10.790848701698295"><ele>179.00000000000003</ele><time>2026-04-18T09:12:54Z</time></trkpt><trkpt lat="43.53603031942013" lon="10.790834333394175"><ele>179.0</ele><time>2026-04-18T09:12:55Z</time></trkpt><trkpt lat="43.53596268279709" lon="10.790806441056777"><ele>178.79999999999998</ele><time>2026-04-18T09:12:56Z</time></trkpt><trkpt lat="43.53589713832755" lon="10.790763149601569"><ele>178.6</ele><time>2026-04-18T09:12:57Z</time></trkpt><trkpt lat="43.53582933251751" lon="10.790711372866257"><ele>178.4</ele><time>2026-04-18T09:12:58Z</time></trkpt><trkpt lat="43.53575216162527" lon="10.790648047623247"><ele>178.2</ele><time>2026-04-18T09:12:59Z</time></trkpt><trkpt lat="43.535665820954655" lon="10.790574157800206"><ele>178.0</ele><time>2026-04-18T09:13:00Z</time></trkpt><trkpt lat="43.53556381453772" lon="10.790488043249146"><ele>178.0</ele><time>2026-04-18T09:13:01Z</time></trkpt><trkpt lat="43.53545538570698" lon="10.79039402051057"><ele>178.0</ele><time>2026-04-18T09:13:02Z</time></trkpt><trkpt lat="43.53534417017936" lon="10.790300665662373"><ele>178.0</ele><time>2026-04-18T09:13:03Z</time></trkpt><trkpt lat="43.53522963848707" lon="10.790212798411495"><ele>178.0</ele><time>2026-04-18T09:13:04Z</time></trkpt><trkpt lat="43.535120267414584" lon="10.790124891906695"><ele>176.25</ele><time>2026-04-18T09:13:05Z</time></trkpt><trkpt lat="43.53501668257988" lon="10.790038878220837"><ele>174.5</ele><time>2026-04-18T09:13:06Z</time></trkpt><trkpt lat="43.53491713023317" lon="10.789942640222343"><ele>172.75</ele><time>2026-04-18T09:13:07Z</time></trkpt><trkpt lat="43.53481659822753" lon="10.789861744377756"><ele>171.0</ele><time>2026-04-18T09:13:08Z</time></trkpt><trkpt lat="43.5347171308404" lon="10.789791400687045"><ele>171.0</ele><time>2026-04-18T09:13:09Z</time></trkpt><trkpt lat="43.53461552163642" lon="10.789717036840536"><ele>171.0</ele><time>2026-04-18T09:13:10Z</time></trkpt><trkpt lat="43.53451180375228" lon="10.78964772958228"><ele>171.0</ele><time>2026-04-18T09:13:11Z</time></trkpt><trkpt lat="43.53440719359423" lon="10.789580625989743"><ele>171.0</ele><time>2026-04-18T09:13:12Z</time></trkpt><trkpt lat="43.53430134871648" lon="10.789518739287283"><ele>170.75</ele><time>2026-04-18T09:13:13Z</time></trkpt><trkpt lat="43.53419207334793" lon="10.789456691473326"><ele>170.5</ele><time>2026-04-18T09:13:14Z</time></trkpt><trkpt lat="43.53408023027392" lon="10.789392753002561"><ele>170.25</ele><time>2026-04-18T09:13:15Z</time></trkpt><trkpt lat="43.53396732835103" lon="10.789325319440323"><ele>170.0</ele><time>2026-04-18T09:13:16Z</time></trkpt><trkpt lat="43.53386154714109" lon="10.78923560584314"><ele>170.0</ele><time>2026-04-18T09:13:17Z</time></trkpt><trkpt lat="43.533750687097715" lon="10.789171589251959"><ele>170.0</ele><time>2026-04-18T09:13:18Z</time></trkpt><trkpt lat="43.53363110507171" lon="10.789102610084928"><ele>170.0</ele><time>2026-04-18T09:13:19Z</time></trkpt><trkpt lat="43.53351442831037" lon="10.789019570516295"><ele>170.0</ele><time>2026-04-18T09:13:20Z</time></trkpt><trkpt lat="43.5333795296469" lon="10.788949997834152"><ele>168.0</ele><time>2026-04-18T09:13:21Z</time></trkpt><trkpt lat="43.53326905272426" lon="10.78887315120345"><ele>166.0</ele><time>2026-04-18T09:13:22Z</time></trkpt><trkpt lat="43.533138436838634" lon="10.788802759283906"><ele>164.0</ele><time>2026-04-18T09:13:23Z</time></trkpt><trkpt lat="43.53302195515308" lon="10.788747078832005"><ele>162.0</ele><time>2026-04-18T09:13:24Z</time></trkpt><trkpt lat="43.53291411491523" lon="10.788689992351653"><ele>160.75</ele><time>2026-04-18T09:13:25Z</time></trkpt><trkpt lat="43.53280958146477" lon="10.788639360931239"><ele>159.5</ele><time>2026-04-18T09:13:26Z</time></trkpt><trkpt lat="43.53270038869464" lon="10.788580572763943"><ele>158.25</ele><time>2026-04-18T09:13:27Z</time></trkpt><trkpt lat="43.53259489947493" lon="10.78851453656812"><ele>157.0</ele><time>2026-04-18T09:13:28Z</time></trkpt><trkpt lat="43.532484765697944" lon="10.788454869152082"><ele>157.0</ele><time>2026-04-18T09:13:29Z</time></trkpt><trkpt lat="43.53237615795854" lon="10.788394604127662"><ele>157.0</ele><time>2026-04-18T09:13:30Z</time></trkpt><trkpt lat="43.53226685062524" lon="10.78833449836064"><ele>157.0</ele><time>2026-04-18T09:13:31Z</time></trkpt><trkpt lat="43.53216202752238" lon="10.788272417223107"><ele>157.0</ele><time>2026-04-18T09:13:32Z</time></trkpt><trkpt lat="43.532061117803956" lon="10.788210988224218"><ele>154.79999999999998</ele><time>2026-04-18T09:13:33Z</time></trkpt><trkpt lat="43.53196577409804" lon="10.788147503134681"><ele>152.6</ele><time>2026-04-18T09:13:34Z</time></trkpt><trkpt lat="43.531880960754144" lon="10.788074857291665"><ele>150.39999999999998</ele><time>2026-04-18T09:13:35.001Z</time></trkpt><trkpt lat="43.531818152763705" lon="10.787990343739633"><ele>148.2</ele><time>2026-04-18T09:13:36.001Z</time></trkpt><trkpt lat="43.531761696981945" lon="10.787903009819113"><ele>146.0</ele><time>2026-04-18T09:13:37.001Z</time></trkpt><trkpt lat="43.53170299648486" lon="10.787803388222631"><ele>146.0</ele><time>2026-04-18T09:13:38.001Z</time></trkpt><trkpt lat="43.53163994971396" lon="10.787700627979872"><ele>146.0</ele><time>2026-04-18T09:13:39.001Z</time></trkpt><trkpt lat="43.531577931776894" lon="10.787592028109609"><ele>146.0</ele><time>2026-04-18T09:13:40.001Z</time></trkpt><trkpt lat="43.531514290562775" lon="10.787481699185964"><ele>146.0</ele><time>2026-04-18T09:13:41.001Z</time></trkpt><trkpt lat="43.53144869576258" lon="10.787366541895352"><ele>146.0</ele><time>2026-04-18T09:13:42.001Z</time></trkpt><trkpt lat="43.531380605131766" lon="10.78725119513214"><ele>145.0</ele><time>2026-04-18T09:13:43.001Z</time></trkpt><trkpt lat="43.53130638411452" lon="10.787140271842778"><ele>144.0</ele><time>2026-04-18T09:13:44.001Z</time></trkpt><trkpt lat="43.531236666141126" lon="10.787019485846292"><ele>143.0</ele><time>2026-04-18T09:13:45.001Z</time></trkpt><trkpt lat="43.53116471348067" lon="10.786901446639913"><ele>142.0</ele><time>2026-04-18T09:13:46.001Z</time></trkpt><trkpt lat="43.53108854408373" lon="10.786785100558266"><ele>141.0</ele><time>2026-04-18T09:13:47.001Z</time></trkpt><trkpt lat="43.531016112371034" lon="10.786671851109682"><ele>141.0</ele><time>2026-04-18T09:13:48.001Z</time></trkpt><trkpt lat="43.530946543855364" lon="10.786566773412472"><ele>141.0</ele><time>2026-04-18T09:13:49.001Z</time></trkpt><trkpt lat="43.53087272543747" lon="10.786461980468074"><ele>141.0</ele><time>2026-04-18T09:13:50.001Z</time></trkpt><trkpt lat="43.53080941693059" lon="10.786385482030557"><ele>141.0</ele><time>2026-04-18T09:13:51.001Z</time></trkpt><trkpt lat="43.53073233478303" lon="10.78629707957523"><ele>141.0</ele><time>2026-04-18T09:13:52.001Z</time></trkpt><trkpt lat="43.53067911775465" lon="10.786204847026923"><ele>141.0</ele><time>2026-04-18T09:13:53.001Z</time></trkpt><trkpt lat="43.530651319908365" lon="10.786099126616165"><ele>141.0</ele><time>2026-04-18T09:13:54.001Z</time></trkpt><trkpt lat="43.53068331380874" lon="10.785895030355006"><ele>141.0</ele><time>2026-04-18T09:13:56.001Z</time></trkpt><trkpt lat="43.53071380668746" lon="10.785778459303069"><ele>141.0</ele><time>2026-04-18T09:13:57.001Z</time></trkpt><trkpt lat="43.53076415891162" lon="10.785673751044705"><ele>141.0</ele><time>2026-04-18T09:13:58.001Z</time></trkpt><trkpt lat="43.53080440244993" lon="10.78557496111745"><ele>140.6</ele><time>2026-04-18T09:13:59.001Z</time></trkpt><trkpt lat="43.53084165740252" lon="10.785469505355486"><ele>140.2</ele><time>2026-04-18T09:14:00.001Z</time></trkpt><trkpt lat="43.530873596880014" lon="10.785348372221403"><ele>139.8</ele><time>2026-04-18T09:14:01.001Z</time></trkpt><trkpt lat="43.53089112147845" lon="10.785220193378933"><ele>139.4</ele><time>2026-04-18T09:14:02.001Z</time></trkpt><trkpt lat="43.53089132801557" lon="10.78510155561866"><ele>139.0</ele><time>2026-04-18T09:14:03.001Z</time></trkpt><trkpt lat="43.5308659232751" lon="10.784960255967546"><ele>139.0</ele><time>2026-04-18T09:14:04.001Z</time></trkpt><trkpt lat="43.53083411610751" lon="10.784834855450187"><ele>139.0</ele><time>2026-04-18T09:14:05.001Z</time></trkpt><trkpt lat="43.53078914120693" lon="10.784708002772215"><ele>139.0</ele><time>2026-04-18T09:14:06.001Z</time></trkpt><trkpt lat="43.5307539328388" lon="10.784595264795824"><ele>139.0</ele><time>2026-04-18T09:14:07.001Z</time></trkpt><trkpt lat="43.5307282216041" lon="10.784482172194396"><ele>139.0</ele><time>2026-04-18T09:14:08.001Z</time></trkpt><trkpt lat="43.530702613665305" lon="10.784378634389418"><ele>137.5</ele><time>2026-04-18T09:14:09.001Z</time></trkpt><trkpt lat="43.530677581657756" lon="10.784295392155567"><ele>136.0</ele><time>2026-04-18T09:14:10.001Z</time></trkpt><trkpt lat="43.530643521235284" lon="10.784180857221314"><ele>134.5</ele><time>2026-04-18T09:14:12.001Z</time></trkpt><trkpt lat="43.53058087768216" lon="10.784103779844799"><ele>133.0</ele><time>2026-04-18T09:14:14.001Z</time></trkpt><trkpt lat="43.53051733543967" lon="10.784084503010234"><ele>131.5</ele><time>2026-04-18T09:14:15.001Z</time></trkpt><trkpt lat="43.53044609145935" lon="10.784137631406256"><ele>130.0</ele><time>2026-04-18T09:14:16.001Z</time></trkpt><trkpt lat="43.53034222702619" lon="10.784233149651888"><ele>131.0</ele><time>2026-04-18T09:14:18.001Z</time></trkpt><trkpt lat="43.53028923420056" lon="10.784286349120912"><ele>132.0</ele><time>2026-04-18T09:14:19.001Z</time></trkpt><trkpt lat="43.53020070298125" lon="10.784388768872054"><ele>133.0</ele><time>2026-04-18T09:14:21.001Z</time></trkpt><trkpt lat="43.53013350128216" lon="10.78448439659576"><ele>134.0</ele><time>2026-04-18T09:14:23.001Z</time></trkpt><trkpt lat="43.53005615684992" lon="10.784602136452515"><ele>135.0</ele><time>2026-04-18T09:14:25.001Z</time></trkpt><trkpt lat="43.53000255329175" lon="10.784656293092866"><ele>135.0</ele><time>2026-04-18T09:14:26.001Z</time></trkpt><trkpt lat="43.529940065055726" lon="10.784685897033071"><ele>135.0</ele><time>2026-04-18T09:14:27.001Z</time></trkpt><trkpt lat="43.52987133970153" lon="10.784716499774156"><ele>135.0</ele><time>2026-04-18T09:14:28.001Z</time></trkpt><trkpt lat="43.52979742573482" lon="10.784736178680586"><ele>135.0</ele><time>2026-04-18T09:14:29.001Z</time></trkpt><trkpt lat="43.529709017838314" lon="10.78475221257575"><ele>135.0</ele><time>2026-04-18T09:14:30.001Z</time></trkpt><trkpt lat="43.529633899473524" lon="10.784760315896785"><ele>135.0</ele><time>2026-04-18T09:14:31.001Z</time></trkpt><trkpt lat="43.52955677870593" lon="10.784761125546423"><ele>131.33333333333334</ele><time>2026-04-18T09:14:32.001Z</time></trkpt><trkpt lat="43.52948317689792" lon="10.78475088817276"><ele>127.66666666666666</ele><time>2026-04-18T09:14:33.001Z</time></trkpt><trkpt lat="43.52940096100724" lon="10.78472284625921"><ele>124.0</ele><time>2026-04-18T09:14:34.001Z</time></trkpt><trkpt lat="43.52932120403665" lon="10.78471182172531"><ele>120.33333333333333</ele><time>2026-04-18T09:14:35.001Z</time></trkpt><trkpt lat="43.52923574980794" lon="10.784697206273279"><ele>116.66666666666666</ele><time>2026-04-18T09:14:36.001Z</time></trkpt><trkpt lat="43.52914505796611" lon="10.7846786885176"><ele>113.0</ele><time>2026-04-18T09:14:37Z</time></trkpt><trkpt lat="43.52906410081647" lon="10.784661445782005"><ele>112.99999999999999</ele><time>2026-04-18T09:14:38Z</time></trkpt><trkpt lat="43.52898238329873" lon="10.784644137395928"><ele>113.0</ele><time>2026-04-18T09:14:39Z</time></trkpt><trkpt lat="43.528900097992015" lon="10.78462448694312"><ele>113.0</ele><time>2026-04-18T09:14:40Z</time></trkpt><trkpt lat="43.528814437646155" lon="10.78460421763509"><ele>113.0</ele><time>2026-04-18T09:14:41Z</time></trkpt><trkpt lat="43.52873467650287" lon="10.784601044304775"><ele>112.99999999999999</ele><time>2026-04-18T09:14:42Z</time></trkpt><trkpt lat="43.52865017996673" lon="10.784586297693163"><ele>113.0</ele><time>2026-04-18T09:14:43Z</time></trkpt><trkpt lat="43.52855845976357" lon="10.78459574905186"><ele>110.60000000000001</ele><time>2026-04-18T09:14:44Z</time></trkpt><trkpt lat="43.52847021903646" lon="10.784625576231006"><ele>108.20000000000002</ele><time>2026-04-18T09:14:45Z</time></trkpt><trkpt lat="43.52837083116079" lon="10.784658209217664"><ele>105.8</ele><time>2026-04-18T09:14:46Z</time></trkpt><trkpt lat="43.52826507599071" lon="10.78469026869249"><ele>103.4</ele><time>2026-04-18T09:14:47Z</time></trkpt><trkpt lat="43.52815923749212" lon="10.784703019196154"><ele>101.0</ele><time>2026-04-18T09:14:48Z</time></trkpt><trkpt lat="43.52805101489322" lon="10.784700439140188"><ele>101.0</ele><time>2026-04-18T09:14:49Z</time></trkpt><trkpt lat="43.52794171017651" lon="10.784664805686415"><ele>101.0</ele><time>2026-04-18T09:14:50Z</time></trkpt><trkpt lat="43.527833169622646" lon="10.784665392351734"><ele>101.0</ele><time>2026-04-18T09:14:51Z</time></trkpt><trkpt lat="43.52772756320705" lon="10.784652621490967"><ele>101.0</ele><time>2026-04-18T09:14:52Z</time></trkpt><trkpt lat="43.527629760604" lon="10.784634478814413"><ele>101.0</ele><time>2026-04-18T09:14:53Z</time></trkpt><trkpt lat="43.52754375779423" lon="10.784601979270603"><ele>99.0</ele><time>2026-04-18T09:14:54Z</time></trkpt><trkpt lat="43.52745555851644" lon="10.78455062540964"><ele>97.0</ele><time>2026-04-18T09:14:55Z</time></trkpt><trkpt lat="43.52737308127186" lon="10.784487997242788"><ele>95.0</ele><time>2026-04-18T09:14:56Z</time></trkpt><trkpt lat="43.52729414764414" lon="10.784411906282436"><ele>93.0</ele><time>2026-04-18T09:14:57Z</time></trkpt><trkpt lat="43.52720035930247" lon="10.784197038101336"><ele>93.0</ele><time>2026-04-18T09:14:59Z</time></trkpt><trkpt lat="43.52714974393605" lon="10.78409394855847"><ele>93.0</ele><time>2026-04-18T09:15:00Z</time></trkpt><trkpt lat="43.527082857220954" lon="10.784007638436613"><ele>93.0</ele><time>2026-04-18T09:15:01Z</time></trkpt><trkpt lat="43.5270337434568" lon="10.783906114927664"><ele>93.0</ele><time>2026-04-18T09:15:02Z</time></trkpt><trkpt lat="43.52697524422533" lon="10.78380528094434"><ele>93.0</ele><time>2026-04-18T09:15:03Z</time></trkpt><trkpt lat="43.526913736988284" lon="10.783700606503617"><ele>92.60000000000001</ele><time>2026-04-18T09:15:04Z</time></trkpt><trkpt lat="43.52684962021742" lon="10.783597341265091"><ele>92.2</ele><time>2026-04-18T09:15:05Z</time></trkpt><trkpt lat="43.52678900179578" lon="10.78348995580166"><ele>91.8</ele><time>2026-04-18T09:15:06Z</time></trkpt><trkpt lat="43.52672776331803" lon="10.783380946687597"><ele>91.4</ele><time>2026-04-18T09:15:07Z</time></trkpt><trkpt lat="43.526666695344105" lon="10.783270848074897"><ele>91.0</ele><time>2026-04-18T09:15:08Z</time></trkpt><trkpt lat="43.526613851344834" lon="10.783155553265415"><ele>90.0</ele><time>2026-04-18T09:15:09Z</time></trkpt><trkpt lat="43.52656709148347" lon="10.783030027731739"><ele>89.0</ele><time>2026-04-18T09:15:10Z</time></trkpt><trkpt lat="43.526519999787325" lon="10.782887059687667"><ele>88.0</ele><time>2026-04-18T09:15:11Z</time></trkpt><trkpt lat="43.526472149149306" lon="10.782730785706885"><ele>87.0</ele><time>2026-04-18T09:15:12Z</time></trkpt><trkpt lat="43.52641999675824" lon="10.782562961502588"><ele>84.75</ele><time>2026-04-18T09:15:13Z</time></trkpt><trkpt lat="43.526366076188495" lon="10.782389751459945"><ele>82.5</ele><time>2026-04-18T09:15:14Z</time></trkpt><trkpt lat="43.526313070721244" lon="10.782219750528812"><ele>80.25</ele><time>2026-04-18T09:15:15Z</time></trkpt><trkpt lat="43.526259368697794" lon="10.782047646272131"><ele>78.0</ele><time>2026-04-18T09:15:16Z</time></trkpt><trkpt lat="43.52620955986556" lon="10.781876841049735"><ele>76.2</ele><time>2026-04-18T09:15:17Z</time></trkpt><trkpt lat="43.52616520621918" lon="10.781715193327573"><ele>74.4</ele><time>2026-04-18T09:15:18Z</time></trkpt><trkpt lat="43.52612719000548" lon="10.781567646796194"><ele>72.60000000000001</ele><time>2026-04-18T09:15:19Z</time></trkpt><trkpt lat="43.526095231253095" lon="10.781450388172974"><ele>70.8</ele><time>2026-04-18T09:15:20Z</time></trkpt><trkpt lat="43.526070002193975" lon="10.781356007947048"><ele>69.0</ele><time>2026-04-18T09:15:21Z</time></trkpt><trkpt lat="43.52603050286051" lon="10.781221154666705"><ele>69.0</ele><time>2026-04-18T09:15:23Z</time></trkpt><trkpt lat="43.525969682910656" lon="10.78117531528759"><ele>69.0</ele><time>2026-04-18T09:15:26Z</time></trkpt><trkpt lat="43.52588926107109" lon="10.781208346854932"><ele>69.0</ele><time>2026-04-18T09:15:28Z</time></trkpt><trkpt lat="43.52580125053382" lon="10.78129318592815"><ele>69.0</ele><time>2026-04-18T09:15:30.001Z</time></trkpt><trkpt lat="43.525696497558165" lon="10.781404259684813"><ele>69.0</ele><time>2026-04-18T09:15:32.001Z</time></trkpt><trkpt lat="43.525637769049155" lon="10.781468254979268"><ele>69.0</ele><time>2026-04-18T09:15:33.001Z</time></trkpt><trkpt lat="43.52557301471823" lon="10.781534393826318"><ele>69.0</ele><time>2026-04-18T09:15:34.001Z</time></trkpt><trkpt lat="43.52550269096344" lon="10.781606773983818"><ele>69.0</ele><time>2026-04-18T09:15:35.001Z</time></trkpt><trkpt lat="43.525428003665105" lon="10.781681330265222"><ele>69.0</ele><time>2026-04-18T09:15:36.001Z</time></trkpt><trkpt lat="43.52534810310063" lon="10.781754152013402"><ele>69.0</ele><time>2026-04-18T09:15:37.001Z</time></trkpt><trkpt lat="43.525267892769506" lon="10.781832491148894"><ele>69.4</ele><time>2026-04-18T09:15:38.001Z</time></trkpt><trkpt lat="43.525185215392206" lon="10.781913460014446"><ele>69.80000000000001</ele><time>2026-04-18T09:15:39.001Z</time></trkpt><trkpt lat="43.525098932166614" lon="10.781998682082795"><ele>70.19999999999999</ele><time>2026-04-18T09:15:40.001Z</time></trkpt><trkpt lat="43.52500407392145" lon="10.782083377896129"><ele>70.6</ele><time>2026-04-18T09:15:41.001Z</time></trkpt><trkpt lat="43.524916279899735" lon="10.782175923852424"><ele>71.0</ele><time>2026-04-18T09:15:42.001Z</time></trkpt><trkpt lat="43.52482986932161" lon="10.782269858750118"><ele>71.0</ele><time>2026-04-18T09:15:43.001Z</time></trkpt><trkpt lat="43.524751863647026" lon="10.782383811356874"><ele>71.0</ele><time>2026-04-18T09:15:44.001Z</time></trkpt><trkpt lat="43.52467368939391" lon="10.782510359221655"><ele>71.0</ele><time>2026-04-18T09:15:45.001Z</time></trkpt><trkpt lat="43.5245985077345" lon="10.782644920288108"><ele>71.0</ele><time>2026-04-18T09:15:46.001Z</time></trkpt><trkpt lat="43.52453060995937" lon="10.78278771554042"><ele>69.5</ele><time>2026-04-18T09:15:47.001Z</time></trkpt><trkpt lat="43.52446214789525" lon="10.78293880469396"><ele>68.0</ele><time>2026-04-18T09:15:48.001Z</time></trkpt><trkpt lat="43.52439173426035" lon="10.783092546239683"><ele>66.5</ele><time>2026-04-18T09:15:49.001Z</time></trkpt><trkpt lat="43.52432053589479" lon="10.783249212206828"><ele>65.0</ele><time>2026-04-18T09:15:50.001Z</time></trkpt><trkpt lat="43.52425068325072" lon="10.78340506535213"><ele>65.0</ele><time>2026-04-18T09:15:51.001Z</time></trkpt><trkpt lat="43.52417881842044" lon="10.78355816493445"><ele>65.0</ele><time>2026-04-18T09:15:52.001Z</time></trkpt><trkpt lat="43.52410570785359" lon="10.783717344256237"><ele>65.0</ele><time>2026-04-18T09:15:53.001Z</time></trkpt><trkpt lat="43.5240321133472" lon="10.783874659482045"><ele>65.0</ele><time>2026-04-18T09:15:54.001Z</time></trkpt><trkpt lat="43.52396080436813" lon="10.784026238926893"><ele>65.0</ele><time>2026-04-18T09:15:55.001Z</time></trkpt><trkpt lat="43.523884424334874" lon="10.784167035454162"><ele>65.0</ele><time>2026-04-18T09:15:56.001Z</time></trkpt><trkpt lat="43.52379811280421" lon="10.784291473563348"><ele>65.0</ele><time>2026-04-18T09:15:57.001Z</time></trkpt><trkpt lat="43.523701537227254" lon="10.784382818042676"><ele>65.0</ele><time>2026-04-18T09:15:58.001Z</time></trkpt><trkpt lat="43.523597517570614" lon="10.784469931804235"><ele>66.0</ele><time>2026-04-18T09:15:59.001Z</time></trkpt><trkpt lat="43.52348624341317" lon="10.784547085530548"><ele>67.0</ele><time>2026-04-18T09:16:00.001Z</time></trkpt><trkpt lat="43.52337035195287" lon="10.784616805569998"><ele>68.0</ele><time>2026-04-18T09:16:01.001Z</time></trkpt><trkpt lat="43.52324851706282" lon="10.78468728621524"><ele>69.0</ele><time>2026-04-18T09:16:02.001Z</time></trkpt><trkpt lat="43.52312222794564" lon="10.784757674891589"><ele>69.0</ele><time>2026-04-18T09:16:03.001Z</time></trkpt><trkpt lat="43.52298996198989" lon="10.784832184045467"><ele>69.0</ele><time>2026-04-18T09:16:04.001Z</time></trkpt><trkpt lat="43.522852737525675" lon="10.7849104959544"><ele>69.0</ele><time>2026-04-18T09:16:05.001Z</time></trkpt><trkpt lat="43.5227169690374" lon="10.784989385335333"><ele>69.0</ele><time>2026-04-18T09:16:06.001Z</time></trkpt><trkpt lat="43.52259055826835" lon="10.78506528376992"><ele>69.0</ele><time>2026-04-18T09:16:07.001Z</time></trkpt><trkpt lat="43.52248505607927" lon="10.785127887906603"><ele>69.0</ele><time>2026-04-18T09:16:08.001Z</time></trkpt><trkpt lat="43.52240854612466" lon="10.785172910800771"><ele>69.0</ele><time>2026-04-18T09:16:09.001Z</time></trkpt><trkpt lat="43.522297952172856" lon="10.785241536395876"><ele>69.0</ele><time>2026-04-18T09:16:11.001Z</time></trkpt><trkpt lat="43.52222926366148" lon="10.785284650136381"><ele>69.0</ele><time>2026-04-18T09:16:12.001Z</time></trkpt><trkpt lat="43.522152261534494" lon="10.78533553962476"><ele>69.0</ele><time>2026-04-18T09:16:13.001Z</time></trkpt><trkpt lat="43.52206509658624" lon="10.78539155196853"><ele>69.0</ele><time>2026-04-18T09:16:14.001Z</time></trkpt><trkpt lat="43.52196841004884" lon="10.785453874018135"><ele>69.0</ele><time>2026-04-18T09:16:15.001Z</time></trkpt><trkpt lat="43.52186406437592" lon="10.785518911047925"><ele>69.0</ele><time>2026-04-18T09:16:16.001Z</time></trkpt><trkpt lat="43.52175063833744" lon="10.785591104434065"><ele>69.0</ele><time>2026-04-18T09:16:17.001Z</time></trkpt><trkpt lat="43.521629799535816" lon="10.785649250004411"><ele>68.5</ele><time>2026-04-18T09:16:18.001Z</time></trkpt><trkpt lat="43.52151171660804" lon="10.785716005696635"><ele>68.0</ele><time>2026-04-18T09:16:19.001Z</time></trkpt><trkpt lat="43.52138648662625" lon="10.785792341019315"><ele>67.5</ele><time>2026-04-18T09:16:20.001Z</time></trkpt><trkpt lat="43.52127040566991" lon="10.785880047930762"><ele>67.0</ele><time>2026-04-18T09:16:21.001Z</time></trkpt><trkpt lat="43.52116583541293" lon="10.785987716059745"><ele>67.5</ele><time>2026-04-18T09:16:22.001Z</time></trkpt><trkpt lat="43.52106881903119" lon="10.786124875764632"><ele>68.0</ele><time>2026-04-18T09:16:23.001Z</time></trkpt><trkpt lat="43.52098268200599" lon="10.78627182695092"><ele>68.5</ele><time>2026-04-18T09:16:24.001Z</time></trkpt><trkpt lat="43.520899760893286" lon="10.786428731463705"><ele>69.0</ele><time>2026-04-18T09:16:25.001Z</time></trkpt><trkpt lat="43.52081756960443" lon="10.78659496244904"><ele>69.0</ele><time>2026-04-18T09:16:26.001Z</time></trkpt><trkpt lat="43.5207263071296" lon="10.786759396332956"><ele>69.0</ele><time>2026-04-18T09:16:27.001Z</time></trkpt><trkpt lat="43.520636466937695" lon="10.78692400623941"><ele>69.0</ele><time>2026-04-18T09:16:28.001Z</time></trkpt><trkpt lat="43.52054749503132" lon="10.78709430231549"><ele>68.66666666666667</ele><time>2026-04-18T09:16:29.001Z</time></trkpt><trkpt lat="43.52045098306861" lon="10.787262181219067"><ele>68.33333333333334</ele><time>2026-04-18T09:16:30.002Z</time></trkpt><trkpt lat="43.52035869057851" lon="10.787436364001096"><ele>68.0</ele><time>2026-04-18T09:16:31.002Z</time></trkpt><trkpt lat="43.52026422061541" lon="10.787607992446885"><ele>69.0</ele><time>2026-04-18T09:16:32.002Z</time></trkpt><trkpt lat="43.52016983950961" lon="10.787783867542027"><ele>70.0</ele><time>2026-04-18T09:16:33.002Z</time></trkpt><trkpt lat="43.52007746810691" lon="10.787964063676545"><ele>71.0</ele><time>2026-04-18T09:16:34.002Z</time></trkpt><trkpt lat="43.51998304875682" lon="10.788144601896885"><ele>71.0</ele><time>2026-04-18T09:16:35.002Z</time></trkpt><trkpt lat="43.5198894913874" lon="10.788328987295472"><ele>71.0</ele><time>2026-04-18T09:16:36.002Z</time></trkpt><trkpt lat="43.51979261395629" lon="10.788510640833781"><ele>71.0</ele><time>2026-04-18T09:16:37.002Z</time></trkpt><trkpt lat="43.5196951780508" lon="10.78869313248332"><ele>70.66666666666667</ele><time>2026-04-18T09:16:38.002Z</time></trkpt><trkpt lat="43.5195944988782" lon="10.78888109506395"><ele>70.33333333333333</ele><time>2026-04-18T09:16:39.002Z</time></trkpt><trkpt lat="43.51948586278944" lon="10.78904094528158"><ele>70.0</ele><time>2026-04-18T09:16:40.002Z</time></trkpt><trkpt lat="43.51937351792217" lon="10.789184326274656"><ele>70.5</ele><time>2026-04-18T09:16:41.002Z</time></trkpt><trkpt lat="43.519254719714404" lon="10.789308257453479"><ele>71.0</ele><time>2026-04-18T09:16:42.002Z</time></trkpt><trkpt lat="43.51913855016225" lon="10.789422819889309"><ele>71.5</ele><time>2026-04-18T09:16:43Z</time></trkpt><trkpt lat="43.51903037438315" lon="10.789532823452218"><ele>72.0</ele><time>2026-04-18T09:16:44Z</time></trkpt><trkpt lat="43.51893171941262" lon="10.789632654567999"><ele>72.0</ele><time>2026-04-18T09:16:45Z</time></trkpt><trkpt lat="43.51883962954948" lon="10.789729397773183"><ele>72.0</ele><time>2026-04-18T09:16:46Z</time></trkpt><trkpt lat="43.51874986590238" lon="10.789826494748219"><ele>72.0</ele><time>2026-04-18T09:16:47Z</time></trkpt><trkpt lat="43.51866422926172" lon="10.789917368363096"><ele>72.0</ele><time>2026-04-18T09:16:48Z</time></trkpt><trkpt lat="43.51857797827644" lon="10.790003452175526"><ele>72.0</ele><time>2026-04-18T09:16:49Z</time></trkpt><trkpt lat="43.518487913522385" lon="10.790094095338443"><ele>71.8</ele><time>2026-04-18T09:16:50Z</time></trkpt><trkpt lat="43.518392672189925" lon="10.7901859168772"><ele>71.6</ele><time>2026-04-18T09:16:51Z</time></trkpt><trkpt lat="43.51829090058086" lon="10.79027730314529"><ele>71.39999999999999</ele><time>2026-04-18T09:16:52Z</time></trkpt><trkpt lat="43.518190410150716" lon="10.790346045345125"><ele>71.2</ele><time>2026-04-18T09:16:53Z</time></trkpt><trkpt lat="43.51811199355901" lon="10.790393375554597"><ele>71.0</ele><time>2026-04-18T09:16:54Z</time></trkpt><trkpt lat="43.5180370713849" lon="10.790427293651348"><ele>71.0</ele><time>2026-04-18T09:16:55Z</time></trkpt><trkpt lat="43.51796055220234" lon="10.790451170083928"><ele>71.0</ele><time>2026-04-18T09:16:56Z</time></trkpt><trkpt lat="43.517868145580366" lon="10.790459746997016"><ele>71.0</ele><time>2026-04-18T09:16:57Z</time></trkpt><trkpt lat="43.51776782722098" lon="10.790457023032118"><ele>71.0</ele><time>2026-04-18T09:16:58Z</time></trkpt><trkpt lat="43.51766344816061" lon="10.790443605766827"><ele>71.0</ele><time>2026-04-18T09:16:59Z</time></trkpt><trkpt lat="43.51755598783357" lon="10.790427137735353"><ele>71.0</ele><time>2026-04-18T09:17:00Z</time></trkpt><trkpt lat="43.51744639085688" lon="10.790407129319622"><ele>71.0</ele><time>2026-04-18T09:17:01Z</time></trkpt><trkpt lat="43.517335699075744" lon="10.790389039488256"><ele>71.0</ele><time>2026-04-18T09:17:02Z</time></trkpt><trkpt lat="43.51722612134736" lon="10.79037182668898"><ele>71.0</ele><time>2026-04-18T09:17:03Z</time></trkpt><trkpt lat="43.517113775335076" lon="10.79035406645422"><ele>71.0</ele><time>2026-04-18T09:17:04Z</time></trkpt><trkpt lat="43.51699882355498" lon="10.790334745601534"><ele>71.5</ele><time>2026-04-18T09:17:05Z</time></trkpt><trkpt lat="43.51688059642701" lon="10.790314799547119"><ele>72.0</ele><time>2026-04-18T09:17:06Z</time></trkpt><trkpt lat="43.51676520115773" lon="10.790297194012867"><ele>72.5</ele><time>2026-04-18T09:17:07Z</time></trkpt><trkpt lat="43.51664729942557" lon="10.79028034108212"><ele>73.0</ele><time>2026-04-18T09:17:08Z</time></trkpt><trkpt lat="43.5165281056111" lon="10.790262352425785"><ele>73.0</ele><time>2026-04-18T09:17:09Z</time></trkpt><trkpt lat="43.516411415454336" lon="10.790245861270666"><ele>73.0</ele><time>2026-04-18T09:17:10Z</time></trkpt><trkpt lat="43.516293094239835" lon="10.79023061424298"><ele>73.0</ele><time>2026-04-18T09:17:11Z</time></trkpt><trkpt lat="43.51617403627205" lon="10.79020965780339"><ele>73.0</ele><time>2026-04-18T09:17:12Z</time></trkpt><trkpt lat="43.51605687214556" lon="10.790187184563699"><ele>72.75</ele><time>2026-04-18T09:17:13Z</time></trkpt><trkpt lat="43.51594148484234" lon="10.790165523479821"><ele>72.5</ele><time>2026-04-18T09:17:14Z</time></trkpt><trkpt lat="43.515825192133235" lon="10.79014613681735"><ele>72.25</ele><time>2026-04-18T09:17:15Z</time></trkpt><trkpt lat="43.515707539400076" lon="10.790129590092947"><ele>72.0</ele><time>2026-04-18T09:17:16Z</time></trkpt><trkpt lat="43.515587432008424" lon="10.790112898201881"><ele>72.0</ele><time>2026-04-18T09:17:17Z</time></trkpt><trkpt lat="43.51547138851624" lon="10.790096640267278"><ele>72.0</ele><time>2026-04-18T09:17:18Z</time></trkpt><trkpt lat="43.515358531493476" lon="10.790079986674092"><ele>72.0</ele><time>2026-04-18T09:17:19Z</time></trkpt><trkpt lat="43.51524902404751" lon="10.790063285232964"><ele>72.0</ele><time>2026-04-18T09:17:20Z</time></trkpt><trkpt lat="43.515142284334416" lon="10.790047951087669"><ele>72.0</ele><time>2026-04-18T09:17:21Z</time></trkpt><trkpt lat="43.515041445502995" lon="10.790032296403066"><ele>72.0</ele><time>2026-04-18T09:17:22Z</time></trkpt><trkpt lat="43.514944187012034" lon="10.790016581619241"><ele>72.0</ele><time>2026-04-18T09:17:23Z</time></trkpt><trkpt lat="43.51485425511532" lon="10.790002535052576"><ele>72.0</ele><time>2026-04-18T09:17:24Z</time></trkpt><trkpt lat="43.514775880679984" lon="10.789990016644586"><ele>72.0</ele><time>2026-04-18T09:17:25Z</time></trkpt><trkpt lat="43.51470998548806" lon="10.789979971868538"><ele>72.0</ele><time>2026-04-18T09:17:26Z</time></trkpt><trkpt lat="43.51459788523597" lon="10.789962070596893"><ele>72.0</ele><time>2026-04-18T09:17:28Z</time></trkpt><trkpt lat="43.51451902376457" lon="10.789962076322045"><ele>72.0</ele><time>2026-04-18T09:17:30Z</time></trkpt><trkpt lat="43.514451693618334" lon="10.789980362835225"><ele>72.0</ele><time>2026-04-18T09:17:34.001Z</time></trkpt><trkpt lat="43.51453354627149" lon="10.789986266195834"><ele>72.0</ele><time>2026-04-18T09:17:45.001Z</time></trkpt><trkpt lat="43.51459809046577" lon="10.789991882168419"><ele>72.0</ele><time>2026-04-18T09:17:47.001Z</time></trkpt><trkpt lat="43.51452602541905" lon="10.790110962687082"><ele>72.0</ele><time>2026-04-18T09:17:49.001Z</time></trkpt><trkpt lat="43.514732310143366" lon="10.790059022631178"><ele>71.85714285714286</ele><time>2026-04-18T09:17:50.001Z</time></trkpt><trkpt lat="43.51479647438911" lon="10.790065901276984"><ele>71.71428571428572</ele><time>2026-04-18T09:17:51.001Z</time></trkpt><trkpt lat="43.51486245542146" lon="10.790076927674953"><ele>71.57142857142857</ele><time>2026-04-18T09:17:52.001Z</time></trkpt><trkpt lat="43.514929150432934" lon="10.79008941882954"><ele>71.42857142857143</ele><time>2026-04-18T09:17:53.001Z</time></trkpt><trkpt lat="43.51499836611733" lon="10.790101356241241"><ele>71.28571428571428</ele><time>2026-04-18T09:17:54.001Z</time></trkpt><trkpt lat="43.51507195236415" lon="10.790112083550584"><ele>71.14285714285714</ele><time>2026-04-18T09:17:55.001Z</time></trkpt><trkpt lat="43.515150650264346" lon="10.790123904315177"><ele>71.0</ele><time>2026-04-18T09:17:56.001Z</time></trkpt><trkpt lat="43.51523580560096" lon="10.790135646840861"><ele>71.0</ele><time>2026-04-18T09:17:57.001Z</time></trkpt><trkpt lat="43.51532662916481" lon="10.790151253026007"><ele>71.0</ele><time>2026-04-18T09:17:58.001Z</time></trkpt><trkpt lat="43.51542138351117" lon="10.790166797369357"><ele>71.0</ele><time>2026-04-18T09:17:59.001Z</time></trkpt><trkpt lat="43.515522111739486" lon="10.790181099574271"><ele>71.0</ele><time>2026-04-18T09:18:00.001Z</time></trkpt><trkpt lat="43.515622882486696" lon="10.790194360496852"><ele>71.0</ele><time>2026-04-18T09:18:01.001Z</time></trkpt><trkpt lat="43.51572098023353" lon="10.790206613231925"><ele>71.0</ele><time>2026-04-18T09:18:02.001Z</time></trkpt><trkpt lat="43.515817902654256" lon="10.790220991748859"><ele>71.0</ele><time>2026-04-18T09:18:03.001Z</time></trkpt><trkpt lat="43.51591525587672" lon="10.790234824713073"><ele>71.0</ele><time>2026-04-18T09:18:04.001Z</time></trkpt><trkpt lat="43.51601318452988" lon="10.79025154864529"><ele>71.0</ele><time>2026-04-18T09:18:05.001Z</time></trkpt><trkpt lat="43.51611374563474" lon="10.79026622802854"><ele>71.0</ele><time>2026-04-18T09:18:06.001Z</time></trkpt><trkpt lat="43.51621529130351" lon="10.790281575572633"><ele>71.39999999999999</ele><time>2026-04-18T09:18:07.001Z</time></trkpt><trkpt lat="43.51631881581244" lon="10.790297355095905"><ele>71.8</ele><time>2026-04-18T09:18:08.001Z</time></trkpt><trkpt lat="43.516424420422666" lon="10.790313266902539"><ele>72.19999999999999</ele><time>2026-04-18T09:18:09.001Z</time></trkpt><trkpt lat="43.51653126628103" lon="10.790329013217091"><ele>72.6</ele><time>2026-04-18T09:18:10.001Z</time></trkpt><trkpt lat="43.51663996849844" lon="10.790347671899175"><ele>73.0</ele><time>2026-04-18T09:18:11.001Z</time></trkpt><trkpt lat="43.51674933363152" lon="10.79036730354016"><ele>73.0</ele><time>2026-04-18T09:18:12.001Z</time></trkpt><trkpt lat="43.51686153484111" lon="10.790385578966026"><ele>73.0</ele><time>2026-04-18T09:18:13.001Z</time></trkpt><trkpt lat="43.516975012667714" lon="10.790403369458756"><ele>73.0</ele><time>2026-04-18T09:18:14.001Z</time></trkpt><trkpt lat="43.51709067945115" lon="10.790421926469833"><ele>73.0</ele><time>2026-04-18T09:18:15.001Z</time></trkpt><trkpt lat="43.51720744566585" lon="10.790439269396698"><ele>72.5</ele><time>2026-04-18T09:18:16.001Z</time></trkpt><trkpt lat="43.51732407980016" lon="10.790456360070854"><ele>72.0</ele><time>2026-04-18T09:18:17.001Z</time></trkpt><trkpt lat="43.51744235230436" lon="10.790475459309961"><ele>71.5</ele><time>2026-04-18T09:18:18.001Z</time></trkpt><trkpt lat="43.51756038427119" lon="10.790494528963855"><ele>71.0</ele><time>2026-04-18T09:18:19.001Z</time></trkpt><trkpt lat="43.517676051098476" lon="10.790511338928315"><ele>71.0</ele><time>2026-04-18T09:18:20.001Z</time></trkpt><trkpt lat="43.517790258395706" lon="10.790520086566882"><ele>71.0</ele><time>2026-04-18T09:18:21.001Z</time></trkpt><trkpt lat="43.51790332871617" lon="10.79051896139109"><ele>71.0</ele><time>2026-04-18T09:18:22.001Z</time></trkpt><trkpt lat="43.51801719231044" lon="10.790498730385519"><ele>71.0</ele><time>2026-04-18T09:18:23.001Z</time></trkpt><trkpt lat="43.51813197590937" lon="10.790457320769173"><ele>71.0</ele><time>2026-04-18T09:18:24.001Z</time></trkpt><trkpt lat="43.518241980781355" lon="10.79039155925433"><ele>71.0</ele><time>2026-04-18T09:18:25.001Z</time></trkpt><trkpt lat="43.51835003751585" lon="10.790305263870934"><ele>71.0</ele><time>2026-04-18T09:18:26.001Z</time></trkpt><trkpt lat="43.51845443594079" lon="10.790205434404788"><ele>71.0</ele><time>2026-04-18T09:18:27.001Z</time></trkpt><trkpt lat="43.51855477884544" lon="10.790106832855345"><ele>71.25</ele><time>2026-04-18T09:18:28.001Z</time></trkpt><trkpt lat="43.51865166625325" lon="10.790009907907374"><ele>71.5</ele><time>2026-04-18T09:18:29.001Z</time></trkpt><trkpt lat="43.51874621858637" lon="10.789914614117214"><ele>71.75</ele><time>2026-04-18T09:18:30.001Z</time></trkpt><trkpt lat="43.5188398362305" lon="10.789818886616098"><ele>72.0</ele><time>2026-04-18T09:18:31.002Z</time></trkpt><trkpt lat="43.51893241440425" lon="10.789726039103458"><ele>72.0</ele><time>2026-04-18T09:18:32.002Z</time></trkpt><trkpt lat="43.51902562543965" lon="10.789629877795415"><ele>72.0</ele><time>2026-04-18T09:18:33.002Z</time></trkpt><trkpt lat="43.519120114204256" lon="10.789532438201642"><ele>72.0</ele><time>2026-04-18T09:18:34.002Z</time></trkpt><trkpt lat="43.51921560097355" lon="10.789439138646978"><ele>72.0</ele><time>2026-04-18T09:18:35.002Z</time></trkpt><trkpt lat="43.51931141838925" lon="10.78934281150239"><ele>72.0</ele><time>2026-04-18T09:18:36.002Z</time></trkpt><trkpt lat="43.51940638402838" lon="10.789241604559049"><ele>72.0</ele><time>2026-04-18T09:18:37.002Z</time></trkpt><trkpt lat="43.519497039595315" lon="10.789126532505684"><ele>72.0</ele><time>2026-04-18T09:18:38.002Z</time></trkpt><trkpt lat="43.51958189878044" lon="10.789003731151729"><ele>72.0</ele><time>2026-04-18T09:18:39.002Z</time></trkpt><trkpt lat="43.51966373904751" lon="10.788869446121693"><ele>71.75</ele><time>2026-04-18T09:18:40.002Z</time></trkpt><trkpt lat="43.51974047240481" lon="10.788726708491783"><ele>71.5</ele><time>2026-04-18T09:18:41.002Z</time></trkpt><trkpt lat="43.51981803414087" lon="10.78858313301604"><ele>71.25</ele><time>2026-04-18T09:18:42.002Z</time></trkpt><trkpt lat="43.51989505369366" lon="10.78843549346593"><ele>71.0</ele><time>2026-04-18T09:18:43.002Z</time></trkpt><trkpt lat="43.51997359838384" lon="10.788288041924524"><ele>71.0</ele><time>2026-04-18T09:18:44.002Z</time></trkpt><trkpt lat="43.52005446552893" lon="10.788137607068629"><ele>71.0</ele><time>2026-04-18T09:18:45.002Z</time></trkpt><trkpt lat="43.52013558587507" lon="10.787983479542515"><ele>71.0</ele><time>2026-04-18T09:18:46.002Z</time></trkpt><trkpt lat="43.5202165779869" lon="10.78783146986051"><ele>71.0</ele><time>2026-04-18T09:18:47.002Z</time></trkpt><trkpt lat="43.52029783984533" lon="10.787680677518505"><ele>71.0</ele><time>2026-04-18T09:18:48.002Z</time></trkpt><trkpt lat="43.520377602022414" lon="10.787527031864462"><ele>71.0</ele><time>2026-04-18T09:18:49Z</time></trkpt><trkpt lat="43.52045676808284" lon="10.787376668298707"><ele>71.0</ele><time>2026-04-18T09:18:50Z</time></trkpt><trkpt lat="43.52053620694915" lon="10.787229636184408"><ele>71.0</ele><time>2026-04-18T09:18:51Z</time></trkpt><trkpt lat="43.52061365407143" lon="10.787081012535628"><ele>70.5</ele><time>2026-04-18T09:18:52Z</time></trkpt><trkpt lat="43.52069257066228" lon="10.786932757821146"><ele>70.0</ele><time>2026-04-18T09:18:53Z</time></trkpt><trkpt lat="43.520771574394296" lon="10.78678547534733"><ele>69.5</ele><time>2026-04-18T09:18:54Z</time></trkpt><trkpt lat="43.5208491049815" lon="10.786637002922005"><ele>69.0</ele><time>2026-04-18T09:18:55Z</time></trkpt><trkpt lat="43.52092933915391" lon="10.78649006715006"><ele>69.0</ele><time>2026-04-18T09:18:56Z</time></trkpt><trkpt lat="43.521010021098924" lon="10.78634946069365"><ele>69.0</ele><time>2026-04-18T09:18:57Z</time></trkpt><trkpt lat="43.52109482044562" lon="10.786212002169439"><ele>69.0</ele><time>2026-04-18T09:18:58Z</time></trkpt><trkpt lat="43.521183504627984" lon="10.786086885759515"><ele>69.0</ele><time>2026-04-18T09:18:59Z</time></trkpt><trkpt lat="43.521277433511855" lon="10.785979255751176"><ele>68.5</ele><time>2026-04-18T09:19:00Z</time></trkpt><trkpt lat="43.52137741499628" lon="10.785888901648331"><ele>68.0</ele><time>2026-04-18T09:19:01Z</time></trkpt><trkpt lat="43.52148470487091" lon="10.785816832345544"><ele>67.5</ele><time>2026-04-18T09:19:02Z</time></trkpt><trkpt lat="43.521591072975596" lon="10.785756507944424"><ele>67.0</ele><time>2026-04-18T09:19:03Z</time></trkpt><trkpt lat="43.52170138671001" lon="10.785695722682263"><ele>67.0</ele><time>2026-04-18T09:19:04Z</time></trkpt><trkpt lat="43.52180937928547" lon="10.785629902536696"><ele>67.0</ele><time>2026-04-18T09:19:05Z</time></trkpt><trkpt lat="43.521914850457335" lon="10.785566400592888"><ele>67.0</ele><time>2026-04-18T09:19:06Z</time></trkpt><trkpt lat="43.52200969729027" lon="10.78550487471963"><ele>67.0</ele><time>2026-04-18T09:19:07Z</time></trkpt><trkpt lat="43.522095002013664" lon="10.785451484653839"><ele>67.0</ele><time>2026-04-18T09:19:08Z</time></trkpt><trkpt lat="43.522166262655645" lon="10.785407108293773"><ele>67.4</ele><time>2026-04-18T09:19:09Z</time></trkpt><trkpt lat="43.52229635224862" lon="10.785338681945738"><ele>67.80000000000001</ele><time>2026-04-18T09:19:12Z</time></trkpt><trkpt lat="43.522366618386094" lon="10.785306988645324"><ele>68.2</ele><time>2026-04-18T09:19:17Z</time></trkpt><trkpt lat="43.52242552633182" lon="10.785454628600803"><ele>68.60000000000001</ele><time>2026-04-18T09:19:21Z</time></trkpt><trkpt lat="43.52248830408976" lon="10.785549988224297"><ele>69.0</ele><time>2026-04-18T09:19:24Z</time></trkpt><trkpt lat="43.522541446317426" lon="10.785648673355183"><ele>69.0</ele><time>2026-04-18T09:19:27Z</time></trkpt><trkpt lat="43.522544438507694" lon="10.785782394814515"><ele>69.0</ele><time>2026-04-18T09:19:30Z</time></trkpt><trkpt lat="43.522549263684105" lon="10.785893542282917"><ele>69.0</ele><time>2026-04-18T09:19:32Z</time></trkpt><trkpt lat="43.52255240616306" lon="10.786002327578833"><ele>69.0</ele><time>2026-04-18T09:19:34Z</time></trkpt><trkpt lat="43.5225543827889" lon="10.786108379537106"><ele>69.0</ele><time>2026-04-18T09:19:36Z</time></trkpt><trkpt lat="43.522564757435305" lon="10.78623451473712"><ele>69.0</ele><time>2026-04-18T09:19:38.001Z</time></trkpt><trkpt lat="43.52256928300199" lon="10.786377032342834"><ele>69.2</ele><time>2026-04-18T09:19:40.001Z</time></trkpt><trkpt lat="43.52257723956059" lon="10.78652154235001"><ele>69.4</ele><time>2026-04-18T09:19:42.001Z</time></trkpt><trkpt lat="43.52258967390431" lon="10.786683335095768"><ele>69.6</ele><time>2026-04-18T09:19:44.001Z</time></trkpt><trkpt lat="43.522599038019614" lon="10.786773193932904"><ele>69.8</ele><time>2026-04-18T09:19:45.001Z</time></trkpt><trkpt lat="43.52261947554732" lon="10.786943945218296"><ele>70.0</ele><time>2026-04-18T09:19:47.001Z</time></trkpt><trkpt lat="43.522631626609055" lon="10.787032350678283"><ele>70.33333333333333</ele><time>2026-04-18T09:19:48.001Z</time></trkpt><trkpt lat="43.52264630673379" lon="10.787117682503524"><ele>70.66666666666666</ele><time>2026-04-18T09:19:49.001Z</time></trkpt><trkpt lat="43.5226597628448" lon="10.787209616283649"><ele>71.0</ele><time>2026-04-18T09:19:50.001Z</time></trkpt><trkpt lat="43.52267507998633" lon="10.787301217736392"><ele>71.33333333333333</ele><time>2026-04-18T09:19:51.001Z</time></trkpt><trkpt lat="43.522691234396845" lon="10.787393004945194"><ele>71.66666666666667</ele><time>2026-04-18T09:19:52.001Z</time></trkpt><trkpt lat="43.52271599088565" lon="10.787564795792141"><ele>72.0</ele><time>2026-04-18T09:19:54.001Z</time></trkpt><trkpt lat="43.52273816906696" lon="10.787735145397265"><ele>72.5</ele><time>2026-04-18T09:19:56.001Z</time></trkpt><trkpt lat="43.52275990361643" lon="10.787899809871393"><ele>73.0</ele><time>2026-04-18T09:19:58.001Z</time></trkpt><trkpt lat="43.52278136609282" lon="10.78806561623709"><ele>73.5</ele><time>2026-04-18T09:20:00.001Z</time></trkpt><trkpt lat="43.52280615375918" lon="10.788224869904331"><ele>74.0</ele><time>2026-04-18T09:20:02.001Z</time></trkpt><trkpt lat="43.52282821221762" lon="10.788381923954672"><ele>75.5</ele><time>2026-04-18T09:20:04.001Z</time></trkpt><trkpt lat="43.522851604742264" lon="10.78853884958832"><ele>77.0</ele><time>2026-04-18T09:20:06.001Z</time></trkpt><trkpt lat="43.522870940745236" lon="10.78869364700049"><ele>78.5</ele><time>2026-04-18T09:20:08.001Z</time></trkpt><trkpt lat="43.52289584587327" lon="10.788854110883193"><ele>80.0</ele><time>2026-04-18T09:20:10.001Z</time></trkpt><trkpt lat="43.522918689235496" lon="10.789023963899378"><ele>81.0</ele><time>2026-04-18T09:20:12.001Z</time></trkpt><trkpt lat="43.52294429298625" lon="10.789188679052145"><ele>82.0</ele><time>2026-04-18T09:20:14.001Z</time></trkpt><trkpt lat="43.52296288067171" lon="10.78935557581509"><ele>83.0</ele><time>2026-04-18T09:20:16.001Z</time></trkpt><trkpt lat="43.52299102702225" lon="10.789518711482014"><ele>84.0</ele><time>2026-04-18T09:20:18.001Z</time></trkpt><trkpt lat="43.52301657010178" lon="10.789675809446631"><ele>85.2</ele><time>2026-04-18T09:20:20.001Z</time></trkpt><trkpt lat="43.52304794989052" lon="10.789824002163646"><ele>86.4</ele><time>2026-04-18T09:20:22.001Z</time></trkpt><trkpt lat="43.52307712935527" lon="10.78994364195952"><ele>87.6</ele><time>2026-04-18T09:20:24.001Z</time></trkpt><trkpt lat="43.52310430632572" lon="10.79005384971298"><ele>88.8</ele><time>2026-04-18T09:20:26.001Z</time></trkpt><trkpt lat="43.523122945744696" lon="10.790185232600713"><ele>90.0</ele><time>2026-04-18T09:20:28.001Z</time></trkpt><trkpt lat="43.52314155815392" lon="10.790350410218815"><ele>91.0</ele><time>2026-04-18T09:20:30.001Z</time></trkpt><trkpt lat="43.52315771415418" lon="10.790444935597233"><ele>92.0</ele><time>2026-04-18T09:20:31.001Z</time></trkpt><trkpt lat="43.523155727450394" lon="10.790538787824218"><ele>93.0</ele><time>2026-04-18T09:20:32.001Z</time></trkpt><trkpt lat="43.52316615004712" lon="10.790630955405101"><ele>94.0</ele><time>2026-04-18T09:20:33.001Z</time></trkpt><trkpt lat="43.52317779973722" lon="10.790723345139881"><ele>95.0</ele><time>2026-04-18T09:20:34.002Z</time></trkpt><trkpt lat="43.52319351647911" lon="10.790824355063165"><ele>96.0</ele><time>2026-04-18T09:20:35.002Z</time></trkpt><trkpt lat="43.52321310291736" lon="10.790921573160531"><ele>97.0</ele><time>2026-04-18T09:20:36.002Z</time></trkpt><trkpt lat="43.5232525962585" lon="10.791004093052193"><ele>96.19999999999999</ele><time>2026-04-18T09:20:37.002Z</time></trkpt><trkpt lat="43.523316143968934" lon="10.791135073998344"><ele>95.4</ele><time>2026-04-18T09:20:39.002Z</time></trkpt><trkpt lat="43.5233851181223" lon="10.791223066834178"><ele>94.6</ele><time>2026-04-18T09:20:41.002Z</time></trkpt><trkpt lat="43.52342857899025" lon="10.791319268717649"><ele>93.80000000000001</ele><time>2026-04-18T09:20:43.002Z</time></trkpt><trkpt lat="43.523490828449106" lon="10.79142256157334"><ele>93.0</ele><time>2026-04-18T09:20:45.002Z</time></trkpt><trkpt lat="43.523545639212266" lon="10.791520523631172"><ele>93.0</ele><time>2026-04-18T09:20:47.002Z</time></trkpt><trkpt lat="43.52361048453891" lon="10.791639328052831"><ele>93.0</ele><time>2026-04-18T09:20:49.002Z</time></trkpt><trkpt lat="43.52367748555503" lon="10.791772687632806"><ele>93.0</ele><time>2026-04-18T09:20:51.002Z</time></trkpt><trkpt lat="43.52368871703755" lon="10.791861427661832"><ele>93.0</ele><time>2026-04-18T09:20:52.002Z</time></trkpt><trkpt lat="43.52369311707246" lon="10.792006265397523"><ele>93.0</ele><time>2026-04-18T09:20:54.002Z</time></trkpt><trkpt lat="43.523684955173714" lon="10.792163061445105"><ele>93.0</ele><time>2026-04-18T09:20:55.999Z</time></trkpt><trkpt lat="43.523648247933274" lon="10.792313240557986"><ele>93.0</ele><time>2026-04-18T09:20:57.999Z</time></trkpt><trkpt lat="43.523610613316066" lon="10.792470377229439"><ele>93.0</ele><time>2026-04-18T09:20:59.999Z</time></trkpt><trkpt lat="43.52360157944441" lon="10.792556594729195"><ele>93.0</ele><time>2026-04-18T09:21:00.999Z</time></trkpt><trkpt lat="43.52357534951876" lon="10.792642998279627"><ele>93.0</ele><time>2026-04-18T09:21:01.999Z</time></trkpt><trkpt lat="43.523533613436996" lon="10.792724845779034"><ele>93.0</ele><time>2026-04-18T09:21:02.999Z</time></trkpt><trkpt lat="43.52351360816987" lon="10.792819783850325"><ele>93.42857142857143</ele><time>2026-04-18T09:21:03.999Z</time></trkpt><trkpt lat="43.523503428822146" lon="10.792919217345622"><ele>93.85714285714286</ele><time>2026-04-18T09:21:05Z</time></trkpt><trkpt lat="43.52351238062937" lon="10.793016494663346"><ele>94.28571428571428</ele><time>2026-04-18T09:21:06Z</time></trkpt><trkpt lat="43.52350253080124" lon="10.79310340311066"><ele>94.71428571428572</ele><time>2026-04-18T09:21:07Z</time></trkpt><trkpt lat="43.523496968950965" lon="10.793197656972"><ele>95.14285714285714</ele><time>2026-04-18T09:21:08Z</time></trkpt><trkpt lat="43.52349540789232" lon="10.793297634786828"><ele>95.57142857142857</ele><time>2026-04-18T09:21:09Z</time></trkpt><trkpt lat="43.52349547065892" lon="10.793400368159084"><ele>96.0</ele><time>2026-04-18T09:21:10Z</time></trkpt><trkpt lat="43.52349900721429" lon="10.793498747762866"><ele>96.0</ele><time>2026-04-18T09:21:11Z</time></trkpt><trkpt lat="43.52350409777288" lon="10.793606136767334"><ele>96.0</ele><time>2026-04-18T09:21:12Z</time></trkpt><trkpt lat="43.523507474822345" lon="10.793712128016892"><ele>96.0</ele><time>2026-04-18T09:21:13Z</time></trkpt><trkpt lat="43.523509729604264" lon="10.793820144407869"><ele>96.0</ele><time>2026-04-18T09:21:14Z</time></trkpt><trkpt lat="43.5235087618686" lon="10.7939322585664"><ele>96.0</ele><time>2026-04-18T09:21:15Z</time></trkpt><trkpt lat="43.523503365107594" lon="10.794051980782836"><ele>96.0</ele><time>2026-04-18T09:21:16Z</time></trkpt><trkpt lat="43.52349715496482" lon="10.79417742652183"><ele>96.0</ele><time>2026-04-18T09:21:17Z</time></trkpt><trkpt lat="43.52349117033306" lon="10.794299337784961"><ele>96.0</ele><time>2026-04-18T09:21:18Z</time></trkpt><trkpt lat="43.523482971488434" lon="10.794428785765884"><ele>96.0</ele><time>2026-04-18T09:21:19Z</time></trkpt><trkpt lat="43.52347384411319" lon="10.794551883082764"><ele>96.0</ele><time>2026-04-18T09:21:20Z</time></trkpt><trkpt lat="43.52345676746398" lon="10.79467705336303"><ele>96.0</ele><time>2026-04-18T09:21:21Z</time></trkpt><trkpt lat="43.523446467560454" lon="10.794799650584986"><ele>96.0</ele><time>2026-04-18T09:21:22Z</time></trkpt><trkpt lat="43.52344050662497" lon="10.79491456037262"><ele>96.0</ele><time>2026-04-18T09:21:23Z</time></trkpt><trkpt lat="43.52344323190544" lon="10.795021400733427"><ele>96.0</ele><time>2026-04-18T09:21:24Z</time></trkpt><trkpt lat="43.52345148001659" lon="10.795126997610511"><ele>96.0</ele><time>2026-04-18T09:21:25Z</time></trkpt><trkpt lat="43.5234664741109" lon="10.79523668985627"><ele>96.0</ele><time>2026-04-18T09:21:26Z</time></trkpt><trkpt lat="43.52348950151352" lon="10.795356100336633"><ele>96.0</ele><time>2026-04-18T09:21:27Z</time></trkpt><trkpt lat="43.523514684854284" lon="10.795481839070394"><ele>95.19999999999999</ele><time>2026-04-18T09:21:28Z</time></trkpt><trkpt lat="43.52354374624124" lon="10.79560579121454"><ele>94.39999999999999</ele><time>2026-04-18T09:21:29Z</time></trkpt><trkpt lat="43.5235777128332" lon="10.795728216776864"><ele>93.6</ele><time>2026-04-18T09:21:30Z</time></trkpt><trkpt lat="43.523613610949624" lon="10.795849806701169"><ele>92.8</ele><time>2026-04-18T09:21:31Z</time></trkpt><trkpt lat="43.523653184253774" lon="10.79596111040823"><ele>92.0</ele><time>2026-04-18T09:21:32Z</time></trkpt><trkpt lat="43.52369773403561" lon="10.796069606799975"><ele>92.6</ele><time>2026-04-18T09:21:33Z</time></trkpt><trkpt lat="43.52374538638505" lon="10.796185081244937"><ele>93.19999999999999</ele><time>2026-04-18T09:21:34Z</time></trkpt><trkpt lat="43.52378695654858" lon="10.796299573726555"><ele>93.8</ele><time>2026-04-18T09:21:35Z</time></trkpt><trkpt lat="43.52382974069521" lon="10.79642615128886"><ele>94.4</ele><time>2026-04-18T09:21:36Z</time></trkpt><trkpt lat="43.52386517423182" lon="10.796556942448197"><ele>95.0</ele><time>2026-04-18T09:21:37Z</time></trkpt><trkpt lat="43.523895801861954" lon="10.796689884882307"><ele>95.0</ele><time>2026-04-18T09:21:38Z</time></trkpt><trkpt lat="43.52392183766744" lon="10.796818809355576"><ele>95.0</ele><time>2026-04-18T09:21:39Z</time></trkpt><trkpt lat="43.52394463404623" lon="10.79695093495567"><ele>95.0</ele><time>2026-04-18T09:21:40Z</time></trkpt><trkpt lat="43.52396201498261" lon="10.797082574645316"><ele>95.0</ele><time>2026-04-18T09:21:41Z</time></trkpt><trkpt lat="43.52397545366394" lon="10.797212223701061"><ele>95.0</ele><time>2026-04-18T09:21:42Z</time></trkpt><trkpt lat="43.523988327201806" lon="10.797344255288419"><ele>94.8</ele><time>2026-04-18T09:21:43Z</time></trkpt><trkpt lat="43.52399757001059" lon="10.79747577079741"><ele>94.6</ele><time>2026-04-18T09:21:44Z</time></trkpt><trkpt lat="43.52400714879388" lon="10.797610542171043"><ele>94.4</ele><time>2026-04-18T09:21:45.001Z</time></trkpt><trkpt lat="43.524014777153944" lon="10.797742239986906"><ele>94.2</ele><time>2026-04-18T09:21:46.001Z</time></trkpt><trkpt lat="43.52402426646453" lon="10.797873470997967"><ele>94.0</ele><time>2026-04-18T09:21:47.001Z</time></trkpt><trkpt lat="43.52403383646423" lon="10.797999543106762"><ele>94.66666666666666</ele><time>2026-04-18T09:21:48.001Z</time></trkpt><trkpt lat="43.52404074503622" lon="10.798122037590327"><ele>95.33333333333333</ele><time>2026-04-18T09:21:49.001Z</time></trkpt><trkpt lat="43.52405152537222" lon="10.798242312981511"><ele>96.0</ele><time>2026-04-18T09:21:50.001Z</time></trkpt><trkpt lat="43.5240643952854" lon="10.798355678969715"><ele>96.66666666666666</ele><time>2026-04-18T09:21:51.001Z</time></trkpt><trkpt lat="43.524084861090344" lon="10.798477768164874"><ele>97.33333333333333</ele><time>2026-04-18T09:21:52.001Z</time></trkpt><trkpt lat="43.52410787858161" lon="10.798588775601642"><ele>98.0</ele><time>2026-04-18T09:21:53.001Z</time></trkpt><trkpt lat="43.52412999844559" lon="10.798699766631104"><ele>98.49999999999999</ele><time>2026-04-18T09:21:54.001Z</time></trkpt><trkpt lat="43.524151161275725" lon="10.798816897625283"><ele>99.0</ele><time>2026-04-18T09:21:55.001Z</time></trkpt><trkpt lat="43.524168596790155" lon="10.798927752556914"><ele>99.5</ele><time>2026-04-18T09:21:56.001Z</time></trkpt><trkpt lat="43.5241845586851" lon="10.799041633163181"><ele>100.0</ele><time>2026-04-18T09:21:57.001Z</time></trkpt><trkpt lat="43.524202653881424" lon="10.79915427552462"><ele>100.49999999999999</ele><time>2026-04-18T09:21:58.001Z</time></trkpt><trkpt lat="43.52421962724571" lon="10.799272529007848"><ele>101.0</ele><time>2026-04-18T09:21:59.001Z</time></trkpt><trkpt lat="43.52423156000586" lon="10.799391529471292"><ele>101.33333333333333</ele><time>2026-04-18T09:22:00.001Z</time></trkpt><trkpt lat="43.52423950516105" lon="10.799515324891994"><ele>101.66666666666666</ele><time>2026-04-18T09:22:01.001Z</time></trkpt><trkpt lat="43.52423972297689" lon="10.799636308794407"><ele>102.0</ele><time>2026-04-18T09:22:02.001Z</time></trkpt><trkpt lat="43.52423481563899" lon="10.799758483777154"><ele>102.33333333333334</ele><time>2026-04-18T09:22:03.001Z</time></trkpt><trkpt lat="43.524220901720604" lon="10.799877389140166"><ele>102.66666666666667</ele><time>2026-04-18T09:22:04.001Z</time></trkpt><trkpt lat="43.524205232072994" lon="10.79999464766405"><ele>103.0</ele><time>2026-04-18T09:22:05.001Z</time></trkpt><trkpt lat="43.52418878907781" lon="10.800108127390374"><ele>102.50000000000001</ele><time>2026-04-18T09:22:06.001Z</time></trkpt><trkpt lat="43.5241746215304" lon="10.800224501850103"><ele>102.0</ele><time>2026-04-18T09:22:07.001Z</time></trkpt><trkpt lat="43.524166359224424" lon="10.80032966374656"><ele>101.5</ele><time>2026-04-18T09:22:08.001Z</time></trkpt><trkpt lat="43.52416042779789" lon="10.800440207900206"><ele>101.0</ele><time>2026-04-18T09:22:09.001Z</time></trkpt><trkpt lat="43.52415703437762" lon="10.80055115787982"><ele>100.50000000000001</ele><time>2026-04-18T09:22:10.001Z</time></trkpt><trkpt lat="43.52415236028619" lon="10.800669551872177"><ele>100.0</ele><time>2026-04-18T09:22:11.001Z</time></trkpt><trkpt lat="43.5241446483288" lon="10.800788024729918"><ele>100.0</ele><time>2026-04-18T09:22:12.001Z</time></trkpt><trkpt lat="43.52413356286565" lon="10.800907838804216"><ele>100.0</ele><time>2026-04-18T09:22:13.001Z</time></trkpt><trkpt lat="43.524114242067476" lon="10.80103387834581"><ele>100.0</ele><time>2026-04-18T09:22:14.001Z</time></trkpt><trkpt lat="43.52408189541371" lon="10.801155344479394"><ele>100.0</ele><time>2026-04-18T09:22:15.001Z</time></trkpt><trkpt lat="43.52403738743975" lon="10.801285132532236"><ele>100.0</ele><time>2026-04-18T09:22:16.001Z</time></trkpt><trkpt lat="43.523987029560914" lon="10.801409291781143"><ele>100.6</ele><time>2026-04-18T09:22:17.001Z</time></trkpt><trkpt lat="43.52393542795097" lon="10.80153910295218"><ele>101.2</ele><time>2026-04-18T09:22:18.001Z</time></trkpt><trkpt lat="43.523891564417944" lon="10.80166361051845"><ele>101.80000000000001</ele><time>2026-04-18T09:22:19.001Z</time></trkpt><trkpt lat="43.52383455005246" lon="10.801781837147681"><ele>102.4</ele><time>2026-04-18T09:22:20.001Z</time></trkpt><trkpt lat="43.52376443492717" lon="10.801898155863867"><ele>103.0</ele><time>2026-04-18T09:22:21.001Z</time></trkpt><trkpt lat="43.52367288445405" lon="10.801972791469591"><ele>103.0</ele><time>2026-04-18T09:22:22.001Z</time></trkpt><trkpt lat="43.52357356310032" lon="10.802041963853043"><ele>103.0</ele><time>2026-04-18T09:22:23.001Z</time></trkpt><trkpt lat="43.52347475441524" lon="10.80210887833827"><ele>103.0</ele><time>2026-04-18T09:22:24.001Z</time></trkpt><trkpt lat="43.52338817111283" lon="10.802189991460464"><ele>103.0</ele><time>2026-04-18T09:22:25.001Z</time></trkpt><trkpt lat="43.52329883932368" lon="10.802252155475168"><ele>103.0</ele><time>2026-04-18T09:22:26.001Z</time></trkpt><trkpt lat="43.52321569998222" lon="10.802317757608863"><ele>103.0</ele><time>2026-04-18T09:22:27.001Z</time></trkpt><trkpt lat="43.52313966244009" lon="10.802392231089058"><ele>103.0</ele><time>2026-04-18T09:22:28.001Z</time></trkpt><trkpt lat="43.52308157997712" lon="10.802481431308241"><ele>103.0</ele><time>2026-04-18T09:22:29.001Z</time></trkpt><trkpt lat="43.52303112434979" lon="10.80259412089996"><ele>103.0</ele><time>2026-04-18T09:22:30.001Z</time></trkpt><trkpt lat="43.52298970630052" lon="10.802751964945028"><ele>103.0</ele><time>2026-04-18T09:22:31.001Z</time></trkpt><trkpt lat="43.522969092718334" lon="10.802911741968854"><ele>103.50000000000001</ele><time>2026-04-18T09:22:32.001Z</time></trkpt><trkpt lat="43.522944952349924" lon="10.80304816819751"><ele>104.0</ele><time>2026-04-18T09:22:33.001Z</time></trkpt><trkpt lat="43.52292836369371" lon="10.803160524089394"><ele>104.5</ele><time>2026-04-18T09:22:34.001Z</time></trkpt><trkpt lat="43.522918699390104" lon="10.803267651159397"><ele>105.0</ele><time>2026-04-18T09:22:35.002Z</time></trkpt><trkpt lat="43.52291247412204" lon="10.80337962375455"><ele>105.50000000000001</ele><time>2026-04-18T09:22:36.002Z</time></trkpt><trkpt lat="43.52291281271289" lon="10.803474181445948"><ele>106.0</ele><time>2026-04-18T09:22:37.002Z</time></trkpt><trkpt lat="43.522917872177494" lon="10.803572916824969"><ele>106.00000000000001</ele><time>2026-04-18T09:22:38.002Z</time></trkpt><trkpt lat="43.52293228438427" lon="10.803666816150898"><ele>106.0</ele><time>2026-04-18T09:22:39.002Z</time></trkpt><trkpt lat="43.522957661313455" lon="10.803767491716076"><ele>106.0</ele><time>2026-04-18T09:22:40.002Z</time></trkpt><trkpt lat="43.522991454782264" lon="10.803856871069826"><ele>106.0</ele><time>2026-04-18T09:22:41.002Z</time></trkpt><trkpt lat="43.52303208565804" lon="10.803941040564487"><ele>106.00000000000001</ele><time>2026-04-18T09:22:42.002Z</time></trkpt><trkpt lat="43.52307367961379" lon="10.80403303604561"><ele>106.0</ele><time>2026-04-18T09:22:43.002Z</time></trkpt><trkpt lat="43.52312769782101" lon="10.804125737339463"><ele>106.00000000000001</ele><time>2026-04-18T09:22:44.002Z</time></trkpt><trkpt lat="43.52317935392513" lon="10.804227751353116"><ele>106.0</ele><time>2026-04-18T09:22:45.002Z</time></trkpt><trkpt lat="43.52323098196738" lon="10.804336346922446"><ele>106.0</ele><time>2026-04-18T09:22:46.002Z</time></trkpt><trkpt lat="43.523273844493836" lon="10.804445065918335"><ele>106.0</ele><time>2026-04-18T09:22:47.002Z</time></trkpt><trkpt lat="43.52331218769454" lon="10.80454986105873"><ele>106.00000000000001</ele><time>2026-04-18T09:22:48.002Z</time></trkpt><trkpt lat="43.52335533369606" lon="10.804645763101583"><ele>106.0</ele><time>2026-04-18T09:22:49.002Z</time></trkpt><trkpt lat="43.5233955587846" lon="10.804753410579737"><ele>104.8</ele><time>2026-04-18T09:22:50.002Z</time></trkpt><trkpt lat="43.52344183747459" lon="10.804849554313279"><ele>103.6</ele><time>2026-04-18T09:22:51.002Z</time></trkpt><trkpt lat="43.523491105539215" lon="10.804956333732122"><ele>102.4</ele><time>2026-04-18T09:22:52.002Z</time></trkpt><trkpt lat="43.52354136344288" lon="10.805067557882449"><ele>101.2</ele><time>2026-04-18T09:22:53.002Z</time></trkpt><trkpt lat="43.523590628423776" lon="10.805190225401324"><ele>100.0</ele><time>2026-04-18T09:22:54.002Z</time></trkpt><trkpt lat="43.523625280271574" lon="10.805320062006798"><ele>99.8</ele><time>2026-04-18T09:22:55.002Z</time></trkpt><trkpt lat="43.52364903904531" lon="10.805451212860856"><ele>99.6</ele><time>2026-04-18T09:22:56.002Z</time></trkpt><trkpt lat="43.52366416758293" lon="10.805590007574057"><ele>99.4</ele><time>2026-04-18T09:22:57.002Z</time></trkpt><trkpt lat="43.523687019260244" lon="10.805713174935773"><ele>99.2</ele><time>2026-04-18T09:22:58.002Z</time></trkpt><trkpt lat="43.52370532651558" lon="10.805837171587964"><ele>99.0</ele><time>2026-04-18T09:22:59.002Z</time></trkpt><trkpt lat="43.52373031206369" lon="10.805938612058172"><ele>98.5</ele><time>2026-04-18T09:23:00.002Z</time></trkpt><trkpt lat="43.52376307714829" lon="10.806054900411189"><ele>98.0</ele><time>2026-04-18T09:23:01Z</time></trkpt><trkpt lat="43.523782921360805" lon="10.806165534612783"><ele>97.5</ele><time>2026-04-18T09:23:02Z</time></trkpt><trkpt lat="43.523794973283984" lon="10.806273751467089"><ele>97.0</ele><time>2026-04-18T09:23:03Z</time></trkpt><trkpt lat="43.52379762339128" lon="10.806394507707836"><ele>96.5</ele><time>2026-04-18T09:23:04Z</time></trkpt><trkpt lat="43.523790111744106" lon="10.80650901904767"><ele>96.0</ele><time>2026-04-18T09:23:05Z</time></trkpt><trkpt lat="43.5237732801265" lon="10.806613744652973"><ele>96.0</ele><time>2026-04-18T09:23:06Z</time></trkpt><trkpt lat="43.52375303330366" lon="10.806722733550966"><ele>96.0</ele><time>2026-04-18T09:23:07Z</time></trkpt><trkpt lat="43.523728739887616" lon="10.806839443529364"><ele>96.0</ele><time>2026-04-18T09:23:08Z</time></trkpt><trkpt lat="43.52371147916317" lon="10.806958184871263"><ele>96.0</ele><time>2026-04-18T09:23:09Z</time></trkpt><trkpt lat="43.523716785300934" lon="10.807071602763113"><ele>96.0</ele><time>2026-04-18T09:23:10Z</time></trkpt><trkpt lat="43.52372053912848" lon="10.807190587876692"><ele>96.0</ele><time>2026-04-18T09:23:11Z</time></trkpt><trkpt lat="43.52373359561671" lon="10.80730573754553"><ele>96.0</ele><time>2026-04-18T09:23:12Z</time></trkpt><trkpt lat="43.52375423493211" lon="10.807425040944237"><ele>96.0</ele><time>2026-04-18T09:23:13Z</time></trkpt><trkpt lat="43.52378416295915" lon="10.807542110093584"><ele>96.0</ele><time>2026-04-18T09:23:14Z</time></trkpt><trkpt lat="43.52381592495532" lon="10.807660971991337"><ele>96.0</ele><time>2026-04-18T09:23:15Z</time></trkpt><trkpt lat="43.52385504143703" lon="10.807777808276903"><ele>96.0</ele><time>2026-04-18T09:23:16Z</time></trkpt><trkpt lat="43.52390171340079" lon="10.80788766500999"><ele>96.0</ele><time>2026-04-18T09:23:17Z</time></trkpt><trkpt lat="43.523947393668486" lon="10.808000952492518"><ele>96.0</ele><time>2026-04-18T09:23:18Z</time></trkpt><trkpt lat="43.52399822513155" lon="10.80810848402707"><ele>96.0</ele><time>2026-04-18T09:23:19Z</time></trkpt><trkpt lat="43.52403466915951" lon="10.808232615562199"><ele>96.0</ele><time>2026-04-18T09:23:20Z</time></trkpt><trkpt lat="43.52406748118998" lon="10.808353196581939"><ele>96.0</ele><time>2026-04-18T09:23:21Z</time></trkpt><trkpt lat="43.52407982468293" lon="10.80848342784871"><ele>96.66666666666667</ele><time>2026-04-18T09:23:22Z</time></trkpt><trkpt lat="43.52408242341821" lon="10.808609458435843"><ele>97.33333333333334</ele><time>2026-04-18T09:23:23Z</time></trkpt><trkpt lat="43.52407474489312" lon="10.80873052466465"><ele>98.0</ele><time>2026-04-18T09:23:24Z</time></trkpt><trkpt lat="43.524061490274654" lon="10.808849525558381"><ele>98.66666666666667</ele><time>2026-04-18T09:23:25Z</time></trkpt><trkpt lat="43.52404919656676" lon="10.808956494265455"><ele>99.33333333333334</ele><time>2026-04-18T09:23:26Z</time></trkpt><trkpt lat="43.524042435866384" lon="10.80906018762712"><ele>100.0</ele><time>2026-04-18T09:23:27Z</time></trkpt><trkpt lat="43.524035769059196" lon="10.809163190847961"><ele>100.00000000000001</ele><time>2026-04-18T09:23:28Z</time></trkpt><trkpt lat="43.52403072807492" lon="10.809267035624911"><ele>100.0</ele><time>2026-04-18T09:23:29Z</time></trkpt><trkpt lat="43.52403530724413" lon="10.809372189664707"><ele>100.0</ele><time>2026-04-18T09:23:30Z</time></trkpt><trkpt lat="43.52404508873836" lon="10.809466413300957"><ele>100.0</ele><time>2026-04-18T09:23:31Z</time></trkpt><trkpt lat="43.524058835581435" lon="10.809575658153522"><ele>100.00000000000001</ele><time>2026-04-18T09:23:32Z</time></trkpt><trkpt lat="43.52407390227772" lon="10.809683461992154"><ele>100.0</ele><time>2026-04-18T09:23:33Z</time></trkpt><trkpt lat="43.52409447627704" lon="10.809798343429184"><ele>100.6</ele><time>2026-04-18T09:23:34Z</time></trkpt><trkpt lat="43.52411274324441" lon="10.809923095670694"><ele>101.2</ele><time>2026-04-18T09:23:35Z</time></trkpt><trkpt lat="43.524123482215444" lon="10.81005325733455"><ele>101.80000000000001</ele><time>2026-04-18T09:23:36Z</time></trkpt><trkpt lat="43.52412233011563" lon="10.810183533845636"><ele>102.4</ele><time>2026-04-18T09:23:37Z</time></trkpt><trkpt lat="43.524108380987485" lon="10.81031905986135"><ele>103.0</ele><time>2026-04-18T09:23:38Z</time></trkpt><trkpt lat="43.52407080988565" lon="10.810445466898287"><ele>103.16666666666667</ele><time>2026-04-18T09:23:39Z</time></trkpt><trkpt lat="43.524055423290044" lon="10.81056789192561"><ele>103.33333333333334</ele><time>2026-04-18T09:23:40Z</time></trkpt><trkpt lat="43.52402490995503" lon="10.810685278836173"><ele>103.5</ele><time>2026-04-18T09:23:41.001Z</time></trkpt><trkpt lat="43.523997936058684" lon="10.810798463207492"><ele>103.66666666666666</ele><time>2026-04-18T09:23:42.001Z</time></trkpt><trkpt lat="43.523984315144745" lon="10.810905810922295"><ele>103.83333333333333</ele><time>2026-04-18T09:23:43.001Z</time></trkpt><trkpt lat="43.523974603207" lon="10.811018532837199"><ele>104.0</ele><time>2026-04-18T09:23:44.001Z</time></trkpt><trkpt lat="43.523959278147686" lon="10.811142654513663"><ele>103.66666666666666</ele><time>2026-04-18T09:23:45.001Z</time></trkpt><trkpt lat="43.52394423845885" lon="10.81125557779405"><ele>103.33333333333333</ele><time>2026-04-18T09:23:46.001Z</time></trkpt><trkpt lat="43.52391571802395" lon="10.811369396616756"><ele>103.0</ele><time>2026-04-18T09:23:47.001Z</time></trkpt><trkpt lat="43.523878460545625" lon="10.811479639620552"><ele>102.66666666666666</ele><time>2026-04-18T09:23:48.001Z</time></trkpt><trkpt lat="43.523817582052345" lon="10.811559411155148"><ele>102.33333333333333</ele><time>2026-04-18T09:23:49.001Z</time></trkpt><trkpt lat="43.52376304824713" lon="10.811643551530395"><ele>102.0</ele><time>2026-04-18T09:23:50.001Z</time></trkpt><trkpt lat="43.52371059861118" lon="10.81171002992594"><ele>103.33333333333333</ele><time>2026-04-18T09:23:51.001Z</time></trkpt><trkpt lat="43.5236538791911" lon="10.81178029341453"><ele>104.66666666666666</ele><time>2026-04-18T09:23:52.001Z</time></trkpt><trkpt lat="43.523589282466425" lon="10.811852055957448"><ele>106.0</ele><time>2026-04-18T09:23:53.001Z</time></trkpt><trkpt lat="43.523524384644936" lon="10.811923361785526"><ele>107.33333333333333</ele><time>2026-04-18T09:23:54.001Z</time></trkpt><trkpt lat="43.52345909124338" lon="10.811979627871585"><ele>108.66666666666666</ele><time>2026-04-18T09:23:55.001Z</time></trkpt><trkpt lat="43.52338584523085" lon="10.812015477214414"><ele>110.0</ele><time>2026-04-18T09:23:56.001Z</time></trkpt><trkpt lat="43.523308606938585" lon="10.81205215712744"><ele>110.99999999999999</ele><time>2026-04-18T09:23:57.001Z</time></trkpt><trkpt lat="43.52323379675004" lon="10.81208768389618"><ele>112.0</ele><time>2026-04-18T09:23:58.001Z</time></trkpt><trkpt lat="43.52316044854822" lon="10.812127856859565"><ele>113.0</ele><time>2026-04-18T09:23:59.001Z</time></trkpt><trkpt lat="43.523095035783456" lon="10.812176353025235"><ele>114.0</ele><time>2026-04-18T09:24:00.001Z</time></trkpt><trkpt lat="43.52303520197032" lon="10.812238463052175"><ele>114.99999999999999</ele><time>2026-04-18T09:24:01.001Z</time></trkpt><trkpt lat="43.522997889238255" lon="10.812331451318181"><ele>116.0</ele><time>2026-04-18T09:24:02.001Z</time></trkpt><trkpt lat="43.5229472907306" lon="10.812396741980605"><ele>115.99999999999999</ele><time>2026-04-18T09:24:03.001Z</time></trkpt><trkpt lat="43.5229119122275" lon="10.812489957422548"><ele>116.0</ele><time>2026-04-18T09:24:04.001Z</time></trkpt><trkpt lat="43.52289884410558" lon="10.812581137209259"><ele>116.0</ele><time>2026-04-18T09:24:05.001Z</time></trkpt><trkpt lat="43.522853027959336" lon="10.812730580231982"><ele>116.0</ele><time>2026-04-18T09:24:07.001Z</time></trkpt><trkpt lat="43.522821766006544" lon="10.812817985054698"><ele>115.99999999999999</ele><time>2026-04-18T09:24:08.001Z</time></trkpt><trkpt lat="43.52278536246431" lon="10.812910299273613"><ele>116.0</ele><time>2026-04-18T09:24:09.001Z</time></trkpt><trkpt lat="43.5227471353789" lon="10.812999972326894"><ele>116.99999999999999</ele><time>2026-04-18T09:24:10.001Z</time></trkpt><trkpt lat="43.522683405716904" lon="10.813061686315242"><ele>118.0</ele><time>2026-04-18T09:24:11.001Z</time></trkpt><trkpt lat="43.52262772573877" lon="10.81311090780642"><ele>119.0</ele><time>2026-04-18T09:24:12.001Z</time></trkpt><trkpt lat="43.522569138461954" lon="10.813193038119458"><ele>120.0</ele><time>2026-04-18T09:24:13.001Z</time></trkpt><trkpt lat="43.522499475273044" lon="10.813262086381847"><ele>120.99999999999999</ele><time>2026-04-18T09:24:14.001Z</time></trkpt><trkpt lat="43.52242806879951" lon="10.813340057304282"><ele>122.0</ele><time>2026-04-18T09:24:15.001Z</time></trkpt><trkpt lat="43.52234658259341" lon="10.813418315962299"><ele>122.6</ele><time>2026-04-18T09:24:16.001Z</time></trkpt><trkpt lat="43.52225669685605" lon="10.813500582018877"><ele>123.19999999999999</ele><time>2026-04-18T09:24:17.001Z</time></trkpt><trkpt lat="43.52216895392739" lon="10.813589097350357"><ele>123.8</ele><time>2026-04-18T09:24:18.001Z</time></trkpt><trkpt lat="43.52208594017034" lon="10.813666409583641"><ele>124.4</ele><time>2026-04-18T09:24:19.001Z</time></trkpt><trkpt lat="43.52202443688577" lon="10.813749858439651"><ele>125.0</ele><time>2026-04-18T09:24:20.001Z</time></trkpt><trkpt lat="43.52201077506988" lon="10.813880908351514"><ele>125.6</ele><time>2026-04-18T09:24:21.001Z</time></trkpt><trkpt lat="43.521983289861616" lon="10.813992090404538"><ele>126.2</ele><time>2026-04-18T09:24:22.001Z</time></trkpt><trkpt lat="43.52195511330638" lon="10.814107153212403"><ele>126.80000000000001</ele><time>2026-04-18T09:24:23.001Z</time></trkpt><trkpt lat="43.521917238269175" lon="10.814229513142454"><ele>127.4</ele><time>2026-04-18T09:24:24.001Z</time></trkpt><trkpt lat="43.521878560961824" lon="10.814356466099222"><ele>128.0</ele><time>2026-04-18T09:24:25.001Z</time></trkpt><trkpt lat="43.52183557852432" lon="10.814479075803085"><ele>128.0</ele><time>2026-04-18T09:24:26.001Z</time></trkpt><trkpt lat="43.52179029341682" lon="10.814598229487158"><ele>128.0</ele><time>2026-04-18T09:24:27.001Z</time></trkpt><trkpt lat="43.521745369643085" lon="10.814690569136095"><ele>128.0</ele><time>2026-04-18T09:24:28.001Z</time></trkpt><trkpt lat="43.52171445081858" lon="10.814769645041283"><ele>128.0</ele><time>2026-04-18T09:24:29.001Z</time></trkpt><trkpt lat="43.52169491878034" lon="10.814935445724792"><ele>128.0</ele><time>2026-04-18T09:24:31.001Z</time></trkpt><trkpt lat="43.52170234444603" lon="10.815064933925408"><ele>127.83333333333333</ele><time>2026-04-18T09:24:32.001Z</time></trkpt><trkpt lat="43.52170268268745" lon="10.815186581755073"><ele>127.66666666666666</ele><time>2026-04-18T09:24:33.002Z</time></trkpt><trkpt lat="43.521706263904214" lon="10.815305072352315"><ele>127.5</ele><time>2026-04-18T09:24:34.002Z</time></trkpt><trkpt lat="43.521684277341194" lon="10.815409497591444"><ele>127.33333333333334</ele><time>2026-04-18T09:24:35.002Z</time></trkpt><trkpt lat="43.52166995143714" lon="10.815521059240611"><ele>127.16666666666667</ele><time>2026-04-18T09:24:36.002Z</time></trkpt><trkpt lat="43.52166558487416" lon="10.815630344631073"><ele>127.0</ele><time>2026-04-18T09:24:37.002Z</time></trkpt><trkpt lat="43.521676327020444" lon="10.815730378074115"><ele>127.00000000000001</ele><time>2026-04-18T09:24:38.002Z</time></trkpt><trkpt lat="43.521703743903515" lon="10.815834613432274"><ele>127.0</ele><time>2026-04-18T09:24:39.002Z</time></trkpt><trkpt lat="43.52175138018939" lon="10.81592127478932"><ele>127.0</ele><time>2026-04-18T09:24:40.002Z</time></trkpt><trkpt lat="43.52178820865216" lon="10.816014267740293"><ele>127.0</ele><time>2026-04-18T09:24:41.002Z</time></trkpt><trkpt lat="43.521833413354244" lon="10.81610808723138"><ele>127.00000000000001</ele><time>2026-04-18T09:24:42.002Z</time></trkpt><trkpt lat="43.5218734801113" lon="10.816203755895678"><ele>127.0</ele><time>2026-04-18T09:24:43.002Z</time></trkpt><trkpt lat="43.52192846788401" lon="10.816296435782737"><ele>126.50000000000001</ele><time>2026-04-18T09:24:44.002Z</time></trkpt><trkpt lat="43.521977119463884" lon="10.816392232542393"><ele>126.0</ele><time>2026-04-18T09:24:45.002Z</time></trkpt><trkpt lat="43.52202611347794" lon="10.816480262982967"><ele>125.5</ele><time>2026-04-18T09:24:46.002Z</time></trkpt><trkpt lat="43.52205210122632" lon="10.816582804274661"><ele>125.0</ele><time>2026-04-18T09:24:47.002Z</time></trkpt><trkpt lat="43.522075633459785" lon="10.816690171140525"><ele>124.50000000000001</ele><time>2026-04-18T09:24:48.002Z</time></trkpt><trkpt lat="43.522082601194846" lon="10.816813672408136"><ele>124.0</ele><time>2026-04-18T09:24:49.002Z</time></trkpt><trkpt lat="43.522076530625476" lon="10.816935417839208"><ele>123.83333333333334</ele><time>2026-04-18T09:24:50.002Z</time></trkpt><trkpt lat="43.52205488034537" lon="10.817061509300046"><ele>123.66666666666667</ele><time>2026-04-18T09:24:51.002Z</time></trkpt><trkpt lat="43.52202279470733" lon="10.817164462743674"><ele>123.5</ele><time>2026-04-18T09:24:52.002Z</time></trkpt><trkpt lat="43.521990604978065" lon="10.817287935473999"><ele>123.33333333333334</ele><time>2026-04-18T09:24:53.002Z</time></trkpt><trkpt lat="43.5219543497594" lon="10.8173970428141"><ele>123.16666666666667</ele><time>2026-04-18T09:24:54.002Z</time></trkpt><trkpt lat="43.52192430639169" lon="10.817506583036003"><ele>123.0</ele><time>2026-04-18T09:24:55.002Z</time></trkpt><trkpt lat="43.52189023769217" lon="10.817610680007745"><ele>124.60000000000001</ele><time>2026-04-18T09:24:56.002Z</time></trkpt><trkpt lat="43.52186030094763" lon="10.81770574428882"><ele>126.20000000000002</ele><time>2026-04-18T09:24:57.002Z</time></trkpt><trkpt lat="43.52183216239658" lon="10.817795614220918"><ele>127.8</ele><time>2026-04-18T09:24:58.002Z</time></trkpt><trkpt lat="43.52177022489296" lon="10.817933004955469"><ele>129.4</ele><time>2026-04-18T09:25:00.002Z</time></trkpt><trkpt lat="43.52172211690613" lon="10.817992372503868"><ele>131.0</ele><time>2026-04-18T09:25:01.002Z</time></trkpt><trkpt lat="43.52162342733433" lon="10.818109800839725"><ele>131.0</ele><time>2026-04-18T09:25:03.002Z</time></trkpt><trkpt lat="43.521572496783776" lon="10.818171858491084"><ele>131.0</ele><time>2026-04-18T09:25:04.002Z</time></trkpt><trkpt lat="43.521464500195194" lon="10.818237931736181"><ele>131.0</ele><time>2026-04-18T09:25:06.002Z</time></trkpt><trkpt lat="43.52141864674778" lon="10.818300961567877"><ele>131.0</ele><time>2026-04-18T09:25:07Z</time></trkpt><trkpt lat="43.521379573413256" lon="10.8183703579339"><ele>131.0</ele><time>2026-04-18T09:25:08Z</time></trkpt><trkpt lat="43.52131483516058" lon="10.818465642405293"><ele>131.0</ele><time>2026-04-18T09:25:10Z</time></trkpt><trkpt lat="43.52129176605867" lon="10.818593884705104"><ele>130.0</ele><time>2026-04-18T09:25:12Z</time></trkpt><trkpt lat="43.52126678001343" lon="10.81871727194181"><ele>129.0</ele><time>2026-04-18T09:25:14Z</time></trkpt><trkpt lat="43.521260025580574" lon="10.81885553879277"><ele>128.0</ele><time>2026-04-18T09:25:16Z</time></trkpt><trkpt lat="43.521277213489746" lon="10.819031116285291"><ele>127.0</ele><time>2026-04-18T09:25:18Z</time></trkpt><trkpt lat="43.52131392173511" lon="10.819121503573236"><ele>126.0</ele><time>2026-04-18T09:25:19Z</time></trkpt><trkpt lat="43.52133207456225" lon="10.819241907555384"><ele>123.8</ele><time>2026-04-18T09:25:20Z</time></trkpt><trkpt lat="43.521397392794924" lon="10.819402645362539"><ele>121.6</ele><time>2026-04-18T09:25:22Z</time></trkpt><trkpt lat="43.521422282704506" lon="10.819494040177426"><ele>119.4</ele><time>2026-04-18T09:25:23Z</time></trkpt><trkpt lat="43.52143221156351" lon="10.819657432236943"><ele>117.2</ele><time>2026-04-18T09:25:25Z</time></trkpt><trkpt lat="43.52141233573916" lon="10.819823692611955"><ele>115.0</ele><time>2026-04-18T09:25:27Z</time></trkpt><trkpt lat="43.52137273571561" lon="10.819971982713216"><ele>115.0</ele><time>2026-04-18T09:25:29Z</time></trkpt><trkpt lat="43.521323072320754" lon="10.820108186380885"><ele>115.0</ele><time>2026-04-18T09:25:31Z</time></trkpt><trkpt lat="43.52127639473545" lon="10.82026500190785"><ele>115.0</ele><time>2026-04-18T09:25:33Z</time></trkpt><trkpt lat="43.521265834827744" lon="10.820417206938258"><ele>115.0</ele><time>2026-04-18T09:25:35Z</time></trkpt><trkpt lat="43.52127379869832" lon="10.820570915519507"><ele>113.4</ele><time>2026-04-18T09:25:37Z</time></trkpt><trkpt lat="43.521286849377155" lon="10.820710991019043"><ele>111.8</ele><time>2026-04-18T09:25:39Z</time></trkpt><trkpt lat="43.5212955790119" lon="10.820851987076193"><ele>110.19999999999999</ele><time>2026-04-18T09:25:41Z</time></trkpt><trkpt lat="43.52130217536251" lon="10.82100231332092"><ele>108.6</ele><time>2026-04-18T09:25:43Z</time></trkpt><trkpt lat="43.52131083857331" lon="10.821171151120888"><ele>107.0</ele><time>2026-04-18T09:25:45Z</time></trkpt><trkpt lat="43.521315703254146" lon="10.82126139957383"><ele>106.5</ele><time>2026-04-18T09:25:46.001Z</time></trkpt><trkpt lat="43.52132901414994" lon="10.821432332740667"><ele>106.0</ele><time>2026-04-18T09:25:48.001Z</time></trkpt><trkpt lat="43.521345907876764" lon="10.82160025623279"><ele>105.5</ele><time>2026-04-18T09:25:50.001Z</time></trkpt><trkpt lat="43.52136056279654" lon="10.82176058665082"><ele>105.0</ele><time>2026-04-18T09:25:52.001Z</time></trkpt><trkpt lat="43.521364837166" lon="10.821914148891867"><ele>104.75</ele><time>2026-04-18T09:25:54.001Z</time></trkpt><trkpt lat="43.52136835497035" lon="10.822076867765455"><ele>104.5</ele><time>2026-04-18T09:25:56.001Z</time></trkpt><trkpt lat="43.52137810561385" lon="10.822237623693772"><ele>104.25</ele><time>2026-04-18T09:25:58.001Z</time></trkpt><trkpt lat="43.52139106159754" lon="10.822400940002735"><ele>104.0</ele><time>2026-04-18T09:26:00.001Z</time></trkpt><trkpt lat="43.52141989001103" lon="10.82255683509623"><ele>103.83333333333333</ele><time>2026-04-18T09:26:02.001Z</time></trkpt><trkpt lat="43.5215137785463" lon="10.822661918031784"><ele>103.66666666666666</ele><time>2026-04-18T09:26:04.001Z</time></trkpt><trkpt lat="43.521568407395435" lon="10.822716017712388"><ele>103.5</ele><time>2026-04-18T09:26:05.001Z</time></trkpt><trkpt lat="43.52163897497104" lon="10.822748327825034"><ele>103.33333333333334</ele><time>2026-04-18T09:26:06.001Z</time></trkpt><trkpt lat="43.52170224071117" lon="10.822796876306027"><ele>103.16666666666667</ele><time>2026-04-18T09:26:07.001Z</time></trkpt><trkpt lat="43.52175430233935" lon="10.822864086466929"><ele>103.0</ele><time>2026-04-18T09:26:08.001Z</time></trkpt><trkpt lat="43.52179953240467" lon="10.822946403694374"><ele>103.00000000000001</ele><time>2026-04-18T09:26:09.001Z</time></trkpt><trkpt lat="43.521830205554345" lon="10.823030930500146"><ele>103.0</ele><time>2026-04-18T09:26:10.001Z</time></trkpt><trkpt lat="43.52185147534414" lon="10.823122600243382"><ele>103.0</ele><time>2026-04-18T09:26:11.001Z</time></trkpt><trkpt lat="43.52187139521215" lon="10.823211514827351"><ele>103.0</ele><time>2026-04-18T09:26:12.001Z</time></trkpt><trkpt lat="43.52189110625036" lon="10.823295749277436"><ele>103.00000000000001</ele><time>2026-04-18T09:26:13.001Z</time></trkpt><trkpt lat="43.521927499925994" lon="10.823447263087708"><ele>103.0</ele><time>2026-04-18T09:26:15.001Z</time></trkpt><trkpt lat="43.521968899114746" lon="10.823601532288935"><ele>103.0</ele><time>2026-04-18T09:26:17.001Z</time></trkpt><trkpt lat="43.521991680573905" lon="10.823757811227523"><ele>103.0</ele><time>2026-04-18T09:26:19.001Z</time></trkpt><trkpt lat="43.52198304145897" lon="10.82391376931701"><ele>103.0</ele><time>2026-04-18T09:26:21.001Z</time></trkpt><trkpt lat="43.521943607252354" lon="10.824063611275287"><ele>103.0</ele><time>2026-04-18T09:26:23.001Z</time></trkpt><trkpt lat="43.52189602053495" lon="10.824223853231901"><ele>102.99999999999999</ele><time>2026-04-18T09:26:25.001Z</time></trkpt><trkpt lat="43.521875332650694" lon="10.824305906008032"><ele>103.0</ele><time>2026-04-18T09:26:26.001Z</time></trkpt><trkpt lat="43.52186087678145" lon="10.82439793280125"><ele>103.0</ele><time>2026-04-18T09:26:27.001Z</time></trkpt><trkpt lat="43.5218563774173" lon="10.824489921065478"><ele>103.0</ele><time>2026-04-18T09:26:28.001Z</time></trkpt><trkpt lat="43.521866922226046" lon="10.824580693033203"><ele>103.0</ele><time>2026-04-18T09:26:29.001Z</time></trkpt><trkpt lat="43.521880333684514" lon="10.824687787709646"><ele>102.99999999999999</ele><time>2026-04-18T09:26:30.001Z</time></trkpt><trkpt lat="43.521896541278565" lon="10.824803092542652"><ele>103.0</ele><time>2026-04-18T09:26:31.001Z</time></trkpt><trkpt lat="43.52190853561032" lon="10.824922536954759"><ele>102.33333333333334</ele><time>2026-04-18T09:26:32.001Z</time></trkpt><trkpt lat="43.52192363036445" lon="10.825040089883556"><ele>101.66666666666667</ele><time>2026-04-18T09:26:33.001Z</time></trkpt><trkpt lat="43.521940076230514" lon="10.825161598573267"><ele>101.0</ele><time>2026-04-18T09:26:34.001Z</time></trkpt><trkpt lat="43.52195862381229" lon="10.825283027294859"><ele>100.33333333333334</ele><time>2026-04-18T09:26:35.001Z</time></trkpt><trkpt lat="43.5219753187222" lon="10.825398268238656"><ele>99.66666666666667</ele><time>2026-04-18T09:26:36.001Z</time></trkpt><trkpt lat="43.52198603128948" lon="10.825521376037415"><ele>99.0</ele><time>2026-04-18T09:26:37.001Z</time></trkpt><trkpt lat="43.521988107906296" lon="10.825643550876448"><ele>98.66666666666667</ele><time>2026-04-18T09:26:38.001Z</time></trkpt><trkpt lat="43.52198257258095" lon="10.825762515974484"><ele>98.33333333333334</ele><time>2026-04-18T09:26:39.002Z</time></trkpt><trkpt lat="43.521960368607424" lon="10.825875957970089"><ele>98.0</ele><time>2026-04-18T09:26:40.002Z</time></trkpt><trkpt lat="43.521947589885784" lon="10.825990632568043"><ele>97.66666666666667</ele><time>2026-04-18T09:26:41.002Z</time></trkpt><trkpt lat="43.521938117057886" lon="10.826103375431101"><ele>97.33333333333334</ele><time>2026-04-18T09:26:42.002Z</time></trkpt><trkpt lat="43.521932015246236" lon="10.826205983523463"><ele>97.0</ele><time>2026-04-18T09:26:43.002Z</time></trkpt><trkpt lat="43.521930167939" lon="10.826311302209296"><ele>97.0</ele><time>2026-04-18T09:26:44.002Z</time></trkpt><trkpt lat="43.52193724243821" lon="10.826408713637534"><ele>97.0</ele><time>2026-04-18T09:26:45.002Z</time></trkpt><trkpt lat="43.52195426140673" lon="10.826510202745688"><ele>97.0</ele><time>2026-04-18T09:26:46.002Z</time></trkpt><trkpt lat="43.521975166278985" lon="10.826604122329263"><ele>97.0</ele><time>2026-04-18T09:26:47.002Z</time></trkpt><trkpt lat="43.521998936230766" lon="10.826702822313838"><ele>97.0</ele><time>2026-04-18T09:26:48.002Z</time></trkpt><trkpt lat="43.52202673584318" lon="10.826805950762036"><ele>97.0</ele><time>2026-04-18T09:26:49.002Z</time></trkpt><trkpt lat="43.52204540405225" lon="10.826901166276206"><ele>97.0</ele><time>2026-04-18T09:26:50.002Z</time></trkpt><trkpt lat="43.52206394624748" lon="10.826995298348361"><ele>97.33333333333334</ele><time>2026-04-18T09:26:51.002Z</time></trkpt><trkpt lat="43.52208036763327" lon="10.827088791333013"><ele>97.66666666666667</ele><time>2026-04-18T09:26:52.002Z</time></trkpt><trkpt lat="43.522099349861534" lon="10.827180960498742"><ele>98.0</ele><time>2026-04-18T09:26:53.002Z</time></trkpt><trkpt lat="43.52211680746283" lon="10.827268734183365"><ele>98.33333333333334</ele><time>2026-04-18T09:26:54.002Z</time></trkpt><trkpt lat="43.52213177693338" lon="10.827353948115244"><ele>98.66666666666667</ele><time>2026-04-18T09:26:55.002Z</time></trkpt><trkpt lat="43.522168464985356" lon="10.827506510428515"><ele>99.0</ele><time>2026-04-18T09:26:57.002Z</time></trkpt><trkpt lat="43.52220013523221" lon="10.82763489376057"><ele>98.6</ele><time>2026-04-18T09:26:59.002Z</time></trkpt><trkpt lat="43.52221746586453" lon="10.827746052420729"><ele>98.2</ele><time>2026-04-18T09:27:01.002Z</time></trkpt><trkpt lat="43.52219960872864" lon="10.827871727246897"><ele>97.8</ele><time>2026-04-18T09:27:03.002Z</time></trkpt><trkpt lat="43.52214450000746" lon="10.827976833389954"><ele>97.39999999999999</ele><time>2026-04-18T09:27:05.002Z</time></trkpt><trkpt lat="43.52206870659907" lon="10.828066900022044"><ele>97.0</ele><time>2026-04-18T09:27:07.002Z</time></trkpt><trkpt lat="43.52197408331694" lon="10.828114517272109"><ele>99.16666666666667</ele><time>2026-04-18T09:27:09.002Z</time></trkpt><trkpt lat="43.52188386295202" lon="10.82812671367121"><ele>101.33333333333334</ele><time>2026-04-18T09:27:11.002Z</time></trkpt><trkpt lat="43.52179807140279" lon="10.828132496444084"><ele>103.5</ele><time>2026-04-18T09:27:13Z</time></trkpt><trkpt lat="43.521715461355434" lon="10.828144002405807"><ele>105.66666666666666</ele><time>2026-04-18T09:27:15Z</time></trkpt><trkpt lat="43.5215977899321" lon="10.828156510044534"><ele>107.83333333333333</ele><time>2026-04-18T09:27:17Z</time></trkpt><trkpt lat="43.521531540184974" lon="10.828165227233749"><ele>110.0</ele><time>2026-04-18T09:27:18Z</time></trkpt><trkpt lat="43.521465310892424" lon="10.828172119159474"><ele>109.99999999999999</ele><time>2026-04-18T09:27:19Z</time></trkpt><trkpt lat="43.521393228034874" lon="10.828179399719206"><ele>110.0</ele><time>2026-04-18T09:27:20Z</time></trkpt><trkpt lat="43.52132087577024" lon="10.828184267837612"><ele>110.0</ele><time>2026-04-18T09:27:21Z</time></trkpt><trkpt lat="43.52124823418521" lon="10.828191064620539"><ele>110.0</ele><time>2026-04-18T09:27:22Z</time></trkpt><trkpt lat="43.52117800725507" lon="10.828170350935874"><ele>110.0</ele><time>2026-04-18T09:27:23Z</time></trkpt><trkpt lat="43.52110910142467" lon="10.828173975527864"><ele>109.99999999999999</ele><time>2026-04-18T09:27:24Z</time></trkpt><trkpt lat="43.52103727131781" lon="10.828179237784722"><ele>110.0</ele><time>2026-04-18T09:27:25Z</time></trkpt><trkpt lat="43.52096512111425" lon="10.828204536283137"><ele>111.16666666666666</ele><time>2026-04-18T09:27:26Z</time></trkpt><trkpt lat="43.52088785277932" lon="10.828224513310968"><ele>112.33333333333333</ele><time>2026-04-18T09:27:27Z</time></trkpt><trkpt lat="43.520811416161585" lon="10.828259421526358"><ele>113.5</ele><time>2026-04-18T09:27:28Z</time></trkpt><trkpt lat="43.520734300480655" lon="10.828312769579348"><ele>114.66666666666666</ele><time>2026-04-18T09:27:29Z</time></trkpt><trkpt lat="43.52066255489339" lon="10.828373489393355"><ele>115.83333333333333</ele><time>2026-04-18T09:27:30Z</time></trkpt><trkpt lat="43.520587080474314" lon="10.82843789758588"><ele>117.0</ele><time>2026-04-18T09:27:31Z</time></trkpt><trkpt lat="43.52051775819832" lon="10.828493128527573"><ele>117.0</ele><time>2026-04-18T09:27:32Z</time></trkpt><trkpt lat="43.52045157414123" lon="10.82855124759587"><ele>117.00000000000001</ele><time>2026-04-18T09:27:33Z</time></trkpt><trkpt lat="43.520387826917585" lon="10.828596246983533"><ele>117.0</ele><time>2026-04-18T09:27:34Z</time></trkpt><trkpt lat="43.520325380614395" lon="10.82864685418928"><ele>117.0</ele><time>2026-04-18T09:27:35Z</time></trkpt><trkpt lat="43.52026768524511" lon="10.828690072426562"><ele>117.00000000000001</ele><time>2026-04-18T09:27:36Z</time></trkpt><trkpt lat="43.52020874764792" lon="10.828725470800395"><ele>117.0</ele><time>2026-04-18T09:27:37Z</time></trkpt><trkpt lat="43.52014905686834" lon="10.828762678209635"><ele>117.0</ele><time>2026-04-18T09:27:38Z</time></trkpt><trkpt lat="43.520083888935964" lon="10.82879951620036"><ele>119.33333333333333</ele><time>2026-04-18T09:27:39Z</time></trkpt><trkpt lat="43.52001059700979" lon="10.828811631892975"><ele>121.66666666666666</ele><time>2026-04-18T09:27:40Z</time></trkpt><trkpt lat="43.51993826739519" lon="10.828842691287464"><ele>124.0</ele><time>2026-04-18T09:27:41Z</time></trkpt><trkpt lat="43.51986475726625" lon="10.828870760340559"><ele>126.33333333333333</ele><time>2026-04-18T09:27:42Z</time></trkpt><trkpt lat="43.519788279816886" lon="10.828897994491905"><ele>128.66666666666666</ele><time>2026-04-18T09:27:43Z</time></trkpt><trkpt lat="43.51970714667987" lon="10.82894274208561"><ele>131.0</ele><time>2026-04-18T09:27:44Z</time></trkpt><trkpt lat="43.51962025162726" lon="10.828973220648617"><ele>131.66666666666666</ele><time>2026-04-18T09:27:45Z</time></trkpt><trkpt lat="43.5195317671186" lon="10.829004911110225"><ele>132.33333333333331</ele><time>2026-04-18T09:27:46Z</time></trkpt><trkpt lat="43.51944456993986" lon="10.829034012172976"><ele>133.0</ele><time>2026-04-18T09:27:47Z</time></trkpt><trkpt lat="43.5193600334208" lon="10.82906053459925"><ele>133.66666666666666</ele><time>2026-04-18T09:27:48Z</time></trkpt><trkpt lat="43.51927329121595" lon="10.829089316233805"><ele>134.33333333333334</ele><time>2026-04-18T09:27:49Z</time></trkpt><trkpt lat="43.51918460342901" lon="10.829119637490784"><ele>135.0</ele><time>2026-04-18T09:27:50Z</time></trkpt><trkpt lat="43.519100164615054" lon="10.829152704387417"><ele>135.0</ele><time>2026-04-18T09:27:51Z</time></trkpt><trkpt lat="43.51901806953784" lon="10.829183593012093"><ele>135.0</ele><time>2026-04-18T09:27:52Z</time></trkpt><trkpt lat="43.5189359310401" lon="10.829219133013538"><ele>135.0</ele><time>2026-04-18T09:27:53Z</time></trkpt><trkpt lat="43.51885947049547" lon="10.829257919445507"><ele>135.0</ele><time>2026-04-18T09:27:54Z</time></trkpt><trkpt lat="43.518786407726324" lon="10.82929320725341"><ele>135.0</ele><time>2026-04-18T09:27:55Z</time></trkpt><trkpt lat="43.51870791277776" lon="10.829336241155511"><ele>135.0</ele><time>2026-04-18T09:27:56Z</time></trkpt><trkpt lat="43.51863120080819" lon="10.829375695170663"><ele>136.33333333333334</ele><time>2026-04-18T09:27:57Z</time></trkpt><trkpt lat="43.51854937027401" lon="10.829386176528974"><ele>137.66666666666666</ele><time>2026-04-18T09:27:58Z</time></trkpt><trkpt lat="43.518473188654774" lon="10.829417379344326"><ele>139.0</ele><time>2026-04-18T09:27:59Z</time></trkpt><trkpt lat="43.51840248302622" lon="10.82944523140188"><ele>140.33333333333331</ele><time>2026-04-18T09:28:00Z</time></trkpt><trkpt lat="43.51833429040268" lon="10.829472093535212"><ele>141.66666666666666</ele><time>2026-04-18T09:28:01Z</time></trkpt><trkpt lat="43.51826494685052" lon="10.829520481559362"><ele>143.0</ele><time>2026-04-18T09:28:02Z</time></trkpt><trkpt lat="43.51819373815232" lon="10.829548320417318"><ele>143.0</ele><time>2026-04-18T09:28:03Z</time></trkpt><trkpt lat="43.5181179498817" lon="10.829572382471122"><ele>143.0</ele><time>2026-04-18T09:28:04.001Z</time></trkpt><trkpt lat="43.51804432092139" lon="10.829599721461934"><ele>143.0</ele><time>2026-04-18T09:28:05.001Z</time></trkpt><trkpt lat="43.51796880688359" lon="10.829626841824828"><ele>143.0</ele><time>2026-04-18T09:28:06.001Z</time></trkpt><trkpt lat="43.51789288813251" lon="10.82965235049312"><ele>143.0</ele><time>2026-04-18T09:28:07.001Z</time></trkpt><trkpt lat="43.5178186391959" lon="10.829683378560796"><ele>143.0</ele><time>2026-04-18T09:28:08.001Z</time></trkpt><trkpt lat="43.51774873654502" lon="10.829707356832971"><ele>145.83333333333331</ele><time>2026-04-18T09:28:09.001Z</time></trkpt><trkpt lat="43.517679570143414" lon="10.82973271579163"><ele>148.66666666666666</ele><time>2026-04-18T09:28:10.001Z</time></trkpt><trkpt lat="43.5176122905572" lon="10.829761932723946"><ele>151.5</ele><time>2026-04-18T09:28:11.001Z</time></trkpt><trkpt lat="43.5175511394384" lon="10.829782618342794"><ele>154.33333333333334</ele><time>2026-04-18T09:28:12.001Z</time></trkpt><trkpt lat="43.5174453204834" lon="10.829833557999262"><ele>157.16666666666669</ele><time>2026-04-18T09:28:14.001Z</time></trkpt><trkpt lat="43.51737305637655" lon="10.829902569879067"><ele>160.0</ele><time>2026-04-18T09:28:16.001Z</time></trkpt><trkpt lat="43.51731825580822" lon="10.829992142405949"><ele>160.0</ele><time>2026-04-18T09:28:18.001Z</time></trkpt><trkpt lat="43.517277759677626" lon="10.830083092586467"><ele>160.0</ele><time>2026-04-18T09:28:20.001Z</time></trkpt><trkpt lat="43.5172407003919" lon="10.830178992960613"><ele>160.0</ele><time>2026-04-18T09:28:24.001Z</time></trkpt><trkpt lat="43.51720974376419" lon="10.830255576607232"><ele>160.0</ele><time>2026-04-18T09:28:27.001Z</time></trkpt><trkpt lat="43.51716567711117" lon="10.830353582371364"><ele>160.0</ele><time>2026-04-18T09:28:31.001Z</time></trkpt><trkpt lat="43.51712210709293" lon="10.830456394593625"><ele>160.0</ele><time>2026-04-18T09:28:35.001Z</time></trkpt><trkpt lat="43.51708979279877" lon="10.830538332932566"><ele>163.4</ele><time>2026-04-18T09:28:37.001Z</time></trkpt><trkpt lat="43.517044783540946" lon="10.830619003886456"><ele>166.8</ele><time>2026-04-18T09:28:39.001Z</time></trkpt><trkpt lat="43.5169912301208" lon="10.83071506465956"><ele>170.2</ele><time>2026-04-18T09:28:41.001Z</time></trkpt><trkpt lat="43.51693026914029" lon="10.830838136080075"><ele>173.6</ele><time>2026-04-18T09:28:43.001Z</time></trkpt><trkpt lat="43.516871174617094" lon="10.83097486745198"><ele>177.0</ele><time>2026-04-18T09:28:45.001Z</time></trkpt><trkpt lat="43.51680696314624" lon="10.8311115613312"><ele>177.0</ele><time>2026-04-18T09:28:47.001Z</time></trkpt><trkpt lat="43.516738407800126" lon="10.831247267728399"><ele>177.0</ele><time>2026-04-18T09:28:49.001Z</time></trkpt><trkpt lat="43.516644650454836" lon="10.831423473477255"><ele>177.0</ele><time>2026-04-18T09:28:52.002Z</time></trkpt><trkpt lat="43.516589445273894" lon="10.831523200080454"><ele>177.0</ele><time>2026-04-18T09:28:54.002Z</time></trkpt><trkpt lat="43.5165355466017" lon="10.831614291178298"><ele>177.0</ele><time>2026-04-18T09:28:56.002Z</time></trkpt><trkpt lat="43.5164642489905" lon="10.831729038366204"><ele>177.0</ele><time>2026-04-18T09:28:58.002Z</time></trkpt><trkpt lat="43.516386799869395" lon="10.831842637437578"><ele>177.0</ele><time>2026-04-18T09:29:00.002Z</time></trkpt><trkpt lat="43.5162763433288" lon="10.831878486151409"><ele>177.0</ele><time>2026-04-18T09:29:02.002Z</time></trkpt><trkpt lat="43.516174253307845" lon="10.831887359863172"><ele>177.0</ele><time>2026-04-18T09:29:04.002Z</time></trkpt><trkpt lat="43.51610262053229" lon="10.831883744165022"><ele>176.16666666666666</ele><time>2026-04-18T09:29:06.002Z</time></trkpt><trkpt lat="43.516038684746654" lon="10.831858211241087"><ele>175.33333333333334</ele><time>2026-04-18T09:29:09.002Z</time></trkpt><trkpt lat="43.51597847668915" lon="10.83181569179989"><ele>174.5</ele><time>2026-04-18T09:29:12.002Z</time></trkpt><trkpt lat="43.51590908169591" lon="10.831751775923744"><ele>173.66666666666669</ele><time>2026-04-18T09:29:15.002Z</time></trkpt><trkpt lat="43.51585665724258" lon="10.831694024164396"><ele>172.83333333333334</ele><time>2026-04-18T09:29:18.002Z</time></trkpt><trkpt lat="43.51579622372378" lon="10.831613612609155"><ele>172.0</ele><time>2026-04-18T09:29:21Z</time></trkpt><trkpt lat="43.51573721328382" lon="10.831535872124231"><ele>174.16666666666669</ele><time>2026-04-18T09:29:24Z</time></trkpt><trkpt lat="43.515678863453" lon="10.831492499967455"><ele>176.33333333333334</ele><time>2026-04-18T09:29:26Z</time></trkpt><trkpt lat="43.515630963333045" lon="10.831414588541113"><ele>178.5</ele><time>2026-04-18T09:29:28Z</time></trkpt><trkpt lat="43.51556540861558" lon="10.831352491354526"><ele>180.66666666666666</ele><time>2026-04-18T09:29:30Z</time></trkpt><trkpt lat="43.51547602470058" lon="10.831304795857648"><ele>182.83333333333331</ele><time>2026-04-18T09:29:32Z</time></trkpt><trkpt lat="43.51539212509596" lon="10.831240674727994"><ele>185.0</ele><time>2026-04-18T09:29:34Z</time></trkpt><trkpt lat="43.515305708619294" lon="10.831178828319883"><ele>185.0</ele><time>2026-04-18T09:29:36Z</time></trkpt><trkpt lat="43.515216986782725" lon="10.831116209815402"><ele>185.0</ele><time>2026-04-18T09:29:38Z</time></trkpt><trkpt lat="43.515125528319366" lon="10.831059690080085"><ele>185.0</ele><time>2026-04-18T09:29:40Z</time></trkpt><trkpt lat="43.515036713476334" lon="10.831003499830592"><ele>185.0</ele><time>2026-04-18T09:29:42Z</time></trkpt><trkpt lat="43.51492658549697" lon="10.830960768405756"><ele>185.0</ele><time>2026-04-18T09:29:44Z</time></trkpt><trkpt lat="43.51486090078836" lon="10.830946374397872"><ele>186.5</ele><time>2026-04-18T09:29:45Z</time></trkpt><trkpt lat="43.51479818241709" lon="10.830936411772296"><ele>188.0</ele><time>2026-04-18T09:29:46Z</time></trkpt><trkpt lat="43.5146803490976" lon="10.830926577029757"><ele>189.5</ele><time>2026-04-18T09:29:48Z</time></trkpt><trkpt lat="43.514560772079825" lon="10.830930986776337"><ele>191.0</ele><time>2026-04-18T09:29:50Z</time></trkpt><trkpt lat="43.514496237293386" lon="10.83093773830285"><ele>192.50000000000003</ele><time>2026-04-18T09:29:51Z</time></trkpt><trkpt lat="43.514427481846326" lon="10.830949885680852"><ele>194.0</ele><time>2026-04-18T09:29:52Z</time></trkpt><trkpt lat="43.51435789019391" lon="10.83096485754924"><ele>193.16666666666669</ele><time>2026-04-18T09:29:53Z</time></trkpt><trkpt lat="43.51428904472046" lon="10.830981728098566"><ele>192.33333333333334</ele><time>2026-04-18T09:29:54Z</time></trkpt><trkpt lat="43.51422107270077" lon="10.830998128199251"><ele>191.5</ele><time>2026-04-18T09:29:55Z</time></trkpt><trkpt lat="43.514154377820546" lon="10.83100405820846"><ele>190.66666666666669</ele><time>2026-04-18T09:29:56Z</time></trkpt><trkpt lat="43.51402686809751" lon="10.83101748098141"><ele>189.83333333333334</ele><time>2026-04-18T09:29:58Z</time></trkpt><trkpt lat="43.5139628431687" lon="10.831022431046588"><ele>189.0</ele><time>2026-04-18T09:29:59Z</time></trkpt><trkpt lat="43.5138440540446" lon="10.831017682285264"><ele>189.0</ele><time>2026-04-18T09:30:01Z</time></trkpt><trkpt lat="43.51377245790315" lon="10.831021890372993"><ele>189.0</ele><time>2026-04-18T09:30:02Z</time></trkpt><trkpt lat="43.5137078704735" lon="10.831046918220542"><ele>189.0</ele><time>2026-04-18T09:30:03Z</time></trkpt><trkpt lat="43.51364033780005" lon="10.83108604197312"><ele>189.0</ele><time>2026-04-18T09:30:04Z</time></trkpt><trkpt lat="43.513576748430914" lon="10.83112963893616"><ele>189.0</ele><time>2026-04-18T09:30:05.001Z</time></trkpt><trkpt lat="43.513514196028964" lon="10.83116819124884"><ele>189.0</ele><time>2026-04-18T09:30:06.001Z</time></trkpt><trkpt lat="43.51340163541264" lon="10.831223587264612"><ele>191.5</ele><time>2026-04-18T09:30:08.001Z</time></trkpt><trkpt lat="43.513281104573636" lon="10.831237364298335"><ele>194.0</ele><time>2026-04-18T09:30:10.001Z</time></trkpt><trkpt lat="43.51322428094386" lon="10.831302353091962"><ele>196.5</ele><time>2026-04-18T09:30:11.001Z</time></trkpt><trkpt lat="43.51316736452126" lon="10.831361563657179"><ele>199.0</ele><time>2026-04-18T09:30:12.001Z</time></trkpt><trkpt lat="43.51311344764399" lon="10.831428070980747"><ele>201.5</ele><time>2026-04-18T09:30:13.001Z</time></trkpt><trkpt lat="43.51306181821935" lon="10.831498501868642"><ele>204.0</ele><time>2026-04-18T09:30:14.001Z</time></trkpt><trkpt lat="43.51301307970015" lon="10.831572989107606"><ele>204.0</ele><time>2026-04-18T09:30:15.001Z</time></trkpt><trkpt lat="43.51296799953304" lon="10.831640925101393"><ele>204.0</ele><time>2026-04-18T09:30:16.001Z</time></trkpt><trkpt lat="43.51292436998796" lon="10.831707035026856"><ele>204.0</ele><time>2026-04-18T09:30:17.001Z</time></trkpt><trkpt lat="43.512840932359886" lon="10.831831437944816"><ele>204.0</ele><time>2026-04-18T09:30:19.001Z</time></trkpt><trkpt lat="43.51274406108221" lon="10.83193875850554"><ele>204.0</ele><time>2026-04-18T09:30:21.001Z</time></trkpt><trkpt lat="43.51262422288087" lon="10.831995954974447"><ele>205.33333333333334</ele><time>2026-04-18T09:30:23.001Z</time></trkpt><trkpt lat="43.51256250333192" lon="10.832031379102677"><ele>206.66666666666669</ele><time>2026-04-18T09:30:24.001Z</time></trkpt><trkpt lat="43.51250432582261" lon="10.832064770314004"><ele>208.0</ele><time>2026-04-18T09:30:25.001Z</time></trkpt><trkpt lat="43.51240096410973" lon="10.832135055706825"><ele>209.33333333333334</ele><time>2026-04-18T09:30:27.001Z</time></trkpt><trkpt lat="43.51230846476447" lon="10.832191624574673"><ele>210.66666666666669</ele><time>2026-04-18T09:30:29.001Z</time></trkpt><trkpt lat="43.51224115878936" lon="10.832243722056534"><ele>212.0</ele><time>2026-04-18T09:30:32.001Z</time></trkpt><trkpt lat="43.51218838100025" lon="10.832303782710445"><ele>212.0</ele><time>2026-04-18T09:30:36.001Z</time></trkpt><trkpt lat="43.512144845449996" lon="10.83236844615287"><ele>212.0</ele><time>2026-04-18T09:31:08.002Z</time></trkpt><trkpt lat="43.512089330384946" lon="10.832450396473641"><ele>212.0</ele><time>2026-04-18T09:31:12.002Z</time></trkpt><trkpt lat="43.51204645508967" lon="10.832531628200696"><ele>212.0</ele><time>2026-04-18T09:31:15.002Z</time></trkpt><trkpt lat="43.51200386459294" lon="10.832617223187707"><ele>212.0</ele><time>2026-04-18T09:31:19.002Z</time></trkpt><trkpt lat="43.51197466567899" lon="10.832702829791987"><ele>212.0</ele><time>2026-04-18T09:31:23.002Z</time></trkpt><trkpt lat="43.51194594183935" lon="10.832791975067265"><ele>212.0</ele><time>2026-04-18T09:31:26Z</time></trkpt><trkpt lat="43.51190342323827" lon="10.832879669366319"><ele>209.83333333333334</ele><time>2026-04-18T09:31:28Z</time></trkpt><trkpt lat="43.51186334190756" lon="10.832979225980347"><ele>207.66666666666669</ele><time>2026-04-18T09:31:30Z</time></trkpt><trkpt lat="43.51181962143481" lon="10.833090265037201"><ele>205.5</ele><time>2026-04-18T09:31:33Z</time></trkpt><trkpt lat="43.5117837473026" lon="10.833162135577515"><ele>203.33333333333331</ele><time>2026-04-18T09:31:35Z</time></trkpt><trkpt lat="43.51174243695716" lon="10.833249996015246"><ele>201.16666666666666</ele><time>2026-04-18T09:31:37Z</time></trkpt><trkpt lat="43.51169473791747" lon="10.833318565083296"><ele>199.0</ele><time>2026-04-18T09:31:39Z</time></trkpt><trkpt lat="43.511644965983905" lon="10.833393843362142"><ele>198.99999999999997</ele><time>2026-04-18T09:31:41Z</time></trkpt><trkpt lat="43.51158765494975" lon="10.833457683332707"><ele>199.0</ele><time>2026-04-18T09:31:43Z</time></trkpt><trkpt lat="43.511527384760946" lon="10.833502985424923"><ele>199.0</ele><time>2026-04-18T09:31:45Z</time></trkpt><trkpt lat="43.51145501975582" lon="10.833560281200002"><ele>199.0</ele><time>2026-04-18T09:31:47Z</time></trkpt><trkpt lat="43.511364251151136" lon="10.833636412395364"><ele>198.99999999999997</ele><time>2026-04-18T09:31:49Z</time></trkpt><trkpt lat="43.51127042946995" lon="10.833725209107739"><ele>199.0</ele><time>2026-04-18T09:31:51Z</time></trkpt><trkpt lat="43.51117744111988" lon="10.83379845741099"><ele>199.0</ele><time>2026-04-18T09:31:53Z</time></trkpt><trkpt lat="43.511088632082874" lon="10.83386832823778"><ele>199.0</ele><time>2026-04-18T09:31:55Z</time></trkpt><trkpt lat="43.51102323550935" lon="10.83397810277349"><ele>199.0</ele><time>2026-04-18T09:31:57Z</time></trkpt><trkpt lat="43.511045349973934" lon="10.834136993466869"><ele>199.0</ele><time>2026-04-18T09:31:59Z</time></trkpt><trkpt lat="43.51106985362793" lon="10.83429392505151"><ele>199.0</ele><time>2026-04-18T09:32:01Z</time></trkpt><trkpt lat="43.51108489546584" lon="10.834391005629682"><ele>198.99999999999997</ele><time>2026-04-18T09:32:02Z</time></trkpt><trkpt lat="43.51109293003154" lon="10.834484441452926"><ele>199.0</ele><time>2026-04-18T09:32:03Z</time></trkpt><trkpt lat="43.51110505491782" lon="10.834593092824424"><ele>199.0</ele><time>2026-04-18T09:32:04.001Z</time></trkpt><trkpt lat="43.511093864624776" lon="10.834701209808747"><ele>199.0</ele><time>2026-04-18T09:32:05.001Z</time></trkpt><trkpt lat="43.51106100135344" lon="10.834790207177381"><ele>198.99999999999997</ele><time>2026-04-18T09:32:06.001Z</time></trkpt><trkpt lat="43.51103988109266" lon="10.834876075752248"><ele>199.0</ele><time>2026-04-18T09:32:07.001Z</time></trkpt><trkpt lat="43.51099158347818" lon="10.83502580261398"><ele>197.66666666666666</ele><time>2026-04-18T09:32:09.001Z</time></trkpt><trkpt lat="43.51093446603631" lon="10.835165866067447"><ele>196.33333333333331</ele><time>2026-04-18T09:32:11.001Z</time></trkpt><trkpt lat="43.5109108355249" lon="10.835256882220445"><ele>195.0</ele><time>2026-04-18T09:32:12.001Z</time></trkpt><trkpt lat="43.51090167545102" lon="10.83536381548801"><ele>193.66666666666666</ele><time>2026-04-18T09:32:13.001Z</time></trkpt><trkpt lat="43.51087981245601" lon="10.835471470785876"><ele>192.33333333333331</ele><time>2026-04-18T09:32:14.001Z</time></trkpt><trkpt lat="43.510859972037025" lon="10.835585455209978"><ele>191.0</ele><time>2026-04-18T09:32:15.001Z</time></trkpt><trkpt lat="43.510840144189224" lon="10.835684144848567"><ele>191.0</ele><time>2026-04-18T09:32:16.001Z</time></trkpt><trkpt lat="43.51083155569668" lon="10.83578112831137"><ele>191.0</ele><time>2026-04-18T09:32:17.001Z</time></trkpt><trkpt lat="43.510808162555364" lon="10.835940417573102"><ele>191.0</ele><time>2026-04-18T09:32:19.001Z</time></trkpt><trkpt lat="43.51081246975913" lon="10.836028319425726"><ele>191.0</ele><time>2026-04-18T09:32:20.001Z</time></trkpt><trkpt lat="43.510816642794005" lon="10.83618043819316"><ele>191.0</ele><time>2026-04-18T09:32:22.001Z</time></trkpt><trkpt lat="43.51081999617785" lon="10.836349999303572"><ele>190.83333333333331</ele><time>2026-04-18T09:32:24.001Z</time></trkpt><trkpt lat="43.510837659337966" lon="10.836439684614147"><ele>190.66666666666666</ele><time>2026-04-18T09:32:25.001Z</time></trkpt><trkpt lat="43.51083187058927" lon="10.836527645157867"><ele>190.5</ele><time>2026-04-18T09:32:26.001Z</time></trkpt><trkpt lat="43.51083115580565" lon="10.836615789389679"><ele>190.33333333333334</ele><time>2026-04-18T09:32:27.001Z</time></trkpt><trkpt lat="43.51083097399565" lon="10.836782921373972"><ele>190.16666666666669</ele><time>2026-04-18T09:32:29.001Z</time></trkpt><trkpt lat="43.5108292562666" lon="10.836942172101546"><ele>190.0</ele><time>2026-04-18T09:32:31.001Z</time></trkpt><trkpt lat="43.51082562667574" lon="10.837100125960434"><ele>190.0</ele><time>2026-04-18T09:32:33.001Z</time></trkpt><trkpt lat="43.51080343580616" lon="10.837245915397935"><ele>190.0</ele><time>2026-04-18T09:32:35.001Z</time></trkpt><trkpt lat="43.510766550576484" lon="10.83738132678124"><ele>190.0</ele><time>2026-04-18T09:32:37.001Z</time></trkpt><trkpt lat="43.51074353467171" lon="10.837463719393247"><ele>190.0</ele><time>2026-04-18T09:32:38.001Z</time></trkpt><trkpt lat="43.51071605927464" lon="10.83754974151823"><ele>190.0</ele><time>2026-04-18T09:32:39.001Z</time></trkpt><trkpt lat="43.51069219244484" lon="10.837638548664383"><ele>190.0</ele><time>2026-04-18T09:32:40.001Z</time></trkpt><trkpt lat="43.51067324445878" lon="10.837743754189423"><ele>190.14285714285714</ele><time>2026-04-18T09:32:41.001Z</time></trkpt><trkpt lat="43.51065481753797" lon="10.837842290199843"><ele>190.28571428571428</ele><time>2026-04-18T09:32:42.001Z</time></trkpt><trkpt lat="43.510642956480034" lon="10.83794563111246"><ele>190.42857142857144</ele><time>2026-04-18T09:32:43.001Z</time></trkpt><trkpt lat="43.51064520886304" lon="10.838045716005164"><ele>190.57142857142856</ele><time>2026-04-18T09:32:44.001Z</time></trkpt><trkpt lat="43.510645817075385" lon="10.83814215861837"><ele>190.7142857142857</ele><time>2026-04-18T09:32:45.001Z</time></trkpt><trkpt lat="43.510656460003986" lon="10.838238894908065"><ele>190.85714285714286</ele><time>2026-04-18T09:32:46.001Z</time></trkpt><trkpt lat="43.510672348110845" lon="10.838334310770833"><ele>191.0</ele><time>2026-04-18T09:32:47.001Z</time></trkpt><trkpt lat="43.510692801612564" lon="10.838428821350027"><ele>190.33333333333331</ele><time>2026-04-18T09:32:48.001Z</time></trkpt><trkpt lat="43.510717162196585" lon="10.838518807119774"><ele>189.66666666666666</ele><time>2026-04-18T09:32:49.002Z</time></trkpt><trkpt lat="43.51074111148829" lon="10.838603425441702"><ele>189.0</ele><time>2026-04-18T09:32:50.002Z</time></trkpt><trkpt lat="43.510776575033525" lon="10.838771532721038"><ele>188.33333333333334</ele><time>2026-04-18T09:32:52.002Z</time></trkpt><trkpt lat="43.51077973176065" lon="10.838867842268519"><ele>187.66666666666669</ele><time>2026-04-18T09:32:53.002Z</time></trkpt><trkpt lat="43.51077356840882" lon="10.838966109578779"><ele>187.0</ele><time>2026-04-18T09:32:54.002Z</time></trkpt><trkpt lat="43.51076069384934" lon="10.839055570244764"><ele>187.0</ele><time>2026-04-18T09:32:55.002Z</time></trkpt><trkpt lat="43.51072425916537" lon="10.839213064376521"><ele>187.0</ele><time>2026-04-18T09:32:57.002Z</time></trkpt><trkpt lat="43.51067334544605" lon="10.83937133919788"><ele>187.0</ele><time>2026-04-18T09:32:59.002Z</time></trkpt><trkpt lat="43.51063746975356" lon="10.839503054847219"><ele>187.0</ele><time>2026-04-18T09:33:01.002Z</time></trkpt><trkpt lat="43.510625356639984" lon="10.839649082210427"><ele>186.39999999999998</ele><time>2026-04-18T09:33:03.002Z</time></trkpt><trkpt lat="43.51059840257112" lon="10.83979688370866"><ele>185.79999999999998</ele><time>2026-04-18T09:33:05.002Z</time></trkpt><trkpt lat="43.51063340391831" lon="10.839893771707056"><ele>185.2</ele><time>2026-04-18T09:33:06.002Z</time></trkpt><trkpt lat="43.510643900434616" lon="10.840004660871374"><ele>184.6</ele><time>2026-04-18T09:33:07.002Z</time></trkpt><trkpt lat="43.51065794503516" lon="10.840146268567382"><ele>184.0</ele><time>2026-04-18T09:33:08.002Z</time></trkpt><trkpt lat="43.510677162004626" lon="10.840266049128376"><ele>183.79999999999998</ele><time>2026-04-18T09:33:09.002Z</time></trkpt><trkpt lat="43.51069070988923" lon="10.840353603278057"><ele>183.6</ele><time>2026-04-18T09:33:10.002Z</time></trkpt><trkpt lat="43.5107182991267" lon="10.840526763978675"><ele>183.4</ele><time>2026-04-18T09:33:12.002Z</time></trkpt><trkpt lat="43.51074811436827" lon="10.840688947250543"><ele>183.2</ele><time>2026-04-18T09:33:14.002Z</time></trkpt><trkpt lat="43.510766181875624" lon="10.840847153684837"><ele>183.0</ele><time>2026-04-18T09:33:16.002Z</time></trkpt><trkpt lat="43.510779750130745" lon="10.841006422922446"><ele>183.0</ele><time>2026-04-18T09:33:18.002Z</time></trkpt><trkpt lat="43.51079261521242" lon="10.841176380855241"><ele>183.0</ele><time>2026-04-18T09:33:20.002Z</time></trkpt><trkpt lat="43.51080738670049" lon="10.84134403034862"><ele>183.0</ele><time>2026-04-18T09:33:22.002Z</time></trkpt><trkpt lat="43.51082105626976" lon="10.841512917966156"><ele>183.0</ele><time>2026-04-18T09:33:24.002Z</time></trkpt><trkpt lat="43.510829720398604" lon="10.841599121942151"><ele>183.0</ele><time>2026-04-18T09:33:25.002Z</time></trkpt><trkpt lat="43.51083966886502" lon="10.841687663628619"><ele>183.5</ele><time>2026-04-18T09:33:26.002Z</time></trkpt><trkpt lat="43.51087002940803" lon="10.841852224927699"><ele>184.0</ele><time>2026-04-18T09:33:28.002Z</time></trkpt><trkpt lat="43.51091790370685" lon="10.842008967032397"><ele>184.5</ele><time>2026-04-18T09:33:30.002Z</time></trkpt><trkpt lat="43.51097417009155" lon="10.84214568741015"><ele>185.0</ele><time>2026-04-18T09:33:32Z</time></trkpt><trkpt lat="43.511027147761574" lon="10.84228759057363"><ele>185.0</ele><time>2026-04-18T09:33:34Z</time></trkpt><trkpt lat="43.51107059681585" lon="10.842427405965326"><ele>185.0</ele><time>2026-04-18T09:33:36Z</time></trkpt><trkpt lat="43.5110854975921" lon="10.842578702547323"><ele>185.0</ele><time>2026-04-18T09:33:38Z</time></trkpt><trkpt lat="43.51108905469731" lon="10.842715914978688"><ele>185.0</ele><time>2026-04-18T09:33:40Z</time></trkpt><trkpt lat="43.511095601191855" lon="10.842854495249268"><ele>185.0</ele><time>2026-04-18T09:33:42Z</time></trkpt><trkpt lat="43.51109639431129" lon="10.842993762831712"><ele>184.6</ele><time>2026-04-18T09:33:44Z</time></trkpt><trkpt lat="43.51107169132467" lon="10.843135778612641"><ele>184.2</ele><time>2026-04-18T09:33:46Z</time></trkpt><trkpt lat="43.5110695682649" lon="10.843281740606994"><ele>183.8</ele><time>2026-04-18T09:33:48Z</time></trkpt><trkpt lat="43.51103942713982" lon="10.84343292999299"><ele>183.4</ele><time>2026-04-18T09:33:50Z</time></trkpt><trkpt lat="43.51101388290884" lon="10.843595390530451"><ele>183.0</ele><time>2026-04-18T09:33:52Z</time></trkpt><trkpt lat="43.5109874810462" lon="10.843754057730406"><ele>182.33333333333334</ele><time>2026-04-18T09:33:54Z</time></trkpt><trkpt lat="43.51096983288596" lon="10.843915534319008"><ele>181.66666666666666</ele><time>2026-04-18T09:33:56Z</time></trkpt><trkpt lat="43.51098265005079" lon="10.8440800493431"><ele>181.0</ele><time>2026-04-18T09:33:58Z</time></trkpt><trkpt lat="43.51099394966798" lon="10.844167365541319"><ele>180.33333333333331</ele><time>2026-04-18T09:33:59Z</time></trkpt><trkpt lat="43.51100439366262" lon="10.844258198834474"><ele>179.66666666666666</ele><time>2026-04-18T09:34:00Z</time></trkpt><trkpt lat="43.51101327880223" lon="10.844344677698652"><ele>179.0</ele><time>2026-04-18T09:34:01Z</time></trkpt><trkpt lat="43.511032775505214" lon="10.844523152111146"><ele>178.66666666666666</ele><time>2026-04-18T09:34:03Z</time></trkpt><trkpt lat="43.5110504222027" lon="10.84460916909495"><ele>178.33333333333331</ele><time>2026-04-18T09:34:04Z</time></trkpt><trkpt lat="43.51109477131075" lon="10.844753993863673"><ele>178.0</ele><time>2026-04-18T09:34:06Z</time></trkpt><trkpt lat="43.51113251903784" lon="10.844862518394098"><ele>177.66666666666666</ele><time>2026-04-18T09:34:08Z</time></trkpt><trkpt lat="43.51116530295536" lon="10.84494274718076"><ele>177.33333333333334</ele><time>2026-04-18T09:34:10Z</time></trkpt><trkpt lat="43.51121348978529" lon="10.845031435628623"><ele>177.0</ele><time>2026-04-18T09:34:12Z</time></trkpt><trkpt lat="43.51126423160683" lon="10.845133983872728"><ele>177.0</ele><time>2026-04-18T09:34:14.001Z</time></trkpt><trkpt lat="43.51131434193584" lon="10.845226038832584"><ele>177.0</ele><time>2026-04-18T09:34:16.001Z</time></trkpt><trkpt lat="43.51136553668431" lon="10.845330423440712"><ele>177.0</ele><time>2026-04-18T09:34:18.001Z</time></trkpt><trkpt lat="43.51142417796547" lon="10.845436804176497"><ele>177.0</ele><time>2026-04-18T09:34:20.001Z</time></trkpt><trkpt lat="43.51148244419386" lon="10.845537378641266"><ele>177.0</ele><time>2026-04-18T09:34:22.001Z</time></trkpt><trkpt lat="43.51154504665934" lon="10.845641439784844"><ele>177.0</ele><time>2026-04-18T09:34:24.001Z</time></trkpt><trkpt lat="43.511596603963355" lon="10.84574453399078"><ele>177.0</ele><time>2026-04-18T09:34:26.001Z</time></trkpt><trkpt lat="43.51164633380939" lon="10.845861933926559"><ele>177.0</ele><time>2026-04-18T09:34:28.001Z</time></trkpt><trkpt lat="43.51168643887775" lon="10.845988409483088"><ele>177.0</ele><time>2026-04-18T09:34:30.001Z</time></trkpt><trkpt lat="43.51170876391964" lon="10.846114765161678"><ele>177.0</ele><time>2026-04-18T09:34:32.001Z</time></trkpt><trkpt lat="43.51171690804447" lon="10.846241659892305"><ele>177.39999999999998</ele><time>2026-04-18T09:34:34.001Z</time></trkpt><trkpt lat="43.511713285326806" lon="10.8463650693732"><ele>177.79999999999998</ele><time>2026-04-18T09:34:36.001Z</time></trkpt><trkpt lat="43.51170165036194" lon="10.846494663324703"><ele>178.2</ele><time>2026-04-18T09:34:38.001Z</time></trkpt><trkpt lat="43.511685293322266" lon="10.846623445655478"><ele>178.6</ele><time>2026-04-18T09:34:40.001Z</time></trkpt><trkpt lat="43.51166412425524" lon="10.846746568249547"><ele>179.0</ele><time>2026-04-18T09:34:42.001Z</time></trkpt><trkpt lat="43.511642628998274" lon="10.846880372628368"><ele>179.0</ele><time>2026-04-18T09:34:44.001Z</time></trkpt><trkpt lat="43.51160912982113" lon="10.847033519641952"><ele>179.0</ele><time>2026-04-18T09:34:46.001Z</time></trkpt><trkpt lat="43.51159701106742" lon="10.847179552668713"><ele>179.0</ele><time>2026-04-18T09:34:48.001Z</time></trkpt><trkpt lat="43.51161045395467" lon="10.847312562278894"><ele>179.0</ele><time>2026-04-18T09:34:50.001Z</time></trkpt><trkpt lat="43.511633043134715" lon="10.847422966603332"><ele>179.0</ele><time>2026-04-18T09:34:52.001Z</time></trkpt><trkpt lat="43.511633803441775" lon="10.847520100888785"><ele>179.00000000000003</ele><time>2026-04-18T09:34:54.001Z</time></trkpt><trkpt lat="43.51164950069748" lon="10.847625112112537"><ele>179.0</ele><time>2026-04-18T09:34:56.002Z</time></trkpt><trkpt lat="43.51168095184659" lon="10.847742188566253"><ele>179.0</ele><time>2026-04-18T09:34:59.002Z</time></trkpt><trkpt lat="43.511685742462326" lon="10.84783061971326"><ele>179.0</ele><time>2026-04-18T09:35:01.002Z</time></trkpt><trkpt lat="43.51169714856317" lon="10.847921001701287"><ele>179.0</ele><time>2026-04-18T09:35:03.002Z</time></trkpt><trkpt lat="43.51170865782134" lon="10.848016844014658"><ele>179.00000000000003</ele><time>2026-04-18T09:35:05.002Z</time></trkpt><trkpt lat="43.511718132697794" lon="10.848123076419759"><ele>179.0</ele><time>2026-04-18T09:35:07.002Z</time></trkpt><trkpt lat="43.51173395847531" lon="10.848237763896517"><ele>179.0</ele><time>2026-04-18T09:35:09.002Z</time></trkpt><trkpt lat="43.511755800158504" lon="10.84834712968057"><ele>179.0</ele><time>2026-04-18T09:35:11.002Z</time></trkpt><trkpt lat="43.51178169337407" lon="10.848446442207816"><ele>179.0</ele><time>2026-04-18T09:35:13.002Z</time></trkpt><trkpt lat="43.51181430761855" lon="10.848542665627242"><ele>179.0</ele><time>2026-04-18T09:35:15.002Z</time></trkpt><trkpt lat="43.51184346072791" lon="10.848652811013766"><ele>179.0</ele><time>2026-04-18T09:35:17.002Z</time></trkpt><trkpt lat="43.51187666869457" lon="10.848783565485173"><ele>179.0</ele><time>2026-04-18T09:35:19.002Z</time></trkpt><trkpt lat="43.511917179208254" lon="10.84893083141818"><ele>178.6</ele><time>2026-04-18T09:35:21.002Z</time></trkpt><trkpt lat="43.51197272193404" lon="10.849069642075458"><ele>178.2</ele><time>2026-04-18T09:35:23.002Z</time></trkpt><trkpt lat="43.51203221855102" lon="10.849179120043486"><ele>177.79999999999998</ele><time>2026-04-18T09:35:25.002Z</time></trkpt><trkpt lat="43.512094089726105" lon="10.849282127346378"><ele>177.39999999999998</ele><time>2026-04-18T09:35:27.002Z</time></trkpt><trkpt lat="43.512158478441364" lon="10.849388927029771"><ele>177.0</ele><time>2026-04-18T09:35:29.002Z</time></trkpt><trkpt lat="43.51223084525552" lon="10.849503190124652"><ele>176.2</ele><time>2026-04-18T09:35:31.002Z</time></trkpt><trkpt lat="43.512298550324424" lon="10.849613360585677"><ele>175.39999999999998</ele><time>2026-04-18T09:35:33.002Z</time></trkpt><trkpt lat="43.512366266430504" lon="10.849704243110125"><ele>174.60000000000002</ele><time>2026-04-18T09:35:35.002Z</time></trkpt><trkpt lat="43.51242712998453" lon="10.849796118352874"><ele>173.8</ele><time>2026-04-18T09:35:37Z</time></trkpt><trkpt lat="43.51249313498813" lon="10.849890989715458"><ele>173.0</ele><time>2026-04-18T09:35:39Z</time></trkpt><trkpt lat="43.512566405674626" lon="10.849991405112283"><ele>173.0</ele><time>2026-04-18T09:35:41Z</time></trkpt><trkpt lat="43.512643944082335" lon="10.850096242679374"><ele>173.0</ele><time>2026-04-18T09:35:43Z</time></trkpt><trkpt lat="43.512727654356524" lon="10.850197923002494"><ele>173.0</ele><time>2026-04-18T09:35:45Z</time></trkpt><trkpt lat="43.512817904119245" lon="10.850292705739825"><ele>173.0</ele><time>2026-04-18T09:35:47Z</time></trkpt><trkpt lat="43.512896810006445" lon="10.85039095169227"><ele>173.0</ele><time>2026-04-18T09:35:49Z</time></trkpt><trkpt lat="43.512973848178255" lon="10.850482619491222"><ele>173.2</ele><time>2026-04-18T09:35:51Z</time></trkpt><trkpt lat="43.51304843920226" lon="10.850574776081318"><ele>173.4</ele><time>2026-04-18T09:35:53Z</time></trkpt><trkpt lat="43.513118380078204" lon="10.85068861497925"><ele>173.6</ele><time>2026-04-18T09:35:55Z</time></trkpt><trkpt lat="43.51317269663518" lon="10.850828204128282"><ele>173.79999999999998</ele><time>2026-04-18T09:35:57Z</time></trkpt><trkpt lat="43.513154867339864" lon="10.850967701186487"><ele>174.0</ele><time>2026-04-18T09:35:59Z</time></trkpt><trkpt lat="43.513103810970456" lon="10.851093599706866"><ele>174.0</ele><time>2026-04-18T09:36:01Z</time></trkpt><trkpt lat="43.51305630845217" lon="10.851201531078113"><ele>174.0</ele><time>2026-04-18T09:36:03Z</time></trkpt><trkpt lat="43.51302165974375" lon="10.851330097758728"><ele>174.0</ele><time>2026-04-18T09:36:05Z</time></trkpt><trkpt lat="43.51299430337664" lon="10.85148446883914"><ele>174.0</ele><time>2026-04-18T09:36:07Z</time></trkpt><trkpt lat="43.51296623591585" lon="10.851569218040009"><ele>174.0</ele><time>2026-04-18T09:36:08Z</time></trkpt><trkpt lat="43.51296150065088" lon="10.851715360581727"><ele>174.0</ele><time>2026-04-18T09:36:10Z</time></trkpt><trkpt lat="43.51294741887441" lon="10.851868919589824"><ele>174.0</ele><time>2026-04-18T09:36:12Z</time></trkpt><trkpt lat="43.512914394684664" lon="10.852017066109884"><ele>174.0</ele><time>2026-04-18T09:36:14.001Z</time></trkpt><trkpt lat="43.51287299025565" lon="10.85216668120542"><ele>174.0</ele><time>2026-04-18T09:36:16.001Z</time></trkpt><trkpt lat="43.51283635295336" lon="10.852305294050213"><ele>174.0</ele><time>2026-04-18T09:36:18.001Z</time></trkpt><trkpt lat="43.51277752898358" lon="10.852439773850435"><ele>174.0</ele><time>2026-04-18T09:36:20.001Z</time></trkpt><trkpt lat="43.51271338907406" lon="10.852583511194027"><ele>174.0</ele><time>2026-04-18T09:36:22.001Z</time></trkpt><trkpt lat="43.51262789591931" lon="10.85268764998492"><ele>174.0</ele><time>2026-04-18T09:36:24.001Z</time></trkpt><trkpt lat="43.51252321989891" lon="10.852753680962897"><ele>174.0</ele><time>2026-04-18T09:36:26.001Z</time></trkpt><trkpt lat="43.51241974720638" lon="10.852844939914574"><ele>174.2</ele><time>2026-04-18T09:36:28.001Z</time></trkpt><trkpt lat="43.51235535965865" lon="10.852978602671701"><ele>174.39999999999998</ele><time>2026-04-18T09:36:30.001Z</time></trkpt><trkpt lat="43.51232793279193" lon="10.853110369626185"><ele>174.6</ele><time>2026-04-18T09:36:32.001Z</time></trkpt><trkpt lat="43.51231398489496" lon="10.853241381603691"><ele>174.8</ele><time>2026-04-18T09:36:34.001Z</time></trkpt><trkpt lat="43.51231086806953" lon="10.853360822591517"><ele>175.0</ele><time>2026-04-18T09:36:36.001Z</time></trkpt><trkpt lat="43.51231371858421" lon="10.853474469687452"><ele>175.0</ele><time>2026-04-18T09:36:38.001Z</time></trkpt><trkpt lat="43.512315077329426" lon="10.85356679971476"><ele>175.0</ele><time>2026-04-18T09:36:40.001Z</time></trkpt><trkpt lat="43.51229939247987" lon="10.853689887922563"><ele>175.0</ele><time>2026-04-18T09:36:43.001Z</time></trkpt><trkpt lat="43.512307379249314" lon="10.85383268649734"><ele>175.0</ele><time>2026-04-18T09:36:46.001Z</time></trkpt><trkpt lat="43.51229784258775" lon="10.853958379314175"><ele>175.0</ele><time>2026-04-18T09:36:48.001Z</time></trkpt><trkpt lat="43.5122822926399" lon="10.854098345142674"><ele>175.0</ele><time>2026-04-18T09:36:50.001Z</time></trkpt><trkpt lat="43.51227748128655" lon="10.854255982908848"><ele>175.0</ele><time>2026-04-18T09:36:52.001Z</time></trkpt><trkpt lat="43.5122642138228" lon="10.854392339122889"><ele>175.0</ele><time>2026-04-18T09:36:54.001Z</time></trkpt><trkpt lat="43.51225814200228" lon="10.85448319008989"><ele>175.0</ele><time>2026-04-18T09:36:56.002Z</time></trkpt><trkpt lat="43.51225210785407" lon="10.854610571594725"><ele>175.0</ele><time>2026-04-18T09:36:59.002Z</time></trkpt><trkpt lat="43.512246524212955" lon="10.854703396341126"><ele>175.0</ele><time>2026-04-18T09:37:01.002Z</time></trkpt><trkpt lat="43.51224011549674" lon="10.854803504357717"><ele>175.2</ele><time>2026-04-18T09:37:03.002Z</time></trkpt><trkpt lat="43.5122349644056" lon="10.854923747846152"><ele>175.4</ele><time>2026-04-18T09:37:05.002Z</time></trkpt><trkpt lat="43.51222888612871" lon="10.85504288733538"><ele>175.60000000000002</ele><time>2026-04-18T09:37:07.002Z</time></trkpt><trkpt lat="43.512214908744106" lon="10.855174915395233"><ele>175.8</ele><time>2026-04-18T09:37:09.002Z</time></trkpt><trkpt lat="43.51219934227169" lon="10.855325172865006"><ele>176.0</ele><time>2026-04-18T09:37:11.002Z</time></trkpt><trkpt lat="43.512183310975914" lon="10.855490055279676"><ele>176.20000000000002</ele><time>2026-04-18T09:37:13.002Z</time></trkpt><trkpt lat="43.51216942235526" lon="10.855656134610236"><ele>176.4</ele><time>2026-04-18T09:37:15.002Z</time></trkpt><trkpt lat="43.51215848801206" lon="10.85582805634821"><ele>176.6</ele><time>2026-04-18T09:37:17.002Z</time></trkpt><trkpt lat="43.512152014007015" lon="10.855921779756239"><ele>176.8</ele><time>2026-04-18T09:37:18.002Z</time></trkpt><trkpt lat="43.51214308786266" lon="10.856013669030908"><ele>177.0</ele><time>2026-04-18T09:37:19.002Z</time></trkpt><trkpt lat="43.51213176878601" lon="10.85611114062487"><ele>177.2857142857143</ele><time>2026-04-18T09:37:20.002Z</time></trkpt><trkpt lat="43.51212341225376" lon="10.856206567417557"><ele>177.57142857142856</ele><time>2026-04-18T09:37:21.002Z</time></trkpt><trkpt lat="43.51211117011768" lon="10.856303881189529"><ele>177.85714285714286</ele><time>2026-04-18T09:37:22.002Z</time></trkpt><trkpt lat="43.51209161081427" lon="10.856396439720827"><ele>178.14285714285717</ele><time>2026-04-18T09:37:23.002Z</time></trkpt><trkpt lat="43.512087428245785" lon="10.856490766064468"><ele>178.42857142857144</ele><time>2026-04-18T09:37:24.002Z</time></trkpt><trkpt lat="43.51206859769876" lon="10.856593532471901"><ele>178.71428571428572</ele><time>2026-04-18T09:37:25.002Z</time></trkpt><trkpt lat="43.51205369714108" lon="10.856701884247096"><ele>179.0</ele><time>2026-04-18T09:37:26.002Z</time></trkpt><trkpt lat="43.51203987158371" lon="10.856806964166505"><ele>179.2857142857143</ele><time>2026-04-18T09:37:27.002Z</time></trkpt><trkpt lat="43.51203014105275" lon="10.856910511754181"><ele>179.57142857142858</ele><time>2026-04-18T09:37:28.002Z</time></trkpt><trkpt lat="43.51202192323367" lon="10.857009514097324"><ele>179.85714285714286</ele><time>2026-04-18T09:37:29.002Z</time></trkpt><trkpt lat="43.51202388288468" lon="10.857106510264385"><ele>180.14285714285717</ele><time>2026-04-18T09:37:30.002Z</time></trkpt><trkpt lat="43.512028247699355" lon="10.857201323551458"><ele>180.42857142857142</ele><time>2026-04-18T09:37:31.002Z</time></trkpt><trkpt lat="43.512034409514456" lon="10.857295217440456"><ele>180.71428571428572</ele><time>2026-04-18T09:37:32.002Z</time></trkpt><trkpt lat="43.51204785735833" lon="10.857387629212901"><ele>181.0</ele><time>2026-04-18T09:37:33.002Z</time></trkpt><trkpt lat="43.51206692180444" lon="10.85748193764641"><ele>181.28571428571428</ele><time>2026-04-18T09:37:34.002Z</time></trkpt><trkpt lat="43.51209093520783" lon="10.857575616340862"><ele>181.57142857142856</ele><time>2026-04-18T09:37:35.002Z</time></trkpt><trkpt lat="43.512115683724836" lon="10.857670682268802"><ele>181.85714285714286</ele><time>2026-04-18T09:37:36.002Z</time></trkpt><trkpt lat="43.51214256113686" lon="10.857762545917332"><ele>182.14285714285714</ele><time>2026-04-18T09:37:37.002Z</time></trkpt><trkpt lat="43.51216272161718" lon="10.857854203044429"><ele>182.42857142857144</ele><time>2026-04-18T09:37:38.002Z</time></trkpt><trkpt lat="43.51218443298012" lon="10.857936925219802"><ele>182.71428571428572</ele><time>2026-04-18T09:37:39.002Z</time></trkpt><trkpt lat="43.512209636746576" lon="10.858024790376874"><ele>183.0</ele><time>2026-04-18T09:37:40.003Z</time></trkpt><trkpt lat="43.51223472286427" lon="10.858111313860041"><ele>183.0</ele><time>2026-04-18T09:37:41.003Z</time></trkpt><trkpt lat="43.512267215519486" lon="10.858188257270232"><ele>183.0</ele><time>2026-04-18T09:37:42.003Z</time></trkpt><trkpt lat="43.51229695299852" lon="10.8582689134932"><ele>183.0</ele><time>2026-04-18T09:37:43Z</time></trkpt><trkpt lat="43.51231207411289" lon="10.858360628390006"><ele>183.0</ele><time>2026-04-18T09:37:44Z</time></trkpt><trkpt lat="43.51236410850372" lon="10.858516586300716"><ele>183.0</ele><time>2026-04-18T09:37:46Z</time></trkpt><trkpt lat="43.51242875054002" lon="10.85866483936828"><ele>183.0</ele><time>2026-04-18T09:37:48Z</time></trkpt><trkpt lat="43.51246885678035" lon="10.858754999336691"><ele>182.5</ele><time>2026-04-18T09:37:49Z</time></trkpt><trkpt lat="43.51251179856808" lon="10.858830791440539"><ele>182.0</ele><time>2026-04-18T09:37:50Z</time></trkpt><trkpt lat="43.512557942106234" lon="10.85889868357902"><ele>181.5</ele><time>2026-04-18T09:37:51Z</time></trkpt><trkpt lat="43.51260480919208" lon="10.858968048658236"><ele>181.0</ele><time>2026-04-18T09:37:52Z</time></trkpt><trkpt lat="43.512652911391314" lon="10.85903876390549"><ele>180.5</ele><time>2026-04-18T09:37:53Z</time></trkpt><trkpt lat="43.51269828084406" lon="10.859110484336552"><ele>180.0</ele><time>2026-04-18T09:37:54Z</time></trkpt><trkpt lat="43.51278306266836" lon="10.859257436577527"><ele>180.7142857142857</ele><time>2026-04-18T09:37:56Z</time></trkpt><trkpt lat="43.51282675667253" lon="10.859328025801634"><ele>181.42857142857144</ele><time>2026-04-18T09:37:57Z</time></trkpt><trkpt lat="43.51287115743638" lon="10.85939396899553"><ele>182.14285714285714</ele><time>2026-04-18T09:37:58Z</time></trkpt><trkpt lat="43.51291464841465" lon="10.8594580575152"><ele>182.85714285714283</ele><time>2026-04-18T09:37:59Z</time></trkpt><trkpt lat="43.512962497678195" lon="10.859521168136093"><ele>183.57142857142856</ele><time>2026-04-18T09:38:00Z</time></trkpt><trkpt lat="43.513016130589065" lon="10.859576571310127"><ele>184.28571428571428</ele><time>2026-04-18T09:38:01Z</time></trkpt><trkpt lat="43.51307393777884" lon="10.859632492308673"><ele>185.0</ele><time>2026-04-18T09:38:02Z</time></trkpt><trkpt lat="43.51317433748734" lon="10.859724473194273"><ele>185.0</ele><time>2026-04-18T09:38:04Z</time></trkpt><trkpt lat="43.51322087846162" lon="10.859783165065082"><ele>185.0</ele><time>2026-04-18T09:38:05Z</time></trkpt><trkpt lat="43.51330177470125" lon="10.859905427809654"><ele>185.0</ele><time>2026-04-18T09:38:07Z</time></trkpt><trkpt lat="43.513384177144786" lon="10.860034115492565"><ele>185.0</ele><time>2026-04-18T09:38:09Z</time></trkpt><trkpt lat="43.51342926220326" lon="10.860107508809307"><ele>185.0</ele><time>2026-04-18T09:38:10Z</time></trkpt><trkpt lat="43.51347550123178" lon="10.86017342584723"><ele>185.0</ele><time>2026-04-18T09:38:11Z</time></trkpt><trkpt lat="43.51352658671551" lon="10.860239438197768"><ele>184.7142857142857</ele><time>2026-04-18T09:38:12.001Z</time></trkpt><trkpt lat="43.51357575335857" lon="10.860300146492351"><ele>184.42857142857142</ele><time>2026-04-18T09:38:13.001Z</time></trkpt><trkpt lat="43.513624166214036" lon="10.860359404027076"><ele>184.14285714285714</ele><time>2026-04-18T09:38:14.001Z</time></trkpt><trkpt lat="43.513675298692434" lon="10.860414839360388"><ele>183.85714285714283</ele><time>2026-04-18T09:38:15.001Z</time></trkpt><trkpt lat="43.51372769908287" lon="10.8604649639693"><ele>183.57142857142858</ele><time>2026-04-18T09:38:16.001Z</time></trkpt><trkpt lat="43.513784002739555" lon="10.860511806829615"><ele>183.28571428571428</ele><time>2026-04-18T09:38:17.001Z</time></trkpt><trkpt lat="43.51384561373788" lon="10.860545668590095"><ele>183.0</ele><time>2026-04-18T09:38:18.001Z</time></trkpt><trkpt lat="43.51391515324807" lon="10.860567544880325"><ele>185.2</ele><time>2026-04-18T09:38:19.001Z</time></trkpt><trkpt lat="43.51397804650944" lon="10.860588838940393"><ele>187.4</ele><time>2026-04-18T09:38:20.001Z</time></trkpt><trkpt lat="43.51408044259713" lon="10.860643850007307"><ele>189.6</ele><time>2026-04-18T09:38:22.001Z</time></trkpt><trkpt lat="43.514166237752924" lon="10.860719691180238"><ele>191.79999999999998</ele><time>2026-04-18T09:38:24.001Z</time></trkpt><trkpt lat="43.51423289114461" lon="10.86082838242878"><ele>194.0</ele><time>2026-04-18T09:38:26.001Z</time></trkpt><trkpt lat="43.514265869017386" lon="10.860950021027273"><ele>195.6</ele><time>2026-04-18T09:38:28.001Z</time></trkpt><trkpt lat="43.51430164359783" lon="10.861067911554136"><ele>197.2</ele><time>2026-04-18T09:38:30.001Z</time></trkpt><trkpt lat="43.51433839276612" lon="10.861171403509378"><ele>198.79999999999998</ele><time>2026-04-18T09:38:32.001Z</time></trkpt><trkpt lat="43.51436060505706" lon="10.861290340940371"><ele>200.39999999999998</ele><time>2026-04-18T09:38:34.001Z</time></trkpt><trkpt lat="43.51438907278077" lon="10.861456116445147"><ele>202.0</ele><time>2026-04-18T09:38:36.001Z</time></trkpt><trkpt lat="43.51439275130798" lon="10.861544484983124"><ele>202.0</ele><time>2026-04-18T09:38:37.001Z</time></trkpt><trkpt lat="43.51436169386682" lon="10.861689200947506"><ele>202.0</ele><time>2026-04-18T09:38:39.001Z</time></trkpt><trkpt lat="43.51429066073386" lon="10.86179454458937"><ele>202.0</ele><time>2026-04-18T09:38:41.001Z</time></trkpt><trkpt lat="43.51418642308793" lon="10.86186878332874"><ele>202.0</ele><time>2026-04-18T09:38:43.001Z</time></trkpt><trkpt lat="43.51407280231816" lon="10.861960295667165"><ele>202.49999999999997</ele><time>2026-04-18T09:38:45.001Z</time></trkpt><trkpt lat="43.514021083459006" lon="10.862030874757812"><ele>203.0</ele><time>2026-04-18T09:38:46.001Z</time></trkpt><trkpt lat="43.513974205282786" lon="10.86210720981044"><ele>203.5</ele><time>2026-04-18T09:38:47.001Z</time></trkpt><trkpt lat="43.51393200658042" lon="10.862186879275278"><ele>204.0</ele><time>2026-04-18T09:38:48.001Z</time></trkpt><trkpt lat="43.513902665020396" lon="10.862271506455542"><ele>204.49999999999997</ele><time>2026-04-18T09:38:49.001Z</time></trkpt><trkpt lat="43.513879266003286" lon="10.862353280947147"><ele>205.0</ele><time>2026-04-18T09:38:50.001Z</time></trkpt><trkpt lat="43.51385676044462" lon="10.86252931034577"><ele>206.0</ele><time>2026-04-18T09:38:52.001Z</time></trkpt><trkpt lat="43.513856121968914" lon="10.862628452079186"><ele>207.0</ele><time>2026-04-18T09:38:53.001Z</time></trkpt><trkpt lat="43.51386870263697" lon="10.862789493957658"><ele>208.0</ele><time>2026-04-18T09:38:55.001Z</time></trkpt><trkpt lat="43.51388949597208" lon="10.862943038772288"><ele>209.0</ele><time>2026-04-18T09:38:57.001Z</time></trkpt><trkpt lat="43.513924316659555" lon="10.86307733764087"><ele>210.0</ele><time>2026-04-18T09:38:59.001Z</time></trkpt><trkpt lat="43.51397634315127" lon="10.863185670497534"><ele>210.0</ele><time>2026-04-18T09:39:01.002Z</time></trkpt><trkpt lat="43.51403545957994" lon="10.863293710304044"><ele>210.0</ele><time>2026-04-18T09:39:03.002Z</time></trkpt><trkpt lat="43.51411599224639" lon="10.863423453532576"><ele>210.0</ele><time>2026-04-18T09:39:05.002Z</time></trkpt><trkpt lat="43.514155703442434" lon="10.863496435128917"><ele>210.0</ele><time>2026-04-18T09:39:06.002Z</time></trkpt><trkpt lat="43.51418637653102" lon="10.863575098720549"><ele>210.0</ele><time>2026-04-18T09:39:07.002Z</time></trkpt><trkpt lat="43.51420638950948" lon="10.863665915833648"><ele>210.0</ele><time>2026-04-18T09:39:08.002Z</time></trkpt><trkpt lat="43.51422309384593" lon="10.863762391232925"><ele>211.0</ele><time>2026-04-18T09:39:09.002Z</time></trkpt><trkpt lat="43.514214710649405" lon="10.863862816163417"><ele>212.0</ele><time>2026-04-18T09:39:10.002Z</time></trkpt><trkpt lat="43.514219376114376" lon="10.863965594001186"><ele>213.0</ele><time>2026-04-18T09:39:11.002Z</time></trkpt><trkpt lat="43.51423478357403" lon="10.864061564166805"><ele>214.0</ele><time>2026-04-18T09:39:12.002Z</time></trkpt><trkpt lat="43.51424923360506" lon="10.864237654916085"><ele>215.0</ele><time>2026-04-18T09:39:14.002Z</time></trkpt><trkpt lat="43.51426652193167" lon="10.864341216007073"><ele>216.0</ele><time>2026-04-18T09:39:15.002Z</time></trkpt><trkpt lat="43.51427894959224" lon="10.86443644861995"><ele>217.5</ele><time>2026-04-18T09:39:16.002Z</time></trkpt><trkpt lat="43.5142835737248" lon="10.864534957711541"><ele>219.0</ele><time>2026-04-18T09:39:17.002Z</time></trkpt><trkpt lat="43.51428840822275" lon="10.864625088344024"><ele>220.5</ele><time>2026-04-18T09:39:18.002Z</time></trkpt><trkpt lat="43.51429459454217" lon="10.864711683806666"><ele>222.0</ele><time>2026-04-18T09:39:19.002Z</time></trkpt><trkpt lat="43.514307945666374" lon="10.864870307543764"><ele>223.5</ele><time>2026-04-18T09:39:21.002Z</time></trkpt><trkpt lat="43.51431978000833" lon="10.865007656989697"><ele>225.0</ele><time>2026-04-18T09:39:23.002Z</time></trkpt><trkpt lat="43.514331699225906" lon="10.865134619517246"><ele>227.0</ele><time>2026-04-18T09:39:25.002Z</time></trkpt><trkpt lat="43.51434634619496" lon="10.865268246056708"><ele>229.0</ele><time>2026-04-18T09:39:27.002Z</time></trkpt><trkpt lat="43.514361618474034" lon="10.865393607376838"><ele>231.0</ele><time>2026-04-18T09:39:29.002Z</time></trkpt><trkpt lat="43.514375278911025" lon="10.865505629839586"><ele>233.0</ele><time>2026-04-18T09:39:31.002Z</time></trkpt><trkpt lat="43.51438391531796" lon="10.865642850971863"><ele>235.0</ele><time>2026-04-18T09:39:33.002Z</time></trkpt><trkpt lat="43.51440188446331" lon="10.865786825176272"><ele>235.0</ele><time>2026-04-18T09:39:35.002Z</time></trkpt><trkpt lat="43.51441161097524" lon="10.865878755888023"><ele>234.99999999999997</ele><time>2026-04-18T09:39:36.002Z</time></trkpt><trkpt lat="43.51442596304382" lon="10.865972533367094"><ele>235.0</ele><time>2026-04-18T09:39:37.002Z</time></trkpt><trkpt lat="43.514443922873575" lon="10.866072922454842"><ele>235.0</ele><time>2026-04-18T09:39:38.002Z</time></trkpt><trkpt lat="43.51446374541214" lon="10.866171946913985"><ele>234.99999999999997</ele><time>2026-04-18T09:39:39.002Z</time></trkpt><trkpt lat="43.51448282226144" lon="10.866271950476445"><ele>235.0</ele><time>2026-04-18T09:39:40.002Z</time></trkpt><trkpt lat="43.514502070021905" lon="10.866371595043216"><ele>235.0</ele><time>2026-04-18T09:39:41.002Z</time></trkpt><trkpt lat="43.51452224373099" lon="10.866465298293884"><ele>235.85714285714283</ele><time>2026-04-18T09:39:42.002Z</time></trkpt><trkpt lat="43.514539808859325" lon="10.866561863731002"><ele>236.7142857142857</ele><time>2026-04-18T09:39:43.002Z</time></trkpt><trkpt lat="43.514555809744664" lon="10.866658651088704"><ele>237.57142857142856</ele><time>2026-04-18T09:39:44.002Z</time></trkpt><trkpt lat="43.514562724814205" lon="10.866748488503207"><ele>238.42857142857144</ele><time>2026-04-18T09:39:45.002Z</time></trkpt><trkpt lat="43.514564203367755" lon="10.866835628802018"><ele>239.2857142857143</ele><time>2026-04-18T09:39:46.003Z</time></trkpt><trkpt lat="43.51456194008663" lon="10.866923982486611"><ele>240.14285714285717</ele><time>2026-04-18T09:39:47.003Z</time></trkpt><trkpt lat="43.514555724234775" lon="10.867019091249833"><ele>241.0</ele><time>2026-04-18T09:39:48.003Z</time></trkpt><trkpt lat="43.51455900353391" lon="10.867117865700246"><ele>240.99999999999997</ele><time>2026-04-18T09:39:49Z</time></trkpt><trkpt lat="43.514574364591844" lon="10.867219184636294"><ele>241.0</ele><time>2026-04-18T09:39:50Z</time></trkpt><trkpt lat="43.51458421696842" lon="10.867323321724347"><ele>241.0</ele><time>2026-04-18T09:39:51Z</time></trkpt><trkpt lat="43.514611723182036" lon="10.867427066469403"><ele>241.0</ele><time>2026-04-18T09:39:52Z</time></trkpt><trkpt lat="43.51464695420942" lon="10.867518664288047"><ele>240.99999999999997</ele><time>2026-04-18T09:39:53Z</time></trkpt><trkpt lat="43.514692524291185" lon="10.867616230761035"><ele>241.0</ele><time>2026-04-18T09:39:54Z</time></trkpt><trkpt lat="43.51474414365718" lon="10.86770465011184"><ele>240.99999999999997</ele><time>2026-04-18T09:39:55Z</time></trkpt><trkpt lat="43.51478389481621" lon="10.867805041586173"><ele>241.0</ele><time>2026-04-18T09:39:56Z</time></trkpt><trkpt lat="43.51482645856369" lon="10.867906222915405"><ele>241.0</ele><time>2026-04-18T09:39:57Z</time></trkpt><trkpt lat="43.51487044757146" lon="10.868009267345418"><ele>241.0</ele><time>2026-04-18T09:39:58Z</time></trkpt><trkpt lat="43.514916676467486" lon="10.868098319237008"><ele>240.99999999999997</ele><time>2026-04-18T09:39:59Z</time></trkpt><trkpt lat="43.514958601622865" lon="10.868170883740786"><ele>241.0</ele><time>2026-04-18T09:40:00Z</time></trkpt><trkpt lat="43.51500094905136" lon="10.868242656223915"><ele>240.99999999999997</ele><time>2026-04-18T09:40:01Z</time></trkpt><trkpt lat="43.51504643702349" lon="10.868317022423655"><ele>241.0</ele><time>2026-04-18T09:40:02Z</time></trkpt><trkpt lat="43.51509249093662" lon="10.868395885598018"><ele>241.0</ele><time>2026-04-18T09:40:03Z</time></trkpt><trkpt lat="43.51514475236528" lon="10.868480419496997"><ele>241.0</ele><time>2026-04-18T09:40:04Z</time></trkpt><trkpt lat="43.51519602215351" lon="10.86856672564744"><ele>240.99999999999997</ele><time>2026-04-18T09:40:05Z</time></trkpt><trkpt lat="43.51524532111876" lon="10.868662378244764"><ele>241.0</ele><time>2026-04-18T09:40:06Z</time></trkpt><trkpt lat="43.515301359529275" lon="10.86875367738975"><ele>240.20000000000002</ele><time>2026-04-18T09:40:07Z</time></trkpt><trkpt lat="43.515361696349494" lon="10.868844939853"><ele>239.40000000000003</ele><time>2026-04-18T09:40:08Z</time></trkpt><trkpt lat="43.51542308268501" lon="10.868930017361874"><ele>238.6</ele><time>2026-04-18T09:40:09Z</time></trkpt><trkpt lat="43.515486055651635" lon="10.869021236553644"><ele>237.8</ele><time>2026-04-18T09:40:10Z</time></trkpt><trkpt lat="43.51555005138884" lon="10.869109417554707"><ele>237.0</ele><time>2026-04-18T09:40:11Z</time></trkpt><trkpt lat="43.51562038726157" lon="10.869197758183713"><ele>239.83333333333334</ele><time>2026-04-18T09:40:12Z</time></trkpt><trkpt lat="43.51568915796093" lon="10.869289096319026"><ele>242.66666666666669</ele><time>2026-04-18T09:40:13Z</time></trkpt><trkpt lat="43.51575305305191" lon="10.869377503803245"><ele>245.5</ele><time>2026-04-18T09:40:14Z</time></trkpt><trkpt lat="43.515815487958776" lon="10.869466390798403"><ele>248.33333333333334</ele><time>2026-04-18T09:40:15Z</time></trkpt><trkpt lat="43.51587125201937" lon="10.869552727385104"><ele>251.16666666666669</ele><time>2026-04-18T09:40:16Z</time></trkpt><trkpt lat="43.5159288927587" lon="10.86963366679872"><ele>254.0</ele><time>2026-04-18T09:40:17Z</time></trkpt><trkpt lat="43.51598367717848" lon="10.86971150618101"><ele>254.00000000000003</ele><time>2026-04-18T09:40:18Z</time></trkpt><trkpt lat="43.51603381927977" lon="10.869789118291914"><ele>254.0</ele><time>2026-04-18T09:40:19Z</time></trkpt><trkpt lat="43.516084892236066" lon="10.869863944443114"><ele>254.0</ele><time>2026-04-18T09:40:20Z</time></trkpt><trkpt lat="43.516130841106325" lon="10.869934691515367"><ele>254.0</ele><time>2026-04-18T09:40:21Z</time></trkpt><trkpt lat="43.51617478783855" lon="10.870003622649575"><ele>254.00000000000003</ele><time>2026-04-18T09:40:22.001Z</time></trkpt><trkpt lat="43.51621791996892" lon="10.87007542471639"><ele>254.0</ele><time>2026-04-18T09:40:23.001Z</time></trkpt><trkpt lat="43.516279309732845" lon="10.87022393016843"><ele>256.5</ele><time>2026-04-18T09:40:25.001Z</time></trkpt><trkpt lat="43.51628477702699" lon="10.87039755428735"><ele>259.0</ele><time>2026-04-18T09:40:27.001Z</time></trkpt><trkpt lat="43.51627182919816" lon="10.870491421074352"><ele>261.5</ele><time>2026-04-18T09:40:28.001Z</time></trkpt><trkpt lat="43.51626063892905" lon="10.870589020647088"><ele>264.0</ele><time>2026-04-18T09:40:29.001Z</time></trkpt><trkpt lat="43.51625521183305" lon="10.870687424988075"><ele>266.5</ele><time>2026-04-18T09:40:30.001Z</time></trkpt><trkpt lat="43.51625235941765" lon="10.87078379318733"><ele>269.0</ele><time>2026-04-18T09:40:31.001Z</time></trkpt><trkpt lat="43.516235188727535" lon="10.870870906959317"><ele>271.83333333333337</ele><time>2026-04-18T09:40:32.001Z</time></trkpt><trkpt lat="43.516201395593576" lon="10.87095678408001"><ele>274.6666666666667</ele><time>2026-04-18T09:40:33.001Z</time></trkpt><trkpt lat="43.51608304247412" lon="10.870973897914562"><ele>277.5</ele><time>2026-04-18T09:40:35.001Z</time></trkpt><trkpt lat="43.51600752089623" lon="10.870960496016352"><ele>280.3333333333333</ele><time>2026-04-18T09:40:36.001Z</time></trkpt><trkpt lat="43.51592939075755" lon="10.870964057007926"><ele>283.16666666666663</ele><time>2026-04-18T09:40:37.001Z</time></trkpt><trkpt lat="43.51585042625866" lon="10.870960615440524"><ele>286.0</ele><time>2026-04-18T09:40:38.001Z</time></trkpt><trkpt lat="43.51578208896722" lon="10.87103827384213"><ele>286.0</ele><time>2026-04-18T09:40:39.001Z</time></trkpt><trkpt lat="43.51571908956423" lon="10.871110815954365"><ele>286.0</ele><time>2026-04-18T09:40:40.001Z</time></trkpt><trkpt lat="43.51566988107038" lon="10.87120003594146"><ele>286.0</ele><time>2026-04-18T09:40:41.001Z</time></trkpt><trkpt lat="43.515631797448584" lon="10.871290714999482"><ele>286.0</ele><time>2026-04-18T09:40:42.001Z</time></trkpt><trkpt lat="43.51559730195182" lon="10.8714101770977"><ele>286.0</ele><time>2026-04-18T09:40:43.001Z</time></trkpt><trkpt lat="43.51558613018648" lon="10.871529057220856"><ele>286.0</ele><time>2026-04-18T09:40:44.001Z</time></trkpt><trkpt lat="43.51556913952869" lon="10.871634238824011"><ele>286.0</ele><time>2026-04-18T09:40:45.001Z</time></trkpt><trkpt lat="43.51555518934283" lon="10.871727101544302"><ele>286.0</ele><time>2026-04-18T09:40:46.001Z</time></trkpt><trkpt lat="43.51553565950549" lon="10.871891334810599"><ele>286.0</ele><time>2026-04-18T09:40:48.001Z</time></trkpt><trkpt lat="43.51555400710802" lon="10.87203926141789"><ele>286.0</ele><time>2026-04-18T09:40:50.001Z</time></trkpt><trkpt lat="43.515634390341134" lon="10.87210071208261"><ele>286.0</ele><time>2026-04-18T09:40:52.001Z</time></trkpt><trkpt lat="43.51570981976723" lon="10.872118157302651"><ele>287.66666666666663</ele><time>2026-04-18T09:40:53.001Z</time></trkpt><trkpt lat="43.51580456696365" lon="10.872137874356875"><ele>289.3333333333333</ele><time>2026-04-18T09:40:54.001Z</time></trkpt><trkpt lat="43.51590313437229" lon="10.872154507899278"><ele>291.0</ele><time>2026-04-18T09:40:55.001Z</time></trkpt><trkpt lat="43.51600529063505" lon="10.87216195972961"><ele>292.6666666666667</ele><time>2026-04-18T09:40:56.001Z</time></trkpt><trkpt lat="43.51606496442325" lon="10.872202380588073"><ele>294.33333333333337</ele><time>2026-04-18T09:40:57.001Z</time></trkpt><trkpt lat="43.516112785650314" lon="10.872260278389367"><ele>296.0</ele><time>2026-04-18T09:40:58.001Z</time></trkpt><trkpt lat="43.51614713036234" lon="10.872335901180877"><ele>296.0</ele><time>2026-04-18T09:40:59.001Z</time></trkpt><trkpt lat="43.51614248628958" lon="10.872447679835169"><ele>296.0</ele><time>2026-04-18T09:41:00.001Z</time></trkpt><trkpt lat="43.51614833261103" lon="10.872559447152634"><ele>296.0</ele><time>2026-04-18T09:41:01.001Z</time></trkpt><trkpt lat="43.51615726928182" lon="10.872674847250131"><ele>296.0</ele><time>2026-04-18T09:41:02.001Z</time></trkpt><trkpt lat="43.516221273381575" lon="10.872765559012446"><ele>296.0</ele><time>2026-04-18T09:41:03.001Z</time></trkpt><trkpt lat="43.51627874771119" lon="10.872833984968032"><ele>296.0</ele><time>2026-04-18T09:41:04.001Z</time></trkpt><trkpt lat="43.51636115516135" lon="10.872934543482328"><ele>299.33333333333337</ele><time>2026-04-18T09:41:06.001Z</time></trkpt><trkpt lat="43.51639431097484" lon="10.87304931719619"><ele>302.6666666666667</ele><time>2026-04-18T09:41:08.001Z</time></trkpt><trkpt lat="43.51637595364832" lon="10.873133219074457"><ele>306.0</ele><time>2026-04-18T09:41:09.002Z</time></trkpt><trkpt lat="43.516339457870814" lon="10.873237685625108"><ele>309.3333333333333</ele><time>2026-04-18T09:41:10.002Z</time></trkpt><trkpt lat="43.51632225455223" lon="10.873351433989223"><ele>312.66666666666663</ele><time>2026-04-18T09:41:11.002Z</time></trkpt><trkpt lat="43.51632792319737" lon="10.873467410529425"><ele>316.0</ele><time>2026-04-18T09:41:12.002Z</time></trkpt><trkpt lat="43.51631507859124" lon="10.873577451440399"><ele>316.66666666666663</ele><time>2026-04-18T09:41:13.002Z</time></trkpt><trkpt lat="43.51632512347427" lon="10.873692355765257"><ele>317.3333333333333</ele><time>2026-04-18T09:41:14.002Z</time></trkpt><trkpt lat="43.516307652635845" lon="10.873798761608915"><ele>318.0</ele><time>2026-04-18T09:41:15.002Z</time></trkpt><trkpt lat="43.516279496661916" lon="10.873903372779681"><ele>318.6666666666667</ele><time>2026-04-18T09:41:16.002Z</time></trkpt><trkpt lat="43.51626206403028" lon="10.87400715251922"><ele>319.33333333333337</ele><time>2026-04-18T09:41:17.002Z</time></trkpt><trkpt lat="43.51623900737723" lon="10.874096528724511"><ele>320.0</ele><time>2026-04-18T09:41:18.002Z</time></trkpt><trkpt lat="43.51621056187422" lon="10.874203945996321"><ele>319.1666666666667</ele><time>2026-04-18T09:41:19.002Z</time></trkpt><trkpt lat="43.516148954832516" lon="10.874323838625472"><ele>318.33333333333337</ele><time>2026-04-18T09:41:20.002Z</time></trkpt><trkpt lat="43.516102064994634" lon="10.874402284800308"><ele>317.5</ele><time>2026-04-18T09:41:21.002Z</time></trkpt><trkpt lat="43.51604500727208" lon="10.874456256998915"><ele>316.6666666666667</ele><time>2026-04-18T09:41:22.002Z</time></trkpt><trkpt lat="43.51595145226726" lon="10.874547964420886"><ele>315.8333333333333</ele><time>2026-04-18T09:41:24.002Z</time></trkpt><trkpt lat="43.515889768115755" lon="10.874569385734924"><ele>315.0</ele><time>2026-04-18T09:41:25.002Z</time></trkpt><trkpt lat="43.51582646264535" lon="10.874562477752983"><ele>315.0</ele><time>2026-04-18T09:41:26.002Z</time></trkpt><trkpt lat="43.51576720827541" lon="10.874591861511178"><ele>315.0</ele><time>2026-04-18T09:41:27.002Z</time></trkpt><trkpt lat="43.51569595132855" lon="10.874644303582594"><ele>315.0</ele><time>2026-04-18T09:41:28.002Z</time></trkpt><trkpt lat="43.515639702484776" lon="10.874715994714714"><ele>315.0</ele><time>2026-04-18T09:41:29.002Z</time></trkpt><trkpt lat="43.51556640118212" lon="10.874786245588728"><ele>315.0</ele><time>2026-04-18T09:41:30.002Z</time></trkpt><trkpt lat="43.515491492844" lon="10.874849829049225"><ele>315.0</ele><time>2026-04-18T09:41:31.002Z</time></trkpt><trkpt lat="43.51542355920879" lon="10.874909164458714"><ele>315.0</ele><time>2026-04-18T09:41:32.002Z</time></trkpt><trkpt lat="43.515360909809154" lon="10.874967723087883"><ele>315.0</ele><time>2026-04-18T09:41:33.002Z</time></trkpt><trkpt lat="43.51526548590895" lon="10.875068995550464"><ele>315.0</ele><time>2026-04-18T09:41:35.002Z</time></trkpt><trkpt lat="43.51519400977878" lon="10.875184140000247"><ele>315.0</ele><time>2026-04-18T09:41:37.002Z</time></trkpt><trkpt lat="43.51515280179107" lon="10.875277363623518"><ele>315.0</ele><time>2026-04-18T09:41:38.002Z</time></trkpt><trkpt lat="43.51513894956149" lon="10.875394571466344"><ele>315.0</ele><time>2026-04-18T09:41:39.002Z</time></trkpt><trkpt lat="43.515141677459425" lon="10.875537334567975"><ele>315.0</ele><time>2026-04-18T09:41:41.002Z</time></trkpt><trkpt lat="43.51512413547301" lon="10.87563939286478"><ele>315.0</ele><time>2026-04-18T09:41:44.002Z</time></trkpt><trkpt lat="43.51510211524445" lon="10.87575588270992"><ele>315.0</ele><time>2026-04-18T09:41:46.002Z</time></trkpt><trkpt lat="43.51509313311118" lon="10.875883665166612"><ele>315.0</ele><time>2026-04-18T09:41:50.002Z</time></trkpt><trkpt lat="43.515103648721556" lon="10.875969371508337"><ele>315.0</ele><time>2026-04-18T09:41:54.002Z</time></trkpt><trkpt lat="43.51521997833198" lon="10.876018236661688"><ele>317.0</ele><time>2026-04-18T09:41:55Z</time></trkpt><trkpt lat="43.515314713101525" lon="10.876025800938319"><ele>319.0</ele><time>2026-04-18T09:41:57Z</time></trkpt><trkpt lat="43.51539780557419" lon="10.876018371938292"><ele>321.0</ele><time>2026-04-18T09:41:59Z</time></trkpt><trkpt lat="43.51551115552526" lon="10.876095772911777"><ele>323.0</ele><time>2026-04-18T09:42:01Z</time></trkpt><trkpt lat="43.51557215219349" lon="10.876146557673396"><ele>325.0</ele><time>2026-04-18T09:42:02Z</time></trkpt><trkpt lat="43.51563087669905" lon="10.87620865479823"><ele>326.16666666666663</ele><time>2026-04-18T09:42:03Z</time></trkpt><trkpt lat="43.51569436955393" lon="10.876276569148688"><ele>327.3333333333333</ele><time>2026-04-18T09:42:04Z</time></trkpt><trkpt lat="43.515761622786925" lon="10.876331555341606"><ele>328.5</ele><time>2026-04-18T09:42:05Z</time></trkpt><trkpt lat="43.515825939227334" lon="10.876380271000492"><ele>329.6666666666667</ele><time>2026-04-18T09:42:06Z</time></trkpt><trkpt lat="43.515926476602566" lon="10.876342501269379"><ele>330.83333333333337</ele><time>2026-04-18T09:42:07Z</time></trkpt><trkpt lat="43.51601063431258" lon="10.876317716889442"><ele>332.0</ele><time>2026-04-18T09:42:08Z</time></trkpt><trkpt lat="43.51609877994657" lon="10.876283946186346"><ele>332.0</ele><time>2026-04-18T09:42:09Z</time></trkpt><trkpt lat="43.516180968280175" lon="10.876242319540637"><ele>332.0</ele><time>2026-04-18T09:42:10Z</time></trkpt><trkpt lat="43.51626091315909" lon="10.87620079655954"><ele>332.0</ele><time>2026-04-18T09:42:11Z</time></trkpt><trkpt lat="43.51634864025137" lon="10.876152200952383"><ele>332.0</ele><time>2026-04-18T09:42:12Z</time></trkpt><trkpt lat="43.516431274746004" lon="10.876092414187246"><ele>332.0</ele><time>2026-04-18T09:42:13Z</time></trkpt><trkpt lat="43.516513929715366" lon="10.876031647153452"><ele>332.6</ele><time>2026-04-18T09:42:14Z</time></trkpt><trkpt lat="43.516603585658125" lon="10.875975044113046"><ele>333.20000000000005</ele><time>2026-04-18T09:42:15Z</time></trkpt><trkpt lat="43.51669210251534" lon="10.875928001834927"><ele>333.8</ele><time>2026-04-18T09:42:16Z</time></trkpt><trkpt lat="43.516782397964214" lon="10.875869622555282"><ele>334.4</ele><time>2026-04-18T09:42:17Z</time></trkpt><trkpt lat="43.51687034518922" lon="10.875800979078653"><ele>335.0</ele><time>2026-04-18T09:42:18Z</time></trkpt><trkpt lat="43.516937990863724" lon="10.875676166947471"><ele>335.0</ele><time>2026-04-18T09:42:19Z</time></trkpt><trkpt lat="43.516980587085406" lon="10.875525309404429"><ele>335.0</ele><time>2026-04-18T09:42:20Z</time></trkpt><trkpt lat="43.51700844714459" lon="10.875365143136793"><ele>335.0</ele><time>2026-04-18T09:42:21Z</time></trkpt><trkpt lat="43.517051383380945" lon="10.875242578102172"><ele>335.0</ele><time>2026-04-18T09:42:22Z</time></trkpt><trkpt lat="43.51710014729362" lon="10.875132444295364"><ele>335.0</ele><time>2026-04-18T09:42:23Z</time></trkpt><trkpt lat="43.51716795764853" lon="10.875028328559345"><ele>337.25</ele><time>2026-04-18T09:42:24Z</time></trkpt><trkpt lat="43.51725442475513" lon="10.874934036328048"><ele>339.5</ele><time>2026-04-18T09:42:25Z</time></trkpt><trkpt lat="43.5173617912956" lon="10.874874625221352"><ele>341.75</ele><time>2026-04-18T09:42:26Z</time></trkpt><trkpt lat="43.51747582948789" lon="10.87483839918387"><ele>344.0</ele><time>2026-04-18T09:42:27Z</time></trkpt><trkpt lat="43.517597595179645" lon="10.874813713800872"><ele>344.0</ele><time>2026-04-18T09:42:28Z</time></trkpt><trkpt lat="43.517725345096366" lon="10.874792977241377"><ele>344.0</ele><time>2026-04-18T09:42:29Z</time></trkpt><trkpt lat="43.51784771329172" lon="10.87478240483876"><ele>344.0</ele><time>2026-04-18T09:42:30Z</time></trkpt><trkpt lat="43.51796468544485" lon="10.874784585825104"><ele>344.0</ele><time>2026-04-18T09:42:31Z</time></trkpt><trkpt lat="43.51808701862986" lon="10.874771999118707"><ele>346.0</ele><time>2026-04-18T09:42:32Z</time></trkpt><trkpt lat="43.51821672282153" lon="10.874794579037529"><ele>348.0</ele><time>2026-04-18T09:42:33Z</time></trkpt><trkpt lat="43.51834071308892" lon="10.87480893152629"><ele>350.0</ele><time>2026-04-18T09:42:34Z</time></trkpt><trkpt lat="43.518453388498" lon="10.8748346115023"><ele>352.0</ele><time>2026-04-18T09:42:35Z</time></trkpt><trkpt lat="43.518549342058215" lon="10.874883265339665"><ele>352.0</ele><time>2026-04-18T09:42:36Z</time></trkpt><trkpt lat="43.518653304669684" lon="10.874922002363807"><ele>352.0</ele><time>2026-04-18T09:42:37Z</time></trkpt><trkpt lat="43.51874269187564" lon="10.874931636544048"><ele>352.0</ele><time>2026-04-18T09:42:38Z</time></trkpt><trkpt lat="43.518844184432155" lon="10.874934446759402"><ele>352.0</ele><time>2026-04-18T09:42:39.001Z</time></trkpt><trkpt lat="43.518948275208494" lon="10.874934046515188"><ele>352.0</ele><time>2026-04-18T09:42:40.001Z</time></trkpt><trkpt lat="43.51904293024228" lon="10.874971671192982"><ele>352.25</ele><time>2026-04-18T09:42:41.001Z</time></trkpt><trkpt lat="43.519135056858865" lon="10.87506810885554"><ele>352.5</ele><time>2026-04-18T09:42:42.001Z</time></trkpt><trkpt lat="43.5192093460398" lon="10.875216140775557"><ele>352.75</ele><time>2026-04-18T09:42:43.001Z</time></trkpt><trkpt lat="43.519242164927654" lon="10.875379124387527"><ele>353.0</ele><time>2026-04-18T09:42:44.001Z</time></trkpt><trkpt lat="43.519285144945194" lon="10.875522741736944"><ele>353.0</ele><time>2026-04-18T09:42:45.001Z</time></trkpt><trkpt lat="43.519324377802974" lon="10.875669163737168"><ele>353.0</ele><time>2026-04-18T09:42:46.001Z</time></trkpt><trkpt lat="43.51937147331065" lon="10.87580562972771"><ele>353.0</ele><time>2026-04-18T09:42:47.001Z</time></trkpt><trkpt lat="43.51943075329611" lon="10.875929193726284"><ele>353.0</ele><time>2026-04-18T09:42:48.001Z</time></trkpt><trkpt lat="43.5195020497063" lon="10.87604009222232"><ele>353.0</ele><time>2026-04-18T09:42:49.001Z</time></trkpt><trkpt lat="43.51959406666606" lon="10.876105029083412"><ele>349.0</ele><time>2026-04-18T09:42:50.001Z</time></trkpt><trkpt lat="43.51968844850281" lon="10.87614339289219"><ele>345.0</ele><time>2026-04-18T09:42:51.001Z</time></trkpt><trkpt lat="43.51976911347481" lon="10.876233945166563"><ele>341.0</ele><time>2026-04-18T09:42:52.001Z</time></trkpt><trkpt lat="43.519831957929966" lon="10.87634269245631"><ele>337.0</ele><time>2026-04-18T09:42:53.001Z</time></trkpt><trkpt lat="43.51985793567305" lon="10.876473807168367"><ele>333.0</ele><time>2026-04-18T09:42:54.001Z</time></trkpt><trkpt lat="43.51986463254505" lon="10.87661849401191"><ele>333.0</ele><time>2026-04-18T09:42:55.001Z</time></trkpt><trkpt lat="43.51986743508994" lon="10.876755664343834"><ele>333.0</ele><time>2026-04-18T09:42:56.001Z</time></trkpt><trkpt lat="43.51987960235635" lon="10.87689474205955"><ele>333.0</ele><time>2026-04-18T09:42:57.001Z</time></trkpt><trkpt lat="43.51989640735952" lon="10.877036473726132"><ele>333.0</ele><time>2026-04-18T09:42:58.001Z</time></trkpt><trkpt lat="43.5199143496809" lon="10.8771847559893"><ele>333.0</ele><time>2026-04-18T09:42:59.001Z</time></trkpt><trkpt lat="43.51993732327487" lon="10.877331232630244"><ele>335.25</ele><time>2026-04-18T09:43:00.001Z</time></trkpt><trkpt lat="43.519958820427064" lon="10.87748947078938"><ele>337.5</ele><time>2026-04-18T09:43:01.001Z</time></trkpt><trkpt lat="43.519989788222226" lon="10.877640407748032"><ele>339.75</ele><time>2026-04-18T09:43:02.001Z</time></trkpt><trkpt lat="43.52002813406613" lon="10.87779803209136"><ele>342.0</ele><time>2026-04-18T09:43:03.001Z</time></trkpt><trkpt lat="43.52007133097896" lon="10.87795144623857"><ele>343.0</ele><time>2026-04-18T09:43:04.001Z</time></trkpt><trkpt lat="43.520117518297" lon="10.87809818153513"><ele>344.0</ele><time>2026-04-18T09:43:05.001Z</time></trkpt><trkpt lat="43.520169336299496" lon="10.878241906191462"><ele>345.0</ele><time>2026-04-18T09:43:06.001Z</time></trkpt><trkpt lat="43.52021142080507" lon="10.87838254652273"><ele>346.0</ele><time>2026-04-18T09:43:07.001Z</time></trkpt><trkpt lat="43.52024280389481" lon="10.878521093244634"><ele>347.0</ele><time>2026-04-18T09:43:08.001Z</time></trkpt><trkpt lat="43.52023754964569" lon="10.878649634445907"><ele>344.8</ele><time>2026-04-18T09:43:09.001Z</time></trkpt><trkpt lat="43.520225040603236" lon="10.878773327854372"><ele>342.6</ele><time>2026-04-18T09:43:10.001Z</time></trkpt><trkpt lat="43.5201818292327" lon="10.878897448082808"><ele>340.40000000000003</ele><time>2026-04-18T09:43:11.001Z</time></trkpt><trkpt lat="43.52011749206594" lon="10.879003835043756"><ele>338.20000000000005</ele><time>2026-04-18T09:43:12.001Z</time></trkpt><trkpt lat="43.52003574894214" lon="10.879108366550014"><ele>336.0</ele><time>2026-04-18T09:43:13.001Z</time></trkpt><trkpt lat="43.519942670259205" lon="10.879179995701902"><ele>336.0</ele><time>2026-04-18T09:43:14.001Z</time></trkpt><trkpt lat="43.51984914807486" lon="10.879211078420768"><ele>336.0</ele><time>2026-04-18T09:43:15.001Z</time></trkpt><trkpt lat="43.519743350496206" lon="10.879184833625084"><ele>336.0</ele><time>2026-04-18T09:43:16.001Z</time></trkpt><trkpt lat="43.51963728610711" lon="10.879155838851528"><ele>336.0</ele><time>2026-04-18T09:43:17.001Z</time></trkpt><trkpt lat="43.51952714961216" lon="10.879131762233605"><ele>336.0</ele><time>2026-04-18T09:43:18.001Z</time></trkpt><trkpt lat="43.51941840667139" lon="10.879127006957662"><ele>353.0</ele><time>2026-04-18T09:43:19.001Z</time></trkpt><trkpt lat="43.519242164927654" lon="10.875379124387527"><ele>353.0</ele><time>2026-04-18T09:42:44.001Z</time></trkpt><trkpt lat="43.519285144945194" lon="10.875522741736944"><ele>353.0</ele><time>2026-04-18T09:42:45.001Z</time></trkpt><trkpt lat="43.519324377802974" lon="10.875669163737168"><ele>353.0</ele><time>2026-04-18T09:42:46.001Z</time></trkpt><trkpt lat="43.51937147331065" lon="10.87580562972771"><ele>353.0</ele><time>2026-04-18T09:42:47.001Z</time></trkpt><trkpt lat="43.51943075329611" lon="10.875929193726284"><ele>353.0</ele><time>2026-04-18T09:42:48.001Z</time></trkpt><trkpt lat="43.5195020497063" lon="10.87604009222232"><ele>349.0</ele><time>2026-04-18T09:42:49.001Z</time></trkpt><trkpt lat="43.51959406666606" lon="10.876105029083412"><ele>345.0</ele><time>2026-04-18T09:42:50.001Z</time></trkpt><trkpt lat="43.51968844850281" lon="10.87614339289219"><ele>341.0</ele><time>2026-04-18T09:42:51.001Z</time></trkpt><trkpt lat="43.51976911347481" lon="10.876233945166563"><ele>337.0</ele><time>2026-04-18T09:42:52.001Z</time></trkpt><trkpt lat="43.519831957929966" lon="10.87634269245631"><ele>333.0</ele><time>2026-04-18T09:42:53.001Z</time></trkpt><trkpt lat="43.51985793567305" lon="10.876473807168367"><ele>333.0</ele><time>2026-04-18T09:42:54.001Z</time></trkpt><trkpt lat="43.51986463254505" lon="10.87661849401191"><ele>333.0</ele><time>2026-04-18T09:42:55.001Z</time></trkpt><trkpt lat="43.51986743508994" lon="10.876755664343834"><ele>333.0</ele><time>2026-04-18T09:42:56.001Z</time></trkpt><trkpt lat="43.51987960235635" lon="10.87689474205955"><ele>333.0</ele><time>2026-04-18T09:42:57.001Z</time></trkpt><trkpt lat="43.51989640735952" lon="10.877036473726132"><ele>333.0</ele><time>2026-04-18T09:42:58.001Z</time></trkpt><trkpt lat="43.5199143496809" lon="10.8771847559893"><ele>335.25</ele><time>2026-04-18T09:42:59.001Z</time></trkpt><trkpt lat="43.51993732327487" lon="10.877331232630244"><ele>337.5</ele><time>2026-04-18T09:43:00.001Z</time></trkpt><trkpt lat="43.519958820427064" lon="10.87748947078938"><ele>339.75</ele><time>2026-04-18T09:43:01.001Z</time></trkpt><trkpt lat="43.519989788222226" lon="10.877640407748032"><ele>342.0</ele><time>2026-04-18T09:43:02.001Z</time></trkpt><trkpt lat="43.52002813406613" lon="10.87779803209136"><ele>343.25</ele><time>2026-04-18T09:43:03.001Z</time></trkpt><trkpt lat="43.52007133097896" lon="10.87795144623857"><ele>344.5</ele><time>2026-04-18T09:43:04.001Z</time></trkpt><trkpt lat="43.520117518297" lon="10.87809818153513"><ele>345.75</ele><time>2026-04-18T09:43:05.001Z</time></trkpt><trkpt lat="43.520169336299496" lon="10.878241906191462"><ele>347.0</ele><time>2026-04-18T09:43:06.001Z</time></trkpt><trkpt lat="43.52021142080507" lon="10.87838254652273"><ele>344.8</ele><time>2026-04-18T09:43:07.001Z</time></trkpt><trkpt lat="43.52024280389481" lon="10.878521093244634"><ele>342.6</ele><time>2026-04-18T09:43:08.001Z</time></trkpt><trkpt lat="43.52023754964569" lon="10.878649634445907"><ele>340.40000000000003</ele><time>2026-04-18T09:43:09.001Z</time></trkpt><trkpt lat="43.520225040603236" lon="10.878773327854372"><ele>338.20000000000005</ele><time>2026-04-18T09:43:10.001Z</time></trkpt><trkpt lat="43.5201818292327" lon="10.878897448082808"><ele>336.0</ele><time>2026-04-18T09:43:11.001Z</time></trkpt><trkpt lat="43.52011749206594" lon="10.879003835043756"><ele>336.0</ele><time>2026-04-18T09:43:12.001Z</time></trkpt><trkpt lat="43.52003574894214" lon="10.879108366550014"><ele>336.0</ele><time>2026-04-18T09:43:13.001Z</time></trkpt><trkpt lat="43.519942670259205" lon="10.879179995701902"><ele>336.0</ele><time>2026-04-18T09:43:14.001Z</time></trkpt><trkpt lat="43.51984914807486" lon="10.879211078420768"><ele>336.0</ele><time>2026-04-18T09:43:15.001Z</time></trkpt><trkpt lat="43.519743350496206" lon="10.879184833625084"><ele>336.0</ele><time>2026-04-18T09:43:16.001Z</time></trkpt><trkpt lat="43.51963728610711" lon="10.879155838851528"><ele>337.75</ele><time>2026-04-18T09:43:17.001Z</time></trkpt><trkpt lat="43.51952714961216" lon="10.879131762233605"><ele>339.5</ele><time>2026-04-18T09:43:18.001Z</time></trkpt><trkpt lat="43.51941840667139" lon="10.879127006957662"><ele>341.25</ele><time>2026-04-18T09:43:19.001Z</time></trkpt><trkpt lat="43.519300335037805" lon="10.879097080290125"><ele>343.0</ele><time>2026-04-18T09:43:20.001Z</time></trkpt><trkpt lat="43.519191141617604" lon="10.879122956145697"><ele>343.0</ele><time>2026-04-18T09:43:21.001Z</time></trkpt><trkpt lat="43.51908693152284" lon="10.879136201328075"><ele>343.0</ele><time>2026-04-18T09:43:22.002Z</time></trkpt><trkpt lat="43.51901191336718" lon="10.879237785052966"><ele>343.0</ele><time>2026-04-18T09:43:23.002Z</time></trkpt><trkpt lat="43.51896385696866" lon="10.879340181054697"><ele>343.0</ele><time>2026-04-18T09:43:24.002Z</time></trkpt><trkpt lat="43.51894231536105" lon="10.879460099323845"><ele>343.0</ele><time>2026-04-18T09:43:25.002Z</time></trkpt><trkpt lat="43.518972712455714" lon="10.879561966829266"><ele>342.66666666666663</ele><time>2026-04-18T09:43:26.002Z</time></trkpt><trkpt lat="43.51902204429007" lon="10.879656330857138"><ele>342.3333333333333</ele><time>2026-04-18T09:43:27.002Z</time></trkpt><trkpt lat="43.51910360147847" lon="10.879701001412347"><ele>342.0</ele><time>2026-04-18T09:43:28.002Z</time></trkpt><trkpt lat="43.51918842233485" lon="10.8797216674284"><ele>341.6666666666667</ele><time>2026-04-18T09:43:29.002Z</time></trkpt><trkpt lat="43.519281035391764" lon="10.87973465367085"><ele>341.33333333333337</ele><time>2026-04-18T09:43:30.002Z</time></trkpt><trkpt lat="43.51937338786692" lon="10.879755800135921"><ele>341.0</ele><time>2026-04-18T09:43:31.002Z</time></trkpt><trkpt lat="43.51945758148508" lon="10.879803242293688"><ele>341.0</ele><time>2026-04-18T09:43:32.002Z</time></trkpt><trkpt lat="43.519534578715025" lon="10.879875298007665"><ele>341.0</ele><time>2026-04-18T09:43:33.002Z</time></trkpt><trkpt lat="43.51958295308922" lon="10.879975638649675"><ele>341.0</ele><time>2026-04-18T09:43:34.002Z</time></trkpt><trkpt lat="43.51962817147035" lon="10.880077696129502"><ele>341.0</ele><time>2026-04-18T09:43:35.002Z</time></trkpt><trkpt lat="43.51963057481398" lon="10.880184511002167"><ele>341.0</ele><time>2026-04-18T09:43:36.002Z</time></trkpt><trkpt lat="43.519604541899966" lon="10.88030543518523"><ele>341.0</ele><time>2026-04-18T09:43:37.002Z</time></trkpt><trkpt lat="43.519577982308505" lon="10.880429862840645"><ele>340.8</ele><time>2026-04-18T09:43:38.002Z</time></trkpt><trkpt lat="43.51955617332803" lon="10.880566754516078"><ele>340.6</ele><time>2026-04-18T09:43:39.002Z</time></trkpt><trkpt lat="43.51954662929667" lon="10.88070546169743"><ele>340.4</ele><time>2026-04-18T09:43:40.002Z</time></trkpt><trkpt lat="43.519552693726006" lon="10.88085396885889"><ele>340.2</ele><time>2026-04-18T09:43:41.002Z</time></trkpt><trkpt lat="43.51958044545484" lon="10.881000306496535"><ele>340.0</ele><time>2026-04-18T09:43:42.002Z</time></trkpt><trkpt lat="43.51958752562036" lon="10.881146240600389"><ele>340.0</ele><time>2026-04-18T09:43:43.002Z</time></trkpt><trkpt lat="43.51957848179785" lon="10.881299080167345"><ele>340.0</ele><time>2026-04-18T09:43:44.002Z</time></trkpt><trkpt lat="43.519535757246544" lon="10.881435990708782"><ele>340.0</ele><time>2026-04-18T09:43:45.002Z</time></trkpt><trkpt lat="43.51951029551273" lon="10.881577330346403"><ele>340.0</ele><time>2026-04-18T09:43:46.002Z</time></trkpt><trkpt lat="43.519506761030684" lon="10.881722768094477"><ele>340.0</ele><time>2026-04-18T09:43:47.002Z</time></trkpt><trkpt lat="43.51948779593211" lon="10.881870955209939"><ele>341.8</ele><time>2026-04-18T09:43:48.002Z</time></trkpt><trkpt lat="43.51949142948107" lon="10.88201888796872"><ele>343.6</ele><time>2026-04-18T09:43:49.002Z</time></trkpt><trkpt lat="43.519524939178666" lon="10.882154810635992"><ele>345.4</ele><time>2026-04-18T09:43:50.002Z</time></trkpt><trkpt lat="43.51957722709151" lon="10.882284868954823"><ele>347.2</ele><time>2026-04-18T09:43:51.002Z</time></trkpt><trkpt lat="43.51962669537189" lon="10.882413069912403"><ele>349.0</ele><time>2026-04-18T09:43:52.002Z</time></trkpt><trkpt lat="43.51967884489204" lon="10.882543537195309"><ele>352.0</ele><time>2026-04-18T09:43:53.002Z</time></trkpt><trkpt lat="43.51972852602827" lon="10.882674134379066"><ele>355.0</ele><time>2026-04-18T09:43:54.002Z</time></trkpt><trkpt lat="43.519823113257516" lon="10.882779444960054"><ele>358.0</ele><time>2026-04-18T09:43:55.002Z</time></trkpt><trkpt lat="43.51991666672836" lon="10.882860808511722"><ele>361.0</ele><time>2026-04-18T09:43:56.002Z</time></trkpt><trkpt lat="43.52001623709579" lon="10.882938436955124"><ele>361.0</ele><time>2026-04-18T09:43:57.002Z</time></trkpt><trkpt lat="43.52011167526022" lon="10.883019750940916"><ele>361.0</ele><time>2026-04-18T09:43:58.002Z</time></trkpt><trkpt lat="43.520214616965205" lon="10.88309490411138"><ele>361.0</ele><time>2026-04-18T09:43:59.002Z</time></trkpt><trkpt lat="43.5203151152107" lon="10.883127393836483"><ele>361.0</ele><time>2026-04-18T09:44:00.002Z</time></trkpt><trkpt lat="43.52041563173548" lon="10.883159144097128"><ele>361.0</ele><time>2026-04-18T09:44:01Z</time></trkpt><trkpt lat="43.52051654289512" lon="10.883147416359778"><ele>360.0</ele><time>2026-04-18T09:44:02Z</time></trkpt><trkpt lat="43.52061355715168" lon="10.883108026062244"><ele>359.0</ele><time>2026-04-18T09:44:03Z</time></trkpt><trkpt lat="43.52070797061406" lon="10.883056729108617"><ele>358.0</ele><time>2026-04-18T09:44:04Z</time></trkpt><trkpt lat="43.52080620705388" lon="10.883046893372418"><ele>357.0</ele><time>2026-04-18T09:44:05Z</time></trkpt><trkpt lat="43.520901481760134" lon="10.88307840919612"><ele>356.0</ele><time>2026-04-18T09:44:06Z</time></trkpt><trkpt lat="43.52098866690207" lon="10.88312939753178"><ele>356.0</ele><time>2026-04-18T09:44:07Z</time></trkpt><trkpt lat="43.52107269215411" lon="10.88319476403028"><ele>356.0</ele><time>2026-04-18T09:44:08Z</time></trkpt><trkpt lat="43.521154453129206" lon="10.883263724407335"><ele>356.0</ele><time>2026-04-18T09:44:09Z</time></trkpt><trkpt lat="43.52122778548584" lon="10.883338227467648"><ele>356.0</ele><time>2026-04-18T09:44:10Z</time></trkpt><trkpt lat="43.52127609688226" lon="10.883452015910262"><ele>356.0</ele><time>2026-04-18T09:44:11Z</time></trkpt><trkpt lat="43.521307265115105" lon="10.8835557675613"><ele>356.83333333333337</ele><time>2026-04-18T09:44:12Z</time></trkpt><trkpt lat="43.52133284877485" lon="10.883661300704928"><ele>357.6666666666667</ele><time>2026-04-18T09:44:13Z</time></trkpt><trkpt lat="43.52135398396519" lon="10.88378128769917"><ele>358.5</ele><time>2026-04-18T09:44:14Z</time></trkpt><trkpt lat="43.52131431306453" lon="10.883903907677766"><ele>359.3333333333333</ele><time>2026-04-18T09:44:15Z</time></trkpt><trkpt lat="43.521273845366935" lon="10.883999004615044"><ele>360.16666666666663</ele><time>2026-04-18T09:44:16Z</time></trkpt><trkpt lat="43.5212205350268" lon="10.884092006948022"><ele>361.0</ele><time>2026-04-18T09:44:17Z</time></trkpt><trkpt lat="43.52117355360114" lon="10.88420129884509"><ele>362.20000000000005</ele><time>2026-04-18T09:44:18Z</time></trkpt><trkpt lat="43.52112761867306" lon="10.884308029332608"><ele>363.40000000000003</ele><time>2026-04-18T09:44:19Z</time></trkpt><trkpt lat="43.521083875497894" lon="10.88441935341399"><ele>364.6</ele><time>2026-04-18T09:44:20Z</time></trkpt><trkpt lat="43.521084076818006" lon="10.884580814775429"><ele>365.8</ele><time>2026-04-18T09:44:21Z</time></trkpt><trkpt lat="43.52111725138323" lon="10.884731570646316"><ele>367.0</ele><time>2026-04-18T09:44:22Z</time></trkpt><trkpt lat="43.521158515253475" lon="10.884877614473348"><ele>367.0</ele><time>2026-04-18T09:44:23Z</time></trkpt><trkpt lat="43.5212043025555" lon="10.885032229706747"><ele>367.0</ele><time>2026-04-18T09:44:24Z</time></trkpt><trkpt lat="43.521257906153956" lon="10.885192964060453"><ele>367.0</ele><time>2026-04-18T09:44:25Z</time></trkpt><trkpt lat="43.521322328547946" lon="10.885357100993712"><ele>367.0</ele><time>2026-04-18T09:44:26Z</time></trkpt><trkpt lat="43.521404865021" lon="10.88551733260199"><ele>367.75</ele><time>2026-04-18T09:44:27Z</time></trkpt><trkpt lat="43.52149639653716" lon="10.88567851339264"><ele>368.5</ele><time>2026-04-18T09:44:28Z</time></trkpt><trkpt lat="43.521601945176876" lon="10.885816090553874"><ele>369.25</ele><time>2026-04-18T09:44:29Z</time></trkpt><trkpt lat="43.5216895648142" lon="10.885966883803286"><ele>370.0</ele><time>2026-04-18T09:44:30Z</time></trkpt><trkpt lat="43.52176790767809" lon="10.886131484271592"><ele>370.0</ele><time>2026-04-18T09:44:31Z</time></trkpt><trkpt lat="43.52182193835173" lon="10.88631041432146"><ele>370.0</ele><time>2026-04-18T09:44:32.001Z</time></trkpt><trkpt lat="43.521883229704876" lon="10.886474665075438"><ele>370.0</ele><time>2026-04-18T09:44:33.001Z</time></trkpt><trkpt lat="43.52194110672421" lon="10.88663156154909"><ele>370.0</ele><time>2026-04-18T09:44:34.001Z</time></trkpt><trkpt lat="43.52199685388669" lon="10.886784202679042"><ele>368.5</ele><time>2026-04-18T09:44:35.001Z</time></trkpt><trkpt lat="43.522053340425146" lon="10.886938868128508"><ele>367.0</ele><time>2026-04-18T09:44:36.001Z</time></trkpt><trkpt lat="43.522108737947114" lon="10.887090551833621"><ele>365.5</ele><time>2026-04-18T09:44:37.001Z</time></trkpt><trkpt lat="43.522179242297156" lon="10.887226353161353"><ele>364.0</ele><time>2026-04-18T09:44:38.001Z</time></trkpt><trkpt lat="43.522234086308856" lon="10.887374544484578"><ele>364.0</ele><time>2026-04-18T09:44:39.001Z</time></trkpt><trkpt lat="43.52228175113244" lon="10.887534116271963"><ele>364.0</ele><time>2026-04-18T09:44:40.001Z</time></trkpt><trkpt lat="43.52232769751512" lon="10.88768405806628"><ele>364.0</ele><time>2026-04-18T09:44:41.001Z</time></trkpt><trkpt lat="43.5223771597663" lon="10.887830394732347"><ele>364.0</ele><time>2026-04-18T09:44:42.001Z</time></trkpt><trkpt lat="43.522400803954014" lon="10.887993578426256"><ele>366.0</ele><time>2026-04-18T09:44:43.001Z</time></trkpt><trkpt lat="43.5223789742779" lon="10.888158011892823"><ele>368.0</ele><time>2026-04-18T09:44:44.001Z</time></trkpt><trkpt lat="43.5223668929927" lon="10.888321703109774"><ele>370.0</ele><time>2026-04-18T09:44:45.001Z</time></trkpt><trkpt lat="43.522344265484485" lon="10.888484552258335"><ele>372.0</ele><time>2026-04-18T09:44:46.001Z</time></trkpt><trkpt lat="43.52232807487602" lon="10.88864700145246"><ele>374.0</ele><time>2026-04-18T09:44:47.001Z</time></trkpt><trkpt lat="43.522311414898375" lon="10.888809924409726"><ele>376.0</ele><time>2026-04-18T09:44:48.001Z</time></trkpt><trkpt lat="43.522293191191345" lon="10.888974302285945"><ele>378.0</ele><time>2026-04-18T09:44:49.001Z</time></trkpt><trkpt lat="43.522280892853395" lon="10.88914014107328"><ele>380.0</ele><time>2026-04-18T09:44:50.001Z</time></trkpt><trkpt lat="43.522268961354534" lon="10.889295838481234"><ele>381.6</ele><time>2026-04-18T09:44:51.001Z</time></trkpt><trkpt lat="43.522254864505975" lon="10.889441368521409"><ele>383.2</ele><time>2026-04-18T09:44:52.001Z</time></trkpt><trkpt lat="43.52224090757317" lon="10.889588709361352"><ele>384.79999999999995</ele><time>2026-04-18T09:44:53.001Z</time></trkpt><trkpt lat="43.52222613666151" lon="10.889737919515749"><ele>386.4</ele><time>2026-04-18T09:44:54.001Z</time></trkpt><trkpt lat="43.52220557887903" lon="10.88987859582578"><ele>388.0</ele><time>2026-04-18T09:44:55.001Z</time></trkpt><trkpt lat="43.5221913216318" lon="10.890026077303272"><ele>389.0</ele><time>2026-04-18T09:44:56.001Z</time></trkpt><trkpt lat="43.52218339377367" lon="10.890178490194522"><ele>390.0</ele><time>2026-04-18T09:44:57.001Z</time></trkpt><trkpt lat="43.52219242179843" lon="10.89032677776334"><ele>391.0</ele><time>2026-04-18T09:44:58.001Z</time></trkpt><trkpt lat="43.522215387289165" lon="10.890480505712594"><ele>392.0</ele><time>2026-04-18T09:44:59.001Z</time></trkpt><trkpt lat="43.52224673237012" lon="10.890641353006629"><ele>392.0</ele><time>2026-04-18T09:45:00.001Z</time></trkpt><trkpt lat="43.52228466430375" lon="10.89079921614728"><ele>392.0</ele><time>2026-04-18T09:45:01.001Z</time></trkpt><trkpt lat="43.52232900813744" lon="10.890954668599756"><ele>392.0</ele><time>2026-04-18T09:45:02.001Z</time></trkpt><trkpt lat="43.52237746531571" lon="10.8911134862413"><ele>392.0</ele><time>2026-04-18T09:45:03.001Z</time></trkpt><trkpt lat="43.522426370666594" lon="10.891275210223363"><ele>393.0</ele><time>2026-04-18T09:45:04.001Z</time></trkpt><trkpt lat="43.52247689705108" lon="10.891433145092435"><ele>394.0</ele><time>2026-04-18T09:45:05.001Z</time></trkpt><trkpt lat="43.522530109338966" lon="10.891595126118297"><ele>395.0</ele><time>2026-04-18T09:45:06.001Z</time></trkpt><trkpt lat="43.52258372099399" lon="10.89175222890112"><ele>396.0</ele><time>2026-04-18T09:45:07.001Z</time></trkpt><trkpt lat="43.52263621166488" lon="10.89190700404854"><ele>397.5</ele><time>2026-04-18T09:45:08.001Z</time></trkpt><trkpt lat="43.522686995793336" lon="10.892058720194116"><ele>399.0</ele><time>2026-04-18T09:45:09.001Z</time></trkpt><trkpt lat="43.52273966658271" lon="10.892211597040786"><ele>400.5</ele><time>2026-04-18T09:45:10.001Z</time></trkpt><trkpt lat="43.522790683226084" lon="10.892359458443831"><ele>402.0</ele><time>2026-04-18T09:45:11.001Z</time></trkpt><trkpt lat="43.52283715733383" lon="10.892508478051276"><ele>402.5</ele><time>2026-04-18T09:45:12.001Z</time></trkpt><trkpt lat="43.52288598423127" lon="10.892658502783677"><ele>403.0</ele><time>2026-04-18T09:45:13.001Z</time></trkpt><trkpt lat="43.522932411308126" lon="10.892810003513508"><ele>403.5</ele><time>2026-04-18T09:45:14.001Z</time></trkpt><trkpt lat="43.522979447348945" lon="10.892959841450747"><ele>404.0</ele><time>2026-04-18T09:45:15.002Z</time></trkpt><trkpt lat="43.52302871197994" lon="10.893112596747258"><ele>403.0</ele><time>2026-04-18T09:45:16.002Z</time></trkpt><trkpt lat="43.52307891845687" lon="10.893269067373458"><ele>402.0</ele><time>2026-04-18T09:45:17.002Z</time></trkpt><trkpt lat="43.52313003272662" lon="10.893433321459316"><ele>401.0</ele><time>2026-04-18T09:45:18.002Z</time></trkpt><trkpt lat="43.523180312606435" lon="10.893594268290327"><ele>400.0</ele><time>2026-04-18T09:45:19.002Z</time></trkpt><trkpt lat="43.523224166728006" lon="10.893752054315883"><ele>400.5</ele><time>2026-04-18T09:45:20.002Z</time></trkpt><trkpt lat="43.523273271922484" lon="10.893901861209349"><ele>401.0</ele><time>2026-04-18T09:45:21.002Z</time></trkpt><trkpt lat="43.52332199472641" lon="10.894049195291482"><ele>401.5</ele><time>2026-04-18T09:45:22.002Z</time></trkpt><trkpt lat="43.52337049667428" lon="10.89418700591101"><ele>402.0</ele><time>2026-04-18T09:45:23.002Z</time></trkpt><trkpt lat="43.523423905413104" lon="10.89431615929424"><ele>402.0</ele><time>2026-04-18T09:45:24.002Z</time></trkpt><trkpt lat="43.52347498627235" lon="10.894432507767556"><ele>402.0</ele><time>2026-04-18T09:45:25.002Z</time></trkpt><trkpt lat="43.523513093337904" lon="10.894560071474295"><ele>402.0</ele><time>2026-04-18T09:45:26.002Z</time></trkpt><trkpt lat="43.523564625275434" lon="10.894672216414099"><ele>402.0</ele><time>2026-04-18T09:45:27.002Z</time></trkpt><trkpt lat="43.523613935551545" lon="10.894774569299958"><ele>402.0</ele><time>2026-04-18T09:45:28.002Z</time></trkpt><trkpt lat="43.52365942285612" lon="10.894875121478696"><ele>402.0</ele><time>2026-04-18T09:45:29.002Z</time></trkpt><trkpt lat="43.52369625930294" lon="10.894978204448567"><ele>402.0</ele><time>2026-04-18T09:45:30.002Z</time></trkpt><trkpt lat="43.52372722853099" lon="10.895082733291328"><ele>402.0</ele><time>2026-04-18T09:45:31.002Z</time></trkpt><trkpt lat="43.52375281465127" lon="10.895179293711184"><ele>402.0</ele><time>2026-04-18T09:45:32.002Z</time></trkpt><trkpt lat="43.52377932409216" lon="10.895276203284396"><ele>402.0</ele><time>2026-04-18T09:45:33.002Z</time></trkpt><trkpt lat="43.5238034793552" lon="10.895373965252935"><ele>402.0</ele><time>2026-04-18T09:45:34.002Z</time></trkpt><trkpt lat="43.52382929678308" lon="10.895478123301165"><ele>403.0</ele><time>2026-04-18T09:45:35.002Z</time></trkpt><trkpt lat="43.52385796634324" lon="10.895587787238593"><ele>404.0</ele><time>2026-04-18T09:45:36.002Z</time></trkpt><trkpt lat="43.523871019648865" lon="10.895712251466017"><ele>405.0</ele><time>2026-04-18T09:45:37.002Z</time></trkpt><trkpt lat="43.5239000930322" lon="10.895836152994919"><ele>406.0</ele><time>2026-04-18T09:45:38.002Z</time></trkpt><trkpt lat="43.52393060927507" lon="10.895966203500054"><ele>407.0</ele><time>2026-04-18T09:45:39.002Z</time></trkpt><trkpt lat="43.52396962795573" lon="10.896095532688022"><ele>408.0</ele><time>2026-04-18T09:45:40.002Z</time></trkpt><trkpt lat="43.524001305236276" lon="10.89623034077784"><ele>409.0</ele><time>2026-04-18T09:45:41.002Z</time></trkpt><trkpt lat="43.52403629788699" lon="10.896365392335277"><ele>410.0</ele><time>2026-04-18T09:45:42.002Z</time></trkpt><trkpt lat="43.52406827899363" lon="10.896498036109033"><ele>411.0</ele><time>2026-04-18T09:45:43.002Z</time></trkpt><trkpt lat="43.52410098452413" lon="10.896627008210896"><ele>412.0</ele><time>2026-04-18T09:45:44.002Z</time></trkpt><trkpt lat="43.52412445071514" lon="10.896764405671599"><ele>412.20000000000005</ele><time>2026-04-18T09:45:45.002Z</time></trkpt><trkpt lat="43.524152277135244" lon="10.896901719090732"><ele>412.4</ele><time>2026-04-18T09:45:46.002Z</time></trkpt><trkpt lat="43.52418251917878" lon="10.897043730267196"><ele>412.6</ele><time>2026-04-18T09:45:47.002Z</time></trkpt><trkpt lat="43.52421201875834" lon="10.897187029028556"><ele>412.79999999999995</ele><time>2026-04-18T09:45:48.002Z</time></trkpt><trkpt lat="43.524240119005526" lon="10.897324159729822"><ele>413.0</ele><time>2026-04-18T09:45:49.002Z</time></trkpt><trkpt lat="43.524268427671835" lon="10.897460068036688"><ele>412.99999999999994</ele><time>2026-04-18T09:45:50.002Z</time></trkpt><trkpt lat="43.52429503531806" lon="10.8975844883097"><ele>413.0</ele><time>2026-04-18T09:45:51.002Z</time></trkpt><trkpt lat="43.52431906091152" lon="10.897703527510789"><ele>413.0</ele><time>2026-04-18T09:45:52.002Z</time></trkpt><trkpt lat="43.52433826354577" lon="10.897795485950518"><ele>413.0</ele><time>2026-04-18T09:45:53.002Z</time></trkpt><trkpt lat="43.52435569928924" lon="10.897881735765981"><ele>412.99999999999994</ele><time>2026-04-18T09:45:54.002Z</time></trkpt><trkpt lat="43.524394558166485" lon="10.898007119155126"><ele>413.0</ele><time>2026-04-18T09:45:56.002Z</time></trkpt><trkpt lat="43.52437051787509" lon="10.89810538676739"><ele>413.8333333333333</ele><time>2026-04-18T09:45:58.002Z</time></trkpt><trkpt lat="43.52431701588673" lon="10.898222636376278"><ele>414.66666666666663</ele><time>2026-04-18T09:46:00.003Z</time></trkpt><trkpt lat="43.52427265565916" lon="10.898289205615765"><ele>415.5</ele><time>2026-04-18T09:46:01.003Z</time></trkpt><trkpt lat="43.52421539003568" lon="10.898353556762814"><ele>416.33333333333337</ele><time>2026-04-18T09:46:02.003Z</time></trkpt><trkpt lat="43.5241482842998" lon="10.898421811523772"><ele>417.1666666666667</ele><time>2026-04-18T09:46:03.003Z</time></trkpt><trkpt lat="43.524075609766754" lon="10.898496634477777"><ele>418.0</ele><time>2026-04-18T09:46:04.003Z</time></trkpt><trkpt lat="43.5239998963922" lon="10.8985818971554"><ele>420.0</ele><time>2026-04-18T09:46:05.003Z</time></trkpt><trkpt lat="43.523923548147" lon="10.898669086070491"><ele>422.0</ele><time>2026-04-18T09:46:06.003Z</time></trkpt><trkpt lat="43.52384593363336" lon="10.898753848984214"><ele>423.99999999999994</ele><time>2026-04-18T09:46:07Z</time></trkpt><trkpt lat="43.523765751717036" lon="10.89884686440771"><ele>426.0</ele><time>2026-04-18T09:46:08Z</time></trkpt><trkpt lat="43.52368771066043" lon="10.898936896330941"><ele>428.0</ele><time>2026-04-18T09:46:09Z</time></trkpt><trkpt lat="43.52360569225761" lon="10.8990258918448"><ele>427.59999999999997</ele><time>2026-04-18T09:46:10Z</time></trkpt><trkpt lat="43.52352146028942" lon="10.89911427290349"><ele>427.19999999999993</ele><time>2026-04-18T09:46:11Z</time></trkpt><trkpt lat="43.52343309713364" lon="10.8991961959699"><ele>426.8</ele><time>2026-04-18T09:46:12Z</time></trkpt><trkpt lat="43.52334416759006" lon="10.89927905096111"><ele>426.4</ele><time>2026-04-18T09:46:13Z</time></trkpt><trkpt lat="43.52325091032345" lon="10.89935597583147"><ele>426.0</ele><time>2026-04-18T09:46:14Z</time></trkpt><trkpt lat="43.5231534397777" lon="10.899431044351351"><ele>426.0</ele><time>2026-04-18T09:46:15Z</time></trkpt><trkpt lat="43.52304994942297" lon="10.899501869881714"><ele>426.0</ele><time>2026-04-18T09:46:16Z</time></trkpt><trkpt lat="43.52295037146992" lon="10.8995566068396"><ele>426.0</ele><time>2026-04-18T09:46:17Z</time></trkpt><trkpt lat="43.522840864446565" lon="10.89961812551468"><ele>426.0</ele><time>2026-04-18T09:46:18Z</time></trkpt><trkpt lat="43.52272509201205" lon="10.899663581577112"><ele>426.5</ele><time>2026-04-18T09:46:19Z</time></trkpt><trkpt lat="43.52260416204799" lon="10.899703921773717"><ele>427.0</ele><time>2026-04-18T09:46:20Z</time></trkpt><trkpt lat="43.52247970841086" lon="10.89975208572751"><ele>427.5</ele><time>2026-04-18T09:46:21Z</time></trkpt><trkpt lat="43.52235541990584" lon="10.899809715325247"><ele>428.0</ele><time>2026-04-18T09:46:22Z</time></trkpt><trkpt lat="43.52222474022024" lon="10.899863944944562"><ele>428.0</ele><time>2026-04-18T09:46:23Z</time></trkpt><trkpt lat="43.5220881973094" lon="10.899918188437894"><ele>428.0</ele><time>2026-04-18T09:46:24Z</time></trkpt><trkpt lat="43.52195370799421" lon="10.9000006085609"><ele>428.0</ele><time>2026-04-18T09:46:25Z</time></trkpt><trkpt lat="43.52182274905518" lon="10.900101431183456"><ele>428.0</ele><time>2026-04-18T09:46:26Z</time></trkpt><trkpt lat="43.521698317507834" lon="10.900209559274655"><ele>429.25</ele><time>2026-04-18T09:46:27Z</time></trkpt><trkpt lat="43.521581683828636" lon="10.900331169562001"><ele>430.5</ele><time>2026-04-18T09:46:28Z</time></trkpt><trkpt lat="43.5214710242408" lon="10.900447717947111"><ele>431.75</ele><time>2026-04-18T09:46:29Z</time></trkpt><trkpt lat="43.52136677117112" lon="10.900572535278581"><ele>433.0</ele><time>2026-04-18T09:46:30Z</time></trkpt><trkpt lat="43.521257659575156" lon="10.900694620625194"><ele>434.5</ele><time>2026-04-18T09:46:31Z</time></trkpt><trkpt lat="43.521149168538905" lon="10.900816971152564"><ele>436.0</ele><time>2026-04-18T09:46:32Z</time></trkpt><trkpt lat="43.52103871315451" lon="10.900936744167982"><ele>437.5</ele><time>2026-04-18T09:46:33Z</time></trkpt><trkpt lat="43.520924974848796" lon="10.901059384998039"><ele>439.0</ele><time>2026-04-18T09:46:34Z</time></trkpt><trkpt lat="43.52081248970381" lon="10.901185738020374"><ele>439.0</ele><time>2026-04-18T09:46:35Z</time></trkpt><trkpt lat="43.520686569396766" lon="10.901322356170068"><ele>439.0</ele><time>2026-04-18T09:46:36Z</time></trkpt><trkpt lat="43.520569191479666" lon="10.90145286215857"><ele>439.0</ele><time>2026-04-18T09:46:37Z</time></trkpt><trkpt lat="43.520446579836204" lon="10.901588996889812"><ele>438.0</ele><time>2026-04-18T09:46:38Z</time></trkpt><trkpt lat="43.520326115207915" lon="10.901722709798404"><ele>437.0</ele><time>2026-04-18T09:46:39Z</time></trkpt><trkpt lat="43.52020353696532" lon="10.901865308359504"><ele>436.0</ele><time>2026-04-18T09:46:40Z</time></trkpt><trkpt lat="43.520074830983376" lon="10.902002081116725"><ele>436.0</ele><time>2026-04-18T09:46:41Z</time></trkpt><trkpt lat="43.51994459685385" lon="10.902134519547237"><ele>436.0</ele><time>2026-04-18T09:46:42Z</time></trkpt><trkpt lat="43.5198066891622" lon="10.902261979058295"><ele>436.0</ele><time>2026-04-18T09:46:43Z</time></trkpt><trkpt lat="43.519661487463104" lon="10.9023730103674"><ele>437.6666666666667</ele><time>2026-04-18T09:46:44Z</time></trkpt><trkpt lat="43.51951047365448" lon="10.902470894448358"><ele>439.33333333333337</ele><time>2026-04-18T09:46:45Z</time></trkpt><trkpt lat="43.519355195253304" lon="10.902547411406609"><ele>441.0</ele><time>2026-04-18T09:46:46Z</time></trkpt><trkpt lat="43.519194164823716" lon="10.902608867078824"><ele>441.0</ele><time>2026-04-18T09:46:47Z</time></trkpt><trkpt lat="43.519028791999006" lon="10.902638498656044"><ele>441.0</ele><time>2026-04-18T09:46:48.001Z</time></trkpt><trkpt lat="43.51886788797101" lon="10.902654081189217"><ele>441.0</ele><time>2026-04-18T09:46:49.001Z</time></trkpt><trkpt lat="43.5187074214033" lon="10.90266179360478"><ele>441.0</ele><time>2026-04-18T09:46:50.001Z</time></trkpt><trkpt lat="43.51855044006645" lon="10.90266585337103"><ele>441.0</ele><time>2026-04-18T09:46:51.001Z</time></trkpt><trkpt lat="43.51838888367403" lon="10.902680005344232"><ele>441.0</ele><time>2026-04-18T09:46:52.001Z</time></trkpt><trkpt lat="43.51822866979622" lon="10.902686969358479"><ele>441.0</ele><time>2026-04-18T09:46:53.001Z</time></trkpt><trkpt lat="43.518077030617484" lon="10.902685597351864"><ele>441.0</ele><time>2026-04-18T09:46:54.001Z</time></trkpt><trkpt lat="43.51792189395751" lon="10.902691096873696"><ele>441.0</ele><time>2026-04-18T09:46:55.001Z</time></trkpt><trkpt lat="43.5177654750606" lon="10.902693900613409"><ele>443.0</ele><time>2026-04-18T09:46:56.001Z</time></trkpt><trkpt lat="43.51761620784529" lon="10.902685634157269"><ele>445.0</ele><time>2026-04-18T09:46:57.001Z</time></trkpt><trkpt lat="43.51747278271332" lon="10.902656465380998"><ele>447.0</ele><time>2026-04-18T09:46:58.001Z</time></trkpt><trkpt lat="43.51733415850005" lon="10.90260135615613"><ele>449.0</ele><time>2026-04-18T09:46:59.001Z</time></trkpt><trkpt lat="43.517204418152886" lon="10.902518120156124"><ele>449.0</ele><time>2026-04-18T09:47:00.001Z</time></trkpt><trkpt lat="43.51708838617955" lon="10.902413694862496"><ele>449.0</ele><time>2026-04-18T09:47:01.001Z</time></trkpt><trkpt lat="43.5169796422195" lon="10.902293823195139"><ele>449.0</ele><time>2026-04-18T09:47:02.001Z</time></trkpt><trkpt lat="43.51687571974612" lon="10.902167983898366"><ele>449.0</ele><time>2026-04-18T09:47:03.001Z</time></trkpt><trkpt lat="43.51676962623375" lon="10.902039612574239"><ele>451.75</ele><time>2026-04-18T09:47:04.001Z</time></trkpt><trkpt lat="43.516663244584045" lon="10.901910971406801"><ele>454.5</ele><time>2026-04-18T09:47:05.001Z</time></trkpt><trkpt lat="43.516552965871256" lon="10.901770757408805"><ele>457.25</ele><time>2026-04-18T09:47:06.001Z</time></trkpt><trkpt lat="43.51644726936615" lon="10.90164533006101"><ele>460.0</ele><time>2026-04-18T09:47:07.001Z</time></trkpt><trkpt lat="43.516332887983296" lon="10.901525202712484"><ele>461.0</ele><time>2026-04-18T09:47:08.001Z</time></trkpt><trkpt lat="43.51621512752507" lon="10.901411475714"><ele>462.0</ele><time>2026-04-18T09:47:09.001Z</time></trkpt><trkpt lat="43.51608931046697" lon="10.90130778137742"><ele>463.0</ele><time>2026-04-18T09:47:10.001Z</time></trkpt><trkpt lat="43.515959425115184" lon="10.901208479580438"><ele>464.0</ele><time>2026-04-18T09:47:11.001Z</time></trkpt><trkpt lat="43.51583015070072" lon="10.901114599992809"><ele>464.0</ele><time>2026-04-18T09:47:12.001Z</time></trkpt><trkpt lat="43.515697189707865" lon="10.901021595913118"><ele>464.0</ele><time>2026-04-18T09:47:13.001Z</time></trkpt><trkpt lat="43.51556231273737" lon="10.90093003903133"><ele>464.0</ele><time>2026-04-18T09:47:14.001Z</time></trkpt><trkpt lat="43.51542362959635" lon="10.90084228110967"><ele>467.0</ele><time>2026-04-18T09:47:15.001Z</time></trkpt><trkpt lat="43.51528183819666" lon="10.900756973995652"><ele>470.0</ele><time>2026-04-18T09:47:16.001Z</time></trkpt><trkpt lat="43.51514116847539" lon="10.900669331172999"><ele>473.0</ele><time>2026-04-18T09:47:17.001Z</time></trkpt><trkpt lat="43.51499732713227" lon="10.900579391091117"><ele>473.0</ele><time>2026-04-18T09:47:18.001Z</time></trkpt><trkpt lat="43.51485336470172" lon="10.900487820764699"><ele>473.0</ele><time>2026-04-18T09:47:19.001Z</time></trkpt><trkpt lat="43.51471054287314" lon="10.900398427792744"><ele>473.0</ele><time>2026-04-18T09:47:20.001Z</time></trkpt><trkpt lat="43.514569956568955" lon="10.900303058085266"><ele>474.66666666666663</ele><time>2026-04-18T09:47:21.001Z</time></trkpt><trkpt lat="43.51443192702738" lon="10.900199351594985"><ele>476.33333333333337</ele><time>2026-04-18T09:47:22.001Z</time></trkpt><trkpt lat="43.51429862686806" lon="10.900081186393189"><ele>478.0</ele><time>2026-04-18T09:47:23.001Z</time></trkpt><trkpt lat="43.51417102302797" lon="10.899950651802662"><ele>478.0</ele><time>2026-04-18T09:47:24.001Z</time></trkpt><trkpt lat="43.51404262843827" lon="10.899820752070253"><ele>478.0</ele><time>2026-04-18T09:47:25.001Z</time></trkpt><trkpt lat="43.51391844302049" lon="10.899693748370387"><ele>478.0</ele><time>2026-04-18T09:47:26.001Z</time></trkpt><trkpt lat="43.513790949482434" lon="10.899558955130074"><ele>477.33333333333337</ele><time>2026-04-18T09:47:27.001Z</time></trkpt><trkpt lat="43.513660902594026" lon="10.899420930931623"><ele>476.66666666666663</ele><time>2026-04-18T09:47:28.001Z</time></trkpt><trkpt lat="43.51353380947944" lon="10.899287117656044"><ele>476.0</ele><time>2026-04-18T09:47:29.002Z</time></trkpt><trkpt lat="43.51340238443217" lon="10.899164208022126"><ele>478.3333333333333</ele><time>2026-04-18T09:47:30.002Z</time></trkpt><trkpt lat="43.51325760326644" lon="10.899066668050107"><ele>480.66666666666663</ele><time>2026-04-18T09:47:31.002Z</time></trkpt><trkpt lat="43.51310896999773" lon="10.898979724634343"><ele>483.0</ele><time>2026-04-18T09:47:32.002Z</time></trkpt><trkpt lat="43.512953126724156" lon="10.898932581470515"><ele>481.33333333333337</ele><time>2026-04-18T09:47:33.002Z</time></trkpt><trkpt lat="43.51280311203202" lon="10.898902858542733"><ele>479.6666666666667</ele><time>2026-04-18T09:47:34.002Z</time></trkpt><trkpt lat="43.51264875269574" lon="10.898908018325272"><ele>478.0</ele><time>2026-04-18T09:47:35.002Z</time></trkpt><trkpt lat="43.51249685964539" lon="10.898950524747212"><ele>478.0</ele><time>2026-04-18T09:47:36.002Z</time></trkpt><trkpt lat="43.51234849021885" lon="10.899015456883308"><ele>478.0</ele><time>2026-04-18T09:47:37.002Z</time></trkpt><trkpt lat="43.512215564209086" lon="10.899105795365834"><ele>478.0</ele><time>2026-04-18T09:47:38.002Z</time></trkpt><trkpt lat="43.512083506380066" lon="10.899221410170764"><ele>479.75</ele><time>2026-04-18T09:47:39.002Z</time></trkpt><trkpt lat="43.51196855047276" lon="10.899369085871527"><ele>481.5</ele><time>2026-04-18T09:47:40.002Z</time></trkpt><trkpt lat="43.511873650201444" lon="10.899541760881021"><ele>483.25</ele><time>2026-04-18T09:47:41.002Z</time></trkpt><trkpt lat="43.511826260710876" lon="10.8997114042924"><ele>485.0</ele><time>2026-04-18T09:47:42.002Z</time></trkpt><trkpt lat="43.51177906680188" lon="10.89991609114809"><ele>484.66666666666663</ele><time>2026-04-18T09:47:43.002Z</time></trkpt><trkpt lat="43.511751425906155" lon="10.900131238021757"><ele>484.33333333333337</ele><time>2026-04-18T09:47:44.002Z</time></trkpt><trkpt lat="43.51174534239751" lon="10.900350040979598"><ele>484.0</ele><time>2026-04-18T09:47:45.002Z</time></trkpt><trkpt lat="43.51174906186363" lon="10.900567596093344"><ele>484.0</ele><time>2026-04-18T09:47:46.002Z</time></trkpt><trkpt lat="43.51176255463661" lon="10.900783299210563"><ele>484.0</ele><time>2026-04-18T09:47:47.002Z</time></trkpt><trkpt lat="43.511796077511875" lon="10.90099958412502"><ele>484.0</ele><time>2026-04-18T09:47:48.002Z</time></trkpt><trkpt lat="43.511853717694756" lon="10.901209131575897"><ele>484.0</ele><time>2026-04-18T09:47:49.002Z</time></trkpt><trkpt lat="43.51192102130355" lon="10.90141164848509"><ele>484.0</ele><time>2026-04-18T09:47:50.002Z</time></trkpt><trkpt lat="43.51198854037528" lon="10.90161127952607"><ele>484.0</ele><time>2026-04-18T09:47:51.002Z</time></trkpt><trkpt lat="43.51206181963176" lon="10.9018119254462"><ele>483.6666666666667</ele><time>2026-04-18T09:47:52.002Z</time></trkpt><trkpt lat="43.512125935501125" lon="10.902020767890605"><ele>483.33333333333337</ele><time>2026-04-18T09:47:53.002Z</time></trkpt><trkpt lat="43.51217780082264" lon="10.902236867875803"><ele>483.0</ele><time>2026-04-18T09:47:54.002Z</time></trkpt><trkpt lat="43.512204980385654" lon="10.90246728280387"><ele>483.33333333333337</ele><time>2026-04-18T09:47:55.002Z</time></trkpt><trkpt lat="43.512212654666946" lon="10.902693531497178"><ele>483.6666666666667</ele><time>2026-04-18T09:47:56.002Z</time></trkpt><trkpt lat="43.51220469684592" lon="10.902917380962146"><ele>484.0</ele><time>2026-04-18T09:47:57.002Z</time></trkpt><trkpt lat="43.51219180310167" lon="10.903139392097204"><ele>484.0</ele><time>2026-04-18T09:47:58.002Z</time></trkpt><trkpt lat="43.51217592771651" lon="10.90335775753782"><ele>484.0</ele><time>2026-04-18T09:47:59.002Z</time></trkpt><trkpt lat="43.512158341263685" lon="10.903570429974065"><ele>484.0</ele><time>2026-04-18T09:48:00.002Z</time></trkpt><trkpt lat="43.5121421645564" lon="10.90378156868851"><ele>484.25</ele><time>2026-04-18T09:48:01.002Z</time></trkpt><trkpt lat="43.51211748101306" lon="10.903983617211182"><ele>484.5</ele><time>2026-04-18T09:48:02.002Z</time></trkpt><trkpt lat="43.512070679472664" lon="10.904173182421989"><ele>484.75</ele><time>2026-04-18T09:48:03.002Z</time></trkpt><trkpt lat="43.511999124766405" lon="10.904360303334814"><ele>485.0</ele><time>2026-04-18T09:48:04.002Z</time></trkpt><trkpt lat="43.5119060142118" lon="10.904515890006014"><ele>486.25</ele><time>2026-04-18T09:48:05.002Z</time></trkpt><trkpt lat="43.511794439379656" lon="10.90464184078284"><ele>487.5</ele><time>2026-04-18T09:48:06.002Z</time></trkpt><trkpt lat="43.51167135221367" lon="10.90472821254926"><ele>488.75</ele><time>2026-04-18T09:48:07.002Z</time></trkpt><trkpt lat="43.51154241913683" lon="10.904786841986157"><ele>490.0</ele><time>2026-04-18T09:48:08.002Z</time></trkpt><trkpt lat="43.51141272666641" lon="10.904833827394876"><ele>490.0</ele><time>2026-04-18T09:48:09.002Z</time></trkpt><trkpt lat="43.511282179368756" lon="10.904882085209211"><ele>490.0</ele><time>2026-04-18T09:48:10.002Z</time></trkpt><trkpt lat="43.51115079220942" lon="10.904929043670624"><ele>490.0</ele><time>2026-04-18T09:48:11.002Z</time></trkpt><trkpt lat="43.51101602941338" lon="10.904973557465173"><ele>490.0</ele><time>2026-04-18T09:48:12.003Z</time></trkpt><trkpt lat="43.510880502577606" lon="10.90502340728671"><ele>490.25</ele><time>2026-04-18T09:48:13Z</time></trkpt><trkpt lat="43.5107425642969" lon="10.905076611653945"><ele>490.5</ele><time>2026-04-18T09:48:14Z</time></trkpt><trkpt lat="43.51060389342789" lon="10.905125307893824"><ele>490.75</ele><time>2026-04-18T09:48:15Z</time></trkpt><trkpt lat="43.51046329150974" lon="10.905174304248765"><ele>491.0</ele><time>2026-04-18T09:48:16Z</time></trkpt><trkpt lat="43.510320092656805" lon="10.905223867744178"><ele>491.0</ele><time>2026-04-18T09:48:17Z</time></trkpt><trkpt lat="43.51017359302083" lon="10.905275039497724"><ele>491.0</ele><time>2026-04-18T09:48:18Z</time></trkpt><trkpt lat="43.51002644074977" lon="10.905328784066157"><ele>491.0</ele><time>2026-04-18T09:48:19Z</time></trkpt><trkpt lat="43.5098724461187" lon="10.90537971974151"><ele>491.0</ele><time>2026-04-18T09:48:20Z</time></trkpt><trkpt lat="43.5097199956764" lon="10.905430703799196"><ele>491.0</ele><time>2026-04-18T09:48:21Z</time></trkpt><trkpt lat="43.509568037676495" lon="10.905484584278431"><ele>491.0</ele><time>2026-04-18T09:48:22Z</time></trkpt><trkpt lat="43.50941341959459" lon="10.90554111575574"><ele>493.66666666666663</ele><time>2026-04-18T09:48:23Z</time></trkpt><trkpt lat="43.5092552700916" lon="10.905598303887013"><ele>496.33333333333337</ele><time>2026-04-18T09:48:24Z</time></trkpt><trkpt lat="43.5090945566144" lon="10.905656452515224"><ele>499.0</ele><time>2026-04-18T09:48:25Z</time></trkpt><trkpt lat="43.508927729823206" lon="10.905713171667895"><ele>499.0</ele><time>2026-04-18T09:48:26Z</time></trkpt><trkpt lat="43.50876108430532" lon="10.90576962578836"><ele>499.0</ele><time>2026-04-18T09:48:27Z</time></trkpt><trkpt lat="43.50859101489734" lon="10.905824664629629"><ele>499.0</ele><time>2026-04-18T09:48:28Z</time></trkpt><trkpt lat="43.50842379797791" lon="10.905883631646251"><ele>501.6666666666667</ele><time>2026-04-18T09:48:29Z</time></trkpt><trkpt lat="43.50825394532525" lon="10.905947403594364"><ele>504.33333333333337</ele><time>2026-04-18T09:48:30Z</time></trkpt><trkpt lat="43.50808423246719" lon="10.90600646540441"><ele>507.0</ele><time>2026-04-18T09:48:31Z</time></trkpt><trkpt lat="43.50791619807407" lon="10.906064409783546"><ele>508.0</ele><time>2026-04-18T09:48:32Z</time></trkpt><trkpt lat="43.50775380620771" lon="10.90613741384785"><ele>509.0</ele><time>2026-04-18T09:48:33Z</time></trkpt><trkpt lat="43.50760038722885" lon="10.90623460507687"><ele>510.0</ele><time>2026-04-18T09:48:34Z</time></trkpt><trkpt lat="43.507458540570624" lon="10.90635645188649"><ele>510.0</ele><time>2026-04-18T09:48:35Z</time></trkpt><trkpt lat="43.50732583819817" lon="10.906492578580153"><ele>510.0</ele><time>2026-04-18T09:48:36Z</time></trkpt><trkpt lat="43.50719621703275" lon="10.906632877698812"><ele>510.0</ele><time>2026-04-18T09:48:37Z</time></trkpt><trkpt lat="43.507068927527904" lon="10.90677882507284"><ele>513.3333333333334</ele><time>2026-04-18T09:48:38Z</time></trkpt><trkpt lat="43.506941712911626" lon="10.906922414728484"><ele>516.6666666666667</ele><time>2026-04-18T09:48:39Z</time></trkpt><trkpt lat="43.50681593355497" lon="10.907058962261617"><ele>520.0</ele><time>2026-04-18T09:48:40Z</time></trkpt><trkpt lat="43.50669317883695" lon="10.907201070253473"><ele>520.0</ele><time>2026-04-18T09:48:41Z</time></trkpt><trkpt lat="43.50656864241422" lon="10.907345369820824"><ele>520.0</ele><time>2026-04-18T09:48:42.001Z</time></trkpt><trkpt lat="43.50644417125231" lon="10.907483814960697"><ele>520.0</ele><time>2026-04-18T09:48:43.001Z</time></trkpt><trkpt lat="43.50632026813783" lon="10.907622326592007"><ele>521.3333333333334</ele><time>2026-04-18T09:48:44.001Z</time></trkpt><trkpt lat="43.506197582529765" lon="10.907755241896663"><ele>522.6666666666666</ele><time>2026-04-18T09:48:45.001Z</time></trkpt><trkpt lat="43.5060741506218" lon="10.907876872506623"><ele>524.0</ele><time>2026-04-18T09:48:46.001Z</time></trkpt><trkpt lat="43.50594802489818" lon="10.907978031944031"><ele>524.0</ele><time>2026-04-18T09:48:47.001Z</time></trkpt><trkpt lat="43.505818777097346" lon="10.908058938132774"><ele>524.0</ele><time>2026-04-18T09:48:48.001Z</time></trkpt><trkpt lat="43.505699139744756" lon="10.908111090681858"><ele>524.0</ele><time>2026-04-18T09:48:49.001Z</time></trkpt><trkpt lat="43.50560208062507" lon="10.90813726809491"><ele>524.0</ele><time>2026-04-18T09:48:50.001Z</time></trkpt><trkpt lat="43.50552498266005" lon="10.90815470125374"><ele>524.0</ele><time>2026-04-18T09:48:51.001Z</time></trkpt><trkpt lat="43.505453138096776" lon="10.908161640560191"><ele>524.8</ele><time>2026-04-18T09:48:52.001Z</time></trkpt><trkpt lat="43.5053794906059" lon="10.90816233902714"><ele>525.5999999999999</ele><time>2026-04-18T09:48:53.001Z</time></trkpt><trkpt lat="43.50529112426291" lon="10.908161322959772"><ele>526.4</ele><time>2026-04-18T09:48:54.001Z</time></trkpt><trkpt lat="43.505180533386074" lon="10.908161445410922"><ele>527.1999999999999</ele><time>2026-04-18T09:48:55.001Z</time></trkpt><trkpt lat="43.50506106505654" lon="10.908134642019506"><ele>528.0</ele><time>2026-04-18T09:48:56.001Z</time></trkpt><trkpt lat="43.50495186782087" lon="10.908128401277557"><ele>528.0</ele><time>2026-04-18T09:48:57.001Z</time></trkpt><trkpt lat="43.504852699179224" lon="10.908109696528099"><ele>528.0</ele><time>2026-04-18T09:48:58.001Z</time></trkpt><trkpt lat="43.504744832424805" lon="10.9080861714358"><ele>528.0</ele><time>2026-04-18T09:48:59.001Z</time></trkpt><trkpt lat="43.50463536096567" lon="10.908065936884379"><ele>528.0</ele><time>2026-04-18T09:49:00.001Z</time></trkpt><trkpt lat="43.50452497866973" lon="10.908041316721608"><ele>528.0</ele><time>2026-04-18T09:49:01.001Z</time></trkpt><trkpt lat="43.504428626469014" lon="10.908024297695817"><ele>529.1999999999999</ele><time>2026-04-18T09:49:02.001Z</time></trkpt><trkpt lat="43.504334806893404" lon="10.90800750791882"><ele>530.4</ele><time>2026-04-18T09:49:03.001Z</time></trkpt><trkpt lat="43.50424068140508" lon="10.907991130799216"><ele>531.5999999999999</ele><time>2026-04-18T09:49:04.001Z</time></trkpt><trkpt lat="43.50414705736549" lon="10.907975073524312"><ele>532.8</ele><time>2026-04-18T09:49:05.001Z</time></trkpt><trkpt lat="43.50405267714485" lon="10.907954379225673"><ele>534.0</ele><time>2026-04-18T09:49:06.001Z</time></trkpt><trkpt lat="43.503956189207486" lon="10.907937156514018"><ele>534.0</ele><time>2026-04-18T09:49:07.001Z</time></trkpt><trkpt lat="43.50385628048107" lon="10.90792263616681"><ele>534.0</ele><time>2026-04-18T09:49:08.001Z</time></trkpt><trkpt lat="43.50375921891001" lon="10.90790809829186"><ele>534.0</ele><time>2026-04-18T09:49:09.001Z</time></trkpt><trkpt lat="43.50365767256864" lon="10.907893298080255"><ele>534.0</ele><time>2026-04-18T09:49:10.001Z</time></trkpt><trkpt lat="43.50355143437063" lon="10.907877094525459"><ele>534.0</ele><time>2026-04-18T09:49:11.001Z</time></trkpt><trkpt lat="43.50344196580198" lon="10.90786189402262"><ele>534.5</ele><time>2026-04-18T09:49:12.001Z</time></trkpt><trkpt lat="43.50332966333183" lon="10.907842436560747"><ele>535.0</ele><time>2026-04-18T09:49:13.001Z</time></trkpt><trkpt lat="43.50322238511531" lon="10.9078305967091"><ele>535.5</ele><time>2026-04-18T09:49:14.001Z</time></trkpt><trkpt lat="43.50310931520087" lon="10.907814559320032"><ele>536.0</ele><time>2026-04-18T09:49:15.001Z</time></trkpt><trkpt lat="43.502994368175095" lon="10.907797469938568"><ele>535.5</ele><time>2026-04-18T09:49:16.001Z</time></trkpt><trkpt lat="43.502875383939426" lon="10.90777706667243"><ele>535.0</ele><time>2026-04-18T09:49:17.001Z</time></trkpt><trkpt lat="43.50275258374787" lon="10.90775872387626"><ele>534.5</ele><time>2026-04-18T09:49:18.001Z</time></trkpt><trkpt lat="43.502637242365" lon="10.907740478594254"><ele>534.0</ele><time>2026-04-18T09:49:19.001Z</time></trkpt><trkpt lat="43.50252214778133" lon="10.907721853669667"><ele>534.0</ele><time>2026-04-18T09:49:20.001Z</time></trkpt><trkpt lat="43.50240673961116" lon="10.907703182606653"><ele>534.0</ele><time>2026-04-18T09:49:21.001Z</time></trkpt><trkpt lat="43.502290569547796" lon="10.907684759695808"><ele>534.0</ele><time>2026-04-18T09:49:22.001Z</time></trkpt><trkpt lat="43.502170363803906" lon="10.907669747682528"><ele>534.0</ele><time>2026-04-18T09:49:23.001Z</time></trkpt><trkpt lat="43.502047365047964" lon="10.907650511008967"><ele>534.75</ele><time>2026-04-18T09:49:24.001Z</time></trkpt><trkpt lat="43.50191840952296" lon="10.90764175855789"><ele>535.5</ele><time>2026-04-18T09:49:25.001Z</time></trkpt><trkpt lat="43.50178207662695" lon="10.907658382709126"><ele>536.25</ele><time>2026-04-18T09:49:26.001Z</time></trkpt><trkpt lat="43.50165644861037" lon="10.907707191318263"><ele>537.0</ele><time>2026-04-18T09:49:27.002Z</time></trkpt><trkpt lat="43.50153613480854" lon="10.907784542222418"><ele>537.0</ele><time>2026-04-18T09:49:28.002Z</time></trkpt><trkpt lat="43.501422527979386" lon="10.907883129239991"><ele>537.0</ele><time>2026-04-18T09:49:29.002Z</time></trkpt><trkpt lat="43.50131503544473" lon="10.907995677088794"><ele>537.0</ele><time>2026-04-18T09:49:30.002Z</time></trkpt><trkpt lat="43.50122364535828" lon="10.908129576801427"><ele>537.0</ele><time>2026-04-18T09:49:31.002Z</time></trkpt><trkpt lat="43.50114056346518" lon="10.90827449235646"><ele>538.25</ele><time>2026-04-18T09:49:32.002Z</time></trkpt><trkpt lat="43.50106526199681" lon="10.908420591584209"><ele>539.5</ele><time>2026-04-18T09:49:33.002Z</time></trkpt><trkpt lat="43.500985781125806" lon="10.90860295462392"><ele>540.75</ele><time>2026-04-18T09:49:34.002Z</time></trkpt><trkpt lat="43.50091328397511" lon="10.908777840839864"><ele>542.0</ele><time>2026-04-18T09:49:35.002Z</time></trkpt><trkpt lat="43.50085599756077" lon="10.908944980611956"><ele>542.0</ele><time>2026-04-18T09:49:36.002Z</time></trkpt><trkpt lat="43.50079629956671" lon="10.909130653886155"><ele>542.0</ele><time>2026-04-18T09:49:37.002Z</time></trkpt><trkpt lat="43.50074740521088" lon="10.909306448557993"><ele>542.0</ele><time>2026-04-18T09:49:38.002Z</time></trkpt><trkpt lat="43.5006993687778" lon="10.90947815962385"><ele>542.0</ele><time>2026-04-18T09:49:39.002Z</time></trkpt><trkpt lat="43.50065716064175" lon="10.909637423709519"><ele>542.0</ele><time>2026-04-18T09:49:40.002Z</time></trkpt><trkpt lat="43.500617529937344" lon="10.909790987429693"><ele>542.0</ele><time>2026-04-18T09:49:41.002Z</time></trkpt><trkpt lat="43.500586197019516" lon="10.909938056802016"><ele>542.0</ele><time>2026-04-18T09:49:42.002Z</time></trkpt><trkpt lat="43.500566030372134" lon="10.910092032111118"><ele>542.0</ele><time>2026-04-18T09:49:43.002Z</time></trkpt><trkpt lat="43.50055575797378" lon="10.910254176864521"><ele>543.0</ele><time>2026-04-18T09:49:44.002Z</time></trkpt><trkpt lat="43.50056630522399" lon="10.910427344843448"><ele>544.0</ele><time>2026-04-18T09:49:45.002Z</time></trkpt><trkpt lat="43.50059035577818" lon="10.910601333570936"><ele>545.0</ele><time>2026-04-18T09:49:46.002Z</time></trkpt><trkpt lat="43.50061966255536" lon="10.910773000456409"><ele>546.0</ele><time>2026-04-18T09:49:47.002Z</time></trkpt><trkpt lat="43.50065566581115" lon="10.910942314361161"><ele>546.0</ele><time>2026-04-18T09:49:48.002Z</time></trkpt><trkpt lat="43.50068574255145" lon="10.911123558733335"><ele>546.0</ele><time>2026-04-18T09:49:49.002Z</time></trkpt><trkpt lat="43.50071882079958" lon="10.911313045037266"><ele>546.0</ele><time>2026-04-18T09:49:50.002Z</time></trkpt><trkpt lat="43.50074405351584" lon="10.911493059675326"><ele>546.0</ele><time>2026-04-18T09:49:51.002Z</time></trkpt><trkpt lat="43.50076742216209" lon="10.911679474000938"><ele>544.75</ele><time>2026-04-18T09:49:52.002Z</time></trkpt><trkpt lat="43.500771766436145" lon="10.911873311080301"><ele>543.5</ele><time>2026-04-18T09:49:53.002Z</time></trkpt><trkpt lat="43.500749227962814" lon="10.912063447454486"><ele>542.25</ele><time>2026-04-18T09:49:54.002Z</time></trkpt><trkpt lat="43.500703435171616" lon="10.912245131909351"><ele>541.0</ele><time>2026-04-18T09:49:55.002Z</time></trkpt><trkpt lat="43.50064679433021" lon="10.91242643833465"><ele>540.0</ele><time>2026-04-18T09:49:56.002Z</time></trkpt><trkpt lat="43.50059031788075" lon="10.91259625061255"><ele>539.0</ele><time>2026-04-18T09:49:57.002Z</time></trkpt><trkpt lat="43.50053395043472" lon="10.912757140749683"><ele>538.0</ele><time>2026-04-18T09:49:58.002Z</time></trkpt><trkpt lat="43.50049690525202" lon="10.912895230774733"><ele>537.0</ele><time>2026-04-18T09:49:59.002Z</time></trkpt><trkpt lat="43.50043741327406" lon="10.913044797736145"><ele>537.0</ele><time>2026-04-18T09:50:00.002Z</time></trkpt><trkpt lat="43.50037861857201" lon="10.913187058981459"><ele>537.0</ele><time>2026-04-18T09:50:01.002Z</time></trkpt><trkpt lat="43.50031760411003" lon="10.913332050196328"><ele>537.0</ele><time>2026-04-18T09:50:02.002Z</time></trkpt><trkpt lat="43.500251888982355" lon="10.913474890649931"><ele>537.0</ele><time>2026-04-18T09:50:03.002Z</time></trkpt><trkpt lat="43.50016767305041" lon="10.913613202766472"><ele>537.25</ele><time>2026-04-18T09:50:04.002Z</time></trkpt><trkpt lat="43.50009367391573" lon="10.913766922239956"><ele>537.5</ele><time>2026-04-18T09:50:05.002Z</time></trkpt><trkpt lat="43.5000241327563" lon="10.913927571403796"><ele>537.75</ele><time>2026-04-18T09:50:06.002Z</time></trkpt><trkpt lat="43.49994827790645" lon="10.91408867868949"><ele>538.0</ele><time>2026-04-18T09:50:07.002Z</time></trkpt><trkpt lat="43.49988817136177" lon="10.91423832655391"><ele>538.0</ele><time>2026-04-18T09:50:08.002Z</time></trkpt><trkpt lat="43.499849056768845" lon="10.914393303655405"><ele>538.0</ele><time>2026-04-18T09:50:09.002Z</time></trkpt><trkpt lat="43.499831043616844" lon="10.914562271476795"><ele>538.0</ele><time>2026-04-18T09:50:10.003Z</time></trkpt><trkpt lat="43.49983543791847" lon="10.91473129318464"><ele>538.0</ele><time>2026-04-18T09:50:11.003Z</time></trkpt><trkpt lat="43.49984840753007" lon="10.914900094435055"><ele>538.0</ele><time>2026-04-18T09:50:12.003Z</time></trkpt><trkpt lat="43.49986910832762" lon="10.915069409582884"><ele>538.0</ele><time>2026-04-18T09:50:13.003Z</time></trkpt><trkpt lat="43.499890276790794" lon="10.915243227971043"><ele>538.0</ele><time>2026-04-18T09:50:14.003Z</time></trkpt><trkpt lat="43.49990970546888" lon="10.915420767218512"><ele>538.0</ele><time>2026-04-18T09:50:15.003Z</time></trkpt><trkpt lat="43.499931960098124" lon="10.915603744317458"><ele>537.75</ele><time>2026-04-18T09:50:16.003Z</time></trkpt><trkpt lat="43.49994968921488" lon="10.91578730575834"><ele>537.5</ele><time>2026-04-18T09:50:17.003Z</time></trkpt><trkpt lat="43.499963899408804" lon="10.915968425180722"><ele>537.25</ele><time>2026-04-18T09:50:18.003Z</time></trkpt><trkpt lat="43.49997102463346" lon="10.916145984593271"><ele>537.0</ele><time>2026-04-18T09:50:19Z</time></trkpt><trkpt lat="43.499953703409346" lon="10.916319722061113"><ele>536.5</ele><time>2026-04-18T09:50:20Z</time></trkpt><trkpt lat="43.49991105153386" lon="10.916485914515148"><ele>536.0</ele><time>2026-04-18T09:50:21Z</time></trkpt><trkpt lat="43.49983509695056" lon="10.916637050023954"><ele>535.5</ele><time>2026-04-18T09:50:22Z</time></trkpt><trkpt lat="43.499763550096084" lon="10.91677809391501"><ele>535.0</ele><time>2026-04-18T09:50:23Z</time></trkpt><trkpt lat="43.499643634435095" lon="10.916857782927652"><ele>536.6</ele><time>2026-04-18T09:50:24Z</time></trkpt><trkpt lat="43.499550717150214" lon="10.916931248618546"><ele>538.2</ele><time>2026-04-18T09:50:25Z</time></trkpt><trkpt lat="43.49946172479991" lon="10.917022291030644"><ele>539.8</ele><time>2026-04-18T09:50:26Z</time></trkpt><trkpt lat="43.49937874044541" lon="10.917080616192077"><ele>541.4</ele><time>2026-04-18T09:50:27Z</time></trkpt><trkpt lat="43.49930508651629" lon="10.917132254791674"><ele>543.0</ele><time>2026-04-18T09:50:28Z</time></trkpt><trkpt lat="43.499245192343935" lon="10.917174393989393"><ele>543.0</ele><time>2026-04-18T09:50:29Z</time></trkpt><trkpt lat="43.499158081808055" lon="10.917219423759287"><ele>543.0</ele><time>2026-04-18T09:50:31Z</time></trkpt><trkpt lat="43.49908067598571" lon="10.917259942627116"><ele>543.0</ele><time>2026-04-18T09:50:34Z</time></trkpt><trkpt lat="43.499001995056254" lon="10.917329674162646"><ele>543.0</ele><time>2026-04-18T09:51:15.001Z</time></trkpt><trkpt lat="43.498927878473886" lon="10.917412976370338"><ele>543.0</ele><time>2026-04-18T09:51:17.001Z</time></trkpt><trkpt lat="43.49881983923603" lon="10.91749733731494"><ele>543.1999999999999</ele><time>2026-04-18T09:51:19.001Z</time></trkpt><trkpt lat="43.49874921886311" lon="10.917547697459222"><ele>543.4</ele><time>2026-04-18T09:51:20.001Z</time></trkpt><trkpt lat="43.49866691612665" lon="10.917599693659808"><ele>543.5999999999999</ele><time>2026-04-18T09:51:21.001Z</time></trkpt><trkpt lat="43.49856894071841" lon="10.917642571662897"><ele>543.8</ele><time>2026-04-18T09:51:22.001Z</time></trkpt><trkpt lat="43.49847491456837" lon="10.917667910552888"><ele>544.0</ele><time>2026-04-18T09:51:23.001Z</time></trkpt><trkpt lat="43.498373993110995" lon="10.917673624438631"><ele>542.8</ele><time>2026-04-18T09:51:24.001Z</time></trkpt><trkpt lat="43.498271970483835" lon="10.91768883278579"><ele>541.5999999999999</ele><time>2026-04-18T09:51:25.001Z</time></trkpt><trkpt lat="43.49817110740624" lon="10.917715538883206"><ele>540.4</ele><time>2026-04-18T09:51:26.001Z</time></trkpt><trkpt lat="43.49809131636199" lon="10.917778269349723"><ele>539.1999999999999</ele><time>2026-04-18T09:51:27.001Z</time></trkpt><trkpt lat="43.49802096878373" lon="10.917861650581182"><ele>538.0</ele><time>2026-04-18T09:51:28.001Z</time></trkpt><trkpt lat="43.49796662388459" lon="10.917977235543779"><ele>538.0</ele><time>2026-04-18T09:51:29.001Z</time></trkpt><trkpt lat="43.49792975441208" lon="10.918105596103565"><ele>538.0</ele><time>2026-04-18T09:51:30.001Z</time></trkpt><trkpt lat="43.49786894253068" lon="10.918250205208784"><ele>538.0</ele><time>2026-04-18T09:51:31.001Z</time></trkpt><trkpt lat="43.49783615755104" lon="10.918425184773444"><ele>538.0</ele><time>2026-04-18T09:51:32.001Z</time></trkpt><trkpt lat="43.49778100097277" lon="10.918594551627326"><ele>538.0</ele><time>2026-04-18T09:51:33.001Z</time></trkpt><trkpt lat="43.49773258165667" lon="10.918765306491679"><ele>538.0</ele><time>2026-04-18T09:51:34.001Z</time></trkpt><trkpt lat="43.497675648356264" lon="10.918940025947022"><ele>538.0</ele><time>2026-04-18T09:51:35.001Z</time></trkpt><trkpt lat="43.49761841118747" lon="10.919109718896046"><ele>538.0</ele><time>2026-04-18T09:51:36.002Z</time></trkpt><trkpt lat="43.49755879017558" lon="10.919278053556555"><ele>536.5</ele><time>2026-04-18T09:51:37.002Z</time></trkpt><trkpt lat="43.49750128416226" lon="10.919443361874798"><ele>535.0</ele><time>2026-04-18T09:51:38.002Z</time></trkpt><trkpt lat="43.497446820153044" lon="10.919606398820722"><ele>533.5</ele><time>2026-04-18T09:51:39.002Z</time></trkpt><trkpt lat="43.49739852403649" lon="10.919764333560982"><ele>532.0</ele><time>2026-04-18T09:51:40.002Z</time></trkpt><trkpt lat="43.49738157019343" lon="10.919940568953368"><ele>530.75</ele><time>2026-04-18T09:51:41.002Z</time></trkpt><trkpt lat="43.497398247495624" lon="10.920119705692494"><ele>529.5</ele><time>2026-04-18T09:51:42.002Z</time></trkpt><trkpt lat="43.49738905955806" lon="10.920288236046254"><ele>528.25</ele><time>2026-04-18T09:51:43.002Z</time></trkpt><trkpt lat="43.49741179213035" lon="10.920448943783844"><ele>527.0</ele><time>2026-04-18T09:51:44.002Z</time></trkpt><trkpt lat="43.49740551610841" lon="10.920592737889379"><ele>527.0</ele><time>2026-04-18T09:51:45.002Z</time></trkpt><trkpt lat="43.49739403113632" lon="10.920721960321321"><ele>527.0</ele><time>2026-04-18T09:51:46.002Z</time></trkpt><trkpt lat="43.49732884113057" lon="10.92084221168665"><ele>527.0</ele><time>2026-04-18T09:51:47.002Z</time></trkpt><trkpt lat="43.497272375658234" lon="10.92089148119521"><ele>527.0</ele><time>2026-04-18T09:51:48.002Z</time></trkpt><trkpt lat="43.49719134974949" lon="10.920964579021366"><ele>527.0</ele><time>2026-04-18T09:51:49.002Z</time></trkpt><trkpt lat="43.49708530655686" lon="10.921000460658625"><ele>524.75</ele><time>2026-04-18T09:51:50.002Z</time></trkpt><trkpt lat="43.49698492827028" lon="10.921054089328347"><ele>522.5</ele><time>2026-04-18T09:51:51.002Z</time></trkpt><trkpt lat="43.49685831609153" lon="10.92110729147653"><ele>520.25</ele><time>2026-04-18T09:51:52.002Z</time></trkpt><trkpt lat="43.49673305821679" lon="10.921167003141807"><ele>518.0</ele><time>2026-04-18T09:51:53.002Z</time></trkpt><trkpt lat="43.49660892930377" lon="10.92123438812202"><ele>518.0</ele><time>2026-04-18T09:51:54.002Z</time></trkpt><trkpt lat="43.49649092165246" lon="10.921318378308607"><ele>518.0</ele><time>2026-04-18T09:51:55.002Z</time></trkpt><trkpt lat="43.496383826589025" lon="10.921439967499976"><ele>518.0</ele><time>2026-04-18T09:51:56.002Z</time></trkpt><trkpt lat="43.49630263550026" lon="10.921578251096385"><ele>518.0</ele><time>2026-04-18T09:51:57.002Z</time></trkpt><trkpt lat="43.49621653724736" lon="10.921742232092999"><ele>517.6666666666666</ele><time>2026-04-18T09:51:58.002Z</time></trkpt><trkpt lat="43.49612824353163" lon="10.921901473924947"><ele>517.3333333333334</ele><time>2026-04-18T09:51:59.002Z</time></trkpt><trkpt lat="43.49604599741696" lon="10.92207891018873"><ele>517.0</ele><time>2026-04-18T09:52:00.002Z</time></trkpt><trkpt lat="43.49597549074143" lon="10.922272704152661"><ele>517.0</ele><time>2026-04-18T09:52:01.002Z</time></trkpt><trkpt lat="43.495881869943084" lon="10.922432710923536"><ele>517.0</ele><time>2026-04-18T09:52:02.002Z</time></trkpt><trkpt lat="43.49580075146879" lon="10.922605974976618"><ele>517.0</ele><time>2026-04-18T09:52:03.002Z</time></trkpt><trkpt lat="43.49571503160506" lon="10.922767348651766"><ele>517.0</ele><time>2026-04-18T09:52:04.002Z</time></trkpt><trkpt lat="43.4956164483271" lon="10.922916442464608"><ele>517.5</ele><time>2026-04-18T09:52:05.002Z</time></trkpt><trkpt lat="43.49550327328676" lon="10.923057573927197"><ele>518.0</ele><time>2026-04-18T09:52:06.002Z</time></trkpt><trkpt lat="43.49539104502685" lon="10.923190691980272"><ele>518.5</ele><time>2026-04-18T09:52:07.002Z</time></trkpt><trkpt lat="43.495280321391625" lon="10.923322025320898"><ele>519.0</ele><time>2026-04-18T09:52:08.002Z</time></trkpt><trkpt lat="43.49516953278343" lon="10.923455252452607"><ele>518.0</ele><time>2026-04-18T09:52:09.002Z</time></trkpt><trkpt lat="43.49506989579429" lon="10.92360047082421"><ele>517.0</ele><time>2026-04-18T09:52:10.002Z</time></trkpt><trkpt lat="43.4949611348952" lon="10.92373083667071"><ele>516.0</ele><time>2026-04-18T09:52:11.002Z</time></trkpt><trkpt lat="43.49485368503378" lon="10.92386146102936"><ele>515.0</ele><time>2026-04-18T09:52:12.002Z</time></trkpt><trkpt lat="43.4947473961997" lon="10.923995134651213"><ele>515.0</ele><time>2026-04-18T09:52:13.002Z</time></trkpt><trkpt lat="43.494641137112296" lon="10.924125557332516"><ele>515.0</ele><time>2026-04-18T09:52:14.002Z</time></trkpt><trkpt lat="43.494537218421456" lon="10.924269459596406"><ele>515.0</ele><time>2026-04-18T09:52:15.002Z</time></trkpt><trkpt lat="43.494430387081906" lon="10.9244093421802"><ele>515.0</ele><time>2026-04-18T09:52:16.002Z</time></trkpt><trkpt lat="43.49432386205432" lon="10.924549811111754"><ele>513.0</ele><time>2026-04-18T09:52:17.002Z</time></trkpt><trkpt lat="43.49421111478559" lon="10.924691871650102"><ele>511.0</ele><time>2026-04-18T09:52:18.002Z</time></trkpt><trkpt lat="43.49411206430424" lon="10.92483081221782"><ele>509.0</ele><time>2026-04-18T09:52:19.002Z</time></trkpt><trkpt lat="43.494034763886944" lon="10.924959767791053"><ele>507.0</ele><time>2026-04-18T09:52:20.003Z</time></trkpt><trkpt lat="43.49396834975705" lon="10.92510280488504"><ele>506.0</ele><time>2026-04-18T09:52:21.003Z</time></trkpt><trkpt lat="43.49392651798735" lon="10.925274791280502"><ele>505.0</ele><time>2026-04-18T09:52:22.003Z</time></trkpt><trkpt lat="43.493908813391755" lon="10.925457623281815"><ele>504.0</ele><time>2026-04-18T09:52:23.003Z</time></trkpt><trkpt lat="43.49389910069086" lon="10.925648640590783"><ele>503.0</ele><time>2026-04-18T09:52:24.003Z</time></trkpt><trkpt lat="43.49389434102412" lon="10.925829146918046"><ele>502.0</ele><time>2026-04-18T09:52:25.001Z</time></trkpt><trkpt lat="43.493889882918445" lon="10.926000493065034"><ele>500.99999999999994</ele><time>2026-04-18T09:52:26.001Z</time></trkpt><trkpt lat="43.49388500576312" lon="10.926156455269147"><ele>499.99999999999994</ele><time>2026-04-18T09:52:27.001Z</time></trkpt><trkpt lat="43.49388211211048" lon="10.926304063505894"><ele>499.0</ele><time>2026-04-18T09:52:28.001Z</time></trkpt><trkpt lat="43.49387961968699" lon="10.92642810114296"><ele>498.0</ele><time>2026-04-18T09:52:29.001Z</time></trkpt><trkpt lat="43.49387710761941" lon="10.926534832925899"><ele>498.0</ele><time>2026-04-18T09:52:30.001Z</time></trkpt><trkpt lat="43.49386614146241" lon="10.926624278150008"><ele>498.0</ele><time>2026-04-18T09:52:31.001Z</time></trkpt><trkpt lat="43.49386742207694" lon="10.926712353305296"><ele>498.0</ele><time>2026-04-18T09:52:33.001Z</time></trkpt><trkpt lat="43.49376966772918" lon="10.92682711555461"><ele>498.0</ele><time>2026-04-18T09:52:35.001Z</time></trkpt><trkpt lat="43.49371525887539" lon="10.926888437238272"><ele>498.0</ele><time>2026-04-18T09:52:36.001Z</time></trkpt><trkpt lat="43.49365557188919" lon="10.926959398835763"><ele>498.0</ele><time>2026-04-18T09:52:37.001Z</time></trkpt><trkpt lat="43.49358671261577" lon="10.927038067034298"><ele>498.0</ele><time>2026-04-18T09:52:38.001Z</time></trkpt><trkpt lat="43.49351613281061" lon="10.92713308363601"><ele>497.99999999999994</ele><time>2026-04-18T09:52:39.001Z</time></trkpt><trkpt lat="43.49344246398079" lon="10.927239810561403"><ele>497.99999999999994</ele><time>2026-04-18T09:52:40.001Z</time></trkpt><trkpt lat="43.49335835655247" lon="10.927342804707093"><ele>498.0</ele><time>2026-04-18T09:52:41.001Z</time></trkpt><trkpt lat="43.49327728742834" lon="10.927465830673324"><ele>498.0</ele><time>2026-04-18T09:52:42.001Z</time></trkpt><trkpt lat="43.49318806730494" lon="10.9275964266161"><ele>497.0</ele><time>2026-04-18T09:52:43.001Z</time></trkpt><trkpt lat="43.49309536799806" lon="10.927740982552482"><ele>496.0</ele><time>2026-04-18T09:52:44.001Z</time></trkpt><trkpt lat="43.49300229021971" lon="10.927881788902072"><ele>495.0</ele><time>2026-04-18T09:52:45.001Z</time></trkpt><trkpt lat="43.49290798778664" lon="10.928012847121927"><ele>494.0</ele><time>2026-04-18T09:52:46.001Z</time></trkpt><trkpt lat="43.49281613818969" lon="10.928154641726683"><ele>491.75</ele><time>2026-04-18T09:52:47.001Z</time></trkpt><trkpt lat="43.49272211902317" lon="10.928284895513402"><ele>489.5</ele><time>2026-04-18T09:52:48.001Z</time></trkpt><trkpt lat="43.49262876516749" lon="10.928414250489343"><ele>487.25</ele><time>2026-04-18T09:52:49.001Z</time></trkpt><trkpt lat="43.492534252027376" lon="10.928531181605823"><ele>485.0</ele><time>2026-04-18T09:52:50.001Z</time></trkpt><trkpt lat="43.4924427255006" lon="10.928630915681264"><ele>484.75</ele><time>2026-04-18T09:52:51.001Z</time></trkpt><trkpt lat="43.4923432499339" lon="10.928715505156662"><ele>484.5</ele><time>2026-04-18T09:52:52.001Z</time></trkpt><trkpt lat="43.49223582171205" lon="10.928772980523394"><ele>484.25</ele><time>2026-04-18T09:52:53.001Z</time></trkpt><trkpt lat="43.492125381472455" lon="10.928803778170945"><ele>484.0</ele><time>2026-04-18T09:52:54.001Z</time></trkpt><trkpt lat="43.49200655929884" lon="10.928802253966186"><ele>484.5</ele><time>2026-04-18T09:52:55.001Z</time></trkpt><trkpt lat="43.491887383835895" lon="10.928771095391763"><ele>485.0</ele><time>2026-04-18T09:52:56.001Z</time></trkpt><trkpt lat="43.491783810207636" lon="10.928696781757592"><ele>485.5</ele><time>2026-04-18T09:52:57.001Z</time></trkpt><trkpt lat="43.49167125805791" lon="10.928623648566056"><ele>486.0</ele><time>2026-04-18T09:52:58.001Z</time></trkpt><trkpt lat="43.49157166436991" lon="10.928551340561956"><ele>486.0</ele><time>2026-04-18T09:52:59.001Z</time></trkpt><trkpt lat="43.4914663597439" lon="10.928496387970961"><ele>486.0</ele><time>2026-04-18T09:53:00.001Z</time></trkpt><trkpt lat="43.491350282470165" lon="10.92848931210861"><ele>486.0</ele><time>2026-04-18T09:53:01.001Z</time></trkpt><trkpt lat="43.491231923196686" lon="10.928523205780557"><ele>486.0</ele><time>2026-04-18T09:53:02.001Z</time></trkpt><trkpt lat="43.49113896549938" lon="10.928588552230625"><ele>483.25</ele><time>2026-04-18T09:53:03.001Z</time></trkpt><trkpt lat="43.491049318265794" lon="10.928680029479338"><ele>480.5</ele><time>2026-04-18T09:53:04.001Z</time></trkpt><trkpt lat="43.49097549218917" lon="10.928802640411863"><ele>477.75</ele><time>2026-04-18T09:53:05.001Z</time></trkpt><trkpt lat="43.49090990844178" lon="10.928945026889473"><ele>475.0</ele><time>2026-04-18T09:53:06.001Z</time></trkpt><trkpt lat="43.49084784897174" lon="10.929091483317222"><ele>476.25</ele><time>2026-04-18T09:53:07.001Z</time></trkpt><trkpt lat="43.49077988547883" lon="10.929246466293725"><ele>477.5</ele><time>2026-04-18T09:53:08.001Z</time></trkpt><trkpt lat="43.49071793205006" lon="10.929405225777185"><ele>478.75</ele><time>2026-04-18T09:53:09.001Z</time></trkpt><trkpt lat="43.49065502232186" lon="10.929580851109803"><ele>480.0</ele><time>2026-04-18T09:53:10.001Z</time></trkpt><trkpt lat="43.49057483064741" lon="10.929748353318628"><ele>480.0</ele><time>2026-04-18T09:53:11.001Z</time></trkpt><trkpt lat="43.4905079040781" lon="10.92991345584299"><ele>480.0</ele><time>2026-04-18T09:53:12.001Z</time></trkpt><trkpt lat="43.49044274966324" lon="10.930082028647861"><ele>480.0</ele><time>2026-04-18T09:53:13.001Z</time></trkpt><trkpt lat="43.490371017627275" lon="10.930255709540907"><ele>480.0</ele><time>2026-04-18T09:53:14.001Z</time></trkpt><trkpt lat="43.49030119152128" lon="10.930426745471891"><ele>475.5</ele><time>2026-04-18T09:53:15.001Z</time></trkpt><trkpt lat="43.49023681295984" lon="10.930595690058142"><ele>471.0</ele><time>2026-04-18T09:53:16.001Z</time></trkpt><trkpt lat="43.49017781580033" lon="10.930763892696124"><ele>466.5</ele><time>2026-04-18T09:53:17.001Z</time></trkpt><trkpt lat="43.49011680440487" lon="10.930931744273252"><ele>462.0</ele><time>2026-04-18T09:53:18.001Z</time></trkpt><trkpt lat="43.49008431105471" lon="10.931113799618464"><ele>461.75</ele><time>2026-04-18T09:53:19.001Z</time></trkpt><trkpt lat="43.49007128194895" lon="10.931298077465987"><ele>461.5</ele><time>2026-04-18T09:53:20.001Z</time></trkpt><trkpt lat="43.49006890281992" lon="10.931480379994554"><ele>461.25</ele><time>2026-04-18T09:53:21.001Z</time></trkpt><trkpt lat="43.490063160531726" lon="10.931659055934514"><ele>461.0</ele><time>2026-04-18T09:53:22.001Z</time></trkpt><trkpt lat="43.49006539356304" lon="10.93182548835816"><ele>460.49999999999994</ele><time>2026-04-18T09:53:23.001Z</time></trkpt><trkpt lat="43.49007114456778" lon="10.931968785780494"><ele>460.0</ele><time>2026-04-18T09:53:24.001Z</time></trkpt><trkpt lat="43.49007184126961" lon="10.932097166605269"><ele>459.5</ele><time>2026-04-18T09:53:25.001Z</time></trkpt><trkpt lat="43.49007593379522" lon="10.932220101813115"><ele>459.0</ele><time>2026-04-18T09:53:26.001Z</time></trkpt><trkpt lat="43.49007320166793" lon="10.932329612936378"><ele>458.49999999999994</ele><time>2026-04-18T09:53:27.001Z</time></trkpt><trkpt lat="43.49005055126014" lon="10.932417526877193"><ele>458.0</ele><time>2026-04-18T09:53:28.001Z</time></trkpt><trkpt lat="43.489991578538856" lon="10.932504051146198"><ele>457.99999999999994</ele><time>2026-04-18T09:53:29.001Z</time></trkpt><trkpt lat="43.48990934491306" lon="10.932509781302002"><ele>458.0</ele><time>2026-04-18T09:53:30.001Z</time></trkpt><trkpt lat="43.4898423827996" lon="10.932484409328655"><ele>458.0</ele><time>2026-04-18T09:53:31.001Z</time></trkpt><trkpt lat="43.48977804237082" lon="10.932429695872617"><ele>458.0</ele><time>2026-04-18T09:53:32.001Z</time></trkpt><trkpt lat="43.489765089002624" lon="10.932301187711104"><ele>457.99999999999994</ele><time>2026-04-18T09:53:33.001Z</time></trkpt><trkpt lat="43.489740988525654" lon="10.932172265607297"><ele>458.0</ele><time>2026-04-18T09:53:34.001Z</time></trkpt><trkpt lat="43.48973492792188" lon="10.932031631639205"><ele>458.0</ele><time>2026-04-18T09:53:35.002Z</time></trkpt><trkpt lat="43.48972506296097" lon="10.931877179835991"><ele>458.0</ele><time>2026-04-18T09:53:36.002Z</time></trkpt><trkpt lat="43.48971543814473" lon="10.93170839085635"><ele>458.0</ele><time>2026-04-18T09:53:37.002Z</time></trkpt><trkpt lat="43.48970284994699" lon="10.93152955264397"><ele>458.0</ele><time>2026-04-18T09:53:38.002Z</time></trkpt><trkpt lat="43.48968483436579" lon="10.931341273485597"><ele>458.75</ele><time>2026-04-18T09:53:39.002Z</time></trkpt><trkpt lat="43.48967262206433" lon="10.931149052348085"><ele>459.5</ele><time>2026-04-18T09:53:40.002Z</time></trkpt><trkpt lat="43.48965489572677" lon="10.930950586227128"><ele>460.25</ele><time>2026-04-18T09:53:41.002Z</time></trkpt><trkpt lat="43.48964053858219" lon="10.93075424956675"><ele>461.0</ele><time>2026-04-18T09:53:42.002Z</time></trkpt><trkpt lat="43.48961722915483" lon="10.930554816650696"><ele>455.25</ele><time>2026-04-18T09:53:43.002Z</time></trkpt><trkpt lat="43.489591549523354" lon="10.93035540546878"><ele>449.5</ele><time>2026-04-18T09:53:44.002Z</time></trkpt><trkpt lat="43.4895579649959" lon="10.930154563575643"><ele>443.75</ele><time>2026-04-18T09:53:45.002Z</time></trkpt><trkpt lat="43.48950646729939" lon="10.929956276165054"><ele>438.0</ele><time>2026-04-18T09:53:46.002Z</time></trkpt><trkpt lat="43.48944704407799" lon="10.929763825523601"><ele>437.75</ele><time>2026-04-18T09:53:47.002Z</time></trkpt><trkpt lat="43.48938948377366" lon="10.929579363907354"><ele>437.5</ele><time>2026-04-18T09:53:48.002Z</time></trkpt><trkpt lat="43.48933484478453" lon="10.929399435434505"><ele>437.25</ele><time>2026-04-18T09:53:49.002Z</time></trkpt><trkpt lat="43.48928149440569" lon="10.92922354801483"><ele>437.0</ele><time>2026-04-18T09:53:50.002Z</time></trkpt><trkpt lat="43.489243884879286" lon="10.9290449821192"><ele>436.66666666666663</ele><time>2026-04-18T09:53:51.002Z</time></trkpt><trkpt lat="43.48922796848119" lon="10.928853603574991"><ele>436.33333333333337</ele><time>2026-04-18T09:53:52.002Z</time></trkpt><trkpt lat="43.48923413685866" lon="10.928659436240942"><ele>436.0</ele><time>2026-04-18T09:53:53.002Z</time></trkpt><trkpt lat="43.48926295041324" lon="10.928250245947366"><ele>435.33333333333337</ele><time>2026-04-18T09:53:55.002Z</time></trkpt><trkpt lat="43.489276282714236" lon="10.928038926835391"><ele>434.66666666666663</ele><time>2026-04-18T09:53:56.002Z</time></trkpt><trkpt lat="43.489295851800144" lon="10.92782419196304"><ele>434.0</ele><time>2026-04-18T09:53:57.002Z</time></trkpt><trkpt lat="43.48931117630217" lon="10.92760816901013"><ele>433.3333333333333</ele><time>2026-04-18T09:53:58.002Z</time></trkpt><trkpt lat="43.48932733577919" lon="10.927391676939184"><ele>432.66666666666663</ele><time>2026-04-18T09:53:59.002Z</time></trkpt><trkpt lat="43.48934464529105" lon="10.9271725715066"><ele>432.0</ele><time>2026-04-18T09:54:00.002Z</time></trkpt><trkpt lat="43.48937028595511" lon="10.92695480710447"><ele>432.0</ele><time>2026-04-18T09:54:01.002Z</time></trkpt><trkpt lat="43.48939854011219" lon="10.926736265939573"><ele>432.0</ele><time>2026-04-18T09:54:02.002Z</time></trkpt><trkpt lat="43.48942636321531" lon="10.926516447766307"><ele>432.0</ele><time>2026-04-18T09:54:03.002Z</time></trkpt><trkpt lat="43.489461729804695" lon="10.926296142116106"><ele>429.66666666666663</ele><time>2026-04-18T09:54:04.002Z</time></trkpt><trkpt lat="43.4894941013433" lon="10.926072539566318"><ele>427.3333333333333</ele><time>2026-04-18T09:54:05.002Z</time></trkpt><trkpt lat="43.48952533173476" lon="10.925849712931548"><ele>425.0</ele><time>2026-04-18T09:54:06.002Z</time></trkpt><trkpt lat="43.4895557585263" lon="10.925631030920313"><ele>425.0</ele><time>2026-04-18T09:54:07.002Z</time></trkpt><trkpt lat="43.48958822696327" lon="10.925410278551727"><ele>425.0</ele><time>2026-04-18T09:54:08.002Z</time></trkpt><trkpt lat="43.489623377300155" lon="10.92519257096638"><ele>425.0</ele><time>2026-04-18T09:54:09.002Z</time></trkpt><trkpt lat="43.489653400817836" lon="10.924980763338421"><ele>425.0</ele><time>2026-04-18T09:54:10.002Z</time></trkpt><trkpt lat="43.48968161073855" lon="10.924793724891861"><ele>425.0</ele><time>2026-04-18T09:54:11.002Z</time></trkpt><trkpt lat="43.489707662069485" lon="10.924638682398557"><ele>425.0</ele><time>2026-04-18T09:54:12.002Z</time></trkpt><trkpt lat="43.48972890451528" lon="10.92452891345818"><ele>425.0</ele><time>2026-04-18T09:54:13.002Z</time></trkpt><trkpt lat="43.48974262253772" lon="10.924433286435361"><ele>425.0</ele><time>2026-04-18T09:54:14.002Z</time></trkpt><trkpt lat="43.489757857385705" lon="10.924303232924823"><ele>425.0</ele><time>2026-04-18T09:54:16.002Z</time></trkpt><trkpt lat="43.48976716227591" lon="10.924188088325376"><ele>425.0</ele><time>2026-04-18T09:54:19.002Z</time></trkpt><trkpt lat="43.48975993420529" lon="10.924282566851698"><ele>425.0</ele><time>2026-04-18T09:54:30.003Z</time></trkpt><trkpt lat="43.48966972682834" lon="10.924534263682348"><ele>425.0</ele><time>2026-04-18T09:54:33Z</time></trkpt><trkpt lat="43.48965429227746" lon="10.924645710678107"><ele>425.0</ele><time>2026-04-18T09:54:34Z</time></trkpt><trkpt lat="43.48964216183962" lon="10.92474238585808"><ele>423.0</ele><time>2026-04-18T09:54:35Z</time></trkpt><trkpt lat="43.489573490558996" lon="10.924875291658745"><ele>421.0</ele><time>2026-04-18T09:54:37Z</time></trkpt><trkpt lat="43.4894865834957" lon="10.924913436997619"><ele>419.0</ele><time>2026-04-18T09:54:39Z</time></trkpt><trkpt lat="43.489409476177485" lon="10.924912633940261"><ele>417.0</ele><time>2026-04-18T09:54:52Z</time></trkpt><trkpt lat="43.48934038687113" lon="10.92492245927128"><ele>415.0</ele><time>2026-04-18T09:54:54Z</time></trkpt><trkpt lat="43.48923180616551" lon="10.925000579594645"><ele>415.33333333333337</ele><time>2026-04-18T09:54:56Z</time></trkpt><trkpt lat="43.489183283505" lon="10.925069963491362"><ele>415.6666666666667</ele><time>2026-04-18T09:54:57Z</time></trkpt><trkpt lat="43.489141728717264" lon="10.925150865726497"><ele>416.0</ele><time>2026-04-18T09:54:58Z</time></trkpt><trkpt lat="43.489115477834325" lon="10.925248626020698"><ele>416.33333333333337</ele><time>2026-04-18T09:54:59Z</time></trkpt><trkpt lat="43.489104920387156" lon="10.925356752004967"><ele>416.6666666666667</ele><time>2026-04-18T09:55:00Z</time></trkpt><trkpt lat="43.48909955029284" lon="10.925470386953402"><ele>417.0</ele><time>2026-04-18T09:55:01Z</time></trkpt><trkpt lat="43.48909731795981" lon="10.925591327656695"><ele>417.0</ele><time>2026-04-18T09:55:02Z</time></trkpt><trkpt lat="43.489101816230864" lon="10.925714708113713"><ele>417.0</ele><time>2026-04-18T09:55:03Z</time></trkpt><trkpt lat="43.48910566026212" lon="10.925834562986884"><ele>417.0</ele><time>2026-04-18T09:55:04Z</time></trkpt><trkpt lat="43.48907948983612" lon="10.925946914067834"><ele>417.0</ele><time>2026-04-18T09:55:05Z</time></trkpt><trkpt lat="43.48903448824628" lon="10.926060931770925"><ele>417.0</ele><time>2026-04-18T09:55:06Z</time></trkpt><trkpt lat="43.48897664154434" lon="10.926165015321462"><ele>418.6</ele><time>2026-04-18T09:55:07Z</time></trkpt><trkpt lat="43.48890979469087" lon="10.926254332006765"><ele>420.20000000000005</ele><time>2026-04-18T09:55:08Z</time></trkpt><trkpt lat="43.48880156589485" lon="10.92633271006672"><ele>421.8</ele><time>2026-04-18T09:55:09Z</time></trkpt><trkpt lat="43.48870081734498" lon="10.926384399231106"><ele>423.4</ele><time>2026-04-18T09:55:10Z</time></trkpt><trkpt lat="43.48860580270212" lon="10.926419753562868"><ele>425.0</ele><time>2026-04-18T09:55:11Z</time></trkpt><trkpt lat="43.48850060834015" lon="10.926462504555085"><ele>421.4</ele><time>2026-04-18T09:55:12Z</time></trkpt><trkpt lat="43.488402768413366" lon="10.926499697627413"><ele>417.8</ele><time>2026-04-18T09:55:13Z</time></trkpt><trkpt lat="43.48831817498158" lon="10.926527404698135"><ele>414.20000000000005</ele><time>2026-04-18T09:55:14Z</time></trkpt><trkpt lat="43.488222062711024" lon="10.926553910328042"><ele>410.6</ele><time>2026-04-18T09:55:15Z</time></trkpt><trkpt lat="43.488143250170175" lon="10.926593885121248"><ele>407.0</ele><time>2026-04-18T09:55:16Z</time></trkpt><trkpt lat="43.488069283548825" lon="10.926653667361236"><ele>408.16666666666663</ele><time>2026-04-18T09:55:17Z</time></trkpt><trkpt lat="43.48800246288745" lon="10.926734951328672"><ele>409.3333333333333</ele><time>2026-04-18T09:55:18Z</time></trkpt><trkpt lat="43.487949902326164" lon="10.926837474047488"><ele>410.5</ele><time>2026-04-18T09:55:19Z</time></trkpt><trkpt lat="43.4879092907636" lon="10.926952115305664"><ele>411.66666666666663</ele><time>2026-04-18T09:55:20Z</time></trkpt><trkpt lat="43.487873818104916" lon="10.927047491706164"><ele>412.8333333333333</ele><time>2026-04-18T09:55:21Z</time></trkpt><trkpt lat="43.48782514652646" lon="10.927121829210819"><ele>414.0</ele><time>2026-04-18T09:55:22Z</time></trkpt><trkpt lat="43.48776309979489" lon="10.927154620744412"><ele>411.0</ele><time>2026-04-18T09:55:23Z</time></trkpt><trkpt lat="43.48770089233963" lon="10.927186147464706"><ele>408.0</ele><time>2026-04-18T09:55:24Z</time></trkpt><trkpt lat="43.487628892831985" lon="10.927141076816222"><ele>405.0</ele><time>2026-04-18T09:55:25Z</time></trkpt><trkpt lat="43.48757550031473" lon="10.927078636607149"><ele>402.0</ele><time>2026-04-18T09:55:26Z</time></trkpt><trkpt lat="43.48754080517888" lon="10.926972766687355"><ele>399.0</ele><time>2026-04-18T09:55:27Z</time></trkpt><trkpt lat="43.48754286824536" lon="10.926859173805063"><ele>396.0</ele><time>2026-04-18T09:55:28Z</time></trkpt><trkpt lat="43.487562971030215" lon="10.926749049483513"><ele>395.3333333333333</ele><time>2026-04-18T09:55:29Z</time></trkpt><trkpt lat="43.48758706850725" lon="10.926655607430336"><ele>394.66666666666663</ele><time>2026-04-18T09:55:30Z</time></trkpt><trkpt lat="43.48755698683921" lon="10.92655485391551"><ele>394.0</ele><time>2026-04-18T09:55:31Z</time></trkpt><trkpt lat="43.48749438288029" lon="10.926465645816155"><ele>393.3333333333333</ele><time>2026-04-18T09:55:32Z</time></trkpt><trkpt lat="43.48742462281556" lon="10.926401077545163"><ele>392.66666666666663</ele><time>2026-04-18T09:55:33Z</time></trkpt><trkpt lat="43.48732670435655" lon="10.926367702172275"><ele>392.0</ele><time>2026-04-18T09:55:34.001Z</time></trkpt><trkpt lat="43.487226414271674" lon="10.926352586913168"><ele>392.0</ele><time>2026-04-18T09:55:35.001Z</time></trkpt><trkpt lat="43.48711076396016" lon="10.926336693647498"><ele>392.0</ele><time>2026-04-18T09:55:36.001Z</time></trkpt><trkpt lat="43.486997857437395" lon="10.926323148360392"><ele>392.0</ele><time>2026-04-18T09:55:37.001Z</time></trkpt><trkpt lat="43.486875312317494" lon="10.926301768813884"><ele>392.0</ele><time>2026-04-18T09:55:38.001Z</time></trkpt><trkpt lat="43.486753922966074" lon="10.92628986281796"><ele>388.5</ele><time>2026-04-18T09:55:39.001Z</time></trkpt><trkpt lat="43.48662980994451" lon="10.926259863692444"><ele>385.0</ele><time>2026-04-18T09:55:40.001Z</time></trkpt><trkpt lat="43.48650446545111" lon="10.926239756436"><ele>381.5</ele><time>2026-04-18T09:55:41.001Z</time></trkpt><trkpt lat="43.486378197688424" lon="10.926219094422871"><ele>378.0</ele><time>2026-04-18T09:55:42.001Z</time></trkpt><trkpt lat="43.48625853448041" lon="10.926206178248108"><ele>377.5</ele><time>2026-04-18T09:55:43.001Z</time></trkpt><trkpt lat="43.48614376769642" lon="10.926207399867955"><ele>377.0</ele><time>2026-04-18T09:55:44.001Z</time></trkpt><trkpt lat="43.4860302360747" lon="10.926217651504876"><ele>376.5</ele><time>2026-04-18T09:55:45.001Z</time></trkpt><trkpt lat="43.485910279076926" lon="10.926228515959444"><ele>376.0</ele><time>2026-04-18T09:55:46.001Z</time></trkpt><trkpt lat="43.485791043022004" lon="10.926237458959486"><ele>376.0</ele><time>2026-04-18T09:55:47.001Z</time></trkpt><trkpt lat="43.48566745291917" lon="10.92624970498849"><ele>376.0</ele><time>2026-04-18T09:55:48.001Z</time></trkpt><trkpt lat="43.48554999734015" lon="10.926263433968225"><ele>376.0</ele><time>2026-04-18T09:55:49.001Z</time></trkpt><trkpt lat="43.48543943648041" lon="10.926276961526003"><ele>376.0</ele><time>2026-04-18T09:55:50.001Z</time></trkpt><trkpt lat="43.485324758119155" lon="10.926282176865401"><ele>374.0</ele><time>2026-04-18T09:55:51.001Z</time></trkpt><trkpt lat="43.4852129376069" lon="10.926258864443309"><ele>372.0</ele><time>2026-04-18T09:55:52.001Z</time></trkpt><trkpt lat="43.485094534247224" lon="10.926217316182493"><ele>370.0</ele><time>2026-04-18T09:55:53.001Z</time></trkpt><trkpt lat="43.48499232637163" lon="10.92614159102208"><ele>368.0</ele><time>2026-04-18T09:55:54.001Z</time></trkpt><trkpt lat="43.48489809523593" lon="10.926032205939675"><ele>368.0</ele><time>2026-04-18T09:55:55.001Z</time></trkpt><trkpt lat="43.484812451531276" lon="10.925919384807711"><ele>368.0</ele><time>2026-04-18T09:55:56.001Z</time></trkpt><trkpt lat="43.48473285659395" lon="10.925797270664747"><ele>368.0</ele><time>2026-04-18T09:55:57.001Z</time></trkpt><trkpt lat="43.484664185613155" lon="10.925682610765755"><ele>368.0</ele><time>2026-04-18T09:55:58.001Z</time></trkpt><trkpt lat="43.48458284258908" lon="10.925599738149279"><ele>368.0</ele><time>2026-04-18T09:55:59.001Z</time></trkpt><trkpt lat="43.484493805665174" lon="10.92553574655696"><ele>367.0</ele><time>2026-04-18T09:56:00.001Z</time></trkpt><trkpt lat="43.48440232442891" lon="10.925498061956047"><ele>366.0</ele><time>2026-04-18T09:56:01.001Z</time></trkpt><trkpt lat="43.48430058556811" lon="10.925500989854102"><ele>365.0</ele><time>2026-04-18T09:56:02.001Z</time></trkpt><trkpt lat="43.48419048851173" lon="10.925523463126728"><ele>364.0</ele><time>2026-04-18T09:56:03.001Z</time></trkpt><trkpt lat="43.48407834452731" lon="10.925556179047003"><ele>363.0</ele><time>2026-04-18T09:56:04.001Z</time></trkpt><trkpt lat="43.48396493413391" lon="10.9255958486933"><ele>363.0</ele><time>2026-04-18T09:56:05.001Z</time></trkpt><trkpt lat="43.483865080966055" lon="10.925691637551186"><ele>363.0</ele><time>2026-04-18T09:56:06.001Z</time></trkpt><trkpt lat="43.483755520903486" lon="10.925783191069323"><ele>363.0</ele><time>2026-04-18T09:56:07.001Z</time></trkpt><trkpt lat="43.48366124316573" lon="10.925909971054864"><ele>363.0</ele><time>2026-04-18T09:56:08.001Z</time></trkpt><trkpt lat="43.48355224155725" lon="10.926028630851924"><ele>360.5</ele><time>2026-04-18T09:56:09.001Z</time></trkpt><trkpt lat="43.48345577070629" lon="10.9261388845206"><ele>358.0</ele><time>2026-04-18T09:56:10.001Z</time></trkpt><trkpt lat="43.48334671194935" lon="10.926232028990118"><ele>355.5</ele><time>2026-04-18T09:56:11.001Z</time></trkpt><trkpt lat="43.48322970041374" lon="10.926309159898063"><ele>353.0</ele><time>2026-04-18T09:56:12.001Z</time></trkpt><trkpt lat="43.48311417624316" lon="10.926368086977634"><ele>353.0</ele><time>2026-04-18T09:56:13.001Z</time></trkpt><trkpt lat="43.48299673255654" lon="10.926417548932376"><ele>353.0</ele><time>2026-04-18T09:56:14.001Z</time></trkpt><trkpt lat="43.48287644651863" lon="10.92646324068317"><ele>353.0</ele><time>2026-04-18T09:56:15.001Z</time></trkpt><trkpt lat="43.48275951949748" lon="10.926496534787287"><ele>353.0</ele><time>2026-04-18T09:56:16.001Z</time></trkpt><trkpt lat="43.48264711768412" lon="10.926533854196922"><ele>352.79999999999995</ele><time>2026-04-18T09:56:17.001Z</time></trkpt><trkpt lat="43.4825418291708" lon="10.926581544834006"><ele>352.6</ele><time>2026-04-18T09:56:18.001Z</time></trkpt><trkpt lat="43.48245064485908" lon="10.926628186164564"><ele>352.4</ele><time>2026-04-18T09:56:19.001Z</time></trkpt><trkpt lat="43.48236310577493" lon="10.926671783358383"><ele>352.20000000000005</ele><time>2026-04-18T09:56:20.001Z</time></trkpt><trkpt lat="43.48227678519407" lon="10.926741228548954"><ele>352.0</ele><time>2026-04-18T09:56:21.001Z</time></trkpt><trkpt lat="43.48219307351258" lon="10.926841456066784"><ele>351.8</ele><time>2026-04-18T09:56:22.001Z</time></trkpt><trkpt lat="43.48210318683356" lon="10.926949929374809"><ele>351.6</ele><time>2026-04-18T09:56:23.001Z</time></trkpt><trkpt lat="43.48202005486784" lon="10.927063672567844"><ele>351.40000000000003</ele><time>2026-04-18T09:56:24.001Z</time></trkpt><trkpt lat="43.481950688023844" lon="10.92717432401003"><ele>351.20000000000005</ele><time>2026-04-18T09:56:25.002Z</time></trkpt><trkpt lat="43.48187217137272" lon="10.927265104462025"><ele>351.0</ele><time>2026-04-18T09:56:26.002Z</time></trkpt><trkpt lat="43.48179092225775" lon="10.927331277721006"><ele>350.20000000000005</ele><time>2026-04-18T09:56:27.002Z</time></trkpt><trkpt lat="43.48170142117009" lon="10.927378318253606"><ele>349.40000000000003</ele><time>2026-04-18T09:56:28.002Z</time></trkpt><trkpt lat="43.48159918514428" lon="10.927396687743817"><ele>348.6</ele><time>2026-04-18T09:56:29.002Z</time></trkpt><trkpt lat="43.48149764797412" lon="10.92739046358212"><ele>347.8</ele><time>2026-04-18T09:56:30.002Z</time></trkpt><trkpt lat="43.48139146287221" lon="10.927369964275252"><ele>347.0</ele><time>2026-04-18T09:56:31.002Z</time></trkpt><trkpt lat="43.481280380781534" lon="10.927340133741978"><ele>346.25</ele><time>2026-04-18T09:56:32.002Z</time></trkpt><trkpt lat="43.48116240390174" lon="10.927313076988726"><ele>345.5</ele><time>2026-04-18T09:56:33.002Z</time></trkpt><trkpt lat="43.48104253390476" lon="10.927281519298445"><ele>344.75</ele><time>2026-04-18T09:56:34.002Z</time></trkpt><trkpt lat="43.480917334635286" lon="10.927256618718655"><ele>344.0</ele><time>2026-04-18T09:56:35.002Z</time></trkpt><trkpt lat="43.48079072452745" lon="10.927235044533495"><ele>344.0</ele><time>2026-04-18T09:56:36.002Z</time></trkpt><trkpt lat="43.480667540534746" lon="10.927217478431212"><ele>344.0</ele><time>2026-04-18T09:56:37Z</time></trkpt><trkpt lat="43.48054386624645" lon="10.927208123301543"><ele>344.0</ele><time>2026-04-18T09:56:38Z</time></trkpt><trkpt lat="43.48042276745446" lon="10.927197364154443"><ele>344.0</ele><time>2026-04-18T09:56:39Z</time></trkpt><trkpt lat="43.480307626998865" lon="10.927180535467617"><ele>343.5</ele><time>2026-04-18T09:56:40Z</time></trkpt><trkpt lat="43.48018958881898" lon="10.927172991251055"><ele>343.0</ele><time>2026-04-18T09:56:41Z</time></trkpt><trkpt lat="43.48007176969574" lon="10.927154368470417"><ele>342.5</ele><time>2026-04-18T09:56:42Z</time></trkpt><trkpt lat="43.47994666515648" lon="10.927150295515832"><ele>342.0</ele><time>2026-04-18T09:56:43Z</time></trkpt><trkpt lat="43.47982553278012" lon="10.927160868355887"><ele>342.0</ele><time>2026-04-18T09:56:44Z</time></trkpt><trkpt lat="43.47970443990254" lon="10.927163287847964"><ele>342.0</ele><time>2026-04-18T09:56:45Z</time></trkpt><trkpt lat="43.479587873919364" lon="10.927168009251249"><ele>342.0</ele><time>2026-04-18T09:56:46Z</time></trkpt><trkpt lat="43.479463026621076" lon="10.927177040060444"><ele>342.0</ele><time>2026-04-18T09:56:47Z</time></trkpt><trkpt lat="43.47933733744602" lon="10.927186205397295"><ele>341.25</ele><time>2026-04-18T09:56:48Z</time></trkpt><trkpt lat="43.47921216250056" lon="10.927187979836178"><ele>340.5</ele><time>2026-04-18T09:56:49Z</time></trkpt><trkpt lat="43.47908993978198" lon="10.927189480641054"><ele>339.75</ele><time>2026-04-18T09:56:50Z</time></trkpt><trkpt lat="43.478975499095725" lon="10.927187229214335"><ele>339.0</ele><time>2026-04-18T09:56:51Z</time></trkpt><trkpt lat="43.47886259283188" lon="10.927179287129572"><ele>337.5</ele><time>2026-04-18T09:56:52Z</time></trkpt><trkpt lat="43.4787493070526" lon="10.927157386966003"><ele>336.0</ele><time>2026-04-18T09:56:53Z</time></trkpt><trkpt lat="43.4786409023284" lon="10.927120487539806"><ele>334.5</ele><time>2026-04-18T09:56:54Z</time></trkpt><trkpt lat="43.47852830800902" lon="10.927083041840861"><ele>333.0</ele><time>2026-04-18T09:56:55Z</time></trkpt><trkpt lat="43.47841953453757" lon="10.92703057982224"><ele>333.0</ele><time>2026-04-18T09:56:56Z</time></trkpt><trkpt lat="43.47830405733479" lon="10.926982629568599"><ele>333.0</ele><time>2026-04-18T09:56:57Z</time></trkpt><trkpt lat="43.47818675484219" lon="10.926932205421798"><ele>333.0</ele><time>2026-04-18T09:56:58Z</time></trkpt><trkpt lat="43.47806144254313" lon="10.926882273645374"><ele>333.0</ele><time>2026-04-18T09:56:59Z</time></trkpt><trkpt lat="43.477938763966236" lon="10.926828391195137"><ele>332.25</ele><time>2026-04-18T09:57:00Z</time></trkpt><trkpt lat="43.47781348695912" lon="10.926776304519576"><ele>331.5</ele><time>2026-04-18T09:57:01Z</time></trkpt><trkpt lat="43.477685163372854" lon="10.926720821287377"><ele>330.75</ele><time>2026-04-18T09:57:02Z</time></trkpt><trkpt lat="43.47755727844699" lon="10.926660088627777"><ele>330.0</ele><time>2026-04-18T09:57:03Z</time></trkpt><trkpt lat="43.47742954493265" lon="10.926588883483067"><ele>328.75</ele><time>2026-04-18T09:57:04Z</time></trkpt><trkpt lat="43.47730249493824" lon="10.926508997385927"><ele>327.5</ele><time>2026-04-18T09:57:05Z</time></trkpt><trkpt lat="43.47717307307641" lon="10.926425104778103"><ele>326.25</ele><time>2026-04-18T09:57:06Z</time></trkpt><trkpt lat="43.4770472420256" lon="10.926343061634364"><ele>325.0</ele><time>2026-04-18T09:57:07Z</time></trkpt><trkpt lat="43.47692650494129" lon="10.92626092818766"><ele>325.0</ele><time>2026-04-18T09:57:08Z</time></trkpt><trkpt lat="43.47681241255043" lon="10.926180199750048"><ele>325.0</ele><time>2026-04-18T09:57:09Z</time></trkpt><trkpt lat="43.47670993480982" lon="10.926105385679744"><ele>325.0</ele><time>2026-04-18T09:57:10Z</time></trkpt><trkpt lat="43.476608413809636" lon="10.926037661610195"><ele>325.0</ele><time>2026-04-18T09:57:11Z</time></trkpt><trkpt lat="43.47651374270581" lon="10.925970845850843"><ele>325.0</ele><time>2026-04-18T09:57:12Z</time></trkpt><trkpt lat="43.4764173856032" lon="10.925901055684399"><ele>325.0</ele><time>2026-04-18T09:57:13.001Z</time></trkpt><trkpt lat="43.47632458527775" lon="10.925844854788908"><ele>325.0</ele><time>2026-04-18T09:57:14.001Z</time></trkpt><trkpt lat="43.476239314650826" lon="10.925798588009997"><ele>325.0</ele><time>2026-04-18T09:57:15.001Z</time></trkpt><trkpt lat="43.476151074378365" lon="10.925758842258771"><ele>325.0</ele><time>2026-04-18T09:57:16.001Z</time></trkpt><trkpt lat="43.47605905987396" lon="10.925728172290858"><ele>325.0</ele><time>2026-04-18T09:57:17.001Z</time></trkpt><trkpt lat="43.475966374561395" lon="10.9257193964281"><ele>325.0</ele><time>2026-04-18T09:57:18.001Z</time></trkpt><trkpt lat="43.47586650697091" lon="10.92572423178225"><ele>325.0</ele><time>2026-04-18T09:57:19.001Z</time></trkpt><trkpt lat="43.47575879012416" lon="10.925741521840683"><ele>325.0</ele><time>2026-04-18T09:57:20.001Z</time></trkpt><trkpt lat="43.47564788990007" lon="10.925769036584988"><ele>325.0</ele><time>2026-04-18T09:57:21.001Z</time></trkpt><trkpt lat="43.47553347295772" lon="10.925798734073881"><ele>323.5</ele><time>2026-04-18T09:57:22.001Z</time></trkpt><trkpt lat="43.47541963575251" lon="10.925831610319639"><ele>322.0</ele><time>2026-04-18T09:57:23.001Z</time></trkpt><trkpt lat="43.475304055209286" lon="10.925865980877228"><ele>320.5</ele><time>2026-04-18T09:57:24.001Z</time></trkpt><trkpt lat="43.47520238440271" lon="10.92589855232627"><ele>319.0</ele><time>2026-04-18T09:57:25.001Z</time></trkpt><trkpt lat="43.47508385214511" lon="10.925928160876781"><ele>314.25</ele><time>2026-04-18T09:57:26.001Z</time></trkpt><trkpt lat="43.47496439172931" lon="10.92596649234148"><ele>309.5</ele><time>2026-04-18T09:57:27.001Z</time></trkpt><trkpt lat="43.47484010601165" lon="10.926001577109961"><ele>304.75</ele><time>2026-04-18T09:57:28.001Z</time></trkpt><trkpt lat="43.47472171011695" lon="10.926024526779166"><ele>300.0</ele><time>2026-04-18T09:57:29.001Z</time></trkpt><trkpt lat="43.47462241217451" lon="10.926033028701047"><ele>301.1666666666667</ele><time>2026-04-18T09:57:30.001Z</time></trkpt><trkpt lat="43.474542018231844" lon="10.926040261333258"><ele>302.3333333333333</ele><time>2026-04-18T09:57:31.001Z</time></trkpt><trkpt lat="43.47446057539316" lon="10.926033654033311"><ele>303.5</ele><time>2026-04-18T09:57:32.001Z</time></trkpt><trkpt lat="43.47439490700469" lon="10.926016452556766"><ele>304.66666666666663</ele><time>2026-04-18T09:57:33.001Z</time></trkpt><trkpt lat="43.4742972749504" lon="10.925962275742007"><ele>305.8333333333333</ele><time>2026-04-18T09:57:35.001Z</time></trkpt><trkpt lat="43.4742332713684" lon="10.925894175599327"><ele>307.0</ele><time>2026-04-18T09:58:30.002Z</time></trkpt><trkpt lat="43.47415773310864" lon="10.925830116714344"><ele>307.0</ele><time>2026-04-18T09:58:35.002Z</time></trkpt><trkpt lat="43.47408086580144" lon="10.925756932286752"><ele>307.0</ele><time>2026-04-18T09:58:37.002Z</time></trkpt><trkpt lat="43.47400856092103" lon="10.925664344341055"><ele>307.0</ele><time>2026-04-18T09:58:39.002Z</time></trkpt><trkpt lat="43.4739608501792" lon="10.92559059459866"><ele>307.0</ele><time>2026-04-18T09:58:51Z</time></trkpt><trkpt lat="43.47389112152737" lon="10.925500787009945"><ele>307.0</ele><time>2026-04-18T09:58:55Z</time></trkpt><trkpt lat="43.473801355794954" lon="10.925389559041617"><ele>305.4</ele><time>2026-04-18T09:58:57Z</time></trkpt><trkpt lat="43.47374339498331" lon="10.92531838948039"><ele>303.79999999999995</ele><time>2026-04-18T09:58:58Z</time></trkpt><trkpt lat="43.47368442159916" lon="10.925233204944458"><ele>302.2</ele><time>2026-04-18T09:58:59Z</time></trkpt><trkpt lat="43.47362822529647" lon="10.92512838160319"><ele>300.59999999999997</ele><time>2026-04-18T09:59:00Z</time></trkpt><trkpt lat="43.473574456542465" lon="10.925014922119413"><ele>299.0</ele><time>2026-04-18T09:59:01Z</time></trkpt><trkpt lat="43.47352186981817" lon="10.924892449722982"><ele>299.0</ele><time>2026-04-18T09:59:02Z</time></trkpt><trkpt lat="43.47347026783885" lon="10.924769757847272"><ele>299.0</ele><time>2026-04-18T09:59:03Z</time></trkpt><trkpt lat="43.47341826059088" lon="10.924662262524885"><ele>299.0</ele><time>2026-04-18T09:59:04Z</time></trkpt><trkpt lat="43.47336142693817" lon="10.924558420926651"><ele>299.0</ele><time>2026-04-18T09:59:05Z</time></trkpt><trkpt lat="43.473295759300186" lon="10.924459285137987"><ele>299.0</ele><time>2026-04-18T09:59:06Z</time></trkpt><trkpt lat="43.473228916263075" lon="10.924380748871606"><ele>299.0</ele><time>2026-04-18T09:59:07Z</time></trkpt><trkpt lat="43.47315487685961" lon="10.924302866520582"><ele>299.0</ele><time>2026-04-18T09:59:08Z</time></trkpt><trkpt lat="43.47307346287082" lon="10.924226168462766"><ele>299.0</ele><time>2026-04-18T09:59:09Z</time></trkpt><trkpt lat="43.472981606509244" lon="10.92415385219758"><ele>299.0</ele><time>2026-04-18T09:59:10Z</time></trkpt><trkpt lat="43.472887080175134" lon="10.924077172421466"><ele>299.0</ele><time>2026-04-18T09:59:11Z</time></trkpt><trkpt lat="43.47278857119611" lon="10.92400015214084"><ele>296.5</ele><time>2026-04-18T09:59:12Z</time></trkpt><trkpt lat="43.47269126998171" lon="10.923915766726958"><ele>294.0</ele><time>2026-04-18T09:59:13Z</time></trkpt><trkpt lat="43.472588036207526" lon="10.923836962490592"><ele>291.5</ele><time>2026-04-18T09:59:14Z</time></trkpt><trkpt lat="43.472486248288746" lon="10.923755778615886"><ele>289.0</ele><time>2026-04-18T09:59:15Z</time></trkpt><trkpt lat="43.47239540772929" lon="10.923680201774584"><ele>289.0</ele><time>2026-04-18T09:59:16.001Z</time></trkpt><trkpt lat="43.47231221117303" lon="10.923610399185122"><ele>289.0</ele><time>2026-04-18T09:59:17.001Z</time></trkpt><trkpt lat="43.472241509869605" lon="10.923541880042619"><ele>289.0</ele><time>2026-04-18T09:59:18.001Z</time></trkpt><trkpt lat="43.472185148305066" lon="10.923467233546523"><ele>289.0</ele><time>2026-04-18T09:59:19.001Z</time></trkpt><trkpt lat="43.472142212437625" lon="10.923374333854962"><ele>289.0</ele><time>2026-04-18T09:59:20.001Z</time></trkpt><trkpt lat="43.472114212710764" lon="10.923272470631414"><ele>289.0</ele><time>2026-04-18T09:59:21.001Z</time></trkpt><trkpt lat="43.472108082685274" lon="10.923156159011326"><ele>289.8</ele><time>2026-04-18T09:59:22.001Z</time></trkpt><trkpt lat="43.47212538807674" lon="10.923037037079284"><ele>290.59999999999997</ele><time>2026-04-18T09:59:23.001Z</time></trkpt><trkpt lat="43.4721771412107" lon="10.922931466994273"><ele>291.4</ele><time>2026-04-18T09:59:24.001Z</time></trkpt><trkpt lat="43.47224299893079" lon="10.922834352342244"><ele>292.2</ele><time>2026-04-18T09:59:25.001Z</time></trkpt><trkpt lat="43.47231239989432" lon="10.922735422694037"><ele>293.0</ele><time>2026-04-18T09:59:26.001Z</time></trkpt><trkpt lat="43.47239096504111" lon="10.922638970733034"><ele>290.8</ele><time>2026-04-18T09:59:27.001Z</time></trkpt><trkpt lat="43.47247838882677" lon="10.92254952417208"><ele>288.6</ele><time>2026-04-18T09:59:28.001Z</time></trkpt><trkpt lat="43.4725700888294" lon="10.922458191876734"><ele>286.4</ele><time>2026-04-18T09:59:29.001Z</time></trkpt><trkpt lat="43.47265696134389" lon="10.922362543870719"><ele>284.2</ele><time>2026-04-18T09:59:30.001Z</time></trkpt><trkpt lat="43.472741251925825" lon="10.922260161331806"><ele>282.0</ele><time>2026-04-18T09:59:31.001Z</time></trkpt><trkpt lat="43.47282152301865" lon="10.92215526237072"><ele>282.0</ele><time>2026-04-18T09:59:32.001Z</time></trkpt><trkpt lat="43.47289506956747" lon="10.922051024554762"><ele>282.0</ele><time>2026-04-18T09:59:33.001Z</time></trkpt><trkpt lat="43.47296429347142" lon="10.921942406855196"><ele>282.0</ele><time>2026-04-18T09:59:34.001Z</time></trkpt><trkpt lat="43.47301905053758" lon="10.921819793136441"><ele>282.0</ele><time>2026-04-18T09:59:35.001Z</time></trkpt><trkpt lat="43.47308994272362" lon="10.921718859286477"><ele>282.0</ele><time>2026-04-18T09:59:36.001Z</time></trkpt><trkpt lat="43.47315584419429" lon="10.9216180706043"><ele>281.6</ele><time>2026-04-18T09:59:37.001Z</time></trkpt><trkpt lat="43.473212145617644" lon="10.92151327589316"><ele>281.2</ele><time>2026-04-18T09:59:38.001Z</time></trkpt><trkpt lat="43.47326255831477" lon="10.921396616832642"><ele>280.8</ele><time>2026-04-18T09:59:39.001Z</time></trkpt><trkpt lat="43.47330653774805" lon="10.921271354889832"><ele>280.4</ele><time>2026-04-18T09:59:40.001Z</time></trkpt><trkpt lat="43.47333863689927" lon="10.921130679571398"><ele>280.0</ele><time>2026-04-18T09:59:41.001Z</time></trkpt><trkpt lat="43.47336778921319" lon="10.920979306499248"><ele>278.0</ele><time>2026-04-18T09:59:42.001Z</time></trkpt><trkpt lat="43.47338451245613" lon="10.920828861109566"><ele>276.0</ele><time>2026-04-18T09:59:43.001Z</time></trkpt><trkpt lat="43.47340457161157" lon="10.92069180489761"><ele>274.0</ele><time>2026-04-18T09:59:44.001Z</time></trkpt><trkpt lat="43.47342031218905" lon="10.920559204230548"><ele>272.0</ele><time>2026-04-18T09:59:45.001Z</time></trkpt><trkpt lat="43.473424596537875" lon="10.92043006855203"><ele>270.0</ele><time>2026-04-18T09:59:46.001Z</time></trkpt><trkpt lat="43.47341597081406" lon="10.920302872602848"><ele>270.0</ele><time>2026-04-18T09:59:47.001Z</time></trkpt><trkpt lat="43.47338962550531" lon="10.920186440047463"><ele>270.0</ele><time>2026-04-18T09:59:48.001Z</time></trkpt><trkpt lat="43.473346639580654" lon="10.920073213547198"><ele>270.0</ele><time>2026-04-18T09:59:49.001Z</time></trkpt><trkpt lat="43.473287629799216" lon="10.919973231674867"><ele>270.0</ele><time>2026-04-18T09:59:50.001Z</time></trkpt><trkpt lat="43.47321247129165" lon="10.91988658769277"><ele>270.0</ele><time>2026-04-18T09:59:51.001Z</time></trkpt><trkpt lat="43.47313987605865" lon="10.919811502835067"><ele>268.8333333333333</ele><time>2026-04-18T09:59:52.001Z</time></trkpt><trkpt lat="43.47308129698267" lon="10.919734396520647"><ele>267.6666666666667</ele><time>2026-04-18T09:59:53.001Z</time></trkpt><trkpt lat="43.47303249491504" lon="10.919645531683143"><ele>266.5</ele><time>2026-04-18T09:59:54.001Z</time></trkpt><trkpt lat="43.47299016907244" lon="10.919538307537968"><ele>265.33333333333337</ele><time>2026-04-18T09:59:55.001Z</time></trkpt><trkpt lat="43.472946818407685" lon="10.919428102030961"><ele>264.1666666666667</ele><time>2026-04-18T09:59:56.001Z</time></trkpt><trkpt lat="43.47292197925929" lon="10.919296212585436"><ele>263.0</ele><time>2026-04-18T09:59:57.001Z</time></trkpt><trkpt lat="43.47290163231543" lon="10.919147603069524"><ele>261.2</ele><time>2026-04-18T09:59:58.001Z</time></trkpt><trkpt lat="43.472898543242515" lon="10.91901162016734"><ele>259.4</ele><time>2026-04-18T09:59:59.001Z</time></trkpt><trkpt lat="43.47288447834655" lon="10.918870445279913"><ele>257.59999999999997</ele><time>2026-04-18T10:00:00.001Z</time></trkpt><trkpt lat="43.47285878092414" lon="10.918730702753262"><ele>255.79999999999998</ele><time>2026-04-18T10:00:01.001Z</time></trkpt><trkpt lat="43.47280837676154" lon="10.91859994611851"><ele>254.0</ele><time>2026-04-18T10:00:02.001Z</time></trkpt><trkpt lat="43.472759477005575" lon="10.918471618846668"><ele>252.5</ele><time>2026-04-18T10:00:03.001Z</time></trkpt><trkpt lat="43.47269519095011" lon="10.918344779448285"><ele>251.0</ele><time>2026-04-18T10:00:04.001Z</time></trkpt><trkpt lat="43.47262926992049" lon="10.918215908249362"><ele>249.5</ele><time>2026-04-18T10:00:05.001Z</time></trkpt><trkpt lat="43.47256330853428" lon="10.918081585295049"><ele>248.0</ele><time>2026-04-18T10:00:06.001Z</time></trkpt><trkpt lat="43.47249859864425" lon="10.917949211866093"><ele>248.0</ele><time>2026-04-18T10:00:07.001Z</time></trkpt><trkpt lat="43.47243473321569" lon="10.917817170771416"><ele>248.0</ele><time>2026-04-18T10:00:08.001Z</time></trkpt><trkpt lat="43.47237449247138" lon="10.917698493218975"><ele>248.0</ele><time>2026-04-18T10:00:09.001Z</time></trkpt><trkpt lat="43.47232216130597" lon="10.917595418641604"><ele>248.0</ele><time>2026-04-18T10:00:10.001Z</time></trkpt><trkpt lat="43.47227052398889" lon="10.917498825298335"><ele>248.0</ele><time>2026-04-18T10:00:11.001Z</time></trkpt><trkpt lat="43.47221363409233" lon="10.917416771364586"><ele>247.50000000000003</ele><time>2026-04-18T10:00:12.001Z</time></trkpt><trkpt lat="43.47215368210345" lon="10.91734963217679"><ele>247.0</ele><time>2026-04-18T10:00:13.001Z</time></trkpt><trkpt lat="43.472086569940565" lon="10.917290442589119"><ele>246.5</ele><time>2026-04-18T10:00:14.001Z</time></trkpt><trkpt lat="43.47201268757064" lon="10.917238501065862"><ele>246.0</ele><time>2026-04-18T10:00:15.002Z</time></trkpt><trkpt lat="43.47193258785043" lon="10.917190280185823"><ele>245.50000000000003</ele><time>2026-04-18T10:00:16.002Z</time></trkpt><trkpt lat="43.47184720558384" lon="10.91715663540877"><ele>245.0</ele><time>2026-04-18T10:00:17.002Z</time></trkpt><trkpt lat="43.47175920625628" lon="10.917137612949197"><ele>244.0</ele><time>2026-04-18T10:00:18.002Z</time></trkpt><trkpt lat="43.47166993710093" lon="10.917140078129"><ele>243.0</ele><time>2026-04-18T10:00:19.002Z</time></trkpt><trkpt lat="43.47157529096384" lon="10.917166918553281"><ele>242.0</ele><time>2026-04-18T10:00:20.002Z</time></trkpt><trkpt lat="43.471482034093526" lon="10.917218896166375"><ele>241.0</ele><time>2026-04-18T10:00:21.002Z</time></trkpt><trkpt lat="43.4713918634932" lon="10.91728919737899"><ele>240.0</ele><time>2026-04-18T10:00:22.002Z</time></trkpt><trkpt lat="43.471311230907254" lon="10.917369340234655"><ele>239.6</ele><time>2026-04-18T10:00:23.002Z</time></trkpt><trkpt lat="43.47123192092111" lon="10.917452438375978"><ele>239.2</ele><time>2026-04-18T10:00:24.002Z</time></trkpt><trkpt lat="43.471147688945365" lon="10.917536027260384"><ele>238.8</ele><time>2026-04-18T10:00:25.002Z</time></trkpt><trkpt lat="43.4710598882092" lon="10.917618216403081"><ele>238.4</ele><time>2026-04-18T10:00:26.002Z</time></trkpt><trkpt lat="43.47097357737178" lon="10.91771142250633"><ele>238.0</ele><time>2026-04-18T10:00:27.002Z</time></trkpt><trkpt lat="43.470885276896915" lon="10.917801912125181"><ele>238.0</ele><time>2026-04-18T10:00:28.002Z</time></trkpt><trkpt lat="43.47079457190718" lon="10.917897293378553"><ele>238.0</ele><time>2026-04-18T10:00:29.002Z</time></trkpt><trkpt lat="43.47070233347907" lon="10.917986732175152"><ele>238.0</ele><time>2026-04-18T10:00:30.002Z</time></trkpt><trkpt lat="43.47060965840761" lon="10.918090378157757"><ele>238.0</ele><time>2026-04-18T10:00:31.002Z</time></trkpt><trkpt lat="43.470521577436685" lon="10.918185517642007"><ele>236.8</ele><time>2026-04-18T10:00:32.002Z</time></trkpt><trkpt lat="43.470430627729606" lon="10.918285676302736"><ele>235.60000000000002</ele><time>2026-04-18T10:00:33.002Z</time></trkpt><trkpt lat="43.47035134543872" lon="10.918368522605435"><ele>234.39999999999998</ele><time>2026-04-18T10:00:34.002Z</time></trkpt><trkpt lat="43.470279190899596" lon="10.918446875447552"><ele>233.2</ele><time>2026-04-18T10:00:35.002Z</time></trkpt><trkpt lat="43.47019869394167" lon="10.918497276200924"><ele>232.0</ele><time>2026-04-18T10:00:36.002Z</time></trkpt><trkpt lat="43.47011500939089" lon="10.918517042802584"><ele>231.99999999999997</ele><time>2026-04-18T10:00:37.002Z</time></trkpt><trkpt lat="43.47003189260594" lon="10.918491370915483"><ele>232.0</ele><time>2026-04-18T10:00:38.002Z</time></trkpt><trkpt lat="43.469955249718694" lon="10.918433190573868"><ele>232.0</ele><time>2026-04-18T10:00:39.002Z</time></trkpt><trkpt lat="43.46990491600661" lon="10.918335885065723"><ele>232.0</ele><time>2026-04-18T10:00:40.002Z</time></trkpt><trkpt lat="43.46990245184295" lon="10.918223717415039"><ele>231.99999999999997</ele><time>2026-04-18T10:00:41.002Z</time></trkpt><trkpt lat="43.469895301848105" lon="10.918117643028983"><ele>232.0</ele><time>2026-04-18T10:00:42.002Z</time></trkpt><trkpt lat="43.469928282088766" lon="10.917998979423217"><ele>230.99999999999997</ele><time>2026-04-18T10:00:43.002Z</time></trkpt><trkpt lat="43.46993468213761" lon="10.917873821827863"><ele>230.0</ele><time>2026-04-18T10:00:44.002Z</time></trkpt><trkpt lat="43.46996022272126" lon="10.917754022290998"><ele>229.0</ele><time>2026-04-18T10:00:45.002Z</time></trkpt><trkpt lat="43.469977802194045" lon="10.917645730491683"><ele>228.0</ele><time>2026-04-18T10:00:46.002Z</time></trkpt><trkpt lat="43.46998117856596" lon="10.917535001559969"><ele>226.99999999999997</ele><time>2026-04-18T10:00:47.002Z</time></trkpt><trkpt lat="43.46996675591951" lon="10.917422810882112"><ele>226.0</ele><time>2026-04-18T10:00:48.002Z</time></trkpt><trkpt lat="43.46993316399299" lon="10.917333080022694"><ele>224.8</ele><time>2026-04-18T10:00:49Z</time></trkpt><trkpt lat="43.469877808984776" lon="10.917261861972225"><ele>223.60000000000002</ele><time>2026-04-18T10:00:50Z</time></trkpt><trkpt lat="43.46980132029593" lon="10.91721527202947"><ele>222.4</ele><time>2026-04-18T10:00:51Z</time></trkpt><trkpt lat="43.46970730307427" lon="10.917199978618656"><ele>221.2</ele><time>2026-04-18T10:00:52Z</time></trkpt><trkpt lat="43.46959991166275" lon="10.917197038285494"><ele>220.0</ele><time>2026-04-18T10:00:53Z</time></trkpt><trkpt lat="43.46947975371025" lon="10.917199718787273"><ele>216.66666666666666</ele><time>2026-04-18T10:00:54Z</time></trkpt><trkpt lat="43.4693411166114" lon="10.917201573104506"><ele>213.33333333333331</ele><time>2026-04-18T10:00:55Z</time></trkpt><trkpt lat="43.469180751871995" lon="10.917207285557243"><ele>210.0</ele><time>2026-04-18T10:00:56Z</time></trkpt><trkpt lat="43.46901123675003" lon="10.917209068095618"><ele>210.0</ele><time>2026-04-18T10:00:57Z</time></trkpt><trkpt lat="43.468838053705454" lon="10.917210655256303"><ele>210.0</ele><time>2026-04-18T10:00:58Z</time></trkpt><trkpt lat="43.46868525599278" lon="10.917206159566694"><ele>210.0</ele><time>2026-04-18T10:00:59Z</time></trkpt><trkpt lat="43.46856375136104" lon="10.917205350194335"><ele>210.0</ele><time>2026-04-18T10:01:00Z</time></trkpt><trkpt lat="43.4684327345953" lon="10.917197205556327"><ele>208.25</ele><time>2026-04-18T10:01:01Z</time></trkpt><trkpt lat="43.4683032783259" lon="10.917160209383491"><ele>206.5</ele><time>2026-04-18T10:01:02Z</time></trkpt><trkpt lat="43.468173778910284" lon="10.917101694687753"><ele>204.75</ele><time>2026-04-18T10:01:03Z</time></trkpt><trkpt lat="43.468046449472645" lon="10.917016940014394"><ele>203.0</ele><time>2026-04-18T10:01:04Z</time></trkpt><trkpt lat="43.46793303995373" lon="10.916928058306349"><ele>202.4</ele><time>2026-04-18T10:01:05Z</time></trkpt><trkpt lat="43.467846652284614" lon="10.916840473930193"><ele>201.8</ele><time>2026-04-18T10:01:06Z</time></trkpt><trkpt lat="43.46777120607507" lon="10.916746185915507"><ele>201.2</ele><time>2026-04-18T10:01:07Z</time></trkpt><trkpt lat="43.46771630364596" lon="10.916640713204316"><ele>200.6</ele><time>2026-04-18T10:01:08Z</time></trkpt><trkpt lat="43.46769970370313" lon="10.916501735228788"><ele>200.0</ele><time>2026-04-18T10:01:09Z</time></trkpt><trkpt lat="43.46769538001767" lon="10.916369693482253"><ele>199.0</ele><time>2026-04-18T10:01:10Z</time></trkpt><trkpt lat="43.4677088655877" lon="10.916224581517696"><ele>198.0</ele><time>2026-04-18T10:01:11Z</time></trkpt><trkpt lat="43.46773779731968" lon="10.916061063681102"><ele>197.0</ele><time>2026-04-18T10:01:12Z</time></trkpt><trkpt lat="43.46777390396434" lon="10.91588240702881"><ele>196.0</ele><time>2026-04-18T10:01:13Z</time></trkpt><trkpt lat="43.467794942372194" lon="10.915695748103673"><ele>194.5</ele><time>2026-04-18T10:01:14Z</time></trkpt><trkpt lat="43.467834159574195" lon="10.915526798627866"><ele>193.0</ele><time>2026-04-18T10:01:15Z</time></trkpt><trkpt lat="43.46786536145957" lon="10.915360933958896"><ele>191.5</ele><time>2026-04-18T10:01:16Z</time></trkpt><trkpt lat="43.46786372481117" lon="10.91518272264994"><ele>190.0</ele><time>2026-04-18T10:01:17Z</time></trkpt><trkpt lat="43.467854077880645" lon="10.914994702506943"><ele>189.0</ele><time>2026-04-18T10:01:18Z</time></trkpt><trkpt lat="43.46783532016125" lon="10.914790284142521"><ele>188.0</ele><time>2026-04-18T10:01:19Z</time></trkpt><trkpt lat="43.46781365278444" lon="10.91456054156075"><ele>187.0</ele><time>2026-04-18T10:01:20Z</time></trkpt><trkpt lat="43.46778772405859" lon="10.914303943740098"><ele>186.66666666666669</ele><time>2026-04-18T10:01:21Z</time></trkpt><trkpt lat="43.4677547101684" lon="10.914027811789765"><ele>186.33333333333334</ele><time>2026-04-18T10:01:22Z</time></trkpt><trkpt lat="43.46772499885467" lon="10.913787463246033"><ele>186.0</ele><time>2026-04-18T10:01:23Z</time></trkpt><trkpt lat="43.46772245248449" lon="10.913595735407066"><ele>186.0</ele><time>2026-04-18T10:01:24Z</time></trkpt><trkpt lat="43.467683006746796" lon="10.913435564962498"><ele>186.0</ele><time>2026-04-18T10:01:25.001Z</time></trkpt><trkpt lat="43.467668223584575" lon="10.913309126286961"><ele>186.0</ele><time>2026-04-18T10:01:26.001Z</time></trkpt><trkpt lat="43.4676143274899" lon="10.913201730148524"><ele>186.0</ele><time>2026-04-18T10:01:27.001Z</time></trkpt><trkpt lat="43.46757153943802" lon="10.913122154354818"><ele>186.0</ele><time>2026-04-18T10:01:28.001Z</time></trkpt><trkpt lat="43.467518764298404" lon="10.91305670975297"><ele>185.66666666666666</ele><time>2026-04-18T10:01:29.001Z</time></trkpt><trkpt lat="43.46744360060152" lon="10.9130276437004"><ele>185.33333333333334</ele><time>2026-04-18T10:01:30.001Z</time></trkpt><trkpt lat="43.46733664471504" lon="10.913010293198342"><ele>185.0</ele><time>2026-04-18T10:01:31.001Z</time></trkpt><trkpt lat="43.467230463947956" lon="10.913041541067063"><ele>184.66666666666669</ele><time>2026-04-18T10:01:32.001Z</time></trkpt><trkpt lat="43.46714740571251" lon="10.913079340589318"><ele>184.33333333333334</ele><time>2026-04-18T10:01:33.001Z</time></trkpt><trkpt lat="43.46708492564248" lon="10.913106810301791"><ele>184.0</ele><time>2026-04-18T10:01:34.001Z</time></trkpt><trkpt lat="43.46700649248046" lon="10.913135131096805"><ele>184.57142857142858</ele><time>2026-04-18T10:01:36.001Z</time></trkpt><trkpt lat="43.46694128781592" lon="10.913157080921682"><ele>185.14285714285714</ele><time>2026-04-18T10:01:38.001Z</time></trkpt><trkpt lat="43.466878778861265" lon="10.91317364843017"><ele>185.71428571428572</ele><time>2026-04-18T10:01:40.001Z</time></trkpt><trkpt lat="43.46681281109375" lon="10.913179801785338"><ele>186.28571428571428</ele><time>2026-04-18T10:01:43.001Z</time></trkpt><trkpt lat="43.46673995953085" lon="10.913184080056281"><ele>186.85714285714283</ele><time>2026-04-18T10:01:59.001Z</time></trkpt><trkpt lat="43.46667217572429" lon="10.913184707309766"><ele>187.42857142857142</ele><time>2026-04-18T10:02:00.001Z</time></trkpt><trkpt lat="43.466596960103985" lon="10.913172077006877"><ele>188.0</ele><time>2026-04-18T10:02:01.001Z</time></trkpt><trkpt lat="43.4665153738095" lon="10.913152428816067"><ele>188.0</ele><time>2026-04-18T10:02:02.001Z</time></trkpt><trkpt lat="43.46642780688435" lon="10.913132630746489"><ele>188.0</ele><time>2026-04-18T10:02:03.001Z</time></trkpt><trkpt lat="43.4663340022288" lon="10.913117083823417"><ele>188.0</ele><time>2026-04-18T10:02:04.001Z</time></trkpt><trkpt lat="43.466236298581435" lon="10.913103252841964"><ele>188.0</ele><time>2026-04-18T10:02:05.001Z</time></trkpt><trkpt lat="43.466129534284704" lon="10.913084251277418"><ele>188.0</ele><time>2026-04-18T10:02:06.001Z</time></trkpt><trkpt lat="43.466017443951436" lon="10.91306005775609"><ele>188.8</ele><time>2026-04-18T10:02:07.001Z</time></trkpt><trkpt lat="43.465901264273356" lon="10.91303549735162"><ele>189.60000000000002</ele><time>2026-04-18T10:02:08.001Z</time></trkpt><trkpt lat="43.46579026462055" lon="10.913016817472116"><ele>190.39999999999998</ele><time>2026-04-18T10:02:09.001Z</time></trkpt><trkpt lat="43.46568358310784" lon="10.913001489687328"><ele>191.2</ele><time>2026-04-18T10:02:10.001Z</time></trkpt><trkpt lat="43.46557897201598" lon="10.913003582852323"><ele>192.0</ele><time>2026-04-18T10:02:11.001Z</time></trkpt><trkpt lat="43.465478600988774" lon="10.913022882957168"><ele>190.75</ele><time>2026-04-18T10:02:12.001Z</time></trkpt><trkpt lat="43.465371499452566" lon="10.913063651189898"><ele>189.5</ele><time>2026-04-18T10:02:13.001Z</time></trkpt><trkpt lat="43.465260097862505" lon="10.913136288175902"><ele>188.25</ele><time>2026-04-18T10:02:14.001Z</time></trkpt><trkpt lat="43.46515780613071" lon="10.913233737166484"><ele>187.0</ele><time>2026-04-18T10:02:15.001Z</time></trkpt><trkpt lat="43.4650515657436" lon="10.913346538510266"><ele>189.25</ele><time>2026-04-18T10:02:16.001Z</time></trkpt><trkpt lat="43.464942775003415" lon="10.913465712844443"><ele>191.5</ele><time>2026-04-18T10:02:17.001Z</time></trkpt><trkpt lat="43.46483363769593" lon="10.913592185824573"><ele>193.75</ele><time>2026-04-18T10:02:18.001Z</time></trkpt><trkpt lat="43.46472403257694" lon="10.913720430089453"><ele>196.0</ele><time>2026-04-18T10:02:19.002Z</time></trkpt><trkpt lat="43.46462285446007" lon="10.913831867206946"><ele>194.75</ele><time>2026-04-18T10:02:20.002Z</time></trkpt><trkpt lat="43.46452587893789" lon="10.913917939781705"><ele>193.5</ele><time>2026-04-18T10:02:21.002Z</time></trkpt><trkpt lat="43.46442761452138" lon="10.913976449914152"><ele>192.25</ele><time>2026-04-18T10:02:22.002Z</time></trkpt><trkpt lat="43.46431593518344" lon="10.913998836713096"><ele>191.0</ele><time>2026-04-18T10:02:23.002Z</time></trkpt><trkpt lat="43.46419953322567" lon="10.913971183242422"><ele>191.0</ele><time>2026-04-18T10:02:24.002Z</time></trkpt><trkpt lat="43.46412072136666" lon="10.91389850187611"><ele>191.0</ele><time>2026-04-18T10:02:25.002Z</time></trkpt><trkpt lat="43.464036138070526" lon="10.91386952537139"><ele>191.0</ele><time>2026-04-18T10:02:26.002Z</time></trkpt><trkpt lat="43.463952826844164" lon="10.913804215395368"><ele>191.0</ele><time>2026-04-18T10:02:27.002Z</time></trkpt><trkpt lat="43.463864284298936" lon="10.913744888556174"><ele>191.0</ele><time>2026-04-18T10:02:28.002Z</time></trkpt><trkpt lat="43.46375439312184" lon="10.913820847392788"><ele>192.5</ele><time>2026-04-18T10:02:29.002Z</time></trkpt><trkpt lat="43.46366520257731" lon="10.913916245804153"><ele>194.0</ele><time>2026-04-18T10:02:30.002Z</time></trkpt><trkpt lat="43.463596711382515" lon="10.91403559390835"><ele>195.5</ele><time>2026-04-18T10:02:31.002Z</time></trkpt><trkpt lat="43.46352394726773" lon="10.914166425972015"><ele>197.0</ele><time>2026-04-18T10:02:32.002Z</time></trkpt><trkpt lat="43.46345320659678" lon="10.91431627520313"><ele>197.0</ele><time>2026-04-18T10:02:33.002Z</time></trkpt><trkpt lat="43.46338586361498" lon="10.914465475984128"><ele>197.0</ele><time>2026-04-18T10:02:34.002Z</time></trkpt><trkpt lat="43.46331107123886" lon="10.914604054887155"><ele>197.0</ele><time>2026-04-18T10:02:35.002Z</time></trkpt><trkpt lat="43.46323407762302" lon="10.914745953114906"><ele>197.0</ele><time>2026-04-18T10:02:36.002Z</time></trkpt><trkpt lat="43.46315819252682" lon="10.914884526996067"><ele>197.0</ele><time>2026-04-18T10:02:37.002Z</time></trkpt><trkpt lat="43.46308496839525" lon="10.915020198557892"><ele>197.0</ele><time>2026-04-18T10:02:38.002Z</time></trkpt><trkpt lat="43.46301071651089" lon="10.915140630277255"><ele>197.0</ele><time>2026-04-18T10:02:39.002Z</time></trkpt><trkpt lat="43.46292527847786" lon="10.915231832151091"><ele>197.0</ele><time>2026-04-18T10:02:40.002Z</time></trkpt><trkpt lat="43.46282832345739" lon="10.915314239662397"><ele>198.75</ele><time>2026-04-18T10:02:41.002Z</time></trkpt><trkpt lat="43.46273259036415" lon="10.915384446974628"><ele>200.5</ele><time>2026-04-18T10:02:42.002Z</time></trkpt><trkpt lat="43.46262771676235" lon="10.915443866206813"><ele>202.25</ele><time>2026-04-18T10:02:43.002Z</time></trkpt><trkpt lat="43.4625203571516" lon="10.915501207111044"><ele>204.0</ele><time>2026-04-18T10:02:44.002Z</time></trkpt><trkpt lat="43.46241035545553" lon="10.915561823274395"><ele>204.0</ele><time>2026-04-18T10:02:45.002Z</time></trkpt><trkpt lat="43.462294733778" lon="10.915607191920335"><ele>204.0</ele><time>2026-04-18T10:02:46.002Z</time></trkpt><trkpt lat="43.46217654859334" lon="10.915642565015522"><ele>204.0</ele><time>2026-04-18T10:02:47.002Z</time></trkpt><trkpt lat="43.46205969917907" lon="10.915669812543658"><ele>204.0</ele><time>2026-04-18T10:02:48.002Z</time></trkpt><trkpt lat="43.4619372322694" lon="10.915688725222942"><ele>206.75</ele><time>2026-04-18T10:02:49.002Z</time></trkpt><trkpt lat="43.4618150275762" lon="10.915709401365383"><ele>209.5</ele><time>2026-04-18T10:02:50.002Z</time></trkpt><trkpt lat="43.46169077937363" lon="10.915737310590902"><ele>212.25</ele><time>2026-04-18T10:02:51.002Z</time></trkpt><trkpt lat="43.46156807849725" lon="10.91576908830481"><ele>215.0</ele><time>2026-04-18T10:02:52.002Z</time></trkpt><trkpt lat="43.46144621473628" lon="10.915796796695286"><ele>215.0</ele><time>2026-04-18T10:02:53.002Z</time></trkpt><trkpt lat="43.46133015809926" lon="10.915822859237714"><ele>215.0</ele><time>2026-04-18T10:02:54.002Z</time></trkpt><trkpt lat="43.46122196814575" lon="10.915841999957387"><ele>215.0</ele><time>2026-04-18T10:02:55Z</time></trkpt><trkpt lat="43.461123132085135" lon="10.91584252711773"><ele>215.0</ele><time>2026-04-18T10:02:56Z</time></trkpt><trkpt lat="43.46103276987389" lon="10.915823852204635"><ele>215.0</ele><time>2026-04-18T10:02:57Z</time></trkpt><trkpt lat="43.46094947423987" lon="10.91577436715007"><ele>216.00000000000003</ele><time>2026-04-18T10:02:58Z</time></trkpt><trkpt lat="43.46087504620959" lon="10.915709082982698"><ele>217.0</ele><time>2026-04-18T10:02:59Z</time></trkpt><trkpt lat="43.46080495357179" lon="10.915643167950705"><ele>218.0</ele><time>2026-04-18T10:03:00Z</time></trkpt><trkpt lat="43.46073129698802" lon="10.915591972915486"><ele>219.0</ele><time>2026-04-18T10:03:01Z</time></trkpt><trkpt lat="43.46064589126229" lon="10.91557483476118"><ele>220.00000000000003</ele><time>2026-04-18T10:03:02Z</time></trkpt><trkpt lat="43.460565570644135" lon="10.915590907097771"><ele>221.0</ele><time>2026-04-18T10:03:03Z</time></trkpt><trkpt lat="43.46049028077734" lon="10.915649532891106"><ele>222.20000000000002</ele><time>2026-04-18T10:03:04Z</time></trkpt><trkpt lat="43.46039931644831" lon="10.915752010770866"><ele>223.40000000000003</ele><time>2026-04-18T10:03:05Z</time></trkpt><trkpt lat="43.46033264745127" lon="10.915819927838347"><ele>224.6</ele><time>2026-04-18T10:03:06Z</time></trkpt><trkpt lat="43.460250445421025" lon="10.915883735185766"><ele>225.8</ele><time>2026-04-18T10:03:07Z</time></trkpt><trkpt lat="43.46016008179863" lon="10.915901250064636"><ele>227.0</ele><time>2026-04-18T10:03:08Z</time></trkpt><trkpt lat="43.46005575823897" lon="10.91590074897779"><ele>227.0</ele><time>2026-04-18T10:03:09Z</time></trkpt><trkpt lat="43.45994704621545" lon="10.915871675150447"><ele>227.0</ele><time>2026-04-18T10:03:10Z</time></trkpt><trkpt lat="43.459848346195145" lon="10.915825912115103"><ele>227.0</ele><time>2026-04-18T10:03:11Z</time></trkpt><trkpt lat="43.459763162949265" lon="10.9157369140151"><ele>227.0</ele><time>2026-04-18T10:03:12Z</time></trkpt><trkpt lat="43.45968310433524" lon="10.915634712229421"><ele>227.0</ele><time>2026-04-18T10:03:13Z</time></trkpt><trkpt lat="43.45961214270052" lon="10.915511036447384"><ele>227.6</ele><time>2026-04-18T10:03:14Z</time></trkpt><trkpt lat="43.45954611730285" lon="10.915377772948204"><ele>228.2</ele><time>2026-04-18T10:03:15Z</time></trkpt><trkpt lat="43.459480954400675" lon="10.915273251888332"><ele>228.8</ele><time>2026-04-18T10:03:16Z</time></trkpt><trkpt lat="43.45939995589227" lon="10.915209051127333"><ele>229.4</ele><time>2026-04-18T10:03:17Z</time></trkpt><trkpt lat="43.4593043253201" lon="10.915171158255207"><ele>230.0</ele><time>2026-04-18T10:03:18Z</time></trkpt><trkpt lat="43.45920639274926" lon="10.915178628909745"><ele>230.0</ele><time>2026-04-18T10:03:19Z</time></trkpt><trkpt lat="43.459115060415364" lon="10.915243862651554"><ele>230.0</ele><time>2026-04-18T10:03:20Z</time></trkpt><trkpt lat="43.459035516896506" lon="10.915311211555993"><ele>230.0</ele><time>2026-04-18T10:03:21Z</time></trkpt><trkpt lat="43.4589571581877" lon="10.91533608256853"><ele>230.0</ele><time>2026-04-18T10:03:22Z</time></trkpt><trkpt lat="43.45886472234733" lon="10.91531948901747"><ele>230.0</ele><time>2026-04-18T10:03:23Z</time></trkpt><trkpt lat="43.45877471302253" lon="10.915268116519995"><ele>229.0</ele><time>2026-04-18T10:03:24Z</time></trkpt><trkpt lat="43.458692994851376" lon="10.915186374902408"><ele>228.0</ele><time>2026-04-18T10:03:25Z</time></trkpt><trkpt lat="43.4586290423056" lon="10.915086880370485"><ele>227.0</ele><time>2026-04-18T10:03:26Z</time></trkpt><trkpt lat="43.458578466717746" lon="10.914965951016454"><ele>226.0</ele><time>2026-04-18T10:03:27Z</time></trkpt><trkpt lat="43.45854589772352" lon="10.91482507972331"><ele>225.0</ele><time>2026-04-18T10:03:28Z</time></trkpt><trkpt lat="43.45853956507122" lon="10.914658329390079"><ele>227.5</ele><time>2026-04-18T10:03:29Z</time></trkpt><trkpt lat="43.458539375878196" lon="10.91447837562813"><ele>230.0</ele><time>2026-04-18T10:03:30Z</time></trkpt><trkpt lat="43.45853855253723" lon="10.914289998360836"><ele>232.5</ele><time>2026-04-18T10:03:31.001Z</time></trkpt><trkpt lat="43.458546682362325" lon="10.914108892291294"><ele>235.0</ele><time>2026-04-18T10:03:32.001Z</time></trkpt><trkpt lat="43.45853894617952" lon="10.91392815057127"><ele>236.6</ele><time>2026-04-18T10:03:33.001Z</time></trkpt><trkpt lat="43.45854028586686" lon="10.91375468980265"><ele>238.2</ele><time>2026-04-18T10:03:34.001Z</time></trkpt><trkpt lat="43.458546774240624" lon="10.91359273792081"><ele>239.8</ele><time>2026-04-18T10:03:35.001Z</time></trkpt><trkpt lat="43.45855629254084" lon="10.913445507061466"><ele>241.4</ele><time>2026-04-18T10:03:36.001Z</time></trkpt><trkpt lat="43.458555896983725" lon="10.913313109190286"><ele>243.0</ele><time>2026-04-18T10:03:37.001Z</time></trkpt><trkpt lat="43.45854287464179" lon="10.913198905236044"><ele>244.16666666666666</ele><time>2026-04-18T10:03:38.001Z</time></trkpt><trkpt lat="43.45851733572403" lon="10.91308504340481"><ele>245.33333333333331</ele><time>2026-04-18T10:03:39.001Z</time></trkpt><trkpt lat="43.4584770843661" lon="10.912987343089897"><ele>246.5</ele><time>2026-04-18T10:03:40.001Z</time></trkpt><trkpt lat="43.45841761759485" lon="10.912903954950625"><ele>247.66666666666666</ele><time>2026-04-18T10:03:41.001Z</time></trkpt><trkpt lat="43.45834819930013" lon="10.91283541412028"><ele>248.83333333333331</ele><time>2026-04-18T10:03:42.001Z</time></trkpt><trkpt lat="43.45827092802676" lon="10.91277182724914"><ele>250.0</ele><time>2026-04-18T10:03:43.001Z</time></trkpt><trkpt lat="43.458183584067626" lon="10.912715833060588"><ele>250.0</ele><time>2026-04-18T10:03:44.001Z</time></trkpt><trkpt lat="43.45808932267637" lon="10.912654978514322"><ele>250.0</ele><time>2026-04-18T10:03:45.001Z</time></trkpt><trkpt lat="43.45799497465718" lon="10.912585756064823"><ele>250.0</ele><time>2026-04-18T10:03:46.001Z</time></trkpt><trkpt lat="43.457896502167095" lon="10.91251922573633"><ele>250.0</ele><time>2026-04-18T10:03:47.001Z</time></trkpt><trkpt lat="43.45779644316758" lon="10.912445535207134"><ele>250.0</ele><time>2026-04-18T10:03:48.001Z</time></trkpt><trkpt lat="43.45768989139288" lon="10.912372791279216"><ele>252.25</ele><time>2026-04-18T10:03:49.001Z</time></trkpt><trkpt lat="43.457581473888155" lon="10.912300720441287"><ele>254.5</ele><time>2026-04-18T10:03:50.001Z</time></trkpt><trkpt lat="43.45747485776898" lon="10.912226550270377"><ele>256.75</ele><time>2026-04-18T10:03:51.001Z</time></trkpt><trkpt lat="43.457364626365816" lon="10.91215106892216"><ele>259.0</ele><time>2026-04-18T10:03:52.001Z</time></trkpt><trkpt lat="43.457253917426065" lon="10.91207081296297"><ele>259.0</ele><time>2026-04-18T10:03:53.001Z</time></trkpt><trkpt lat="43.457141614641955" lon="10.911992432599432"><ele>259.0</ele><time>2026-04-18T10:03:54.001Z</time></trkpt><trkpt lat="43.457027053101626" lon="10.91191501108049"><ele>259.0</ele><time>2026-04-18T10:03:55.001Z</time></trkpt><trkpt lat="43.456911856693566" lon="10.911834172445467"><ele>259.0</ele><time>2026-04-18T10:03:56.001Z</time></trkpt><trkpt lat="43.456798479429324" lon="10.911755628047748"><ele>259.8333333333333</ele><time>2026-04-18T10:03:57.001Z</time></trkpt><trkpt lat="43.45669926855812" lon="10.9116842319437"><ele>260.66666666666663</ele><time>2026-04-18T10:03:58.001Z</time></trkpt><trkpt lat="43.45662270669609" lon="10.91162721900082"><ele>261.5</ele><time>2026-04-18T10:03:59.001Z</time></trkpt><trkpt lat="43.456550650091955" lon="10.911576977397734"><ele>262.3333333333333</ele><time>2026-04-18T10:04:00.001Z</time></trkpt><trkpt lat="43.456485105285594" lon="10.911531980035745"><ele>263.1666666666667</ele><time>2026-04-18T10:04:01.001Z</time></trkpt><trkpt lat="43.45642118212152" lon="10.911498091884756"><ele>264.0</ele><time>2026-04-18T10:04:02.001Z</time></trkpt><trkpt lat="43.456308996332396" lon="10.91151184409941"><ele>265.59999999999997</ele><time>2026-04-18T10:04:04.001Z</time></trkpt><trkpt lat="43.45621758156787" lon="10.911573663478228"><ele>267.2</ele><time>2026-04-18T10:04:06.001Z</time></trkpt><trkpt lat="43.456117406740326" lon="10.911642807589685"><ele>268.79999999999995</ele><time>2026-04-18T10:04:08.001Z</time></trkpt><trkpt lat="43.45601926977251" lon="10.911692535111573"><ele>270.4</ele><time>2026-04-18T10:04:10.001Z</time></trkpt><trkpt lat="43.45592632928065" lon="10.911732729703182"><ele>272.0</ele><time>2026-04-18T10:04:12.001Z</time></trkpt><trkpt lat="43.45583897878648" lon="10.911766586231481"><ele>272.0</ele><time>2026-04-18T10:04:14.001Z</time></trkpt><trkpt lat="43.45576364911964" lon="10.911801777600624"><ele>272.0</ele><time>2026-04-18T10:04:16.001Z</time></trkpt><trkpt lat="43.4556832412472" lon="10.911838233611817"><ele>272.0</ele><time>2026-04-18T10:04:18.001Z</time></trkpt><trkpt lat="43.45556932217303" lon="10.911882845637995"><ele>272.0</ele><time>2026-04-18T10:04:20.001Z</time></trkpt><trkpt lat="43.45549555055235" lon="10.911907233087833"><ele>272.0</ele><time>2026-04-18T10:04:21.001Z</time></trkpt><trkpt lat="43.45541361308652" lon="10.911930307550996"><ele>272.0</ele><time>2026-04-18T10:04:22.001Z</time></trkpt><trkpt lat="43.45532355777218" lon="10.911948903806634"><ele>274.0</ele><time>2026-04-18T10:04:23.001Z</time></trkpt><trkpt lat="43.45523063935353" lon="10.911962473842042"><ele>276.0</ele><time>2026-04-18T10:04:24.001Z</time></trkpt><trkpt lat="43.45513843403626" lon="10.911971886331727"><ele>278.0</ele><time>2026-04-18T10:04:25.001Z</time></trkpt><trkpt lat="43.45504603559531" lon="10.911981526791875"><ele>280.0</ele><time>2026-04-18T10:04:26.001Z</time></trkpt><trkpt lat="43.454952673147496" lon="10.912005941155986"><ele>282.0</ele><time>2026-04-18T10:04:27.001Z</time></trkpt><trkpt lat="43.45485927729534" lon="10.912052266714323"><ele>282.0</ele><time>2026-04-18T10:04:28.001Z</time></trkpt><trkpt lat="43.454770860291255" lon="10.912111026987146"><ele>282.0</ele><time>2026-04-18T10:04:29.001Z</time></trkpt><trkpt lat="43.454681254873186" lon="10.91217544446362"><ele>282.0</ele><time>2026-04-18T10:04:30.001Z</time></trkpt><trkpt lat="43.45458731256097" lon="10.91222739911068"><ele>282.0</ele><time>2026-04-18T10:04:31.002Z</time></trkpt><trkpt lat="43.45449111440746" lon="10.912265348093204"><ele>282.0</ele><time>2026-04-18T10:04:32.002Z</time></trkpt><trkpt lat="43.45439626493121" lon="10.912279695859905"><ele>283.6666666666667</ele><time>2026-04-18T10:04:33.002Z</time></trkpt><trkpt lat="43.454299890134614" lon="10.912281537759338"><ele>285.3333333333333</ele><time>2026-04-18T10:04:34.002Z</time></trkpt><trkpt lat="43.454205380542604" lon="10.912278121199696"><ele>287.0</ele><time>2026-04-18T10:04:35.002Z</time></trkpt><trkpt lat="43.45411703238673" lon="10.912265481885779"><ele>288.66666666666663</ele><time>2026-04-18T10:04:36.002Z</time></trkpt><trkpt lat="43.4540359038039" lon="10.912247159231896"><ele>290.3333333333333</ele><time>2026-04-18T10:04:37.002Z</time></trkpt><trkpt lat="43.453965297121" lon="10.912220826443292"><ele>292.0</ele><time>2026-04-18T10:04:38.002Z</time></trkpt><trkpt lat="43.45390089364667" lon="10.912193774089353"><ele>292.0</ele><time>2026-04-18T10:04:39.002Z</time></trkpt><trkpt lat="43.453834207226" lon="10.912165124102177"><ele>292.0</ele><time>2026-04-18T10:04:40.002Z</time></trkpt><trkpt lat="43.453765485954456" lon="10.912135534217247"><ele>292.0</ele><time>2026-04-18T10:04:41.002Z</time></trkpt><trkpt lat="43.453694015391314" lon="10.912117569129975"><ele>292.0</ele><time>2026-04-18T10:04:42.002Z</time></trkpt><trkpt lat="43.4536131452727" lon="10.91211529662551"><ele>292.0</ele><time>2026-04-18T10:04:43.002Z</time></trkpt><trkpt lat="43.453527284792166" lon="10.912126587807515"><ele>292.0</ele><time>2026-04-18T10:04:44.002Z</time></trkpt><trkpt lat="43.45343403709437" lon="10.912148441359545"><ele>292.0</ele><time>2026-04-18T10:04:45.002Z</time></trkpt><trkpt lat="43.453336145835074" lon="10.912177944148477"><ele>292.0</ele><time>2026-04-18T10:04:46.002Z</time></trkpt><trkpt lat="43.4532346517797" lon="10.91221694789655"><ele>292.0</ele><time>2026-04-18T10:04:47.002Z</time></trkpt><trkpt lat="43.45313302533244" lon="10.91224930598748"><ele>292.0</ele><time>2026-04-18T10:04:48.002Z</time></trkpt><trkpt lat="43.45303154141444" lon="10.91226962474554"><ele>292.0</ele><time>2026-04-18T10:04:49.002Z</time></trkpt><trkpt lat="43.452926862472204" lon="10.912297472723262"><ele>292.0</ele><time>2026-04-18T10:04:50.002Z</time></trkpt><trkpt lat="43.45282757850447" lon="10.912317191321595"><ele>292.0</ele><time>2026-04-18T10:04:51.002Z</time></trkpt><trkpt lat="43.452729755018375" lon="10.912322354415384"><ele>292.0</ele><time>2026-04-18T10:04:52.002Z</time></trkpt><trkpt lat="43.45263352772766" lon="10.912313114302075"><ele>292.0</ele><time>2026-04-18T10:04:53.002Z</time></trkpt><trkpt lat="43.452549033494066" lon="10.912284589012428"><ele>292.0</ele><time>2026-04-18T10:04:54.002Z</time></trkpt><trkpt lat="43.45247339448033" lon="10.912237012409205"><ele>292.0</ele><time>2026-04-18T10:04:55.002Z</time></trkpt><trkpt lat="43.45239343528337" lon="10.912191418971727"><ele>292.0</ele><time>2026-04-18T10:04:56.002Z</time></trkpt><trkpt lat="43.45231086439335" lon="10.912154475056466"><ele>292.0</ele><time>2026-04-18T10:04:57.002Z</time></trkpt><trkpt lat="43.45222208784886" lon="10.912126161086448"><ele>292.0</ele><time>2026-04-18T10:04:58.002Z</time></trkpt><trkpt lat="43.45212739374849" lon="10.912106588603024"><ele>292.0</ele><time>2026-04-18T10:04:59.002Z</time></trkpt><trkpt lat="43.45203391399368" lon="10.912092005989358"><ele>291.0</ele><time>2026-04-18T10:05:00.002Z</time></trkpt><trkpt lat="43.45193882089426" lon="10.912085966623655"><ele>290.0</ele><time>2026-04-18T10:05:01Z</time></trkpt><trkpt lat="43.45183485158977" lon="10.912084085472028"><ele>289.0</ele><time>2026-04-18T10:05:02Z</time></trkpt><trkpt lat="43.45171765008644" lon="10.912070289997585"><ele>288.0</ele><time>2026-04-18T10:05:03Z</time></trkpt><trkpt lat="43.45160890706792" lon="10.912066006675447"><ele>287.0</ele><time>2026-04-18T10:05:04Z</time></trkpt><trkpt lat="43.45149562830393" lon="10.912051279224995"><ele>287.0</ele><time>2026-04-18T10:05:05Z</time></trkpt><trkpt lat="43.45138522631267" lon="10.912011843157895"><ele>287.0</ele><time>2026-04-18T10:05:06Z</time></trkpt><trkpt lat="43.45127973345648" lon="10.911964934049992"><ele>287.0</ele><time>2026-04-18T10:05:07Z</time></trkpt><trkpt lat="43.45118865426841" lon="10.911926807865214"><ele>287.0</ele><time>2026-04-18T10:05:08Z</time></trkpt><trkpt lat="43.451090414314315" lon="10.911912329924442"><ele>287.0</ele><time>2026-04-18T10:05:09Z</time></trkpt><trkpt lat="43.45099293501548" lon="10.91193174694151"><ele>286.2</ele><time>2026-04-18T10:05:10Z</time></trkpt><trkpt lat="43.450910936771514" lon="10.911958547215466"><ele>285.4</ele><time>2026-04-18T10:05:11Z</time></trkpt><trkpt lat="43.450825570279996" lon="10.911963928571554"><ele>284.6</ele><time>2026-04-18T10:05:12Z</time></trkpt><trkpt lat="43.45073711817296" lon="10.911936230651154"><ele>283.8</ele><time>2026-04-18T10:05:13Z</time></trkpt><trkpt lat="43.450673646807786" lon="10.91184996205275"><ele>283.0</ele><time>2026-04-18T10:05:14Z</time></trkpt><trkpt lat="43.45061178103054" lon="10.911735740968545"><ele>282.25</ele><time>2026-04-18T10:05:15Z</time></trkpt><trkpt lat="43.450536572344966" lon="10.911643493665279"><ele>281.5</ele><time>2026-04-18T10:05:16Z</time></trkpt><trkpt lat="43.45043749647247" lon="10.911562632424669"><ele>280.75</ele><time>2026-04-18T10:05:17Z</time></trkpt><trkpt lat="43.450322754004254" lon="10.911483731240475"><ele>280.0</ele><time>2026-04-18T10:05:18Z</time></trkpt><trkpt lat="43.45020848177684" lon="10.911413448906108"><ele>279.5</ele><time>2026-04-18T10:05:19Z</time></trkpt><trkpt lat="43.4500779548685" lon="10.911329615807722"><ele>279.0</ele><time>2026-04-18T10:05:20Z</time></trkpt><trkpt lat="43.44994737510635" lon="10.911235530622172"><ele>278.5</ele><time>2026-04-18T10:05:21Z</time></trkpt><trkpt lat="43.44980462819351" lon="10.911184519896457"><ele>278.0</ele><time>2026-04-18T10:05:22Z</time></trkpt><trkpt lat="43.449667997417635" lon="10.911108762123853"><ele>276.33333333333337</ele><time>2026-04-18T10:05:23Z</time></trkpt><trkpt lat="43.44952622664049" lon="10.911033114955895"><ele>274.6666666666667</ele><time>2026-04-18T10:05:24Z</time></trkpt><trkpt lat="43.449393738484304" lon="10.910941117432124"><ele>273.0</ele><time>2026-04-18T10:05:25Z</time></trkpt><trkpt lat="43.449249001750935" lon="10.910882161850308"><ele>273.0</ele><time>2026-04-18T10:05:26Z</time></trkpt><trkpt lat="43.44910192328052" lon="10.910849262338967"><ele>273.0</ele><time>2026-04-18T10:05:27Z</time></trkpt><trkpt lat="43.44895929945865" lon="10.910799054916623"><ele>273.0</ele><time>2026-04-18T10:05:28Z</time></trkpt><trkpt lat="43.44882047133338" lon="10.910750125879018"><ele>273.0</ele><time>2026-04-18T10:05:29Z</time></trkpt><trkpt lat="43.44870099698047" lon="10.910652021012256"><ele>272.75</ele><time>2026-04-18T10:05:30Z</time></trkpt><trkpt lat="43.448577413090426" lon="10.910560661876337"><ele>272.5</ele><time>2026-04-18T10:05:31Z</time></trkpt><trkpt lat="43.4484602604484" lon="10.910461023423041"><ele>272.25</ele><time>2026-04-18T10:05:32Z</time></trkpt><trkpt lat="43.44833951945824" lon="10.910379771789671"><ele>272.0</ele><time>2026-04-18T10:05:33Z</time></trkpt><trkpt lat="43.448235620404795" lon="10.91028939592493"><ele>272.0</ele><time>2026-04-18T10:05:34Z</time></trkpt><trkpt lat="43.448122334950604" lon="10.910209257852925"><ele>272.0</ele><time>2026-04-18T10:05:35Z</time></trkpt><trkpt lat="43.44799946984822" lon="10.91013346386362"><ele>272.0</ele><time>2026-04-18T10:05:36Z</time></trkpt><trkpt lat="43.44787206123542" lon="10.910058548687568"><ele>272.0</ele><time>2026-04-18T10:05:37.001Z</time></trkpt><trkpt lat="43.44774274485394" lon="10.909986149501636"><ele>270.75</ele><time>2026-04-18T10:05:38.001Z</time></trkpt><trkpt lat="43.4476116564909" lon="10.909913484646802"><ele>269.5</ele><time>2026-04-18T10:05:39.001Z</time></trkpt><trkpt lat="43.4474794345369" lon="10.909840813322825"><ele>268.25</ele><time>2026-04-18T10:05:40.001Z</time></trkpt><trkpt lat="43.447351115665775" lon="10.909751402076624"><ele>267.0</ele><time>2026-04-18T10:05:41.001Z</time></trkpt><trkpt lat="43.44722741996296" lon="10.909672465849662"><ele>265.5</ele><time>2026-04-18T10:05:42.001Z</time></trkpt><trkpt lat="43.447096925568886" lon="10.90960691874663"><ele>264.0</ele><time>2026-04-18T10:05:43.001Z</time></trkpt><trkpt lat="43.44696335946113" lon="10.90954996206645"><ele>262.5</ele><time>2026-04-18T10:05:44.001Z</time></trkpt><trkpt lat="43.44683770562751" lon="10.909504769762298"><ele>261.0</ele><time>2026-04-18T10:05:45.001Z</time></trkpt><trkpt lat="43.44674272641536" lon="10.909473005332533"><ele>261.0</ele><time>2026-04-18T10:05:46.001Z</time></trkpt><trkpt lat="43.44666639070886" lon="10.909440853974866"><ele>261.0</ele><time>2026-04-18T10:05:47.001Z</time></trkpt><trkpt lat="43.44658509952233" lon="10.90939977627005"><ele>261.0</ele><time>2026-04-18T10:05:48.001Z</time></trkpt><trkpt lat="43.4465096195429" lon="10.909340415552418"><ele>261.0</ele><time>2026-04-18T10:05:49.001Z</time></trkpt><trkpt lat="43.44643166534384" lon="10.909245767477817"><ele>261.0</ele><time>2026-04-18T10:05:50.001Z</time></trkpt><trkpt lat="43.44637557819133" lon="10.909101809297853"><ele>260.25</ele><time>2026-04-18T10:05:51.001Z</time></trkpt><trkpt lat="43.446308781808675" lon="10.908942639322625"><ele>259.5</ele><time>2026-04-18T10:05:52.001Z</time></trkpt><trkpt lat="43.44624591248867" lon="10.908768144243204"><ele>258.75</ele><time>2026-04-18T10:05:53.001Z</time></trkpt><trkpt lat="43.44619091917313" lon="10.908590683867166"><ele>258.0</ele><time>2026-04-18T10:05:54.001Z</time></trkpt><trkpt lat="43.446144994338766" lon="10.908416711928702"><ele>257.75</ele><time>2026-04-18T10:05:55.001Z</time></trkpt><trkpt lat="43.446100895895086" lon="10.90825125877574"><ele>257.5</ele><time>2026-04-18T10:05:56.001Z</time></trkpt><trkpt lat="43.446056386965665" lon="10.908097541195888"><ele>257.25</ele><time>2026-04-18T10:05:57.001Z</time></trkpt><trkpt lat="43.44600242407927" lon="10.907941247191571"><ele>257.0</ele><time>2026-04-18T10:05:58.001Z</time></trkpt><trkpt lat="43.445924476157025" lon="10.907794819396495"><ele>257.0</ele><time>2026-04-18T10:05:59.001Z</time></trkpt><trkpt lat="43.44584747005189" lon="10.907647665837503"><ele>257.0</ele><time>2026-04-18T10:06:00.001Z</time></trkpt><trkpt lat="43.44575885639678" lon="10.907504072477362"><ele>257.0</ele><time>2026-04-18T10:06:01.001Z</time></trkpt><trkpt lat="43.44566629829593" lon="10.907354097402852"><ele>257.0</ele><time>2026-04-18T10:06:02.001Z</time></trkpt><trkpt lat="43.44557140478145" lon="10.90720143173924"><ele>256.5</ele><time>2026-04-18T10:06:03.001Z</time></trkpt><trkpt lat="43.44548532633628" lon="10.907033700367407"><ele>256.0</ele><time>2026-04-18T10:06:04.001Z</time></trkpt><trkpt lat="43.44539469497229" lon="10.906871027836033"><ele>255.5</ele><time>2026-04-18T10:06:05.001Z</time></trkpt><trkpt lat="43.44530593341972" lon="10.906712433776821"><ele>255.0</ele><time>2026-04-18T10:06:06.001Z</time></trkpt><trkpt lat="43.44521175996625" lon="10.906557837420287"><ele>254.25</ele><time>2026-04-18T10:06:07.001Z</time></trkpt><trkpt lat="43.44511152208254" lon="10.906409827757779"><ele>253.5</ele><time>2026-04-18T10:06:08.001Z</time></trkpt><trkpt lat="43.44500486797875" lon="10.906264941583549"><ele>252.75</ele><time>2026-04-18T10:06:09.001Z</time></trkpt><trkpt lat="43.44489755636886" lon="10.906117429924288"><ele>252.0</ele><time>2026-04-18T10:06:10.001Z</time></trkpt><trkpt lat="43.44478750097945" lon="10.905978969863863"><ele>251.25</ele><time>2026-04-18T10:06:11.001Z</time></trkpt><trkpt lat="43.44469133544511" lon="10.90582858692213"><ele>250.5</ele><time>2026-04-18T10:06:12.001Z</time></trkpt><trkpt lat="43.444593442650195" lon="10.905714240455039"><ele>249.75</ele><time>2026-04-18T10:06:13.001Z</time></trkpt><trkpt lat="43.44452269803361" lon="10.905571270370512"><ele>249.0</ele><time>2026-04-18T10:06:14.001Z</time></trkpt><trkpt lat="43.44445982930028" lon="10.905418163326663"><ele>248.75</ele><time>2026-04-18T10:06:15.001Z</time></trkpt><trkpt lat="43.44439114990202" lon="10.905263779435275"><ele>248.5</ele><time>2026-04-18T10:06:16.001Z</time></trkpt><trkpt lat="43.44432087576471" lon="10.905130547225404"><ele>248.25</ele><time>2026-04-18T10:06:17.001Z</time></trkpt><trkpt lat="43.44424434338975" lon="10.905014407343074"><ele>248.0</ele><time>2026-04-18T10:06:18.001Z</time></trkpt><trkpt lat="43.44415674769027" lon="10.904903095269507"><ele>249.0</ele><time>2026-04-18T10:06:19.001Z</time></trkpt><trkpt lat="43.44404536641825" lon="10.904778374440536"><ele>250.0</ele><time>2026-04-18T10:06:20.001Z</time></trkpt><trkpt lat="43.443921576255924" lon="10.904657984812383"><ele>251.0</ele><time>2026-04-18T10:06:21.001Z</time></trkpt><trkpt lat="43.4437793484617" lon="10.904537591540869"><ele>249.0</ele><time>2026-04-18T10:06:22.001Z</time></trkpt><trkpt lat="43.44363701900323" lon="10.904391732001162"><ele>247.0</ele><time>2026-04-18T10:06:23.001Z</time></trkpt><trkpt lat="43.44347571404304" lon="10.904263146757753"><ele>245.0</ele><time>2026-04-18T10:06:24.001Z</time></trkpt><trkpt lat="43.443323262319794" lon="10.904107370095044"><ele>245.0</ele><time>2026-04-18T10:06:25.001Z</time></trkpt><trkpt lat="43.44316330959676" lon="10.903959781013976"><ele>245.0</ele><time>2026-04-18T10:06:26.001Z</time></trkpt><trkpt lat="43.44299225684465" lon="10.903813492387137"><ele>245.0</ele><time>2026-04-18T10:06:27.001Z</time></trkpt><trkpt lat="43.44282657391063" lon="10.903672582415723"><ele>245.33333333333334</ele><time>2026-04-18T10:06:28.001Z</time></trkpt><trkpt lat="43.44267374981845" lon="10.903534159957298"><ele>245.66666666666669</ele><time>2026-04-18T10:06:29.001Z</time></trkpt><trkpt lat="43.4425354553324" lon="10.903400915301974"><ele>246.0</ele><time>2026-04-18T10:06:30.001Z</time></trkpt><trkpt lat="43.442408088268124" lon="10.903280604727831"><ele>246.0</ele><time>2026-04-18T10:06:31.001Z</time></trkpt><trkpt lat="43.44229369538964" lon="10.90316891221673"><ele>246.0</ele><time>2026-04-18T10:06:32.001Z</time></trkpt><trkpt lat="43.442186082711274" lon="10.903075457817925"><ele>246.0</ele><time>2026-04-18T10:06:33.001Z</time></trkpt><trkpt lat="43.44208480458263" lon="10.902992859553326"><ele>246.0</ele><time>2026-04-18T10:06:34.001Z</time></trkpt><trkpt lat="43.44199592123657" lon="10.902912776814345"><ele>245.5</ele><time>2026-04-18T10:06:35.001Z</time></trkpt><trkpt lat="43.441900151487324" lon="10.902838322336729"><ele>245.0</ele><time>2026-04-18T10:06:36.001Z</time></trkpt><trkpt lat="43.441796488517674" lon="10.902786174202898"><ele>244.5</ele><time>2026-04-18T10:06:37.001Z</time></trkpt><trkpt lat="43.44168441803846" lon="10.902725844939608"><ele>244.0</ele><time>2026-04-18T10:06:38.002Z</time></trkpt><trkpt lat="43.44157023058534" lon="10.902695526502429"><ele>244.0</ele><time>2026-04-18T10:06:39.002Z</time></trkpt><trkpt lat="43.44146158131539" lon="10.902672385086996"><ele>243.99999999999997</ele><time>2026-04-18T10:06:40.002Z</time></trkpt><trkpt lat="43.441350049447585" lon="10.902662032824212"><ele>243.99999999999997</ele><time>2026-04-18T10:06:41.002Z</time></trkpt><trkpt lat="43.44124081793064" lon="10.902665873748967"><ele>244.0</ele><time>2026-04-18T10:06:42.002Z</time></trkpt><trkpt lat="43.441129539219205" lon="10.90265619211645"><ele>244.0</ele><time>2026-04-18T10:06:43.002Z</time></trkpt><trkpt lat="43.44101166466812" lon="10.902644580910133"><ele>243.5</ele><time>2026-04-18T10:06:44.002Z</time></trkpt><trkpt lat="43.4408907190963" lon="10.90262089182948"><ele>243.0</ele><time>2026-04-18T10:06:45.002Z</time></trkpt><trkpt lat="43.44076964857053" lon="10.902581314235901"><ele>242.5</ele><time>2026-04-18T10:06:46.002Z</time></trkpt><trkpt lat="43.440650970089166" lon="10.90253095089169"><ele>242.0</ele><time>2026-04-18T10:06:47.002Z</time></trkpt><trkpt lat="43.4405372098171" lon="10.902467425054494"><ele>245.0</ele><time>2026-04-18T10:06:48.002Z</time></trkpt><trkpt lat="43.44042998885407" lon="10.902389820551551"><ele>248.0</ele><time>2026-04-18T10:06:49.002Z</time></trkpt><trkpt lat="43.44032975538415" lon="10.902308085201168"><ele>251.0</ele><time>2026-04-18T10:06:50.002Z</time></trkpt><trkpt lat="43.44023918875628" lon="10.902218246829964"><ele>254.0</ele><time>2026-04-18T10:06:51.002Z</time></trkpt><trkpt lat="43.44015830402351" lon="10.902121807585853"><ele>254.0</ele><time>2026-04-18T10:06:52.002Z</time></trkpt><trkpt lat="43.44009130027819" lon="10.902018117305264"><ele>253.99999999999997</ele><time>2026-04-18T10:06:53.002Z</time></trkpt><trkpt lat="43.440033601933145" lon="10.901917436263979"><ele>253.99999999999997</ele><time>2026-04-18T10:06:54.002Z</time></trkpt><trkpt lat="43.43997852623138" lon="10.90181723349312"><ele>254.0</ele><time>2026-04-18T10:06:55.002Z</time></trkpt><trkpt lat="43.43992504306048" lon="10.901719085666182"><ele>254.0</ele><time>2026-04-18T10:06:56.002Z</time></trkpt><trkpt lat="43.439874537791525" lon="10.901624376865932"><ele>253.2</ele><time>2026-04-18T10:06:57.002Z</time></trkpt><trkpt lat="43.439778566110704" lon="10.901442195758166"><ele>252.39999999999998</ele><time>2026-04-18T10:06:59.002Z</time></trkpt><trkpt lat="43.439736947119805" lon="10.901359205457842"><ele>251.6</ele><time>2026-04-18T10:07:00.002Z</time></trkpt><trkpt lat="43.439701028393074" lon="10.901268713266061"><ele>250.8</ele><time>2026-04-18T10:07:01.002Z</time></trkpt><trkpt lat="43.439675502812335" lon="10.901174364779044"><ele>250.0</ele><time>2026-04-18T10:07:02.002Z</time></trkpt><trkpt lat="43.43965474045657" lon="10.901074267486646"><ele>249.99999999999997</ele><time>2026-04-18T10:07:03.002Z</time></trkpt><trkpt lat="43.439644534561445" lon="10.900971867436056"><ele>250.0</ele><time>2026-04-18T10:07:04.002Z</time></trkpt><trkpt lat="43.439642604550414" lon="10.900864161864803"><ele>250.0</ele><time>2026-04-18T10:07:05.002Z</time></trkpt><trkpt lat="43.43964272025099" lon="10.90076222406674"><ele>250.0</ele><time>2026-04-18T10:07:06.002Z</time></trkpt><trkpt lat="43.439644584418936" lon="10.90066462717839"><ele>249.99999999999997</ele><time>2026-04-18T10:07:07Z</time></trkpt><trkpt lat="43.439648683312896" lon="10.900561112775986"><ele>250.0</ele><time>2026-04-18T10:07:08Z</time></trkpt><trkpt lat="43.439658570650266" lon="10.900447780572692"><ele>249.4</ele><time>2026-04-18T10:07:09Z</time></trkpt><trkpt lat="43.43968490847247" lon="10.900332015169063"><ele>248.8</ele><time>2026-04-18T10:07:10Z</time></trkpt><trkpt lat="43.43969590373852" lon="10.900203185327022"><ele>248.2</ele><time>2026-04-18T10:07:11Z</time></trkpt><trkpt lat="43.439687879186245" lon="10.900074138914688"><ele>247.6</ele><time>2026-04-18T10:07:12Z</time></trkpt><trkpt lat="43.439688246003186" lon="10.899952916834886"><ele>247.0</ele><time>2026-04-18T10:07:13Z</time></trkpt><trkpt lat="43.43968912687991" lon="10.89982788287681"><ele>246.99999999999997</ele><time>2026-04-18T10:07:14Z</time></trkpt><trkpt lat="43.43965145294109" lon="10.899710316844146"><ele>247.0</ele><time>2026-04-18T10:07:15Z</time></trkpt><trkpt lat="43.439616867123306" lon="10.899603233325388"><ele>247.0</ele><time>2026-04-18T10:07:16Z</time></trkpt><trkpt lat="43.439567814870905" lon="10.899508918811955"><ele>247.0</ele><time>2026-04-18T10:07:17Z</time></trkpt><trkpt lat="43.43950499548931" lon="10.899437966765424"><ele>246.99999999999997</ele><time>2026-04-18T10:07:18Z</time></trkpt><trkpt lat="43.43944055903198" lon="10.89937574691388"><ele>247.0</ele><time>2026-04-18T10:07:19Z</time></trkpt><trkpt lat="43.43937883033437" lon="10.899318015405402"><ele>247.66666666666666</ele><time>2026-04-18T10:07:20Z</time></trkpt><trkpt lat="43.43932391149055" lon="10.899264340101967"><ele>248.33333333333331</ele><time>2026-04-18T10:07:21Z</time></trkpt><trkpt lat="43.439269909383874" lon="10.89920148106281"><ele>249.0</ele><time>2026-04-18T10:07:22Z</time></trkpt><trkpt lat="43.43922523696902" lon="10.899135824405134"><ele>249.66666666666669</ele><time>2026-04-18T10:07:23Z</time></trkpt><trkpt lat="43.4391344792655" lon="10.899011018773313"><ele>250.33333333333334</ele><time>2026-04-18T10:07:25Z</time></trkpt><trkpt lat="43.439081674905935" lon="10.89895273360289"><ele>251.0</ele><time>2026-04-18T10:07:26Z</time></trkpt><trkpt lat="43.43902586765553" lon="10.898898516283696"><ele>251.00000000000003</ele><time>2026-04-18T10:07:27Z</time></trkpt><trkpt lat="43.43896614599003" lon="10.898838131228661"><ele>251.0</ele><time>2026-04-18T10:07:28Z</time></trkpt><trkpt lat="43.43891499392853" lon="10.898776762421669"><ele>251.0</ele><time>2026-04-18T10:07:29Z</time></trkpt><trkpt lat="43.43886469372599" lon="10.898697133757842"><ele>251.0</ele><time>2026-04-18T10:07:30Z</time></trkpt><trkpt lat="43.43881902501838" lon="10.898610626927079"><ele>251.00000000000003</ele><time>2026-04-18T10:07:31Z</time></trkpt><trkpt lat="43.4387815280916" lon="10.898507476111613"><ele>251.0</ele><time>2026-04-18T10:07:32Z</time></trkpt><trkpt lat="43.4387477931281" lon="10.898392675007896"><ele>250.33333333333334</ele><time>2026-04-18T10:07:33Z</time></trkpt><trkpt lat="43.438742381021264" lon="10.898274202247622"><ele>249.66666666666669</ele><time>2026-04-18T10:07:34Z</time></trkpt><trkpt lat="43.43871524981889" lon="10.898164287526301"><ele>249.0</ele><time>2026-04-18T10:07:35Z</time></trkpt><trkpt lat="43.43868076984965" lon="10.898062285929207"><ele>248.33333333333331</ele><time>2026-04-18T10:07:36Z</time></trkpt><trkpt lat="43.43863042145867" lon="10.897973244330267"><ele>247.66666666666666</ele><time>2026-04-18T10:07:37Z</time></trkpt><trkpt lat="43.438581454249565" lon="10.897886466422774"><ele>247.0</ele><time>2026-04-18T10:07:38Z</time></trkpt><trkpt lat="43.43851309480749" lon="10.897818337730431"><ele>246.99999999999997</ele><time>2026-04-18T10:07:39Z</time></trkpt><trkpt lat="43.43846685047431" lon="10.897728077405441"><ele>247.0</ele><time>2026-04-18T10:07:40Z</time></trkpt><trkpt lat="43.438423032695496" lon="10.897630801567884"><ele>247.0</ele><time>2026-04-18T10:07:41Z</time></trkpt><trkpt lat="43.438393311254885" lon="10.89751920695427"><ele>247.0</ele><time>2026-04-18T10:07:42Z</time></trkpt><trkpt lat="43.43837409749015" lon="10.897397995034977"><ele>246.99999999999997</ele><time>2026-04-18T10:07:43.001Z</time></trkpt><trkpt lat="43.43836721636094" lon="10.897271694630586"><ele>247.0</ele><time>2026-04-18T10:07:44.001Z</time></trkpt><trkpt lat="43.438358199478415" lon="10.89714133242874"><ele>245.39999999999998</ele><time>2026-04-18T10:07:45.001Z</time></trkpt><trkpt lat="43.438343908358995" lon="10.897004283519149"><ele>243.79999999999998</ele><time>2026-04-18T10:07:46.001Z</time></trkpt><trkpt lat="43.438315199848994" lon="10.896875221986052"><ele>242.2</ele><time>2026-04-18T10:07:47.001Z</time></trkpt><trkpt lat="43.43828181376107" lon="10.896738035890653"><ele>240.6</ele><time>2026-04-18T10:07:48.001Z</time></trkpt><trkpt lat="43.438243645902205" lon="10.896601946096762"><ele>239.0</ele><time>2026-04-18T10:07:49.001Z</time></trkpt><trkpt lat="43.43820998106682" lon="10.896470703253645"><ele>237.83333333333334</ele><time>2026-04-18T10:07:50.001Z</time></trkpt><trkpt lat="43.438188451274506" lon="10.896331870479266"><ele>236.66666666666669</ele><time>2026-04-18T10:07:51.001Z</time></trkpt><trkpt lat="43.43818573073826" lon="10.89619434146436"><ele>235.5</ele><time>2026-04-18T10:07:52.001Z</time></trkpt><trkpt lat="43.43819939410032" lon="10.89608064024159"><ele>234.33333333333331</ele><time>2026-04-18T10:07:53.001Z</time></trkpt><trkpt lat="43.43820875191426" lon="10.895972243844323"><ele>233.16666666666666</ele><time>2026-04-18T10:07:54.001Z</time></trkpt><trkpt lat="43.43820857739656" lon="10.895875456659548"><ele>232.0</ele><time>2026-04-18T10:07:55.001Z</time></trkpt><trkpt lat="43.43818770643987" lon="10.895781886276888"><ele>231.8571428571429</ele><time>2026-04-18T10:07:56.001Z</time></trkpt><trkpt lat="43.43814392059583" lon="10.895705259787164"><ele>231.71428571428572</ele><time>2026-04-18T10:07:57.001Z</time></trkpt><trkpt lat="43.43808168536785" lon="10.895660388694832"><ele>231.57142857142858</ele><time>2026-04-18T10:07:58.001Z</time></trkpt><trkpt lat="43.43802733291159" lon="10.895597140734166"><ele>231.42857142857144</ele><time>2026-04-18T10:07:59.001Z</time></trkpt><trkpt lat="43.43797364188234" lon="10.895538248799973"><ele>231.28571428571428</ele><time>2026-04-18T10:08:00.001Z</time></trkpt><trkpt lat="43.43791801559987" lon="10.895471613931962"><ele>231.14285714285714</ele><time>2026-04-18T10:08:01.001Z</time></trkpt><trkpt lat="43.43786972052194" lon="10.89539252326271"><ele>231.0</ele><time>2026-04-18T10:08:02.001Z</time></trkpt><trkpt lat="43.437819328847866" lon="10.89530722776816"><ele>230.66666666666666</ele><time>2026-04-18T10:08:03.001Z</time></trkpt><trkpt lat="43.43777641199252" lon="10.89520877196439"><ele>230.33333333333331</ele><time>2026-04-18T10:08:04.001Z</time></trkpt><trkpt lat="43.43773465118732" lon="10.895106027583802"><ele>230.0</ele><time>2026-04-18T10:08:05.001Z</time></trkpt><trkpt lat="43.437702804351396" lon="10.894994654474218"><ele>229.66666666666666</ele><time>2026-04-18T10:08:06.001Z</time></trkpt><trkpt lat="43.437668376726634" lon="10.894898035928634"><ele>229.33333333333331</ele><time>2026-04-18T10:08:07.001Z</time></trkpt><trkpt lat="43.43763124367596" lon="10.89479549554782"><ele>229.0</ele><time>2026-04-18T10:08:08.001Z</time></trkpt><trkpt lat="43.43758969727689" lon="10.894695357986963"><ele>228.66666666666666</ele><time>2026-04-18T10:08:09.001Z</time></trkpt><trkpt lat="43.43754592505242" lon="10.894602714473704"><ele>228.33333333333331</ele><time>2026-04-18T10:08:10.001Z</time></trkpt><trkpt lat="43.4375098529805" lon="10.894507072592713"><ele>228.0</ele><time>2026-04-18T10:08:11.001Z</time></trkpt><trkpt lat="43.43744194306017" lon="10.894435480001437"><ele>227.66666666666669</ele><time>2026-04-18T10:08:12.001Z</time></trkpt><trkpt lat="43.43738633375928" lon="10.8943480449942"><ele>227.33333333333334</ele><time>2026-04-18T10:08:13.001Z</time></trkpt><trkpt lat="43.43732558925374" lon="10.894271246776741"><ele>227.0</ele><time>2026-04-18T10:08:14.001Z</time></trkpt><trkpt lat="43.43726444341814" lon="10.894203838519816"><ele>226.00000000000003</ele><time>2026-04-18T10:08:15.001Z</time></trkpt><trkpt lat="43.43719985677628" lon="10.894135586970012"><ele>225.0</ele><time>2026-04-18T10:08:16.001Z</time></trkpt><trkpt lat="43.43712697562023" lon="10.894067734140874"><ele>224.0</ele><time>2026-04-18T10:08:17.001Z</time></trkpt><trkpt lat="43.437048496907195" lon="10.894012094923442"><ele>223.0</ele><time>2026-04-18T10:08:18.001Z</time></trkpt><trkpt lat="43.43696582207678" lon="10.893970899750583"><ele>222.00000000000003</ele><time>2026-04-18T10:08:19.001Z</time></trkpt><trkpt lat="43.43687621757838" lon="10.893923797018529"><ele>221.0</ele><time>2026-04-18T10:08:20.001Z</time></trkpt><trkpt lat="43.43679157600292" lon="10.893903316966071"><ele>220.50000000000003</ele><time>2026-04-18T10:08:21.001Z</time></trkpt><trkpt lat="43.436707742439744" lon="10.893875231466296"><ele>220.0</ele><time>2026-04-18T10:08:22.001Z</time></trkpt><trkpt lat="43.43662806676668" lon="10.893853554374815"><ele>219.5</ele><time>2026-04-18T10:08:23.001Z</time></trkpt><trkpt lat="43.436548831171706" lon="10.893836924481537"><ele>219.0</ele><time>2026-04-18T10:08:24.001Z</time></trkpt><trkpt lat="43.43647641148281" lon="10.893823410542891"><ele>218.50000000000003</ele><time>2026-04-18T10:08:25.001Z</time></trkpt><trkpt lat="43.43641028595801" lon="10.893804403668739"><ele>218.0</ele><time>2026-04-18T10:08:26.001Z</time></trkpt><trkpt lat="43.436347231927975" lon="10.893783489287825"><ele>216.83333333333334</ele><time>2026-04-18T10:08:27.001Z</time></trkpt><trkpt lat="43.436284883376274" lon="10.893757990735876"><ele>215.66666666666669</ele><time>2026-04-18T10:08:28.001Z</time></trkpt><trkpt lat="43.436166052984724" lon="10.893697800981299"><ele>214.5</ele><time>2026-04-18T10:08:30.001Z</time></trkpt><trkpt lat="43.43610367289488" lon="10.893652124631293"><ele>213.33333333333331</ele><time>2026-04-18T10:08:31.001Z</time></trkpt><trkpt lat="43.43604340494941" lon="10.8935975738064"><ele>212.16666666666666</ele><time>2026-04-18T10:08:32.001Z</time></trkpt><trkpt lat="43.43598465945448" lon="10.893533381623337"><ele>211.0</ele><time>2026-04-18T10:08:33.001Z</time></trkpt><trkpt lat="43.435926471950445" lon="10.893456781577038"><ele>212.16666666666666</ele><time>2026-04-18T10:08:34.001Z</time></trkpt><trkpt lat="43.43585905331473" lon="10.893388414848198"><ele>213.33333333333331</ele><time>2026-04-18T10:08:35.001Z</time></trkpt><trkpt lat="43.435799771912244" lon="10.893301181670662"><ele>214.5</ele><time>2026-04-18T10:08:36.001Z</time></trkpt><trkpt lat="43.4357469561586" lon="10.893206368912415"><ele>215.66666666666669</ele><time>2026-04-18T10:08:37.001Z</time></trkpt><trkpt lat="43.43568458252176" lon="10.893129447685995"><ele>216.83333333333334</ele><time>2026-04-18T10:08:38.001Z</time></trkpt><trkpt lat="43.43562397239667" lon="10.893033574060558"><ele>218.0</ele><time>2026-04-18T10:08:39.001Z</time></trkpt><trkpt lat="43.43556434564676" lon="10.892941653727007"><ele>218.00000000000003</ele><time>2026-04-18T10:08:40.001Z</time></trkpt><trkpt lat="43.43550469209337" lon="10.892859507642553"><ele>218.0</ele><time>2026-04-18T10:08:41.001Z</time></trkpt><trkpt lat="43.435446544651576" lon="10.892781990829274"><ele>218.0</ele><time>2026-04-18T10:08:42.001Z</time></trkpt><trkpt lat="43.435400763428305" lon="10.89270626517308"><ele>218.0</ele><time>2026-04-18T10:08:43.001Z</time></trkpt><trkpt lat="43.43534878350656" lon="10.892637512989362"><ele>218.00000000000003</ele><time>2026-04-18T10:08:44.001Z</time></trkpt><trkpt lat="43.43529547774174" lon="10.892569688622205"><ele>218.0</ele><time>2026-04-18T10:08:45.002Z</time></trkpt><trkpt lat="43.43523373295893" lon="10.892499855387287"><ele>216.83333333333334</ele><time>2026-04-18T10:08:46.002Z</time></trkpt><trkpt lat="43.43517593836241" lon="10.892435981079126"><ele>215.66666666666669</ele><time>2026-04-18T10:08:47.002Z</time></trkpt><trkpt lat="43.435115679861276" lon="10.89237058470367"><ele>214.5</ele><time>2026-04-18T10:08:48.002Z</time></trkpt><trkpt lat="43.435047033661455" lon="10.89232202373403"><ele>213.33333333333331</ele><time>2026-04-18T10:08:49.002Z</time></trkpt><trkpt lat="43.43499445690272" lon="10.892247211130975"><ele>212.16666666666666</ele><time>2026-04-18T10:08:50.002Z</time></trkpt><trkpt lat="43.43494520319256" lon="10.892172296582064"><ele>211.0</ele><time>2026-04-18T10:08:51.002Z</time></trkpt><trkpt lat="43.434894148942945" lon="10.892090805059944"><ele>210.99999999999997</ele><time>2026-04-18T10:08:52.002Z</time></trkpt><trkpt lat="43.43485400946956" lon="10.891997191865192"><ele>211.0</ele><time>2026-04-18T10:08:53.002Z</time></trkpt><trkpt lat="43.43482255273912" lon="10.89189698774249"><ele>211.0</ele><time>2026-04-18T10:08:54.002Z</time></trkpt><trkpt lat="43.43480507802853" lon="10.891804502000378"><ele>211.0</ele><time>2026-04-18T10:08:55.002Z</time></trkpt><trkpt lat="43.4347701376246" lon="10.891670491543266"><ele>210.99999999999997</ele><time>2026-04-18T10:08:57.002Z</time></trkpt><trkpt lat="43.43470931708283" lon="10.891545825297044"><ele>211.0</ele><time>2026-04-18T10:08:59.002Z</time></trkpt><trkpt lat="43.434621796359714" lon="10.89151108750325"><ele>209.57142857142858</ele><time>2026-04-18T10:09:01.002Z</time></trkpt><trkpt lat="43.43453395858309" lon="10.891579729409228"><ele>208.14285714285717</ele><time>2026-04-18T10:09:03.002Z</time></trkpt><trkpt lat="43.434493813596745" lon="10.891647921421015"><ele>206.71428571428572</ele><time>2026-04-18T10:09:04.002Z</time></trkpt><trkpt lat="43.434458812747906" lon="10.891727571397057"><ele>205.28571428571428</ele><time>2026-04-18T10:09:05.002Z</time></trkpt><trkpt lat="43.434432728721454" lon="10.891815515947263"><ele>203.85714285714286</ele><time>2026-04-18T10:09:06.002Z</time></trkpt><trkpt lat="43.43440921903775" lon="10.891907456903475"><ele>202.42857142857142</ele><time>2026-04-18T10:09:07.002Z</time></trkpt><trkpt lat="43.434396440722765" lon="10.892004573262367"><ele>201.0</ele><time>2026-04-18T10:09:08.002Z</time></trkpt><trkpt lat="43.434400141392445" lon="10.892106060989757"><ele>200.33333333333334</ele><time>2026-04-18T10:09:09.002Z</time></trkpt><trkpt lat="43.43439871290088" lon="10.892206127211313"><ele>199.66666666666669</ele><time>2026-04-18T10:09:10.002Z</time></trkpt><trkpt lat="43.434425040243205" lon="10.892311741430438"><ele>199.0</ele><time>2026-04-18T10:09:11.002Z</time></trkpt><trkpt lat="43.434456728216674" lon="10.892413849406907"><ele>198.33333333333334</ele><time>2026-04-18T10:09:12.002Z</time></trkpt><trkpt lat="43.43448990816672" lon="10.892501995505437"><ele>197.66666666666669</ele><time>2026-04-18T10:09:13Z</time></trkpt><trkpt lat="43.43452878048811" lon="10.892597520116105"><ele>197.0</ele><time>2026-04-18T10:09:14Z</time></trkpt><trkpt lat="43.43458109010688" lon="10.892682753238772"><ele>195.83333333333334</ele><time>2026-04-18T10:09:15Z</time></trkpt><trkpt lat="43.43461982650938" lon="10.892777343541034"><ele>194.66666666666669</ele><time>2026-04-18T10:09:16Z</time></trkpt><trkpt lat="43.43464761366215" lon="10.892872110651503"><ele>193.5</ele><time>2026-04-18T10:09:17Z</time></trkpt><trkpt lat="43.43466251796632" lon="10.892974138323881"><ele>192.33333333333334</ele><time>2026-04-18T10:09:18Z</time></trkpt><trkpt lat="43.43466403956708" lon="10.893082740102347"><ele>191.16666666666669</ele><time>2026-04-18T10:09:19Z</time></trkpt><trkpt lat="43.43466080552422" lon="10.893187483274199"><ele>190.0</ele><time>2026-04-18T10:09:20Z</time></trkpt><trkpt lat="43.43465658138604" lon="10.893293248052519"><ele>190.83333333333334</ele><time>2026-04-18T10:09:21Z</time></trkpt><trkpt lat="43.43465789017723" lon="10.893401754334915"><ele>191.66666666666669</ele><time>2026-04-18T10:09:22Z</time></trkpt><trkpt lat="43.43466307664663" lon="10.89350872496319"><ele>192.5</ele><time>2026-04-18T10:09:23Z</time></trkpt><trkpt lat="43.43467189561187" lon="10.89361387606374"><ele>193.33333333333334</ele><time>2026-04-18T10:09:24Z</time></trkpt><trkpt lat="43.43468691074108" lon="10.893713204859628"><ele>194.16666666666666</ele><time>2026-04-18T10:09:25Z</time></trkpt><trkpt lat="43.43469063948995" lon="10.893876130592592"><ele>195.0</ele><time>2026-04-18T10:09:27Z</time></trkpt><trkpt lat="43.43465733204167" lon="10.893949805808937"><ele>192.2</ele><time>2026-04-18T10:09:28Z</time></trkpt><trkpt lat="43.43452743032496" lon="10.89389175958917"><ele>189.4</ele><time>2026-04-18T10:09:30Z</time></trkpt><trkpt lat="43.43448585266443" lon="10.893805220417619"><ele>186.60000000000002</ele><time>2026-04-18T10:09:31Z</time></trkpt><trkpt lat="43.43443746578986" lon="10.89373015754084"><ele>183.8</ele><time>2026-04-18T10:09:32Z</time></trkpt><trkpt lat="43.434379155314645" lon="10.893676355907877"><ele>181.0</ele><time>2026-04-18T10:09:33Z</time></trkpt><trkpt lat="43.43430255901398" lon="10.893577611757122"><ele>181.0</ele><time>2026-04-18T10:09:35Z</time></trkpt><trkpt lat="43.43422188787877" lon="10.89346469818912"><ele>181.0</ele><time>2026-04-18T10:09:37Z</time></trkpt><trkpt lat="43.434116946799044" lon="10.89337380335764"><ele>181.0</ele><time>2026-04-18T10:09:39Z</time></trkpt><trkpt lat="43.433994359556586" lon="10.893298493045757"><ele>181.0</ele><time>2026-04-18T10:09:41Z</time></trkpt><trkpt lat="43.433923639388475" lon="10.893257562701562"><ele>180.5</ele><time>2026-04-18T10:09:42Z</time></trkpt><trkpt lat="43.433858116599396" lon="10.893213677838313"><ele>180.0</ele><time>2026-04-18T10:09:43Z</time></trkpt><trkpt lat="43.4337887515378" lon="10.893168352033985"><ele>179.5</ele><time>2026-04-18T10:09:44Z</time></trkpt><trkpt lat="43.43372097331871" lon="10.893115807774207"><ele>179.0</ele><time>2026-04-18T10:09:45Z</time></trkpt><trkpt lat="43.43365202884297" lon="10.89305508117954"><ele>178.5</ele><time>2026-04-18T10:09:46Z</time></trkpt><trkpt lat="43.43358693320866" lon="10.892985620683344"><ele>178.0</ele><time>2026-04-18T10:09:47Z</time></trkpt><trkpt lat="43.43352981945116" lon="10.89291073733349"><ele>178.0</ele><time>2026-04-18T10:09:48Z</time></trkpt><trkpt lat="43.433457644777945" lon="10.892853496912416"><ele>178.0</ele><time>2026-04-18T10:09:49Z</time></trkpt><trkpt lat="43.43339055618239" lon="10.892780254675081"><ele>178.0</ele><time>2026-04-18T10:09:50Z</time></trkpt><trkpt lat="43.4333356351432" lon="10.892719869331232"><ele>178.0</ele><time>2026-04-18T10:09:51Z</time></trkpt><trkpt lat="43.43327562722845" lon="10.892674445035897"><ele>178.0</ele><time>2026-04-18T10:09:52Z</time></trkpt><trkpt lat="43.4331981648149" lon="10.892649885455514"><ele>178.0</ele><time>2026-04-18T10:09:53.001Z</time></trkpt><trkpt lat="43.433119716335334" lon="10.89263814421132"><ele>178.0</ele><time>2026-04-18T10:09:54.001Z</time></trkpt><trkpt lat="43.43304156205668" lon="10.892643605764585"><ele>178.0</ele><time>2026-04-18T10:09:55.001Z</time></trkpt><trkpt lat="43.4329545369698" lon="10.892661385046821"><ele>178.0</ele><time>2026-04-18T10:09:56.001Z</time></trkpt><trkpt lat="43.43286719636747" lon="10.892691206405464"><ele>178.0</ele><time>2026-04-18T10:09:57.001Z</time></trkpt><trkpt lat="43.43278263254823" lon="10.89271435821348"><ele>178.0</ele><time>2026-04-18T10:09:58.001Z</time></trkpt><trkpt lat="43.432701022033186" lon="10.892745105765917"><ele>178.0</ele><time>2026-04-18T10:09:59.001Z</time></trkpt><trkpt lat="43.43261720218454" lon="10.89277603607039"><ele>177.16666666666669</ele><time>2026-04-18T10:10:00.001Z</time></trkpt><trkpt lat="43.43253588495278" lon="10.892798100783953"><ele>176.33333333333334</ele><time>2026-04-18T10:10:01.001Z</time></trkpt><trkpt lat="43.432455897394235" lon="10.892823204576093"><ele>175.5</ele><time>2026-04-18T10:10:02.001Z</time></trkpt><trkpt lat="43.43237368295058" lon="10.892847609121473"><ele>174.66666666666666</ele><time>2026-04-18T10:10:03.001Z</time></trkpt><trkpt lat="43.43229504939544" lon="10.89286565907838"><ele>173.83333333333331</ele><time>2026-04-18T10:10:04.001Z</time></trkpt><trkpt lat="43.43222451205419" lon="10.89287542434639"><ele>173.0</ele><time>2026-04-18T10:10:05.001Z</time></trkpt><trkpt lat="43.43215459562572" lon="10.892894571934331"><ele>174.0</ele><time>2026-04-18T10:10:06.001Z</time></trkpt><trkpt lat="43.43208569222836" lon="10.892912509805026"><ele>175.0</ele><time>2026-04-18T10:10:07.001Z</time></trkpt><trkpt lat="43.43196603194738" lon="10.892933821597127"><ele>176.0</ele><time>2026-04-18T10:10:09.001Z</time></trkpt><trkpt lat="43.431899406632006" lon="10.892943555708944"><ele>177.0</ele><time>2026-04-18T10:10:11.001Z</time></trkpt><trkpt lat="43.43184876824011" lon="10.893098591761602"><ele>178.0</ele><time>2026-04-18T10:10:16.001Z</time></trkpt><trkpt lat="43.43187644905599" lon="10.893264901402663"><ele>178.0</ele><time>2026-04-18T10:10:18.001Z</time></trkpt><trkpt lat="43.431897260218186" lon="10.893361826805656"><ele>178.0</ele><time>2026-04-18T10:10:19.001Z</time></trkpt><trkpt lat="43.431915375881225" lon="10.893494168334781"><ele>178.0</ele><time>2026-04-18T10:10:20.001Z</time></trkpt><trkpt lat="43.431916370901206" lon="10.893641737202099"><ele>178.0</ele><time>2026-04-18T10:10:21.001Z</time></trkpt><trkpt lat="43.43191047895514" lon="10.893774626346163"><ele>178.0</ele><time>2026-04-18T10:10:22.001Z</time></trkpt><trkpt lat="43.43188965391749" lon="10.893904486343228"><ele>178.0</ele><time>2026-04-18T10:10:23.001Z</time></trkpt><trkpt lat="43.43185385154637" lon="10.894039684018075"><ele>178.0</ele><time>2026-04-18T10:10:24.001Z</time></trkpt><trkpt lat="43.43180820431441" lon="10.89418002945275"><ele>178.0</ele><time>2026-04-18T10:10:25.001Z</time></trkpt><trkpt lat="43.43176367782098" lon="10.894319630531001"><ele>178.0</ele><time>2026-04-18T10:10:26.001Z</time></trkpt><trkpt lat="43.431716034968545" lon="10.89445109131398"><ele>178.0</ele><time>2026-04-18T10:10:27.001Z</time></trkpt><trkpt lat="43.431664987055136" lon="10.894571631768576"><ele>178.0</ele><time>2026-04-18T10:10:28.001Z</time></trkpt><trkpt lat="43.43158594974232" lon="10.89466641044725"><ele>178.0</ele><time>2026-04-18T10:10:29.001Z</time></trkpt><trkpt lat="43.43150480483946" lon="10.894735391119216"><ele>178.0</ele><time>2026-04-18T10:10:30.001Z</time></trkpt><trkpt lat="43.431451608226524" lon="10.894821875345043"><ele>178.0</ele><time>2026-04-18T10:10:31.001Z</time></trkpt><trkpt lat="43.43142194557049" lon="10.894937398027919"><ele>178.0</ele><time>2026-04-18T10:10:32.001Z</time></trkpt><trkpt lat="43.43143415340988" lon="10.89505857192616"><ele>178.5</ele><time>2026-04-18T10:10:33.001Z</time></trkpt><trkpt lat="43.43145450836074" lon="10.895153381257956"><ele>179.0</ele><time>2026-04-18T10:10:34.001Z</time></trkpt><trkpt lat="43.43149788050317" lon="10.895313967086931"><ele>179.5</ele><time>2026-04-18T10:10:36.001Z</time></trkpt><trkpt lat="43.431524730917324" lon="10.895402938642233"><ele>180.0</ele><time>2026-04-18T10:10:37.001Z</time></trkpt><trkpt lat="43.431543405590524" lon="10.895496940812299"><ele>180.5</ele><time>2026-04-18T10:10:38.001Z</time></trkpt><trkpt lat="43.43156962802701" lon="10.895594212619875"><ele>181.0</ele><time>2026-04-18T10:10:39.001Z</time></trkpt><trkpt lat="43.431594211525535" lon="10.895704719509327"><ele>181.0</ele><time>2026-04-18T10:10:40.001Z</time></trkpt><trkpt lat="43.43161708772487" lon="10.895821090964558"><ele>181.0</ele><time>2026-04-18T10:10:41.001Z</time></trkpt><trkpt lat="43.431635352959084" lon="10.895938973547915"><ele>181.0</ele><time>2026-04-18T10:10:42.001Z</time></trkpt><trkpt lat="43.43164994450995" lon="10.896048666022475"><ele>181.0</ele><time>2026-04-18T10:10:43.001Z</time></trkpt><trkpt lat="43.431658184609205" lon="10.896142174530231"><ele>181.0</ele><time>2026-04-18T10:10:44.001Z</time></trkpt><trkpt lat="43.43163877343123" lon="10.896287182516957"><ele>181.0</ele><time>2026-04-18T10:10:46.001Z</time></trkpt><trkpt lat="43.43151373621798" lon="10.89630195803928"><ele>181.83333333333334</ele><time>2026-04-18T10:10:48.001Z</time></trkpt><trkpt lat="43.431477840197815" lon="10.896214128291474"><ele>182.66666666666669</ele><time>2026-04-18T10:10:49.001Z</time></trkpt><trkpt lat="43.43142220577898" lon="10.896157670711338"><ele>183.5</ele><time>2026-04-18T10:10:50.001Z</time></trkpt><trkpt lat="43.43136790744837" lon="10.896077594300632"><ele>184.33333333333334</ele><time>2026-04-18T10:10:51.001Z</time></trkpt><trkpt lat="43.431282109972784" lon="10.896014171192629"><ele>185.16666666666666</ele><time>2026-04-18T10:10:52.001Z</time></trkpt><trkpt lat="43.43116870993334" lon="10.895987174970537"><ele>186.0</ele><time>2026-04-18T10:10:53.001Z</time></trkpt><trkpt lat="43.43105017237892" lon="10.89592814653011"><ele>186.8</ele><time>2026-04-18T10:10:54.001Z</time></trkpt><trkpt lat="43.430918289246506" lon="10.8958709802706"><ele>187.60000000000002</ele><time>2026-04-18T10:10:55.001Z</time></trkpt><trkpt lat="43.43080340680512" lon="10.89582803420314"><ele>188.4</ele><time>2026-04-18T10:10:56.001Z</time></trkpt><trkpt lat="43.43071767990662" lon="10.895802399881402"><ele>189.2</ele><time>2026-04-18T10:10:57.002Z</time></trkpt><trkpt lat="43.43065421709738" lon="10.89582084986023"><ele>190.0</ele><time>2026-04-18T10:10:58.002Z</time></trkpt><trkpt lat="43.43060456906641" lon="10.895882213395131"><ele>192.2</ele><time>2026-04-18T10:10:59.002Z</time></trkpt><trkpt lat="43.430585958476236" lon="10.895973044915017"><ele>194.4</ele><time>2026-04-18T10:11:00.002Z</time></trkpt><trkpt lat="43.430609501614654" lon="10.896068526259334"><ele>196.60000000000002</ele><time>2026-04-18T10:11:01.002Z</time></trkpt><trkpt lat="43.430651789948804" lon="10.896185099458753"><ele>198.8</ele><time>2026-04-18T10:11:02.002Z</time></trkpt><trkpt lat="43.4307264208333" lon="10.896299881429666"><ele>201.0</ele><time>2026-04-18T10:11:03.002Z</time></trkpt><trkpt lat="43.43080747314533" lon="10.896421681153857"><ele>201.0</ele><time>2026-04-18T10:11:04.002Z</time></trkpt><trkpt lat="43.43088298997549" lon="10.896536871296307"><ele>201.0</ele><time>2026-04-18T10:11:05.002Z</time></trkpt><trkpt lat="43.43094413094605" lon="10.896634755791336"><ele>201.0</ele><time>2026-04-18T10:11:06.002Z</time></trkpt><trkpt lat="43.43100251229906" lon="10.896714761222835"><ele>201.0</ele><time>2026-04-18T10:11:07.002Z</time></trkpt><trkpt lat="43.4310163841247" lon="10.896826650784687"><ele>201.0</ele><time>2026-04-18T10:11:08.002Z</time></trkpt><trkpt lat="43.43101786681392" lon="10.896945538619672"><ele>202.33333333333334</ele><time>2026-04-18T10:11:09.002Z</time></trkpt><trkpt lat="43.431004056827355" lon="10.897077365108188"><ele>203.66666666666669</ele><time>2026-04-18T10:11:10.002Z</time></trkpt><trkpt lat="43.430978655098556" lon="10.897210453735246"><ele>205.0</ele><time>2026-04-18T10:11:11.002Z</time></trkpt><trkpt lat="43.43094016812786" lon="10.897313764149605"><ele>206.33333333333334</ele><time>2026-04-18T10:11:12.002Z</time></trkpt><trkpt lat="43.430891015908" lon="10.89739360871639"><ele>207.66666666666669</ele><time>2026-04-18T10:11:13.002Z</time></trkpt><trkpt lat="43.430829558892974" lon="10.897427023874304"><ele>209.0</ele><time>2026-04-18T10:11:14.002Z</time></trkpt><trkpt lat="43.43076118734274" lon="10.897417210479071"><ele>209.00000000000003</ele><time>2026-04-18T10:11:15.002Z</time></trkpt><trkpt lat="43.430711537470906" lon="10.897357526328648"><ele>209.0</ele><time>2026-04-18T10:11:16.002Z</time></trkpt><trkpt lat="43.43069450973254" lon="10.897246225685304"><ele>209.0</ele><time>2026-04-18T10:11:17.002Z</time></trkpt><trkpt lat="43.43064477311639" lon="10.897145778029667"><ele>209.0</ele><time>2026-04-18T10:11:18.002Z</time></trkpt><trkpt lat="43.43055958646588" lon="10.897073671445131"><ele>209.00000000000003</ele><time>2026-04-18T10:11:19Z</time></trkpt><trkpt lat="43.43046158626636" lon="10.897106789705958"><ele>209.0</ele><time>2026-04-18T10:11:20Z</time></trkpt><trkpt lat="43.430387166719854" lon="10.897160567578275"><ele>210.39999999999998</ele><time>2026-04-18T10:11:21Z</time></trkpt><trkpt lat="43.430300290412994" lon="10.897230354353471"><ele>211.8</ele><time>2026-04-18T10:11:22Z</time></trkpt><trkpt lat="43.43020666332272" lon="10.8972979828251"><ele>213.20000000000002</ele><time>2026-04-18T10:11:23Z</time></trkpt><trkpt lat="43.4301121457981" lon="10.897345203251044"><ele>214.60000000000002</ele><time>2026-04-18T10:11:24Z</time></trkpt><trkpt lat="43.43003386876454" lon="10.897397031876691"><ele>216.0</ele><time>2026-04-18T10:11:25Z</time></trkpt><trkpt lat="43.429974791035114" lon="10.89746689262428"><ele>216.0</ele><time>2026-04-18T10:11:26Z</time></trkpt><trkpt lat="43.42993188817315" lon="10.897569240639971"><ele>216.00000000000003</ele><time>2026-04-18T10:11:27Z</time></trkpt><trkpt lat="43.42991929100721" lon="10.89768910823148"><ele>216.00000000000003</ele><time>2026-04-18T10:11:28Z</time></trkpt><trkpt lat="43.42992673725086" lon="10.897821777897274"><ele>216.0</ele><time>2026-04-18T10:11:29Z</time></trkpt><trkpt lat="43.429919589212545" lon="10.897963697850306"><ele>216.0</ele><time>2026-04-18T10:11:30Z</time></trkpt><trkpt lat="43.42991021512954" lon="10.898106547403644"><ele>217.20000000000002</ele><time>2026-04-18T10:11:31Z</time></trkpt><trkpt lat="43.429904958881565" lon="10.898229920932991"><ele>218.40000000000003</ele><time>2026-04-18T10:11:32Z</time></trkpt><trkpt lat="43.42991357133324" lon="10.898352954477009"><ele>219.6</ele><time>2026-04-18T10:11:33Z</time></trkpt><trkpt lat="43.429927260861895" lon="10.898470202566232"><ele>220.8</ele><time>2026-04-18T10:11:34Z</time></trkpt><trkpt lat="43.42995644598581" lon="10.89858286576499"><ele>222.0</ele><time>2026-04-18T10:11:35Z</time></trkpt><trkpt lat="43.42996733525717" lon="10.898730002323614"><ele>223.0</ele><time>2026-04-18T10:11:36Z</time></trkpt><trkpt lat="43.42996003654133" lon="10.898837932039768"><ele>224.0</ele><time>2026-04-18T10:11:37Z</time></trkpt><trkpt lat="43.429952680680394" lon="10.89894306328867"><ele>225.0</ele><time>2026-04-18T10:11:38Z</time></trkpt><trkpt lat="43.42993999721432" lon="10.899029667288714"><ele>226.0</ele><time>2026-04-18T10:11:39Z</time></trkpt><trkpt lat="43.42981810632772" lon="10.899030042125599"><ele>227.0</ele><time>2026-04-18T10:11:41Z</time></trkpt><trkpt lat="43.42975513037576" lon="10.898996748175055"><ele>228.0</ele><time>2026-04-18T10:11:42Z</time></trkpt><trkpt lat="43.429692358799194" lon="10.898972871158422"><ele>229.33333333333334</ele><time>2026-04-18T10:11:43Z</time></trkpt><trkpt lat="43.429626525538566" lon="10.898956310196318"><ele>230.66666666666669</ele><time>2026-04-18T10:11:44Z</time></trkpt><trkpt lat="43.429549940684694" lon="10.898958790905555"><ele>232.0</ele><time>2026-04-18T10:11:45Z</time></trkpt><trkpt lat="43.42946430600896" lon="10.89899650328114"><ele>233.33333333333334</ele><time>2026-04-18T10:11:46Z</time></trkpt><trkpt lat="43.42937698711408" lon="10.899029420603023"><ele>234.66666666666669</ele><time>2026-04-18T10:11:47Z</time></trkpt><trkpt lat="43.42928832479407" lon="10.899062426311652"><ele>236.0</ele><time>2026-04-18T10:11:48Z</time></trkpt><trkpt lat="43.42920533075696" lon="10.899092906687523"><ele>236.0</ele><time>2026-04-18T10:11:49Z</time></trkpt><trkpt lat="43.42912509983063" lon="10.89913298908016"><ele>236.00000000000003</ele><time>2026-04-18T10:11:50Z</time></trkpt><trkpt lat="43.42905211613348" lon="10.899157654666894"><ele>236.00000000000003</ele><time>2026-04-18T10:11:51Z</time></trkpt><trkpt lat="43.42899257853768" lon="10.899274162610178"><ele>236.0</ele><time>2026-04-18T10:11:53Z</time></trkpt><trkpt lat="43.429006482901436" lon="10.899464884668987"><ele>236.0</ele><time>2026-04-18T10:11:55Z</time></trkpt><trkpt lat="43.42904350689226" lon="10.89956253579317"><ele>237.33333333333334</ele><time>2026-04-18T10:11:56Z</time></trkpt><trkpt lat="43.429084339273054" lon="10.899665152771528"><ele>238.66666666666669</ele><time>2026-04-18T10:11:57Z</time></trkpt><trkpt lat="43.429126753405114" lon="10.899768369275234"><ele>240.0</ele><time>2026-04-18T10:11:58Z</time></trkpt><trkpt lat="43.42916396602146" lon="10.899858968362095"><ele>241.33333333333331</ele><time>2026-04-18T10:11:59Z</time></trkpt><trkpt lat="43.4292098246678" lon="10.899955036985006"><ele>242.66666666666666</ele><time>2026-04-18T10:12:00Z</time></trkpt><trkpt lat="43.429203019139486" lon="10.900067521867864"><ele>244.0</ele><time>2026-04-18T10:12:01Z</time></trkpt><trkpt lat="43.42919067710012" lon="10.90017678472066"><ele>244.83333333333331</ele><time>2026-04-18T10:12:02Z</time></trkpt><trkpt lat="43.42916182604885" lon="10.900286543182165"><ele>245.66666666666666</ele><time>2026-04-18T10:12:03Z</time></trkpt><trkpt lat="43.42912776965294" lon="10.900399036956118"><ele>246.5</ele><time>2026-04-18T10:12:04Z</time></trkpt><trkpt lat="43.42906008891747" lon="10.900481778896662"><ele>247.33333333333331</ele><time>2026-04-18T10:12:05Z</time></trkpt><trkpt lat="43.42897894156783" lon="10.900534678942188"><ele>248.16666666666666</ele><time>2026-04-18T10:12:06Z</time></trkpt><trkpt lat="43.42888631815229" lon="10.900535540928681"><ele>249.0</ele><time>2026-04-18T10:12:07.001Z</time></trkpt><trkpt lat="43.428808114294114" lon="10.900552290669726"><ele>250.33333333333334</ele><time>2026-04-18T10:12:08.001Z</time></trkpt><trkpt lat="43.42874685093465" lon="10.900572833218588"><ele>251.66666666666669</ele><time>2026-04-18T10:12:09.001Z</time></trkpt><trkpt lat="43.42867876733348" lon="10.900653651756258"><ele>253.0</ele><time>2026-04-18T10:12:10.001Z</time></trkpt><trkpt lat="43.42863617497306" lon="10.900759747754822"><ele>254.33333333333334</ele><time>2026-04-18T10:12:11.001Z</time></trkpt><trkpt lat="43.42861108582316" lon="10.900884287452676"><ele>255.66666666666669</ele><time>2026-04-18T10:12:12.001Z</time></trkpt><trkpt lat="43.428623231517506" lon="10.901007437727932"><ele>257.0</ele><time>2026-04-18T10:12:13.001Z</time></trkpt><trkpt lat="43.42864647384639" lon="10.90113778604323"><ele>256.6</ele><time>2026-04-18T10:12:14.001Z</time></trkpt><trkpt lat="43.42868468340536" lon="10.901258613926101"><ele>256.2</ele><time>2026-04-18T10:12:15.001Z</time></trkpt><trkpt lat="43.42872079231485" lon="10.901399901237031"><ele>255.8</ele><time>2026-04-18T10:12:16.001Z</time></trkpt><trkpt lat="43.428779761805956" lon="10.901514295111049"><ele>255.4</ele><time>2026-04-18T10:12:17.001Z</time></trkpt><trkpt lat="43.42886227434214" lon="10.901614866304252"><ele>255.0</ele><time>2026-04-18T10:12:18.001Z</time></trkpt><trkpt lat="43.42894569842164" lon="10.901711366330748"><ele>257.6</ele><time>2026-04-18T10:12:19.001Z</time></trkpt><trkpt lat="43.429027371502805" lon="10.901809434867793"><ele>260.2</ele><time>2026-04-18T10:12:20.001Z</time></trkpt><trkpt lat="43.42909359160324" lon="10.90192355499694"><ele>262.8</ele><time>2026-04-18T10:12:21.001Z</time></trkpt><trkpt lat="43.42916489111839" lon="10.902050298209332"><ele>265.4</ele><time>2026-04-18T10:12:22.001Z</time></trkpt><trkpt lat="43.42924272743121" lon="10.902155959167585"><ele>268.0</ele><time>2026-04-18T10:12:23.001Z</time></trkpt><trkpt lat="43.4293346076703" lon="10.902248205121193"><ele>268.0</ele><time>2026-04-18T10:12:24.001Z</time></trkpt><trkpt lat="43.429427643785004" lon="10.902331796749523"><ele>268.0</ele><time>2026-04-18T10:12:25.001Z</time></trkpt><trkpt lat="43.4295185956662" lon="10.902417412168427"><ele>268.0</ele><time>2026-04-18T10:12:26.001Z</time></trkpt><trkpt lat="43.42960119542998" lon="10.902496631261906"><ele>268.0</ele><time>2026-04-18T10:12:27.001Z</time></trkpt><trkpt lat="43.42965689460534" lon="10.902565698589008"><ele>268.0</ele><time>2026-04-18T10:12:28.001Z</time></trkpt><trkpt lat="43.429687670661146" lon="10.902693986321621"><ele>269.3333333333333</ele><time>2026-04-18T10:12:30.001Z</time></trkpt><trkpt lat="43.42961751377165" lon="10.902805915375012"><ele>270.66666666666663</ele><time>2026-04-18T10:12:32.001Z</time></trkpt><trkpt lat="43.42954764360358" lon="10.902810044226946"><ele>272.0</ele><time>2026-04-18T10:12:33.001Z</time></trkpt><trkpt lat="43.42947325794701" lon="10.902816527035267"><ele>273.3333333333333</ele><time>2026-04-18T10:12:34.001Z</time></trkpt><trkpt lat="43.42938493841566" lon="10.902827257959947"><ele>274.6666666666667</ele><time>2026-04-18T10:12:35.001Z</time></trkpt><trkpt lat="43.429295996509985" lon="10.902826371093534"><ele>276.0</ele><time>2026-04-18T10:12:36.001Z</time></trkpt><trkpt lat="43.42921323269342" lon="10.902788405496235"><ele>276.0</ele><time>2026-04-18T10:12:37.001Z</time></trkpt><trkpt lat="43.42914928735443" lon="10.902693180913253"><ele>276.0</ele><time>2026-04-18T10:12:38.001Z</time></trkpt><trkpt lat="43.42910367651916" lon="10.902589854644928"><ele>276.0</ele><time>2026-04-18T10:12:39.001Z</time></trkpt><trkpt lat="43.42906045731842" lon="10.902499966851328"><ele>276.0</ele><time>2026-04-18T10:12:40.001Z</time></trkpt><trkpt lat="43.42902348955378" lon="10.902400655853862"><ele>276.0</ele><time>2026-04-18T10:12:41.001Z</time></trkpt><trkpt lat="43.428948241868596" lon="10.902337878391045"><ele>276.0</ele><time>2026-04-18T10:12:42.001Z</time></trkpt><trkpt lat="43.42888562975712" lon="10.902278437831974"><ele>276.40000000000003</ele><time>2026-04-18T10:12:43.001Z</time></trkpt><trkpt lat="43.428810016642835" lon="10.902243386294296"><ele>276.8</ele><time>2026-04-18T10:12:44.001Z</time></trkpt><trkpt lat="43.42872820146652" lon="10.90222653399171"><ele>277.20000000000005</ele><time>2026-04-18T10:12:45.001Z</time></trkpt><trkpt lat="43.42863570873929" lon="10.902231335730024"><ele>277.6</ele><time>2026-04-18T10:12:46.001Z</time></trkpt><trkpt lat="43.42853875083854" lon="10.902270304321698"><ele>278.0</ele><time>2026-04-18T10:12:47.001Z</time></trkpt><trkpt lat="43.428448796082655" lon="10.902316438628167"><ele>278.0</ele><time>2026-04-18T10:12:48.001Z</time></trkpt><trkpt lat="43.42836090786472" lon="10.902360213219643"><ele>278.0</ele><time>2026-04-18T10:12:49.001Z</time></trkpt><trkpt lat="43.42827409095803" lon="10.902377479965455"><ele>278.0</ele><time>2026-04-18T10:12:50.001Z</time></trkpt><trkpt lat="43.42819378371296" lon="10.902348830859232"><ele>278.0</ele><time>2026-04-18T10:12:51.001Z</time></trkpt><trkpt lat="43.428108752346574" lon="10.90230100847095"><ele>278.0</ele><time>2026-04-18T10:12:52.001Z</time></trkpt><trkpt lat="43.428020476022446" lon="10.902255222479038"><ele>278.5</ele><time>2026-04-18T10:12:53.001Z</time></trkpt><trkpt lat="43.42793075062754" lon="10.90221768880448"><ele>279.0</ele><time>2026-04-18T10:12:54.001Z</time></trkpt><trkpt lat="43.42785074594141" lon="10.902168433268097"><ele>279.5</ele><time>2026-04-18T10:12:55.001Z</time></trkpt><trkpt lat="43.42778479112988" lon="10.902130537829553"><ele>280.0</ele><time>2026-04-18T10:12:56.001Z</time></trkpt><trkpt lat="43.42772159508747" lon="10.902112694201533"><ele>280.5</ele><time>2026-04-18T10:12:57.001Z</time></trkpt><trkpt lat="43.42760547885464" lon="10.902174447627523"><ele>281.0</ele><time>2026-04-18T10:12:59.001Z</time></trkpt><trkpt lat="43.427561798046526" lon="10.902239430828022"><ele>281.0</ele><time>2026-04-18T10:13:00.001Z</time></trkpt><trkpt lat="43.42758054323088" lon="10.902399664616048"><ele>281.0</ele><time>2026-04-18T10:13:02.001Z</time></trkpt><trkpt lat="43.427673061483034" lon="10.902512489213102"><ele>281.0</ele><time>2026-04-18T10:13:04.001Z</time></trkpt><trkpt lat="43.42772617856221" lon="10.902562582414904"><ele>281.0</ele><time>2026-04-18T10:13:05.001Z</time></trkpt><trkpt lat="43.42778212453894" lon="10.902621363897127"><ele>281.0</ele><time>2026-04-18T10:13:06.001Z</time></trkpt><trkpt lat="43.42784198888057" lon="10.902678131771376"><ele>281.0</ele><time>2026-04-18T10:13:07.001Z</time></trkpt><trkpt lat="43.427907363613926" lon="10.902745460681878"><ele>282.2</ele><time>2026-04-18T10:13:08.001Z</time></trkpt><trkpt lat="43.42797174911571" lon="10.90281632052901"><ele>283.40000000000003</ele><time>2026-04-18T10:13:09.002Z</time></trkpt><trkpt lat="43.42804682075344" lon="10.902887516417717"><ele>284.6</ele><time>2026-04-18T10:13:10.002Z</time></trkpt><trkpt lat="43.42814143772799" lon="10.90296324748451"><ele>285.8</ele><time>2026-04-18T10:13:11.002Z</time></trkpt><trkpt lat="43.42823081351448" lon="10.903034649964148"><ele>287.0</ele><time>2026-04-18T10:13:12.002Z</time></trkpt><trkpt lat="43.42832351582664" lon="10.903103462606262"><ele>287.0</ele><time>2026-04-18T10:13:13.002Z</time></trkpt><trkpt lat="43.428403011411895" lon="10.903190561066232"><ele>287.0</ele><time>2026-04-18T10:13:14.002Z</time></trkpt><trkpt lat="43.4284764215173" lon="10.903292745271832"><ele>287.0</ele><time>2026-04-18T10:13:15.002Z</time></trkpt><trkpt lat="43.42854356571493" lon="10.903413212171225"><ele>287.0</ele><time>2026-04-18T10:13:16.002Z</time></trkpt><trkpt lat="43.42860298053414" lon="10.90355494109184"><ele>287.0</ele><time>2026-04-18T10:13:17.002Z</time></trkpt><trkpt lat="43.42866699037167" lon="10.903711725370693"><ele>286.25</ele><time>2026-04-18T10:13:18.002Z</time></trkpt><trkpt lat="43.42872102639042" lon="10.903875826984853"><ele>285.5</ele><time>2026-04-18T10:13:19.002Z</time></trkpt><trkpt lat="43.42878114270344" lon="10.904050657170504"><ele>284.75</ele><time>2026-04-18T10:13:20.002Z</time></trkpt><trkpt lat="43.42882386033656" lon="10.904219662661719"><ele>284.0</ele><time>2026-04-18T10:13:21.002Z</time></trkpt><trkpt lat="43.42886668290489" lon="10.904384053312745"><ele>286.0</ele><time>2026-04-18T10:13:22.002Z</time></trkpt><trkpt lat="43.42889827032243" lon="10.904536390205593"><ele>288.0</ele><time>2026-04-18T10:13:23.002Z</time></trkpt><trkpt lat="43.428921337706726" lon="10.904678229845938"><ele>290.0</ele><time>2026-04-18T10:13:24.002Z</time></trkpt><trkpt lat="43.42896557211436" lon="10.904795021466144"><ele>292.0</ele><time>2026-04-18T10:13:25Z</time></trkpt><trkpt lat="43.429009956576024" lon="10.904899856295357"><ele>294.0</ele><time>2026-04-18T10:13:26Z</time></trkpt><trkpt lat="43.42907493326695" lon="10.905000034035135"><ele>295.6666666666667</ele><time>2026-04-18T10:13:27Z</time></trkpt><trkpt lat="43.42914728113788" lon="10.905090670562899"><ele>297.3333333333333</ele><time>2026-04-18T10:13:28Z</time></trkpt><trkpt lat="43.42922452144467" lon="10.905174501987519"><ele>299.0</ele><time>2026-04-18T10:13:29Z</time></trkpt><trkpt lat="43.42929120721895" lon="10.905257606650466"><ele>300.66666666666663</ele><time>2026-04-18T10:13:30Z</time></trkpt><trkpt lat="43.42933741498506" lon="10.905345127780611"><ele>302.3333333333333</ele><time>2026-04-18T10:13:31Z</time></trkpt><trkpt lat="43.42937629811246" lon="10.905446796924716"><ele>304.0</ele><time>2026-04-18T10:13:32Z</time></trkpt><trkpt lat="43.42939714567884" lon="10.905551866953216"><ele>304.0</ele><time>2026-04-18T10:13:33Z</time></trkpt><trkpt lat="43.42939761088068" lon="10.905656210135861"><ele>304.0</ele><time>2026-04-18T10:13:34Z</time></trkpt><trkpt lat="43.429377236287614" lon="10.90574963574937"><ele>304.0</ele><time>2026-04-18T10:13:35Z</time></trkpt><trkpt lat="43.42930269166994" lon="10.905864869438041"><ele>304.0</ele><time>2026-04-18T10:13:37Z</time></trkpt><trkpt lat="43.42920527165127" lon="10.9058900286784"><ele>304.0</ele><time>2026-04-18T10:13:39Z</time></trkpt><trkpt lat="43.429106916563526" lon="10.9058610787274"><ele>304.0</ele><time>2026-04-18T10:13:41Z</time></trkpt><trkpt lat="43.42899272421753" lon="10.905782149847449"><ele>304.0</ele><time>2026-04-18T10:13:43Z</time></trkpt><trkpt lat="43.428923931577735" lon="10.905738848613233"><ele>304.0</ele><time>2026-04-18T10:13:44Z</time></trkpt><trkpt lat="43.42886030747945" lon="10.905672375539261"><ele>304.0</ele><time>2026-04-18T10:13:45Z</time></trkpt><trkpt lat="43.42878386781548" lon="10.905619581650122"><ele>304.0</ele><time>2026-04-18T10:13:46Z</time></trkpt><trkpt lat="43.42870416656544" lon="10.905566223483877"><ele>306.59999999999997</ele><time>2026-04-18T10:13:47Z</time></trkpt><trkpt lat="43.4286191055539" lon="10.905513350198017"><ele>309.2</ele><time>2026-04-18T10:13:48Z</time></trkpt><trkpt lat="43.42852486152874" lon="10.905480514645035"><ele>311.79999999999995</ele><time>2026-04-18T10:13:49Z</time></trkpt><trkpt lat="43.428436827961306" lon="10.905406215939829"><ele>314.4</ele><time>2026-04-18T10:13:50Z</time></trkpt><trkpt lat="43.428343823427454" lon="10.90534549003221"><ele>317.0</ele><time>2026-04-18T10:13:51Z</time></trkpt><trkpt lat="43.428251137597066" lon="10.905295547640414"><ele>317.0</ele><time>2026-04-18T10:13:52Z</time></trkpt><trkpt lat="43.42815627009803" lon="10.905249778505574"><ele>317.0</ele><time>2026-04-18T10:13:53Z</time></trkpt><trkpt lat="43.42805971905948" lon="10.90520029263537"><ele>317.0</ele><time>2026-04-18T10:13:54Z</time></trkpt><trkpt lat="43.42797153020538" lon="10.90513881278653"><ele>317.0</ele><time>2026-04-18T10:13:55Z</time></trkpt><trkpt lat="43.42788951968885" lon="10.905069204754431"><ele>317.0</ele><time>2026-04-18T10:13:56Z</time></trkpt><trkpt lat="43.42781233119602" lon="10.905005727900827"><ele>317.1666666666667</ele><time>2026-04-18T10:13:57Z</time></trkpt><trkpt lat="43.427721027908376" lon="10.904952486667023"><ele>317.33333333333337</ele><time>2026-04-18T10:13:58Z</time></trkpt><trkpt lat="43.42763819633447" lon="10.904897831119746"><ele>317.5</ele><time>2026-04-18T10:13:59Z</time></trkpt><trkpt lat="43.427558287242285" lon="10.904852483362056"><ele>317.6666666666667</ele><time>2026-04-18T10:14:00Z</time></trkpt><trkpt lat="43.42747860494408" lon="10.90480859659996"><ele>317.8333333333333</ele><time>2026-04-18T10:14:01Z</time></trkpt><trkpt lat="43.42740422842023" lon="10.904775132030528"><ele>318.0</ele><time>2026-04-18T10:14:02Z</time></trkpt><trkpt lat="43.42733128673397" lon="10.90475881422212"><ele>318.0</ele><time>2026-04-18T10:14:03Z</time></trkpt><trkpt lat="43.42726253651646" lon="10.904789167948763"><ele>318.0</ele><time>2026-04-18T10:14:04Z</time></trkpt><trkpt lat="43.42720718625055" lon="10.904836354863303"><ele>318.0</ele><time>2026-04-18T10:14:05Z</time></trkpt><trkpt lat="43.427168477948285" lon="10.904905064691432"><ele>318.0</ele><time>2026-04-18T10:14:06Z</time></trkpt><trkpt lat="43.42713041868238" lon="10.904974967294946"><ele>318.0</ele><time>2026-04-18T10:14:07Z</time></trkpt><trkpt lat="43.42708342882427" lon="10.90511618137482"><ele>318.0</ele><time>2026-04-18T10:14:09Z</time></trkpt><trkpt lat="43.42703025586174" lon="10.905241960692948"><ele>321.25</ele><time>2026-04-18T10:14:11.001Z</time></trkpt><trkpt lat="43.42695532041581" lon="10.905351844898057"><ele>324.5</ele><time>2026-04-18T10:14:13.001Z</time></trkpt><trkpt lat="43.42685537037981" lon="10.905441003328363"><ele>327.75</ele><time>2026-04-18T10:14:15.001Z</time></trkpt><trkpt lat="43.42673706959514" lon="10.905482223241098"><ele>331.0</ele><time>2026-04-18T10:14:17.001Z</time></trkpt><trkpt lat="43.42662307094412" lon="10.905534352667912"><ele>331.0</ele><time>2026-04-18T10:14:19.001Z</time></trkpt><trkpt lat="43.42659040552559" lon="10.905610790294649"><ele>331.0</ele><time>2026-04-18T10:14:20.001Z</time></trkpt><trkpt lat="43.426599386333045" lon="10.905703695838778"><ele>331.0</ele><time>2026-04-18T10:14:21.001Z</time></trkpt><trkpt lat="43.426691711451056" lon="10.905821746993706"><ele>331.0</ele><time>2026-04-18T10:14:23.001Z</time></trkpt><trkpt lat="43.42675418827705" lon="10.905863841248477"><ele>331.0</ele><time>2026-04-18T10:14:24.001Z</time></trkpt><trkpt lat="43.42683054020917" lon="10.905915671401802"><ele>331.0</ele><time>2026-04-18T10:14:25.001Z</time></trkpt><trkpt lat="43.42690898904415" lon="10.90596892503837"><ele>332.8333333333333</ele><time>2026-04-18T10:14:26.001Z</time></trkpt><trkpt lat="43.4269880527494" lon="10.906024766969827"><ele>334.66666666666663</ele><time>2026-04-18T10:14:27.001Z</time></trkpt><trkpt lat="43.42706409139714" lon="10.906086476710898"><ele>336.5</ele><time>2026-04-18T10:14:28.001Z</time></trkpt><trkpt lat="43.42714738451056" lon="10.906146885438124"><ele>338.3333333333333</ele><time>2026-04-18T10:14:29.001Z</time></trkpt><trkpt lat="43.42720404597229" lon="10.906227997074163"><ele>340.1666666666667</ele><time>2026-04-18T10:14:30.001Z</time></trkpt><trkpt lat="43.4272845286804" lon="10.906300598705064"><ele>342.0</ele><time>2026-04-18T10:14:31.001Z</time></trkpt><trkpt lat="43.42735874586956" lon="10.90634397193853"><ele>342.0</ele><time>2026-04-18T10:14:32.001Z</time></trkpt><trkpt lat="43.427419871581606" lon="10.906427884005305"><ele>342.0</ele><time>2026-04-18T10:14:33.001Z</time></trkpt><trkpt lat="43.427482535780044" lon="10.906491592017794"><ele>342.0</ele><time>2026-04-18T10:14:34.001Z</time></trkpt><trkpt lat="43.42753705935116" lon="10.906590436684272"><ele>342.0</ele><time>2026-04-18T10:14:35.001Z</time></trkpt><trkpt lat="43.4275745630877" lon="10.90671281633576"><ele>342.0</ele><time>2026-04-18T10:14:36.001Z</time></trkpt><trkpt lat="43.42762632893131" lon="10.90682015403528"><ele>342.0</ele><time>2026-04-18T10:14:37.001Z</time></trkpt><trkpt lat="43.42765728305883" lon="10.906930035604828"><ele>343.6666666666667</ele><time>2026-04-18T10:14:38.001Z</time></trkpt><trkpt lat="43.427693625895365" lon="10.907043171375605"><ele>345.3333333333333</ele><time>2026-04-18T10:14:39.001Z</time></trkpt><trkpt lat="43.427724374273794" lon="10.907153073030292"><ele>347.0</ele><time>2026-04-18T10:14:40.001Z</time></trkpt><trkpt lat="43.42775139532079" lon="10.907260005146483"><ele>348.66666666666663</ele><time>2026-04-18T10:14:41.001Z</time></trkpt><trkpt lat="43.42777779078998" lon="10.907364280012205"><ele>350.3333333333333</ele><time>2026-04-18T10:14:42.001Z</time></trkpt><trkpt lat="43.4277917754514" lon="10.907473895965914"><ele>352.0</ele><time>2026-04-18T10:14:43.001Z</time></trkpt><trkpt lat="43.42779504306273" lon="10.907586446162851"><ele>352.8</ele><time>2026-04-18T10:14:44.001Z</time></trkpt><trkpt lat="43.427783332428916" lon="10.907688123785883"><ele>353.6</ele><time>2026-04-18T10:14:45.001Z</time></trkpt><trkpt lat="43.427763504266274" lon="10.907775059773913"><ele>354.40000000000003</ele><time>2026-04-18T10:14:46.001Z</time></trkpt><trkpt lat="43.427676011787945" lon="10.907952155223809"><ele>355.20000000000005</ele><time>2026-04-18T10:14:48.001Z</time></trkpt><trkpt lat="43.42764186594453" lon="10.908051735291961"><ele>356.0</ele><time>2026-04-18T10:14:49.001Z</time></trkpt><trkpt lat="43.42760922874253" lon="10.908148686483006"><ele>356.0</ele><time>2026-04-18T10:14:50.001Z</time></trkpt><trkpt lat="43.427576763995944" lon="10.908254244114204"><ele>356.0</ele><time>2026-04-18T10:14:51.001Z</time></trkpt><trkpt lat="43.42752345399651" lon="10.908359401566651"><ele>356.0</ele><time>2026-04-18T10:14:52.001Z</time></trkpt><trkpt lat="43.42747754311012" lon="10.908467980132299"><ele>356.0</ele><time>2026-04-18T10:14:53.001Z</time></trkpt><trkpt lat="43.427419156972995" lon="10.908551972095335"><ele>356.0</ele><time>2026-04-18T10:14:54.001Z</time></trkpt><trkpt lat="43.42733291252673" lon="10.908578379348572"><ele>356.0</ele><time>2026-04-18T10:14:55.001Z</time></trkpt><trkpt lat="43.42725766107005" lon="10.908616878261663"><ele>356.6666666666667</ele><time>2026-04-18T10:14:56.001Z</time></trkpt><trkpt lat="43.42719366124556" lon="10.908674369800284"><ele>357.33333333333337</ele><time>2026-04-18T10:14:57.001Z</time></trkpt><trkpt lat="43.42714243313777" lon="10.908743716748155"><ele>358.0</ele><time>2026-04-18T10:14:58.001Z</time></trkpt><trkpt lat="43.42710407719776" lon="10.908820906834384"><ele>358.6666666666667</ele><time>2026-04-18T10:14:59.001Z</time></trkpt><trkpt lat="43.42713695549899" lon="10.908982634736995"><ele>359.3333333333333</ele><time>2026-04-18T10:15:01.001Z</time></trkpt><trkpt lat="43.42720113961107" lon="10.90904312932434"><ele>360.0</ele><time>2026-04-18T10:15:02.001Z</time></trkpt><trkpt lat="43.42725168115442" lon="10.909125171292963"><ele>360.0</ele><time>2026-04-18T10:15:03.001Z</time></trkpt><trkpt lat="43.427311066271386" lon="10.90917648504793"><ele>360.0</ele><time>2026-04-18T10:15:04.001Z</time></trkpt><trkpt lat="43.427383425439864" lon="10.909232939669522"><ele>360.0</ele><time>2026-04-18T10:15:05.001Z</time></trkpt><trkpt lat="43.427454245507235" lon="10.909285529448292"><ele>360.0</ele><time>2026-04-18T10:15:06.001Z</time></trkpt><trkpt lat="43.42752688749846" lon="10.909337594494431"><ele>360.0</ele><time>2026-04-18T10:15:07.001Z</time></trkpt><trkpt lat="43.42760467910601" lon="10.909372937073561"><ele>360.0</ele><time>2026-04-18T10:15:08.001Z</time></trkpt><trkpt lat="43.4276760858699" lon="10.909459683408242"><ele>361.5</ele><time>2026-04-18T10:15:09.002Z</time></trkpt><trkpt lat="43.42773799747069" lon="10.90960216047047"><ele>363.0</ele><time>2026-04-18T10:15:10.002Z</time></trkpt><trkpt lat="43.42777463008722" lon="10.909691269639012"><ele>364.5</ele><time>2026-04-18T10:15:11.002Z</time></trkpt><trkpt lat="43.42776724180408" lon="10.9098055396486"><ele>366.0</ele><time>2026-04-18T10:15:12.002Z</time></trkpt><trkpt lat="43.427752688978316" lon="10.909920902965506"><ele>367.5</ele><time>2026-04-18T10:15:13.002Z</time></trkpt><trkpt lat="43.42774174533462" lon="10.91002582373039"><ele>369.0</ele><time>2026-04-18T10:15:14.002Z</time></trkpt><trkpt lat="43.427707731218334" lon="10.910134299606845"><ele>370.4</ele><time>2026-04-18T10:15:15.002Z</time></trkpt><trkpt lat="43.42769885900486" lon="10.910260255090508"><ele>371.79999999999995</ele><time>2026-04-18T10:15:16.002Z</time></trkpt><trkpt lat="43.42773708180705" lon="10.910389782119253"><ele>373.20000000000005</ele><time>2026-04-18T10:15:17.002Z</time></trkpt><trkpt lat="43.42780211126082" lon="10.910511624803586"><ele>374.6</ele><time>2026-04-18T10:15:18.002Z</time></trkpt><trkpt lat="43.42785944614888" lon="10.910643697706002"><ele>376.0</ele><time>2026-04-18T10:15:19.002Z</time></trkpt><trkpt lat="43.427908603913465" lon="10.910775916370575"><ele>378.0</ele><time>2026-04-18T10:15:20.002Z</time></trkpt><trkpt lat="43.4279069292149" lon="10.910924524547191"><ele>380.0</ele><time>2026-04-18T10:15:21.002Z</time></trkpt><trkpt lat="43.42789690632113" lon="10.911076436355113"><ele>382.0</ele><time>2026-04-18T10:15:22.002Z</time></trkpt><trkpt lat="43.427889507806874" lon="10.911236892375316"><ele>384.0</ele><time>2026-04-18T10:15:23.002Z</time></trkpt><trkpt lat="43.42788439249581" lon="10.911400851778984"><ele>384.0</ele><time>2026-04-18T10:15:24.002Z</time></trkpt><trkpt lat="43.427891726511426" lon="10.911570437715605"><ele>384.0</ele><time>2026-04-18T10:15:25.002Z</time></trkpt><trkpt lat="43.42787478802867" lon="10.911735391448612"><ele>384.0</ele><time>2026-04-18T10:15:26.002Z</time></trkpt><trkpt lat="43.42785672978667" lon="10.91189896688413"><ele>384.0</ele><time>2026-04-18T10:15:27.002Z</time></trkpt><trkpt lat="43.427840176776655" lon="10.912059261484254"><ele>384.79999999999995</ele><time>2026-04-18T10:15:28.002Z</time></trkpt><trkpt lat="43.42782351691663" lon="10.912207155403712"><ele>385.59999999999997</ele><time>2026-04-18T10:15:29.002Z</time></trkpt><trkpt lat="43.427786036840445" lon="10.91233767487216"><ele>386.4</ele><time>2026-04-18T10:15:30.002Z</time></trkpt><trkpt lat="43.42772946892936" lon="10.912477080940462"><ele>387.2</ele><time>2026-04-18T10:15:31Z</time></trkpt><trkpt lat="43.42767216488956" lon="10.912616828438921"><ele>388.0</ele><time>2026-04-18T10:15:32Z</time></trkpt><trkpt lat="43.4275978632964" lon="10.912756850354459"><ele>388.0</ele><time>2026-04-18T10:15:33Z</time></trkpt><trkpt lat="43.42753955164927" lon="10.912902550768129"><ele>388.0</ele><time>2026-04-18T10:15:34Z</time></trkpt><trkpt lat="43.42746301530867" lon="10.913011196334832"><ele>388.0</ele><time>2026-04-18T10:15:35Z</time></trkpt><trkpt lat="43.42741562639056" lon="10.913138121464137"><ele>388.0</ele><time>2026-04-18T10:15:36Z</time></trkpt><trkpt lat="43.42737292432205" lon="10.913267616031526"><ele>388.0</ele><time>2026-04-18T10:15:37Z</time></trkpt><trkpt lat="43.4273416131295" lon="10.913394135138947"><ele>387.83333333333337</ele><time>2026-04-18T10:15:38Z</time></trkpt><trkpt lat="43.427317425509564" lon="10.913509564840755"><ele>387.6666666666667</ele><time>2026-04-18T10:15:39Z</time></trkpt><trkpt lat="43.427311557327975" lon="10.91361238925456"><ele>387.5</ele><time>2026-04-18T10:15:40Z</time></trkpt><trkpt lat="43.4273272256161" lon="10.913719083136208"><ele>387.33333333333337</ele><time>2026-04-18T10:15:41Z</time></trkpt><trkpt lat="43.427360691779086" lon="10.913823890905942"><ele>387.1666666666667</ele><time>2026-04-18T10:15:42Z</time></trkpt><trkpt lat="43.42741163771054" lon="10.91393307128889"><ele>387.0</ele><time>2026-04-18T10:15:43Z</time></trkpt><trkpt lat="43.42748045477366" lon="10.914046297173208"><ele>387.0</ele><time>2026-04-18T10:15:44Z</time></trkpt><trkpt lat="43.42755811936364" lon="10.914167943385678"><ele>387.0</ele><time>2026-04-18T10:15:45Z</time></trkpt><trkpt lat="43.42763880353842" lon="10.914294963507375"><ele>387.0</ele><time>2026-04-18T10:15:46Z</time></trkpt><trkpt lat="43.42771974349801" lon="10.914424687806502"><ele>387.0</ele><time>2026-04-18T10:15:47Z</time></trkpt><trkpt lat="43.42781065017217" lon="10.914565671608292"><ele>386.0</ele><time>2026-04-18T10:15:48Z</time></trkpt><trkpt lat="43.42789800869525" lon="10.914706904772768"><ele>385.0</ele><time>2026-04-18T10:15:49Z</time></trkpt><trkpt lat="43.427983968756756" lon="10.914850196292733"><ele>384.0</ele><time>2026-04-18T10:15:50Z</time></trkpt><trkpt lat="43.428074261933574" lon="10.9149955172946"><ele>383.0</ele><time>2026-04-18T10:15:51Z</time></trkpt><trkpt lat="43.428159533336974" lon="10.915132185929064"><ele>385.25</ele><time>2026-04-18T10:15:52Z</time></trkpt><trkpt lat="43.428244338503326" lon="10.915249528273632"><ele>387.5</ele><time>2026-04-18T10:15:53Z</time></trkpt><trkpt lat="43.42833527806971" lon="10.915360771620906"><ele>389.75</ele><time>2026-04-18T10:15:54Z</time></trkpt><trkpt lat="43.42846000455889" lon="10.9154216493885"><ele>392.0</ele><time>2026-04-18T10:15:55Z</time></trkpt><trkpt lat="43.42858270795539" lon="10.915457149835913"><ele>392.0</ele><time>2026-04-18T10:15:56Z</time></trkpt><trkpt lat="43.42869150598928" lon="10.915473905755295"><ele>392.0</ele><time>2026-04-18T10:15:57Z</time></trkpt><trkpt lat="43.42878675984973" lon="10.915534215885087"><ele>392.0</ele><time>2026-04-18T10:15:58Z</time></trkpt><trkpt lat="43.428875588149275" lon="10.915606495507504"><ele>392.0</ele><time>2026-04-18T10:15:59Z</time></trkpt><trkpt lat="43.42891395786957" lon="10.915734035558918"><ele>392.0</ele><time>2026-04-18T10:16:00Z</time></trkpt><trkpt lat="43.42893511640788" lon="10.91585199012076"><ele>395.66666666666663</ele><time>2026-04-18T10:16:01Z</time></trkpt><trkpt lat="43.4289342495493" lon="10.915975625013479"><ele>399.3333333333333</ele><time>2026-04-18T10:16:02Z</time></trkpt><trkpt lat="43.4289411176026" lon="10.916095612883861"><ele>403.0</ele><time>2026-04-18T10:16:03Z</time></trkpt><trkpt lat="43.42892982120106" lon="10.916209039383084"><ele>406.66666666666663</ele><time>2026-04-18T10:16:04Z</time></trkpt><trkpt lat="43.42893816026796" lon="10.916331020553162"><ele>410.3333333333333</ele><time>2026-04-18T10:16:05Z</time></trkpt><trkpt lat="43.42894968640979" lon="10.916452011763223"><ele>414.0</ele><time>2026-04-18T10:16:06Z</time></trkpt><trkpt lat="43.428977817344204" lon="10.916575158414641"><ele>414.0</ele><time>2026-04-18T10:16:07Z</time></trkpt><trkpt lat="43.42900106034596" lon="10.916703472032994"><ele>414.0</ele><time>2026-04-18T10:16:08Z</time></trkpt><trkpt lat="43.42901188717955" lon="10.916846254460326"><ele>414.0</ele><time>2026-04-18T10:16:09Z</time></trkpt><trkpt lat="43.42903562725804" lon="10.91698821580364"><ele>414.0</ele><time>2026-04-18T10:16:10Z</time></trkpt><trkpt lat="43.42905982362282" lon="10.917127637657856"><ele>414.0</ele><time>2026-04-18T10:16:11Z</time></trkpt><trkpt lat="43.429093463806986" lon="10.917256423193876"><ele>414.4</ele><time>2026-04-18T10:16:12Z</time></trkpt><trkpt lat="43.42912714034623" lon="10.917383057721795"><ele>414.79999999999995</ele><time>2026-04-18T10:16:13Z</time></trkpt><trkpt lat="43.42916046031798" lon="10.917510068846031"><ele>415.20000000000005</ele><time>2026-04-18T10:16:14Z</time></trkpt><trkpt lat="43.42919637805731" lon="10.917634501911204"><ele>415.6</ele><time>2026-04-18T10:16:15Z</time></trkpt><trkpt lat="43.42922907843017" lon="10.91777024323967"><ele>416.0</ele><time>2026-04-18T10:16:16Z</time></trkpt><trkpt lat="43.429254356065606" lon="10.917897570336349"><ele>416.0</ele><time>2026-04-18T10:16:17Z</time></trkpt><trkpt lat="43.42926301130531" lon="10.918041054310539"><ele>416.0</ele><time>2026-04-18T10:16:18Z</time></trkpt><trkpt lat="43.42927146914791" lon="10.91818289368545"><ele>416.0</ele><time>2026-04-18T10:16:19.001Z</time></trkpt><trkpt lat="43.429279093206794" lon="10.918329736267118"><ele>416.0</ele><time>2026-04-18T10:16:20.001Z</time></trkpt><trkpt lat="43.42928226978456" lon="10.91847622744031"><ele>416.0</ele><time>2026-04-18T10:16:21.001Z</time></trkpt><trkpt lat="43.429279091623165" lon="10.918628156215416"><ele>417.25</ele><time>2026-04-18T10:16:22.001Z</time></trkpt><trkpt lat="43.42927306237624" lon="10.918785869449952"><ele>418.5</ele><time>2026-04-18T10:16:23.001Z</time></trkpt><trkpt lat="43.42923729887367" lon="10.918928839984929"><ele>419.75</ele><time>2026-04-18T10:16:24.001Z</time></trkpt><trkpt lat="43.42920702818666" lon="10.919073941302399"><ele>421.0</ele><time>2026-04-18T10:16:25.001Z</time></trkpt><trkpt lat="43.42917800260697" lon="10.919227832526682"><ele>422.0</ele><time>2026-04-18T10:16:26.001Z</time></trkpt><trkpt lat="43.42911493610621" lon="10.919346648825902"><ele>423.0</ele><time>2026-04-18T10:16:27.001Z</time></trkpt><trkpt lat="43.429078562202776" lon="10.919483329501304"><ele>424.0</ele><time>2026-04-18T10:16:28.001Z</time></trkpt><trkpt lat="43.42902734784456" lon="10.919592235688667"><ele>425.0</ele><time>2026-04-18T10:16:29.001Z</time></trkpt><trkpt lat="43.42897637588243" lon="10.919705360919565"><ele>426.0</ele><time>2026-04-18T10:16:30.001Z</time></trkpt><trkpt lat="43.42893088242331" lon="10.919831300074735"><ele>426.0</ele><time>2026-04-18T10:16:31.001Z</time></trkpt><trkpt lat="43.428889400190734" lon="10.919951715552829"><ele>426.0</ele><time>2026-04-18T10:16:32.001Z</time></trkpt><trkpt lat="43.42886271630226" lon="10.92007089069912"><ele>426.0</ele><time>2026-04-18T10:16:33.001Z</time></trkpt><trkpt lat="43.42886218346713" lon="10.920184243544064"><ele>426.0</ele><time>2026-04-18T10:16:34.001Z</time></trkpt><trkpt lat="43.42887716911326" lon="10.920298434916065"><ele>426.0</ele><time>2026-04-18T10:16:35.001Z</time></trkpt><trkpt lat="43.42889875245327" lon="10.920419942645983"><ele>426.0</ele><time>2026-04-18T10:16:36.001Z</time></trkpt><trkpt lat="43.428930172359024" lon="10.920552479003494"><ele>426.0</ele><time>2026-04-18T10:16:37.001Z</time></trkpt><trkpt lat="43.42895992070662" lon="10.92068579538033"><ele>426.0</ele><time>2026-04-18T10:16:38.001Z</time></trkpt><trkpt lat="43.42898717297139" lon="10.92081938662396"><ele>426.0</ele><time>2026-04-18T10:16:39.001Z</time></trkpt><trkpt lat="43.42900971899802" lon="10.920956327068478"><ele>426.0</ele><time>2026-04-18T10:16:40.001Z</time></trkpt><trkpt lat="43.42901291963005" lon="10.921092149871992"><ele>426.0</ele><time>2026-04-18T10:16:41.001Z</time></trkpt><trkpt lat="43.428998836803515" lon="10.921239640800598"><ele>425.20000000000005</ele><time>2026-04-18T10:16:42.001Z</time></trkpt><trkpt lat="43.42895956543917" lon="10.921377145733254"><ele>424.40000000000003</ele><time>2026-04-18T10:16:43.001Z</time></trkpt><trkpt lat="43.42887947964219" lon="10.92148058673925"><ele>423.6</ele><time>2026-04-18T10:16:44.001Z</time></trkpt><trkpt lat="43.42879257032868" lon="10.921577407083083"><ele>422.8</ele><time>2026-04-18T10:16:45.001Z</time></trkpt><trkpt lat="43.428692403371414" lon="10.921668876980105"><ele>422.0</ele><time>2026-04-18T10:16:46.001Z</time></trkpt><trkpt lat="43.42858621964945" lon="10.921763799231476"><ele>422.0</ele><time>2026-04-18T10:16:47.001Z</time></trkpt><trkpt lat="43.428481913074975" lon="10.921868765503254"><ele>422.0</ele><time>2026-04-18T10:16:48.001Z</time></trkpt><trkpt lat="43.42838931457491" lon="10.921984049722129"><ele>422.0</ele><time>2026-04-18T10:16:49.001Z</time></trkpt><trkpt lat="43.428303343051674" lon="10.922124430971355"><ele>422.0</ele><time>2026-04-18T10:16:50.001Z</time></trkpt><trkpt lat="43.428236419951396" lon="10.922281685673958"><ele>422.0</ele><time>2026-04-18T10:16:51.001Z</time></trkpt><trkpt lat="43.42818641231812" lon="10.922444862719326"><ele>422.0</ele><time>2026-04-18T10:16:52.001Z</time></trkpt><trkpt lat="43.42814500598781" lon="10.922609450548332"><ele>422.0</ele><time>2026-04-18T10:16:53.001Z</time></trkpt><trkpt lat="43.428105106366495" lon="10.922767419059536"><ele>422.0</ele><time>2026-04-18T10:16:54.001Z</time></trkpt><trkpt lat="43.428066775499055" lon="10.922917510293363"><ele>422.16666666666663</ele><time>2026-04-18T10:16:55.001Z</time></trkpt><trkpt lat="43.428031062375645" lon="10.92305735122514"><ele>422.3333333333333</ele><time>2026-04-18T10:16:56.001Z</time></trkpt><trkpt lat="43.428000792948374" lon="10.923176754149035"><ele>422.5</ele><time>2026-04-18T10:16:57.001Z</time></trkpt><trkpt lat="43.42798721019349" lon="10.923294362734557"><ele>422.66666666666663</ele><time>2026-04-18T10:16:58.001Z</time></trkpt><trkpt lat="43.427963473037" lon="10.923389144475893"><ele>422.8333333333333</ele><time>2026-04-18T10:16:59.001Z</time></trkpt><trkpt lat="43.42792590209074" lon="10.923472474467967"><ele>423.0</ele><time>2026-04-18T10:17:00.001Z</time></trkpt><trkpt lat="43.427920043284225" lon="10.923562256321544"><ele>429.4</ele><time>2026-04-18T10:17:01.001Z</time></trkpt><trkpt lat="43.427871512704684" lon="10.92369297357137"><ele>435.79999999999995</ele><time>2026-04-18T10:17:03.001Z</time></trkpt><trkpt lat="43.427846075945425" lon="10.923835351257889"><ele>442.2</ele><time>2026-04-18T10:17:05.001Z</time></trkpt><trkpt lat="43.427830630923964" lon="10.923974166878748"><ele>448.6</ele><time>2026-04-18T10:17:07.001Z</time></trkpt><trkpt lat="43.42783816147404" lon="10.924119119546598"><ele>455.0</ele><time>2026-04-18T10:17:09.001Z</time></trkpt><trkpt lat="43.42781958294567" lon="10.924245248028939"><ele>455.8333333333333</ele><time>2026-04-18T10:17:11.001Z</time></trkpt><trkpt lat="43.42781935944617" lon="10.924373316529998"><ele>456.66666666666663</ele><time>2026-04-18T10:17:13.001Z</time></trkpt><trkpt lat="43.42782955076627" lon="10.924521295001739"><ele>457.5</ele><time>2026-04-18T10:17:15.001Z</time></trkpt><trkpt lat="43.427830036133905" lon="10.924651013460572"><ele>458.33333333333337</ele><time>2026-04-18T10:17:17.001Z</time></trkpt><trkpt lat="43.42782337140652" lon="10.924744336100368"><ele>459.1666666666667</ele><time>2026-04-18T10:17:18.002Z</time></trkpt><trkpt lat="43.42782602161441" lon="10.924847099786657"><ele>460.0</ele><time>2026-04-18T10:17:19.002Z</time></trkpt><trkpt lat="43.42782876529229" lon="10.92495348786896"><ele>459.99999999999994</ele><time>2026-04-18T10:17:20.002Z</time></trkpt><trkpt lat="43.42783125826728" lon="10.925050154785966"><ele>460.0</ele><time>2026-04-18T10:17:21.002Z</time></trkpt><trkpt lat="43.42783400232015" lon="10.925156557378656"><ele>459.99999999999994</ele><time>2026-04-18T10:17:22.002Z</time></trkpt><trkpt lat="43.42783682253321" lon="10.925265913102786"><ele>459.99999999999994</ele><time>2026-04-18T10:17:23.002Z</time></trkpt><trkpt lat="43.42783937544836" lon="10.925364904257231"><ele>460.0</ele><time>2026-04-18T10:17:24.002Z</time></trkpt><trkpt lat="43.42784056413034" lon="10.925459803529575"><ele>459.99999999999994</ele><time>2026-04-18T10:17:25.002Z</time></trkpt><trkpt lat="43.42784174257898" lon="10.925553057952927"><ele>459.99999999999994</ele><time>2026-04-18T10:17:26.002Z</time></trkpt><trkpt lat="43.42784234965934" lon="10.925641980966551"><ele>459.6</ele><time>2026-04-18T10:17:27.002Z</time></trkpt><trkpt lat="43.427837822972094" lon="10.925807094676971"><ele>459.2</ele><time>2026-04-18T10:17:29.002Z</time></trkpt><trkpt lat="43.42781827530676" lon="10.925889890678755"><ele>458.79999999999995</ele><time>2026-04-18T10:17:30.002Z</time></trkpt><trkpt lat="43.42778058231375" lon="10.92603986435302"><ele>458.4</ele><time>2026-04-18T10:17:32.002Z</time></trkpt><trkpt lat="43.427722986811425" lon="10.92617217924282"><ele>458.0</ele><time>2026-04-18T10:17:34.002Z</time></trkpt><trkpt lat="43.427649232060354" lon="10.92625944522922"><ele>457.4</ele><time>2026-04-18T10:17:36.002Z</time></trkpt><trkpt lat="43.42757438616169" lon="10.92635829293224"><ele>456.79999999999995</ele><time>2026-04-18T10:17:38Z</time></trkpt><trkpt lat="43.42750769422597" lon="10.926342811309734"><ele>456.2</ele><time>2026-04-18T10:17:39Z</time></trkpt><trkpt lat="43.42737388479197" lon="10.926370570178257"><ele>455.6</ele><time>2026-04-18T10:17:41Z</time></trkpt><trkpt lat="43.42730188538987" lon="10.926386543538182"><ele>455.0</ele><time>2026-04-18T10:17:42Z</time></trkpt><trkpt lat="43.42723127835829" lon="10.926403246468036"><ele>454.99999999999994</ele><time>2026-04-18T10:17:43Z</time></trkpt><trkpt lat="43.42715413316092" lon="10.926427849001254"><ele>455.0</ele><time>2026-04-18T10:17:44Z</time></trkpt><trkpt lat="43.42708230100598" lon="10.926475610027287"><ele>455.0</ele><time>2026-04-18T10:17:45Z</time></trkpt><trkpt lat="43.42701663234405" lon="10.92654528397567"><ele>455.0</ele><time>2026-04-18T10:17:46Z</time></trkpt><trkpt lat="43.42696673181062" lon="10.926627002192083"><ele>454.99999999999994</ele><time>2026-04-18T10:17:47Z</time></trkpt><trkpt lat="43.42695542517427" lon="10.926733074790029"><ele>455.0</ele><time>2026-04-18T10:17:48Z</time></trkpt><trkpt lat="43.42695772241766" lon="10.926830678072648"><ele>456.8333333333333</ele><time>2026-04-18T10:17:49Z</time></trkpt><trkpt lat="43.4269870165181" lon="10.926913218570524"><ele>458.66666666666663</ele><time>2026-04-18T10:17:50Z</time></trkpt><trkpt lat="43.427022223572116" lon="10.92700786324064"><ele>460.5</ele><time>2026-04-18T10:17:51Z</time></trkpt><trkpt lat="43.42710207578441" lon="10.927062748024467"><ele>462.33333333333337</ele><time>2026-04-18T10:17:52Z</time></trkpt><trkpt lat="43.42717985241835" lon="10.92711781417977"><ele>464.1666666666667</ele><time>2026-04-18T10:17:53Z</time></trkpt><trkpt lat="43.42726454453364" lon="10.927170738546574"><ele>466.0</ele><time>2026-04-18T10:17:54Z</time></trkpt><trkpt lat="43.427356632359086" lon="10.92722632378814"><ele>466.0</ele><time>2026-04-18T10:17:55Z</time></trkpt><trkpt lat="43.42744714240004" lon="10.927282080924122"><ele>466.0</ele><time>2026-04-18T10:17:56Z</time></trkpt><trkpt lat="43.42752478951867" lon="10.927370735675474"><ele>466.0</ele><time>2026-04-18T10:17:57Z</time></trkpt><trkpt lat="43.42758375359219" lon="10.927498206923381"><ele>466.0</ele><time>2026-04-18T10:17:58Z</time></trkpt><trkpt lat="43.42763933320137" lon="10.927621778389042"><ele>466.0</ele><time>2026-04-18T10:17:59Z</time></trkpt><trkpt lat="43.42770354576771" lon="10.927734448682003"><ele>468.6666666666667</ele><time>2026-04-18T10:18:00Z</time></trkpt><trkpt lat="43.42775349652529" lon="10.927856135476858"><ele>471.33333333333337</ele><time>2026-04-18T10:18:01Z</time></trkpt><trkpt lat="43.42780170934881" lon="10.927969064078939"><ele>474.0</ele><time>2026-04-18T10:18:02Z</time></trkpt><trkpt lat="43.42784440332529" lon="10.92807450173898"><ele>476.66666666666663</ele><time>2026-04-18T10:18:03Z</time></trkpt><trkpt lat="43.427889076573685" lon="10.928169248969796"><ele>479.3333333333333</ele><time>2026-04-18T10:18:04Z</time></trkpt><trkpt lat="43.42793085557066" lon="10.92825783771229"><ele>482.0</ele><time>2026-04-18T10:18:05Z</time></trkpt><trkpt lat="43.42795897559697" lon="10.928358898866497"><ele>480.3333333333333</ele><time>2026-04-18T10:18:06Z</time></trkpt><trkpt lat="43.427975709883356" lon="10.928467565717268"><ele>478.66666666666663</ele><time>2026-04-18T10:18:07Z</time></trkpt><trkpt lat="43.42795745915848" lon="10.928579436354509"><ele>477.0</ele><time>2026-04-18T10:18:08Z</time></trkpt><trkpt lat="43.4279638308254" lon="10.928698300344022"><ele>475.33333333333337</ele><time>2026-04-18T10:18:09Z</time></trkpt><trkpt lat="43.427975764631576" lon="10.928822622404317"><ele>473.6666666666667</ele><time>2026-04-18T10:18:10Z</time></trkpt><trkpt lat="43.427981976926574" lon="10.928952109793636"><ele>472.0</ele><time>2026-04-18T10:18:11Z</time></trkpt><trkpt lat="43.42801107397191" lon="10.929074645736323"><ele>472.0</ele><time>2026-04-18T10:18:12Z</time></trkpt><trkpt lat="43.4280356243657" lon="10.929221479097277"><ele>472.00000000000006</ele><time>2026-04-18T10:18:13Z</time></trkpt><trkpt lat="43.428080497625864" lon="10.929354937229137"><ele>472.00000000000006</ele><time>2026-04-18T10:18:14Z</time></trkpt><trkpt lat="43.4281279787733" lon="10.929490978099397"><ele>472.0</ele><time>2026-04-18T10:18:15Z</time></trkpt><trkpt lat="43.428171582177995" lon="10.929627411554918"><ele>472.0</ele><time>2026-04-18T10:18:16Z</time></trkpt><trkpt lat="43.42821076263082" lon="10.929762348627655"><ele>474.6</ele><time>2026-04-18T10:18:17Z</time></trkpt><trkpt lat="43.4282275081525" lon="10.929890809450603"><ele>477.20000000000005</ele><time>2026-04-18T10:18:18.001Z</time></trkpt><trkpt lat="43.42823548562387" lon="10.930017670540764"><ele>479.8</ele><time>2026-04-18T10:18:19.001Z</time></trkpt><trkpt lat="43.42822132909618" lon="10.930137012254797"><ele>482.4</ele><time>2026-04-18T10:18:20.001Z</time></trkpt><trkpt lat="43.42819657624553" lon="10.930267671484076"><ele>485.0</ele><time>2026-04-18T10:18:21.001Z</time></trkpt><trkpt lat="43.42816578596026" lon="10.93040591457897"><ele>487.25</ele><time>2026-04-18T10:18:22.001Z</time></trkpt><trkpt lat="43.42813104271517" lon="10.930554241527632"><ele>489.5</ele><time>2026-04-18T10:18:23.001Z</time></trkpt><trkpt lat="43.42809578651813" lon="10.930710788665099"><ele>491.75</ele><time>2026-04-18T10:18:24.001Z</time></trkpt><trkpt lat="43.42806360686483" lon="10.930875010652759"><ele>494.0</ele><time>2026-04-18T10:18:25.001Z</time></trkpt><trkpt lat="43.4280476873149" lon="10.931045014142214"><ele>496.2</ele><time>2026-04-18T10:18:26.001Z</time></trkpt><trkpt lat="43.42802728523073" lon="10.93119710178844"><ele>498.4</ele><time>2026-04-18T10:18:27.001Z</time></trkpt><trkpt lat="43.42802368148549" lon="10.931343770499863"><ele>500.6</ele><time>2026-04-18T10:18:28.001Z</time></trkpt><trkpt lat="43.42803960219217" lon="10.931488604026004"><ele>502.8</ele><time>2026-04-18T10:18:29.001Z</time></trkpt><trkpt lat="43.42806769559653" lon="10.931636043782879"><ele>505.0</ele><time>2026-04-18T10:18:30.001Z</time></trkpt><trkpt lat="43.428088040896654" lon="10.931785247347243"><ele>506.1666666666667</ele><time>2026-04-18T10:18:31.001Z</time></trkpt><trkpt lat="43.4281084428547" lon="10.931910638658518"><ele>507.33333333333337</ele><time>2026-04-18T10:18:32.001Z</time></trkpt><trkpt lat="43.42809048867046" lon="10.932080607534191"><ele>508.5</ele><time>2026-04-18T10:18:34.001Z</time></trkpt><trkpt lat="43.42803969414187" lon="10.932164367309921"><ele>509.66666666666663</ele><time>2026-04-18T10:18:35.001Z</time></trkpt><trkpt lat="43.427979048639955" lon="10.93222488029636"><ele>510.8333333333333</ele><time>2026-04-18T10:18:36.001Z</time></trkpt><trkpt lat="43.427920815497735" lon="10.932274771778815"><ele>512.0</ele><time>2026-04-18T10:18:37.001Z</time></trkpt><trkpt lat="43.42786273731487" lon="10.932314452597936"><ele>512.3333333333333</ele><time>2026-04-18T10:18:38.001Z</time></trkpt><trkpt lat="43.42776447913448" lon="10.932400128214486"><ele>512.6666666666666</ele><time>2026-04-18T10:18:40.001Z</time></trkpt><trkpt lat="43.427737215383" lon="10.932485383484227"><ele>513.0</ele><time>2026-04-18T10:18:41.001Z</time></trkpt><trkpt lat="43.42773686084704" lon="10.932594852316578"><ele>513.3333333333334</ele><time>2026-04-18T10:18:42.001Z</time></trkpt><trkpt lat="43.42774759306008" lon="10.93268475657885"><ele>513.6666666666667</ele><time>2026-04-18T10:18:43.001Z</time></trkpt><trkpt lat="43.427774778606434" lon="10.932798535788853"><ele>514.0</ele><time>2026-04-18T10:18:44.001Z</time></trkpt><trkpt lat="43.42781938688344" lon="10.93290858794249"><ele>514.0</ele><time>2026-04-18T10:18:45.001Z</time></trkpt><trkpt lat="43.42787038509353" lon="10.93301461653032"><ele>514.0</ele><time>2026-04-18T10:18:46.001Z</time></trkpt><trkpt lat="43.427895996508745" lon="10.933142409153987"><ele>514.0</ele><time>2026-04-18T10:18:47.001Z</time></trkpt><trkpt lat="43.427945708233395" lon="10.933269286483545"><ele>514.0</ele><time>2026-04-18T10:18:48.001Z</time></trkpt><trkpt lat="43.42798179070253" lon="10.93339873038761"><ele>514.0</ele><time>2026-04-18T10:18:49.001Z</time></trkpt><trkpt lat="43.428001585003265" lon="10.933527699621942"><ele>511.0</ele><time>2026-04-18T10:18:50.001Z</time></trkpt><trkpt lat="43.42804104310137" lon="10.933647118459264"><ele>508.0</ele><time>2026-04-18T10:18:51.001Z</time></trkpt><trkpt lat="43.42809108966468" lon="10.9337507280808"><ele>505.0</ele><time>2026-04-18T10:18:52.001Z</time></trkpt><trkpt lat="43.428148250706386" lon="10.933847764352855"><ele>502.0</ele><time>2026-04-18T10:18:53.001Z</time></trkpt><trkpt lat="43.42821214972136" lon="10.933944444524561"><ele>499.0</ele><time>2026-04-18T10:18:54.001Z</time></trkpt><trkpt lat="43.428287458478174" lon="10.934023205473308"><ele>499.00000000000006</ele><time>2026-04-18T10:18:55.001Z</time></trkpt><trkpt lat="43.42835386729613" lon="10.9340886529997"><ele>499.0</ele><time>2026-04-18T10:18:56.001Z</time></trkpt><trkpt lat="43.428418581297755" lon="10.93411778722579"><ele>499.00000000000006</ele><time>2026-04-18T10:18:57.001Z</time></trkpt><trkpt lat="43.42848068351036" lon="10.934170594243284"><ele>499.00000000000006</ele><time>2026-04-18T10:18:58.001Z</time></trkpt><trkpt lat="43.42853997432486" lon="10.934222234696714"><ele>499.0</ele><time>2026-04-18T10:18:59.001Z</time></trkpt><trkpt lat="43.42859815866835" lon="10.93428787587667"><ele>499.00000000000006</ele><time>2026-04-18T10:19:00.001Z</time></trkpt><trkpt lat="43.42866059277571" lon="10.934325596791373"><ele>499.00000000000006</ele><time>2026-04-18T10:19:01.001Z</time></trkpt><trkpt lat="43.428721174274784" lon="10.934382665335066"><ele>497.33333333333337</ele><time>2026-04-18T10:19:02.001Z</time></trkpt><trkpt lat="43.428778538852704" lon="10.93444450789407"><ele>495.6666666666667</ele><time>2026-04-18T10:19:03.001Z</time></trkpt><trkpt lat="43.42883399161263" lon="10.934510131168508"><ele>494.0</ele><time>2026-04-18T10:19:04.001Z</time></trkpt><trkpt lat="43.42889981226317" lon="10.934574495136655"><ele>492.33333333333337</ele><time>2026-04-18T10:19:05.001Z</time></trkpt><trkpt lat="43.42896122331975" lon="10.934626962275937"><ele>490.6666666666667</ele><time>2026-04-18T10:19:06.001Z</time></trkpt><trkpt lat="43.42903117229648" lon="10.934670275843771"><ele>489.0</ele><time>2026-04-18T10:19:07.001Z</time></trkpt><trkpt lat="43.42909907895104" lon="10.934716465882271"><ele>489.0</ele><time>2026-04-18T10:19:08.001Z</time></trkpt><trkpt lat="43.4291656822045" lon="10.93476173687565"><ele>489.00000000000006</ele><time>2026-04-18T10:19:09.001Z</time></trkpt><trkpt lat="43.42923286403629" lon="10.934802835015756"><ele>489.0</ele><time>2026-04-18T10:19:10.001Z</time></trkpt><trkpt lat="43.42929919611122" lon="10.934846290000786"><ele>489.0</ele><time>2026-04-18T10:19:11.001Z</time></trkpt><trkpt lat="43.429363754213455" lon="10.934888974403377"><ele>489.00000000000006</ele><time>2026-04-18T10:19:12.001Z</time></trkpt><trkpt lat="43.42942644197072" lon="10.934928427461664"><ele>489.0</ele><time>2026-04-18T10:19:13.001Z</time></trkpt><trkpt lat="43.429492805637274" lon="10.934964622477777"><ele>489.0</ele><time>2026-04-18T10:19:14.001Z</time></trkpt><trkpt lat="43.429550185953396" lon="10.935006285143961"><ele>489.2</ele><time>2026-04-18T10:19:15.001Z</time></trkpt><trkpt lat="43.42966375124375" lon="10.93507670003872"><ele>489.4</ele><time>2026-04-18T10:19:17.001Z</time></trkpt><trkpt lat="43.42977000517612" lon="10.93515492879082"><ele>489.6</ele><time>2026-04-18T10:19:19.001Z</time></trkpt><trkpt lat="43.42982379341723" lon="10.93520049759714"><ele>489.8</ele><time>2026-04-18T10:19:20.002Z</time></trkpt><trkpt lat="43.42992567845516" lon="10.935297819644147"><ele>490.0</ele><time>2026-04-18T10:19:22.002Z</time></trkpt><trkpt lat="43.42998652103415" lon="10.935347553048594"><ele>490.0</ele><time>2026-04-18T10:19:23.002Z</time></trkpt><trkpt lat="43.43004916172611" lon="10.93539259305684"><ele>490.0</ele><time>2026-04-18T10:19:24.002Z</time></trkpt><trkpt lat="43.430145916057434" lon="10.93548168244612"><ele>490.0</ele><time>2026-04-18T10:19:26.002Z</time></trkpt><trkpt lat="43.43021811571717" lon="10.935581992711239"><ele>490.0</ele><time>2026-04-18T10:19:28.002Z</time></trkpt><trkpt lat="43.43028205330401" lon="10.935680166474393"><ele>490.0</ele><time>2026-04-18T10:19:30.002Z</time></trkpt><trkpt lat="43.430360630052675" lon="10.935800813503516"><ele>490.0</ele><time>2026-04-18T10:19:32.002Z</time></trkpt><trkpt lat="43.430402209900244" lon="10.935870294490796"><ele>490.0</ele><time>2026-04-18T10:19:33.002Z</time></trkpt><trkpt lat="43.43045244238879" lon="10.935931158559168"><ele>490.0</ele><time>2026-04-18T10:19:34.002Z</time></trkpt><trkpt lat="43.430497585707826" lon="10.936003347254886"><ele>490.0</ele><time>2026-04-18T10:19:35.002Z</time></trkpt><trkpt lat="43.43053641407845" lon="10.936075254066786"><ele>490.0</ele><time>2026-04-18T10:19:36.002Z</time></trkpt><trkpt lat="43.430581698401674" lon="10.936150032486067"><ele>490.0</ele><time>2026-04-18T10:19:37.002Z</time></trkpt><trkpt lat="43.430622975532636" lon="10.936230536568283"><ele>490.0</ele><time>2026-04-18T10:19:38.002Z</time></trkpt><trkpt lat="43.43067227746692" lon="10.936310326522428"><ele>490.42857142857144</ele><time>2026-04-18T10:19:39.002Z</time></trkpt><trkpt lat="43.43070534450904" lon="10.936391931927105"><ele>490.8571428571429</ele><time>2026-04-18T10:19:40.002Z</time></trkpt><trkpt lat="43.43074499749136" lon="10.936474998624224"><ele>491.2857142857143</ele><time>2026-04-18T10:19:41.002Z</time></trkpt><trkpt lat="43.43077789023542" lon="10.936554403987268"><ele>491.7142857142857</ele><time>2026-04-18T10:19:42.002Z</time></trkpt><trkpt lat="43.43081578402495" lon="10.936637710203623"><ele>492.14285714285717</ele><time>2026-04-18T10:19:43Z</time></trkpt><trkpt lat="43.43085130661854" lon="10.936722572194144"><ele>492.57142857142856</ele><time>2026-04-18T10:19:44Z</time></trkpt><trkpt lat="43.4308811378582" lon="10.936804928238944"><ele>493.0</ele><time>2026-04-18T10:19:45Z</time></trkpt><trkpt lat="43.43091628652272" lon="10.936879173957173"><ele>493.0</ele><time>2026-04-18T10:19:46Z</time></trkpt><trkpt lat="43.43094955343671" lon="10.937021506437306"><ele>492.99999999999994</ele><time>2026-04-18T10:19:48Z</time></trkpt><trkpt lat="43.430986926447076" lon="10.93715279434901"><ele>492.99999999999994</ele><time>2026-04-18T10:19:50Z</time></trkpt><trkpt lat="43.431044740360264" lon="10.937272160671732"><ele>493.0</ele><time>2026-04-18T10:19:52Z</time></trkpt><trkpt lat="43.43110080786396" lon="10.937379062272592"><ele>493.0</ele><time>2026-04-18T10:19:54Z</time></trkpt><trkpt lat="43.43114346127499" lon="10.937473618344612"><ele>493.00000000000006</ele><time>2026-04-18T10:19:56Z</time></trkpt><trkpt lat="43.431199689820296" lon="10.937542809991362"><ele>493.0</ele><time>2026-04-18T10:19:58Z</time></trkpt><trkpt lat="43.43127835790193" lon="10.937654607185944"><ele>493.0</ele><time>2026-04-18T10:20:00Z</time></trkpt><trkpt lat="43.43133446681919" lon="10.937706553127217"><ele>493.0</ele><time>2026-04-18T10:20:01Z</time></trkpt><trkpt lat="43.431431061860536" lon="10.937803114495935"><ele>493.00000000000006</ele><time>2026-04-18T10:20:03Z</time></trkpt><trkpt lat="43.43148883498506" lon="10.9378661172792"><ele>493.0</ele><time>2026-04-18T10:20:04Z</time></trkpt><trkpt lat="43.43153645940291" lon="10.937934637639803"><ele>494.1666666666667</ele><time>2026-04-18T10:20:05Z</time></trkpt><trkpt lat="43.431595274688085" lon="10.938017784009363"><ele>495.33333333333337</ele><time>2026-04-18T10:20:06Z</time></trkpt><trkpt lat="43.43164817662122" lon="10.938096950677044"><ele>496.5</ele><time>2026-04-18T10:20:07Z</time></trkpt><trkpt lat="43.4317018241591" lon="10.938181974544664"><ele>497.66666666666663</ele><time>2026-04-18T10:20:08Z</time></trkpt><trkpt lat="43.43175307944433" lon="10.93826689849089"><ele>498.8333333333333</ele><time>2026-04-18T10:20:09Z</time></trkpt><trkpt lat="43.431807555286326" lon="10.938362736659403"><ele>500.0</ele><time>2026-04-18T10:20:10Z</time></trkpt><trkpt lat="43.43185574174953" lon="10.938457777541178"><ele>499.99999999999994</ele><time>2026-04-18T10:20:11Z</time></trkpt><trkpt lat="43.43191234379407" lon="10.938550415689583"><ele>500.0</ele><time>2026-04-18T10:20:12Z</time></trkpt><trkpt lat="43.431952341823845" lon="10.938650441766208"><ele>500.0</ele><time>2026-04-18T10:20:13Z</time></trkpt><trkpt lat="43.43196913823589" lon="10.938773690010972"><ele>500.0</ele><time>2026-04-18T10:20:14Z</time></trkpt><trkpt lat="43.431980574759336" lon="10.938898740701445"><ele>499.99999999999994</ele><time>2026-04-18T10:20:15Z</time></trkpt><trkpt lat="43.43198185588041" lon="10.939024931739235"><ele>500.0</ele><time>2026-04-18T10:20:16Z</time></trkpt><trkpt lat="43.43196922864976" lon="10.939149454362653"><ele>500.66666666666663</ele><time>2026-04-18T10:20:17Z</time></trkpt><trkpt lat="43.43194658442984" lon="10.939273783135262"><ele>501.3333333333333</ele><time>2026-04-18T10:20:18Z</time></trkpt><trkpt lat="43.43193270752699" lon="10.939390930111314"><ele>502.0</ele><time>2026-04-18T10:20:19Z</time></trkpt><trkpt lat="43.43192731270631" lon="10.939502313350078"><ele>502.66666666666663</ele><time>2026-04-18T10:20:20.001Z</time></trkpt><trkpt lat="43.43193661462229" lon="10.939602651264753"><ele>503.3333333333333</ele><time>2026-04-18T10:20:21.001Z</time></trkpt><trkpt lat="43.43196395892972" lon="10.93969735010032"><ele>504.0</ele><time>2026-04-18T10:20:22.001Z</time></trkpt><trkpt lat="43.43200427472032" lon="10.939786351460349"><ele>504.0</ele><time>2026-04-18T10:20:23.001Z</time></trkpt><trkpt lat="43.432066021009916" lon="10.939929212942527"><ele>504.0</ele><time>2026-04-18T10:20:25.001Z</time></trkpt><trkpt lat="43.43206648971269" lon="10.940034073820337"><ele>504.0</ele><time>2026-04-18T10:20:26.001Z</time></trkpt><trkpt lat="43.43204047438398" lon="10.940200890456493"><ele>504.0</ele><time>2026-04-18T10:20:28.001Z</time></trkpt><trkpt lat="43.432025090941515" lon="10.940286375365096"><ele>504.0</ele><time>2026-04-18T10:20:29.001Z</time></trkpt><trkpt lat="43.43198866399402" lon="10.940445663206061"><ele>504.8571428571429</ele><time>2026-04-18T10:20:31.001Z</time></trkpt><trkpt lat="43.43196651988224" lon="10.940530565243796"><ele>505.7142857142857</ele><time>2026-04-18T10:20:32.001Z</time></trkpt><trkpt lat="43.431942266949775" lon="10.94062110159817"><ele>506.57142857142856</ele><time>2026-04-18T10:20:33.001Z</time></trkpt><trkpt lat="43.43192798617606" lon="10.940717385395793"><ele>507.42857142857144</ele><time>2026-04-18T10:20:34.001Z</time></trkpt><trkpt lat="43.4319131978223" lon="10.940817266432212"><ele>508.28571428571433</ele><time>2026-04-18T10:20:35.001Z</time></trkpt><trkpt lat="43.43189545579843" lon="10.940900942176402"><ele>509.14285714285717</ele><time>2026-04-18T10:20:36.001Z</time></trkpt><trkpt lat="43.43188805279315" lon="10.941000668985302"><ele>510.0</ele><time>2026-04-18T10:20:37.001Z</time></trkpt><trkpt lat="43.431876698652765" lon="10.94110372068823"><ele>510.8333333333333</ele><time>2026-04-18T10:20:38.001Z</time></trkpt><trkpt lat="43.431868026841094" lon="10.941205276254378"><ele>511.66666666666663</ele><time>2026-04-18T10:20:39.001Z</time></trkpt><trkpt lat="43.43185962112651" lon="10.941308649421211"><ele>512.5</ele><time>2026-04-18T10:20:40.001Z</time></trkpt><trkpt lat="43.43186021910492" lon="10.941410627017413"><ele>513.3333333333333</ele><time>2026-04-18T10:20:41.001Z</time></trkpt><trkpt lat="43.431861371352554" lon="10.941515473167943"><ele>514.1666666666666</ele><time>2026-04-18T10:20:42.001Z</time></trkpt><trkpt lat="43.43186247560631" lon="10.941621694263699"><ele>515.0</ele><time>2026-04-18T10:20:43.001Z</time></trkpt><trkpt lat="43.431865391770046" lon="10.941737956480402"><ele>515.1666666666666</ele><time>2026-04-18T10:20:44.001Z</time></trkpt><trkpt lat="43.43186802861903" lon="10.941851848099638"><ele>515.3333333333333</ele><time>2026-04-18T10:20:45.001Z</time></trkpt><trkpt lat="43.43186953698315" lon="10.941969451417052"><ele>515.5</ele><time>2026-04-18T10:20:46.001Z</time></trkpt><trkpt lat="43.43186793989668" lon="10.942086323020577"><ele>515.6666666666666</ele><time>2026-04-18T10:20:47.001Z</time></trkpt><trkpt lat="43.4318644519113" lon="10.942198200141599"><ele>515.8333333333334</ele><time>2026-04-18T10:20:48.001Z</time></trkpt><trkpt lat="43.43185677458791" lon="10.942313411635128"><ele>516.0</ele><time>2026-04-18T10:20:49.001Z</time></trkpt><trkpt lat="43.431850619976956" lon="10.942430894798063"><ele>515.1666666666666</ele><time>2026-04-18T10:20:50.001Z</time></trkpt><trkpt lat="43.431845109229464" lon="10.942551055762651"><ele>514.3333333333334</ele><time>2026-04-18T10:20:51.001Z</time></trkpt><trkpt lat="43.43185335855222" lon="10.94267199930435"><ele>513.5</ele><time>2026-04-18T10:20:52.001Z</time></trkpt><trkpt lat="43.43186530396522" lon="10.942787419979705"><ele>512.6666666666667</ele><time>2026-04-18T10:20:53.001Z</time></trkpt><trkpt lat="43.431876603440315" lon="10.94290272384785"><ele>511.83333333333337</ele><time>2026-04-18T10:20:54.001Z</time></trkpt><trkpt lat="43.43188608854617" lon="10.94301965391374"><ele>511.0</ele><time>2026-04-18T10:20:55.001Z</time></trkpt><trkpt lat="43.43189418866132" lon="10.943136072496037"><ele>511.00000000000006</ele><time>2026-04-18T10:20:56.001Z</time></trkpt><trkpt lat="43.43189602564205" lon="10.943252615701658"><ele>511.0</ele><time>2026-04-18T10:20:57.001Z</time></trkpt><trkpt lat="43.43189592721663" lon="10.943363658152022"><ele>511.0</ele><time>2026-04-18T10:20:58.001Z</time></trkpt><trkpt lat="43.431894645327475" lon="10.943477608037483"><ele>511.0</ele><time>2026-04-18T10:20:59.001Z</time></trkpt><trkpt lat="43.43189238457589" lon="10.943586255980017"><ele>511.00000000000006</ele><time>2026-04-18T10:21:00.001Z</time></trkpt><trkpt lat="43.43189175216418" lon="10.943691760719625"><ele>511.0</ele><time>2026-04-18T10:21:01.001Z</time></trkpt><trkpt lat="43.43189910887567" lon="10.943794758882246"><ele>510.50000000000006</ele><time>2026-04-18T10:21:02.001Z</time></trkpt><trkpt lat="43.43190511797721" lon="10.943890867155355"><ele>510.0</ele><time>2026-04-18T10:21:03.001Z</time></trkpt><trkpt lat="43.43191551044293" lon="10.943981364556723"><ele>509.5</ele><time>2026-04-18T10:21:04.001Z</time></trkpt><trkpt lat="43.431922604128395" lon="10.944070666570914"><ele>509.0</ele><time>2026-04-18T10:21:05.001Z</time></trkpt><trkpt lat="43.43193116886195" lon="10.944160340143267"><ele>508.50000000000006</ele><time>2026-04-18T10:21:06.001Z</time></trkpt><trkpt lat="43.4319662503054" lon="10.944297982610749"><ele>508.0</ele><time>2026-04-18T10:21:08.001Z</time></trkpt><trkpt lat="43.43202309203192" lon="10.944419522385022"><ele>507.4</ele><time>2026-04-18T10:21:10.001Z</time></trkpt><trkpt lat="43.43209518530659" lon="10.944506672548991"><ele>506.79999999999995</ele><time>2026-04-18T10:21:12.001Z</time></trkpt><trkpt lat="43.43217772879984" lon="10.94455674169493"><ele>506.2</ele><time>2026-04-18T10:21:14.001Z</time></trkpt><trkpt lat="43.43227783444315" lon="10.944563854474328"><ele>505.6</ele><time>2026-04-18T10:21:16.001Z</time></trkpt><trkpt lat="43.43238711987153" lon="10.944543825284066"><ele>505.0</ele><time>2026-04-18T10:21:18.001Z</time></trkpt><trkpt lat="43.43250337947029" lon="10.94455672075742"><ele>506.2</ele><time>2026-04-18T10:21:20.001Z</time></trkpt><trkpt lat="43.432566482098444" lon="10.94454529524956"><ele>507.4</ele><time>2026-04-18T10:21:21.001Z</time></trkpt><trkpt lat="43.432684517073895" lon="10.94449639000688"><ele>508.6</ele><time>2026-04-18T10:21:23.001Z</time></trkpt><trkpt lat="43.43274813809091" lon="10.944490403254932"><ele>509.8</ele><time>2026-04-18T10:21:24.002Z</time></trkpt><trkpt lat="43.43286115328234" lon="10.944463189467637"><ele>511.0</ele><time>2026-04-18T10:21:26.002Z</time></trkpt><trkpt lat="43.43296925103284" lon="10.944437569210347"><ele>512.0</ele><time>2026-04-18T10:21:28.002Z</time></trkpt><trkpt lat="43.433063231315536" lon="10.944416430317338"><ele>513.0</ele><time>2026-04-18T10:21:30.002Z</time></trkpt><trkpt lat="43.43314173519382" lon="10.944397546095981"><ele>514.0</ele><time>2026-04-18T10:21:32.002Z</time></trkpt><trkpt lat="43.43322153810503" lon="10.944381357845717"><ele>515.0</ele><time>2026-04-18T10:21:34.002Z</time></trkpt><trkpt lat="43.433313535199844" lon="10.944360438919007"><ele>516.0</ele><time>2026-04-18T10:21:36.002Z</time></trkpt><trkpt lat="43.433403539016844" lon="10.9443737392335"><ele>517.0</ele><time>2026-04-18T10:21:38.002Z</time></trkpt><trkpt lat="43.43349355841175" lon="10.94441182495468"><ele>517.0</ele><time>2026-04-18T10:21:40.002Z</time></trkpt><trkpt lat="43.433589753346894" lon="10.94447500749258"><ele>517.0</ele><time>2026-04-18T10:21:42.002Z</time></trkpt><trkpt lat="43.43368831427096" lon="10.944537339993891"><ele>517.0</ele><time>2026-04-18T10:21:44.002Z</time></trkpt><trkpt lat="43.43378446047616" lon="10.944622292426173"><ele>517.0</ele><time>2026-04-18T10:21:46.002Z</time></trkpt><trkpt lat="43.43388143026475" lon="10.9447055856065"><ele>517.0</ele><time>2026-04-18T10:21:48.002Z</time></trkpt><trkpt lat="43.4339839618564" lon="10.944783325528952"><ele>518.8333333333334</ele><time>2026-04-18T10:21:50Z</time></trkpt><trkpt lat="43.43409647067354" lon="10.94484881570018"><ele>520.6666666666667</ele><time>2026-04-18T10:21:52Z</time></trkpt><trkpt lat="43.4342168033558" lon="10.944899730894182"><ele>522.5</ele><time>2026-04-18T10:21:54Z</time></trkpt><trkpt lat="43.434279393293274" lon="10.94491383164597"><ele>524.3333333333334</ele><time>2026-04-18T10:21:55Z</time></trkpt><trkpt lat="43.43434314117234" lon="10.94492500795846"><ele>526.1666666666666</ele><time>2026-04-18T10:21:56Z</time></trkpt><trkpt lat="43.434402027134674" lon="10.944960597341053"><ele>528.0</ele><time>2026-04-18T10:21:57Z</time></trkpt><trkpt lat="43.43446479543013" lon="10.944948860645399"><ele>528.0</ele><time>2026-04-18T10:21:58Z</time></trkpt><trkpt lat="43.434585297298625" lon="10.944973192418212"><ele>528.0</ele><time>2026-04-18T10:22:00Z</time></trkpt><trkpt lat="43.43469991597867" lon="10.945013118086575"><ele>528.0</ele><time>2026-04-18T10:22:02Z</time></trkpt><trkpt lat="43.43478918738269" lon="10.945109302793268"><ele>528.0</ele><time>2026-04-18T10:22:04Z</time></trkpt><trkpt lat="43.43480955112423" lon="10.945219374940216"><ele>528.0</ele><time>2026-04-18T10:22:06Z</time></trkpt><trkpt lat="43.4348467248798" lon="10.945334076397033"><ele>531.0</ele><time>2026-04-18T10:22:08Z</time></trkpt><trkpt lat="43.43489721152312" lon="10.945462422231731"><ele>534.0</ele><time>2026-04-18T10:22:10Z</time></trkpt><trkpt lat="43.43493753329726" lon="10.945596277876092"><ele>537.0</ele><time>2026-04-18T10:22:12Z</time></trkpt><trkpt lat="43.43501745073273" lon="10.945684282156984"><ele>540.0</ele><time>2026-04-18T10:22:14Z</time></trkpt><trkpt lat="43.435098973920866" lon="10.945791188811016"><ele>543.0</ele><time>2026-04-18T10:22:16Z</time></trkpt><trkpt lat="43.435183300699364" lon="10.945891978299505"><ele>544.3333333333334</ele><time>2026-04-18T10:22:18Z</time></trkpt><trkpt lat="43.43527520016528" lon="10.945968308107089"><ele>545.6666666666666</ele><time>2026-04-18T10:22:20.001Z</time></trkpt><trkpt lat="43.43532524680339" lon="10.94609360466419"><ele>547.0</ele><time>2026-04-18T10:22:22.001Z</time></trkpt><trkpt lat="43.435400359330785" lon="10.94614137016385"><ele>548.3333333333333</ele><time>2026-04-18T10:22:24.001Z</time></trkpt><trkpt lat="43.43545955731604" lon="10.9461990219549"><ele>549.6666666666666</ele><time>2026-04-18T10:22:26.001Z</time></trkpt><trkpt lat="43.43552492209028" lon="10.946262679574426"><ele>551.0</ele><time>2026-04-18T10:22:28.001Z</time></trkpt><trkpt lat="43.43559691601296" lon="10.94633941461503"><ele>551.0</ele><time>2026-04-18T10:22:30.001Z</time></trkpt><trkpt lat="43.435700747358716" lon="10.94640322077375"><ele>551.0</ele><time>2026-04-18T10:22:32.001Z</time></trkpt><trkpt lat="43.43574935964933" lon="10.946458882258634"><ele>551.0</ele><time>2026-04-18T10:22:33.001Z</time></trkpt><trkpt lat="43.43580284509441" lon="10.946510980608053"><ele>551.0</ele><time>2026-04-18T10:22:34.001Z</time></trkpt><trkpt lat="43.43591183744706" lon="10.946601855246731"><ele>551.0</ele><time>2026-04-18T10:22:36.001Z</time></trkpt><trkpt lat="43.435958332196" lon="10.946670611303533"><ele>551.0</ele><time>2026-04-18T10:22:37.001Z</time></trkpt><trkpt lat="43.43600051327036" lon="10.94674230298906"><ele>554.2</ele><time>2026-04-18T10:22:38.001Z</time></trkpt><trkpt lat="43.43604906223831" lon="10.94682200660227"><ele>557.4000000000001</ele><time>2026-04-18T10:22:39.001Z</time></trkpt><trkpt lat="43.43608666747426" lon="10.946896020005578"><ele>560.6</ele><time>2026-04-18T10:22:40.001Z</time></trkpt><trkpt lat="43.436147430000126" lon="10.947053637045313"><ele>563.8000000000001</ele><time>2026-04-18T10:22:42.001Z</time></trkpt><trkpt lat="43.436224528353804" lon="10.947202800577347"><ele>567.0</ele><time>2026-04-18T10:22:44.001Z</time></trkpt><trkpt lat="43.436247207487504" lon="10.947287155181844"><ele>567.0</ele><time>2026-04-18T10:22:45.001Z</time></trkpt><trkpt lat="43.43625424821719" lon="10.947434701460722"><ele>567.0</ele><time>2026-04-18T10:22:47.001Z</time></trkpt><trkpt lat="43.436204931267035" lon="10.947580674806124"><ele>567.0</ele><time>2026-04-18T10:22:50.001Z</time></trkpt><trkpt lat="43.436181999331794" lon="10.947726245066638"><ele>567.0</ele><time>2026-04-18T10:22:52.001Z</time></trkpt><trkpt lat="43.43614523289619" lon="10.94787883017398"><ele>567.0</ele><time>2026-04-18T10:22:54.001Z</time></trkpt><trkpt lat="43.43614362046077" lon="10.947965815002211"><ele>566.8000000000001</ele><time>2026-04-18T10:22:55.001Z</time></trkpt><trkpt lat="43.43614386103021" lon="10.94811746900043"><ele>566.6</ele><time>2026-04-18T10:22:57.001Z</time></trkpt><trkpt lat="43.43614792868063" lon="10.948276077629963"><ele>566.4000000000001</ele><time>2026-04-18T10:22:59.001Z</time></trkpt><trkpt lat="43.43617734437386" lon="10.94843962797256"><ele>566.2</ele><time>2026-04-18T10:23:01.001Z</time></trkpt><trkpt lat="43.43621096405112" lon="10.948522239321054"><ele>566.0</ele><time>2026-04-18T10:23:02.001Z</time></trkpt><trkpt lat="43.436225197376636" lon="10.948619946245438"><ele>565.2857142857143</ele><time>2026-04-18T10:23:03.001Z</time></trkpt><trkpt lat="43.436263950064905" lon="10.94870664942879"><ele>564.5714285714287</ele><time>2026-04-18T10:23:04.001Z</time></trkpt><trkpt lat="43.43629807657738" lon="10.94880015952729"><ele>563.8571428571429</ele><time>2026-04-18T10:23:05.001Z</time></trkpt><trkpt lat="43.43633135671465" lon="10.948877116004063"><ele>563.1428571428571</ele><time>2026-04-18T10:23:06.001Z</time></trkpt><trkpt lat="43.43636395904698" lon="10.948952503046929"><ele>562.4285714285713</ele><time>2026-04-18T10:23:07.001Z</time></trkpt><trkpt lat="43.43639752870944" lon="10.949030126419386"><ele>561.7142857142857</ele><time>2026-04-18T10:23:08.001Z</time></trkpt><trkpt lat="43.436448041163864" lon="10.949146926982698"><ele>561.0</ele><time>2026-04-18T10:23:10.001Z</time></trkpt><trkpt lat="43.43649333597963" lon="10.949296150886163"><ele>560.8333333333334</ele><time>2026-04-18T10:23:12.001Z</time></trkpt><trkpt lat="43.43657596962831" lon="10.949385936611039"><ele>560.6666666666666</ele><time>2026-04-18T10:23:14.001Z</time></trkpt><trkpt lat="43.43663392161194" lon="10.949467306088563"><ele>560.5</ele><time>2026-04-18T10:23:16.001Z</time></trkpt><trkpt lat="43.43669700340545" lon="10.949512138696106"><ele>560.3333333333333</ele><time>2026-04-18T10:24:53.001Z</time></trkpt><trkpt lat="43.43677369357908" lon="10.94958798368167"><ele>560.1666666666666</ele><time>2026-04-18T10:24:56.001Z</time></trkpt><trkpt lat="43.43685449662817" lon="10.949648276786993"><ele>560.0</ele><time>2026-04-18T10:24:58.001Z</time></trkpt><trkpt lat="43.436957467525644" lon="10.949672874453054"><ele>560.0</ele><time>2026-04-18T10:25:00.001Z</time></trkpt><trkpt lat="43.43706941129668" lon="10.949708563780845"><ele>560.0</ele><time>2026-04-18T10:25:02.001Z</time></trkpt><trkpt lat="43.43713485164592" lon="10.949721735505328"><ele>560.0</ele><time>2026-04-18T10:25:03.001Z</time></trkpt><trkpt lat="43.4372104303084" lon="10.949751798839245"><ele>560.0</ele><time>2026-04-18T10:25:04.001Z</time></trkpt><trkpt lat="43.437287091466054" lon="10.949757516183231"><ele>560.0</ele><time>2026-04-18T10:25:05.001Z</time></trkpt><trkpt lat="43.437363731145666" lon="10.949773265515464"><ele>560.0</ele><time>2026-04-18T10:25:06.001Z</time></trkpt><trkpt lat="43.4374499717861" lon="10.949793094081542"><ele>560.2</ele><time>2026-04-18T10:25:07.001Z</time></trkpt><trkpt lat="43.43753379174019" lon="10.94981513772294"><ele>560.4</ele><time>2026-04-18T10:25:08.001Z</time></trkpt><trkpt lat="43.43762308614328" lon="10.949846231972263"><ele>560.6</ele><time>2026-04-18T10:25:09.001Z</time></trkpt><trkpt lat="43.43770716596225" lon="10.94988890985886"><ele>560.8</ele><time>2026-04-18T10:25:10.001Z</time></trkpt><trkpt lat="43.43778053044373" lon="10.94996955402555"><ele>561.0</ele><time>2026-04-18T10:25:11.001Z</time></trkpt><trkpt lat="43.43786391910196" lon="10.95004374400275"><ele>561.0</ele><time>2026-04-18T10:25:12.001Z</time></trkpt><trkpt lat="43.43794593039727" lon="10.950127739889421"><ele>561.0</ele><time>2026-04-18T10:25:13.001Z</time></trkpt><trkpt lat="43.4380316529423" lon="10.950214320109513"><ele>561.0</ele><time>2026-04-18T10:25:14.001Z</time></trkpt><trkpt lat="43.43812595120733" lon="10.950298543563779"><ele>561.0</ele><time>2026-04-18T10:25:15.001Z</time></trkpt><trkpt lat="43.43821660305697" lon="10.950393091968678"><ele>561.0</ele><time>2026-04-18T10:25:16.001Z</time></trkpt><trkpt lat="43.438309287689435" lon="10.95049207881842"><ele>561.25</ele><time>2026-04-18T10:25:17.001Z</time></trkpt><trkpt lat="43.438407403311096" lon="10.950590373104113"><ele>561.5</ele><time>2026-04-18T10:25:18.001Z</time></trkpt><trkpt lat="43.43850378065233" lon="10.950695763043669"><ele>561.75</ele><time>2026-04-18T10:25:19.001Z</time></trkpt><trkpt lat="43.438590278899326" lon="10.950815648064927"><ele>562.0</ele><time>2026-04-18T10:25:20.001Z</time></trkpt><trkpt lat="43.438694641591425" lon="10.9509045750658"><ele>562.0</ele><time>2026-04-18T10:25:21.001Z</time></trkpt><trkpt lat="43.43879494648123" lon="10.95100849473023"><ele>562.0</ele><time>2026-04-18T10:25:22.001Z</time></trkpt><trkpt lat="43.43889524097469" lon="10.951111838997615"><ele>562.0</ele><time>2026-04-18T10:25:23.001Z</time></trkpt><trkpt lat="43.438990806057525" lon="10.951221704394204"><ele>562.0</ele><time>2026-04-18T10:25:24.001Z</time></trkpt><trkpt lat="43.43909537862939" lon="10.951330091729194"><ele>563.5</ele><time>2026-04-18T10:25:25.001Z</time></trkpt><trkpt lat="43.439188042813974" lon="10.951433429776653"><ele>565.0</ele><time>2026-04-18T10:25:26.001Z</time></trkpt><trkpt lat="43.4392889811343" lon="10.951539337038446"><ele>566.5</ele><time>2026-04-18T10:25:27.001Z</time></trkpt><trkpt lat="43.43938670340029" lon="10.951641760762358"><ele>568.0</ele><time>2026-04-18T10:25:28.001Z</time></trkpt><trkpt lat="43.43948603390878" lon="10.951747605254624"><ele>568.0</ele><time>2026-04-18T10:25:29.001Z</time></trkpt><trkpt lat="43.43958566298884" lon="10.95184531647409"><ele>568.0</ele><time>2026-04-18T10:25:30.001Z</time></trkpt><trkpt lat="43.43968040535971" lon="10.951943998103127"><ele>568.0</ele><time>2026-04-18T10:25:31.001Z</time></trkpt><trkpt lat="43.43977320466993" lon="10.952041929036087"><ele>568.0</ele><time>2026-04-18T10:25:32.001Z</time></trkpt><trkpt lat="43.43986354473053" lon="10.952137546507293"><ele>570.4</ele><time>2026-04-18T10:25:33.001Z</time></trkpt><trkpt lat="43.43995104193873" lon="10.952229971793718"><ele>572.8</ele><time>2026-04-18T10:25:34.001Z</time></trkpt><trkpt lat="43.44004016548711" lon="10.952324417043638"><ele>575.2</ele><time>2026-04-18T10:25:35.001Z</time></trkpt><trkpt lat="43.44012449388788" lon="10.952410122630994"><ele>577.6</ele><time>2026-04-18T10:25:36.001Z</time></trkpt><trkpt lat="43.44020940503651" lon="10.952505007966788"><ele>580.0</ele><time>2026-04-18T10:25:37.001Z</time></trkpt><trkpt lat="43.44029013420597" lon="10.95259537592"><ele>580.0</ele><time>2026-04-18T10:25:38.001Z</time></trkpt><trkpt lat="43.44037363856914" lon="10.95268926876326"><ele>580.0</ele><time>2026-04-18T10:25:39.001Z</time></trkpt><trkpt lat="43.44045261385459" lon="10.952782496077528"><ele>580.0</ele><time>2026-04-18T10:25:40.001Z</time></trkpt><trkpt lat="43.4405350495271" lon="10.952876723449979"><ele>580.0</ele><time>2026-04-18T10:25:41.001Z</time></trkpt><trkpt lat="43.440628856169745" lon="10.952957805405024"><ele>580.0</ele><time>2026-04-18T10:25:42.001Z</time></trkpt><trkpt lat="43.440720537704415" lon="10.953029618301741"><ele>582.0</ele><time>2026-04-18T10:25:43.001Z</time></trkpt><trkpt lat="43.4408036127895" lon="10.953093554910057"><ele>584.0</ele><time>2026-04-18T10:25:44.001Z</time></trkpt><trkpt lat="43.440879781130946" lon="10.953148037865503"><ele>586.0</ele><time>2026-04-18T10:25:45.001Z</time></trkpt><trkpt lat="43.440959683490306" lon="10.953174174604191"><ele>588.0</ele><time>2026-04-18T10:25:46.002Z</time></trkpt><trkpt lat="43.441041873967286" lon="10.95317614629028"><ele>590.0</ele><time>2026-04-18T10:25:47.002Z</time></trkpt><trkpt lat="43.44110876614524" lon="10.953142293709046"><ele>592.0</ele><time>2026-04-18T10:25:48.002Z</time></trkpt><trkpt lat="43.44117210921432" lon="10.953078385542932"><ele>592.0</ele><time>2026-04-18T10:25:49.002Z</time></trkpt><trkpt lat="43.44121518984813" lon="10.952974114101753"><ele>592.0</ele><time>2026-04-18T10:25:50.002Z</time></trkpt><trkpt lat="43.44123187764932" lon="10.952842793522931"><ele>592.0</ele><time>2026-04-18T10:25:51.002Z</time></trkpt><trkpt lat="43.44124343931901" lon="10.952718784670594"><ele>592.0</ele><time>2026-04-18T10:25:52.002Z</time></trkpt><trkpt lat="43.441255110976" lon="10.95260890913549"><ele>592.0</ele><time>2026-04-18T10:25:53.002Z</time></trkpt><trkpt lat="43.441285870232655" lon="10.952518000009535"><ele>592.0</ele><time>2026-04-18T10:25:54.002Z</time></trkpt><trkpt lat="43.4413336277831" lon="10.952415315159485"><ele>593.5</ele><time>2026-04-18T10:25:55.002Z</time></trkpt><trkpt lat="43.44140203526995" lon="10.95243254738856"><ele>595.0</ele><time>2026-04-18T10:25:56.002Z</time></trkpt><trkpt lat="43.44147265743371" lon="10.952431650003025"><ele>596.5</ele><time>2026-04-18T10:25:57.002Z</time></trkpt><trkpt lat="43.44154102087019" lon="10.952443724726619"><ele>598.0</ele><time>2026-04-18T10:25:58.002Z</time></trkpt><trkpt lat="43.44164408676308" lon="10.95248683983997"><ele>599.5</ele><time>2026-04-18T10:26:00.002Z</time></trkpt><trkpt lat="43.441702439678025" lon="10.952528528627882"><ele>601.0</ele><time>2026-04-18T10:26:02.001Z</time></trkpt><trkpt lat="43.441667976886166" lon="10.952693737130232"><ele>601.6</ele><time>2026-04-18T10:26:06.001Z</time></trkpt><trkpt lat="43.44164429319827" lon="10.95285991138372"><ele>602.2</ele><time>2026-04-18T10:26:08.001Z</time></trkpt><trkpt lat="43.44164216840541" lon="10.95296398097457"><ele>602.8</ele><time>2026-04-18T10:26:09.001Z</time></trkpt><trkpt lat="43.44165125223961" lon="10.953081598267996"><ele>603.4</ele><time>2026-04-18T10:26:10.001Z</time></trkpt><trkpt lat="43.44166037101606" lon="10.953207106969893"><ele>604.0</ele><time>2026-04-18T10:26:11.001Z</time></trkpt><trkpt lat="43.441670728294916" lon="10.953343634933791"><ele>604.0</ele><time>2026-04-18T10:26:12.001Z</time></trkpt><trkpt lat="43.441679570874506" lon="10.95348536286148"><ele>604.0</ele><time>2026-04-18T10:26:13.001Z</time></trkpt><trkpt lat="43.44168868723682" lon="10.953639518654729"><ele>604.0</ele><time>2026-04-18T10:26:14.001Z</time></trkpt><trkpt lat="43.44169791034492" lon="10.95379547939652"><ele>604.0</ele><time>2026-04-18T10:26:15.001Z</time></trkpt><trkpt lat="43.44170798057095" lon="10.953965764601673"><ele>604.0</ele><time>2026-04-18T10:26:16.001Z</time></trkpt><trkpt lat="43.44171592309052" lon="10.954138868697067"><ele>604.0</ele><time>2026-04-18T10:26:17.001Z</time></trkpt><trkpt lat="43.44172933877167" lon="10.954316467910939"><ele>604.0</ele><time>2026-04-18T10:26:18.001Z</time></trkpt><trkpt lat="43.441691424366184" lon="10.95449272877084"><ele>604.0</ele><time>2026-04-18T10:26:19.001Z</time></trkpt><trkpt lat="43.44166564773322" lon="10.954673747484561"><ele>603.75</ele><time>2026-04-18T10:26:20.001Z</time></trkpt><trkpt lat="43.441637344884185" lon="10.954854090768677"><ele>603.5</ele><time>2026-04-18T10:26:21.001Z</time></trkpt><trkpt lat="43.44161629050895" lon="10.955043887397874"><ele>603.25</ele><time>2026-04-18T10:26:22.001Z</time></trkpt><trkpt lat="43.441578723253144" lon="10.95522546592565"><ele>603.0</ele><time>2026-04-18T10:26:23.001Z</time></trkpt><trkpt lat="43.44154092268591" lon="10.955402241104732"><ele>602.5</ele><time>2026-04-18T10:26:24.001Z</time></trkpt><trkpt lat="43.44150036500093" lon="10.955568703788899"><ele>602.0</ele><time>2026-04-18T10:26:25.001Z</time></trkpt><trkpt lat="43.44145194697418" lon="10.95573453185352"><ele>601.5</ele><time>2026-04-18T10:26:26.001Z</time></trkpt><trkpt lat="43.44139038662571" lon="10.955898981769538"><ele>601.0</ele><time>2026-04-18T10:26:27.001Z</time></trkpt><trkpt lat="43.441319745501715" lon="10.956063116834025"><ele>600.5</ele><time>2026-04-18T10:26:28.001Z</time></trkpt><trkpt lat="43.44123713346851" lon="10.956223161393554"><ele>600.0</ele><time>2026-04-18T10:26:29.001Z</time></trkpt><trkpt lat="43.44114713383079" lon="10.956375896569696"><ele>599.5</ele><time>2026-04-18T10:26:30.001Z</time></trkpt><trkpt lat="43.44105119499403" lon="10.956523792774304"><ele>599.0</ele><time>2026-04-18T10:26:31.001Z</time></trkpt><trkpt lat="43.44095569486018" lon="10.956673493126607"><ele>599.75</ele><time>2026-04-18T10:26:32.001Z</time></trkpt><trkpt lat="43.44085850614966" lon="10.956821940312947"><ele>600.5</ele><time>2026-04-18T10:26:33.001Z</time></trkpt><trkpt lat="43.440765566033875" lon="10.95697096293509"><ele>601.25</ele><time>2026-04-18T10:26:34.001Z</time></trkpt><trkpt lat="43.44067229775229" lon="10.957115972179134"><ele>602.0</ele><time>2026-04-18T10:26:35.001Z</time></trkpt><trkpt lat="43.44057777360198" lon="10.957264761441502"><ele>602.0</ele><time>2026-04-18T10:26:36.001Z</time></trkpt><trkpt lat="43.440480120699284" lon="10.957412305849202"><ele>602.0</ele><time>2026-04-18T10:26:37.001Z</time></trkpt><trkpt lat="43.440386323058334" lon="10.957559193587356"><ele>602.0</ele><time>2026-04-18T10:26:38.001Z</time></trkpt><trkpt lat="43.44029382411419" lon="10.957710701475127"><ele>602.0</ele><time>2026-04-18T10:26:39.001Z</time></trkpt><trkpt lat="43.44020215865732" lon="10.957865033393222"><ele>601.0</ele><time>2026-04-18T10:26:40.001Z</time></trkpt><trkpt lat="43.44010938560028" lon="10.958021340721205"><ele>600.0</ele><time>2026-04-18T10:26:41.001Z</time></trkpt><trkpt lat="43.44000189155804" lon="10.958163784543816"><ele>599.0</ele><time>2026-04-18T10:26:42.001Z</time></trkpt><trkpt lat="43.43990788704697" lon="10.958326793687693"><ele>598.0</ele><time>2026-04-18T10:26:43.001Z</time></trkpt><trkpt lat="43.43981575146015" lon="10.958488278514915"><ele>596.0</ele><time>2026-04-18T10:26:44.001Z</time></trkpt><trkpt lat="43.43970623119989" lon="10.958648502974693"><ele>594.0</ele><time>2026-04-18T10:26:45.001Z</time></trkpt><trkpt lat="43.43961498811134" lon="10.958817278882067"><ele>592.0</ele><time>2026-04-18T10:26:46.001Z</time></trkpt><trkpt lat="43.43951724446414" lon="10.958985329817517"><ele>591.6666666666667</ele><time>2026-04-18T10:26:47.001Z</time></trkpt><trkpt lat="43.43942058204692" lon="10.9591561235939"><ele>591.3333333333334</ele><time>2026-04-18T10:26:48.001Z</time></trkpt><trkpt lat="43.43932187110703" lon="10.959320935966232"><ele>591.0</ele><time>2026-04-18T10:26:49.001Z</time></trkpt><trkpt lat="43.43922169404098" lon="10.959481669191508"><ele>590.6666666666666</ele><time>2026-04-18T10:26:50.001Z</time></trkpt><trkpt lat="43.439117389884494" lon="10.959635357644824"><ele>590.3333333333333</ele><time>2026-04-18T10:26:51.001Z</time></trkpt><trkpt lat="43.43900151282688" lon="10.959775980509272"><ele>590.0</ele><time>2026-04-18T10:26:52.001Z</time></trkpt><trkpt lat="43.438873590754945" lon="10.95990459069477"><ele>590.0</ele><time>2026-04-18T10:26:53.001Z</time></trkpt><trkpt lat="43.438738858090694" lon="10.960019548658726"><ele>590.0</ele><time>2026-04-18T10:26:54.001Z</time></trkpt><trkpt lat="43.43860675076394" lon="10.96013508972652"><ele>590.0</ele><time>2026-04-18T10:26:55.001Z</time></trkpt><trkpt lat="43.438475759061745" lon="10.960248164967641"><ele>590.25</ele><time>2026-04-18T10:26:56.001Z</time></trkpt><trkpt lat="43.43834518690174" lon="10.960355740973116"><ele>590.5</ele><time>2026-04-18T10:26:57.001Z</time></trkpt><trkpt lat="43.43822186462007" lon="10.96045617658947"><ele>590.75</ele><time>2026-04-18T10:26:58.001Z</time></trkpt><trkpt lat="43.438090266153786" lon="10.960557647016312"><ele>591.0</ele><time>2026-04-18T10:26:59.001Z</time></trkpt><trkpt lat="43.43796593298495" lon="10.960653607107878"><ele>590.5</ele><time>2026-04-18T10:27:00.001Z</time></trkpt><trkpt lat="43.437840442640585" lon="10.96074112791212"><ele>590.0</ele><time>2026-04-18T10:27:01.001Z</time></trkpt><trkpt lat="43.43771492289399" lon="10.960825419963207"><ele>589.5</ele><time>2026-04-18T10:27:02.001Z</time></trkpt><trkpt lat="43.437587934291685" lon="10.96090088745295"><ele>589.0</ele><time>2026-04-18T10:27:03.001Z</time></trkpt><trkpt lat="43.437461682095915" lon="10.96097132290267"><ele>590.0</ele><time>2026-04-18T10:27:04.001Z</time></trkpt><trkpt lat="43.4373385485264" lon="10.961045785690294"><ele>591.0</ele><time>2026-04-18T10:27:05.001Z</time></trkpt><trkpt lat="43.43722373753644" lon="10.961140350507451"><ele>592.0</ele><time>2026-04-18T10:27:06.001Z</time></trkpt><trkpt lat="43.43711886395817" lon="10.961255300382735"><ele>593.0</ele><time>2026-04-18T10:27:07.001Z</time></trkpt><trkpt lat="43.43703421759097" lon="10.961391709146655"><ele>591.25</ele><time>2026-04-18T10:27:08.001Z</time></trkpt><trkpt lat="43.436955845626045" lon="10.961545639056183"><ele>589.5</ele><time>2026-04-18T10:27:09.001Z</time></trkpt><trkpt lat="43.43690403529072" lon="10.961716789652053"><ele>587.75</ele><time>2026-04-18T10:27:10.001Z</time></trkpt><trkpt lat="43.43686489035" lon="10.96189786756647"><ele>586.0</ele><time>2026-04-18T10:27:11.001Z</time></trkpt><trkpt lat="43.43683227706448" lon="10.962084250510927"><ele>586.0</ele><time>2026-04-18T10:27:12.001Z</time></trkpt><trkpt lat="43.43680558500829" lon="10.962257603111071"><ele>586.0</ele><time>2026-04-18T10:27:13.001Z</time></trkpt><trkpt lat="43.43675860079178" lon="10.962449303196081"><ele>586.0</ele><time>2026-04-18T10:27:14.001Z</time></trkpt><trkpt lat="43.43670503427714" lon="10.962622398921763"><ele>586.0</ele><time>2026-04-18T10:27:15.001Z</time></trkpt><trkpt lat="43.43662862278815" lon="10.962769908270896"><ele>586.25</ele><time>2026-04-18T10:27:16.001Z</time></trkpt><trkpt lat="43.436531419699456" lon="10.962885602075696"><ele>586.5</ele><time>2026-04-18T10:27:17.001Z</time></trkpt><trkpt lat="43.43643196491589" lon="10.962975514412342"><ele>586.75</ele><time>2026-04-18T10:27:18.001Z</time></trkpt><trkpt lat="43.43630446395816" lon="10.96308674218414"><ele>587.0</ele><time>2026-04-18T10:27:19.001Z</time></trkpt><trkpt lat="43.436217258101564" lon="10.963167764503401"><ele>586.75</ele><time>2026-04-18T10:27:20.001Z</time></trkpt><trkpt lat="43.43611957886832" lon="10.963279683228484"><ele>586.5</ele><time>2026-04-18T10:27:21.001Z</time></trkpt><trkpt lat="43.43603087812202" lon="10.96340599740851"><ele>586.25</ele><time>2026-04-18T10:27:22.001Z</time></trkpt><trkpt lat="43.43594605567574" lon="10.963543572575594"><ele>586.0</ele><time>2026-04-18T10:27:23.001Z</time></trkpt><trkpt lat="43.43586715385602" lon="10.963689187523345"><ele>586.0</ele><time>2026-04-18T10:27:24.001Z</time></trkpt><trkpt lat="43.43580049450769" lon="10.963828275393176"><ele>586.0</ele><time>2026-04-18T10:27:25.001Z</time></trkpt><trkpt lat="43.43573796845669" lon="10.963995341150634"><ele>586.0</ele><time>2026-04-18T10:27:26.001Z</time></trkpt><trkpt lat="43.43569825774601" lon="10.964163074412884"><ele>586.0</ele><time>2026-04-18T10:27:27.001Z</time></trkpt><trkpt lat="43.435650678425816" lon="10.96431426920085"><ele>585.0</ele><time>2026-04-18T10:27:28.001Z</time></trkpt><trkpt lat="43.435587060326206" lon="10.96447050281906"><ele>584.0</ele><time>2026-04-18T10:27:29.001Z</time></trkpt><trkpt lat="43.4355057488693" lon="10.964629622428047"><ele>583.0</ele><time>2026-04-18T10:27:30.001Z</time></trkpt><trkpt lat="43.43542131916551" lon="10.96477642195665"><ele>582.0</ele><time>2026-04-18T10:27:31.001Z</time></trkpt><trkpt lat="43.43533026646658" lon="10.964932386050602"><ele>580.5</ele><time>2026-04-18T10:27:32.001Z</time></trkpt><trkpt lat="43.43524534278311" lon="10.965095431529502"><ele>579.0</ele><time>2026-04-18T10:27:33.001Z</time></trkpt><trkpt lat="43.435167510326686" lon="10.965267788348356"><ele>577.5</ele><time>2026-04-18T10:27:34.001Z</time></trkpt><trkpt lat="43.43508646856267" lon="10.965451693594535"><ele>576.0</ele><time>2026-04-18T10:27:35.001Z</time></trkpt><trkpt lat="43.435010447835694" lon="10.965634853588002"><ele>576.0</ele><time>2026-04-18T10:27:36.001Z</time></trkpt><trkpt lat="43.434926485785645" lon="10.965810685085357"><ele>576.0</ele><time>2026-04-18T10:27:37.001Z</time></trkpt><trkpt lat="43.43481181905417" lon="10.965955539792194"><ele>576.0</ele><time>2026-04-18T10:27:38.001Z</time></trkpt><trkpt lat="43.43468800187635" lon="10.96608816343691"><ele>573.3333333333334</ele><time>2026-04-18T10:27:39.001Z</time></trkpt><trkpt lat="43.434566181128936" lon="10.96622778547916"><ele>570.6666666666667</ele><time>2026-04-18T10:27:40.001Z</time></trkpt><trkpt lat="43.43444952604549" lon="10.966384568037508"><ele>568.0</ele><time>2026-04-18T10:27:41.001Z</time></trkpt><trkpt lat="43.434355933361005" lon="10.966587384990603"><ele>566.3333333333334</ele><time>2026-04-18T10:27:42.001Z</time></trkpt><trkpt lat="43.43427223930906" lon="10.96678861117098"><ele>564.6666666666666</ele><time>2026-04-18T10:27:43.001Z</time></trkpt><trkpt lat="43.434155378900655" lon="10.966954764816967"><ele>563.0</ele><time>2026-04-18T10:27:44.001Z</time></trkpt><trkpt lat="43.4340126601868" lon="10.967066087595283"><ele>563.0</ele><time>2026-04-18T10:27:45.001Z</time></trkpt><trkpt lat="43.433865797118905" lon="10.967174876326801"><ele>563.0</ele><time>2026-04-18T10:27:46.002Z</time></trkpt><trkpt lat="43.433715996556835" lon="10.967276214898355"><ele>563.0</ele><time>2026-04-18T10:27:47.002Z</time></trkpt><trkpt lat="43.43357043364238" lon="10.967381274552546"><ele>562.3333333333333</ele><time>2026-04-18T10:27:48.002Z</time></trkpt><trkpt lat="43.4334243764559" lon="10.967489718982847"><ele>561.6666666666666</ele><time>2026-04-18T10:27:49.002Z</time></trkpt><trkpt lat="43.43328984287034" lon="10.967606872792608"><ele>561.0</ele><time>2026-04-18T10:27:50.002Z</time></trkpt><trkpt lat="43.433153111238354" lon="10.967690243071706"><ele>560.75</ele><time>2026-04-18T10:27:51.002Z</time></trkpt><trkpt lat="43.4330104842277" lon="10.967746539870856"><ele>560.5</ele><time>2026-04-18T10:27:52.002Z</time></trkpt><trkpt lat="43.43288372297656" lon="10.967808979152172"><ele>560.25</ele><time>2026-04-18T10:27:53.002Z</time></trkpt><trkpt lat="43.43277251864709" lon="10.967855720354812"><ele>560.0</ele><time>2026-04-18T10:27:54.002Z</time></trkpt><trkpt lat="43.43267049443873" lon="10.967890651709789"><ele>560.0</ele><time>2026-04-18T10:27:55.002Z</time></trkpt><trkpt lat="43.432570458774016" lon="10.967944272511145"><ele>560.0</ele><time>2026-04-18T10:27:56.002Z</time></trkpt><trkpt lat="43.43248196748935" lon="10.968049191101269"><ele>560.0</ele><time>2026-04-18T10:27:57.002Z</time></trkpt><trkpt lat="43.4323834425263" lon="10.96816725575979"><ele>560.0</ele><time>2026-04-18T10:27:58.002Z</time></trkpt><trkpt lat="43.43230933683112" lon="10.968289440940069"><ele>557.5</ele><time>2026-04-18T10:27:59.002Z</time></trkpt><trkpt lat="43.43222802566331" lon="10.968395572602622"><ele>555.0</ele><time>2026-04-18T10:28:00.002Z</time></trkpt><trkpt lat="43.43213579770215" lon="10.968490566514946"><ele>552.5</ele><time>2026-04-18T10:28:01.002Z</time></trkpt><trkpt lat="43.43202254407084" lon="10.968543349243047"><ele>550.0</ele><time>2026-04-18T10:28:02.002Z</time></trkpt><trkpt lat="43.43192136499705" lon="10.96850711743135"><ele>550.0</ele><time>2026-04-18T10:28:03.002Z</time></trkpt><trkpt lat="43.43181759761189" lon="10.968501606449545"><ele>550.0</ele><time>2026-04-18T10:28:04.002Z</time></trkpt><trkpt lat="43.43169737487957" lon="10.968478374926883"><ele>550.0</ele><time>2026-04-18T10:28:05.002Z</time></trkpt><trkpt lat="43.431578930871254" lon="10.968416825104905"><ele>550.0</ele><time>2026-04-18T10:28:06.002Z</time></trkpt><trkpt lat="43.43145232274663" lon="10.968370822563653"><ele>549.5</ele><time>2026-04-18T10:28:07Z</time></trkpt><trkpt lat="43.431319292178316" lon="10.968318172593563"><ele>549.0</ele><time>2026-04-18T10:28:08Z</time></trkpt><trkpt lat="43.43119777671725" lon="10.968237460420875"><ele>548.5</ele><time>2026-04-18T10:28:09Z</time></trkpt><trkpt lat="43.43108774206701" lon="10.968166385832198"><ele>548.0</ele><time>2026-04-18T10:28:10Z</time></trkpt><trkpt lat="43.43097519974878" lon="10.968101739706647"><ele>548.0</ele><time>2026-04-18T10:28:11Z</time></trkpt><trkpt lat="43.43084761403988" lon="10.968063375842519"><ele>548.0</ele><time>2026-04-18T10:28:12Z</time></trkpt><trkpt lat="43.43072602785768" lon="10.968063854627257"><ele>548.0</ele><time>2026-04-18T10:28:13Z</time></trkpt><trkpt lat="43.430611380936384" lon="10.968056558685788"><ele>548.0</ele><time>2026-04-18T10:28:14Z</time></trkpt><trkpt lat="43.430520716046836" lon="10.968105411111832"><ele>545.5</ele><time>2026-04-18T10:28:15Z</time></trkpt><trkpt lat="43.43041533758022" lon="10.968160690904686"><ele>543.0</ele><time>2026-04-18T10:28:16Z</time></trkpt><trkpt lat="43.430313499267314" lon="10.968250459871586"><ele>540.5</ele><time>2026-04-18T10:28:17Z</time></trkpt><trkpt lat="43.430216793486125" lon="10.96835493637524"><ele>538.0</ele><time>2026-04-18T10:28:18Z</time></trkpt><trkpt lat="43.43011065010776" lon="10.968459228371948"><ele>538.0</ele><time>2026-04-18T10:28:19Z</time></trkpt><trkpt lat="43.430009215455634" lon="10.9685735592694"><ele>538.0</ele><time>2026-04-18T10:28:20Z</time></trkpt><trkpt lat="43.42991030266885" lon="10.968691076462983"><ele>538.0</ele><time>2026-04-18T10:28:21Z</time></trkpt><trkpt lat="43.42980374605601" lon="10.968811356398625"><ele>538.0</ele><time>2026-04-18T10:28:22Z</time></trkpt><trkpt lat="43.42970363682136" lon="10.96893454373723"><ele>536.25</ele><time>2026-04-18T10:28:23Z</time></trkpt><trkpt lat="43.42962003969841" lon="10.969084208616195"><ele>534.5</ele><time>2026-04-18T10:28:24Z</time></trkpt><trkpt lat="43.42954123334308" lon="10.969242955997885"><ele>532.75</ele><time>2026-04-18T10:28:25Z</time></trkpt><trkpt lat="43.42946412199236" lon="10.969402568257593"><ele>531.0</ele><time>2026-04-18T10:28:26Z</time></trkpt><trkpt lat="43.42939292008994" lon="10.969564455301109"><ele>531.0</ele><time>2026-04-18T10:28:27Z</time></trkpt><trkpt lat="43.4293237117584" lon="10.969716045030827"><ele>531.0</ele><time>2026-04-18T10:28:28Z</time></trkpt><trkpt lat="43.429257096121766" lon="10.96985558569405"><ele>531.0</ele><time>2026-04-18T10:28:29Z</time></trkpt><trkpt lat="43.429199417134974" lon="10.969978599944653"><ele>531.0</ele><time>2026-04-18T10:28:30Z</time></trkpt><trkpt lat="43.429108094661835" lon="10.97009468554834"><ele>531.25</ele><time>2026-04-18T10:28:31Z</time></trkpt><trkpt lat="43.42901060563606" lon="10.970177044926611"><ele>531.5</ele><time>2026-04-18T10:28:32Z</time></trkpt><trkpt lat="43.42889400445477" lon="10.97022625179481"><ele>531.75</ele><time>2026-04-18T10:28:33Z</time></trkpt><trkpt lat="43.42877075699304" lon="10.970258630344997"><ele>532.0</ele><time>2026-04-18T10:28:34Z</time></trkpt><trkpt lat="43.42863962233634" lon="10.97028256739664"><ele>530.75</ele><time>2026-04-18T10:28:35Z</time></trkpt><trkpt lat="43.428504175571675" lon="10.970309554412792"><ele>529.5</ele><time>2026-04-18T10:28:36Z</time></trkpt><trkpt lat="43.42838857016692" lon="10.970330236708214"><ele>528.25</ele><time>2026-04-18T10:28:37Z</time></trkpt><trkpt lat="43.428284181848696" lon="10.970351435283055"><ele>527.0</ele><time>2026-04-18T10:28:38Z</time></trkpt><trkpt lat="43.428197443504146" lon="10.970387607449565"><ele>527.0</ele><time>2026-04-18T10:28:39Z</time></trkpt><trkpt lat="43.4281276630614" lon="10.970447641764103"><ele>527.0</ele><time>2026-04-18T10:28:40Z</time></trkpt><trkpt lat="43.428067416136706" lon="10.970564543067793"><ele>527.0</ele><time>2026-04-18T10:28:41Z</time></trkpt><trkpt lat="43.428049557486744" lon="10.9706694474261"><ele>527.0</ele><time>2026-04-18T10:28:42Z</time></trkpt><trkpt lat="43.428044983539436" lon="10.970841398487215"><ele>527.0</ele><time>2026-04-18T10:28:43Z</time></trkpt><trkpt lat="43.428071213511934" lon="10.971007730454657"><ele>526.25</ele><time>2026-04-18T10:28:44Z</time></trkpt><trkpt lat="43.428080091616366" lon="10.971152929050563"><ele>525.5</ele><time>2026-04-18T10:28:45Z</time></trkpt><trkpt lat="43.428088522853244" lon="10.971315669951348"><ele>524.75</ele><time>2026-04-18T10:28:46Z</time></trkpt><trkpt lat="43.42807647391786" lon="10.971498660117728"><ele>524.0</ele><time>2026-04-18T10:28:47Z</time></trkpt><trkpt lat="43.42805882671652" lon="10.971666216626893"><ele>523.75</ele><time>2026-04-18T10:28:48Z</time></trkpt><trkpt lat="43.427986137546654" lon="10.9718274528325"><ele>523.5</ele><time>2026-04-18T10:28:49Z</time></trkpt><trkpt lat="43.427896269515564" lon="10.971999457541397"><ele>523.25</ele><time>2026-04-18T10:28:50Z</time></trkpt><trkpt lat="43.42780723165477" lon="10.972172045105156"><ele>523.0</ele><time>2026-04-18T10:28:51Z</time></trkpt><trkpt lat="43.42770745499886" lon="10.972348149753097"><ele>519.6666666666667</ele><time>2026-04-18T10:28:52Z</time></trkpt><trkpt lat="43.42760308294342" lon="10.972504587268947"><ele>516.3333333333334</ele><time>2026-04-18T10:28:53Z</time></trkpt><trkpt lat="43.42748926573591" lon="10.972669329663406"><ele>513.0</ele><time>2026-04-18T10:28:54Z</time></trkpt><trkpt lat="43.4273680883773" lon="10.972841984851014"><ele>512.6666666666666</ele><time>2026-04-18T10:28:55Z</time></trkpt><trkpt lat="43.427249209874596" lon="10.973001712208706"><ele>512.3333333333333</ele><time>2026-04-18T10:28:56Z</time></trkpt><trkpt lat="43.42712587738782" lon="10.973163100776"><ele>512.0</ele><time>2026-04-18T10:28:57Z</time></trkpt><trkpt lat="43.42700277332311" lon="10.9733174385602"><ele>511.3333333333333</ele><time>2026-04-18T10:28:58Z</time></trkpt><trkpt lat="43.42687992548327" lon="10.973466011039996"><ele>510.66666666666663</ele><time>2026-04-18T10:28:59Z</time></trkpt><trkpt lat="43.426749930392006" lon="10.973586322836809"><ele>510.0</ele><time>2026-04-18T10:29:00Z</time></trkpt><trkpt lat="43.42660511011047" lon="10.973646939917453"><ele>510.0</ele><time>2026-04-18T10:29:01Z</time></trkpt><trkpt lat="43.42645647730997" lon="10.973715201401163"><ele>510.0</ele><time>2026-04-18T10:29:02.001Z</time></trkpt><trkpt lat="43.426310033298805" lon="10.973755001499434"><ele>510.0</ele><time>2026-04-18T10:29:03.001Z</time></trkpt><trkpt lat="43.42617414019299" lon="10.973765483720838"><ele>510.0</ele><time>2026-04-18T10:29:04.001Z</time></trkpt><trkpt lat="43.42605066889583" lon="10.973745404746921"><ele>509.5</ele><time>2026-04-18T10:29:05.001Z</time></trkpt><trkpt lat="43.42593839360051" lon="10.973668178400345"><ele>509.0</ele><time>2026-04-18T10:29:06.001Z</time></trkpt><trkpt lat="43.42584237882742" lon="10.973548988243095"><ele>508.5</ele><time>2026-04-18T10:29:07.001Z</time></trkpt><trkpt lat="43.425761686297285" lon="10.973430640805638"><ele>508.0</ele><time>2026-04-18T10:29:08.001Z</time></trkpt><trkpt lat="43.42567358610845" lon="10.973347964145375"><ele>507.59999999999997</ele><time>2026-04-18T10:29:09.001Z</time></trkpt><trkpt lat="43.42557182771101" lon="10.973286748483062"><ele>507.19999999999993</ele><time>2026-04-18T10:29:10.001Z</time></trkpt><trkpt lat="43.42545635300398" lon="10.973258446477379"><ele>506.8</ele><time>2026-04-18T10:29:11.001Z</time></trkpt><trkpt lat="43.425350583540705" lon="10.973258729204925"><ele>506.4</ele><time>2026-04-18T10:29:12.001Z</time></trkpt><trkpt lat="43.4252541188642" lon="10.973285244940241"><ele>506.0</ele><time>2026-04-18T10:29:13.001Z</time></trkpt><trkpt lat="43.42516877568695" lon="10.973356582171737"><ele>504.4</ele><time>2026-04-18T10:29:14.001Z</time></trkpt><trkpt lat="43.42509824592683" lon="10.973454421323288"><ele>502.8</ele><time>2026-04-18T10:29:15.001Z</time></trkpt><trkpt lat="43.42505682827289" lon="10.973588555407995"><ele>501.19999999999993</ele><time>2026-04-18T10:29:16.001Z</time></trkpt><trkpt lat="43.425045160854594" lon="10.973752505046697"><ele>499.59999999999997</ele><time>2026-04-18T10:29:17.001Z</time></trkpt><trkpt lat="43.42503750402379" lon="10.973917657090526"><ele>498.0</ele><time>2026-04-18T10:29:18.001Z</time></trkpt><trkpt lat="43.425023020194246" lon="10.974081733064962"><ele>497.0</ele><time>2026-04-18T10:29:19.001Z</time></trkpt><trkpt lat="43.424991120337296" lon="10.974248246129346"><ele>496.0</ele><time>2026-04-18T10:29:20.001Z</time></trkpt><trkpt lat="43.4249404327192" lon="10.974416692470946"><ele>495.0</ele><time>2026-04-18T10:29:21.001Z</time></trkpt><trkpt lat="43.424874805388" lon="10.974559480163245"><ele>494.0</ele><time>2026-04-18T10:29:22.001Z</time></trkpt><trkpt lat="43.42481337654174" lon="10.97472871788958"><ele>494.0</ele><time>2026-04-18T10:29:23.001Z</time></trkpt><trkpt lat="43.424745937184525" lon="10.974878830127397"><ele>494.0</ele><time>2026-04-18T10:29:24.001Z</time></trkpt><trkpt lat="43.42467734106428" lon="10.975011876602185"><ele>494.0</ele><time>2026-04-18T10:29:25.001Z</time></trkpt><trkpt lat="43.42460061404507" lon="10.975128273486057"><ele>494.0</ele><time>2026-04-18T10:29:26.001Z</time></trkpt><trkpt lat="43.42450989277585" lon="10.975242083629945"><ele>493.75</ele><time>2026-04-18T10:29:27.001Z</time></trkpt><trkpt lat="43.424393272817035" lon="10.975305136685103"><ele>493.5</ele><time>2026-04-18T10:29:28.001Z</time></trkpt><trkpt lat="43.424266138412094" lon="10.975337338691542"><ele>493.25</ele><time>2026-04-18T10:29:29.001Z</time></trkpt><trkpt lat="43.42413710347921" lon="10.975397248052726"><ele>493.0</ele><time>2026-04-18T10:29:30.001Z</time></trkpt><trkpt lat="43.4240111974091" lon="10.975478204448157"><ele>493.0</ele><time>2026-04-18T10:29:31.001Z</time></trkpt><trkpt lat="43.42387882712788" lon="10.975530461087224"><ele>493.0</ele><time>2026-04-18T10:29:32.001Z</time></trkpt><trkpt lat="43.42374922841683" lon="10.975594846994715"><ele>493.0</ele><time>2026-04-18T10:29:33.001Z</time></trkpt><trkpt lat="43.4236279607764" lon="10.975680164728642"><ele>493.0</ele><time>2026-04-18T10:29:34.001Z</time></trkpt><trkpt lat="43.42350979950429" lon="10.975765775982007"><ele>492.0</ele><time>2026-04-18T10:29:35.001Z</time></trkpt><trkpt lat="43.42339411118925" lon="10.97586928223092"><ele>491.0</ele><time>2026-04-18T10:29:36.001Z</time></trkpt><trkpt lat="43.42327338768518" lon="10.975968267093636"><ele>490.0</ele><time>2026-04-18T10:29:37.001Z</time></trkpt><trkpt lat="43.42315756693315" lon="10.976059335571959"><ele>489.0</ele><time>2026-04-18T10:29:38.001Z</time></trkpt><trkpt lat="43.42303693338109" lon="10.97613830674672"><ele>490.75</ele><time>2026-04-18T10:29:39.001Z</time></trkpt><trkpt lat="43.42291468145062" lon="10.976204298207657"><ele>492.5</ele><time>2026-04-18T10:29:40.001Z</time></trkpt><trkpt lat="43.42279462090352" lon="10.97625387270516"><ele>494.25</ele><time>2026-04-18T10:29:41.001Z</time></trkpt><trkpt lat="43.42267646495845" lon="10.976278625524953"><ele>496.0</ele><time>2026-04-18T10:29:42.001Z</time></trkpt><trkpt lat="43.42256213038472" lon="10.976280143033632"><ele>496.0</ele><time>2026-04-18T10:29:43.001Z</time></trkpt><trkpt lat="43.422447624510994" lon="10.97624969889685"><ele>496.0</ele><time>2026-04-18T10:29:44.001Z</time></trkpt><trkpt lat="43.42234500093855" lon="10.976183729912908"><ele>496.0</ele><time>2026-04-18T10:29:45.001Z</time></trkpt><trkpt lat="43.42225643463085" lon="10.976095263779298"><ele>496.0</ele><time>2026-04-18T10:29:46.001Z</time></trkpt><trkpt lat="43.42218614590445" lon="10.975997958907064"><ele>496.0</ele><time>2026-04-18T10:29:47.001Z</time></trkpt><trkpt lat="43.4221140465355" lon="10.975900452362751"><ele>498.20000000000005</ele><time>2026-04-18T10:29:48.001Z</time></trkpt><trkpt lat="43.422040971441255" lon="10.975821166430675"><ele>500.40000000000003</ele><time>2026-04-18T10:29:49.001Z</time></trkpt><trkpt lat="43.42195732463271" lon="10.975776347892147"><ele>502.6</ele><time>2026-04-18T10:29:50.001Z</time></trkpt><trkpt lat="43.42185671314343" lon="10.975754395893375"><ele>504.8</ele><time>2026-04-18T10:29:51.001Z</time></trkpt><trkpt lat="43.42175935773597" lon="10.975769255012125"><ele>507.0</ele><time>2026-04-18T10:29:52.001Z</time></trkpt><trkpt lat="43.421659366956746" lon="10.975801420617268"><ele>507.0</ele><time>2026-04-18T10:29:53.001Z</time></trkpt><trkpt lat="43.42155798006364" lon="10.975833342330882"><ele>507.00000000000006</ele><time>2026-04-18T10:29:54.001Z</time></trkpt><trkpt lat="43.42145662287509" lon="10.975862189224006"><ele>507.00000000000006</ele><time>2026-04-18T10:29:55.001Z</time></trkpt><trkpt lat="43.42135212450187" lon="10.975883020784755"><ele>507.0</ele><time>2026-04-18T10:29:56.001Z</time></trkpt><trkpt lat="43.42124239854598" lon="10.975896516408065"><ele>507.0</ele><time>2026-04-18T10:29:57.001Z</time></trkpt><trkpt lat="43.421131080377776" lon="10.97588648968895"><ele>508.25</ele><time>2026-04-18T10:29:58.001Z</time></trkpt><trkpt lat="43.42101790338181" lon="10.975856971810277"><ele>509.5</ele><time>2026-04-18T10:29:59.001Z</time></trkpt><trkpt lat="43.42090522326549" lon="10.975815965706504"><ele>510.75</ele><time>2026-04-18T10:30:00.001Z</time></trkpt><trkpt lat="43.42079820726488" lon="10.975781262250749"><ele>512.0</ele><time>2026-04-18T10:30:01.001Z</time></trkpt><trkpt lat="43.42069174442688" lon="10.975739226565018"><ele>512.0</ele><time>2026-04-18T10:30:02.001Z</time></trkpt><trkpt lat="43.42058254799538" lon="10.975718723038879"><ele>512.0</ele><time>2026-04-18T10:30:03.001Z</time></trkpt><trkpt lat="43.42046935633158" lon="10.97570916384847"><ele>512.0</ele><time>2026-04-18T10:30:04.001Z</time></trkpt><trkpt lat="43.42035132925784" lon="10.975713698148388"><ele>512.0</ele><time>2026-04-18T10:30:05.001Z</time></trkpt><trkpt lat="43.42023533942118" lon="10.975718100341593"><ele>513.25</ele><time>2026-04-18T10:30:06.001Z</time></trkpt><trkpt lat="43.42011696721949" lon="10.975734254186998"><ele>514.5</ele><time>2026-04-18T10:30:07.001Z</time></trkpt><trkpt lat="43.41999789471991" lon="10.975754793326894"><ele>515.75</ele><time>2026-04-18T10:30:08.001Z</time></trkpt><trkpt lat="43.41987208628161" lon="10.97579339055019"><ele>517.0</ele><time>2026-04-18T10:30:09.001Z</time></trkpt><trkpt lat="43.419746997854084" lon="10.975859683954894"><ele>517.5</ele><time>2026-04-18T10:30:10.001Z</time></trkpt><trkpt lat="43.41961766944137" lon="10.975922066430401"><ele>518.0</ele><time>2026-04-18T10:30:11.001Z</time></trkpt><trkpt lat="43.41948036401293" lon="10.975988208661684"><ele>518.5</ele><time>2026-04-18T10:30:12.001Z</time></trkpt><trkpt lat="43.41934627151168" lon="10.976063495243341"><ele>519.0</ele><time>2026-04-18T10:30:13Z</time></trkpt><trkpt lat="43.4192122958241" lon="10.97612921677752"><ele>519.0</ele><time>2026-04-18T10:30:14Z</time></trkpt><trkpt lat="43.419092262664286" lon="10.976192632469742"><ele>519.0</ele><time>2026-04-18T10:30:15Z</time></trkpt><trkpt lat="43.41898282324008" lon="10.97623568346101"><ele>519.0</ele><time>2026-04-18T10:30:16Z</time></trkpt><trkpt lat="43.41888449806088" lon="10.976267126188562"><ele>519.0</ele><time>2026-04-18T10:30:17Z</time></trkpt><trkpt lat="43.4188007723707" lon="10.976283404870385"><ele>519.0</ele><time>2026-04-18T10:30:18Z</time></trkpt><trkpt lat="43.41872255469494" lon="10.976261434743746"><ele>519.8333333333334</ele><time>2026-04-18T10:30:19Z</time></trkpt><trkpt lat="43.418655512604865" lon="10.976217888393712"><ele>520.6666666666666</ele><time>2026-04-18T10:30:20Z</time></trkpt><trkpt lat="43.41859953981138" lon="10.976157320727545"><ele>521.5</ele><time>2026-04-18T10:30:21Z</time></trkpt><trkpt lat="43.41852015544625" lon="10.976066767237118"><ele>522.3333333333333</ele><time>2026-04-18T10:30:23Z</time></trkpt><trkpt lat="43.418447777258436" lon="10.97603742778579"><ele>523.1666666666666</ele><time>2026-04-18T10:30:25Z</time></trkpt><trkpt lat="43.41836464801057" lon="10.97601226200144"><ele>524.0</ele><time>2026-04-18T10:30:28Z</time></trkpt><trkpt lat="43.418289336985104" lon="10.975995997436906"><ele>524.0</ele><time>2026-04-18T10:30:30Z</time></trkpt><trkpt lat="43.418183938071905" lon="10.9759965966607"><ele>524.0</ele><time>2026-04-18T10:30:32Z</time></trkpt><trkpt lat="43.41808643616281" lon="10.976008029552588"><ele>524.0</ele><time>2026-04-18T10:30:34Z</time></trkpt><trkpt lat="43.41796519075755" lon="10.976048684692215"><ele>524.0</ele><time>2026-04-18T10:30:36Z</time></trkpt><trkpt lat="43.417899034652194" lon="10.976063884993438"><ele>524.0</ele><time>2026-04-18T10:30:37Z</time></trkpt><trkpt lat="43.41783446924649" lon="10.976073025832052"><ele>524.5</ele><time>2026-04-18T10:30:38Z</time></trkpt><trkpt lat="43.41771141707579" lon="10.976084252867874"><ele>525.0</ele><time>2026-04-18T10:30:40Z</time></trkpt><trkpt lat="43.41759842195913" lon="10.976097362075372"><ele>525.5</ele><time>2026-04-18T10:30:42Z</time></trkpt><trkpt lat="43.417533210209385" lon="10.976105093843703"><ele>526.0</ele><time>2026-04-18T10:30:44Z</time></trkpt><trkpt lat="43.417602905947845" lon="10.976096494903954"><ele>526.5</ele><time>2026-04-18T10:31:03Z</time></trkpt><trkpt lat="43.41766607613938" lon="10.976089050035156"><ele>527.0</ele><time>2026-04-18T10:31:06Z</time></trkpt><trkpt lat="43.41773856394742" lon="10.976083751548066"><ele>527.0</ele><time>2026-04-18T10:31:08Z</time></trkpt><trkpt lat="43.41781302929846" lon="10.976076115548562"><ele>527.0</ele><time>2026-04-18T10:31:09Z</time></trkpt><trkpt lat="43.41791724457562" lon="10.976057276755927"><ele>527.0</ele><time>2026-04-18T10:31:11Z</time></trkpt><trkpt lat="43.41798459207126" lon="10.976038407357533"><ele>527.0</ele><time>2026-04-18T10:31:12Z</time></trkpt><trkpt lat="43.41806114750486" lon="10.976069586694386"><ele>527.0</ele><time>2026-04-18T10:31:13Z</time></trkpt><trkpt lat="43.41812733246477" lon="10.976042793065742"><ele>527.0</ele><time>2026-04-18T10:31:14Z</time></trkpt><trkpt lat="43.418198428085645" lon="10.976030177863263"><ele>526.5</ele><time>2026-04-18T10:31:15Z</time></trkpt><trkpt lat="43.41827155555468" lon="10.976027830431436"><ele>526.0</ele><time>2026-04-18T10:31:16Z</time></trkpt><trkpt lat="43.418344020443755" lon="10.976038911789955"><ele>525.5</ele><time>2026-04-18T10:31:17Z</time></trkpt><trkpt lat="43.418414791083855" lon="10.976062718649686"><ele>525.0</ele><time>2026-04-18T10:31:18Z</time></trkpt><trkpt lat="43.41847728109306" lon="10.97609206644901"><ele>524.5</ele><time>2026-04-18T10:31:19Z</time></trkpt><trkpt lat="43.41859874361188" lon="10.976192954625713"><ele>524.0</ele><time>2026-04-18T10:31:21Z</time></trkpt><trkpt lat="43.41865102773983" lon="10.976255488119484"><ele>524.0</ele><time>2026-04-18T10:31:22.001Z</time></trkpt><trkpt lat="43.41876155918822" lon="10.976329253249792"><ele>524.0</ele><time>2026-04-18T10:31:24.001Z</time></trkpt><trkpt lat="43.418866924776864" lon="10.976337406573462"><ele>524.0</ele><time>2026-04-18T10:31:26.001Z</time></trkpt><trkpt lat="43.41892828113976" lon="10.976283666549577"><ele>524.0</ele><time>2026-04-18T10:31:28.001Z</time></trkpt><trkpt lat="43.41900399940112" lon="10.976240387957542"><ele>524.0</ele><time>2026-04-18T10:31:31.001Z</time></trkpt><trkpt lat="43.41899129456026" lon="10.976154053849712"><ele>524.0</ele><time>2026-04-18T10:31:34.001Z</time></trkpt><trkpt lat="43.41892388254391" lon="10.97606858469757"><ele>524.0</ele><time>2026-04-18T10:31:37.001Z</time></trkpt><trkpt lat="43.41882962732122" lon="10.975969001288364"><ele>524.0</ele><time>2026-04-18T10:31:39.001Z</time></trkpt><trkpt lat="43.4187395666903" lon="10.97590568930291"><ele>524.0</ele><time>2026-04-18T10:31:41.001Z</time></trkpt><trkpt lat="43.41866581621488" lon="10.975857697076261"><ele>524.0</ele><time>2026-04-18T10:31:42.001Z</time></trkpt><trkpt lat="43.41859375616263" lon="10.97581080488372"><ele>524.0</ele><time>2026-04-18T10:31:43.001Z</time></trkpt><trkpt lat="43.418514095491176" lon="10.975797756359333"><ele>521.8333333333333</ele><time>2026-04-18T10:31:44.001Z</time></trkpt><trkpt lat="43.41844487768885" lon="10.975738647283839"><ele>519.6666666666666</ele><time>2026-04-18T10:31:45.001Z</time></trkpt><trkpt lat="43.41837705510821" lon="10.975678644538306"><ele>517.5</ele><time>2026-04-18T10:31:46.001Z</time></trkpt><trkpt lat="43.41831436810456" lon="10.975622180006148"><ele>515.3333333333334</ele><time>2026-04-18T10:31:47.001Z</time></trkpt><trkpt lat="43.418244544572715" lon="10.975580692606645"><ele>513.1666666666667</ele><time>2026-04-18T10:31:48.001Z</time></trkpt><trkpt lat="43.41817466872904" lon="10.975534374113995"><ele>511.0</ele><time>2026-04-18T10:31:49.001Z</time></trkpt><trkpt lat="43.41810621808293" lon="10.975507733015982"><ele>511.00000000000006</ele><time>2026-04-18T10:31:50.001Z</time></trkpt><trkpt lat="43.41804213950237" lon="10.975484693331541"><ele>511.0</ele><time>2026-04-18T10:31:51.001Z</time></trkpt><trkpt lat="43.417961650504594" lon="10.97548035108558"><ele>511.0</ele><time>2026-04-18T10:31:52.001Z</time></trkpt><trkpt lat="43.41788674892376" lon="10.97546657659292"><ele>511.0</ele><time>2026-04-18T10:31:53.001Z</time></trkpt><trkpt lat="43.41781043434061" lon="10.975433264178431"><ele>511.00000000000006</ele><time>2026-04-18T10:31:54.001Z</time></trkpt><trkpt lat="43.417726937748384" lon="10.975430258559047"><ele>511.0</ele><time>2026-04-18T10:31:55.001Z</time></trkpt><trkpt lat="43.41764719325003" lon="10.97545083256779"><ele>511.20000000000005</ele><time>2026-04-18T10:31:56.001Z</time></trkpt><trkpt lat="43.417579118426694" lon="10.975431982792122"><ele>511.40000000000003</ele><time>2026-04-18T10:31:57.001Z</time></trkpt><trkpt lat="43.417474676239046" lon="10.975421768315318"><ele>511.6</ele><time>2026-04-18T10:31:59.001Z</time></trkpt><trkpt lat="43.41738236469842" lon="10.975440542993741"><ele>511.8</ele><time>2026-04-18T10:32:01.001Z</time></trkpt><trkpt lat="43.41729881127461" lon="10.975420158022258"><ele>512.0</ele><time>2026-04-18T10:32:03.001Z</time></trkpt><trkpt lat="43.41732342322451" lon="10.975285858943831"><ele>512.0</ele><time>2026-04-18T10:32:10.001Z</time></trkpt><trkpt lat="43.41739010972547" lon="10.975204026115053"><ele>512.0</ele><time>2026-04-18T10:32:12.001Z</time></trkpt><trkpt lat="43.417438437205554" lon="10.975116131878725"><ele>512.0</ele><time>2026-04-18T10:32:14.001Z</time></trkpt><trkpt lat="43.417524589940506" lon="10.975035299530298"><ele>512.0</ele><time>2026-04-18T10:32:17.001Z</time></trkpt><trkpt lat="43.417610428135326" lon="10.974927891055213"><ele>512.0</ele><time>2026-04-18T10:32:18.999Z</time></trkpt><trkpt lat="43.41765749974885" lon="10.9748700643701"><ele>509.66666666666663</ele><time>2026-04-18T10:32:19.999Z</time></trkpt><trkpt lat="43.41769908606678" lon="10.974798917918447"><ele>507.3333333333333</ele><time>2026-04-18T10:32:20.999Z</time></trkpt><trkpt lat="43.417723728982665" lon="10.974718426937729"><ele>505.0</ele><time>2026-04-18T10:32:21.999Z</time></trkpt><trkpt lat="43.41775183635337" lon="10.974613108320604"><ele>502.66666666666663</ele><time>2026-04-18T10:32:22.999Z</time></trkpt><trkpt lat="43.41773173576175" lon="10.974480416141887"><ele>500.3333333333333</ele><time>2026-04-18T10:32:24Z</time></trkpt><trkpt lat="43.41769112806569" lon="10.97437027059652"><ele>498.0</ele><time>2026-04-18T10:32:25Z</time></trkpt><trkpt lat="43.417642214446715" lon="10.974257139414688"><ele>496.0</ele><time>2026-04-18T10:32:26Z</time></trkpt><trkpt lat="43.41759520430711" lon="10.974160451388187"><ele>494.0</ele><time>2026-04-18T10:32:27Z</time></trkpt><trkpt lat="43.41754346030783" lon="10.974052993836693"><ele>492.0</ele><time>2026-04-18T10:32:28Z</time></trkpt><trkpt lat="43.41747858473934" lon="10.973954860507039"><ele>490.0</ele><time>2026-04-18T10:32:29Z</time></trkpt><trkpt lat="43.41743810255561" lon="10.973856474845475"><ele>488.0</ele><time>2026-04-18T10:32:30Z</time></trkpt><trkpt lat="43.417397458644075" lon="10.973772407567447"><ele>486.0</ele><time>2026-04-18T10:32:31Z</time></trkpt><trkpt lat="43.41736211923125" lon="10.973698149301805"><ele>486.0</ele><time>2026-04-18T10:32:32Z</time></trkpt><trkpt lat="43.41733011514965" lon="10.973613347566813"><ele>486.0</ele><time>2026-04-18T10:32:33Z</time></trkpt><trkpt lat="43.41728882615277" lon="10.973531706461753"><ele>486.0</ele><time>2026-04-18T10:32:34Z</time></trkpt><trkpt lat="43.41724077892655" lon="10.97339723832365"><ele>486.0</ele><time>2026-04-18T10:32:36Z</time></trkpt><trkpt lat="43.41717956488684" lon="10.97326206123008"><ele>486.0</ele><time>2026-04-18T10:32:38Z</time></trkpt><trkpt lat="43.41714709205182" lon="10.973181697429688"><ele>486.0</ele><time>2026-04-18T10:32:39Z</time></trkpt><trkpt lat="43.417109780058205" lon="10.973080704071867"><ele>484.0</ele><time>2026-04-18T10:32:40Z</time></trkpt><trkpt lat="43.4170687182892" lon="10.972955369206135"><ele>482.0</ele><time>2026-04-18T10:32:41Z</time></trkpt><trkpt lat="43.41703538237068" lon="10.972846884177383"><ele>480.0</ele><time>2026-04-18T10:32:42Z</time></trkpt><trkpt lat="43.41700027300285" lon="10.972731203380288"><ele>478.0</ele><time>2026-04-18T10:32:43Z</time></trkpt><trkpt lat="43.41696133878771" lon="10.972579164014167"><ele>476.0</ele><time>2026-04-18T10:32:44Z</time></trkpt><trkpt lat="43.416918075902764" lon="10.97247317093732"><ele>475.8333333333333</ele><time>2026-04-18T10:32:45Z</time></trkpt><trkpt lat="43.41689128291528" lon="10.972368497524805"><ele>475.66666666666663</ele><time>2026-04-18T10:32:46Z</time></trkpt><trkpt lat="43.41687744623004" lon="10.972254381301244"><ele>475.5</ele><time>2026-04-18T10:32:47Z</time></trkpt><trkpt lat="43.41685116938246" lon="10.972152652787369"><ele>475.33333333333337</ele><time>2026-04-18T10:32:48Z</time></trkpt><trkpt lat="43.41682529154114" lon="10.97205246898485"><ele>475.1666666666667</ele><time>2026-04-18T10:32:49Z</time></trkpt><trkpt lat="43.41679421580409" lon="10.971932161973129"><ele>475.0</ele><time>2026-04-18T10:32:50Z</time></trkpt><trkpt lat="43.41676487049966" lon="10.97182480154314"><ele>475.0</ele><time>2026-04-18T10:32:51Z</time></trkpt><trkpt lat="43.41672683532856" lon="10.971706287295182"><ele>475.0</ele><time>2026-04-18T10:32:52Z</time></trkpt><trkpt lat="43.4166854788603" lon="10.97159791073885"><ele>475.0</ele><time>2026-04-18T10:32:53Z</time></trkpt><trkpt lat="43.41664028968312" lon="10.971486634660833"><ele>475.0</ele><time>2026-04-18T10:32:54Z</time></trkpt><trkpt lat="43.416582067602945" lon="10.971389039712788"><ele>475.0</ele><time>2026-04-18T10:32:55Z</time></trkpt><trkpt lat="43.41654033722937" lon="10.971270397678095"><ele>475.6</ele><time>2026-04-18T10:32:56Z</time></trkpt><trkpt lat="43.41649176715664" lon="10.971158650008588"><ele>476.2</ele><time>2026-04-18T10:32:57Z</time></trkpt><trkpt lat="43.416439365871305" lon="10.971056363938791"><ele>476.79999999999995</ele><time>2026-04-18T10:32:58Z</time></trkpt><trkpt lat="43.416392169610454" lon="10.970940636017724"><ele>477.4</ele><time>2026-04-18T10:32:59Z</time></trkpt><trkpt lat="43.416334493791254" lon="10.970830008436234"><ele>478.0</ele><time>2026-04-18T10:33:00Z</time></trkpt><trkpt lat="43.41626449635005" lon="10.970721456882076"><ele>478.79999999999995</ele><time>2026-04-18T10:33:01Z</time></trkpt><trkpt lat="43.41620510270681" lon="10.970604192992559"><ele>479.59999999999997</ele><time>2026-04-18T10:33:02Z</time></trkpt><trkpt lat="43.41613824794057" lon="10.970480504959893"><ele>480.40000000000003</ele><time>2026-04-18T10:33:03Z</time></trkpt><trkpt lat="43.4160661225856" lon="10.970353144625305"><ele>481.20000000000005</ele><time>2026-04-18T10:33:04Z</time></trkpt><trkpt lat="43.41599886413785" lon="10.97023662201937"><ele>482.0</ele><time>2026-04-18T10:33:05Z</time></trkpt><trkpt lat="43.41593332168853" lon="10.970115866964832"><ele>481.5</ele><time>2026-04-18T10:33:06Z</time></trkpt><trkpt lat="43.41586320065009" lon="10.969985657825017"><ele>481.0</ele><time>2026-04-18T10:33:07Z</time></trkpt><trkpt lat="43.41579436385969" lon="10.969861253554255"><ele>480.5</ele><time>2026-04-18T10:33:08Z</time></trkpt><trkpt lat="43.415723342176335" lon="10.96972585191491"><ele>480.0</ele><time>2026-04-18T10:33:09Z</time></trkpt><trkpt lat="43.41565903233113" lon="10.969600349100363"><ele>480.0</ele><time>2026-04-18T10:33:10Z</time></trkpt><trkpt lat="43.415587751032184" lon="10.969443793094326"><ele>480.0</ele><time>2026-04-18T10:33:11Z</time></trkpt><trkpt lat="43.415536061849835" lon="10.969311652790559"><ele>480.0</ele><time>2026-04-18T10:33:12Z</time></trkpt><trkpt lat="43.41551118834174" lon="10.969190884477895"><ele>480.0</ele><time>2026-04-18T10:33:13Z</time></trkpt><trkpt lat="43.41549823516831" lon="10.969054340233678"><ele>480.0</ele><time>2026-04-18T10:33:14Z</time></trkpt><trkpt lat="43.415501388682124" lon="10.968908900432186"><ele>479.2</ele><time>2026-04-18T10:33:15Z</time></trkpt><trkpt lat="43.415506942914355" lon="10.968764823264848"><ele>478.4</ele><time>2026-04-18T10:33:16Z</time></trkpt><trkpt lat="43.41551723181242" lon="10.968632085360623"><ele>477.6</ele><time>2026-04-18T10:33:17.001Z</time></trkpt><trkpt lat="43.41552012793526" lon="10.96845830651966"><ele>476.8</ele><time>2026-04-18T10:33:18.001Z</time></trkpt><trkpt lat="43.415526589162056" lon="10.968316651840917"><ele>476.0</ele><time>2026-04-18T10:33:19.001Z</time></trkpt><trkpt lat="43.41552972663333" lon="10.96818476394124"><ele>475.99999999999994</ele><time>2026-04-18T10:33:20.001Z</time></trkpt><trkpt lat="43.415532195359944" lon="10.968051724851469"><ele>476.0</ele><time>2026-04-18T10:33:21.001Z</time></trkpt><trkpt lat="43.415539984079274" lon="10.96792870418235"><ele>476.0</ele><time>2026-04-18T10:33:22.001Z</time></trkpt><trkpt lat="43.41554873405376" lon="10.967823060097434"><ele>476.0</ele><time>2026-04-18T10:33:23.001Z</time></trkpt><trkpt lat="43.41557025504951" lon="10.967723812208703"><ele>475.99999999999994</ele><time>2026-04-18T10:33:24.001Z</time></trkpt><trkpt lat="43.41558167273482" lon="10.967615575382483"><ele>476.0</ele><time>2026-04-18T10:33:25.001Z</time></trkpt><trkpt lat="43.41559889521629" lon="10.967457366005652"><ele>477.3333333333333</ele><time>2026-04-18T10:33:27.001Z</time></trkpt><trkpt lat="43.415619191102046" lon="10.967288142178129"><ele>478.66666666666663</ele><time>2026-04-18T10:33:29.001Z</time></trkpt><trkpt lat="43.41563476546354" lon="10.967122763305422"><ele>480.0</ele><time>2026-04-18T10:33:31.001Z</time></trkpt><trkpt lat="43.4156468563774" lon="10.967036357571143"><ele>481.33333333333337</ele><time>2026-04-18T10:33:32.001Z</time></trkpt><trkpt lat="43.41564823017811" lon="10.966949247847142"><ele>482.6666666666667</ele><time>2026-04-18T10:33:33.001Z</time></trkpt><trkpt lat="43.41566602532147" lon="10.966863861870932"><ele>484.0</ele><time>2026-04-18T10:33:34.001Z</time></trkpt><trkpt lat="43.41567535585934" lon="10.966771311916714"><ele>485.1666666666667</ele><time>2026-04-18T10:33:35.001Z</time></trkpt><trkpt lat="43.41569511237553" lon="10.966677391067387"><ele>486.33333333333337</ele><time>2026-04-18T10:33:36.001Z</time></trkpt><trkpt lat="43.41570555147932" lon="10.96657796866495"><ele>487.5</ele><time>2026-04-18T10:33:37.001Z</time></trkpt><trkpt lat="43.4157154520597" lon="10.966479596556535"><ele>488.66666666666663</ele><time>2026-04-18T10:33:38.001Z</time></trkpt><trkpt lat="43.415742064755285" lon="10.966379279915662"><ele>489.8333333333333</ele><time>2026-04-18T10:33:39.001Z</time></trkpt><trkpt lat="43.41573339520762" lon="10.966261921949963"><ele>491.0</ele><time>2026-04-18T10:33:40.001Z</time></trkpt><trkpt lat="43.41569957058818" lon="10.966153945834979"><ele>490.99999999999994</ele><time>2026-04-18T10:33:41.001Z</time></trkpt><trkpt lat="43.415680533748024" lon="10.966039615860062"><ele>491.0</ele><time>2026-04-18T10:33:42.001Z</time></trkpt><trkpt lat="43.41565610526823" lon="10.965924371523887"><ele>491.0</ele><time>2026-04-18T10:33:43.001Z</time></trkpt><trkpt lat="43.41564846533615" lon="10.965807346917439"><ele>491.0</ele><time>2026-04-18T10:33:44.001Z</time></trkpt><trkpt lat="43.415611326686374" lon="10.965694436889578"><ele>490.99999999999994</ele><time>2026-04-18T10:33:45.001Z</time></trkpt><trkpt lat="43.41559818860172" lon="10.965584973371074"><ele>491.0</ele><time>2026-04-18T10:33:46.001Z</time></trkpt><trkpt lat="43.41560624703438" lon="10.965472225073988"><ele>491.49999999999994</ele><time>2026-04-18T10:33:47.001Z</time></trkpt><trkpt lat="43.41561025496472" lon="10.965361932267683"><ele>492.0</ele><time>2026-04-18T10:33:48.001Z</time></trkpt><trkpt lat="43.41561736023309" lon="10.96523101211462"><ele>492.5</ele><time>2026-04-18T10:33:49.001Z</time></trkpt><trkpt lat="43.41562244264488" lon="10.965116687494842"><ele>493.0</ele><time>2026-04-18T10:33:50.001Z</time></trkpt><trkpt lat="43.41565852331047" lon="10.965001956948935"><ele>493.49999999999994</ele><time>2026-04-18T10:33:51.001Z</time></trkpt><trkpt lat="43.415689119789064" lon="10.96491492289194"><ele>494.0</ele><time>2026-04-18T10:33:52.001Z</time></trkpt><trkpt lat="43.4157099807207" lon="10.96480937204078"><ele>494.6</ele><time>2026-04-18T10:33:53.001Z</time></trkpt><trkpt lat="43.415718698220786" lon="10.964712280530192"><ele>495.2</ele><time>2026-04-18T10:33:54.001Z</time></trkpt><trkpt lat="43.415721271728906" lon="10.964566105827306"><ele>495.80000000000007</ele><time>2026-04-18T10:33:56.001Z</time></trkpt><trkpt lat="43.41572398397626" lon="10.964460599336014"><ele>496.40000000000003</ele><time>2026-04-18T10:33:58.001Z</time></trkpt><trkpt lat="43.41562702266295" lon="10.964395627299547"><ele>497.0</ele><time>2026-04-18T10:33:59.001Z</time></trkpt><trkpt lat="43.415551032983615" lon="10.964283242840482"><ele>496.0</ele><time>2026-04-18T10:34:01.001Z</time></trkpt><trkpt lat="43.41547447181804" lon="10.96417078642315"><ele>495.00000000000006</ele><time>2026-04-18T10:34:03.001Z</time></trkpt><trkpt lat="43.41543994026366" lon="10.964093631732993"><ele>494.00000000000006</ele><time>2026-04-18T10:34:04.001Z</time></trkpt><trkpt lat="43.41534500152219" lon="10.963990202901572"><ele>493.0</ele><time>2026-04-18T10:34:06.001Z</time></trkpt><trkpt lat="43.41528813224442" lon="10.963944207799544"><ele>492.0</ele><time>2026-04-18T10:34:07.001Z</time></trkpt><trkpt lat="43.41518072335231" lon="10.963874602412602"><ele>492.0</ele><time>2026-04-18T10:34:09.001Z</time></trkpt><trkpt lat="43.415084885147394" lon="10.963856598467759"><ele>492.00000000000006</ele><time>2026-04-18T10:34:11.001Z</time></trkpt><trkpt lat="43.41501168424635" lon="10.963781963190623"><ele>492.00000000000006</ele><time>2026-04-18T10:34:13.001Z</time></trkpt><trkpt lat="43.414932650106024" lon="10.963687327699935"><ele>492.0</ele><time>2026-04-18T10:34:15.001Z</time></trkpt><trkpt lat="43.41482586979995" lon="10.963619525536036"><ele>492.0</ele><time>2026-04-18T10:34:17.001Z</time></trkpt><trkpt lat="43.41476038790841" lon="10.96356138633352"><ele>492.0</ele><time>2026-04-18T10:34:18.001Z</time></trkpt><trkpt lat="43.414682727350915" lon="10.963535479051412"><ele>492.0</ele><time>2026-04-18T10:34:19.001Z</time></trkpt><trkpt lat="43.41459777609686" lon="10.963516165505212"><ele>492.0</ele><time>2026-04-18T10:34:20.001Z</time></trkpt><trkpt lat="43.414514586144975" lon="10.963522568611575"><ele>492.0</ele><time>2026-04-18T10:34:21.001Z</time></trkpt><trkpt lat="43.414436547763266" lon="10.963497506533196"><ele>492.0</ele><time>2026-04-18T10:34:22.001Z</time></trkpt><trkpt lat="43.41435959149147" lon="10.96347063880085"><ele>492.0</ele><time>2026-04-18T10:34:23.001Z</time></trkpt><trkpt lat="43.414287392286376" lon="10.963447434804836"><ele>490.0</ele><time>2026-04-18T10:34:24.001Z</time></trkpt><trkpt lat="43.414226151842854" lon="10.963411342804525"><ele>488.0</ele><time>2026-04-18T10:34:25Z</time></trkpt><trkpt lat="43.41416715229693" lon="10.963378276275145"><ele>486.0</ele><time>2026-04-18T10:34:26Z</time></trkpt><trkpt lat="43.414119906666016" lon="10.963247029563217"><ele>484.0</ele><time>2026-04-18T10:34:28Z</time></trkpt><trkpt lat="43.41408519156914" lon="10.963172155342804"><ele>482.0</ele><time>2026-04-18T10:34:29Z</time></trkpt><trkpt lat="43.41400915332161" lon="10.963033680727843"><ele>480.0</ele><time>2026-04-18T10:34:31Z</time></trkpt><trkpt lat="43.4139644049755" lon="10.962901806892802"><ele>480.0</ele><time>2026-04-18T10:34:33Z</time></trkpt><trkpt lat="43.413887274086335" lon="10.962826893069723"><ele>480.0</ele><time>2026-04-18T10:34:35Z</time></trkpt><trkpt lat="43.41377362166434" lon="10.962891431411657"><ele>480.0</ele><time>2026-04-18T10:34:37Z</time></trkpt><trkpt lat="43.41365500055288" lon="10.962993567383938"><ele>480.0</ele><time>2026-04-18T10:34:39Z</time></trkpt><trkpt lat="43.41358251118301" lon="10.963056004425553"><ele>480.0</ele><time>2026-04-18T10:34:40Z</time></trkpt><trkpt lat="43.41351522274848" lon="10.96309714948945"><ele>477.6</ele><time>2026-04-18T10:34:41Z</time></trkpt><trkpt lat="43.41344887303792" lon="10.96311951447745"><ele>475.2</ele><time>2026-04-18T10:34:42Z</time></trkpt><trkpt lat="43.413338516669235" lon="10.96313180260113"><ele>472.79999999999995</ele><time>2026-04-18T10:34:44Z</time></trkpt><trkpt lat="43.41322224428001" lon="10.963072534605248"><ele>470.4</ele><time>2026-04-18T10:34:46Z</time></trkpt><trkpt lat="43.41314919960615" lon="10.96300127179916"><ele>468.0</ele><time>2026-04-18T10:34:48Z</time></trkpt><trkpt lat="43.413060600266775" lon="10.96289396890823"><ele>465.3333333333333</ele><time>2026-04-18T10:34:50Z</time></trkpt><trkpt lat="43.41297290758333" lon="10.962771486043602"><ele>462.66666666666663</ele><time>2026-04-18T10:34:52Z</time></trkpt><trkpt lat="43.41292532913534" lon="10.962703563909338"><ele>460.0</ele><time>2026-04-18T10:34:53Z</time></trkpt><trkpt lat="43.41284484770266" lon="10.962624786089652"><ele>457.3333333333333</ele><time>2026-04-18T10:34:54Z</time></trkpt><trkpt lat="43.41280360695477" lon="10.962542754693203"><ele>454.66666666666663</ele><time>2026-04-18T10:34:55Z</time></trkpt><trkpt lat="43.412754717485186" lon="10.962481983717437"><ele>452.0</ele><time>2026-04-18T10:34:56Z</time></trkpt><trkpt lat="43.41270234041762" lon="10.96243308391947"><ele>451.6</ele><time>2026-04-18T10:34:57Z</time></trkpt><trkpt lat="43.41267056012018" lon="10.962265526901296"><ele>451.20000000000005</ele><time>2026-04-18T10:34:59Z</time></trkpt><trkpt lat="43.41267790941688" lon="10.9621649215468"><ele>450.8</ele><time>2026-04-18T10:35:00Z</time></trkpt><trkpt lat="43.412699183291465" lon="10.96204942279539"><ele>450.4</ele><time>2026-04-18T10:35:01Z</time></trkpt><trkpt lat="43.412726046831196" lon="10.961925778989183"><ele>450.0</ele><time>2026-04-18T10:35:02Z</time></trkpt><trkpt lat="43.41275492469235" lon="10.961804925432151"><ele>449.0</ele><time>2026-04-18T10:35:03Z</time></trkpt><trkpt lat="43.41278545652067" lon="10.961681965152962"><ele>448.0</ele><time>2026-04-18T10:35:04Z</time></trkpt><trkpt lat="43.41280606492327" lon="10.96155702685111"><ele>447.0</ele><time>2026-04-18T10:35:05Z</time></trkpt><trkpt lat="43.41280957676532" lon="10.961438067554214"><ele>446.0</ele><time>2026-04-18T10:35:06Z</time></trkpt><trkpt lat="43.41283915677029" lon="10.961317170925096"><ele>445.0</ele><time>2026-04-18T10:35:07Z</time></trkpt><trkpt lat="43.41285064958074" lon="10.9611975045631"><ele>445.00000000000006</ele><time>2026-04-18T10:35:08Z</time></trkpt><trkpt lat="43.412842022934996" lon="10.961084402314746"><ele>445.0</ele><time>2026-04-18T10:35:09Z</time></trkpt><trkpt lat="43.412824698388356" lon="10.960975624900717"><ele>445.0</ele><time>2026-04-18T10:35:10Z</time></trkpt><trkpt lat="43.41281131290252" lon="10.960873884635774"><ele>445.0</ele><time>2026-04-18T10:35:11Z</time></trkpt><trkpt lat="43.41278751591297" lon="10.960777730640482"><ele>445.00000000000006</ele><time>2026-04-18T10:35:12Z</time></trkpt><trkpt lat="43.41276706790698" lon="10.960681968878568"><ele>445.0</ele><time>2026-04-18T10:35:13Z</time></trkpt><trkpt lat="43.412756947724105" lon="10.960571547263424"><ele>442.83333333333337</ele><time>2026-04-18T10:35:14Z</time></trkpt><trkpt lat="43.41275942923053" lon="10.960461524883128"><ele>440.6666666666667</ele><time>2026-04-18T10:35:15Z</time></trkpt><trkpt lat="43.41276374700418" lon="10.960343490139092"><ele>438.5</ele><time>2026-04-18T10:35:16Z</time></trkpt><trkpt lat="43.4127783121498" lon="10.96022424943042"><ele>436.33333333333337</ele><time>2026-04-18T10:35:17Z</time></trkpt><trkpt lat="43.412782101511496" lon="10.960105036869189"><ele>434.1666666666667</ele><time>2026-04-18T10:35:18Z</time></trkpt><trkpt lat="43.41279339970804" lon="10.959980104344055"><ele>432.0</ele><time>2026-04-18T10:35:19.001Z</time></trkpt><trkpt lat="43.4128115689493" lon="10.959858301301301"><ele>430.0</ele><time>2026-04-18T10:35:20.001Z</time></trkpt><trkpt lat="43.41285780446895" lon="10.959717361207478"><ele>428.00000000000006</ele><time>2026-04-18T10:35:21.001Z</time></trkpt><trkpt lat="43.412882638038525" lon="10.959595578738526"><ele>426.0</ele><time>2026-04-18T10:35:22.001Z</time></trkpt><trkpt lat="43.41294857094991" lon="10.959482097925113"><ele>424.0</ele><time>2026-04-18T10:35:23.001Z</time></trkpt><trkpt lat="43.41297332429284" lon="10.959374594403819"><ele>422.0</ele><time>2026-04-18T10:35:24.001Z</time></trkpt><trkpt lat="43.4129748262947" lon="10.959266453945729"><ele>420.3333333333333</ele><time>2026-04-18T10:35:25.001Z</time></trkpt><trkpt lat="43.41298358862248" lon="10.95916313808338"><ele>418.66666666666663</ele><time>2026-04-18T10:35:26.001Z</time></trkpt><trkpt lat="43.4129810063266" lon="10.959070416422293"><ele>417.0</ele><time>2026-04-18T10:35:27.001Z</time></trkpt><trkpt lat="43.41296820170554" lon="10.958970466901171"><ele>415.33333333333337</ele><time>2026-04-18T10:35:28.001Z</time></trkpt><trkpt lat="43.41294881061345" lon="10.958867868516345"><ele>413.6666666666667</ele><time>2026-04-18T10:35:29.001Z</time></trkpt><trkpt lat="43.41293964361844" lon="10.958749220049175"><ele>412.0</ele><time>2026-04-18T10:35:30.001Z</time></trkpt><trkpt lat="43.41291133808059" lon="10.958639785446119"><ele>412.0</ele><time>2026-04-18T10:35:31.001Z</time></trkpt><trkpt lat="43.41287187786492" lon="10.95852766328769"><ele>412.0</ele><time>2026-04-18T10:35:32.001Z</time></trkpt><trkpt lat="43.41284300506774" lon="10.958409999759468"><ele>412.0</ele><time>2026-04-18T10:35:33.001Z</time></trkpt><trkpt lat="43.41280475952229" lon="10.95828851590953"><ele>412.0</ele><time>2026-04-18T10:35:34.001Z</time></trkpt><trkpt lat="43.41277134901435" lon="10.958151455285144"><ele>412.0</ele><time>2026-04-18T10:35:35.001Z</time></trkpt><trkpt lat="43.4127378055682" lon="10.957998432742318"><ele>410.40000000000003</ele><time>2026-04-18T10:35:36.001Z</time></trkpt><trkpt lat="43.412698775673626" lon="10.957853049780255"><ele>408.8</ele><time>2026-04-18T10:35:37.001Z</time></trkpt><trkpt lat="43.412660276025626" lon="10.9577086103801"><ele>407.2</ele><time>2026-04-18T10:35:38.001Z</time></trkpt><trkpt lat="43.412620266530325" lon="10.957571223757482"><ele>405.6</ele><time>2026-04-18T10:35:39.001Z</time></trkpt><trkpt lat="43.412584158530215" lon="10.957437924038567"><ele>404.0</ele><time>2026-04-18T10:35:40.001Z</time></trkpt><trkpt lat="43.412546762260426" lon="10.957308115459245"><ele>402.0</ele><time>2026-04-18T10:35:41.001Z</time></trkpt><trkpt lat="43.412511232684245" lon="10.957183084271792"><ele>400.0</ele><time>2026-04-18T10:35:42.001Z</time></trkpt><trkpt lat="43.412475356671514" lon="10.957053120417722"><ele>398.0</ele><time>2026-04-18T10:35:43.001Z</time></trkpt><trkpt lat="43.41243830683856" lon="10.95692790368787"><ele>396.0</ele><time>2026-04-18T10:35:44.001Z</time></trkpt><trkpt lat="43.41240833784448" lon="10.956817860814231"><ele>394.0</ele><time>2026-04-18T10:35:45.001Z</time></trkpt><trkpt lat="43.4123840126225" lon="10.956726027579613"><ele>393.0</ele><time>2026-04-18T10:35:46.001Z</time></trkpt><trkpt lat="43.41235036580973" lon="10.956576346603779"><ele>392.0</ele><time>2026-04-18T10:35:48.001Z</time></trkpt><trkpt lat="43.412310933129454" lon="10.956421775711915"><ele>391.0</ele><time>2026-04-18T10:35:50.001Z</time></trkpt><trkpt lat="43.412279887270444" lon="10.956293660014014"><ele>390.0</ele><time>2026-04-18T10:35:52.001Z</time></trkpt><trkpt lat="43.41225962790234" lon="10.956210056506904"><ele>389.0</ele><time>2026-04-18T10:35:53.001Z</time></trkpt><trkpt lat="43.41223715702215" lon="10.956115587670578"><ele>388.99999999999994</ele><time>2026-04-18T10:35:54.001Z</time></trkpt><trkpt lat="43.41221721763788" lon="10.956026038468574"><ele>389.0</ele><time>2026-04-18T10:35:55.001Z</time></trkpt><trkpt lat="43.4122001342888" lon="10.9559401399709"><ele>389.0</ele><time>2026-04-18T10:35:56.001Z</time></trkpt><trkpt lat="43.41216944763582" lon="10.955779656638788"><ele>389.0</ele><time>2026-04-18T10:35:58.001Z</time></trkpt><trkpt lat="43.41213485812577" lon="10.955649818399042"><ele>388.99999999999994</ele><time>2026-04-18T10:36:00.001Z</time></trkpt><trkpt lat="43.41213174835606" lon="10.955554164948017"><ele>389.0</ele><time>2026-04-18T10:36:02.001Z</time></trkpt><trkpt lat="43.41212838309924" lon="10.95545939687735"><ele>388.99999999999994</ele><time>2026-04-18T10:36:04.001Z</time></trkpt><trkpt lat="43.41212681831524" lon="10.95532191231444"><ele>389.0</ele><time>2026-04-18T10:36:06.001Z</time></trkpt><trkpt lat="43.41211786195619" lon="10.955145077425119"><ele>389.0</ele><time>2026-04-18T10:36:08.001Z</time></trkpt><trkpt lat="43.41210828412007" lon="10.955055803853352"><ele>389.0</ele><time>2026-04-18T10:36:09.001Z</time></trkpt><trkpt lat="43.41211482271863" lon="10.95496302689581"><ele>388.99999999999994</ele><time>2026-04-18T10:36:10.001Z</time></trkpt><trkpt lat="43.41210069672936" lon="10.95486808380579"><ele>389.0</ele><time>2026-04-18T10:36:11.001Z</time></trkpt><trkpt lat="43.41207312067302" lon="10.954769425276346"><ele>390.49999999999994</ele><time>2026-04-18T10:36:12.001Z</time></trkpt><trkpt lat="43.412033076948575" lon="10.954676448016757"><ele>392.0</ele><time>2026-04-18T10:36:13.001Z</time></trkpt><trkpt lat="43.41199042040869" lon="10.954577551201824"><ele>393.5</ele><time>2026-04-18T10:36:14.001Z</time></trkpt><trkpt lat="43.41196106743599" lon="10.954482763418671"><ele>395.0</ele><time>2026-04-18T10:36:15.001Z</time></trkpt><trkpt lat="43.411943939583935" lon="10.954389694904771"><ele>396.49999999999994</ele><time>2026-04-18T10:36:16.001Z</time></trkpt><trkpt lat="43.4119200104131" lon="10.954294875981795"><ele>398.0</ele><time>2026-04-18T10:36:17.001Z</time></trkpt><trkpt lat="43.41191981479027" lon="10.954189300079411"><ele>398.2857142857143</ele><time>2026-04-18T10:36:18.001Z</time></trkpt><trkpt lat="43.411909246899874" lon="10.95409297289714"><ele>398.57142857142856</ele><time>2026-04-18T10:36:19.001Z</time></trkpt><trkpt lat="43.41190316139418" lon="10.95399389599953"><ele>398.8571428571429</ele><time>2026-04-18T10:36:20.001Z</time></trkpt><trkpt lat="43.41189123715906" lon="10.953897758252056"><ele>399.1428571428571</ele><time>2026-04-18T10:36:21.001Z</time></trkpt><trkpt lat="43.41188636595628" lon="10.953792714517418"><ele>399.42857142857144</ele><time>2026-04-18T10:36:22.001Z</time></trkpt><trkpt lat="43.41187809219421" lon="10.953691088917875"><ele>399.7142857142857</ele><time>2026-04-18T10:36:23.002Z</time></trkpt><trkpt lat="43.411870283144346" lon="10.953585423460224"><ele>400.0</ele><time>2026-04-18T10:36:24.002Z</time></trkpt><trkpt lat="43.411862096674504" lon="10.953476750131811"><ele>400.00000000000006</ele><time>2026-04-18T10:36:25.002Z</time></trkpt><trkpt lat="43.41185642086721" lon="10.953372384685556"><ele>400.0</ele><time>2026-04-18T10:36:26.002Z</time></trkpt><trkpt lat="43.411848631406905" lon="10.953261484599233"><ele>400.0</ele><time>2026-04-18T10:36:27.002Z</time></trkpt><trkpt lat="43.41183793480315" lon="10.953152536693324"><ele>400.0</ele><time>2026-04-18T10:36:28.002Z</time></trkpt><trkpt lat="43.41183033005392" lon="10.953034431969371"><ele>400.00000000000006</ele><time>2026-04-18T10:36:29.002Z</time></trkpt><trkpt lat="43.41182458695547" lon="10.952917018902399"><ele>400.0</ele><time>2026-04-18T10:36:30.002Z</time></trkpt><trkpt lat="43.41181872960809" lon="10.952796502899655"><ele>401.00000000000006</ele><time>2026-04-18T10:36:31Z</time></trkpt><trkpt lat="43.411813034292436" lon="10.952677605800744"><ele>402.0</ele><time>2026-04-18T10:36:32Z</time></trkpt><trkpt lat="43.411806373878754" lon="10.952559329227217"><ele>403.0</ele><time>2026-04-18T10:36:33Z</time></trkpt><trkpt lat="43.411801172409255" lon="10.952449380056223"><ele>404.0</ele><time>2026-04-18T10:36:34Z</time></trkpt><trkpt lat="43.411795770048435" lon="10.95234266066052"><ele>405.00000000000006</ele><time>2026-04-18T10:36:35Z</time></trkpt><trkpt lat="43.4118001055219" lon="10.95223528069217"><ele>406.0</ele><time>2026-04-18T10:36:36Z</time></trkpt><trkpt lat="43.41179132034501" lon="10.952135136525552"><ele>407.00000000000006</ele><time>2026-04-18T10:36:37Z</time></trkpt><trkpt lat="43.41178458322537" lon="10.952040169789754"><ele>408.0</ele><time>2026-04-18T10:36:38Z</time></trkpt><trkpt lat="43.41177804599468" lon="10.95194589582757"><ele>409.0</ele><time>2026-04-18T10:36:39Z</time></trkpt><trkpt lat="43.41177176495597" lon="10.951845316380654"><ele>410.0</ele><time>2026-04-18T10:36:40Z</time></trkpt><trkpt lat="43.41176406683581" lon="10.951740067942902"><ele>411.00000000000006</ele><time>2026-04-18T10:36:41Z</time></trkpt><trkpt lat="43.41174763277149" lon="10.951633595394565"><ele>412.0</ele><time>2026-04-18T10:36:42Z</time></trkpt><trkpt lat="43.41174199651201" lon="10.95151233000967"><ele>412.8</ele><time>2026-04-18T10:36:43Z</time></trkpt><trkpt lat="43.41173297809918" lon="10.951383601951932"><ele>413.6</ele><time>2026-04-18T10:36:44Z</time></trkpt><trkpt lat="43.41172328595787" lon="10.951249959531252"><ele>414.40000000000003</ele><time>2026-04-18T10:36:45Z</time></trkpt><trkpt lat="43.41171383176659" lon="10.951114898974321"><ele>415.20000000000005</ele><time>2026-04-18T10:36:46Z</time></trkpt><trkpt lat="43.41170665094759" lon="10.950977810772665"><ele>416.0</ele><time>2026-04-18T10:36:47Z</time></trkpt><trkpt lat="43.41169757778734" lon="10.950844416889812"><ele>416.8</ele><time>2026-04-18T10:36:48Z</time></trkpt><trkpt lat="43.411686748469364" lon="10.950713246232276"><ele>417.6</ele><time>2026-04-18T10:36:49Z</time></trkpt><trkpt lat="43.411673531319344" lon="10.950587829547036"><ele>418.4</ele><time>2026-04-18T10:36:50Z</time></trkpt><trkpt lat="43.411660080721916" lon="10.950465450779879"><ele>419.2</ele><time>2026-04-18T10:36:51Z</time></trkpt><trkpt lat="43.41164262185809" lon="10.950343956803106"><ele>420.0</ele><time>2026-04-18T10:36:52Z</time></trkpt><trkpt lat="43.411622905781236" lon="10.950220521001253"><ele>420.0</ele><time>2026-04-18T10:36:53Z</time></trkpt><trkpt lat="43.41160216966182" lon="10.950104531788414"><ele>420.0</ele><time>2026-04-18T10:36:54Z</time></trkpt><trkpt lat="43.41158175172292" lon="10.949989983816817"><ele>420.0</ele><time>2026-04-18T10:36:55Z</time></trkpt><trkpt lat="43.411563121090374" lon="10.94988537727638"><ele>420.0</ele><time>2026-04-18T10:36:56Z</time></trkpt><trkpt lat="43.41154664795191" lon="10.94978540980383"><ele>420.0</ele><time>2026-04-18T10:36:57Z</time></trkpt><trkpt lat="43.41152734100975" lon="10.949684433836598"><ele>420.0</ele><time>2026-04-18T10:36:58Z</time></trkpt><trkpt lat="43.4114999180268" lon="10.94958629546866"><ele>420.0</ele><time>2026-04-18T10:36:59Z</time></trkpt><trkpt lat="43.41146495190117" lon="10.949480028309091"><ele>420.0</ele><time>2026-04-18T10:37:00Z</time></trkpt><trkpt lat="43.41142437703974" lon="10.94937789027593"><ele>420.0</ele><time>2026-04-18T10:37:01Z</time></trkpt><trkpt lat="43.41137191321844" lon="10.949282633008517"><ele>420.0</ele><time>2026-04-18T10:37:02Z</time></trkpt><trkpt lat="43.41131948422476" lon="10.949195397086848"><ele>420.0</ele><time>2026-04-18T10:37:03Z</time></trkpt><trkpt lat="43.41124830840301" lon="10.949117439462738"><ele>420.0</ele><time>2026-04-18T10:37:04Z</time></trkpt><trkpt lat="43.41117934476677" lon="10.949070165797055"><ele>420.0</ele><time>2026-04-18T10:37:05Z</time></trkpt><trkpt lat="43.41111731878385" lon="10.949020470443905"><ele>420.0</ele><time>2026-04-18T10:37:06Z</time></trkpt><trkpt lat="43.41105800205429" lon="10.94895383036956"><ele>420.0</ele><time>2026-04-18T10:37:07Z</time></trkpt><trkpt lat="43.411010153374306" lon="10.948868603151931"><ele>420.0</ele><time>2026-04-18T10:37:08Z</time></trkpt><trkpt lat="43.41097930740564" lon="10.948770172311123"><ele>420.0</ele><time>2026-04-18T10:37:09Z</time></trkpt><trkpt lat="43.410949776057215" lon="10.948670028222061"><ele>420.0</ele><time>2026-04-18T10:37:10Z</time></trkpt><trkpt lat="43.41093211843115" lon="10.948547169703607"><ele>420.0</ele><time>2026-04-18T10:37:11Z</time></trkpt><trkpt lat="43.41091758268963" lon="10.94843285137981"><ele>420.0</ele><time>2026-04-18T10:37:12Z</time></trkpt><trkpt lat="43.41090085882394" lon="10.948318558768056"><ele>420.0</ele><time>2026-04-18T10:37:13Z</time></trkpt><trkpt lat="43.410887856797466" lon="10.948200625984388"><ele>420.0</ele><time>2026-04-18T10:37:14Z</time></trkpt><trkpt lat="43.410878864127916" lon="10.94807765510576"><ele>420.0</ele><time>2026-04-18T10:37:15Z</time></trkpt><trkpt lat="43.41087019599484" lon="10.947946276104432"><ele>420.0</ele><time>2026-04-18T10:37:16Z</time></trkpt><trkpt lat="43.41086824241839" lon="10.947822816215945"><ele>419.6</ele><time>2026-04-18T10:37:17Z</time></trkpt><trkpt lat="43.41088014172692" lon="10.947694686615158"><ele>419.2</ele><time>2026-04-18T10:37:18Z</time></trkpt><trkpt lat="43.41089907644331" lon="10.947567308694307"><ele>418.79999999999995</ele><time>2026-04-18T10:37:19Z</time></trkpt><trkpt lat="43.41092040136214" lon="10.947437786447223"><ele>418.4</ele><time>2026-04-18T10:37:20Z</time></trkpt><trkpt lat="43.41094231931353" lon="10.947311296470719"><ele>418.0</ele><time>2026-04-18T10:37:21Z</time></trkpt><trkpt lat="43.410963145529216" lon="10.947185671051363"><ele>418.79999999999995</ele><time>2026-04-18T10:37:22.001Z</time></trkpt><trkpt lat="43.41097790878283" lon="10.947055191985436"><ele>419.6</ele><time>2026-04-18T10:37:23.001Z</time></trkpt><trkpt lat="43.41099087184275" lon="10.946931146626664"><ele>420.4</ele><time>2026-04-18T10:37:24.001Z</time></trkpt><trkpt lat="43.41099860695118" lon="10.946800640967144"><ele>421.20000000000005</ele><time>2026-04-18T10:37:25.001Z</time></trkpt><trkpt lat="43.41100715741143" lon="10.946663671251807"><ele>422.0</ele><time>2026-04-18T10:37:26.001Z</time></trkpt><trkpt lat="43.41101093491822" lon="10.94653066130771"><ele>422.66666666666663</ele><time>2026-04-18T10:37:27.001Z</time></trkpt><trkpt lat="43.41102009745573" lon="10.946398483633239"><ele>423.3333333333333</ele><time>2026-04-18T10:37:28.001Z</time></trkpt><trkpt lat="43.4110297849716" lon="10.946270469779256"><ele>424.0</ele><time>2026-04-18T10:37:29.001Z</time></trkpt><trkpt lat="43.411048080687216" lon="10.946143023758133"><ele>424.66666666666663</ele><time>2026-04-18T10:37:30.001Z</time></trkpt><trkpt lat="43.411051234528976" lon="10.946019383238468"><ele>425.3333333333333</ele><time>2026-04-18T10:37:31.001Z</time></trkpt><trkpt lat="43.41104103144531" lon="10.945917756835854"><ele>426.0</ele><time>2026-04-18T10:37:32.001Z</time></trkpt><trkpt lat="43.41103713224807" lon="10.945797108479843"><ele>426.1666666666667</ele><time>2026-04-18T10:37:33.001Z</time></trkpt><trkpt lat="43.4110339851604" lon="10.945678944464364"><ele>426.33333333333337</ele><time>2026-04-18T10:37:34.001Z</time></trkpt><trkpt lat="43.411018020701334" lon="10.945567013590738"><ele>426.5</ele><time>2026-04-18T10:37:35.001Z</time></trkpt><trkpt lat="43.41099865198037" lon="10.945447538022977"><ele>426.6666666666667</ele><time>2026-04-18T10:37:36.001Z</time></trkpt><trkpt lat="43.41099124273234" lon="10.945343247051923"><ele>426.83333333333337</ele><time>2026-04-18T10:37:37.001Z</time></trkpt><trkpt lat="43.41097330988844" lon="10.945259844872691"><ele>427.0</ele><time>2026-04-18T10:37:38.001Z</time></trkpt><trkpt lat="43.410958353133324" lon="10.945164973982429"><ele>427.00000000000006</ele><time>2026-04-18T10:37:39.001Z</time></trkpt><trkpt lat="43.410951758464435" lon="10.945078356637183"><ele>427.0</ele><time>2026-04-18T10:37:40.001Z</time></trkpt><trkpt lat="43.41092514658387" lon="10.944908185754873"><ele>427.0</ele><time>2026-04-18T10:37:42.001Z</time></trkpt><trkpt lat="43.410912895053585" lon="10.944809608115522"><ele>427.0</ele><time>2026-04-18T10:37:43.001Z</time></trkpt><trkpt lat="43.410905379869064" lon="10.94471006877518"><ele>427.00000000000006</ele><time>2026-04-18T10:37:44.001Z</time></trkpt><trkpt lat="43.41089608000317" lon="10.944609770259536"><ele>427.0</ele><time>2026-04-18T10:37:45.001Z</time></trkpt><trkpt lat="43.41088571645226" lon="10.94450525217805"><ele>426.83333333333337</ele><time>2026-04-18T10:37:46.001Z</time></trkpt><trkpt lat="43.410882738994026" lon="10.944400073091506"><ele>426.6666666666667</ele><time>2026-04-18T10:37:47.001Z</time></trkpt><trkpt lat="43.41087945836283" lon="10.944297750753169"><ele>426.5</ele><time>2026-04-18T10:37:48.001Z</time></trkpt><trkpt lat="43.410874290532654" lon="10.944179974962356"><ele>426.33333333333337</ele><time>2026-04-18T10:37:49.001Z</time></trkpt><trkpt lat="43.4108811191613" lon="10.944055286722085"><ele>426.1666666666667</ele><time>2026-04-18T10:37:50.001Z</time></trkpt><trkpt lat="43.41087245493872" lon="10.943916014725978"><ele>426.0</ele><time>2026-04-18T10:37:51.001Z</time></trkpt><trkpt lat="43.410855507645586" lon="10.943781304634484"><ele>425.4</ele><time>2026-04-18T10:37:52.001Z</time></trkpt><trkpt lat="43.41084486854599" lon="10.943650732988853"><ele>424.8</ele><time>2026-04-18T10:37:53.001Z</time></trkpt><trkpt lat="43.410837307392505" lon="10.943520107525533"><ele>424.2</ele><time>2026-04-18T10:37:54.001Z</time></trkpt><trkpt lat="43.41082462807018" lon="10.943365181128883"><ele>423.59999999999997</ele><time>2026-04-18T10:37:55.001Z</time></trkpt><trkpt lat="43.4108176817598" lon="10.943222625086264"><ele>423.0</ele><time>2026-04-18T10:37:56.001Z</time></trkpt><trkpt lat="43.410802463409944" lon="10.943078631961864"><ele>423.0</ele><time>2026-04-18T10:37:57.001Z</time></trkpt><trkpt lat="43.41076034579359" lon="10.942927119474271"><ele>423.0</ele><time>2026-04-18T10:37:58.001Z</time></trkpt><trkpt lat="43.41073621376821" lon="10.942783951665433"><ele>423.0</ele><time>2026-04-18T10:37:59.001Z</time></trkpt><trkpt lat="43.41072159992311" lon="10.94257750654052"><ele>423.0</ele><time>2026-04-18T10:38:00.001Z</time></trkpt><trkpt lat="43.41068740634907" lon="10.942434403534698"><ele>422.0</ele><time>2026-04-18T10:38:01.001Z</time></trkpt><trkpt lat="43.410657328599356" lon="10.942281972445725"><ele>421.0</ele><time>2026-04-18T10:38:02.001Z</time></trkpt><trkpt lat="43.410624473252405" lon="10.942140180162664"><ele>420.0</ele><time>2026-04-18T10:38:03.001Z</time></trkpt><trkpt lat="43.410587031515455" lon="10.941994596798507"><ele>419.0</ele><time>2026-04-18T10:38:04.001Z</time></trkpt><trkpt lat="43.410547555239404" lon="10.941859608855934"><ele>418.0</ele><time>2026-04-18T10:38:05.001Z</time></trkpt><trkpt lat="43.41050215696707" lon="10.941708769813381"><ele>415.4</ele><time>2026-04-18T10:38:06.001Z</time></trkpt><trkpt lat="43.410456555616165" lon="10.941563219890261"><ele>412.79999999999995</ele><time>2026-04-18T10:38:07.001Z</time></trkpt><trkpt lat="43.41041179875712" lon="10.94142036540699"><ele>410.2</ele><time>2026-04-18T10:38:08.001Z</time></trkpt><trkpt lat="43.41036881589494" lon="10.941283173145436"><ele>407.6</ele><time>2026-04-18T10:38:09.001Z</time></trkpt><trkpt lat="43.410335064538245" lon="10.941163935089431"><ele>405.0</ele><time>2026-04-18T10:38:10.001Z</time></trkpt><trkpt lat="43.41029276260029" lon="10.941064513590442"><ele>404.99999999999994</ele><time>2026-04-18T10:38:11.001Z</time></trkpt><trkpt lat="43.41026721146114" lon="10.940970320195541"><ele>405.0</ele><time>2026-04-18T10:38:12.001Z</time></trkpt><trkpt lat="43.41025609156163" lon="10.940876652747344"><ele>405.0</ele><time>2026-04-18T10:38:13.001Z</time></trkpt><trkpt lat="43.41026437092257" lon="10.940789863419802"><ele>405.0</ele><time>2026-04-18T10:38:14.001Z</time></trkpt><trkpt lat="43.41030840709573" lon="10.940720353928402"><ele>405.0</ele><time>2026-04-18T10:38:15.001Z</time></trkpt><trkpt lat="43.41039176936346" lon="10.940718874386329"><ele>404.99999999999994</ele><time>2026-04-18T10:38:16.001Z</time></trkpt><trkpt lat="43.410460114066645" lon="10.940676020397563"><ele>405.0</ele><time>2026-04-18T10:38:17.001Z</time></trkpt><trkpt lat="43.41056801551627" lon="10.940610135487512"><ele>404.6666666666667</ele><time>2026-04-18T10:38:19.001Z</time></trkpt><trkpt lat="43.41067493663385" lon="10.94054613502569"><ele>404.33333333333337</ele><time>2026-04-18T10:38:21.001Z</time></trkpt><trkpt lat="43.410710044647466" lon="10.9404727191062"><ele>404.0</ele><time>2026-04-18T10:38:22.001Z</time></trkpt><trkpt lat="43.41071374200511" lon="10.940374948955366"><ele>403.6666666666667</ele><time>2026-04-18T10:38:23.001Z</time></trkpt><trkpt lat="43.41070294061478" lon="10.940256281932873"><ele>403.33333333333337</ele><time>2026-04-18T10:38:24.001Z</time></trkpt><trkpt lat="43.410682002270114" lon="10.940135771063197"><ele>403.0</ele><time>2026-04-18T10:38:25.001Z</time></trkpt><trkpt lat="43.410660727977195" lon="10.940000057430806"><ele>401.79999999999995</ele><time>2026-04-18T10:38:26.002Z</time></trkpt><trkpt lat="43.410643117352386" lon="10.939863117347064"><ele>400.6</ele><time>2026-04-18T10:38:27.002Z</time></trkpt><trkpt lat="43.41065138725582" lon="10.939703169201769"><ele>399.4</ele><time>2026-04-18T10:38:28.002Z</time></trkpt><trkpt lat="43.41064419134618" lon="10.939556683643941"><ele>398.20000000000005</ele><time>2026-04-18T10:38:29.002Z</time></trkpt><trkpt lat="43.41063875441769" lon="10.939430602188503"><ele>397.0</ele><time>2026-04-18T10:38:30.002Z</time></trkpt><trkpt lat="43.410637607035184" lon="10.93930734280969"><ele>396.1666666666667</ele><time>2026-04-18T10:38:31.002Z</time></trkpt><trkpt lat="43.41064347567795" lon="10.939190312621774"><ele>395.33333333333337</ele><time>2026-04-18T10:38:32.002Z</time></trkpt><trkpt lat="43.41066045935241" lon="10.939082948392715"><ele>394.5</ele><time>2026-04-18T10:38:33.002Z</time></trkpt><trkpt lat="43.410676312183114" lon="10.938984364566352"><ele>393.66666666666663</ele><time>2026-04-18T10:38:34.002Z</time></trkpt><trkpt lat="43.410677213003474" lon="10.938878349582737"><ele>392.8333333333333</ele><time>2026-04-18T10:38:35.002Z</time></trkpt><trkpt lat="43.41064613225597" lon="10.938787627593392"><ele>392.0</ele><time>2026-04-18T10:38:36.002Z</time></trkpt><trkpt lat="43.41061486623752" lon="10.938687821855284"><ele>391.99999999999994</ele><time>2026-04-18T10:38:37Z</time></trkpt><trkpt lat="43.410566275432764" lon="10.938561661400671"><ele>392.0</ele><time>2026-04-18T10:38:38Z</time></trkpt><trkpt lat="43.41052983380412" lon="10.938435623385173"><ele>392.0</ele><time>2026-04-18T10:38:39Z</time></trkpt><trkpt lat="43.410492319939095" lon="10.938315530559525"><ele>392.0</ele><time>2026-04-18T10:38:40Z</time></trkpt><trkpt lat="43.41045739027567" lon="10.938218231294131"><ele>391.99999999999994</ele><time>2026-04-18T10:38:41Z</time></trkpt><trkpt lat="43.410410170754346" lon="10.938142354781299"><ele>392.0</ele><time>2026-04-18T10:38:42Z</time></trkpt><trkpt lat="43.41034836955041" lon="10.938088133686556"><ele>391.2857142857143</ele><time>2026-04-18T10:38:43Z</time></trkpt><trkpt lat="43.4102799664686" lon="10.93806374570387"><ele>390.57142857142856</ele><time>2026-04-18T10:38:44Z</time></trkpt><trkpt lat="43.410202985525025" lon="10.938049179775817"><ele>389.8571428571429</ele><time>2026-04-18T10:38:45Z</time></trkpt><trkpt lat="43.41013587116222" lon="10.93799620176891"><ele>389.1428571428571</ele><time>2026-04-18T10:38:46Z</time></trkpt><trkpt lat="43.41006816490974" lon="10.937971666186401"><ele>388.42857142857144</ele><time>2026-04-18T10:38:47Z</time></trkpt><trkpt lat="43.40999742860384" lon="10.93794603256094"><ele>387.7142857142857</ele><time>2026-04-18T10:38:48Z</time></trkpt><trkpt lat="43.40992310789379" lon="10.937936463931596"><ele>387.0</ele><time>2026-04-18T10:38:49Z</time></trkpt><trkpt lat="43.40986826629675" lon="10.937885834777944"><ele>387.0</ele><time>2026-04-18T10:38:50Z</time></trkpt><trkpt lat="43.40982758470024" lon="10.93780768164175"><ele>387.0</ele><time>2026-04-18T10:38:51Z</time></trkpt><trkpt lat="43.40980077589303" lon="10.937728898532086"><ele>387.0</ele><time>2026-04-18T10:38:52Z</time></trkpt><trkpt lat="43.40980087168538" lon="10.937572678749667"><ele>387.0</ele><time>2026-04-18T10:38:54Z</time></trkpt><trkpt lat="43.40980065242419" lon="10.937422914527739"><ele>387.0</ele><time>2026-04-18T10:38:56Z</time></trkpt><trkpt lat="43.40979699259119" lon="10.937254445029266"><ele>386.3333333333333</ele><time>2026-04-18T10:38:58Z</time></trkpt><trkpt lat="43.40982151951169" lon="10.937141408594028"><ele>385.6666666666667</ele><time>2026-04-18T10:38:59Z</time></trkpt><trkpt lat="43.40981221508484" lon="10.93704884343318"><ele>385.0</ele><time>2026-04-18T10:39:00Z</time></trkpt><trkpt lat="43.409815170352" lon="10.93692635896907"><ele>384.33333333333337</ele><time>2026-04-18T10:39:02Z</time></trkpt><trkpt lat="43.409833211044564" lon="10.936812561091372"><ele>383.6666666666667</ele><time>2026-04-18T10:39:06Z</time></trkpt><trkpt lat="43.40982652948575" lon="10.936721520375956"><ele>383.0</ele><time>2026-04-18T10:39:08Z</time></trkpt><trkpt lat="43.40985137673498" lon="10.936620779915524"><ele>381.59999999999997</ele><time>2026-04-18T10:39:10Z</time></trkpt><trkpt lat="43.40983593733908" lon="10.936492807638203"><ele>380.2</ele><time>2026-04-18T10:39:12Z</time></trkpt><trkpt lat="43.40978553954656" lon="10.936381790606658"><ele>378.8</ele><time>2026-04-18T10:39:14Z</time></trkpt><trkpt lat="43.40972062183885" lon="10.936278050016682"><ele>377.4</ele><time>2026-04-18T10:39:16Z</time></trkpt><trkpt lat="43.4096691809341" lon="10.93620414056266"><ele>376.0</ele><time>2026-04-18T10:39:17Z</time></trkpt><trkpt lat="43.409586674507516" lon="10.936102363051951"><ele>375.8</ele><time>2026-04-18T10:39:19Z</time></trkpt><trkpt lat="43.4095377301683" lon="10.936047764328869"><ele>375.6</ele><time>2026-04-18T10:39:20Z</time></trkpt><trkpt lat="43.409429343746694" lon="10.93592571555161"><ele>375.4</ele><time>2026-04-18T10:39:22Z</time></trkpt><trkpt lat="43.4093731039378" lon="10.935867725817584"><ele>375.2</ele><time>2026-04-18T10:39:23Z</time></trkpt><trkpt lat="43.40929571592237" lon="10.935817014548245"><ele>375.0</ele><time>2026-04-18T10:39:24Z</time></trkpt><trkpt lat="43.40922110831439" lon="10.935733504446086"><ele>374.8</ele><time>2026-04-18T10:39:25.001Z</time></trkpt><trkpt lat="43.409150184246855" lon="10.935648271148589"><ele>374.6</ele><time>2026-04-18T10:39:26.001Z</time></trkpt><trkpt lat="43.40907276183321" lon="10.935562307906624"><ele>374.4</ele><time>2026-04-18T10:39:27.001Z</time></trkpt><trkpt lat="43.40899494219713" lon="10.935484186766322"><ele>374.2</ele><time>2026-04-18T10:39:28.001Z</time></trkpt><trkpt lat="43.408918071066005" lon="10.93539572330735"><ele>374.0</ele><time>2026-04-18T10:39:29.001Z</time></trkpt><trkpt lat="43.40885021583955" lon="10.935303077903162"><ele>372.6</ele><time>2026-04-18T10:39:30.001Z</time></trkpt><trkpt lat="43.408804050081486" lon="10.935192225858344"><ele>371.2</ele><time>2026-04-18T10:39:31.001Z</time></trkpt><trkpt lat="43.40874298124789" lon="10.935077939185492"><ele>369.8</ele><time>2026-04-18T10:39:32.001Z</time></trkpt><trkpt lat="43.40870697357161" lon="10.93494031614982"><ele>368.40000000000003</ele><time>2026-04-18T10:39:33.001Z</time></trkpt><trkpt lat="43.40867719720415" lon="10.934796578978117"><ele>367.0</ele><time>2026-04-18T10:39:34.001Z</time></trkpt><trkpt lat="43.408673856563745" lon="10.934652756378185"><ele>367.0</ele><time>2026-04-18T10:39:35.001Z</time></trkpt><trkpt lat="43.408653005046794" lon="10.93450214100304"><ele>367.0</ele><time>2026-04-18T10:39:36.001Z</time></trkpt><trkpt lat="43.40863873622803" lon="10.934355295448158"><ele>367.0</ele><time>2026-04-18T10:39:37.001Z</time></trkpt><trkpt lat="43.40864268568289" lon="10.934215709117009"><ele>367.0</ele><time>2026-04-18T10:39:38.001Z</time></trkpt><trkpt lat="43.40861802435405" lon="10.934044324576192"><ele>367.0</ele><time>2026-04-18T10:39:39.001Z</time></trkpt><trkpt lat="43.40859103704157" lon="10.933889010331395"><ele>367.0</ele><time>2026-04-18T10:39:40.001Z</time></trkpt><trkpt lat="43.40856988197248" lon="10.933706953889569"><ele>367.0</ele><time>2026-04-18T10:39:41.001Z</time></trkpt><trkpt lat="43.4085491345762" lon="10.933528707596304"><ele>367.0</ele><time>2026-04-18T10:39:42.001Z</time></trkpt><trkpt lat="43.4085283366268" lon="10.933359718625429"><ele>367.0</ele><time>2026-04-18T10:39:43.001Z</time></trkpt><trkpt lat="43.40850569768043" lon="10.933202134819783"><ele>367.0</ele><time>2026-04-18T10:39:44.001Z</time></trkpt><trkpt lat="43.40847290509328" lon="10.933056138225357"><ele>367.0</ele><time>2026-04-18T10:39:45.001Z</time></trkpt><trkpt lat="43.40841401529805" lon="10.932916794977894"><ele>367.0</ele><time>2026-04-18T10:39:46.001Z</time></trkpt><trkpt lat="43.40835389177999" lon="10.93277156919223"><ele>367.0</ele><time>2026-04-18T10:39:47.001Z</time></trkpt><trkpt lat="43.40829022416874" lon="10.932618385353834"><ele>366.5</ele><time>2026-04-18T10:39:48.001Z</time></trkpt><trkpt lat="43.4082372093069" lon="10.932460978129049"><ele>366.0</ele><time>2026-04-18T10:39:49.001Z</time></trkpt><trkpt lat="43.40818018812739" lon="10.932308537196715"><ele>365.5</ele><time>2026-04-18T10:39:50.001Z</time></trkpt><trkpt lat="43.408123953335824" lon="10.932158198603082"><ele>365.0</ele><time>2026-04-18T10:39:51.001Z</time></trkpt><trkpt lat="43.408054670108605" lon="10.932022739395748"><ele>365.0</ele><time>2026-04-18T10:39:52.001Z</time></trkpt><trkpt lat="43.40802219807147" lon="10.931891225971702"><ele>365.0</ele><time>2026-04-18T10:39:53.001Z</time></trkpt><trkpt lat="43.40797213638993" lon="10.931797621038676"><ele>365.0</ele><time>2026-04-18T10:39:54.001Z</time></trkpt><trkpt lat="43.40793339697062" lon="10.93170117029194"><ele>365.0</ele><time>2026-04-18T10:39:55.001Z</time></trkpt><trkpt lat="43.40789304465528" lon="10.931610873849417"><ele>365.0</ele><time>2026-04-18T10:39:56.001Z</time></trkpt><trkpt lat="43.407859362958064" lon="10.931518116993072"><ele>365.0</ele><time>2026-04-18T10:39:57.001Z</time></trkpt><trkpt lat="43.40782046801204" lon="10.931446793382118"><ele>365.2</ele><time>2026-04-18T10:39:58.001Z</time></trkpt><trkpt lat="43.40776949792563" lon="10.931337514556777"><ele>365.4</ele><time>2026-04-18T10:40:00.001Z</time></trkpt><trkpt lat="43.4077274659341" lon="10.931246450258012"><ele>365.6</ele><time>2026-04-18T10:40:03.001Z</time></trkpt><trkpt lat="43.407680299472325" lon="10.931149762684887"><ele>365.8</ele><time>2026-04-18T10:40:05.001Z</time></trkpt><trkpt lat="43.407621866349935" lon="10.931041355321346"><ele>366.0</ele><time>2026-04-18T10:40:07.001Z</time></trkpt><trkpt lat="43.40756230490007" lon="10.930920990400141"><ele>366.8333333333333</ele><time>2026-04-18T10:40:09.001Z</time></trkpt><trkpt lat="43.40754039890261" lon="10.930834396611699"><ele>367.6666666666667</ele><time>2026-04-18T10:40:10.001Z</time></trkpt><trkpt lat="43.40749033775435" lon="10.930774536728697"><ele>368.5</ele><time>2026-04-18T10:40:11.001Z</time></trkpt><trkpt lat="43.40744990614479" lon="10.93070234384194"><ele>369.33333333333337</ele><time>2026-04-18T10:40:12.001Z</time></trkpt><trkpt lat="43.40742363236672" lon="10.930612256215197"><ele>370.1666666666667</ele><time>2026-04-18T10:40:13.001Z</time></trkpt><trkpt lat="43.40735415290929" lon="10.93049445017715"><ele>371.0</ele><time>2026-04-18T10:40:15.001Z</time></trkpt><trkpt lat="43.40733940832425" lon="10.93036944447581"><ele>371.0</ele><time>2026-04-18T10:40:17.001Z</time></trkpt><trkpt lat="43.40734798514183" lon="10.930216812555477"><ele>371.0</ele><time>2026-04-18T10:40:19.001Z</time></trkpt><trkpt lat="43.40735111963164" lon="10.93005370186752"><ele>371.0</ele><time>2026-04-18T10:40:21.001Z</time></trkpt><trkpt lat="43.40735697294804" lon="10.929965661741512"><ele>371.0</ele><time>2026-04-18T10:40:22.001Z</time></trkpt><trkpt lat="43.407363747414784" lon="10.929794752474725"><ele>371.0</ele><time>2026-04-18T10:40:24.001Z</time></trkpt><trkpt lat="43.40736985062336" lon="10.929692880905057"><ele>371.0</ele><time>2026-04-18T10:40:25.001Z</time></trkpt><trkpt lat="43.40736682076372" lon="10.92950227113867"><ele>371.0</ele><time>2026-04-18T10:40:27.002Z</time></trkpt><trkpt lat="43.40735289337108" lon="10.929374684039646"><ele>371.0</ele><time>2026-04-18T10:40:28.002Z</time></trkpt><trkpt lat="43.40734320655628" lon="10.929254380494818"><ele>371.0</ele><time>2026-04-18T10:40:29.002Z</time></trkpt><trkpt lat="43.40733531114726" lon="10.929137386188236"><ele>371.0</ele><time>2026-04-18T10:40:30.002Z</time></trkpt><trkpt lat="43.40733140028524" lon="10.929008195516696"><ele>370.6</ele><time>2026-04-18T10:40:31.002Z</time></trkpt><trkpt lat="43.40733287106951" lon="10.928844302208569"><ele>370.20000000000005</ele><time>2026-04-18T10:40:32.002Z</time></trkpt><trkpt lat="43.407322342067154" lon="10.928723272471602"><ele>369.79999999999995</ele><time>2026-04-18T10:40:33.002Z</time></trkpt><trkpt lat="43.40730522812021" lon="10.928600118280094"><ele>369.4</ele><time>2026-04-18T10:40:34.002Z</time></trkpt><trkpt lat="43.407272170614604" lon="10.928485423947222"><ele>369.0</ele><time>2026-04-18T10:40:35.002Z</time></trkpt><trkpt lat="43.407232719649386" lon="10.928392849960446"><ele>368.8333333333333</ele><time>2026-04-18T10:40:36.002Z</time></trkpt><trkpt lat="43.407181248318885" lon="10.928305805235592"><ele>368.6666666666667</ele><time>2026-04-18T10:40:37.002Z</time></trkpt><trkpt lat="43.407122829576636" lon="10.928226019607166"><ele>368.5</ele><time>2026-04-18T10:40:38.002Z</time></trkpt><trkpt lat="43.407065581967984" lon="10.928165110816058"><ele>368.33333333333337</ele><time>2026-04-18T10:40:39.002Z</time></trkpt><trkpt lat="43.407003225254165" lon="10.92810009879936"><ele>368.1666666666667</ele><time>2026-04-18T10:40:40.002Z</time></trkpt><trkpt lat="43.406942148453695" lon="10.928025864573675"><ele>368.0</ele><time>2026-04-18T10:40:41.002Z</time></trkpt><trkpt lat="43.406886611736596" lon="10.92794391692456"><ele>367.6666666666667</ele><time>2026-04-18T10:40:42.002Z</time></trkpt><trkpt lat="43.40682379670901" lon="10.927862082926183"><ele>367.33333333333337</ele><time>2026-04-18T10:40:43Z</time></trkpt><trkpt lat="43.40675639401997" lon="10.927798132497154"><ele>367.0</ele><time>2026-04-18T10:40:44Z</time></trkpt><trkpt lat="43.40668452893739" lon="10.927740365418346"><ele>366.6666666666667</ele><time>2026-04-18T10:40:45Z</time></trkpt><trkpt lat="43.4066191467885" lon="10.927631395162962"><ele>366.3333333333333</ele><time>2026-04-18T10:40:46Z</time></trkpt><trkpt lat="43.40661067990259" lon="10.927526675035605"><ele>366.0</ele><time>2026-04-18T10:40:47Z</time></trkpt><trkpt lat="43.406589002040434" lon="10.92741144157503"><ele>368.0</ele><time>2026-04-18T10:40:48Z</time></trkpt><trkpt lat="43.40656111081945" lon="10.927295267732246"><ele>370.0</ele><time>2026-04-18T10:40:49Z</time></trkpt><trkpt lat="43.40652948733706" lon="10.927169589738545"><ele>372.0</ele><time>2026-04-18T10:40:50Z</time></trkpt><trkpt lat="43.40649150501637" lon="10.927039908913345"><ele>374.0</ele><time>2026-04-18T10:40:51Z</time></trkpt><trkpt lat="43.406442739556994" lon="10.926926561539597"><ele>376.0</ele><time>2026-04-18T10:40:52Z</time></trkpt><trkpt lat="43.40639522076653" lon="10.926801592376536"><ele>376.4</ele><time>2026-04-18T10:40:53Z</time></trkpt><trkpt lat="43.40632945194248" lon="10.926692832875414"><ele>376.8</ele><time>2026-04-18T10:40:54Z</time></trkpt><trkpt lat="43.4062551451486" lon="10.926587569425944"><ele>377.2</ele><time>2026-04-18T10:40:55Z</time></trkpt><trkpt lat="43.40618136602996" lon="10.926498623091915"><ele>377.59999999999997</ele><time>2026-04-18T10:40:56Z</time></trkpt><trkpt lat="43.406105211731386" lon="10.926411182551613"><ele>378.0</ele><time>2026-04-18T10:40:57Z</time></trkpt><trkpt lat="43.406033121203116" lon="10.926325362053683"><ele>378.0</ele><time>2026-04-18T10:40:58Z</time></trkpt><trkpt lat="43.40596184979922" lon="10.926245416210303"><ele>378.0</ele><time>2026-04-18T10:40:59Z</time></trkpt><trkpt lat="43.40589215435155" lon="10.92616069438836"><ele>378.0</ele><time>2026-04-18T10:41:00Z</time></trkpt><trkpt lat="43.40582434394948" lon="10.92607654461704"><ele>378.0</ele><time>2026-04-18T10:41:01Z</time></trkpt><trkpt lat="43.40575431215882" lon="10.925984421566065"><ele>378.0</ele><time>2026-04-18T10:41:02Z</time></trkpt><trkpt lat="43.40569353985288" lon="10.92587786795041"><ele>378.4</ele><time>2026-04-18T10:41:03Z</time></trkpt><trkpt lat="43.40562254550323" lon="10.925776298159784"><ele>378.79999999999995</ele><time>2026-04-18T10:41:04Z</time></trkpt><trkpt lat="43.405553501368935" lon="10.925670710652659"><ele>379.2</ele><time>2026-04-18T10:41:05Z</time></trkpt><trkpt lat="43.405479319116544" lon="10.925569978300729"><ele>379.6</ele><time>2026-04-18T10:41:06Z</time></trkpt><trkpt lat="43.40540336675485" lon="10.925466558125413"><ele>380.0</ele><time>2026-04-18T10:41:07Z</time></trkpt><trkpt lat="43.405331646822674" lon="10.925361624380013"><ele>379.8</ele><time>2026-04-18T10:41:08Z</time></trkpt><trkpt lat="43.40524959336949" lon="10.925263950164572"><ele>379.6</ele><time>2026-04-18T10:41:09Z</time></trkpt><trkpt lat="43.405160475942736" lon="10.925173945829528"><ele>379.4</ele><time>2026-04-18T10:41:10Z</time></trkpt><trkpt lat="43.40506440525175" lon="10.925096508222591"><ele>379.2</ele><time>2026-04-18T10:41:11Z</time></trkpt><trkpt lat="43.404973212451125" lon="10.925019799728277"><ele>379.0</ele><time>2026-04-18T10:41:12Z</time></trkpt><trkpt lat="43.4048803494189" lon="10.924944496004299"><ele>379.0</ele><time>2026-04-18T10:41:13Z</time></trkpt><trkpt lat="43.40478925987823" lon="10.924863347836636"><ele>379.0</ele><time>2026-04-18T10:41:14Z</time></trkpt><trkpt lat="43.404698370616295" lon="10.924782622486036"><ele>379.0</ele><time>2026-04-18T10:41:15Z</time></trkpt><trkpt lat="43.40460573909814" lon="10.924699540957368"><ele>379.0</ele><time>2026-04-18T10:41:16Z</time></trkpt><trkpt lat="43.40451218460424" lon="10.924612162120573"><ele>379.0</ele><time>2026-04-18T10:41:17Z</time></trkpt><trkpt lat="43.40440882812344" lon="10.924530512385337"><ele>379.25</ele><time>2026-04-18T10:41:18Z</time></trkpt><trkpt lat="43.4043118526869" lon="10.924428287093283"><ele>379.5</ele><time>2026-04-18T10:41:19Z</time></trkpt><trkpt lat="43.40421590279047" lon="10.924325239516646"><ele>379.75</ele><time>2026-04-18T10:41:20Z</time></trkpt><trkpt lat="43.40411717678194" lon="10.924220585859624"><ele>380.0</ele><time>2026-04-18T10:41:21Z</time></trkpt><trkpt lat="43.40402079200851" lon="10.92410955690679"><ele>380.0</ele><time>2026-04-18T10:41:22Z</time></trkpt><trkpt lat="43.40392633245488" lon="10.923998559185888"><ele>380.0</ele><time>2026-04-18T10:41:23Z</time></trkpt><trkpt lat="43.40384060592554" lon="10.92387998641282"><ele>380.0</ele><time>2026-04-18T10:41:24Z</time></trkpt><trkpt lat="43.40375639990378" lon="10.92376491424557"><ele>380.0</ele><time>2026-04-18T10:41:25Z</time></trkpt><trkpt lat="43.403682146999856" lon="10.923643624417728"><ele>380.2</ele><time>2026-04-18T10:41:26.001Z</time></trkpt><trkpt lat="43.403615118647316" lon="10.92351627598448"><ele>380.4</ele><time>2026-04-18T10:41:27.001Z</time></trkpt><trkpt lat="43.40356359856837" lon="10.92338433327621"><ele>380.6</ele><time>2026-04-18T10:41:28.001Z</time></trkpt><trkpt lat="43.4035404737302" lon="10.923229544714115"><ele>380.8</ele><time>2026-04-18T10:41:29.001Z</time></trkpt><trkpt lat="43.40350712332779" lon="10.923085723504107"><ele>381.0</ele><time>2026-04-18T10:41:30.001Z</time></trkpt><trkpt lat="43.403465328581056" lon="10.922947059069756"><ele>381.0</ele><time>2026-04-18T10:41:31.001Z</time></trkpt><trkpt lat="43.403424854380035" lon="10.922822412532785"><ele>381.0</ele><time>2026-04-18T10:41:32.001Z</time></trkpt><trkpt lat="43.40340409505082" lon="10.922703440945657"><ele>381.0</ele><time>2026-04-18T10:41:33.001Z</time></trkpt><trkpt lat="43.40336470159352" lon="10.922578103094036"><ele>381.0</ele><time>2026-04-18T10:41:34.001Z</time></trkpt><trkpt lat="43.40332476736611" lon="10.922441096844677"><ele>381.0</ele><time>2026-04-18T10:41:35.001Z</time></trkpt><trkpt lat="43.40328272017674" lon="10.922289769039118"><ele>379.75</ele><time>2026-04-18T10:41:36.001Z</time></trkpt><trkpt lat="43.40323810013216" lon="10.922122642502057"><ele>378.5</ele><time>2026-04-18T10:41:37.001Z</time></trkpt><trkpt lat="43.403201905089205" lon="10.921971344354667"><ele>377.25</ele><time>2026-04-18T10:41:38.001Z</time></trkpt><trkpt lat="43.40317003901874" lon="10.921833609990157"><ele>376.0</ele><time>2026-04-18T10:41:39.001Z</time></trkpt><trkpt lat="43.40313670927009" lon="10.92168073908794"><ele>375.20000000000005</ele><time>2026-04-18T10:41:40.001Z</time></trkpt><trkpt lat="43.40310725952719" lon="10.921545417318422"><ele>374.40000000000003</ele><time>2026-04-18T10:41:41.001Z</time></trkpt><trkpt lat="43.40307814543774" lon="10.921408335503143"><ele>373.6</ele><time>2026-04-18T10:41:42.001Z</time></trkpt><trkpt lat="43.403077054949314" lon="10.921269725453909"><ele>372.8</ele><time>2026-04-18T10:41:43.001Z</time></trkpt><trkpt lat="43.40308982913028" lon="10.921129596216268"><ele>372.0</ele><time>2026-04-18T10:41:44.001Z</time></trkpt><trkpt lat="43.403118068533104" lon="10.92099353163731"><ele>371.20000000000005</ele><time>2026-04-18T10:41:45.001Z</time></trkpt><trkpt lat="43.40315957248023" lon="10.920847768499192"><ele>370.4</ele><time>2026-04-18T10:41:46.001Z</time></trkpt><trkpt lat="43.40321189642761" lon="10.920706500200323"><ele>369.6</ele><time>2026-04-18T10:41:47.001Z</time></trkpt><trkpt lat="43.40325662824606" lon="10.920582563197407"><ele>368.79999999999995</ele><time>2026-04-18T10:41:48.001Z</time></trkpt><trkpt lat="43.40329612357439" lon="10.920464446466095"><ele>368.0</ele><time>2026-04-18T10:41:49.001Z</time></trkpt><trkpt lat="43.40334317405346" lon="10.920341409588513"><ele>368.0</ele><time>2026-04-18T10:41:50.001Z</time></trkpt><trkpt lat="43.40339735793425" lon="10.920217811480335"><ele>368.0</ele><time>2026-04-18T10:41:51.001Z</time></trkpt><trkpt lat="43.40344476138247" lon="10.920088857435031"><ele>368.0</ele><time>2026-04-18T10:41:52.001Z</time></trkpt><trkpt lat="43.40349072263514" lon="10.919959769242267"><ele>368.0</ele><time>2026-04-18T10:41:53.001Z</time></trkpt><trkpt lat="43.403532688800524" lon="10.919825731142323"><ele>368.0</ele><time>2026-04-18T10:41:54.001Z</time></trkpt><trkpt lat="43.40358283221322" lon="10.919690201270317"><ele>367.5</ele><time>2026-04-18T10:41:55.001Z</time></trkpt><trkpt lat="43.40362225404006" lon="10.9195535188146"><ele>367.0</ele><time>2026-04-18T10:41:56.001Z</time></trkpt><trkpt lat="43.40366372146266" lon="10.9194029276141"><ele>366.5</ele><time>2026-04-18T10:41:57.001Z</time></trkpt><trkpt lat="43.4037004687783" lon="10.919243920001895"><ele>366.0</ele><time>2026-04-18T10:41:58.001Z</time></trkpt><trkpt lat="43.40373974252457" lon="10.919076169503919"><ele>365.0</ele><time>2026-04-18T10:41:59.001Z</time></trkpt><trkpt lat="43.403770087525984" lon="10.918902053071983"><ele>364.0</ele><time>2026-04-18T10:42:00.001Z</time></trkpt><trkpt lat="43.40379175130266" lon="10.918728952486594"><ele>363.0</ele><time>2026-04-18T10:42:01.001Z</time></trkpt><trkpt lat="43.40379718088792" lon="10.918560814484511"><ele>362.0</ele><time>2026-04-18T10:42:02.001Z</time></trkpt><trkpt lat="43.40378449746368" lon="10.918402786277545"><ele>360.8</ele><time>2026-04-18T10:42:03.001Z</time></trkpt><trkpt lat="43.40376485934487" lon="10.918282920828391"><ele>359.6</ele><time>2026-04-18T10:42:04.001Z</time></trkpt><trkpt lat="43.403733731526756" lon="10.918161816440447"><ele>358.40000000000003</ele><time>2026-04-18T10:42:05.001Z</time></trkpt><trkpt lat="43.40368122709023" lon="10.918036559844568"><ele>357.20000000000005</ele><time>2026-04-18T10:42:06.001Z</time></trkpt><trkpt lat="43.403610699718556" lon="10.917909301923794"><ele>356.0</ele><time>2026-04-18T10:42:07.001Z</time></trkpt><trkpt lat="43.40353878256712" lon="10.91778642443812"><ele>356.0</ele><time>2026-04-18T10:42:08.001Z</time></trkpt><trkpt lat="43.403475148769445" lon="10.917657378286709"><ele>356.0</ele><time>2026-04-18T10:42:09.001Z</time></trkpt><trkpt lat="43.40342620021767" lon="10.917517449233884"><ele>356.0</ele><time>2026-04-18T10:42:10.001Z</time></trkpt><trkpt lat="43.40339786429107" lon="10.917367304934915"><ele>356.0</ele><time>2026-04-18T10:42:11.001Z</time></trkpt><trkpt lat="43.40337922776415" lon="10.917220720457793"><ele>356.0</ele><time>2026-04-18T10:42:12.001Z</time></trkpt><trkpt lat="43.40335643331646" lon="10.91708198578342"><ele>354.6</ele><time>2026-04-18T10:42:13.001Z</time></trkpt><trkpt lat="43.40332527673131" lon="10.916954986205832"><ele>353.20000000000005</ele><time>2026-04-18T10:42:14.001Z</time></trkpt><trkpt lat="43.4032792546883" lon="10.916832707492016"><ele>351.79999999999995</ele><time>2026-04-18T10:42:15.001Z</time></trkpt><trkpt lat="43.40320947209446" lon="10.916705977211043"><ele>350.4</ele><time>2026-04-18T10:42:16.001Z</time></trkpt><trkpt lat="43.40313277204983" lon="10.916612807331122"><ele>349.0</ele><time>2026-04-18T10:42:17.001Z</time></trkpt><trkpt lat="43.40302993307258" lon="10.916516719515265"><ele>348.75</ele><time>2026-04-18T10:42:18.001Z</time></trkpt><trkpt lat="43.40292742728746" lon="10.916412581408755"><ele>348.5</ele><time>2026-04-18T10:42:19.001Z</time></trkpt><trkpt lat="43.40283741803647" lon="10.91628489229124"><ele>348.25</ele><time>2026-04-18T10:42:20.001Z</time></trkpt><trkpt lat="43.402726080661886" lon="10.91617222082659"><ele>348.0</ele><time>2026-04-18T10:42:21.001Z</time></trkpt><trkpt lat="43.40260748902158" lon="10.916057574006686"><ele>348.0</ele><time>2026-04-18T10:42:22.001Z</time></trkpt><trkpt lat="43.40249345997359" lon="10.9159490603554"><ele>348.0</ele><time>2026-04-18T10:42:23.001Z</time></trkpt><trkpt lat="43.40239614714528" lon="10.915863478741201"><ele>348.0</ele><time>2026-04-18T10:42:24.001Z</time></trkpt><trkpt lat="43.40232264084228" lon="10.91577500609506"><ele>348.0</ele><time>2026-04-18T10:42:25.001Z</time></trkpt><trkpt lat="43.40226872080439" lon="10.915713730190467"><ele>348.0</ele><time>2026-04-18T10:42:26.001Z</time></trkpt><trkpt lat="43.402217381310436" lon="10.915650138254083"><ele>346.3333333333333</ele><time>2026-04-18T10:42:27.002Z</time></trkpt><trkpt lat="43.402206098190334" lon="10.915490341267848"><ele>344.6666666666667</ele><time>2026-04-18T10:42:29.002Z</time></trkpt><trkpt lat="43.402270219497694" lon="10.915504837739409"><ele>343.0</ele><time>2026-04-18T10:42:30.002Z</time></trkpt><trkpt lat="43.40234698550008" lon="10.915493133740851"><ele>341.33333333333337</ele><time>2026-04-18T10:42:31.002Z</time></trkpt><trkpt lat="43.402431937055525" lon="10.91545226535383"><ele>339.6666666666667</ele><time>2026-04-18T10:42:32.002Z</time></trkpt><trkpt lat="43.40251556477688" lon="10.915406170259876"><ele>338.0</ele><time>2026-04-18T10:42:33.002Z</time></trkpt><trkpt lat="43.40258600704391" lon="10.915339915199901"><ele>338.0</ele><time>2026-04-18T10:42:34.002Z</time></trkpt><trkpt lat="43.402650632532456" lon="10.915279350207706"><ele>338.0</ele><time>2026-04-18T10:42:35.002Z</time></trkpt><trkpt lat="43.40271465346545" lon="10.915190821060497"><ele>338.0</ele><time>2026-04-18T10:42:36.002Z</time></trkpt><trkpt lat="43.402758811294774" lon="10.915072861733993"><ele>338.0</ele><time>2026-04-18T10:42:37.002Z</time></trkpt><trkpt lat="43.40278737820437" lon="10.914928993119151"><ele>338.0</ele><time>2026-04-18T10:42:38.002Z</time></trkpt><trkpt lat="43.40281137929428" lon="10.914788001577058"><ele>335.5</ele><time>2026-04-18T10:42:39.002Z</time></trkpt><trkpt lat="43.40285248997129" lon="10.914615393217117"><ele>333.0</ele><time>2026-04-18T10:42:40.002Z</time></trkpt><trkpt lat="43.402891867417814" lon="10.914445934635681"><ele>330.5</ele><time>2026-04-18T10:42:41.002Z</time></trkpt><trkpt lat="43.402924016491774" lon="10.914269210247753"><ele>328.0</ele><time>2026-04-18T10:42:42.002Z</time></trkpt><trkpt lat="43.40295469615836" lon="10.914090896984742"><ele>326.5</ele><time>2026-04-18T10:42:43.002Z</time></trkpt><trkpt lat="43.40298369652583" lon="10.913906854141072"><ele>325.0</ele><time>2026-04-18T10:42:44.002Z</time></trkpt><trkpt lat="43.40300515247517" lon="10.91371252753893"><ele>323.5</ele><time>2026-04-18T10:42:45.002Z</time></trkpt><trkpt lat="43.40301530919867" lon="10.913516119074263"><ele>322.0</ele><time>2026-04-18T10:42:46.002Z</time></trkpt><trkpt lat="43.40302263145632" lon="10.913303817143602"><ele>321.3333333333333</ele><time>2026-04-18T10:42:47.002Z</time></trkpt><trkpt lat="43.40301650738163" lon="10.913087810833341"><ele>320.6666666666667</ele><time>2026-04-18T10:42:48.002Z</time></trkpt><trkpt lat="43.40299318931516" lon="10.912874598306633"><ele>320.0</ele><time>2026-04-18T10:42:49Z</time></trkpt><trkpt lat="43.402967386791275" lon="10.912650183156128"><ele>321.0</ele><time>2026-04-18T10:42:50Z</time></trkpt><trkpt lat="43.40293971884039" lon="10.91240043650796"><ele>322.0</ele><time>2026-04-18T10:42:51Z</time></trkpt><trkpt lat="43.40291958747145" lon="10.912129490723252"><ele>323.0</ele><time>2026-04-18T10:42:52Z</time></trkpt><trkpt lat="43.40287420195237" lon="10.911859319719841"><ele>325.0</ele><time>2026-04-18T10:42:53Z</time></trkpt><trkpt lat="43.402854695494575" lon="10.911564254668948"><ele>327.0</ele><time>2026-04-18T10:42:54Z</time></trkpt><trkpt lat="43.4028200315817" lon="10.911269098992035"><ele>329.0</ele><time>2026-04-18T10:42:55Z</time></trkpt><trkpt lat="43.40277024197297" lon="10.911003076175488"><ele>331.0</ele><time>2026-04-18T10:42:56Z</time></trkpt><trkpt lat="43.402739324735556" lon="10.9107845276228"><ele>333.0</ele><time>2026-04-18T10:42:57Z</time></trkpt><trkpt lat="43.40268692857075" lon="10.91058488832329"><ele>335.0</ele><time>2026-04-18T10:42:58Z</time></trkpt><trkpt lat="43.402612556559674" lon="10.910404445380395"><ele>335.0</ele><time>2026-04-18T10:42:59Z</time></trkpt><trkpt lat="43.40253694759699" lon="10.910223947288845"><ele>335.0</ele><time>2026-04-18T10:43:00Z</time></trkpt><trkpt lat="43.402466446882215" lon="10.91003464900437"><ele>335.0</ele><time>2026-04-18T10:43:01Z</time></trkpt><trkpt lat="43.40239845530842" lon="10.909837442301441"><ele>337.6666666666667</ele><time>2026-04-18T10:43:02Z</time></trkpt><trkpt lat="43.40232342425344" lon="10.909628902616701"><ele>340.3333333333333</ele><time>2026-04-18T10:43:03Z</time></trkpt><trkpt lat="43.40224448251198" lon="10.909423993968456"><ele>343.0</ele><time>2026-04-18T10:43:04Z</time></trkpt><trkpt lat="43.402160534491244" lon="10.909202362589383"><ele>343.75</ele><time>2026-04-18T10:43:05Z</time></trkpt><trkpt lat="43.402081900430666" lon="10.908988076513463"><ele>344.5</ele><time>2026-04-18T10:43:06Z</time></trkpt><trkpt lat="43.40202776717714" lon="10.908833214908924"><ele>345.25</ele><time>2026-04-18T10:43:07Z</time></trkpt><trkpt lat="43.40198632593121" lon="10.908711202222069"><ele>346.0</ele><time>2026-04-18T10:43:08Z</time></trkpt><trkpt lat="43.401947148288194" lon="10.908611104530326"><ele>346.0</ele><time>2026-04-18T10:43:09Z</time></trkpt><trkpt lat="43.40189291587202" lon="10.908532386751732"><ele>346.0</ele><time>2026-04-18T10:43:10Z</time></trkpt><trkpt lat="43.40178896603743" lon="10.908472248837448"><ele>346.0</ele><time>2026-04-18T10:43:12Z</time></trkpt><trkpt lat="43.40167995104162" lon="10.908471822503166"><ele>346.0</ele><time>2026-04-18T10:43:14Z</time></trkpt><trkpt lat="43.40161001763704" lon="10.908471023227765"><ele>346.0</ele><time>2026-04-18T10:43:16Z</time></trkpt><trkpt lat="43.40153939792366" lon="10.908466661175506"><ele>346.0</ele><time>2026-04-18T10:43:19Z</time></trkpt><trkpt lat="43.401469955048036" lon="10.908482276304703"><ele>346.0</ele><time>2026-04-18T10:43:22Z</time></trkpt><trkpt lat="43.40138813122391" lon="10.908498129553212"><ele>346.0</ele><time>2026-04-18T10:43:24.001Z</time></trkpt><trkpt lat="43.401281991695164" lon="10.908507010973786"><ele>346.0</ele><time>2026-04-18T10:43:26.001Z</time></trkpt><trkpt lat="43.401155008684945" lon="10.908523733102802"><ele>346.0</ele><time>2026-04-18T10:43:28.001Z</time></trkpt><trkpt lat="43.40108135139624" lon="10.908537560984936"><ele>346.0</ele><time>2026-04-18T10:43:29.001Z</time></trkpt><trkpt lat="43.40100643309015" lon="10.908545767496983"><ele>346.0</ele><time>2026-04-18T10:43:30.001Z</time></trkpt><trkpt lat="43.40092787719763" lon="10.908560246841677"><ele>346.0</ele><time>2026-04-18T10:43:31.001Z</time></trkpt><trkpt lat="43.40085590036717" lon="10.908566647922937"><ele>346.0</ele><time>2026-04-18T10:43:32.001Z</time></trkpt><trkpt lat="43.4007783558391" lon="10.908572089413287"><ele>346.0</ele><time>2026-04-18T10:43:33.001Z</time></trkpt><trkpt lat="43.40070700164286" lon="10.908579186640482"><ele>346.0</ele><time>2026-04-18T10:43:34.001Z</time></trkpt><trkpt lat="43.40063050127387" lon="10.908590120296347"><ele>346.0</ele><time>2026-04-18T10:43:35.001Z</time></trkpt><trkpt lat="43.40056214713157" lon="10.908597788310546"><ele>346.0</ele><time>2026-04-18T10:43:36.001Z</time></trkpt><trkpt lat="43.4004975500298" lon="10.908607199752407"><ele>346.4</ele><time>2026-04-18T10:43:37.001Z</time></trkpt><trkpt lat="43.40038805186598" lon="10.908628538456172"><ele>346.8</ele><time>2026-04-18T10:43:39.001Z</time></trkpt><trkpt lat="43.40027621796567" lon="10.908628310106307"><ele>347.2</ele><time>2026-04-18T10:43:41.001Z</time></trkpt><trkpt lat="43.40019242186742" lon="10.908562010551583"><ele>347.59999999999997</ele><time>2026-04-18T10:43:43.001Z</time></trkpt><trkpt lat="43.400162230884504" lon="10.908447893086162"><ele>348.0</ele><time>2026-04-18T10:43:46.001Z</time></trkpt><trkpt lat="43.400138589622244" lon="10.90833926647093"><ele>348.59999999999997</ele><time>2026-04-18T10:43:48.001Z</time></trkpt><trkpt lat="43.400096197564736" lon="10.90822134208337"><ele>349.2</ele><time>2026-04-18T10:43:50.001Z</time></trkpt><trkpt lat="43.40002388084485" lon="10.908092564821079"><ele>349.8</ele><time>2026-04-18T10:43:52.001Z</time></trkpt><trkpt lat="43.399971696226864" lon="10.907959304930793"><ele>350.4</ele><time>2026-04-18T10:43:54.001Z</time></trkpt><trkpt lat="43.3999670270363" lon="10.907862403304422"><ele>351.0</ele><time>2026-04-18T10:43:55.001Z</time></trkpt><trkpt lat="43.3999735935823" lon="10.907761854202157"><ele>351.0</ele><time>2026-04-18T10:43:56.001Z</time></trkpt><trkpt lat="43.40000354576926" lon="10.907664914860863"><ele>351.0</ele><time>2026-04-18T10:43:57.001Z</time></trkpt><trkpt lat="43.40001149292537" lon="10.907555866431974"><ele>351.0</ele><time>2026-04-18T10:43:58.001Z</time></trkpt><trkpt lat="43.40003139095804" lon="10.907452011712106"><ele>351.0</ele><time>2026-04-18T10:43:59.001Z</time></trkpt><trkpt lat="43.40005509691673" lon="10.907346698172823"><ele>351.0</ele><time>2026-04-18T10:44:00.001Z</time></trkpt><trkpt lat="43.4000810159438" lon="10.907238710549906"><ele>351.0</ele><time>2026-04-18T10:44:01.001Z</time></trkpt><trkpt lat="43.400108265188436" lon="10.907130582327808"><ele>349.8333333333333</ele><time>2026-04-18T10:44:02.001Z</time></trkpt><trkpt lat="43.40013604584819" lon="10.907023622003136"><ele>348.6666666666667</ele><time>2026-04-18T10:44:03.001Z</time></trkpt><trkpt lat="43.40016235749036" lon="10.906914188323386"><ele>347.5</ele><time>2026-04-18T10:44:04.001Z</time></trkpt><trkpt lat="43.40018802408806" lon="10.906805125097327"><ele>346.33333333333337</ele><time>2026-04-18T10:44:05.001Z</time></trkpt><trkpt lat="43.40021573339147" lon="10.906695725103884"><ele>345.1666666666667</ele><time>2026-04-18T10:44:06.001Z</time></trkpt><trkpt lat="43.40024202560598" lon="10.906593330921005"><ele>344.0</ele><time>2026-04-18T10:44:07.001Z</time></trkpt><trkpt lat="43.400269149300385" lon="10.906514159530566"><ele>343.4</ele><time>2026-04-18T10:44:08.001Z</time></trkpt><trkpt lat="43.40028624658994" lon="10.90638108551885"><ele>342.79999999999995</ele><time>2026-04-18T10:44:10.001Z</time></trkpt><trkpt lat="43.40028460911274" lon="10.906225421817572"><ele>342.20000000000005</ele><time>2026-04-18T10:44:12.001Z</time></trkpt><trkpt lat="43.40026942420429" lon="10.906128202627364"><ele>341.6</ele><time>2026-04-18T10:44:13.001Z</time></trkpt><trkpt lat="43.40023822161033" lon="10.906021207079156"><ele>341.0</ele><time>2026-04-18T10:44:14.001Z</time></trkpt><trkpt lat="43.400197556005985" lon="10.905910209611386"><ele>341.0</ele><time>2026-04-18T10:44:15.001Z</time></trkpt><trkpt lat="43.400143528812" lon="10.905795507628532"><ele>341.0</ele><time>2026-04-18T10:44:16.001Z</time></trkpt><trkpt lat="43.4000862759415" lon="10.905678972418064"><ele>341.0</ele><time>2026-04-18T10:44:17.001Z</time></trkpt><trkpt lat="43.40002776058184" lon="10.905560988621064"><ele>341.0</ele><time>2026-04-18T10:44:18.001Z</time></trkpt><trkpt lat="43.39997319144439" lon="10.905442510023915"><ele>341.0</ele><time>2026-04-18T10:44:19.001Z</time></trkpt><trkpt lat="43.39992553048923" lon="10.905322057521115"><ele>341.0</ele><time>2026-04-18T10:44:20.001Z</time></trkpt><trkpt lat="43.39989293303585" lon="10.905212926032481"><ele>341.0</ele><time>2026-04-18T10:44:21.001Z</time></trkpt><trkpt lat="43.39986630416922" lon="10.90511789836969"><ele>341.0</ele><time>2026-04-18T10:44:22.001Z</time></trkpt><trkpt lat="43.39983387901457" lon="10.904972943012988"><ele>341.0</ele><time>2026-04-18T10:44:24.001Z</time></trkpt><trkpt lat="43.39977109956473" lon="10.904894941444821"><ele>341.0</ele><time>2026-04-18T10:44:26.001Z</time></trkpt><trkpt lat="43.39967441309621" lon="10.904973027470664"><ele>341.0</ele><time>2026-04-18T10:44:28.001Z</time></trkpt><trkpt lat="43.39964841951041" lon="10.905058970749687"><ele>341.0</ele><time>2026-04-18T10:44:29.002Z</time></trkpt><trkpt lat="43.399636372150816" lon="10.905156799915938"><ele>341.0</ele><time>2026-04-18T10:44:30.002Z</time></trkpt><trkpt lat="43.39964852750605" lon="10.905254728503206"><ele>341.0</ele><time>2026-04-18T10:44:31.002Z</time></trkpt><trkpt lat="43.39966761840524" lon="10.90535368933407"><ele>341.0</ele><time>2026-04-18T10:44:32.002Z</time></trkpt><trkpt lat="43.39970449945126" lon="10.905492292251981"><ele>341.0</ele><time>2026-04-18T10:44:34.002Z</time></trkpt><trkpt lat="43.39969471445726" lon="10.905594136605536"><ele>336.5</ele><time>2026-04-18T10:44:36.002Z</time></trkpt><trkpt lat="43.39957935291815" lon="10.90556661711679"><ele>332.0</ele><time>2026-04-18T10:44:38.002Z</time></trkpt><trkpt lat="43.39952901165192" lon="10.905510227822317"><ele>327.5</ele><time>2026-04-18T10:44:39.002Z</time></trkpt><trkpt lat="43.399478649913505" lon="10.905446126480385"><ele>323.0</ele><time>2026-04-18T10:44:40.002Z</time></trkpt><trkpt lat="43.39943914274489" lon="10.905359178991949"><ele>318.5</ele><time>2026-04-18T10:44:41.002Z</time></trkpt><trkpt lat="43.39941603998319" lon="10.905243338817408"><ele>314.0</ele><time>2026-04-18T10:44:42.002Z</time></trkpt><trkpt lat="43.39939381084307" lon="10.90512792556558"><ele>314.2857142857143</ele><time>2026-04-18T10:44:43.002Z</time></trkpt><trkpt lat="43.39935890758902" lon="10.905030677935548"><ele>314.57142857142856</ele><time>2026-04-18T10:44:44.002Z</time></trkpt><trkpt lat="43.39932061957765" lon="10.904943509804214"><ele>314.8571428571429</ele><time>2026-04-18T10:44:45.002Z</time></trkpt><trkpt lat="43.39929123533087" lon="10.904852109649847"><ele>315.1428571428571</ele><time>2026-04-18T10:44:46.002Z</time></trkpt><trkpt lat="43.39926789205786" lon="10.90475485239085"><ele>315.42857142857144</ele><time>2026-04-18T10:44:47.002Z</time></trkpt><trkpt lat="43.39926112299877" lon="10.904654221937895"><ele>315.7142857142857</ele><time>2026-04-18T10:44:48.002Z</time></trkpt><trkpt lat="43.399281088680596" lon="10.90456106414194"><ele>316.0</ele><time>2026-04-18T10:44:49.002Z</time></trkpt><trkpt lat="43.39933516421693" lon="10.904476828610877"><ele>316.0</ele><time>2026-04-18T10:44:50.002Z</time></trkpt><trkpt lat="43.39943179680495" lon="10.904418229334805"><ele>316.0</ele><time>2026-04-18T10:44:51.002Z</time></trkpt><trkpt lat="43.399487043234316" lon="10.904320131047402"><ele>316.0</ele><time>2026-04-18T10:44:52.002Z</time></trkpt><trkpt lat="43.399534000951085" lon="10.90424840447144"><ele>316.0</ele><time>2026-04-18T10:44:53.002Z</time></trkpt><trkpt lat="43.399557986618326" lon="10.904149920564814"><ele>316.0</ele><time>2026-04-18T10:44:54.002Z</time></trkpt><trkpt lat="43.39955671857641" lon="10.90401731995729"><ele>316.0</ele><time>2026-04-18T10:44:56Z</time></trkpt><trkpt lat="43.39944072062036" lon="10.903946856219266"><ele>316.0</ele><time>2026-04-18T10:44:58Z</time></trkpt><trkpt lat="43.39936553653067" lon="10.904006394634992"><ele>316.0</ele><time>2026-04-18T10:44:59Z</time></trkpt><trkpt lat="43.39928364313685" lon="10.904114699642518"><ele>316.0</ele><time>2026-04-18T10:45:00Z</time></trkpt><trkpt lat="43.399204063972284" lon="10.90419861676794"><ele>316.0</ele><time>2026-04-18T10:45:01Z</time></trkpt><trkpt lat="43.399125036994526" lon="10.904283980245363"><ele>316.0</ele><time>2026-04-18T10:45:02Z</time></trkpt><trkpt lat="43.399052263058984" lon="10.904373599884188"><ele>316.0</ele><time>2026-04-18T10:45:03Z</time></trkpt><trkpt lat="43.39898985799358" lon="10.90448079001944"><ele>316.0</ele><time>2026-04-18T10:45:04Z</time></trkpt><trkpt lat="43.398943481750315" lon="10.904612769068205"><ele>316.0</ele><time>2026-04-18T10:45:05Z</time></trkpt><trkpt lat="43.39890602744599" lon="10.904761461403412"><ele>316.0</ele><time>2026-04-18T10:45:06Z</time></trkpt><trkpt lat="43.39884423068964" lon="10.904910464168669"><ele>316.0</ele><time>2026-04-18T10:45:07Z</time></trkpt><trkpt lat="43.39877767525525" lon="10.90508260277879"><ele>312.2</ele><time>2026-04-18T10:45:08Z</time></trkpt><trkpt lat="43.39870700214811" lon="10.905232440108215"><ele>308.40000000000003</ele><time>2026-04-18T10:45:09Z</time></trkpt><trkpt lat="43.39864589858812" lon="10.905374492489418"><ele>304.6</ele><time>2026-04-18T10:45:10Z</time></trkpt><trkpt lat="43.398595985909104" lon="10.905490528500424"><ele>300.8</ele><time>2026-04-18T10:45:11Z</time></trkpt><trkpt lat="43.39855470833931" lon="10.905586489974848"><ele>297.0</ele><time>2026-04-18T10:45:12Z</time></trkpt><trkpt lat="43.39846623637434" lon="10.90569077179979"><ele>297.0</ele><time>2026-04-18T10:45:14Z</time></trkpt><trkpt lat="43.398397656449326" lon="10.905662292339766"><ele>297.0</ele><time>2026-04-18T10:45:15Z</time></trkpt><trkpt lat="43.39834125417991" lon="10.905610606807494"><ele>297.0</ele><time>2026-04-18T10:45:16Z</time></trkpt><trkpt lat="43.39830074401106" lon="10.905521160712969"><ele>297.0</ele><time>2026-04-18T10:45:17Z</time></trkpt><trkpt lat="43.39826949288262" lon="10.905413781840865"><ele>297.0</ele><time>2026-04-18T10:45:18Z</time></trkpt><trkpt lat="43.39824666747773" lon="10.905284699347078"><ele>297.0</ele><time>2026-04-18T10:45:19Z</time></trkpt><trkpt lat="43.39821284031436" lon="10.9051493463687"><ele>296.4</ele><time>2026-04-18T10:45:20Z</time></trkpt><trkpt lat="43.398186998297994" lon="10.905035325215664"><ele>295.79999999999995</ele><time>2026-04-18T10:45:21Z</time></trkpt><trkpt lat="43.398173352632796" lon="10.9049393832283"><ele>295.2</ele><time>2026-04-18T10:45:22Z</time></trkpt><trkpt lat="43.398163370467145" lon="10.90477148179409"><ele>294.59999999999997</ele><time>2026-04-18T10:45:24Z</time></trkpt><trkpt lat="43.398193591229195" lon="10.904625452660055"><ele>294.0</ele><time>2026-04-18T10:45:26Z</time></trkpt><trkpt lat="43.39821729563696" lon="10.904542614818977"><ele>294.0</ele><time>2026-04-18T10:45:27Z</time></trkpt><trkpt lat="43.398239572149116" lon="10.904461083430645"><ele>294.0</ele><time>2026-04-18T10:45:28Z</time></trkpt><trkpt lat="43.39828466175535" lon="10.90431867305465"><ele>294.0</ele><time>2026-04-18T10:45:30Z</time></trkpt><trkpt lat="43.39831561566767" lon="10.904206610234732"><ele>294.0</ele><time>2026-04-18T10:45:32Z</time></trkpt><trkpt lat="43.398271831817716" lon="10.904124494534646"><ele>294.0</ele><time>2026-04-18T10:45:34Z</time></trkpt><trkpt lat="43.39817444448696" lon="10.904073177648696"><ele>294.0</ele><time>2026-04-18T10:45:36Z</time></trkpt><trkpt lat="43.39810473733174" lon="10.904162427918735"><ele>294.0</ele><time>2026-04-18T10:45:37Z</time></trkpt><trkpt lat="43.398050417499626" lon="10.904221710880188"><ele>294.0</ele><time>2026-04-18T10:45:38Z</time></trkpt><trkpt lat="43.39800645632351" lon="10.904305262516155"><ele>294.0</ele><time>2026-04-18T10:45:39Z</time></trkpt><trkpt lat="43.3979487762188" lon="10.904384400792694"><ele>294.0</ele><time>2026-04-18T10:45:40Z</time></trkpt><trkpt lat="43.39789515645254" lon="10.904469914145178"><ele>294.0</ele><time>2026-04-18T10:45:41Z</time></trkpt><trkpt lat="43.39783284603126" lon="10.904563383012217"><ele>294.0</ele><time>2026-04-18T10:45:42Z</time></trkpt><trkpt lat="43.39778762350335" lon="10.90468167401559"><ele>291.2</ele><time>2026-04-18T10:45:43Z</time></trkpt><trkpt lat="43.397758205091016" lon="10.904805819434552"><ele>288.4</ele><time>2026-04-18T10:45:44Z</time></trkpt><trkpt lat="43.39771393249839" lon="10.90491985654341"><ele>285.6</ele><time>2026-04-18T10:45:45Z</time></trkpt><trkpt lat="43.39767368886129" lon="10.905029405603536"><ele>282.8</ele><time>2026-04-18T10:45:46Z</time></trkpt><trkpt lat="43.39763521382929" lon="10.905139679991006"><ele>280.0</ele><time>2026-04-18T10:45:47Z</time></trkpt><trkpt lat="43.39758954778841" lon="10.905249384520214"><ele>280.0</ele><time>2026-04-18T10:45:48Z</time></trkpt><trkpt lat="43.39754812849471" lon="10.905361173277283"><ele>280.0</ele><time>2026-04-18T10:45:49Z</time></trkpt><trkpt lat="43.39750171865485" lon="10.905466676919898"><ele>280.0</ele><time>2026-04-18T10:45:50Z</time></trkpt><trkpt lat="43.39746035650064" lon="10.905564843101807"><ele>280.0</ele><time>2026-04-18T10:45:51Z</time></trkpt><trkpt lat="43.39741197783583" lon="10.905660742565567"><ele>280.0</ele><time>2026-04-18T10:45:52.001Z</time></trkpt><trkpt lat="43.39740897404616" lon="10.905777041487728"><ele>280.0</ele><time>2026-04-18T10:45:53.001Z</time></trkpt><trkpt lat="43.3973532503078" lon="10.90589219985681"><ele>280.0</ele><time>2026-04-18T10:45:55.001Z</time></trkpt><trkpt lat="43.397287656379554" lon="10.905934271669713"><ele>280.0</ele><time>2026-04-18T10:45:57.001Z</time></trkpt><trkpt lat="43.39725174997673" lon="10.905851321007324"><ele>280.0</ele><time>2026-04-18T10:45:58.001Z</time></trkpt><trkpt lat="43.397175172333746" lon="10.90572469207421"><ele>280.0</ele><time>2026-04-18T10:46:00.001Z</time></trkpt><trkpt lat="43.39713888018719" lon="10.905641573899617"><ele>280.0</ele><time>2026-04-18T10:46:01.001Z</time></trkpt><trkpt lat="43.39710967495555" lon="10.905544950500232"><ele>280.0</ele><time>2026-04-18T10:46:02.001Z</time></trkpt><trkpt lat="43.39708442374663" lon="10.905453358867533"><ele>277.3333333333333</ele><time>2026-04-18T10:46:03.001Z</time></trkpt><trkpt lat="43.397056859906236" lon="10.905363971664963"><ele>274.66666666666663</ele><time>2026-04-18T10:46:04.001Z</time></trkpt><trkpt lat="43.397006386687934" lon="10.90522580192657"><ele>272.0</ele><time>2026-04-18T10:46:06.001Z</time></trkpt><trkpt lat="43.39692380491304" lon="10.905189910276912"><ele>269.3333333333333</ele><time>2026-04-18T10:46:08.001Z</time></trkpt><trkpt lat="43.39684086826172" lon="10.905245100739009"><ele>266.6666666666667</ele><time>2026-04-18T10:46:10.001Z</time></trkpt><trkpt lat="43.39680717187184" lon="10.905320064273829"><ele>264.0</ele><time>2026-04-18T10:46:11.001Z</time></trkpt><trkpt lat="43.39675290924276" lon="10.905470512956075"><ele>264.0</ele><time>2026-04-18T10:46:13.001Z</time></trkpt><trkpt lat="43.39672222356715" lon="10.905547921041041"><ele>264.0</ele><time>2026-04-18T10:46:14.001Z</time></trkpt><trkpt lat="43.396651113251956" lon="10.905685542711842"><ele>264.0</ele><time>2026-04-18T10:46:16.001Z</time></trkpt><trkpt lat="43.39655326338671" lon="10.905746163368779"><ele>264.0</ele><time>2026-04-18T10:46:18.001Z</time></trkpt><trkpt lat="43.39645273431191" lon="10.905718447758048"><ele>264.0</ele><time>2026-04-18T10:46:20.001Z</time></trkpt><trkpt lat="43.39638154445981" lon="10.905593981366964"><ele>264.0</ele><time>2026-04-18T10:46:22.001Z</time></trkpt><trkpt lat="43.39637105069969" lon="10.905501036161573"><ele>264.0</ele><time>2026-04-18T10:46:23.001Z</time></trkpt><trkpt lat="43.39637748952969" lon="10.905409434011718"><ele>264.0</ele><time>2026-04-18T10:46:24.001Z</time></trkpt><trkpt lat="43.39639734707393" lon="10.905304256791359"><ele>264.0</ele><time>2026-04-18T10:46:25.001Z</time></trkpt><trkpt lat="43.3964336881544" lon="10.905208694375153"><ele>264.0</ele><time>2026-04-18T10:46:26.001Z</time></trkpt><trkpt lat="43.39647249803807" lon="10.905097519460945"><ele>264.0</ele><time>2026-04-18T10:46:27.001Z</time></trkpt><trkpt lat="43.396496449058276" lon="10.904981255649307"><ele>264.2</ele><time>2026-04-18T10:46:28.001Z</time></trkpt><trkpt lat="43.39652274775432" lon="10.904865179822634"><ele>264.4</ele><time>2026-04-18T10:46:29.001Z</time></trkpt><trkpt lat="43.396522673751925" lon="10.90473674273612"><ele>264.6</ele><time>2026-04-18T10:46:30.001Z</time></trkpt><trkpt lat="43.39651607898222" lon="10.904611920604697"><ele>264.8</ele><time>2026-04-18T10:46:31.001Z</time></trkpt><trkpt lat="43.396516644412884" lon="10.904478812590403"><ele>265.0</ele><time>2026-04-18T10:46:32.001Z</time></trkpt><trkpt lat="43.39649119331445" lon="10.904338640193712"><ele>264.2</ele><time>2026-04-18T10:46:33.001Z</time></trkpt><trkpt lat="43.39645196692858" lon="10.90419841615592"><ele>263.4</ele><time>2026-04-18T10:46:34.001Z</time></trkpt><trkpt lat="43.39641137777255" lon="10.904070486297492"><ele>262.6</ele><time>2026-04-18T10:46:35.001Z</time></trkpt><trkpt lat="43.396374867519334" lon="10.903955412429259"><ele>261.8</ele><time>2026-04-18T10:46:36.001Z</time></trkpt><trkpt lat="43.39633647296589" lon="10.903828988018953"><ele>261.0</ele><time>2026-04-18T10:46:37.001Z</time></trkpt><trkpt lat="43.396305702684145" lon="10.903715755162573"><ele>256.8</ele><time>2026-04-18T10:46:38.001Z</time></trkpt><trkpt lat="43.39631217440603" lon="10.903578623427833"><ele>252.60000000000002</ele><time>2026-04-18T10:46:39.001Z</time></trkpt><trkpt lat="43.396323740641705" lon="10.903443215881438"><ele>248.4</ele><time>2026-04-18T10:46:40.001Z</time></trkpt><trkpt lat="43.39632853403415" lon="10.903318199446034"><ele>244.2</ele><time>2026-04-18T10:46:41.001Z</time></trkpt><trkpt lat="43.39633411092693" lon="10.903202749710598"><ele>240.0</ele><time>2026-04-18T10:46:42.001Z</time></trkpt><trkpt lat="43.39633568966428" lon="10.903096957646962"><ele>241.14285714285717</ele><time>2026-04-18T10:46:43.001Z</time></trkpt><trkpt lat="43.39635517840067" lon="10.90301331765258"><ele>242.28571428571428</ele><time>2026-04-18T10:46:44.001Z</time></trkpt><trkpt lat="43.39639489532613" lon="10.90294120416976"><ele>243.42857142857144</ele><time>2026-04-18T10:46:45.001Z</time></trkpt><trkpt lat="43.396456891216644" lon="10.902887952898494"><ele>244.57142857142858</ele><time>2026-04-18T10:46:46.001Z</time></trkpt><trkpt lat="43.39652161406905" lon="10.902849805530176"><ele>245.71428571428572</ele><time>2026-04-18T10:46:47.001Z</time></trkpt><trkpt lat="43.39658823929792" lon="10.90281971839021"><ele>246.85714285714286</ele><time>2026-04-18T10:46:48.001Z</time></trkpt><trkpt lat="43.39664864806308" lon="10.902764446954954"><ele>248.0</ele><time>2026-04-18T10:46:49.001Z</time></trkpt><trkpt lat="43.39668508778966" lon="10.902674251255716"><ele>248.00000000000003</ele><time>2026-04-18T10:46:50.001Z</time></trkpt><trkpt lat="43.396665345189824" lon="10.902591303174853"><ele>248.0</ele><time>2026-04-18T10:46:51.002Z</time></trkpt><trkpt lat="43.396611825085806" lon="10.902498185446449"><ele>248.0</ele><time>2026-04-18T10:46:52.002Z</time></trkpt><trkpt lat="43.39653435540382" lon="10.90245911573922"><ele>248.0</ele><time>2026-04-18T10:46:53.002Z</time></trkpt><trkpt lat="43.39643906403958" lon="10.902456794606929"><ele>248.00000000000003</ele><time>2026-04-18T10:46:54.002Z</time></trkpt><trkpt lat="43.39633411956098" lon="10.902481548651046"><ele>248.0</ele><time>2026-04-18T10:46:55.002Z</time></trkpt><trkpt lat="43.39625385772532" lon="10.902524228511012"><ele>245.4</ele><time>2026-04-18T10:46:56.002Z</time></trkpt><trkpt lat="43.396170926659146" lon="10.902563595860963"><ele>242.8</ele><time>2026-04-18T10:46:57.002Z</time></trkpt><trkpt lat="43.39610239778597" lon="10.902663139197998"><ele>240.2</ele><time>2026-04-18T10:46:58.002Z</time></trkpt><trkpt lat="43.39604883202175" lon="10.902771664815154"><ele>237.6</ele><time>2026-04-18T10:46:59.002Z</time></trkpt><trkpt lat="43.39599227155776" lon="10.902868975881297"><ele>235.0</ele><time>2026-04-18T10:47:00.002Z</time></trkpt><trkpt lat="43.39593803319634" lon="10.902950120413918"><ele>234.99999999999997</ele><time>2026-04-18T10:47:01Z</time></trkpt><trkpt lat="43.395902229485365" lon="10.903035429680532"><ele>235.0</ele><time>2026-04-18T10:47:02Z</time></trkpt><trkpt lat="43.39585571976969" lon="10.90310371009779"><ele>235.0</ele><time>2026-04-18T10:47:03Z</time></trkpt><trkpt lat="43.395777626691114" lon="10.903252924455005"><ele>235.0</ele><time>2026-04-18T10:47:05Z</time></trkpt><trkpt lat="43.39575477296233" lon="10.903366791326802"><ele>234.99999999999997</ele><time>2026-04-18T10:47:06Z</time></trkpt><trkpt lat="43.39574706780462" lon="10.90347629353137"><ele>235.0</ele><time>2026-04-18T10:47:07Z</time></trkpt><trkpt lat="43.3957486720605" lon="10.903590202449358"><ele>235.83333333333331</ele><time>2026-04-18T10:47:08Z</time></trkpt><trkpt lat="43.39574944901679" lon="10.903695984612694"><ele>236.66666666666666</ele><time>2026-04-18T10:47:09Z</time></trkpt><trkpt lat="43.39572569743521" lon="10.903844083383941"><ele>237.5</ele><time>2026-04-18T10:47:11Z</time></trkpt><trkpt lat="43.39565065761868" lon="10.903885757042493"><ele>238.33333333333331</ele><time>2026-04-18T10:47:13Z</time></trkpt><trkpt lat="43.39557455958836" lon="10.903791971689946"><ele>239.16666666666666</ele><time>2026-04-18T10:47:15Z</time></trkpt><trkpt lat="43.39558327688071" lon="10.903702572790625"><ele>240.0</ele><time>2026-04-18T10:47:16Z</time></trkpt><trkpt lat="43.39556082466675" lon="10.90352692010452"><ele>240.0</ele><time>2026-04-18T10:47:18Z</time></trkpt><trkpt lat="43.3955388637346" lon="10.903444660633243"><ele>240.0</ele><time>2026-04-18T10:47:19Z</time></trkpt><trkpt lat="43.3955277562057" lon="10.90335034244256"><ele>240.0</ele><time>2026-04-18T10:47:20Z</time></trkpt><trkpt lat="43.395517239210456" lon="10.903248532443659"><ele>240.0</ele><time>2026-04-18T10:47:21Z</time></trkpt><trkpt lat="43.39550818866962" lon="10.903140435243138"><ele>240.0</ele><time>2026-04-18T10:47:22Z</time></trkpt><trkpt lat="43.39549841751126" lon="10.903025594278212"><ele>240.0</ele><time>2026-04-18T10:47:23Z</time></trkpt><trkpt lat="43.395501942262165" lon="10.902914721421752"><ele>239.0</ele><time>2026-04-18T10:47:24Z</time></trkpt><trkpt lat="43.39551019315363" lon="10.90281770985533"><ele>238.0</ele><time>2026-04-18T10:47:25Z</time></trkpt><trkpt lat="43.39551131272162" lon="10.902665139197104"><ele>237.0</ele><time>2026-04-18T10:47:27Z</time></trkpt><trkpt lat="43.39544710983278" lon="10.902560798029482"><ele>236.0</ele><time>2026-04-18T10:47:29Z</time></trkpt><trkpt lat="43.395352069386426" lon="10.902552635955212"><ele>235.0</ele><time>2026-04-18T10:47:31Z</time></trkpt><trkpt lat="43.395251540315655" lon="10.902575971256358"><ele>233.8</ele><time>2026-04-18T10:47:33Z</time></trkpt><trkpt lat="43.39513983513678" lon="10.902569864904772"><ele>232.6</ele><time>2026-04-18T10:47:35Z</time></trkpt><trkpt lat="43.395021505798915" lon="10.902563420328512"><ele>231.39999999999998</ele><time>2026-04-18T10:47:37Z</time></trkpt><trkpt lat="43.39491143234372" lon="10.902543225295062"><ele>230.2</ele><time>2026-04-18T10:47:39Z</time></trkpt><trkpt lat="43.39481750119721" lon="10.90250492433132"><ele>229.0</ele><time>2026-04-18T10:47:41Z</time></trkpt><trkpt lat="43.39477164078901" lon="10.902374248488018"><ele>229.0</ele><time>2026-04-18T10:47:43Z</time></trkpt><trkpt lat="43.39483504900234" lon="10.902263454845034"><ele>229.0</ele><time>2026-04-18T10:47:45Z</time></trkpt><trkpt lat="43.394874805593886" lon="10.902188028737253"><ele>229.0</ele><time>2026-04-18T10:47:46.001Z</time></trkpt><trkpt lat="43.39491937692542" lon="10.902112457969178"><ele>229.0</ele><time>2026-04-18T10:47:47.001Z</time></trkpt><trkpt lat="43.394959596410274" lon="10.902032723429947"><ele>229.0</ele><time>2026-04-18T10:47:48.001Z</time></trkpt><trkpt lat="43.394997586598166" lon="10.901953205950162"><ele>229.0</ele><time>2026-04-18T10:47:49.001Z</time></trkpt><trkpt lat="43.39503220521069" lon="10.901874142898729"><ele>229.0</ele><time>2026-04-18T10:47:50.001Z</time></trkpt><trkpt lat="43.39507116641479" lon="10.901793928335286"><ele>229.16666666666666</ele><time>2026-04-18T10:47:51.001Z</time></trkpt><trkpt lat="43.395109610357075" lon="10.90170421688917"><ele>229.33333333333331</ele><time>2026-04-18T10:47:52.001Z</time></trkpt><trkpt lat="43.39515058270197" lon="10.901614279261066"><ele>229.5</ele><time>2026-04-18T10:47:53.001Z</time></trkpt><trkpt lat="43.39518734057938" lon="10.901524258755156"><ele>229.66666666666669</ele><time>2026-04-18T10:47:54.001Z</time></trkpt><trkpt lat="43.39521357518841" lon="10.901430844454481"><ele>229.83333333333334</ele><time>2026-04-18T10:47:55.001Z</time></trkpt><trkpt lat="43.395228514221" lon="10.901321687379598"><ele>230.0</ele><time>2026-04-18T10:47:56.001Z</time></trkpt><trkpt lat="43.395231716135605" lon="10.901206250045682"><ele>230.00000000000003</ele><time>2026-04-18T10:47:57.001Z</time></trkpt><trkpt lat="43.39522993766562" lon="10.901089997588574"><ele>230.0</ele><time>2026-04-18T10:47:58.001Z</time></trkpt><trkpt lat="43.39521683973794" lon="10.90097231285467"><ele>230.0</ele><time>2026-04-18T10:47:59.001Z</time></trkpt><trkpt lat="43.395200701705726" lon="10.900863465576274"><ele>230.0</ele><time>2026-04-18T10:48:00.001Z</time></trkpt><trkpt lat="43.39519642895538" lon="10.900759305516672"><ele>230.00000000000003</ele><time>2026-04-18T10:48:01.001Z</time></trkpt><trkpt lat="43.39521183647372" lon="10.9006613555482"><ele>230.0</ele><time>2026-04-18T10:48:02.001Z</time></trkpt><trkpt lat="43.39523703912216" lon="10.900545239471928"><ele>231.16666666666669</ele><time>2026-04-18T10:48:03.001Z</time></trkpt><trkpt lat="43.39526446854437" lon="10.90045888800677"><ele>232.33333333333334</ele><time>2026-04-18T10:48:04.001Z</time></trkpt><trkpt lat="43.395295192994865" lon="10.900367739667544"><ele>233.5</ele><time>2026-04-18T10:48:05.001Z</time></trkpt><trkpt lat="43.39530580208769" lon="10.9002731694481"><ele>234.66666666666669</ele><time>2026-04-18T10:48:06.001Z</time></trkpt><trkpt lat="43.395318157407495" lon="10.900179126987869"><ele>235.83333333333334</ele><time>2026-04-18T10:48:07.001Z</time></trkpt><trkpt lat="43.3953281094354" lon="10.900085831863546"><ele>237.0</ele><time>2026-04-18T10:48:08.001Z</time></trkpt><trkpt lat="43.395391344218524" lon="10.899953591366208"><ele>238.66666666666666</ele><time>2026-04-18T10:48:10.001Z</time></trkpt><trkpt lat="43.39543225865137" lon="10.89987756104599"><ele>240.33333333333331</ele><time>2026-04-18T10:48:11.001Z</time></trkpt><trkpt lat="43.395453274780046" lon="10.899789313467863"><ele>242.0</ele><time>2026-04-18T10:48:12.001Z</time></trkpt><trkpt lat="43.3954625949024" lon="10.899694360928336"><ele>243.66666666666666</ele><time>2026-04-18T10:48:13.001Z</time></trkpt><trkpt lat="43.39543065851288" lon="10.899607603314736"><ele>245.33333333333331</ele><time>2026-04-18T10:48:14.001Z</time></trkpt><trkpt lat="43.39544700854256" lon="10.899459657233674"><ele>247.0</ele><time>2026-04-18T10:48:16.001Z</time></trkpt><trkpt lat="43.39549938656396" lon="10.899351652473335"><ele>245.8</ele><time>2026-04-18T10:48:18.001Z</time></trkpt><trkpt lat="43.39556806367185" lon="10.899251223138739"><ele>244.6</ele><time>2026-04-18T10:48:20.001Z</time></trkpt><trkpt lat="43.395656987095755" lon="10.899133039587024"><ele>243.40000000000003</ele><time>2026-04-18T10:48:22.001Z</time></trkpt><trkpt lat="43.39570344129044" lon="10.899066458464057"><ele>242.20000000000002</ele><time>2026-04-18T10:48:23.001Z</time></trkpt><trkpt lat="43.39574254500994" lon="10.898993551894062"><ele>241.0</ele><time>2026-04-18T10:48:24.001Z</time></trkpt><trkpt lat="43.395813315480595" lon="10.898867208948191"><ele>241.0</ele><time>2026-04-18T10:48:26.001Z</time></trkpt><trkpt lat="43.395888791132066" lon="10.898782737247581"><ele>241.00000000000003</ele><time>2026-04-18T10:48:28.001Z</time></trkpt><trkpt lat="43.395946963795986" lon="10.898710405248504"><ele>241.00000000000003</ele><time>2026-04-18T10:48:30.001Z</time></trkpt><trkpt lat="43.395989549536566" lon="10.898625143123166"><ele>241.0</ele><time>2026-04-18T10:48:32.001Z</time></trkpt><trkpt lat="43.39602208210238" lon="10.89851056517071"><ele>241.0</ele><time>2026-04-18T10:48:34.001Z</time></trkpt><trkpt lat="43.39605949835613" lon="10.898368467847577"><ele>241.25</ele><time>2026-04-18T10:48:36.001Z</time></trkpt><trkpt lat="43.3960929469883" lon="10.898228478031335"><ele>241.5</ele><time>2026-04-18T10:48:38.001Z</time></trkpt><trkpt lat="43.39616187665505" lon="10.898106509956339"><ele>241.75</ele><time>2026-04-18T10:48:40.001Z</time></trkpt><trkpt lat="43.39626196593807" lon="10.898019902735799"><ele>242.0</ele><time>2026-04-18T10:48:42.002Z</time></trkpt><trkpt lat="43.39636474021508" lon="10.897947900193392"><ele>242.0</ele><time>2026-04-18T10:48:44.002Z</time></trkpt><trkpt lat="43.39642566517357" lon="10.897912501450865"><ele>242.0</ele><time>2026-04-18T10:48:45.002Z</time></trkpt><trkpt lat="43.39653203292639" lon="10.897819826835988"><ele>242.0</ele><time>2026-04-18T10:48:47.002Z</time></trkpt><trkpt lat="43.39663173887633" lon="10.897719571904716"><ele>242.0</ele><time>2026-04-18T10:48:49.002Z</time></trkpt><trkpt lat="43.39672898881609" lon="10.897616232960644"><ele>242.0</ele><time>2026-04-18T10:48:51.002Z</time></trkpt><trkpt lat="43.396766538254695" lon="10.897546395741887"><ele>244.33333333333334</ele><time>2026-04-18T10:48:52.002Z</time></trkpt><trkpt lat="43.396796183455784" lon="10.897458289258083"><ele>246.66666666666669</ele><time>2026-04-18T10:48:53.002Z</time></trkpt><trkpt lat="43.3968168316686" lon="10.897356213825054"><ele>249.0</ele><time>2026-04-18T10:48:54.002Z</time></trkpt><trkpt lat="43.39682902710709" lon="10.897248698298974"><ele>251.33333333333331</ele><time>2026-04-18T10:48:55.002Z</time></trkpt><trkpt lat="43.396839643371855" lon="10.897150192780648"><ele>253.66666666666666</ele><time>2026-04-18T10:48:56.002Z</time></trkpt><trkpt lat="43.3968578050114" lon="10.897061046664744"><ele>256.0</ele><time>2026-04-18T10:48:57.002Z</time></trkpt><trkpt lat="43.39691576212053" lon="10.896913782217254"><ele>256.0</ele><time>2026-04-18T10:48:59.002Z</time></trkpt><trkpt lat="43.39698306409773" lon="10.896764805423215"><ele>256.0</ele><time>2026-04-18T10:49:01.002Z</time></trkpt><trkpt lat="43.39700860757569" lon="10.896677763750105"><ele>256.0</ele><time>2026-04-18T10:49:02.002Z</time></trkpt><trkpt lat="43.39702957848133" lon="10.896573020750939"><ele>256.0</ele><time>2026-04-18T10:49:03.002Z</time></trkpt><trkpt lat="43.397051029885" lon="10.896459641979542"><ele>256.0</ele><time>2026-04-18T10:49:04.002Z</time></trkpt><trkpt lat="43.39707771611578" lon="10.896335014684603"><ele>255.60000000000002</ele><time>2026-04-18T10:49:05.002Z</time></trkpt><trkpt lat="43.39712420599442" lon="10.89621096607122"><ele>255.20000000000002</ele><time>2026-04-18T10:49:06.002Z</time></trkpt><trkpt lat="43.397185175114636" lon="10.896098952770757"><ele>254.79999999999998</ele><time>2026-04-18T10:49:07Z</time></trkpt><trkpt lat="43.3972353878164" lon="10.89597247447078"><ele>254.39999999999998</ele><time>2026-04-18T10:49:08Z</time></trkpt><trkpt lat="43.3972631905439" lon="10.895830171133424"><ele>254.0</ele><time>2026-04-18T10:49:09Z</time></trkpt><trkpt lat="43.39727797573459" lon="10.895690439135203"><ele>255.39999999999998</ele><time>2026-04-18T10:49:10Z</time></trkpt><trkpt lat="43.39729929035121" lon="10.895553656920974"><ele>256.79999999999995</ele><time>2026-04-18T10:49:11Z</time></trkpt><trkpt lat="43.39733041829473" lon="10.895421341208563"><ele>258.20000000000005</ele><time>2026-04-18T10:49:12Z</time></trkpt><trkpt lat="43.397380956709306" lon="10.895304730639838"><ele>259.6</ele><time>2026-04-18T10:49:13Z</time></trkpt><trkpt lat="43.397429452193" lon="10.895207032917043"><ele>261.0</ele><time>2026-04-18T10:49:14Z</time></trkpt><trkpt lat="43.397477746697376" lon="10.895115278805635"><ele>262.5</ele><time>2026-04-18T10:49:15Z</time></trkpt><trkpt lat="43.397516064239035" lon="10.895030958798502"><ele>264.0</ele><time>2026-04-18T10:49:16Z</time></trkpt><trkpt lat="43.39756382329045" lon="10.894951041052124"><ele>265.5</ele><time>2026-04-18T10:49:17Z</time></trkpt><trkpt lat="43.39761975260601" lon="10.89488065410202"><ele>267.0</ele><time>2026-04-18T10:49:18Z</time></trkpt><trkpt lat="43.39767934445457" lon="10.894824246318503"><ele>268.5</ele><time>2026-04-18T10:49:19Z</time></trkpt><trkpt lat="43.39773606687309" lon="10.894780852439927"><ele>270.0</ele><time>2026-04-18T10:49:20Z</time></trkpt><trkpt lat="43.39784554090294" lon="10.894714929941761"><ele>270.0</ele><time>2026-04-18T10:49:22Z</time></trkpt><trkpt lat="43.39795581623089" lon="10.894639343668793"><ele>270.0</ele><time>2026-04-18T10:49:24Z</time></trkpt><trkpt lat="43.39801355247386" lon="10.894598638107897"><ele>270.0</ele><time>2026-04-18T10:49:25Z</time></trkpt><trkpt lat="43.39807513993457" lon="10.894550316022444"><ele>270.0</ele><time>2026-04-18T10:49:26Z</time></trkpt><trkpt lat="43.398137061830965" lon="10.894485356070781"><ele>270.0</ele><time>2026-04-18T10:49:27Z</time></trkpt><trkpt lat="43.398194569481504" lon="10.89441457700119"><ele>270.0</ele><time>2026-04-18T10:49:28Z</time></trkpt><trkpt lat="43.39824844378585" lon="10.894338166849026"><ele>270.57142857142856</ele><time>2026-04-18T10:49:29Z</time></trkpt><trkpt lat="43.39829308617248" lon="10.894250356456146"><ele>271.1428571428571</ele><time>2026-04-18T10:49:30Z</time></trkpt><trkpt lat="43.398330774523515" lon="10.89416051315348"><ele>271.7142857142857</ele><time>2026-04-18T10:49:31Z</time></trkpt><trkpt lat="43.39836658467255" lon="10.894077957975059"><ele>272.2857142857143</ele><time>2026-04-18T10:49:32Z</time></trkpt><trkpt lat="43.39841336410535" lon="10.894007241126015"><ele>272.8571428571429</ele><time>2026-04-18T10:49:33Z</time></trkpt><trkpt lat="43.39846539902927" lon="10.893942465383212"><ele>273.42857142857144</ele><time>2026-04-18T10:49:34Z</time></trkpt><trkpt lat="43.398519780782586" lon="10.893874204369189"><ele>274.0</ele><time>2026-04-18T10:49:35Z</time></trkpt><trkpt lat="43.3985729829432" lon="10.893805313194036"><ele>274.00000000000006</ele><time>2026-04-18T10:49:36Z</time></trkpt><trkpt lat="43.398625944477914" lon="10.893736152354148"><ele>274.0</ele><time>2026-04-18T10:49:37Z</time></trkpt><trkpt lat="43.398679617096924" lon="10.893669013526672"><ele>274.0</ele><time>2026-04-18T10:49:38.001Z</time></trkpt><trkpt lat="43.398730596036756" lon="10.893599270348396"><ele>274.0</ele><time>2026-04-18T10:49:39.001Z</time></trkpt><trkpt lat="43.398783019656044" lon="10.893539726670305"><ele>274.0</ele><time>2026-04-18T10:49:40.001Z</time></trkpt><trkpt lat="43.39883692756195" lon="10.893470452024328"><ele>274.00000000000006</ele><time>2026-04-18T10:49:41.001Z</time></trkpt><trkpt lat="43.398889895914294" lon="10.8934071979254"><ele>274.0</ele><time>2026-04-18T10:49:42.001Z</time></trkpt><trkpt lat="43.39895463643651" lon="10.89335644128208"><ele>274.8571428571429</ele><time>2026-04-18T10:49:43.001Z</time></trkpt><trkpt lat="43.399024686289934" lon="10.893319108178282"><ele>275.7142857142857</ele><time>2026-04-18T10:49:44.001Z</time></trkpt><trkpt lat="43.39909460094079" lon="10.893290272734063"><ele>276.57142857142856</ele><time>2026-04-18T10:49:45.001Z</time></trkpt><trkpt lat="43.399164165014916" lon="10.893261060847559"><ele>277.42857142857144</ele><time>2026-04-18T10:49:46.001Z</time></trkpt><trkpt lat="43.39923099326402" lon="10.893237389419353"><ele>278.2857142857143</ele><time>2026-04-18T10:49:47.001Z</time></trkpt><trkpt lat="43.3992952600912" lon="10.89322447670697"><ele>279.14285714285717</ele><time>2026-04-18T10:49:48.001Z</time></trkpt><trkpt lat="43.39935913006999" lon="10.893235179999394"><ele>280.0</ele><time>2026-04-18T10:49:49.001Z</time></trkpt><trkpt lat="43.3994572971368" lon="10.89325409049751"><ele>280.0</ele><time>2026-04-18T10:49:51.001Z</time></trkpt><trkpt lat="43.399549189280336" lon="10.893224045836503"><ele>280.0</ele><time>2026-04-18T10:49:53.001Z</time></trkpt><trkpt lat="43.399613408941704" lon="10.893131066297466"><ele>280.0</ele><time>2026-04-18T10:49:55.001Z</time></trkpt><trkpt lat="43.39965886205086" lon="10.89300617212319"><ele>280.0</ele><time>2026-04-18T10:49:57.001Z</time></trkpt><trkpt lat="43.39969724409875" lon="10.892893539516605"><ele>280.0</ele><time>2026-04-18T10:49:59.001Z</time></trkpt><trkpt lat="43.39971566225325" lon="10.892796370834448"><ele>280.0</ele><time>2026-04-18T10:50:02.001Z</time></trkpt><trkpt lat="43.39966542749177" lon="10.892733913759466"><ele>280.0</ele><time>2026-04-18T10:50:05.001Z</time></trkpt><trkpt lat="43.39959769418109" lon="10.892791691789164"><ele>280.0</ele><time>2026-04-18T10:50:07.001Z</time></trkpt><trkpt lat="43.399547862060956" lon="10.89288579854357"><ele>280.0</ele><time>2026-04-18T10:50:09.001Z</time></trkpt><trkpt lat="43.39945748063306" lon="10.892971322523199"><ele>280.0</ele><time>2026-04-18T10:50:11.001Z</time></trkpt><trkpt lat="43.399392308899344" lon="10.892987514267677"><ele>280.0</ele><time>2026-04-18T10:50:12.001Z</time></trkpt><trkpt lat="43.39932701701818" lon="10.892992896404145"><ele>280.0</ele><time>2026-04-18T10:50:13.001Z</time></trkpt><trkpt lat="43.399260087107415" lon="10.892991645807921"><ele>280.0</ele><time>2026-04-18T10:50:14.001Z</time></trkpt><trkpt lat="43.3991871485818" lon="10.892991435908524"><ele>280.0</ele><time>2026-04-18T10:50:15.001Z</time></trkpt><trkpt lat="43.39911099139901" lon="10.892992134288894"><ele>280.0</ele><time>2026-04-18T10:50:16.001Z</time></trkpt><trkpt lat="43.39903211823836" lon="10.893006862260489"><ele>280.0</ele><time>2026-04-18T10:50:17.001Z</time></trkpt><trkpt lat="43.39894845507654" lon="10.893020555073074"><ele>280.0</ele><time>2026-04-18T10:50:18.001Z</time></trkpt><trkpt lat="43.39886320011559" lon="10.89303280190981"><ele>282.8</ele><time>2026-04-18T10:50:19.001Z</time></trkpt><trkpt lat="43.39877255748325" lon="10.89304831461361"><ele>285.6</ele><time>2026-04-18T10:50:20.001Z</time></trkpt><trkpt lat="43.39868233883461" lon="10.893062337008041"><ele>288.4</ele><time>2026-04-18T10:50:21.001Z</time></trkpt><trkpt lat="43.3985927180168" lon="10.893087109369517"><ele>291.2</ele><time>2026-04-18T10:50:22.001Z</time></trkpt><trkpt lat="43.39850461439087" lon="10.893124063665416"><ele>294.0</ele><time>2026-04-18T10:50:23.001Z</time></trkpt><trkpt lat="43.39841389378706" lon="10.893164022042152"><ele>294.0</ele><time>2026-04-18T10:50:24.001Z</time></trkpt><trkpt lat="43.39832108273102" lon="10.893202660714998"><ele>294.0</ele><time>2026-04-18T10:50:25.001Z</time></trkpt><trkpt lat="43.398229298927" lon="10.89323949806631"><ele>294.0</ele><time>2026-04-18T10:50:26.001Z</time></trkpt><trkpt lat="43.398133825310616" lon="10.893272144596365"><ele>294.0</ele><time>2026-04-18T10:50:27.001Z</time></trkpt><trkpt lat="43.39803803854027" lon="10.89330382885052"><ele>294.0</ele><time>2026-04-18T10:50:28.001Z</time></trkpt><trkpt lat="43.39793925170803" lon="10.893327544035387"><ele>295.8</ele><time>2026-04-18T10:50:29.001Z</time></trkpt><trkpt lat="43.397840261117324" lon="10.893337186776524"><ele>297.59999999999997</ele><time>2026-04-18T10:50:30.001Z</time></trkpt><trkpt lat="43.39773888374286" lon="10.893337580453965"><ele>299.4</ele><time>2026-04-18T10:50:31.001Z</time></trkpt><trkpt lat="43.39763482310287" lon="10.893336000490166"><ele>301.2</ele><time>2026-04-18T10:50:32.001Z</time></trkpt><trkpt lat="43.39753037357629" lon="10.893323905791453"><ele>303.0</ele><time>2026-04-18T10:50:33.001Z</time></trkpt><trkpt lat="43.39742539156195" lon="10.893311945766985"><ele>303.0</ele><time>2026-04-18T10:50:34.001Z</time></trkpt><trkpt lat="43.39732011459749" lon="10.893306385537684"><ele>303.0</ele><time>2026-04-18T10:50:35.001Z</time></trkpt><trkpt lat="43.39721533108225" lon="10.893303761198226"><ele>303.0</ele><time>2026-04-18T10:50:36.001Z</time></trkpt><trkpt lat="43.39711134019191" lon="10.893310884883686"><ele>303.0</ele><time>2026-04-18T10:50:37.001Z</time></trkpt><trkpt lat="43.39700768123191" lon="10.893335779625597"><ele>303.0</ele><time>2026-04-18T10:50:38.001Z</time></trkpt><trkpt lat="43.39690432904378" lon="10.893371944515913"><ele>301.5</ele><time>2026-04-18T10:50:39.001Z</time></trkpt><trkpt lat="43.39680023990145" lon="10.893420007157912"><ele>300.0</ele><time>2026-04-18T10:50:40.001Z</time></trkpt><trkpt lat="43.39669352988959" lon="10.893478921496978"><ele>298.5</ele><time>2026-04-18T10:50:41.001Z</time></trkpt><trkpt lat="43.396587120569755" lon="10.893547666908171"><ele>297.0</ele><time>2026-04-18T10:50:42.001Z</time></trkpt><trkpt lat="43.39647832830345" lon="10.893618533308867"><ele>297.0</ele><time>2026-04-18T10:50:43.002Z</time></trkpt><trkpt lat="43.39637131493185" lon="10.893689395265715"><ele>297.0</ele><time>2026-04-18T10:50:44.002Z</time></trkpt><trkpt lat="43.39625959554453" lon="10.893766395056252"><ele>297.0</ele><time>2026-04-18T10:50:45.002Z</time></trkpt><trkpt lat="43.39614272534898" lon="10.893838843804977"><ele>297.0</ele><time>2026-04-18T10:50:46.002Z</time></trkpt><trkpt lat="43.39602447646215" lon="10.89390990069914"><ele>300.5</ele><time>2026-04-18T10:50:47.002Z</time></trkpt><trkpt lat="43.39590493423569" lon="10.89397885345553"><ele>304.0</ele><time>2026-04-18T10:50:48.002Z</time></trkpt><trkpt lat="43.39578641535025" lon="10.894048509873512"><ele>307.5</ele><time>2026-04-18T10:50:49.002Z</time></trkpt><trkpt lat="43.39567065846695" lon="10.894120728019155"><ele>311.0</ele><time>2026-04-18T10:50:50.002Z</time></trkpt><trkpt lat="43.39555767749242" lon="10.894189626163826"><ele>312.25</ele><time>2026-04-18T10:50:51.002Z</time></trkpt><trkpt lat="43.395446328135826" lon="10.894255716605432"><ele>313.5</ele><time>2026-04-18T10:50:52.002Z</time></trkpt><trkpt lat="43.395338521328384" lon="10.894324415734063"><ele>314.75</ele><time>2026-04-18T10:50:53.002Z</time></trkpt><trkpt lat="43.39523233704209" lon="10.894393958370696"><ele>316.0</ele><time>2026-04-18T10:50:54.002Z</time></trkpt><trkpt lat="43.39512929723589" lon="10.89446429127131"><ele>316.0</ele><time>2026-04-18T10:50:55.002Z</time></trkpt><trkpt lat="43.395031525559325" lon="10.894540268584636"><ele>316.0</ele><time>2026-04-18T10:50:56.002Z</time></trkpt><trkpt lat="43.394935977483684" lon="10.894624615324174"><ele>316.0</ele><time>2026-04-18T10:50:57.002Z</time></trkpt><trkpt lat="43.39484760202356" lon="10.894716509651706"><ele>316.0</ele><time>2026-04-18T10:50:58.002Z</time></trkpt><trkpt lat="43.39476286987935" lon="10.894812642150947"><ele>316.0</ele><time>2026-04-18T10:50:59.002Z</time></trkpt><trkpt lat="43.3946779795975" lon="10.894908053015373"><ele>317.6</ele><time>2026-04-18T10:51:00.002Z</time></trkpt><trkpt lat="43.3945940108617" lon="10.895000939693315"><ele>319.20000000000005</ele><time>2026-04-18T10:51:01.002Z</time></trkpt><trkpt lat="43.39450784748346" lon="10.89509201319283"><ele>320.79999999999995</ele><time>2026-04-18T10:51:02.002Z</time></trkpt><trkpt lat="43.39441917212931" lon="10.89518115858339"><ele>322.4</ele><time>2026-04-18T10:51:03.002Z</time></trkpt><trkpt lat="43.394329209655815" lon="10.89526508469159"><ele>324.0</ele><time>2026-04-18T10:51:04.002Z</time></trkpt><trkpt lat="43.394237395535974" lon="10.895344933276869"><ele>324.0</ele><time>2026-04-18T10:51:05.002Z</time></trkpt><trkpt lat="43.394145058347966" lon="10.89542099721894"><ele>324.0</ele><time>2026-04-18T10:51:06.002Z</time></trkpt><trkpt lat="43.39405052221214" lon="10.89549112638638"><ele>324.0</ele><time>2026-04-18T10:51:07.002Z</time></trkpt><trkpt lat="43.393953762373755" lon="10.89555392779469"><ele>324.0</ele><time>2026-04-18T10:51:08.002Z</time></trkpt><trkpt lat="43.39385800653755" lon="10.895617407316449"><ele>324.0</ele><time>2026-04-18T10:51:09.002Z</time></trkpt><trkpt lat="43.39376237471517" lon="10.895678928879274"><ele>325.79999999999995</ele><time>2026-04-18T10:51:10.002Z</time></trkpt><trkpt lat="43.39366467527294" lon="10.895732141316438"><ele>327.59999999999997</ele><time>2026-04-18T10:51:11.002Z</time></trkpt><trkpt lat="43.393564654292994" lon="10.895778068754064"><ele>329.4</ele><time>2026-04-18T10:51:12.002Z</time></trkpt><trkpt lat="43.39346191610979" lon="10.895815528198744"><ele>331.2</ele><time>2026-04-18T10:51:13Z</time></trkpt><trkpt lat="43.3933620379634" lon="10.895844025137366"><ele>333.0</ele><time>2026-04-18T10:51:14Z</time></trkpt><trkpt lat="43.39326939010687" lon="10.895866780445782"><ele>333.0</ele><time>2026-04-18T10:51:15Z</time></trkpt><trkpt lat="43.39317863176481" lon="10.895879786317007"><ele>333.0</ele><time>2026-04-18T10:51:16Z</time></trkpt><trkpt lat="43.39308759859863" lon="10.895885796816247"><ele>333.0</ele><time>2026-04-18T10:51:17Z</time></trkpt><trkpt lat="43.39299506625833" lon="10.89588923764133"><ele>333.0</ele><time>2026-04-18T10:51:18Z</time></trkpt><trkpt lat="43.392905670827176" lon="10.895889123461481"><ele>333.0</ele><time>2026-04-18T10:51:19Z</time></trkpt><trkpt lat="43.39282064355378" lon="10.89588569320267"><ele>333.0</ele><time>2026-04-18T10:51:20Z</time></trkpt><trkpt lat="43.39274037778812" lon="10.895876912539618"><ele>333.0</ele><time>2026-04-18T10:51:21Z</time></trkpt><trkpt lat="43.39266917193055" lon="10.89586268383464"><ele>333.0</ele><time>2026-04-18T10:51:22Z</time></trkpt><trkpt lat="43.39256266181317" lon="10.895800537621772"><ele>333.0</ele><time>2026-04-18T10:51:24Z</time></trkpt><trkpt lat="43.392503439068896" lon="10.895709764445407"><ele>333.0</ele><time>2026-04-18T10:51:26Z</time></trkpt><trkpt lat="43.39247992129328" lon="10.895574556222499"><ele>333.0</ele><time>2026-04-18T10:51:28Z</time></trkpt><trkpt lat="43.39248186381696" lon="10.895395874427477"><ele>333.0</ele><time>2026-04-18T10:51:30Z</time></trkpt><trkpt lat="43.39248576648454" lon="10.89528965259553"><ele>333.0</ele><time>2026-04-18T10:51:31Z</time></trkpt><trkpt lat="43.39249013487997" lon="10.895162088927831"><ele>333.0</ele><time>2026-04-18T10:51:32Z</time></trkpt><trkpt lat="43.39249292309197" lon="10.895030578165287"><ele>333.0</ele><time>2026-04-18T10:51:33Z</time></trkpt><trkpt lat="43.39249340446842" lon="10.894901394461938"><ele>333.0</ele><time>2026-04-18T10:51:34Z</time></trkpt><trkpt lat="43.39250111685997" lon="10.894779964579886"><ele>333.0</ele><time>2026-04-18T10:51:35Z</time></trkpt><trkpt lat="43.392526749876744" lon="10.894662457569282"><ele>333.0</ele><time>2026-04-18T10:51:36Z</time></trkpt><trkpt lat="43.39256938599713" lon="10.894549845196641"><ele>333.0</ele><time>2026-04-18T10:51:37Z</time></trkpt><trkpt lat="43.39263122138506" lon="10.89444766282822"><ele>333.0</ele><time>2026-04-18T10:51:38Z</time></trkpt><trkpt lat="43.39270627293978" lon="10.894352629122709"><ele>333.0</ele><time>2026-04-18T10:51:39Z</time></trkpt><trkpt lat="43.39277677871271" lon="10.894235005850685"><ele>333.0</ele><time>2026-04-18T10:51:40Z</time></trkpt><trkpt lat="43.392864374104924" lon="10.894135724669093"><ele>333.0</ele><time>2026-04-18T10:51:41Z</time></trkpt><trkpt lat="43.392960691110545" lon="10.894043591430709"><ele>333.0</ele><time>2026-04-18T10:51:42Z</time></trkpt><trkpt lat="43.39305838012152" lon="10.893954682453801"><ele>333.0</ele><time>2026-04-18T10:51:43Z</time></trkpt><trkpt lat="43.39316664261778" lon="10.893877679624833"><ele>333.0</ele><time>2026-04-18T10:51:44Z</time></trkpt><trkpt lat="43.393277366166416" lon="10.893806910892797"><ele>334.75</ele><time>2026-04-18T10:51:45Z</time></trkpt><trkpt lat="43.393383722806966" lon="10.893732062943133"><ele>336.5</ele><time>2026-04-18T10:51:46Z</time></trkpt><trkpt lat="43.39348746801014" lon="10.89364784022117"><ele>338.25</ele><time>2026-04-18T10:51:47Z</time></trkpt><trkpt lat="43.39357765744103" lon="10.89353588950347"><ele>340.0</ele><time>2026-04-18T10:51:48Z</time></trkpt><trkpt lat="43.39364812948101" lon="10.893395385475706"><ele>340.0</ele><time>2026-04-18T10:51:49Z</time></trkpt><trkpt lat="43.39371618060317" lon="10.893244264731184"><ele>340.0</ele><time>2026-04-18T10:51:50Z</time></trkpt><trkpt lat="43.39378944542244" lon="10.893107036222956"><ele>340.0</ele><time>2026-04-18T10:51:51Z</time></trkpt><trkpt lat="43.393855788397026" lon="10.892968577183794"><ele>340.0</ele><time>2026-04-18T10:51:52Z</time></trkpt><trkpt lat="43.393900820012696" lon="10.892820250730246"><ele>340.2</ele><time>2026-04-18T10:51:53.001Z</time></trkpt><trkpt lat="43.393918660526744" lon="10.89266938131546"><ele>340.4</ele><time>2026-04-18T10:51:54.001Z</time></trkpt><trkpt lat="43.393917785149526" lon="10.892509791904006"><ele>340.6</ele><time>2026-04-18T10:51:55.001Z</time></trkpt><trkpt lat="43.393911981001686" lon="10.89235731895489"><ele>340.8</ele><time>2026-04-18T10:51:56.001Z</time></trkpt><trkpt lat="43.393841396557846" lon="10.89223932335071"><ele>341.0</ele><time>2026-04-18T10:51:57.001Z</time></trkpt><trkpt lat="43.393742380955665" lon="10.892102580963254"><ele>340.5</ele><time>2026-04-18T10:51:58.001Z</time></trkpt><trkpt lat="43.39362959488004" lon="10.891974478046336"><ele>340.0</ele><time>2026-04-18T10:51:59.001Z</time></trkpt><trkpt lat="43.39352481763387" lon="10.891840145821305"><ele>339.5</ele><time>2026-04-18T10:52:00.001Z</time></trkpt><trkpt lat="43.393426043608784" lon="10.891702333333324"><ele>339.0</ele><time>2026-04-18T10:52:01.001Z</time></trkpt><trkpt lat="43.393348124104236" lon="10.891534092119587"><ele>342.5</ele><time>2026-04-18T10:52:02.001Z</time></trkpt><trkpt lat="43.39328254710934" lon="10.891369210627127"><ele>346.0</ele><time>2026-04-18T10:52:03.001Z</time></trkpt><trkpt lat="43.39321820191287" lon="10.891210403577176"><ele>349.5</ele><time>2026-04-18T10:52:04.001Z</time></trkpt><trkpt lat="43.393155163801985" lon="10.891064373195498"><ele>353.0</ele><time>2026-04-18T10:52:05.001Z</time></trkpt><trkpt lat="43.39308333135261" lon="10.890931189594227"><ele>356.5</ele><time>2026-04-18T10:52:06.001Z</time></trkpt><trkpt lat="43.39305499308081" lon="10.8907890728326"><ele>360.0</ele><time>2026-04-18T10:52:07.001Z</time></trkpt><trkpt lat="43.39306809482547" lon="10.890634061559286"><ele>363.5</ele><time>2026-04-18T10:52:08.001Z</time></trkpt><trkpt lat="43.393114622067465" lon="10.89048055884839"><ele>367.0</ele><time>2026-04-18T10:52:09.001Z</time></trkpt><trkpt lat="43.39318888740299" lon="10.890334845504496"><ele>367.0</ele><time>2026-04-18T10:52:10.001Z</time></trkpt><trkpt lat="43.393258406491654" lon="10.890176292672315"><ele>367.0</ele><time>2026-04-18T10:52:11.001Z</time></trkpt><trkpt lat="43.39332991428777" lon="10.890013811670162"><ele>367.0</ele><time>2026-04-18T10:52:12.001Z</time></trkpt><trkpt lat="43.39340581460132" lon="10.889840891771787"><ele>367.0</ele><time>2026-04-18T10:52:13.001Z</time></trkpt><trkpt lat="43.39347704612416" lon="10.889672006156506"><ele>366.5</ele><time>2026-04-18T10:52:14.001Z</time></trkpt><trkpt lat="43.39354571439776" lon="10.889519296348087"><ele>366.0</ele><time>2026-04-18T10:52:15.001Z</time></trkpt><trkpt lat="43.39362635026685" lon="10.889380678323143"><ele>365.5</ele><time>2026-04-18T10:52:16.001Z</time></trkpt><trkpt lat="43.39372294561206" lon="10.88926680896801"><ele>365.0</ele><time>2026-04-18T10:52:17.001Z</time></trkpt><trkpt lat="43.3938366166884" lon="10.889172162251555"><ele>367.75</ele><time>2026-04-18T10:52:18.001Z</time></trkpt><trkpt lat="43.39395341108782" lon="10.889093077706493"><ele>370.5</ele><time>2026-04-18T10:52:19.001Z</time></trkpt><trkpt lat="43.394071296337884" lon="10.889006171189452"><ele>373.25</ele><time>2026-04-18T10:52:20.001Z</time></trkpt><trkpt lat="43.394186501998405" lon="10.888919460696561"><ele>376.0</ele><time>2026-04-18T10:52:21.001Z</time></trkpt><trkpt lat="43.394303381428045" lon="10.888837114465183"><ele>376.0</ele><time>2026-04-18T10:52:22.001Z</time></trkpt><trkpt lat="43.39440366646272" lon="10.88871969515145"><ele>376.0</ele><time>2026-04-18T10:52:23.001Z</time></trkpt><trkpt lat="43.39447577549757" lon="10.888575741978578"><ele>376.0</ele><time>2026-04-18T10:52:24.001Z</time></trkpt><trkpt lat="43.39452059595227" lon="10.888417281853656"><ele>376.0</ele><time>2026-04-18T10:52:25.001Z</time></trkpt><trkpt lat="43.394548366469046" lon="10.888268432150369"><ele>376.8333333333333</ele><time>2026-04-18T10:52:26.001Z</time></trkpt><trkpt lat="43.39459925709353" lon="10.888157481791467"><ele>377.66666666666663</ele><time>2026-04-18T10:52:27.001Z</time></trkpt><trkpt lat="43.39468067641939" lon="10.888101701637295"><ele>378.5</ele><time>2026-04-18T10:52:28.001Z</time></trkpt><trkpt lat="43.394771033514715" lon="10.888106415257768"><ele>379.3333333333333</ele><time>2026-04-18T10:52:29.001Z</time></trkpt><trkpt lat="43.394830605514" lon="10.88819784319019"><ele>380.1666666666667</ele><time>2026-04-18T10:52:30.001Z</time></trkpt><trkpt lat="43.39485264605823" lon="10.888303777950295"><ele>381.0</ele><time>2026-04-18T10:52:31.001Z</time></trkpt><trkpt lat="43.394863735722076" lon="10.888420482366191"><ele>381.6</ele><time>2026-04-18T10:52:32.001Z</time></trkpt><trkpt lat="43.39486084840814" lon="10.888567632274196"><ele>382.20000000000005</ele><time>2026-04-18T10:52:33.001Z</time></trkpt><trkpt lat="43.39485890880242" lon="10.888710510570352"><ele>382.79999999999995</ele><time>2026-04-18T10:52:34.001Z</time></trkpt><trkpt lat="43.39483643920408" lon="10.888849863124697"><ele>383.4</ele><time>2026-04-18T10:52:35.001Z</time></trkpt><trkpt lat="43.39482174605872" lon="10.888980807915683"><ele>384.0</ele><time>2026-04-18T10:52:36.001Z</time></trkpt><trkpt lat="43.39482654937177" lon="10.889107830749204"><ele>384.0</ele><time>2026-04-18T10:52:37.001Z</time></trkpt><trkpt lat="43.39484849902431" lon="10.889230007432326"><ele>384.0</ele><time>2026-04-18T10:52:38.001Z</time></trkpt><trkpt lat="43.394887744024196" lon="10.88932041573763"><ele>384.0</ele><time>2026-04-18T10:52:39.001Z</time></trkpt><trkpt lat="43.39495917117306" lon="10.889386170032234"><ele>384.0</ele><time>2026-04-18T10:52:40.001Z</time></trkpt><trkpt lat="43.39504154209182" lon="10.889397260875823"><ele>384.0</ele><time>2026-04-18T10:52:41.001Z</time></trkpt><trkpt lat="43.395118506035296" lon="10.889354018348513"><ele>384.0</ele><time>2026-04-18T10:52:42.001Z</time></trkpt><trkpt lat="43.395176231912004" lon="10.88927595934662"><ele>384.0</ele><time>2026-04-18T10:52:43.001Z</time></trkpt><trkpt lat="43.39521929721656" lon="10.88920691077781"><ele>384.0</ele><time>2026-04-18T10:52:44.001Z</time></trkpt><trkpt lat="43.39525632789913" lon="10.889130554477243"><ele>384.0</ele><time>2026-04-18T10:52:45.001Z</time></trkpt><trkpt lat="43.39532217270702" lon="10.888990638506284"><ele>384.0</ele><time>2026-04-18T10:52:47.001Z</time></trkpt><trkpt lat="43.39535437238198" lon="10.888906263584213"><ele>384.0</ele><time>2026-04-18T10:52:48.001Z</time></trkpt><trkpt lat="43.3953882039893" lon="10.888820186385317"><ele>384.0</ele><time>2026-04-18T10:52:49.001Z</time></trkpt><trkpt lat="43.395424705254534" lon="10.888723564996852"><ele>384.0</ele><time>2026-04-18T10:52:50.001Z</time></trkpt><trkpt lat="43.395464528586956" lon="10.888615220651383"><ele>384.0</ele><time>2026-04-18T10:52:51.001Z</time></trkpt><trkpt lat="43.3955068052831" lon="10.888498359816918"><ele>384.0</ele><time>2026-04-18T10:52:52.001Z</time></trkpt><trkpt lat="43.39555421292034" lon="10.88837635576439"><ele>384.0</ele><time>2026-04-18T10:52:53.001Z</time></trkpt><trkpt lat="43.39560976166157" lon="10.888255541879033"><ele>384.0</ele><time>2026-04-18T10:52:54.001Z</time></trkpt><trkpt lat="43.395672521196346" lon="10.888133301755627"><ele>385.4</ele><time>2026-04-18T10:52:55.001Z</time></trkpt><trkpt lat="43.395755455334154" lon="10.888029059078276"><ele>386.79999999999995</ele><time>2026-04-18T10:52:56.002Z</time></trkpt><trkpt lat="43.39585439026973" lon="10.887957788218491"><ele>388.20000000000005</ele><time>2026-04-18T10:52:57.002Z</time></trkpt><trkpt lat="43.39595758569432" lon="10.887903852809844"><ele>389.6</ele><time>2026-04-18T10:52:58.002Z</time></trkpt><trkpt lat="43.396034572875095" lon="10.88779992738592"><ele>391.0</ele><time>2026-04-18T10:52:59.002Z</time></trkpt><trkpt lat="43.39607744921515" lon="10.88765695770879"><ele>392.5</ele><time>2026-04-18T10:53:00.002Z</time></trkpt><trkpt lat="43.39607901390639" lon="10.887497825715396"><ele>394.0</ele><time>2026-04-18T10:53:01.002Z</time></trkpt><trkpt lat="43.396048040933806" lon="10.887337158059005"><ele>395.5</ele><time>2026-04-18T10:53:02.002Z</time></trkpt><trkpt lat="43.39599862147502" lon="10.887176797659905"><ele>397.0</ele><time>2026-04-18T10:53:03.002Z</time></trkpt><trkpt lat="43.39596347087508" lon="10.887020330797144"><ele>397.0</ele><time>2026-04-18T10:53:04.002Z</time></trkpt><trkpt lat="43.39592970575416" lon="10.886891099058182"><ele>397.0</ele><time>2026-04-18T10:53:05.002Z</time></trkpt><trkpt lat="43.39592270711977" lon="10.88674269368443"><ele>397.0</ele><time>2026-04-18T10:53:06.002Z</time></trkpt><trkpt lat="43.395935772795674" lon="10.886586472851942"><ele>397.0</ele><time>2026-04-18T10:53:07.002Z</time></trkpt><trkpt lat="43.39596587916047" lon="10.886439264147617"><ele>397.0</ele><time>2026-04-18T10:53:08.002Z</time></trkpt><trkpt lat="43.396010972856395" lon="10.886298302851085"><ele>397.5</ele><time>2026-04-18T10:53:09.002Z</time></trkpt><trkpt lat="43.39607235992859" lon="10.886162554566694"><ele>398.0</ele><time>2026-04-18T10:53:10.002Z</time></trkpt><trkpt lat="43.39613987835605" lon="10.886041129431788"><ele>398.5</ele><time>2026-04-18T10:53:11.002Z</time></trkpt><trkpt lat="43.39621472322224" lon="10.885914244768392"><ele>399.0</ele><time>2026-04-18T10:53:12.002Z</time></trkpt><trkpt lat="43.39629076159246" lon="10.88578629154707"><ele>401.5</ele><time>2026-04-18T10:53:13.002Z</time></trkpt><trkpt lat="43.39636660274781" lon="10.885658937276407"><ele>404.0</ele><time>2026-04-18T10:53:14.002Z</time></trkpt><trkpt lat="43.39644225447193" lon="10.885533149495817"><ele>406.5</ele><time>2026-04-18T10:53:15.002Z</time></trkpt><trkpt lat="43.39651591922657" lon="10.885409418464238"><ele>409.0</ele><time>2026-04-18T10:53:16.002Z</time></trkpt><trkpt lat="43.3965891309622" lon="10.885290875188588"><ele>409.0</ele><time>2026-04-18T10:53:17.002Z</time></trkpt><trkpt lat="43.39666085168088" lon="10.885174458554179"><ele>409.0</ele><time>2026-04-18T10:53:18.002Z</time></trkpt><trkpt lat="43.39673033283725" lon="10.88505817679413"><ele>409.0</ele><time>2026-04-18T10:53:19Z</time></trkpt><trkpt lat="43.39680243575966" lon="10.884929696598851"><ele>409.0</ele><time>2026-04-18T10:53:20Z</time></trkpt><trkpt lat="43.39687923701395" lon="10.884800637152443"><ele>409.0</ele><time>2026-04-18T10:53:21Z</time></trkpt><trkpt lat="43.396961700675234" lon="10.884665302619894"><ele>409.0</ele><time>2026-04-18T10:53:22Z</time></trkpt><trkpt lat="43.39704644673502" lon="10.884529760562932"><ele>409.0</ele><time>2026-04-18T10:53:23Z</time></trkpt><trkpt lat="43.39713078830302" lon="10.884390819839668"><ele>409.0</ele><time>2026-04-18T10:53:24Z</time></trkpt><trkpt lat="43.397200818002894" lon="10.88425057926122"><ele>409.0</ele><time>2026-04-18T10:53:25Z</time></trkpt><trkpt lat="43.39724304910927" lon="10.884091336780829"><ele>409.0</ele><time>2026-04-18T10:53:26Z</time></trkpt><trkpt lat="43.39725629035708" lon="10.883932432130042"><ele>409.0</ele><time>2026-04-18T10:53:27Z</time></trkpt><trkpt lat="43.39724491917928" lon="10.883768110203537"><ele>409.0</ele><time>2026-04-18T10:53:28Z</time></trkpt><trkpt lat="43.397217818089764" lon="10.883597979071041"><ele>410.75</ele><time>2026-04-18T10:53:29Z</time></trkpt><trkpt lat="43.397186186071266" lon="10.883425245072326"><ele>412.5</ele><time>2026-04-18T10:53:30Z</time></trkpt><trkpt lat="43.39715520525188" lon="10.88324715828955"><ele>414.25</ele><time>2026-04-18T10:53:31Z</time></trkpt><trkpt lat="43.39713008241799" lon="10.883056390555007"><ele>416.0</ele><time>2026-04-18T10:53:32Z</time></trkpt><trkpt lat="43.397118950020946" lon="10.882868954416839"><ele>412.5</ele><time>2026-04-18T10:53:33Z</time></trkpt><trkpt lat="43.39711975862343" lon="10.882678172190355"><ele>409.0</ele><time>2026-04-18T10:53:34Z</time></trkpt><trkpt lat="43.39712294387843" lon="10.88249331078454"><ele>405.5</ele><time>2026-04-18T10:53:35Z</time></trkpt><trkpt lat="43.39712121826855" lon="10.882310209922354"><ele>402.0</ele><time>2026-04-18T10:53:36Z</time></trkpt><trkpt lat="43.39710916132962" lon="10.882143173461758"><ele>402.0</ele><time>2026-04-18T10:53:37Z</time></trkpt><trkpt lat="43.3970873973374" lon="10.881976846037194"><ele>402.0</ele><time>2026-04-18T10:53:38Z</time></trkpt><trkpt lat="43.39705409781559" lon="10.88179684272941"><ele>402.0</ele><time>2026-04-18T10:53:39Z</time></trkpt><trkpt lat="43.39701631162796" lon="10.881621105278725"><ele>402.0</ele><time>2026-04-18T10:53:40Z</time></trkpt><trkpt lat="43.396974649319596" lon="10.881435962172525"><ele>405.0</ele><time>2026-04-18T10:53:41Z</time></trkpt><trkpt lat="43.39693833893852" lon="10.881260139424528"><ele>408.0</ele><time>2026-04-18T10:53:42Z</time></trkpt><trkpt lat="43.39690195115714" lon="10.881086409651298"><ele>411.0</ele><time>2026-04-18T10:53:43Z</time></trkpt><trkpt lat="43.39686682711078" lon="10.88091166560807"><ele>414.0</ele><time>2026-04-18T10:53:44Z</time></trkpt><trkpt lat="43.39684178832189" lon="10.88074182484796"><ele>416.5</ele><time>2026-04-18T10:53:45Z</time></trkpt><trkpt lat="43.396820265438954" lon="10.880568038814992"><ele>419.0</ele><time>2026-04-18T10:53:46Z</time></trkpt><trkpt lat="43.39680305281898" lon="10.880396168907154"><ele>421.5</ele><time>2026-04-18T10:53:47Z</time></trkpt><trkpt lat="43.39678470180636" lon="10.880226097667444"><ele>424.0</ele><time>2026-04-18T10:53:48Z</time></trkpt><trkpt lat="43.39676437800517" lon="10.880049662915647"><ele>426.25</ele><time>2026-04-18T10:53:49Z</time></trkpt><trkpt lat="43.396736026994574" lon="10.879885523015082"><ele>428.5</ele><time>2026-04-18T10:53:50Z</time></trkpt><trkpt lat="43.3967037072122" lon="10.879710472513796"><ele>430.75</ele><time>2026-04-18T10:53:51Z</time></trkpt><trkpt lat="43.39667819892471" lon="10.879530783860709"><ele>433.0</ele><time>2026-04-18T10:53:52Z</time></trkpt><trkpt lat="43.39667683710302" lon="10.87932031042288"><ele>434.75</ele><time>2026-04-18T10:53:53Z</time></trkpt><trkpt lat="43.39667287321613" lon="10.879132736918223"><ele>436.5</ele><time>2026-04-18T10:53:54Z</time></trkpt><trkpt lat="43.396681021984506" lon="10.87894523093389"><ele>438.25</ele><time>2026-04-18T10:53:55Z</time></trkpt><trkpt lat="43.396683332420295" lon="10.878784017486877"><ele>440.0</ele><time>2026-04-18T10:53:56Z</time></trkpt><trkpt lat="43.39671749950203" lon="10.87862212198761"><ele>440.0</ele><time>2026-04-18T10:53:57Z</time></trkpt><trkpt lat="43.396778005725274" lon="10.878476325253441"><ele>440.0</ele><time>2026-04-18T10:53:58Z</time></trkpt><trkpt lat="43.396850558629744" lon="10.878337782988146"><ele>440.0</ele><time>2026-04-18T10:53:59Z</time></trkpt><trkpt lat="43.396903721670306" lon="10.878183457198203"><ele>440.0</ele><time>2026-04-18T10:54:00Z</time></trkpt><trkpt lat="43.39694072871691" lon="10.878013415840833"><ele>439.75</ele><time>2026-04-18T10:54:01Z</time></trkpt><trkpt lat="43.39697205056884" lon="10.877840739759074"><ele>439.5</ele><time>2026-04-18T10:54:02Z</time></trkpt><trkpt lat="43.397003291596" lon="10.877661972371264"><ele>439.25</ele><time>2026-04-18T10:54:03Z</time></trkpt><trkpt lat="43.39703477249156" lon="10.877476620577868"><ele>439.0</ele><time>2026-04-18T10:54:04Z</time></trkpt><trkpt lat="43.39706493504398" lon="10.877287473732414"><ele>439.0</ele><time>2026-04-18T10:54:05.001Z</time></trkpt><trkpt lat="43.39707994980026" lon="10.87710388553475"><ele>439.0</ele><time>2026-04-18T10:54:06.001Z</time></trkpt><trkpt lat="43.39709587764893" lon="10.876920444344641"><ele>439.0</ele><time>2026-04-18T10:54:07.001Z</time></trkpt><trkpt lat="43.3971130109895" lon="10.8767408468807"><ele>439.0</ele><time>2026-04-18T10:54:08.001Z</time></trkpt><trkpt lat="43.39714034342407" lon="10.87656868167786"><ele>440.25</ele><time>2026-04-18T10:54:09.001Z</time></trkpt><trkpt lat="43.39716535130992" lon="10.87639949328789"><ele>441.5</ele><time>2026-04-18T10:54:10.001Z</time></trkpt><trkpt lat="43.39720117108587" lon="10.876241837136174"><ele>442.75</ele><time>2026-04-18T10:54:11.001Z</time></trkpt><trkpt lat="43.39724650805379" lon="10.87607937009068"><ele>444.0</ele><time>2026-04-18T10:54:12.001Z</time></trkpt><trkpt lat="43.39730311459053" lon="10.875910137426404"><ele>449.75</ele><time>2026-04-18T10:54:13.001Z</time></trkpt><trkpt lat="43.39736230259558" lon="10.87574955153243"><ele>455.5</ele><time>2026-04-18T10:54:14.001Z</time></trkpt><trkpt lat="43.39741745210813" lon="10.875587712130171"><ele>461.25</ele><time>2026-04-18T10:54:15.001Z</time></trkpt><trkpt lat="43.39747840536768" lon="10.875430304827713"><ele>467.0</ele><time>2026-04-18T10:54:16.001Z</time></trkpt><trkpt lat="43.39754118470119" lon="10.875281330325874"><ele>467.0</ele><time>2026-04-18T10:54:17.001Z</time></trkpt><trkpt lat="43.39758814961553" lon="10.875131275063183"><ele>467.0</ele><time>2026-04-18T10:54:18.001Z</time></trkpt><trkpt lat="43.397626902225255" lon="10.874982758117648"><ele>467.0</ele><time>2026-04-18T10:54:19.001Z</time></trkpt><trkpt lat="43.39767288049578" lon="10.874837416378638"><ele>467.0</ele><time>2026-04-18T10:54:20.001Z</time></trkpt><trkpt lat="43.39771916638707" lon="10.87470080043263"><ele>466.40000000000003</ele><time>2026-04-18T10:54:21.001Z</time></trkpt><trkpt lat="43.39777834365725" lon="10.87457713982426"><ele>465.80000000000007</ele><time>2026-04-18T10:54:22.001Z</time></trkpt><trkpt lat="43.397845005002445" lon="10.874468158296937"><ele>465.2</ele><time>2026-04-18T10:54:23.001Z</time></trkpt><trkpt lat="43.39790932131426" lon="10.874358566121547"><ele>464.6</ele><time>2026-04-18T10:54:24.001Z</time></trkpt><trkpt lat="43.397980828227574" lon="10.874256425045779"><ele>464.0</ele><time>2026-04-18T10:54:25.001Z</time></trkpt><trkpt lat="43.39805850547591" lon="10.874153649219151"><ele>467.4</ele><time>2026-04-18T10:54:26.001Z</time></trkpt><trkpt lat="43.39813580005487" lon="10.874049333067608"><ele>470.79999999999995</ele><time>2026-04-18T10:54:27.001Z</time></trkpt><trkpt lat="43.398213854051235" lon="10.873943559130094"><ele>474.20000000000005</ele><time>2026-04-18T10:54:28.001Z</time></trkpt><trkpt lat="43.39829226076311" lon="10.873835149100557"><ele>477.6</ele><time>2026-04-18T10:54:29.001Z</time></trkpt><trkpt lat="43.398365226807016" lon="10.873717211363825"><ele>481.0</ele><time>2026-04-18T10:54:30.001Z</time></trkpt><trkpt lat="43.39842966499371" lon="10.87358935869722"><ele>481.0</ele><time>2026-04-18T10:54:31.001Z</time></trkpt><trkpt lat="43.39849122628781" lon="10.873461246751562"><ele>481.0</ele><time>2026-04-18T10:54:32.001Z</time></trkpt><trkpt lat="43.39855614408577" lon="10.873314361133723"><ele>481.0</ele><time>2026-04-18T10:54:33.001Z</time></trkpt><trkpt lat="43.39862050294899" lon="10.87317919948907"><ele>481.0</ele><time>2026-04-18T10:54:34.001Z</time></trkpt><trkpt lat="43.39869016356165" lon="10.873045964949036"><ele>480.25</ele><time>2026-04-18T10:54:35.001Z</time></trkpt><trkpt lat="43.3987565412979" lon="10.87291045129691"><ele>479.5</ele><time>2026-04-18T10:54:36.001Z</time></trkpt><trkpt lat="43.39882324653005" lon="10.872777092665359"><ele>478.75</ele><time>2026-04-18T10:54:37.001Z</time></trkpt><trkpt lat="43.398889874171026" lon="10.87264547456292"><ele>478.0</ele><time>2026-04-18T10:54:38.001Z</time></trkpt><trkpt lat="43.39895173110152" lon="10.872530204967104"><ele>480.4</ele><time>2026-04-18T10:54:39.001Z</time></trkpt><trkpt lat="43.399015077511706" lon="10.872424248894175"><ele>482.79999999999995</ele><time>2026-04-18T10:54:40.001Z</time></trkpt><trkpt lat="43.399081654165016" lon="10.872326874470998"><ele>485.2</ele><time>2026-04-18T10:54:41.001Z</time></trkpt><trkpt lat="43.39914834076716" lon="10.872233539860911"><ele>487.6</ele><time>2026-04-18T10:54:42.001Z</time></trkpt><trkpt lat="43.39921004029005" lon="10.87214537696881"><ele>490.0</ele><time>2026-04-18T10:54:43.001Z</time></trkpt><trkpt lat="43.3992662534238" lon="10.872072628671168"><ele>490.00000000000006</ele><time>2026-04-18T10:54:44.001Z</time></trkpt><trkpt lat="43.39931766878314" lon="10.871995980451759"><ele>490.0</ele><time>2026-04-18T10:54:45.001Z</time></trkpt><trkpt lat="43.399360196898705" lon="10.87191212850719"><ele>490.0</ele><time>2026-04-18T10:54:46.001Z</time></trkpt><trkpt lat="43.39940299190209" lon="10.871818897529806"><ele>490.0</ele><time>2026-04-18T10:54:47.001Z</time></trkpt><trkpt lat="43.39945993466686" lon="10.871739435250488"><ele>490.00000000000006</ele><time>2026-04-18T10:54:48.001Z</time></trkpt><trkpt lat="43.399503830022894" lon="10.871641585714643"><ele>490.0</ele><time>2026-04-18T10:54:49.001Z</time></trkpt><trkpt lat="43.39954368141845" lon="10.871544599617131"><ele>490.33333333333337</ele><time>2026-04-18T10:54:50.001Z</time></trkpt><trkpt lat="43.39957631771788" lon="10.871456938248917"><ele>490.6666666666667</ele><time>2026-04-18T10:54:51.001Z</time></trkpt><trkpt lat="43.39961099543406" lon="10.87134364296038"><ele>491.0</ele><time>2026-04-18T10:54:52.001Z</time></trkpt><trkpt lat="43.39963420628043" lon="10.871256466519398"><ele>491.33333333333337</ele><time>2026-04-18T10:54:53.001Z</time></trkpt><trkpt lat="43.39966221645805" lon="10.871141569163314"><ele>491.6666666666667</ele><time>2026-04-18T10:54:54.001Z</time></trkpt><trkpt lat="43.3996817913481" lon="10.871032255672414"><ele>492.0</ele><time>2026-04-18T10:54:55.001Z</time></trkpt><trkpt lat="43.39969513195538" lon="10.870935588151797"><ele>492.8333333333333</ele><time>2026-04-18T10:54:56.001Z</time></trkpt><trkpt lat="43.39970312641847" lon="10.87083385673922"><ele>493.66666666666663</ele><time>2026-04-18T10:54:57.001Z</time></trkpt><trkpt lat="43.39971016574993" lon="10.870737460010409"><ele>494.5</ele><time>2026-04-18T10:54:58.001Z</time></trkpt><trkpt lat="43.39969825902254" lon="10.870626946933173"><ele>495.3333333333333</ele><time>2026-04-18T10:54:59.001Z</time></trkpt><trkpt lat="43.39969781365598" lon="10.87051253279108"><ele>496.16666666666663</ele><time>2026-04-18T10:55:00.001Z</time></trkpt><trkpt lat="43.399697970143905" lon="10.870413164637574"><ele>497.0</ele><time>2026-04-18T10:55:01.001Z</time></trkpt><trkpt lat="43.39969716763631" lon="10.870308028912342"><ele>496.99999999999994</ele><time>2026-04-18T10:55:02.001Z</time></trkpt><trkpt lat="43.399682223062136" lon="10.870200904686314"><ele>497.0</ele><time>2026-04-18T10:55:03.001Z</time></trkpt><trkpt lat="43.39965916475653" lon="10.870086493431753"><ele>497.0</ele><time>2026-04-18T10:55:04.002Z</time></trkpt><trkpt lat="43.39964836193441" lon="10.869969858960014"><ele>497.0</ele><time>2026-04-18T10:55:05.002Z</time></trkpt><trkpt lat="43.39963951552873" lon="10.869849612341463"><ele>496.99999999999994</ele><time>2026-04-18T10:55:06.002Z</time></trkpt><trkpt lat="43.399630789640376" lon="10.86972471498198"><ele>497.0</ele><time>2026-04-18T10:55:07.002Z</time></trkpt><trkpt lat="43.39962498323213" lon="10.869581848381284"><ele>497.6</ele><time>2026-04-18T10:55:08.002Z</time></trkpt><trkpt lat="43.39961744361508" lon="10.869463547049483"><ele>498.20000000000005</ele><time>2026-04-18T10:55:09.002Z</time></trkpt><trkpt lat="43.399598465474" lon="10.869341195269806"><ele>498.8</ele><time>2026-04-18T10:55:10.002Z</time></trkpt><trkpt lat="43.39957813790121" lon="10.869210165093515"><ele>499.4</ele><time>2026-04-18T10:55:11.002Z</time></trkpt><trkpt lat="43.39954666831893" lon="10.869090006592597"><ele>500.0</ele><time>2026-04-18T10:55:12.002Z</time></trkpt><trkpt lat="43.39952124743713" lon="10.868960467018123"><ele>500.2</ele><time>2026-04-18T10:55:13.002Z</time></trkpt><trkpt lat="43.399499637891104" lon="10.8688318395456"><ele>500.4</ele><time>2026-04-18T10:55:14.002Z</time></trkpt><trkpt lat="43.399474414859924" lon="10.868698956479694"><ele>500.6</ele><time>2026-04-18T10:55:15.002Z</time></trkpt><trkpt lat="43.399447914650594" lon="10.868563597732562"><ele>500.8</ele><time>2026-04-18T10:55:16.002Z</time></trkpt><trkpt lat="43.39942039366369" lon="10.868425218444466"><ele>501.0</ele><time>2026-04-18T10:55:17.002Z</time></trkpt><trkpt lat="43.39938496164845" lon="10.868288759898183"><ele>501.0</ele><time>2026-04-18T10:55:18.002Z</time></trkpt><trkpt lat="43.3993532286977" lon="10.868148006430408"><ele>501.0</ele><time>2026-04-18T10:55:19.002Z</time></trkpt><trkpt lat="43.39932161370353" lon="10.868017866971075"><ele>501.0</ele><time>2026-04-18T10:55:20.002Z</time></trkpt><trkpt lat="43.39929340783733" lon="10.867879734133664"><ele>501.0</ele><time>2026-04-18T10:55:21.002Z</time></trkpt><trkpt lat="43.399271670932094" lon="10.867744862795629"><ele>501.0</ele><time>2026-04-18T10:55:22.002Z</time></trkpt><trkpt lat="43.39925699497135" lon="10.867609714518993"><ele>502.20000000000005</ele><time>2026-04-18T10:55:23.002Z</time></trkpt><trkpt lat="43.39924420008225" lon="10.867474494048777"><ele>503.40000000000003</ele><time>2026-04-18T10:55:24.002Z</time></trkpt><trkpt lat="43.39923636388791" lon="10.867330963095293"><ele>504.6</ele><time>2026-04-18T10:55:25Z</time></trkpt><trkpt lat="43.399239462619484" lon="10.867187046358614"><ele>505.8</ele><time>2026-04-18T10:55:26Z</time></trkpt><trkpt lat="43.39924616694868" lon="10.867040539680847"><ele>507.0</ele><time>2026-04-18T10:55:27Z</time></trkpt><trkpt lat="43.399249030976115" lon="10.866894322936721"><ele>508.40000000000003</ele><time>2026-04-18T10:55:28Z</time></trkpt><trkpt lat="43.39925397842007" lon="10.866739291308024"><ele>509.80000000000007</ele><time>2026-04-18T10:55:29Z</time></trkpt><trkpt lat="43.39925758717957" lon="10.866599969343897"><ele>511.2</ele><time>2026-04-18T10:55:30Z</time></trkpt><trkpt lat="43.39926154666607" lon="10.866467549130771"><ele>512.6</ele><time>2026-04-18T10:55:31Z</time></trkpt><trkpt lat="43.399265284401295" lon="10.866340666144538"><ele>514.0</ele><time>2026-04-18T10:55:32Z</time></trkpt><trkpt lat="43.39926714433566" lon="10.86622207858263"><ele>514.0</ele><time>2026-04-18T10:55:33Z</time></trkpt><trkpt lat="43.39927269518689" lon="10.866106365864574"><ele>514.0</ele><time>2026-04-18T10:55:34Z</time></trkpt><trkpt lat="43.39927708097363" lon="10.865990679294525"><ele>514.0</ele><time>2026-04-18T10:55:35Z</time></trkpt><trkpt lat="43.39928125117832" lon="10.865873592637447"><ele>514.0</ele><time>2026-04-18T10:55:36Z</time></trkpt><trkpt lat="43.39927599568132" lon="10.865764688576482"><ele>514.0</ele><time>2026-04-18T10:55:37Z</time></trkpt><trkpt lat="43.39927549701362" lon="10.865674975383849"><ele>514.0</ele><time>2026-04-18T10:55:38Z</time></trkpt><trkpt lat="43.399288372798416" lon="10.865558229413477"><ele>514.6666666666667</ele><time>2026-04-18T10:55:40Z</time></trkpt><trkpt lat="43.399348691234366" lon="10.865447075626532"><ele>515.3333333333334</ele><time>2026-04-18T10:55:42Z</time></trkpt><trkpt lat="43.39937314965826" lon="10.86534897398628"><ele>516.0</ele><time>2026-04-18T10:55:44Z</time></trkpt><trkpt lat="43.39939523266675" lon="10.865257821536517"><ele>516.6666666666666</ele><time>2026-04-18T10:55:47Z</time></trkpt><trkpt lat="43.399350000537716" lon="10.86533395173866"><ele>517.3333333333333</ele><time>2026-04-18T10:55:59Z</time></trkpt><trkpt lat="43.39932157131702" lon="10.865453557858483"><ele>518.0</ele><time>2026-04-18T10:56:02Z</time></trkpt><trkpt lat="43.39920668960397" lon="10.865465957591443"><ele>518.0</ele><time>2026-04-18T10:56:06.001Z</time></trkpt><trkpt lat="43.39918089253506" lon="10.865349517718851"><ele>518.0</ele><time>2026-04-18T10:56:08.001Z</time></trkpt><trkpt lat="43.39936872672693" lon="10.865240080885684"><ele>518.0</ele><time>2026-04-18T10:56:10.001Z</time></trkpt><trkpt lat="43.399385099383466" lon="10.865141271226037"><ele>518.0</ele><time>2026-04-18T10:56:11.001Z</time></trkpt><trkpt lat="43.399403411025155" lon="10.865030759639279"><ele>518.0</ele><time>2026-04-18T10:56:12.001Z</time></trkpt><trkpt lat="43.39942342223484" lon="10.864916545119067"><ele>517.8</ele><time>2026-04-18T10:56:13.001Z</time></trkpt><trkpt lat="43.39944440914228" lon="10.864796283663972"><ele>517.5999999999999</ele><time>2026-04-18T10:56:14.001Z</time></trkpt><trkpt lat="43.39946523457048" lon="10.86467694750188"><ele>517.4000000000001</ele><time>2026-04-18T10:56:15.001Z</time></trkpt><trkpt lat="43.39948764956192" lon="10.864548276982491"><ele>517.2</ele><time>2026-04-18T10:56:16.001Z</time></trkpt><trkpt lat="43.39950965011612" lon="10.86441965839462"><ele>517.0</ele><time>2026-04-18T10:56:17.001Z</time></trkpt><trkpt lat="43.39953282999418" lon="10.864280127323076"><ele>516.6</ele><time>2026-04-18T10:56:18.001Z</time></trkpt><trkpt lat="43.39955483321473" lon="10.86414056037433"><ele>516.2</ele><time>2026-04-18T10:56:19.001Z</time></trkpt><trkpt lat="43.39957944266946" lon="10.86398303116988"><ele>515.8</ele><time>2026-04-18T10:56:20.001Z</time></trkpt><trkpt lat="43.39960071964883" lon="10.863838067879461"><ele>515.4</ele><time>2026-04-18T10:56:21.001Z</time></trkpt><trkpt lat="43.3996222565177" lon="10.86368640224915"><ele>515.0</ele><time>2026-04-18T10:56:22.001Z</time></trkpt><trkpt lat="43.39964275530509" lon="10.863531714991348"><ele>514.0</ele><time>2026-04-18T10:56:23.001Z</time></trkpt><trkpt lat="43.39966292173914" lon="10.863367459929197"><ele>513.0</ele><time>2026-04-18T10:56:24.001Z</time></trkpt><trkpt lat="43.39967766270088" lon="10.863223375132867"><ele>512.0</ele><time>2026-04-18T10:56:25.001Z</time></trkpt><trkpt lat="43.399691883156926" lon="10.863084378099497"><ele>511.0</ele><time>2026-04-18T10:56:26.001Z</time></trkpt><trkpt lat="43.39970653968797" lon="10.862941118574403"><ele>510.0</ele><time>2026-04-18T10:56:27.001Z</time></trkpt><trkpt lat="43.39972133461903" lon="10.86279650630676"><ele>515.8</ele><time>2026-04-18T10:56:28.001Z</time></trkpt><trkpt lat="43.39973555042555" lon="10.862656718534694"><ele>521.6</ele><time>2026-04-18T10:56:29.001Z</time></trkpt><trkpt lat="43.39975000552401" lon="10.862514063738324"><ele>527.4</ele><time>2026-04-18T10:56:30.001Z</time></trkpt><trkpt lat="43.3997641576893" lon="10.86237439857614"><ele>533.2</ele><time>2026-04-18T10:56:31.001Z</time></trkpt><trkpt lat="43.39977778175798" lon="10.862239945112426"><ele>539.0</ele><time>2026-04-18T10:56:32.001Z</time></trkpt><trkpt lat="43.399791853946155" lon="10.862113498098752"><ele>539.0</ele><time>2026-04-18T10:56:33.001Z</time></trkpt><trkpt lat="43.3998064347619" lon="10.861984008885154"><ele>539.0</ele><time>2026-04-18T10:56:34.001Z</time></trkpt><trkpt lat="43.39982201948251" lon="10.861856667354337"><ele>539.0</ele><time>2026-04-18T10:56:35.001Z</time></trkpt><trkpt lat="43.39983911963583" lon="10.861719836378212"><ele>539.0</ele><time>2026-04-18T10:56:36.001Z</time></trkpt><trkpt lat="43.399856157940675" lon="10.861583500344736"><ele>539.0</ele><time>2026-04-18T10:56:37.001Z</time></trkpt><trkpt lat="43.39987289409066" lon="10.861450746083834"><ele>538.2</ele><time>2026-04-18T10:56:38.001Z</time></trkpt><trkpt lat="43.39989208486134" lon="10.861299878437874"><ele>537.4</ele><time>2026-04-18T10:56:39.001Z</time></trkpt><trkpt lat="43.39990711807435" lon="10.861161658782171"><ele>536.6</ele><time>2026-04-18T10:56:40.001Z</time></trkpt><trkpt lat="43.39992179681858" lon="10.86101534800621"><ele>535.8</ele><time>2026-04-18T10:56:41.001Z</time></trkpt><trkpt lat="43.39993545189192" lon="10.86087779690883"><ele>535.0</ele><time>2026-04-18T10:56:42.001Z</time></trkpt><trkpt lat="43.39994923917232" lon="10.86075439765964"><ele>534.0</ele><time>2026-04-18T10:56:43.001Z</time></trkpt><trkpt lat="43.39996535903227" lon="10.860640052908616"><ele>533.0</ele><time>2026-04-18T10:56:44.001Z</time></trkpt><trkpt lat="43.399984063895666" lon="10.860523686473265"><ele>532.0</ele><time>2026-04-18T10:56:45.001Z</time></trkpt><trkpt lat="43.40000540544651" lon="10.860407875626525"><ele>531.0</ele><time>2026-04-18T10:56:46.001Z</time></trkpt><trkpt lat="43.40005611555746" lon="10.860262898201889"><ele>530.0</ele><time>2026-04-18T10:56:48.001Z</time></trkpt><trkpt lat="43.40005336051709" lon="10.86016707190782"><ele>529.0</ele><time>2026-04-18T10:56:50.001Z</time></trkpt><trkpt lat="43.400082914242404" lon="10.860018116630094"><ele>526.3333333333334</ele><time>2026-04-18T10:56:52.001Z</time></trkpt><trkpt lat="43.40008613919071" lon="10.859915373533516"><ele>523.6666666666667</ele><time>2026-04-18T10:56:53.001Z</time></trkpt><trkpt lat="43.4000947314067" lon="10.859807425449864"><ele>521.0</ele><time>2026-04-18T10:56:54.001Z</time></trkpt><trkpt lat="43.40010605901871" lon="10.85969712719741"><ele>518.3333333333334</ele><time>2026-04-18T10:56:55.001Z</time></trkpt><trkpt lat="43.400118907013585" lon="10.859591668607383"><ele>515.6666666666666</ele><time>2026-04-18T10:56:56.001Z</time></trkpt><trkpt lat="43.40013930375667" lon="10.859487274174535"><ele>513.0</ele><time>2026-04-18T10:56:57.001Z</time></trkpt><trkpt lat="43.400156603863195" lon="10.859382956633208"><ele>513.0</ele><time>2026-04-18T10:56:58.001Z</time></trkpt><trkpt lat="43.40021675894108" lon="10.859316825798368"><ele>513.0</ele><time>2026-04-18T10:56:59.001Z</time></trkpt><trkpt lat="43.400313142235305" lon="10.859229493331492"><ele>513.0</ele><time>2026-04-18T10:57:01.001Z</time></trkpt><trkpt lat="43.40037804736891" lon="10.859158224357746"><ele>513.0</ele><time>2026-04-18T10:57:02.001Z</time></trkpt><trkpt lat="43.40047326228619" lon="10.859070113660493"><ele>513.0</ele><time>2026-04-18T10:57:04.002Z</time></trkpt><trkpt lat="43.400548386556224" lon="10.85900233024895"><ele>512.6</ele><time>2026-04-18T10:57:05.002Z</time></trkpt><trkpt lat="43.40066051808937" lon="10.858927397806818"><ele>512.1999999999999</ele><time>2026-04-18T10:57:07.002Z</time></trkpt><trkpt lat="43.40072845514025" lon="10.85886625980186"><ele>511.8</ele><time>2026-04-18T10:57:10.002Z</time></trkpt><trkpt lat="43.40070378761075" lon="10.858776300394176"><ele>511.4</ele><time>2026-04-18T10:57:12.002Z</time></trkpt><trkpt lat="43.4007272546572" lon="10.858691927430579"><ele>511.0</ele><time>2026-04-18T10:57:14.002Z</time></trkpt><trkpt lat="43.40052792763284" lon="10.858071789767019"><ele>504.75</ele><time>2026-04-18T10:57:15.002Z</time></trkpt><trkpt lat="43.40046817696653" lon="10.857974332314708"><ele>498.5</ele><time>2026-04-18T10:57:18.002Z</time></trkpt><trkpt lat="43.40036656589776" lon="10.85796804906997"><ele>492.25</ele><time>2026-04-18T10:57:20.002Z</time></trkpt><trkpt lat="43.40017252159821" lon="10.858075512728801"><ele>486.0</ele><time>2026-04-18T10:57:23.002Z</time></trkpt><trkpt lat="43.400091816321826" lon="10.858113020360658"><ele>486.0</ele><time>2026-04-18T10:57:24.002Z</time></trkpt><trkpt lat="43.39998576464474" lon="10.858133502537765"><ele>486.0</ele><time>2026-04-18T10:57:25.002Z</time></trkpt><trkpt lat="43.39989682523147" lon="10.858163955105512"><ele>486.0</ele><time>2026-04-18T10:57:26.002Z</time></trkpt><trkpt lat="43.39979725817965" lon="10.858191037418221"><ele>486.0</ele><time>2026-04-18T10:57:27.002Z</time></trkpt><trkpt lat="43.399705221335566" lon="10.858228965923646"><ele>486.0</ele><time>2026-04-18T10:57:28.002Z</time></trkpt><trkpt lat="43.39960870925706" lon="10.858261386689879"><ele>484.8</ele><time>2026-04-18T10:57:29.002Z</time></trkpt><trkpt lat="43.39951104670494" lon="10.85831608952705"><ele>483.6</ele><time>2026-04-18T10:57:30.002Z</time></trkpt><trkpt lat="43.39942231376731" lon="10.858366112817995"><ele>482.4</ele><time>2026-04-18T10:57:31Z</time></trkpt><trkpt lat="43.39932649312425" lon="10.858421121823548"><ele>481.2</ele><time>2026-04-18T10:57:32Z</time></trkpt><trkpt lat="43.39924260745805" lon="10.858479846400193"><ele>480.0</ele><time>2026-04-18T10:57:33Z</time></trkpt><trkpt lat="43.399175586728674" lon="10.858526693410841"><ele>480.0</ele><time>2026-04-18T10:57:34Z</time></trkpt><trkpt lat="43.399095553612675" lon="10.858597094841713"><ele>480.0</ele><time>2026-04-18T10:57:36Z</time></trkpt><trkpt lat="43.39905817996123" lon="10.858669794849934"><ele>480.0</ele><time>2026-04-18T10:57:43Z</time></trkpt><trkpt lat="43.39901624380016" lon="10.858753881503166"><ele>480.0</ele><time>2026-04-18T10:57:46Z</time></trkpt><trkpt lat="43.398945799768384" lon="10.858882965382733"><ele>480.0</ele><time>2026-04-18T10:57:48Z</time></trkpt><trkpt lat="43.39890218433355" lon="10.858975202793193"><ele>480.0</ele><time>2026-04-18T10:57:49Z</time></trkpt><trkpt lat="43.398865058303834" lon="10.85906621336263"><ele>476.6666666666667</ele><time>2026-04-18T10:57:50Z</time></trkpt><trkpt lat="43.39883242955668" lon="10.859148343940339"><ele>473.33333333333337</ele><time>2026-04-18T10:57:51Z</time></trkpt><trkpt lat="43.39880136138839" lon="10.859226544811703"><ele>470.0</ele><time>2026-04-18T10:57:52Z</time></trkpt><trkpt lat="43.39874386450728" lon="10.859342490240762"><ele>466.6666666666667</ele><time>2026-04-18T10:57:54Z</time></trkpt><trkpt lat="43.39868804663521" lon="10.859419899288078"><ele>463.33333333333337</ele><time>2026-04-18T10:57:57Z</time></trkpt><trkpt lat="43.39861697225223" lon="10.859484630503472"><ele>460.0</ele><time>2026-04-18T10:57:59Z</time></trkpt><trkpt lat="43.398573712741054" lon="10.859631622430939"><ele>460.00000000000006</ele><time>2026-04-18T10:58:01Z</time></trkpt><trkpt lat="43.39855934629805" lon="10.85979362268039"><ele>460.0</ele><time>2026-04-18T10:58:03Z</time></trkpt><trkpt lat="43.39856122022844" lon="10.859884669786522"><ele>460.0</ele><time>2026-04-18T10:58:04Z</time></trkpt><trkpt lat="43.39857253865143" lon="10.859981557029814"><ele>460.0</ele><time>2026-04-18T10:58:05Z</time></trkpt><trkpt lat="43.39859411543186" lon="10.8600980588073"><ele>460.00000000000006</ele><time>2026-04-18T10:58:06Z</time></trkpt><trkpt lat="43.39862423535751" lon="10.86019045556476"><ele>460.0</ele><time>2026-04-18T10:58:07Z</time></trkpt><trkpt lat="43.398638882258524" lon="10.860277366832296"><ele>460.6666666666667</ele><time>2026-04-18T10:58:08Z</time></trkpt><trkpt lat="43.39865407550688" lon="10.860385991217791"><ele>461.33333333333337</ele><time>2026-04-18T10:58:09Z</time></trkpt><trkpt lat="43.39866477262211" lon="10.86049928850735"><ele>462.0</ele><time>2026-04-18T10:58:10Z</time></trkpt><trkpt lat="43.39866962787322" lon="10.860629345769583"><ele>462.66666666666663</ele><time>2026-04-18T10:58:11Z</time></trkpt><trkpt lat="43.398665047903144" lon="10.860759252112736"><ele>463.3333333333333</ele><time>2026-04-18T10:58:12Z</time></trkpt><trkpt lat="43.398655920600376" lon="10.860877097736223"><ele>464.0</ele><time>2026-04-18T10:58:13Z</time></trkpt><trkpt lat="43.39864896891964" lon="10.860970795071022"><ele>465.0</ele><time>2026-04-18T10:58:14Z</time></trkpt><trkpt lat="43.39858848749343" lon="10.861123248568518"><ele>466.0</ele><time>2026-04-18T10:58:16Z</time></trkpt><trkpt lat="43.39854496537574" lon="10.861192685593476"><ele>467.0</ele><time>2026-04-18T10:58:17Z</time></trkpt><trkpt lat="43.39848795750958" lon="10.861266396819058"><ele>468.0</ele><time>2026-04-18T10:58:18Z</time></trkpt><trkpt lat="43.39842496916216" lon="10.861352159800205"><ele>469.0</ele><time>2026-04-18T10:58:19Z</time></trkpt><trkpt lat="43.39835789597058" lon="10.861443483775728"><ele>469.0</ele><time>2026-04-18T10:58:20Z</time></trkpt><trkpt lat="43.39828449720352" lon="10.861551963222874"><ele>469.0</ele><time>2026-04-18T10:58:21.001Z</time></trkpt><trkpt lat="43.398211659655594" lon="10.861670961328127"><ele>469.0</ele><time>2026-04-18T10:58:22.001Z</time></trkpt><trkpt lat="43.39814573293941" lon="10.861792716820506"><ele>469.0</ele><time>2026-04-18T10:58:23.001Z</time></trkpt><trkpt lat="43.39807986141812" lon="10.861914094434969"><ele>469.0</ele><time>2026-04-18T10:58:24.001Z</time></trkpt><trkpt lat="43.39801387739458" lon="10.862029618726588"><ele>467.6</ele><time>2026-04-18T10:58:25.001Z</time></trkpt><trkpt lat="43.397951982188864" lon="10.86212416306036"><ele>466.2</ele><time>2026-04-18T10:58:26.001Z</time></trkpt><trkpt lat="43.39789012365038" lon="10.862221909293272"><ele>464.80000000000007</ele><time>2026-04-18T10:58:27.001Z</time></trkpt><trkpt lat="43.39780116463431" lon="10.862297829086224"><ele>463.40000000000003</ele><time>2026-04-18T10:58:28.001Z</time></trkpt><trkpt lat="43.397699615901765" lon="10.862336222376117"><ele>462.0</ele><time>2026-04-18T10:58:29.001Z</time></trkpt><trkpt lat="43.3976146757994" lon="10.862377161265405"><ele>462.0</ele><time>2026-04-18T10:58:30.001Z</time></trkpt><trkpt lat="43.397528128499424" lon="10.8624206158032"><ele>462.0</ele><time>2026-04-18T10:58:31.001Z</time></trkpt><trkpt lat="43.39744487458911" lon="10.862463173189672"><ele>462.0</ele><time>2026-04-18T10:58:32.001Z</time></trkpt><trkpt lat="43.3973607569701" lon="10.862488369277704"><ele>462.0</ele><time>2026-04-18T10:58:33.001Z</time></trkpt><trkpt lat="43.39728803836582" lon="10.862499218951378"><ele>462.0</ele><time>2026-04-18T10:58:34.001Z</time></trkpt><trkpt lat="43.39718950424297" lon="10.86251237870036"><ele>462.0</ele><time>2026-04-18T10:58:36.001Z</time></trkpt><trkpt lat="43.397112612823754" lon="10.862512087100654"><ele>461.6</ele><time>2026-04-18T10:58:38.001Z</time></trkpt><trkpt lat="43.397014896449114" lon="10.862510496531046"><ele>461.20000000000005</ele><time>2026-04-18T10:58:40.001Z</time></trkpt><trkpt lat="43.396914350919786" lon="10.862445640682898"><ele>460.8</ele><time>2026-04-18T10:58:42.001Z</time></trkpt><trkpt lat="43.39682245290151" lon="10.862432919744185"><ele>460.4</ele><time>2026-04-18T10:58:44.001Z</time></trkpt><trkpt lat="43.39672682172639" lon="10.86239134634251"><ele>460.0</ele><time>2026-04-18T10:58:46.001Z</time></trkpt><trkpt lat="43.39660541691958" lon="10.862411781598192"><ele>460.00000000000006</ele><time>2026-04-18T10:58:48.001Z</time></trkpt><trkpt lat="43.396542789821716" lon="10.862463241974204"><ele>460.0</ele><time>2026-04-18T10:58:49.001Z</time></trkpt><trkpt lat="43.396465844621964" lon="10.862491520707728"><ele>460.0</ele><time>2026-04-18T10:58:50.001Z</time></trkpt><trkpt lat="43.39637940888037" lon="10.86252640878132"><ele>460.0</ele><time>2026-04-18T10:58:51.001Z</time></trkpt><trkpt lat="43.396292038587724" lon="10.86256471700736"><ele>460.00000000000006</ele><time>2026-04-18T10:58:52.001Z</time></trkpt><trkpt lat="43.39619927168226" lon="10.862583418779662"><ele>460.0</ele><time>2026-04-18T10:58:53.001Z</time></trkpt><trkpt lat="43.39611684583603" lon="10.862619121668347"><ele>458.1666666666667</ele><time>2026-04-18T10:58:54.001Z</time></trkpt><trkpt lat="43.396037442211004" lon="10.86265350674561"><ele>456.33333333333337</ele><time>2026-04-18T10:58:55.001Z</time></trkpt><trkpt lat="43.39596428514045" lon="10.862685186810413"><ele>454.5</ele><time>2026-04-18T10:58:56.001Z</time></trkpt><trkpt lat="43.39589980446236" lon="10.86273276436938"><ele>452.66666666666663</ele><time>2026-04-18T10:58:57.001Z</time></trkpt><trkpt lat="43.39582751674896" lon="10.862743683057523"><ele>450.8333333333333</ele><time>2026-04-18T10:58:58.001Z</time></trkpt><trkpt lat="43.39575456765464" lon="10.86272993839409"><ele>449.0</ele><time>2026-04-18T10:58:59.001Z</time></trkpt><trkpt lat="43.39567704550397" lon="10.862702669470448"><ele>449.0</ele><time>2026-04-18T10:59:00.001Z</time></trkpt><trkpt lat="43.39559219830595" lon="10.862654026723462"><ele>449.0</ele><time>2026-04-18T10:59:01.001Z</time></trkpt><trkpt lat="43.39549262585205" lon="10.86264136104286"><ele>449.0</ele><time>2026-04-18T10:59:02.001Z</time></trkpt><trkpt lat="43.39539783517618" lon="10.862604714267295"><ele>449.0</ele><time>2026-04-18T10:59:03.001Z</time></trkpt><trkpt lat="43.39529867609278" lon="10.862564462029319"><ele>449.0</ele><time>2026-04-18T10:59:04.001Z</time></trkpt><trkpt lat="43.3952166684643" lon="10.862530260952779"><ele>447.8333333333333</ele><time>2026-04-18T10:59:05.001Z</time></trkpt><trkpt lat="43.395144245178265" lon="10.862501063695476"><ele>446.66666666666663</ele><time>2026-04-18T10:59:06.001Z</time></trkpt><trkpt lat="43.39501688998618" lon="10.86249275426427"><ele>445.5</ele><time>2026-04-18T10:59:08.001Z</time></trkpt><trkpt lat="43.39494956891722" lon="10.86252022730807"><ele>444.33333333333337</ele><time>2026-04-18T10:59:09.001Z</time></trkpt><trkpt lat="43.3948745240903" lon="10.86255536887495"><ele>443.1666666666667</ele><time>2026-04-18T10:59:10.001Z</time></trkpt><trkpt lat="43.394789649059305" lon="10.862599355996831"><ele>442.0</ele><time>2026-04-18T10:59:11.001Z</time></trkpt><trkpt lat="43.39468859217904" lon="10.862642526637691"><ele>439.40000000000003</ele><time>2026-04-18T10:59:12.001Z</time></trkpt><trkpt lat="43.394589040458456" lon="10.862688187800199"><ele>436.80000000000007</ele><time>2026-04-18T10:59:13.001Z</time></trkpt><trkpt lat="43.39449277724182" lon="10.862759614471067"><ele>434.2</ele><time>2026-04-18T10:59:14.001Z</time></trkpt><trkpt lat="43.39439619774721" lon="10.862837219665463"><ele>431.6</ele><time>2026-04-18T10:59:15.001Z</time></trkpt><trkpt lat="43.39429759239008" lon="10.862895891628565"><ele>429.0</ele><time>2026-04-18T10:59:16.001Z</time></trkpt><trkpt lat="43.39420517362505" lon="10.86295800544736"><ele>429.0</ele><time>2026-04-18T10:59:17.001Z</time></trkpt><trkpt lat="43.39411030325216" lon="10.863016123542847"><ele>429.0</ele><time>2026-04-18T10:59:18.001Z</time></trkpt><trkpt lat="43.3940225400378" lon="10.863067314106988"><ele>429.0</ele><time>2026-04-18T10:59:19.001Z</time></trkpt><trkpt lat="43.39394506284983" lon="10.86310555858698"><ele>429.0</ele><time>2026-04-18T10:59:20.001Z</time></trkpt><trkpt lat="43.3938691597041" lon="10.863130224135372"><ele>429.0</ele><time>2026-04-18T10:59:21.002Z</time></trkpt><trkpt lat="43.39380143071584" lon="10.863140220931568"><ele>429.0</ele><time>2026-04-18T10:59:22.002Z</time></trkpt><trkpt lat="43.3937005784436" lon="10.863100196176033"><ele>426.3333333333333</ele><time>2026-04-18T10:59:24.002Z</time></trkpt><trkpt lat="43.3936456576858" lon="10.862969054804488"><ele>423.66666666666663</ele><time>2026-04-18T10:59:26.002Z</time></trkpt><trkpt lat="43.393656558765784" lon="10.86287946627252"><ele>421.0</ele><time>2026-04-18T10:59:27.002Z</time></trkpt><trkpt lat="43.39365489947528" lon="10.86276864555248"><ele>418.3333333333333</ele><time>2026-04-18T10:59:28.002Z</time></trkpt><trkpt lat="43.39363558301866" lon="10.862650459367957"><ele>415.66666666666663</ele><time>2026-04-18T10:59:29.002Z</time></trkpt><trkpt lat="43.39362573948932" lon="10.862527487828466"><ele>413.0</ele><time>2026-04-18T10:59:30.002Z</time></trkpt><trkpt lat="43.39360553107812" lon="10.8624107870146"><ele>412.2</ele><time>2026-04-18T10:59:31.002Z</time></trkpt><trkpt lat="43.39357682350205" lon="10.862290659548567"><ele>411.4</ele><time>2026-04-18T10:59:32.002Z</time></trkpt><trkpt lat="43.393545236238275" lon="10.862173844763465"><ele>410.59999999999997</ele><time>2026-04-18T10:59:33.002Z</time></trkpt><trkpt lat="43.39351202308101" lon="10.862044751284829"><ele>409.79999999999995</ele><time>2026-04-18T10:59:34.002Z</time></trkpt><trkpt lat="43.393477111689315" lon="10.861918686891874"><ele>409.0</ele><time>2026-04-18T10:59:35.002Z</time></trkpt><trkpt lat="43.39343289489218" lon="10.861795415510109"><ele>409.2</ele><time>2026-04-18T10:59:36.002Z</time></trkpt><trkpt lat="43.39338875311975" lon="10.8616617650652"><ele>409.4</ele><time>2026-04-18T10:59:37Z</time></trkpt><trkpt lat="43.39334142060531" lon="10.861523578140226"><ele>409.6</ele><time>2026-04-18T10:59:38Z</time></trkpt><trkpt lat="43.39329222405399" lon="10.86138061302916"><ele>409.8</ele><time>2026-04-18T10:59:39Z</time></trkpt><trkpt lat="43.3932463432117" lon="10.861237940447996"><ele>410.0</ele><time>2026-04-18T10:59:40Z</time></trkpt><trkpt lat="43.39321767269177" lon="10.86110890927665"><ele>410.0</ele><time>2026-04-18T10:59:41Z</time></trkpt><trkpt lat="43.39319183508407" lon="10.860992280010242"><ele>410.0</ele><time>2026-04-18T10:59:42Z</time></trkpt><trkpt lat="43.39316155825305" lon="10.860887658977045"><ele>410.0</ele><time>2026-04-18T10:59:43Z</time></trkpt><trkpt lat="43.39313523198382" lon="10.860798923521065"><ele>410.0</ele><time>2026-04-18T10:59:44Z</time></trkpt><trkpt lat="43.39305059874506" lon="10.860694647545849"><ele>410.0</ele><time>2026-04-18T10:59:46Z</time></trkpt><trkpt lat="43.392939323984024" lon="10.860745468820717"><ele>406.16666666666663</ele><time>2026-04-18T10:59:48Z</time></trkpt><trkpt lat="43.39289821343505" lon="10.860824025559422"><ele>402.3333333333333</ele><time>2026-04-18T10:59:49Z</time></trkpt><trkpt lat="43.39287591111409" lon="10.860915377142863"><ele>398.5</ele><time>2026-04-18T10:59:50Z</time></trkpt><trkpt lat="43.39286085229013" lon="10.861004113658643"><ele>394.66666666666663</ele><time>2026-04-18T10:59:51Z</time></trkpt><trkpt lat="43.39285852282961" lon="10.861172243838851"><ele>390.8333333333333</ele><time>2026-04-18T10:59:53Z</time></trkpt><trkpt lat="43.39286054466315" lon="10.861274330224882"><ele>387.0</ele><time>2026-04-18T10:59:54Z</time></trkpt><trkpt lat="43.392855793529286" lon="10.861375898488738"><ele>387.0</ele><time>2026-04-18T10:59:55Z</time></trkpt><trkpt lat="43.39284400000685" lon="10.861481095808951"><ele>387.0</ele><time>2026-04-18T10:59:56Z</time></trkpt><trkpt lat="43.39282126679867" lon="10.861587492085448"><ele>387.0</ele><time>2026-04-18T10:59:57Z</time></trkpt><trkpt lat="43.39277828824121" lon="10.861676812829526"><ele>387.0</ele><time>2026-04-18T10:59:58Z</time></trkpt><trkpt lat="43.39273059251737" lon="10.861744046359732"><ele>387.0</ele><time>2026-04-18T10:59:59Z</time></trkpt><trkpt lat="43.392627367713715" lon="10.861834776028978"><ele>387.0</ele><time>2026-04-18T11:00:01Z</time></trkpt><trkpt lat="43.39254851382905" lon="10.861876812951065"><ele>387.0</ele><time>2026-04-18T11:00:03Z</time></trkpt><trkpt lat="43.39247540392263" lon="10.861855267958994"><ele>387.0</ele><time>2026-04-18T11:00:05Z</time></trkpt><trkpt lat="43.39242523828516" lon="10.86172437687421"><ele>387.0</ele><time>2026-04-18T11:00:07Z</time></trkpt><trkpt lat="43.39239579853881" lon="10.861640692698268"><ele>387.0</ele><time>2026-04-18T11:00:08Z</time></trkpt><trkpt lat="43.392369862817425" lon="10.861549171209543"><ele>387.0</ele><time>2026-04-18T11:00:09Z</time></trkpt><trkpt lat="43.39234215719081" lon="10.861453669621211"><ele>387.0</ele><time>2026-04-18T11:00:10Z</time></trkpt><trkpt lat="43.392312282872766" lon="10.861361355360772"><ele>387.0</ele><time>2026-04-18T11:00:11Z</time></trkpt><trkpt lat="43.39228442791298" lon="10.861270629485464"><ele>387.0</ele><time>2026-04-18T11:00:12Z</time></trkpt><trkpt lat="43.39225614199296" lon="10.861180477530407"><ele>387.0</ele><time>2026-04-18T11:00:13Z</time></trkpt><trkpt lat="43.392224017460165" lon="10.861088643899027"><ele>387.0</ele><time>2026-04-18T11:00:14Z</time></trkpt><trkpt lat="43.39218719609541" lon="10.860995917712199"><ele>387.0</ele><time>2026-04-18T11:00:15Z</time></trkpt><trkpt lat="43.39214276809485" lon="10.860912408226959"><ele>387.0</ele><time>2026-04-18T11:00:16Z</time></trkpt><trkpt lat="43.39209536847789" lon="10.860821666009791"><ele>382.8</ele><time>2026-04-18T11:00:17Z</time></trkpt><trkpt lat="43.3920130552839" lon="10.860755079662242"><ele>378.6</ele><time>2026-04-18T11:00:18Z</time></trkpt><trkpt lat="43.39192134382293" lon="10.86072606576768"><ele>374.40000000000003</ele><time>2026-04-18T11:00:19Z</time></trkpt><trkpt lat="43.391828703820615" lon="10.86067230940215"><ele>370.20000000000005</ele><time>2026-04-18T11:00:20Z</time></trkpt><trkpt lat="43.391736983238694" lon="10.860625914949878"><ele>366.0</ele><time>2026-04-18T11:00:21Z</time></trkpt><trkpt lat="43.391648314650766" lon="10.860582551909559"><ele>366.0</ele><time>2026-04-18T11:00:22Z</time></trkpt><trkpt lat="43.3915622618405" lon="10.860539954762164"><ele>366.0</ele><time>2026-04-18T11:00:23Z</time></trkpt><trkpt lat="43.39147802220635" lon="10.860495396872684"><ele>366.0</ele><time>2026-04-18T11:00:24Z</time></trkpt><trkpt lat="43.391404622679126" lon="10.860450321131093"><ele>366.0</ele><time>2026-04-18T11:00:25Z</time></trkpt><trkpt lat="43.39134442231909" lon="10.860384761096356"><ele>366.0</ele><time>2026-04-18T11:00:26.001Z</time></trkpt><trkpt lat="43.3912964461571" lon="10.860285802148324"><ele>366.0</ele><time>2026-04-18T11:00:27.001Z</time></trkpt><trkpt lat="43.391264006386706" lon="10.860164848372285"><ele>362.6</ele><time>2026-04-18T11:00:28.001Z</time></trkpt><trkpt lat="43.3912356035784" lon="10.860026158441629"><ele>359.20000000000005</ele><time>2026-04-18T11:00:29.001Z</time></trkpt><trkpt lat="43.391202039324796" lon="10.859887183237023"><ele>355.79999999999995</ele><time>2026-04-18T11:00:30.001Z</time></trkpt><trkpt lat="43.391162906681465" lon="10.85974202183533"><ele>352.4</ele><time>2026-04-18T11:00:31.001Z</time></trkpt><trkpt lat="43.39112387087702" lon="10.859594746520136"><ele>349.0</ele><time>2026-04-18T11:00:32.001Z</time></trkpt><trkpt lat="43.391086940799916" lon="10.859450703165574"><ele>349.0</ele><time>2026-04-18T11:00:33.001Z</time></trkpt><trkpt lat="43.39105521805686" lon="10.859310360805626"><ele>349.0</ele><time>2026-04-18T11:00:34.001Z</time></trkpt><trkpt lat="43.39102929878121" lon="10.859173256215243"><ele>349.0</ele><time>2026-04-18T11:00:35.001Z</time></trkpt><trkpt lat="43.39100632286587" lon="10.859030502576397"><ele>349.0</ele><time>2026-04-18T11:00:36.001Z</time></trkpt><trkpt lat="43.390984283340494" lon="10.858888454279004"><ele>349.0</ele><time>2026-04-18T11:00:37.001Z</time></trkpt><trkpt lat="43.39096519546558" lon="10.858742926441499"><ele>348.4</ele><time>2026-04-18T11:00:38.001Z</time></trkpt><trkpt lat="43.39094930424705" lon="10.85859890738823"><ele>347.79999999999995</ele><time>2026-04-18T11:00:39.001Z</time></trkpt><trkpt lat="43.39093500172965" lon="10.858459511371215"><ele>347.20000000000005</ele><time>2026-04-18T11:00:40.001Z</time></trkpt><trkpt lat="43.39092080932045" lon="10.85832895577297"><ele>346.6</ele><time>2026-04-18T11:00:41.001Z</time></trkpt><trkpt lat="43.390909691921415" lon="10.85820951096971"><ele>346.0</ele><time>2026-04-18T11:00:42.001Z</time></trkpt><trkpt lat="43.39089514677413" lon="10.858057385047386"><ele>344.6</ele><time>2026-04-18T11:00:44.001Z</time></trkpt><trkpt lat="43.390849062957926" lon="10.857909726627442"><ele>343.20000000000005</ele><time>2026-04-18T11:00:46.001Z</time></trkpt><trkpt lat="43.3907983555825" lon="10.857836708779148"><ele>341.79999999999995</ele><time>2026-04-18T11:00:47.001Z</time></trkpt><trkpt lat="43.390727472289264" lon="10.857779330470025"><ele>340.4</ele><time>2026-04-18T11:00:48.001Z</time></trkpt><trkpt lat="43.39064803401937" lon="10.857718352258523"><ele>339.0</ele><time>2026-04-18T11:00:49.001Z</time></trkpt><trkpt lat="43.39056901822085" lon="10.857663897870019"><ele>336.6</ele><time>2026-04-18T11:00:50.001Z</time></trkpt><trkpt lat="43.390488295374674" lon="10.857602976044422"><ele>334.2</ele><time>2026-04-18T11:00:51.001Z</time></trkpt><trkpt lat="43.390411385009855" lon="10.857534118541833"><ele>331.8</ele><time>2026-04-18T11:00:52.001Z</time></trkpt><trkpt lat="43.39033150702614" lon="10.857465260944235"><ele>329.40000000000003</ele><time>2026-04-18T11:00:53.001Z</time></trkpt><trkpt lat="43.390249647428085" lon="10.857393776894234"><ele>327.0</ele><time>2026-04-18T11:00:54.001Z</time></trkpt><trkpt lat="43.39016519112357" lon="10.857326557798858"><ele>327.0</ele><time>2026-04-18T11:00:55.001Z</time></trkpt><trkpt lat="43.390077750306226" lon="10.857260717216466"><ele>327.0</ele><time>2026-04-18T11:00:56.001Z</time></trkpt><trkpt lat="43.3899847106498" lon="10.857191867925387"><ele>327.0</ele><time>2026-04-18T11:00:57.001Z</time></trkpt><trkpt lat="43.38989847925427" lon="10.857133313229498"><ele>327.0</ele><time>2026-04-18T11:00:58.001Z</time></trkpt><trkpt lat="43.38981403139013" lon="10.857071669422112"><ele>327.0</ele><time>2026-04-18T11:00:59.001Z</time></trkpt><trkpt lat="43.3897448946644" lon="10.856980170165404"><ele>327.0</ele><time>2026-04-18T11:01:00.001Z</time></trkpt><trkpt lat="43.38969055329865" lon="10.85686713387754"><ele>327.0</ele><time>2026-04-18T11:01:01.001Z</time></trkpt><trkpt lat="43.389626811612025" lon="10.856781073274917"><ele>327.0</ele><time>2026-04-18T11:01:02.001Z</time></trkpt><trkpt lat="43.389544397810255" lon="10.856712589967653"><ele>327.0</ele><time>2026-04-18T11:01:03.001Z</time></trkpt><trkpt lat="43.389465302646244" lon="10.856652813079256"><ele>327.0</ele><time>2026-04-18T11:01:04.001Z</time></trkpt><trkpt lat="43.38938693711727" lon="10.856584772960547"><ele>325.6666666666667</ele><time>2026-04-18T11:01:05.001Z</time></trkpt><trkpt lat="43.38931101299971" lon="10.856530487697079"><ele>324.3333333333333</ele><time>2026-04-18T11:01:06.001Z</time></trkpt><trkpt lat="43.38923980205769" lon="10.856473513200331"><ele>323.0</ele><time>2026-04-18T11:01:07.001Z</time></trkpt><trkpt lat="43.3891659043507" lon="10.856410503511952"><ele>321.66666666666663</ele><time>2026-04-18T11:01:08.001Z</time></trkpt><trkpt lat="43.38909613277059" lon="10.856354239694033"><ele>320.3333333333333</ele><time>2026-04-18T11:01:09.001Z</time></trkpt><trkpt lat="43.38902752969181" lon="10.856293794357734"><ele>319.0</ele><time>2026-04-18T11:01:10.001Z</time></trkpt><trkpt lat="43.38895651801206" lon="10.856228672937275"><ele>319.0</ele><time>2026-04-18T11:01:11.001Z</time></trkpt><trkpt lat="43.38888710259302" lon="10.856160936315302"><ele>319.0</ele><time>2026-04-18T11:01:12.001Z</time></trkpt><trkpt lat="43.3888159527652" lon="10.856092646327637"><ele>319.0</ele><time>2026-04-18T11:01:13.001Z</time></trkpt><trkpt lat="43.388748417692454" lon="10.85601842100497"><ele>319.0</ele><time>2026-04-18T11:01:14.001Z</time></trkpt><trkpt lat="43.388692303788396" lon="10.855927705624069"><ele>319.0</ele><time>2026-04-18T11:01:15.001Z</time></trkpt><trkpt lat="43.38863889271287" lon="10.855820800137122"><ele>319.0</ele><time>2026-04-18T11:01:16.001Z</time></trkpt><trkpt lat="43.38859057042932" lon="10.855705052513839"><ele>317.2</ele><time>2026-04-18T11:01:17.001Z</time></trkpt><trkpt lat="43.38853790764318" lon="10.855585678213817"><ele>315.4</ele><time>2026-04-18T11:01:18.001Z</time></trkpt><trkpt lat="43.38848644019579" lon="10.85546546641748"><ele>313.6</ele><time>2026-04-18T11:01:19.001Z</time></trkpt><trkpt lat="43.3884232788918" lon="10.855338432290857"><ele>311.8</ele><time>2026-04-18T11:01:20.001Z</time></trkpt><trkpt lat="43.388380607746754" lon="10.855203989619433"><ele>310.0</ele><time>2026-04-18T11:01:21.001Z</time></trkpt><trkpt lat="43.388334194244806" lon="10.855089176914653"><ele>309.4</ele><time>2026-04-18T11:01:22.001Z</time></trkpt><trkpt lat="43.388281113533864" lon="10.854969214537944"><ele>308.8</ele><time>2026-04-18T11:01:23.002Z</time></trkpt><trkpt lat="43.388229735512475" lon="10.854853189193365"><ele>308.2</ele><time>2026-04-18T11:01:24.002Z</time></trkpt><trkpt lat="43.38818293923308" lon="10.854750357214359"><ele>307.6</ele><time>2026-04-18T11:01:25.002Z</time></trkpt><trkpt lat="43.388143476949665" lon="10.85464855554405"><ele>307.0</ele><time>2026-04-18T11:01:26.002Z</time></trkpt><trkpt lat="43.38809597882311" lon="10.854552980771908"><ele>307.0</ele><time>2026-04-18T11:01:27.002Z</time></trkpt><trkpt lat="43.38802837779331" lon="10.85446145560839"><ele>307.0</ele><time>2026-04-18T11:01:28.002Z</time></trkpt><trkpt lat="43.38795028998628" lon="10.854378897787509"><ele>307.0</ele><time>2026-04-18T11:01:29.002Z</time></trkpt><trkpt lat="43.38786331399695" lon="10.854290294339581"><ele>307.0</ele><time>2026-04-18T11:01:30.002Z</time></trkpt><trkpt lat="43.38777305767799" lon="10.854185843113273"><ele>307.0</ele><time>2026-04-18T11:01:31.002Z</time></trkpt><trkpt lat="43.38767739327183" lon="10.854085438356924"><ele>304.2</ele><time>2026-04-18T11:01:32.002Z</time></trkpt><trkpt lat="43.387583766164006" lon="10.853987343661391"><ele>301.4</ele><time>2026-04-18T11:01:33.002Z</time></trkpt><trkpt lat="43.387502092390136" lon="10.853896059969012"><ele>298.6</ele><time>2026-04-18T11:01:34.002Z</time></trkpt><trkpt lat="43.38742909602642" lon="10.8538139196517"><ele>295.8</ele><time>2026-04-18T11:01:35.002Z</time></trkpt><trkpt lat="43.387372024201476" lon="10.853746095244878"><ele>293.0</ele><time>2026-04-18T11:01:36.002Z</time></trkpt><trkpt lat="43.387269558569365" lon="10.853653697698356"><ele>293.0</ele><time>2026-04-18T11:01:38.002Z</time></trkpt><trkpt lat="43.387200871720005" lon="10.853625307128544"><ele>293.0</ele><time>2026-04-18T11:01:39.002Z</time></trkpt><trkpt lat="43.38712615017643" lon="10.853620173020252"><ele>293.0</ele><time>2026-04-18T11:01:40.002Z</time></trkpt><trkpt lat="43.38704230362011" lon="10.853624897212585"><ele>293.0</ele><time>2026-04-18T11:01:41.002Z</time></trkpt><trkpt lat="43.38695402309481" lon="10.853644601872412"><ele>293.0</ele><time>2026-04-18T11:01:42.002Z</time></trkpt><trkpt lat="43.38687351528882" lon="10.853680058036852"><ele>293.0</ele><time>2026-04-18T11:01:43Z</time></trkpt><trkpt lat="43.386798307487894" lon="10.853716674848663"><ele>291.2</ele><time>2026-04-18T11:01:44Z</time></trkpt><trkpt lat="43.38673798096925" lon="10.853748901433045"><ele>289.4</ele><time>2026-04-18T11:01:45Z</time></trkpt><trkpt lat="43.38664705416566" lon="10.85383566887186"><ele>287.59999999999997</ele><time>2026-04-18T11:01:47Z</time></trkpt><trkpt lat="43.38661219619565" lon="10.853990250273586"><ele>285.8</ele><time>2026-04-18T11:01:49Z</time></trkpt><trkpt lat="43.386600924340854" lon="10.854166189478699"><ele>284.0</ele><time>2026-04-18T11:01:51Z</time></trkpt><trkpt lat="43.386597646014216" lon="10.854254273342796"><ele>283.59999999999997</ele><time>2026-04-18T11:01:52Z</time></trkpt><trkpt lat="43.38658858058039" lon="10.854403501560395"><ele>283.2</ele><time>2026-04-18T11:01:54Z</time></trkpt><trkpt lat="43.38657549786514" lon="10.854548350331454"><ele>282.79999999999995</ele><time>2026-04-18T11:01:56Z</time></trkpt><trkpt lat="43.38656782309166" lon="10.854654505484039"><ele>282.4</ele><time>2026-04-18T11:01:58Z</time></trkpt><trkpt lat="43.386486382301186" lon="10.854704031554725"><ele>282.0</ele><time>2026-04-18T11:02:02Z</time></trkpt><trkpt lat="43.3863909622535" lon="10.854719470007266"><ele>279.2</ele><time>2026-04-18T11:02:04Z</time></trkpt><trkpt lat="43.386280777060264" lon="10.85473571470631"><ele>276.4</ele><time>2026-04-18T11:02:06Z</time></trkpt><trkpt lat="43.38616249716107" lon="10.85474818733883"><ele>273.6</ele><time>2026-04-18T11:02:08Z</time></trkpt><trkpt lat="43.386043381717435" lon="10.854805060844965"><ele>270.8</ele><time>2026-04-18T11:02:10Z</time></trkpt><trkpt lat="43.38599408880039" lon="10.854872153544843"><ele>268.0</ele><time>2026-04-18T11:02:11Z</time></trkpt><trkpt lat="43.385959296223334" lon="10.85495111955142"><ele>268.0</ele><time>2026-04-18T11:02:12Z</time></trkpt><trkpt lat="43.385924715911706" lon="10.855030769510785"><ele>268.0</ele><time>2026-04-18T11:02:13Z</time></trkpt><trkpt lat="43.385873814221966" lon="10.855089236260401"><ele>268.0</ele><time>2026-04-18T11:02:14Z</time></trkpt><trkpt lat="43.38575044712256" lon="10.855112668941185"><ele>268.0</ele><time>2026-04-18T11:02:16Z</time></trkpt><trkpt lat="43.38568866080845" lon="10.855093559431623"><ele>268.0</ele><time>2026-04-18T11:02:17Z</time></trkpt><trkpt lat="43.38562914131942" lon="10.855061872195181"><ele>268.0</ele><time>2026-04-18T11:02:18Z</time></trkpt><trkpt lat="43.38556750014276" lon="10.855031822742367"><ele>265.6</ele><time>2026-04-18T11:02:19Z</time></trkpt><trkpt lat="43.38549322338031" lon="10.855001865152351"><ele>263.20000000000005</ele><time>2026-04-18T11:02:20Z</time></trkpt><trkpt lat="43.38541010406478" lon="10.854959177755283"><ele>260.8</ele><time>2026-04-18T11:02:21Z</time></trkpt><trkpt lat="43.38532004832194" lon="10.85490541598689"><ele>258.40000000000003</ele><time>2026-04-18T11:02:22Z</time></trkpt><trkpt lat="43.38522662693551" lon="10.854857897910728"><ele>256.0</ele><time>2026-04-18T11:02:23Z</time></trkpt><trkpt lat="43.38512740393926" lon="10.85481945281755"><ele>256.0</ele><time>2026-04-18T11:02:24Z</time></trkpt><trkpt lat="43.38502213391131" lon="10.854776147076441"><ele>256.0</ele><time>2026-04-18T11:02:25Z</time></trkpt><trkpt lat="43.384918488286715" lon="10.85472134814036"><ele>256.0</ele><time>2026-04-18T11:02:26Z</time></trkpt><trkpt lat="43.38484035334265" lon="10.854642917467393"><ele>256.0</ele><time>2026-04-18T11:02:27Z</time></trkpt><trkpt lat="43.38476319025594" lon="10.854610228221274"><ele>256.0</ele><time>2026-04-18T11:02:28Z</time></trkpt><trkpt lat="43.38468760515511" lon="10.854560061951492"><ele>254.33333333333331</ele><time>2026-04-18T11:02:29Z</time></trkpt><trkpt lat="43.38460327186371" lon="10.854522957852337"><ele>252.66666666666666</ele><time>2026-04-18T11:02:30Z</time></trkpt><trkpt lat="43.38453110823925" lon="10.854501219967135"><ele>251.0</ele><time>2026-04-18T11:02:31Z</time></trkpt><trkpt lat="43.384462679916524" lon="10.854494699636588"><ele>249.33333333333331</ele><time>2026-04-18T11:02:32Z</time></trkpt><trkpt lat="43.3843516855214" lon="10.854494632225505"><ele>247.66666666666666</ele><time>2026-04-18T11:02:34.001Z</time></trkpt><trkpt lat="43.38426128322923" lon="10.85449183609207"><ele>246.0</ele><time>2026-04-18T11:02:36.001Z</time></trkpt><trkpt lat="43.38419114730921" lon="10.85450007018969"><ele>246.0</ele><time>2026-04-18T11:02:39.001Z</time></trkpt><trkpt lat="43.38412038906387" lon="10.854532748734467"><ele>246.0</ele><time>2026-04-18T11:03:03.001Z</time></trkpt><trkpt lat="43.38407062668709" lon="10.854607456077154"><ele>246.0</ele><time>2026-04-18T11:03:05.001Z</time></trkpt><trkpt lat="43.38400568750596" lon="10.854669533011155"><ele>246.0</ele><time>2026-04-18T11:03:07.001Z</time></trkpt><trkpt lat="43.3839396085819" lon="10.854673712252938"><ele>246.0</ele><time>2026-04-18T11:03:09.001Z</time></trkpt><trkpt lat="43.38386234682331" lon="10.854653253149435"><ele>246.0</ele><time>2026-04-18T11:03:13.001Z</time></trkpt><trkpt lat="43.38378560200957" lon="10.854696338577472"><ele>244.60000000000002</ele><time>2026-04-18T11:03:16.001Z</time></trkpt><trkpt lat="43.3837094066588" lon="10.854785212392414"><ele>243.20000000000002</ele><time>2026-04-18T11:03:20.001Z</time></trkpt><trkpt lat="43.38361864177893" lon="10.854825085975094"><ele>241.79999999999998</ele><time>2026-04-18T11:03:22.001Z</time></trkpt><trkpt lat="43.38352772895041" lon="10.854816712502588"><ele>240.39999999999998</ele><time>2026-04-18T11:03:24.001Z</time></trkpt><trkpt lat="43.38343965672236" lon="10.854809528368587"><ele>239.0</ele><time>2026-04-18T11:03:26.001Z</time></trkpt><trkpt lat="43.38334509690008" lon="10.854819628446187"><ele>239.00000000000003</ele><time>2026-04-18T11:03:28.002Z</time></trkpt><trkpt lat="43.38323802891802" lon="10.854868964318507"><ele>239.0</ele><time>2026-04-18T11:03:30.002Z</time></trkpt><trkpt lat="43.38317877390185" lon="10.854911683690451"><ele>239.0</ele><time>2026-04-18T11:03:31.002Z</time></trkpt><trkpt lat="43.383109273900565" lon="10.854967361423698"><ele>239.0</ele><time>2026-04-18T11:03:32.002Z</time></trkpt><trkpt lat="43.38303433226441" lon="10.855015821351847"><ele>239.00000000000003</ele><time>2026-04-18T11:03:33.002Z</time></trkpt><trkpt lat="43.38295799134199" lon="10.855062380472042"><ele>239.0</ele><time>2026-04-18T11:03:34.002Z</time></trkpt><trkpt lat="43.38288233278907" lon="10.855096885291248"><ele>237.66666666666669</ele><time>2026-04-18T11:03:35.002Z</time></trkpt><trkpt lat="43.38280582679028" lon="10.855112599552378"><ele>236.33333333333334</ele><time>2026-04-18T11:03:36.002Z</time></trkpt><trkpt lat="43.38272668430766" lon="10.855098471850527"><ele>235.0</ele><time>2026-04-18T11:03:37.002Z</time></trkpt><trkpt lat="43.38264868256723" lon="10.855060794729518"><ele>233.66666666666669</ele><time>2026-04-18T11:03:38.002Z</time></trkpt><trkpt lat="43.38257253975333" lon="10.855019799779587"><ele>232.33333333333334</ele><time>2026-04-18T11:03:39.002Z</time></trkpt><trkpt lat="43.38248954191151" lon="10.854998221970547"><ele>231.0</ele><time>2026-04-18T11:03:40.002Z</time></trkpt><trkpt lat="43.38241268782967" lon="10.854956315469183"><ele>231.0</ele><time>2026-04-18T11:03:41.002Z</time></trkpt><trkpt lat="43.382334538308726" lon="10.854908018149064"><ele>231.0</ele><time>2026-04-18T11:03:42.002Z</time></trkpt><trkpt lat="43.38225340156129" lon="10.854860909898834"><ele>231.0</ele><time>2026-04-18T11:03:43.002Z</time></trkpt><trkpt lat="43.38217190958104" lon="10.85481534797285"><ele>231.0</ele><time>2026-04-18T11:03:44.002Z</time></trkpt><trkpt lat="43.38209094794568" lon="10.854768670250852"><ele>231.0</ele><time>2026-04-18T11:03:45.002Z</time></trkpt><trkpt lat="43.38201525530721" lon="10.854728310246589"><ele>231.0</ele><time>2026-04-18T11:03:46.002Z</time></trkpt><trkpt lat="43.38194273712526" lon="10.854690945557428"><ele>230.42857142857144</ele><time>2026-04-18T11:03:47.002Z</time></trkpt><trkpt lat="43.381883417775484" lon="10.854634560364781"><ele>229.85714285714286</ele><time>2026-04-18T11:03:48.002Z</time></trkpt><trkpt lat="43.381819503829455" lon="10.854596680969749"><ele>229.28571428571428</ele><time>2026-04-18T11:03:49Z</time></trkpt><trkpt lat="43.381745544901705" lon="10.854568167525576"><ele>228.71428571428572</ele><time>2026-04-18T11:03:50Z</time></trkpt><trkpt lat="43.38169594601432" lon="10.854503059150815"><ele>228.14285714285717</ele><time>2026-04-18T11:03:51Z</time></trkpt><trkpt lat="43.38165108595638" lon="10.854424238034705"><ele>227.57142857142858</ele><time>2026-04-18T11:03:52Z</time></trkpt><trkpt lat="43.38161256306711" lon="10.85432736438663"><ele>227.0</ele><time>2026-04-18T11:03:53Z</time></trkpt><trkpt lat="43.381575155079396" lon="10.854222642900508"><ele>226.33333333333334</ele><time>2026-04-18T11:03:54Z</time></trkpt><trkpt lat="43.381534477747465" lon="10.854118081143753"><ele>225.66666666666669</ele><time>2026-04-18T11:03:55Z</time></trkpt><trkpt lat="43.38148073786072" lon="10.854027727231946"><ele>225.0</ele><time>2026-04-18T11:03:56Z</time></trkpt><trkpt lat="43.381423993066434" lon="10.853947221753225"><ele>224.33333333333331</ele><time>2026-04-18T11:03:57Z</time></trkpt><trkpt lat="43.38136218418845" lon="10.853875482451219"><ele>223.66666666666666</ele><time>2026-04-18T11:03:58Z</time></trkpt><trkpt lat="43.3812974651691" lon="10.853811032334743"><ele>223.0</ele><time>2026-04-18T11:03:59Z</time></trkpt><trkpt lat="43.38123692240737" lon="10.853752934394251"><ele>222.99999999999997</ele><time>2026-04-18T11:04:00Z</time></trkpt><trkpt lat="43.381149912110295" lon="10.853676089332481"><ele>223.0</ele><time>2026-04-18T11:04:02Z</time></trkpt><trkpt lat="43.38109017758133" lon="10.853621231478781"><ele>223.0</ele><time>2026-04-18T11:04:06Z</time></trkpt><trkpt lat="43.381042743875284" lon="10.85355997231984"><ele>223.0</ele><time>2026-04-18T11:04:13Z</time></trkpt><trkpt lat="43.38110526653944" lon="10.853411685018058"><ele>222.99999999999997</ele><time>2026-04-18T11:04:15Z</time></trkpt><trkpt lat="43.381105936302376" lon="10.853316611149182"><ele>223.0</ele><time>2026-04-18T11:04:17Z</time></trkpt><trkpt lat="43.38108983353237" lon="10.853186461204814"><ele>221.99999999999997</ele><time>2026-04-18T11:04:19Z</time></trkpt><trkpt lat="43.38106401242624" lon="10.85304629967418"><ele>221.0</ele><time>2026-04-18T11:04:21Z</time></trkpt><trkpt lat="43.381044019494" lon="10.852962941725782"><ele>220.0</ele><time>2026-04-18T11:04:22Z</time></trkpt><trkpt lat="43.38100533675342" lon="10.852882383040884"><ele>219.0</ele><time>2026-04-18T11:04:23Z</time></trkpt><trkpt lat="43.38096841997347" lon="10.852781462598717"><ele>217.99999999999997</ele><time>2026-04-18T11:04:24Z</time></trkpt><trkpt lat="43.38092630405539" lon="10.852668738095096"><ele>217.0</ele><time>2026-04-18T11:04:25Z</time></trkpt><trkpt lat="43.38088043244002" lon="10.852549189972354"><ele>216.2</ele><time>2026-04-18T11:04:26Z</time></trkpt><trkpt lat="43.38083055188343" lon="10.852425851496202"><ele>215.39999999999998</ele><time>2026-04-18T11:04:27Z</time></trkpt><trkpt lat="43.380778684564504" lon="10.852306799690895"><ele>214.60000000000002</ele><time>2026-04-18T11:04:28Z</time></trkpt><trkpt lat="43.38072676499476" lon="10.85219506228845"><ele>213.8</ele><time>2026-04-18T11:04:29Z</time></trkpt><trkpt lat="43.38067327124705" lon="10.852078935702902"><ele>213.0</ele><time>2026-04-18T11:04:30Z</time></trkpt><trkpt lat="43.38061609262119" lon="10.851959026164218"><ele>213.0</ele><time>2026-04-18T11:04:31.001Z</time></trkpt><trkpt lat="43.380544751794496" lon="10.85183989400347"><ele>213.0</ele><time>2026-04-18T11:04:32.001Z</time></trkpt><trkpt lat="43.38048133397998" lon="10.851707707507392"><ele>213.0</ele><time>2026-04-18T11:04:33.001Z</time></trkpt><trkpt lat="43.380432262707544" lon="10.851571065120615"><ele>213.0</ele><time>2026-04-18T11:04:34.001Z</time></trkpt><trkpt lat="43.38038636841411" lon="10.851449008860975"><ele>213.0</ele><time>2026-04-18T11:04:35.001Z</time></trkpt><trkpt lat="43.380351087506654" lon="10.851345573683519"><ele>211.83333333333334</ele><time>2026-04-18T11:04:36.001Z</time></trkpt><trkpt lat="43.380325931515145" lon="10.851244120871606"><ele>210.66666666666669</ele><time>2026-04-18T11:04:37.001Z</time></trkpt><trkpt lat="43.38030634076572" lon="10.851153910695569"><ele>209.5</ele><time>2026-04-18T11:04:38.001Z</time></trkpt><trkpt lat="43.38029548655283" lon="10.851062427006502"><ele>208.33333333333334</ele><time>2026-04-18T11:04:39.001Z</time></trkpt><trkpt lat="43.38027997970984" lon="10.850961432192639"><ele>207.16666666666669</ele><time>2026-04-18T11:04:40.001Z</time></trkpt><trkpt lat="43.38027069547532" lon="10.850845759628976"><ele>206.0</ele><time>2026-04-18T11:04:41.001Z</time></trkpt><trkpt lat="43.38026158388105" lon="10.850721390505964"><ele>205.20000000000002</ele><time>2026-04-18T11:04:42.001Z</time></trkpt><trkpt lat="43.38024791416898" lon="10.850615812887405"><ele>204.4</ele><time>2026-04-18T11:04:43.001Z</time></trkpt><trkpt lat="43.38023047669543" lon="10.85049538546991"><ele>203.6</ele><time>2026-04-18T11:04:44.001Z</time></trkpt><trkpt lat="43.380183492999976" lon="10.850381083552998"><ele>202.8</ele><time>2026-04-18T11:04:45.001Z</time></trkpt><trkpt lat="43.3801220372908" lon="10.850268315974835"><ele>202.0</ele><time>2026-04-18T11:04:46.001Z</time></trkpt><trkpt lat="43.380066257442444" lon="10.850149622817817"><ele>200.39999999999998</ele><time>2026-04-18T11:04:47.001Z</time></trkpt><trkpt lat="43.380031851659176" lon="10.850025252303988"><ele>198.79999999999998</ele><time>2026-04-18T11:04:48.001Z</time></trkpt><trkpt lat="43.380006290682815" lon="10.849872491665248"><ele>197.2</ele><time>2026-04-18T11:04:49.001Z</time></trkpt><trkpt lat="43.37998755233319" lon="10.849709787807349"><ele>195.6</ele><time>2026-04-18T11:04:50.001Z</time></trkpt><trkpt lat="43.37996746673073" lon="10.849569533162907"><ele>194.0</ele><time>2026-04-18T11:04:51.001Z</time></trkpt><trkpt lat="43.37994441204721" lon="10.849435766817619"><ele>194.0</ele><time>2026-04-18T11:04:52.001Z</time></trkpt><trkpt lat="43.379898473953546" lon="10.849318493597313"><ele>194.0</ele><time>2026-04-18T11:04:53.001Z</time></trkpt><trkpt lat="43.37983459770895" lon="10.849192560199558"><ele>194.0</ele><time>2026-04-18T11:04:54.001Z</time></trkpt><trkpt lat="43.37976656562432" lon="10.84906952422914"><ele>194.0</ele><time>2026-04-18T11:04:55.001Z</time></trkpt><trkpt lat="43.37968612138976" lon="10.848948935840058"><ele>194.0</ele><time>2026-04-18T11:04:56.001Z</time></trkpt><trkpt lat="43.37960288812121" lon="10.848830077277931"><ele>190.5</ele><time>2026-04-18T11:04:57.001Z</time></trkpt><trkpt lat="43.37951035879578" lon="10.848722451271898"><ele>187.0</ele><time>2026-04-18T11:04:58.001Z</time></trkpt><trkpt lat="43.37943157320759" lon="10.848613796704658"><ele>183.5</ele><time>2026-04-18T11:04:59.001Z</time></trkpt><trkpt lat="43.379309494403046" lon="10.848531597157015"><ele>180.0</ele><time>2026-04-18T11:05:00.001Z</time></trkpt><trkpt lat="43.379232969203386" lon="10.848448793348767"><ele>180.0</ele><time>2026-04-18T11:05:01.001Z</time></trkpt><trkpt lat="43.379168378514514" lon="10.848362486005323"><ele>180.0</ele><time>2026-04-18T11:05:02.001Z</time></trkpt><trkpt lat="43.37911688405098" lon="10.848270171549395"><ele>180.0</ele><time>2026-04-18T11:05:03.001Z</time></trkpt><trkpt lat="43.37907476822044" lon="10.848165164075024"><ele>180.0</ele><time>2026-04-18T11:05:04.001Z</time></trkpt><trkpt lat="43.37903960489836" lon="10.848057646699367"><ele>180.0</ele><time>2026-04-18T11:05:05.001Z</time></trkpt><trkpt lat="43.379014236190315" lon="10.847949158990751"><ele>180.0</ele><time>2026-04-18T11:05:06.001Z</time></trkpt><trkpt lat="43.379004291096756" lon="10.847820104402219"><ele>180.0</ele><time>2026-04-18T11:05:07.001Z</time></trkpt><trkpt lat="43.378990362357094" lon="10.847673182018521"><ele>180.0</ele><time>2026-04-18T11:05:08.001Z</time></trkpt><trkpt lat="43.37895096447242" lon="10.847537319703116"><ele>180.0</ele><time>2026-04-18T11:05:09.001Z</time></trkpt><trkpt lat="43.3789032468046" lon="10.847406943769478"><ele>180.0</ele><time>2026-04-18T11:05:10.001Z</time></trkpt><trkpt lat="43.37886836024151" lon="10.847244512927855"><ele>180.0</ele><time>2026-04-18T11:05:11.001Z</time></trkpt><trkpt lat="43.37884236979569" lon="10.847065625678598"><ele>178.75</ele><time>2026-04-18T11:05:12.001Z</time></trkpt><trkpt lat="43.3788252950223" lon="10.846885603118558"><ele>177.5</ele><time>2026-04-18T11:05:13.001Z</time></trkpt><trkpt lat="43.37879508796696" lon="10.84671981937276"><ele>176.25</ele><time>2026-04-18T11:05:14.001Z</time></trkpt><trkpt lat="43.37873410202192" lon="10.846569620704907"><ele>175.0</ele><time>2026-04-18T11:05:15.001Z</time></trkpt><trkpt lat="43.37864790192734" lon="10.846407421000125"><ele>175.0</ele><time>2026-04-18T11:05:16.001Z</time></trkpt><trkpt lat="43.37856240574365" lon="10.846228471133296"><ele>175.0</ele><time>2026-04-18T11:05:17.001Z</time></trkpt><trkpt lat="43.37847370070591" lon="10.846043834584117"><ele>175.0</ele><time>2026-04-18T11:05:18.001Z</time></trkpt><trkpt lat="43.378418711290585" lon="10.845845966472442"><ele>175.75</ele><time>2026-04-18T11:05:19.001Z</time></trkpt><trkpt lat="43.378358539168026" lon="10.845649998208577"><ele>176.5</ele><time>2026-04-18T11:05:20.001Z</time></trkpt><trkpt lat="43.37829515924064" lon="10.8454613042466"><ele>177.25</ele><time>2026-04-18T11:05:21.002Z</time></trkpt><trkpt lat="43.37825693998854" lon="10.845288237802778"><ele>178.0</ele><time>2026-04-18T11:05:22.002Z</time></trkpt><trkpt lat="43.3782037173555" lon="10.845139919317187"><ele>178.25</ele><time>2026-04-18T11:05:23.002Z</time></trkpt><trkpt lat="43.37813678407268" lon="10.845003823635118"><ele>178.5</ele><time>2026-04-18T11:05:24.002Z</time></trkpt><trkpt lat="43.37806272806776" lon="10.844894565536798"><ele>178.75</ele><time>2026-04-18T11:05:25.002Z</time></trkpt><trkpt lat="43.37798480731317" lon="10.844782993133473"><ele>179.0</ele><time>2026-04-18T11:05:26.002Z</time></trkpt><trkpt lat="43.37789797118458" lon="10.844657674980157"><ele>178.6</ele><time>2026-04-18T11:05:27.002Z</time></trkpt><trkpt lat="43.37782640805314" lon="10.844509108554668"><ele>178.2</ele><time>2026-04-18T11:05:28.002Z</time></trkpt><trkpt lat="43.37774193247362" lon="10.844383555720984"><ele>177.79999999999998</ele><time>2026-04-18T11:05:29.002Z</time></trkpt><trkpt lat="43.377688465885626" lon="10.84427523081744"><ele>177.39999999999998</ele><time>2026-04-18T11:05:30.002Z</time></trkpt><trkpt lat="43.37765477234991" lon="10.844148189037691"><ele>177.0</ele><time>2026-04-18T11:05:31.002Z</time></trkpt><trkpt lat="43.37764066221181" lon="10.844001044915835"><ele>177.0</ele><time>2026-04-18T11:05:32.002Z</time></trkpt><trkpt lat="43.377629821683875" lon="10.843845376757836"><ele>177.0</ele><time>2026-04-18T11:05:33.002Z</time></trkpt><trkpt lat="43.37761416514285" lon="10.843695919256389"><ele>177.0</ele><time>2026-04-18T11:05:34.002Z</time></trkpt><trkpt lat="43.37758494881013" lon="10.843545684369662"><ele>177.0</ele><time>2026-04-18T11:05:35.002Z</time></trkpt><trkpt lat="43.377553376961856" lon="10.843392543980741"><ele>177.0</ele><time>2026-04-18T11:05:36.002Z</time></trkpt><trkpt lat="43.37751316704599" lon="10.84324188546942"><ele>177.0</ele><time>2026-04-18T11:05:37.002Z</time></trkpt><trkpt lat="43.37746845759262" lon="10.843092420610766"><ele>177.0</ele><time>2026-04-18T11:05:38.002Z</time></trkpt><trkpt lat="43.37742658057908" lon="10.842942177270496"><ele>177.0</ele><time>2026-04-18T11:05:39.002Z</time></trkpt><trkpt lat="43.37737112285697" lon="10.842811616589593"><ele>177.0</ele><time>2026-04-18T11:05:40.002Z</time></trkpt><trkpt lat="43.37730366783234" lon="10.842672908691416"><ele>177.0</ele><time>2026-04-18T11:05:41.002Z</time></trkpt><trkpt lat="43.37721463160358" lon="10.842529075688086"><ele>177.0</ele><time>2026-04-18T11:05:42.002Z</time></trkpt><trkpt lat="43.37711974631168" lon="10.842389644907653"><ele>177.0</ele><time>2026-04-18T11:05:43.002Z</time></trkpt><trkpt lat="43.3770218385151" lon="10.842260496488802"><ele>175.0</ele><time>2026-04-18T11:05:44.002Z</time></trkpt><trkpt lat="43.3769223039527" lon="10.842123135059582"><ele>173.0</ele><time>2026-04-18T11:05:45.002Z</time></trkpt><trkpt lat="43.37681742602433" lon="10.841993351115613"><ele>171.0</ele><time>2026-04-18T11:05:46.002Z</time></trkpt><trkpt lat="43.376731174206135" lon="10.84189829467663"><ele>169.0</ele><time>2026-04-18T11:05:47.002Z</time></trkpt><trkpt lat="43.37666093256501" lon="10.841825599885814"><ele>168.0</ele><time>2026-04-18T11:05:48.002Z</time></trkpt><trkpt lat="43.37660035885197" lon="10.84172603694678"><ele>167.0</ele><time>2026-04-18T11:05:49.002Z</time></trkpt><trkpt lat="43.376557985079394" lon="10.841614472373802"><ele>166.0</ele><time>2026-04-18T11:05:50.002Z</time></trkpt><trkpt lat="43.37652292989571" lon="10.841481515179812"><ele>165.0</ele><time>2026-04-18T11:05:51.002Z</time></trkpt><trkpt lat="43.37646930137614" lon="10.841350277526008"><ele>164.0</ele><time>2026-04-18T11:05:52.002Z</time></trkpt><trkpt lat="43.37640544553648" lon="10.841232254579925"><ele>163.2</ele><time>2026-04-18T11:05:53.002Z</time></trkpt><trkpt lat="43.37634042519911" lon="10.841119050378921"><ele>162.39999999999998</ele><time>2026-04-18T11:05:54.002Z</time></trkpt><trkpt lat="43.376259162112795" lon="10.841019639566813"><ele>161.6</ele><time>2026-04-18T11:05:55Z</time></trkpt><trkpt lat="43.376179896338485" lon="10.840921136887658"><ele>160.8</ele><time>2026-04-18T11:05:56Z</time></trkpt><trkpt lat="43.37610589359092" lon="10.840830717626256"><ele>160.0</ele><time>2026-04-18T11:05:57Z</time></trkpt><trkpt lat="43.37603910620124" lon="10.840741458986338"><ele>160.0</ele><time>2026-04-18T11:05:58Z</time></trkpt><trkpt lat="43.37597224031522" lon="10.84066685370038"><ele>160.0</ele><time>2026-04-18T11:05:59Z</time></trkpt><trkpt lat="43.37591681447105" lon="10.840588493779503"><ele>160.0</ele><time>2026-04-18T11:06:00Z</time></trkpt><trkpt lat="43.37585340089765" lon="10.840501000776074"><ele>160.0</ele><time>2026-04-18T11:06:01Z</time></trkpt><trkpt lat="43.37578834870058" lon="10.840412548647263"><ele>160.0</ele><time>2026-04-18T11:06:02Z</time></trkpt><trkpt lat="43.37573277452827" lon="10.840332809883414"><ele>160.0</ele><time>2026-04-18T11:06:03Z</time></trkpt><trkpt lat="43.375683478599406" lon="10.840260057773191"><ele>160.0</ele><time>2026-04-18T11:06:04Z</time></trkpt><trkpt lat="43.37563602953698" lon="10.840183336393507"><ele>160.0</ele><time>2026-04-18T11:06:05Z</time></trkpt><trkpt lat="43.37556253045846" lon="10.8400601134736"><ele>160.0</ele><time>2026-04-18T11:06:07Z</time></trkpt><trkpt lat="43.37552449902301" lon="10.839978023971176"><ele>160.0</ele><time>2026-04-18T11:06:09Z</time></trkpt><trkpt lat="43.37553224134821" lon="10.83986310821234"><ele>160.0</ele><time>2026-04-18T11:06:13Z</time></trkpt><trkpt lat="43.37558187768286" lon="10.839747116515769"><ele>160.0</ele><time>2026-04-18T11:06:15Z</time></trkpt><trkpt lat="43.375575785274286" lon="10.839555444188973"><ele>159.66666666666669</ele><time>2026-04-18T11:06:17Z</time></trkpt><trkpt lat="43.37556114397101" lon="10.8394530737606"><ele>159.33333333333334</ele><time>2026-04-18T11:06:18Z</time></trkpt><trkpt lat="43.375541067979576" lon="10.839346722323587"><ele>159.0</ele><time>2026-04-18T11:06:19Z</time></trkpt><trkpt lat="43.37549083616151" lon="10.839242584551943"><ele>158.66666666666666</ele><time>2026-04-18T11:06:20Z</time></trkpt><trkpt lat="43.37549241896566" lon="10.839148941604124"><ele>158.33333333333331</ele><time>2026-04-18T11:06:21Z</time></trkpt><trkpt lat="43.37548221805737" lon="10.839012666331314"><ele>158.0</ele><time>2026-04-18T11:06:23Z</time></trkpt><trkpt lat="43.375455996983945" lon="10.838852686174901"><ele>157.66666666666666</ele><time>2026-04-18T11:06:25Z</time></trkpt><trkpt lat="43.37544062129073" lon="10.838755854106433"><ele>157.33333333333331</ele><time>2026-04-18T11:06:26Z</time></trkpt><trkpt lat="43.37544195188749" lon="10.838618104725507"><ele>157.0</ele><time>2026-04-18T11:06:27Z</time></trkpt><trkpt lat="43.37546766610109" lon="10.838507282453387"><ele>156.66666666666666</ele><time>2026-04-18T11:06:28Z</time></trkpt><trkpt lat="43.37549516646879" lon="10.838419189695939"><ele>156.33333333333334</ele><time>2026-04-18T11:06:29Z</time></trkpt><trkpt lat="43.37552764753054" lon="10.838325846371008"><ele>156.0</ele><time>2026-04-18T11:06:30Z</time></trkpt><trkpt lat="43.37556990210276" lon="10.838220212012006"><ele>155.4</ele><time>2026-04-18T11:06:31.001Z</time></trkpt><trkpt lat="43.37561635500509" lon="10.838129181749668"><ele>154.8</ele><time>2026-04-18T11:06:32.001Z</time></trkpt><trkpt lat="43.375687460575826" lon="10.838045031531275"><ele>154.20000000000002</ele><time>2026-04-18T11:06:33.001Z</time></trkpt><trkpt lat="43.37576957434431" lon="10.838009836016019"><ele>153.6</ele><time>2026-04-18T11:06:34.001Z</time></trkpt><trkpt lat="43.375900268281626" lon="10.83797021517491"><ele>153.0</ele><time>2026-04-18T11:06:36.001Z</time></trkpt><trkpt lat="43.37598038048624" lon="10.83797817964563"><ele>153.0</ele><time>2026-04-18T11:06:37.001Z</time></trkpt><trkpt lat="43.37605795542483" lon="10.83799114739032"><ele>153.0</ele><time>2026-04-18T11:06:38.001Z</time></trkpt><trkpt lat="43.376133557845485" lon="10.838005762136607"><ele>153.0</ele><time>2026-04-18T11:06:39.001Z</time></trkpt><trkpt lat="43.37623605601237" lon="10.838023686568656"><ele>153.0</ele><time>2026-04-18T11:06:40.001Z</time></trkpt><trkpt lat="43.376326013548486" lon="10.838030685140989"><ele>153.0</ele><time>2026-04-18T11:06:41.001Z</time></trkpt><trkpt lat="43.37640369214186" lon="10.83802964789273"><ele>153.0</ele><time>2026-04-18T11:06:42.001Z</time></trkpt><trkpt lat="43.376467577972164" lon="10.838026395336888"><ele>150.66666666666666</ele><time>2026-04-18T11:06:43.001Z</time></trkpt><trkpt lat="43.37655021257139" lon="10.838024128183688"><ele>148.33333333333334</ele><time>2026-04-18T11:06:45.001Z</time></trkpt><trkpt lat="43.37665117226856" lon="10.838027034595898"><ele>146.0</ele><time>2026-04-18T11:06:48.001Z</time></trkpt><trkpt lat="43.376767916660285" lon="10.838031142583121"><ele>143.66666666666669</ele><time>2026-04-18T11:06:50.001Z</time></trkpt><trkpt lat="43.37683193616517" lon="10.838034532109365"><ele>141.33333333333334</ele><time>2026-04-18T11:06:51.001Z</time></trkpt><trkpt lat="43.37690722934094" lon="10.838038518516742"><ele>139.0</ele><time>2026-04-18T11:06:52.001Z</time></trkpt><trkpt lat="43.37698944950889" lon="10.838040215750192"><ele>139.0</ele><time>2026-04-18T11:06:53.001Z</time></trkpt><trkpt lat="43.377071239530785" lon="10.838041705865516"><ele>139.0</ele><time>2026-04-18T11:06:54.001Z</time></trkpt><trkpt lat="43.377149453334056" lon="10.83803608330838"><ele>139.0</ele><time>2026-04-18T11:06:55.001Z</time></trkpt><trkpt lat="43.377228396774335" lon="10.838021250907346"><ele>139.0</ele><time>2026-04-18T11:06:56.001Z</time></trkpt><trkpt lat="43.37729004440431" lon="10.837993690697314"><ele>139.0</ele><time>2026-04-18T11:06:57.001Z</time></trkpt><trkpt lat="43.377381023639074" lon="10.83792081524082"><ele>139.0</ele><time>2026-04-18T11:06:59.001Z</time></trkpt><trkpt lat="43.37745106471741" lon="10.837842793390442"><ele>137.16666666666669</ele><time>2026-04-18T11:07:01.001Z</time></trkpt><trkpt lat="43.3775129575441" lon="10.837742930238594"><ele>135.33333333333334</ele><time>2026-04-18T11:07:04.001Z</time></trkpt><trkpt lat="43.37755299959309" lon="10.83761981567572"><ele>133.5</ele><time>2026-04-18T11:07:06.001Z</time></trkpt><trkpt lat="43.377607378093145" lon="10.837516093251779"><ele>131.66666666666666</ele><time>2026-04-18T11:07:08.001Z</time></trkpt><trkpt lat="43.37766058674125" lon="10.837452544877216"><ele>129.83333333333331</ele><time>2026-04-18T11:07:10.001Z</time></trkpt><trkpt lat="43.3777322468641" lon="10.837468627323194"><ele>128.0</ele><time>2026-04-18T11:07:12.001Z</time></trkpt><trkpt lat="43.37781676698358" lon="10.837440299122918"><ele>128.0</ele><time>2026-04-18T11:07:15.001Z</time></trkpt><trkpt lat="43.377908951453264" lon="10.837381187145715"><ele>128.0</ele><time>2026-04-18T11:07:17.001Z</time></trkpt><trkpt lat="43.37800838898001" lon="10.837308397060143"><ele>128.0</ele><time>2026-04-18T11:07:19.001Z</time></trkpt><trkpt lat="43.378111373631285" lon="10.83727668819064"><ele>128.0</ele><time>2026-04-18T11:07:21.001Z</time></trkpt><trkpt lat="43.378196557264666" lon="10.837266606458096"><ele>128.0</ele><time>2026-04-18T11:07:23.002Z</time></trkpt><trkpt lat="43.378267209983186" lon="10.837263524897095"><ele>127.49999999999999</ele><time>2026-04-18T11:07:26.002Z</time></trkpt><trkpt lat="43.37828519576562" lon="10.83716961058905"><ele>127.0</ele><time>2026-04-18T11:07:28.002Z</time></trkpt><trkpt lat="43.378287387414765" lon="10.83701683712431"><ele>126.5</ele><time>2026-04-18T11:07:31.002Z</time></trkpt><trkpt lat="43.37829628353773" lon="10.836926086287724"><ele>126.0</ele><time>2026-04-18T11:07:32.002Z</time></trkpt><trkpt lat="43.378300200814714" lon="10.836815210588055"><ele>125.49999999999999</ele><time>2026-04-18T11:07:33.002Z</time></trkpt><trkpt lat="43.378299160204215" lon="10.83669816311143"><ele>125.0</ele><time>2026-04-18T11:07:34.002Z</time></trkpt><trkpt lat="43.37829598307449" lon="10.836586172205354"><ele>125.0</ele><time>2026-04-18T11:07:35.002Z</time></trkpt><trkpt lat="43.3783028207974" lon="10.836471782962343"><ele>125.0</ele><time>2026-04-18T11:07:36.002Z</time></trkpt><trkpt lat="43.37829941473845" lon="10.836356366039436"><ele>125.0</ele><time>2026-04-18T11:07:37.002Z</time></trkpt><trkpt lat="43.37828318511842" lon="10.836241284766185"><ele>125.0</ele><time>2026-04-18T11:07:38.002Z</time></trkpt><trkpt lat="43.378264767384074" lon="10.836107850050333"><ele>125.0</ele><time>2026-04-18T11:07:39.002Z</time></trkpt><trkpt lat="43.37826165781348" lon="10.835958092956005"><ele>125.25</ele><time>2026-04-18T11:07:40.002Z</time></trkpt><trkpt lat="43.37824168280685" lon="10.835805985033728"><ele>125.5</ele><time>2026-04-18T11:07:41.002Z</time></trkpt><trkpt lat="43.37821083132271" lon="10.835639796139159"><ele>125.75</ele><time>2026-04-18T11:07:42.002Z</time></trkpt><trkpt lat="43.3781604899826" lon="10.835469393547147"><ele>126.0</ele><time>2026-04-18T11:07:43.002Z</time></trkpt><trkpt lat="43.37811810715599" lon="10.835284147039138"><ele>126.5</ele><time>2026-04-18T11:07:44.002Z</time></trkpt><trkpt lat="43.37808588423043" lon="10.835091978594631"><ele>127.0</ele><time>2026-04-18T11:07:45.002Z</time></trkpt><trkpt lat="43.37803696467718" lon="10.834906270293317"><ele>127.5</ele><time>2026-04-18T11:07:46.002Z</time></trkpt><trkpt lat="43.37795683663633" lon="10.834732941876766"><ele>128.0</ele><time>2026-04-18T11:07:47.002Z</time></trkpt><trkpt lat="43.37788781527638" lon="10.834553821302167"><ele>126.5</ele><time>2026-04-18T11:07:48.002Z</time></trkpt><trkpt lat="43.37782776720968" lon="10.834404089195564"><ele>125.0</ele><time>2026-04-18T11:07:49.002Z</time></trkpt><trkpt lat="43.37776829199946" lon="10.834273801136359"><ele>123.5</ele><time>2026-04-18T11:07:50.002Z</time></trkpt><trkpt lat="43.37769758160515" lon="10.834148078479107"><ele>122.0</ele><time>2026-04-18T11:07:51.002Z</time></trkpt><trkpt lat="43.37760561340939" lon="10.83401690199546"><ele>122.0</ele><time>2026-04-18T11:07:52.002Z</time></trkpt><trkpt lat="43.377522949366075" lon="10.833852124604546"><ele>122.0</ele><time>2026-04-18T11:07:53.002Z</time></trkpt><trkpt lat="43.37742385821359" lon="10.833699895897507"><ele>122.0</ele><time>2026-04-18T11:07:54.002Z</time></trkpt><trkpt lat="43.377315602930466" lon="10.833562949059983"><ele>122.0</ele><time>2026-04-18T11:07:55.002Z</time></trkpt><trkpt lat="43.3772073256463" lon="10.833426855422184"><ele>120.5</ele><time>2026-04-18T11:07:56.002Z</time></trkpt><trkpt lat="43.37709854548456" lon="10.833300936252842"><ele>119.0</ele><time>2026-04-18T11:07:57.002Z</time></trkpt><trkpt lat="43.37698275814066" lon="10.833179052154849"><ele>117.5</ele><time>2026-04-18T11:07:58.002Z</time></trkpt><trkpt lat="43.376859521687614" lon="10.83305980561751"><ele>116.0</ele><time>2026-04-18T11:07:59.002Z</time></trkpt><trkpt lat="43.376729464685056" lon="10.83294110241974"><ele>116.0</ele><time>2026-04-18T11:08:00.002Z</time></trkpt><trkpt lat="43.37659233431578" lon="10.832829259120352"><ele>116.0</ele><time>2026-04-18T11:08:01Z</time></trkpt><trkpt lat="43.376447035921245" lon="10.832718791866153"><ele>116.0</ele><time>2026-04-18T11:08:02Z</time></trkpt><trkpt lat="43.37630379205149" lon="10.832606434706397"><ele>116.33333333333333</ele><time>2026-04-18T11:08:03Z</time></trkpt><trkpt lat="43.376156636907105" lon="10.83249286802784"><ele>116.66666666666666</ele><time>2026-04-18T11:08:04Z</time></trkpt><trkpt lat="43.376016795090884" lon="10.832377788521303"><ele>117.0</ele><time>2026-04-18T11:08:05Z</time></trkpt><trkpt lat="43.375883586279436" lon="10.832275450348318"><ele>117.0</ele><time>2026-04-18T11:08:06Z</time></trkpt><trkpt lat="43.375750851278575" lon="10.832182428400948"><ele>117.0</ele><time>2026-04-18T11:08:07Z</time></trkpt><trkpt lat="43.37561319990292" lon="10.83210018101452"><ele>117.0</ele><time>2026-04-18T11:08:08Z</time></trkpt><trkpt lat="43.37547516368711" lon="10.832029933763913"><ele>117.0</ele><time>2026-04-18T11:08:09Z</time></trkpt><trkpt lat="43.37533120935713" lon="10.831976762378028"><ele>115.75</ele><time>2026-04-18T11:08:10Z</time></trkpt><trkpt lat="43.375185024414236" lon="10.831923770602849"><ele>114.5</ele><time>2026-04-18T11:08:11Z</time></trkpt><trkpt lat="43.37504145752327" lon="10.831879297458073"><ele>113.25</ele><time>2026-04-18T11:08:12Z</time></trkpt><trkpt lat="43.374896498214866" lon="10.831844894260604"><ele>112.0</ele><time>2026-04-18T11:08:13Z</time></trkpt><trkpt lat="43.37475188503107" lon="10.831823765622055"><ele>111.5</ele><time>2026-04-18T11:08:14Z</time></trkpt><trkpt lat="43.37461075929532" lon="10.83182338145834"><ele>111.0</ele><time>2026-04-18T11:08:15Z</time></trkpt><trkpt lat="43.37447426628446" lon="10.83183752382587"><ele>110.5</ele><time>2026-04-18T11:08:16Z</time></trkpt><trkpt lat="43.374326480344834" lon="10.831849907981772"><ele>110.0</ele><time>2026-04-18T11:08:17Z</time></trkpt><trkpt lat="43.37417650772244" lon="10.831872089925973"><ele>110.0</ele><time>2026-04-18T11:08:18Z</time></trkpt><trkpt lat="43.37402973165687" lon="10.831903987592739"><ele>110.0</ele><time>2026-04-18T11:08:19Z</time></trkpt><trkpt lat="43.37387051764309" lon="10.831941118684645"><ele>110.0</ele><time>2026-04-18T11:08:20Z</time></trkpt><trkpt lat="43.3737143541433" lon="10.831992280272031"><ele>109.66666666666666</ele><time>2026-04-18T11:08:21Z</time></trkpt><trkpt lat="43.37354911595697" lon="10.832043308157536"><ele>109.33333333333334</ele><time>2026-04-18T11:08:22Z</time></trkpt><trkpt lat="43.37338652672824" lon="10.832097630263466"><ele>109.0</ele><time>2026-04-18T11:08:23Z</time></trkpt><trkpt lat="43.37324103023951" lon="10.832154631964453"><ele>109.0</ele><time>2026-04-18T11:08:24Z</time></trkpt><trkpt lat="43.37310041282474" lon="10.83220542600933"><ele>109.0</ele><time>2026-04-18T11:08:25Z</time></trkpt><trkpt lat="43.37295836542086" lon="10.832253374104868"><ele>109.0</ele><time>2026-04-18T11:08:26Z</time></trkpt><trkpt lat="43.37282348152217" lon="10.83228678043182"><ele>109.0</ele><time>2026-04-18T11:08:27Z</time></trkpt><trkpt lat="43.372713578475874" lon="10.832317065960481"><ele>109.0</ele><time>2026-04-18T11:08:28Z</time></trkpt><trkpt lat="43.37261662936556" lon="10.832338214182363"><ele>109.0</ele><time>2026-04-18T11:08:29Z</time></trkpt><trkpt lat="43.372514033365675" lon="10.832369646353419"><ele>109.0</ele><time>2026-04-18T11:08:30Z</time></trkpt><trkpt lat="43.372415495996975" lon="10.832410129435054"><ele>109.0</ele><time>2026-04-18T11:08:31Z</time></trkpt><trkpt lat="43.3723268727843" lon="10.8324364731527"><ele>109.0</ele><time>2026-04-18T11:08:32Z</time></trkpt><trkpt lat="43.372239019134696" lon="10.832456445484652"><ele>108.4</ele><time>2026-04-18T11:08:33Z</time></trkpt><trkpt lat="43.3721430429242" lon="10.832464841458815"><ele>107.80000000000001</ele><time>2026-04-18T11:08:34Z</time></trkpt><trkpt lat="43.37204052364455" lon="10.832459846791602"><ele>107.19999999999999</ele><time>2026-04-18T11:08:35Z</time></trkpt><trkpt lat="43.371937885719355" lon="10.832446639689454"><ele>106.6</ele><time>2026-04-18T11:08:36Z</time></trkpt><trkpt lat="43.371835059628985" lon="10.832436391052529"><ele>106.0</ele><time>2026-04-18T11:08:37Z</time></trkpt><trkpt lat="43.371732535294505" lon="10.832418447763407"><ele>106.0</ele><time>2026-04-18T11:08:38Z</time></trkpt><trkpt lat="43.37163499131142" lon="10.832397112134512"><ele>106.0</ele><time>2026-04-18T11:08:39.001Z</time></trkpt><trkpt lat="43.371542118893565" lon="10.83236829316271"><ele>106.0</ele><time>2026-04-18T11:08:40.001Z</time></trkpt><trkpt lat="43.37144087039067" lon="10.832331577605558"><ele>106.0</ele><time>2026-04-18T11:08:41.001Z</time></trkpt><trkpt lat="43.37133593916923" lon="10.83228370037138"><ele>106.0</ele><time>2026-04-18T11:08:42.001Z</time></trkpt><trkpt lat="43.37122749530958" lon="10.832220228696722"><ele>104.5</ele><time>2026-04-18T11:08:43.001Z</time></trkpt><trkpt lat="43.371122071106996" lon="10.832141276482663"><ele>103.0</ele><time>2026-04-18T11:08:44.001Z</time></trkpt><trkpt lat="43.37102363200995" lon="10.832062954417347"><ele>101.5</ele><time>2026-04-18T11:08:45.001Z</time></trkpt><trkpt lat="43.37092765568512" lon="10.831984468648157"><ele>100.0</ele><time>2026-04-18T11:08:46.001Z</time></trkpt><trkpt lat="43.37084838803627" lon="10.83189087043886"><ele>98.75</ele><time>2026-04-18T11:08:47.001Z</time></trkpt><trkpt lat="43.37077373067626" lon="10.83177529487662"><ele>97.5</ele><time>2026-04-18T11:08:48.001Z</time></trkpt><trkpt lat="43.37069103057971" lon="10.831639130335102"><ele>96.25</ele><time>2026-04-18T11:08:49.001Z</time></trkpt><trkpt lat="43.37061034300352" lon="10.831509043980997"><ele>95.0</ele><time>2026-04-18T11:08:50.001Z</time></trkpt><trkpt lat="43.370509588300905" lon="10.831391764491114"><ele>95.0</ele><time>2026-04-18T11:08:51.001Z</time></trkpt><trkpt lat="43.370432901976855" lon="10.831234275345563"><ele>95.0</ele><time>2026-04-18T11:08:52.001Z</time></trkpt><trkpt lat="43.370360615867206" lon="10.831041904909325"><ele>95.0</ele><time>2026-04-18T11:08:53.001Z</time></trkpt><trkpt lat="43.37026173200198" lon="10.830847479526426"><ele>96.0</ele><time>2026-04-18T11:08:54.001Z</time></trkpt><trkpt lat="43.37016101414393" lon="10.830653757456789"><ele>97.0</ele><time>2026-04-18T11:08:55.001Z</time></trkpt><trkpt lat="43.37006851963704" lon="10.830467828617074"><ele>98.0</ele><time>2026-04-18T11:08:56.001Z</time></trkpt><trkpt lat="43.36999907427868" lon="10.83030181356399"><ele>98.0</ele><time>2026-04-18T11:08:57.001Z</time></trkpt><trkpt lat="43.36993323145811" lon="10.830150233860282"><ele>98.0</ele><time>2026-04-18T11:08:58.001Z</time></trkpt><trkpt lat="43.36987380652493" lon="10.829996366381197"><ele>98.0</ele><time>2026-04-18T11:08:59.001Z</time></trkpt><trkpt lat="43.369825201093185" lon="10.829840421305622"><ele>98.0</ele><time>2026-04-18T11:09:00.001Z</time></trkpt><trkpt lat="43.36977984603738" lon="10.829667690371886"><ele>99.0</ele><time>2026-04-18T11:09:01.001Z</time></trkpt><trkpt lat="43.36974043966262" lon="10.829513205099442"><ele>100.0</ele><time>2026-04-18T11:09:02.001Z</time></trkpt><trkpt lat="43.36970308557214" lon="10.829364225366458"><ele>101.0</ele><time>2026-04-18T11:09:03.001Z</time></trkpt><trkpt lat="43.36966200769888" lon="10.829204979287532"><ele>102.0</ele><time>2026-04-18T11:09:04.001Z</time></trkpt><trkpt lat="43.36961650047087" lon="10.829032478191923"><ele>100.0</ele><time>2026-04-18T11:09:05.001Z</time></trkpt><trkpt lat="43.36957474031921" lon="10.828862072803965"><ele>98.0</ele><time>2026-04-18T11:09:06.001Z</time></trkpt><trkpt lat="43.36953407514491" lon="10.828684499760655"><ele>96.0</ele><time>2026-04-18T11:09:07.001Z</time></trkpt><trkpt lat="43.36947690798773" lon="10.828505966903627"><ele>94.0</ele><time>2026-04-18T11:09:08.001Z</time></trkpt><trkpt lat="43.369437985774795" lon="10.82831253113727"><ele>94.0</ele><time>2026-04-18T11:09:09.001Z</time></trkpt><trkpt lat="43.36940818790788" lon="10.82811626516487"><ele>94.0</ele><time>2026-04-18T11:09:10.001Z</time></trkpt><trkpt lat="43.369376307364355" lon="10.827944614660028"><ele>94.0</ele><time>2026-04-18T11:09:11.001Z</time></trkpt><trkpt lat="43.369354746170536" lon="10.82777700783084"><ele>94.0</ele><time>2026-04-18T11:09:12.001Z</time></trkpt><trkpt lat="43.36933225141114" lon="10.82760757267973"><ele>94.25</ele><time>2026-04-18T11:09:13.001Z</time></trkpt><trkpt lat="43.36934677685647" lon="10.827430210317868"><ele>94.5</ele><time>2026-04-18T11:09:14.001Z</time></trkpt><trkpt lat="43.36935548826912" lon="10.827214901488603"><ele>94.75</ele><time>2026-04-18T11:09:15.001Z</time></trkpt><trkpt lat="43.36937177665161" lon="10.827013755275287"><ele>95.0</ele><time>2026-04-18T11:09:16.001Z</time></trkpt><trkpt lat="43.36939751302387" lon="10.82683448784829"><ele>94.25</ele><time>2026-04-18T11:09:17.001Z</time></trkpt><trkpt lat="43.36943376002009" lon="10.82666105015283"><ele>93.5</ele><time>2026-04-18T11:09:18.001Z</time></trkpt><trkpt lat="43.369465289095885" lon="10.826480314482058"><ele>92.75</ele><time>2026-04-18T11:09:19.001Z</time></trkpt><trkpt lat="43.3695238883701" lon="10.82631071257226"><ele>92.0</ele><time>2026-04-18T11:09:20.001Z</time></trkpt><trkpt lat="43.36958027782428" lon="10.826105936317875"><ele>91.0</ele><time>2026-04-18T11:09:21.001Z</time></trkpt><trkpt lat="43.36963528926368" lon="10.82590728363801"><ele>90.0</ele><time>2026-04-18T11:09:22.001Z</time></trkpt><trkpt lat="43.36967501030297" lon="10.825723489541463"><ele>89.0</ele><time>2026-04-18T11:09:23.001Z</time></trkpt><trkpt lat="43.3697158343646" lon="10.8255640833039"><ele>88.0</ele><time>2026-04-18T11:09:24.001Z</time></trkpt><trkpt lat="43.36974687920311" lon="10.825411676944642"><ele>88.4</ele><time>2026-04-18T11:09:25.001Z</time></trkpt><trkpt lat="43.36977288523988" lon="10.825267617909896"><ele>88.80000000000001</ele><time>2026-04-18T11:09:26.001Z</time></trkpt><trkpt lat="43.36979056660761" lon="10.82514953646289"><ele>89.2</ele><time>2026-04-18T11:09:27.001Z</time></trkpt><trkpt lat="43.36979499806078" lon="10.825035158550522"><ele>89.6</ele><time>2026-04-18T11:09:28.001Z</time></trkpt><trkpt lat="43.36979469250695" lon="10.82491525160451"><ele>90.0</ele><time>2026-04-18T11:09:29.001Z</time></trkpt><trkpt lat="43.369797399641925" lon="10.824778155037475"><ele>90.0</ele><time>2026-04-18T11:09:30.001Z</time></trkpt><trkpt lat="43.36979449145737" lon="10.824622692189886"><ele>90.0</ele><time>2026-04-18T11:09:31.002Z</time></trkpt><trkpt lat="43.36977566475811" lon="10.824482628483839"><ele>90.0</ele><time>2026-04-18T11:09:32.002Z</time></trkpt><trkpt lat="43.36976229542199" lon="10.824343047317182"><ele>90.0</ele><time>2026-04-18T11:09:33.002Z</time></trkpt><trkpt lat="43.3697431503984" lon="10.824203277082582"><ele>90.0</ele><time>2026-04-18T11:09:34.002Z</time></trkpt><trkpt lat="43.369716001302734" lon="10.82406083942678"><ele>88.75</ele><time>2026-04-18T11:09:35.002Z</time></trkpt><trkpt lat="43.3696794800746" lon="10.823925459074086"><ele>87.5</ele><time>2026-04-18T11:09:36.002Z</time></trkpt><trkpt lat="43.36962300687801" lon="10.82377704621918"><ele>86.25</ele><time>2026-04-18T11:09:37.002Z</time></trkpt><trkpt lat="43.36957824381361" lon="10.823611879536198"><ele>85.0</ele><time>2026-04-18T11:09:38.002Z</time></trkpt><trkpt lat="43.36949882458578" lon="10.823427101910662"><ele>85.0</ele><time>2026-04-18T11:09:39.002Z</time></trkpt><trkpt lat="43.36941951873781" lon="10.823271440279097"><ele>85.0</ele><time>2026-04-18T11:09:40.002Z</time></trkpt><trkpt lat="43.36934910579399" lon="10.823154941026743"><ele>85.0</ele><time>2026-04-18T11:09:41.002Z</time></trkpt><trkpt lat="43.36927745540553" lon="10.823053684244897"><ele>85.0</ele><time>2026-04-18T11:09:42.002Z</time></trkpt><trkpt lat="43.36919612275865" lon="10.822955822227215"><ele>85.0</ele><time>2026-04-18T11:09:43.002Z</time></trkpt><trkpt lat="43.36909628625294" lon="10.822849408962819"><ele>85.0</ele><time>2026-04-18T11:09:44.002Z</time></trkpt><trkpt lat="43.36898471729755" lon="10.82273651028349"><ele>85.0</ele><time>2026-04-18T11:09:45.002Z</time></trkpt><trkpt lat="43.36886908560072" lon="10.822622104691701"><ele>85.0</ele><time>2026-04-18T11:09:46.002Z</time></trkpt><trkpt lat="43.36875169268192" lon="10.822513425844553"><ele>84.75</ele><time>2026-04-18T11:09:47.002Z</time></trkpt><trkpt lat="43.368629813725605" lon="10.82243609515781"><ele>84.5</ele><time>2026-04-18T11:09:48.002Z</time></trkpt><trkpt lat="43.36853227745566" lon="10.822354372981861"><ele>84.25</ele><time>2026-04-18T11:09:49.002Z</time></trkpt><trkpt lat="43.36844162809633" lon="10.822276344092318"><ele>84.0</ele><time>2026-04-18T11:09:50.002Z</time></trkpt><trkpt lat="43.368354836332806" lon="10.822190369548371"><ele>84.0</ele><time>2026-04-18T11:09:51.002Z</time></trkpt><trkpt lat="43.36826218791826" lon="10.822107093084538"><ele>84.0</ele><time>2026-04-18T11:09:52.002Z</time></trkpt><trkpt lat="43.36816539425721" lon="10.822026407516242"><ele>84.0</ele><time>2026-04-18T11:09:53.002Z</time></trkpt><trkpt lat="43.36807038163893" lon="10.821931071572592"><ele>84.0</ele><time>2026-04-18T11:09:54.002Z</time></trkpt><trkpt lat="43.367977385241424" lon="10.82183707211285"><ele>84.25</ele><time>2026-04-18T11:09:55.002Z</time></trkpt><trkpt lat="43.36787082640697" lon="10.821744460562163"><ele>84.5</ele><time>2026-04-18T11:09:56.002Z</time></trkpt><trkpt lat="43.367758261063365" lon="10.821631692833938"><ele>84.75</ele><time>2026-04-18T11:09:57.002Z</time></trkpt><trkpt lat="43.3676380486064" lon="10.82153060121413"><ele>85.0</ele><time>2026-04-18T11:09:58.002Z</time></trkpt><trkpt lat="43.3675172240381" lon="10.821430935263214"><ele>85.0</ele><time>2026-04-18T11:09:59.002Z</time></trkpt><trkpt lat="43.36740776167785" lon="10.821330431301675"><ele>85.0</ele><time>2026-04-18T11:10:00.002Z</time></trkpt><trkpt lat="43.36730350572958" lon="10.821221879943709"><ele>85.0</ele><time>2026-04-18T11:10:01.002Z</time></trkpt><trkpt lat="43.36719197899156" lon="10.821132721990368"><ele>85.0</ele><time>2026-04-18T11:10:02.002Z</time></trkpt><trkpt lat="43.367078098568264" lon="10.82103051596349"><ele>84.0</ele><time>2026-04-18T11:10:03.002Z</time></trkpt><trkpt lat="43.36698942637498" lon="10.820944353514193"><ele>83.0</ele><time>2026-04-18T11:10:04.002Z</time></trkpt><trkpt lat="43.36690754372152" lon="10.820872234712436"><ele>82.0</ele><time>2026-04-18T11:10:05.002Z</time></trkpt><trkpt lat="43.3668451133321" lon="10.820815833345785"><ele>81.0</ele><time>2026-04-18T11:10:06.002Z</time></trkpt><trkpt lat="43.36674231377612" lon="10.82071999185667"><ele>80.0</ele><time>2026-04-18T11:10:08Z</time></trkpt><trkpt lat="43.366690404563705" lon="10.820664854806559"><ele>80.0</ele><time>2026-04-18T11:10:09Z</time></trkpt><trkpt lat="43.366636330006834" lon="10.820607282244136"><ele>80.0</ele><time>2026-04-18T11:10:10Z</time></trkpt><trkpt lat="43.36657916779754" lon="10.820546236333552"><ele>80.0</ele><time>2026-04-18T11:10:11Z</time></trkpt><trkpt lat="43.366520048123995" lon="10.82047980982153"><ele>80.0</ele><time>2026-04-18T11:10:12Z</time></trkpt><trkpt lat="43.3664591380748" lon="10.820413689003521"><ele>80.0</ele><time>2026-04-18T11:10:13Z</time></trkpt><trkpt lat="43.36640556801731" lon="10.820341616013405"><ele>80.0</ele><time>2026-04-18T11:10:14Z</time></trkpt><trkpt lat="43.366347631920796" lon="10.820258697547366"><ele>79.83333333333334</ele><time>2026-04-18T11:10:15Z</time></trkpt><trkpt lat="43.36629010618582" lon="10.820182462087455"><ele>79.66666666666667</ele><time>2026-04-18T11:10:16Z</time></trkpt><trkpt lat="43.3662370129291" lon="10.820104837677873"><ele>79.5</ele><time>2026-04-18T11:10:17Z</time></trkpt><trkpt lat="43.36618499415895" lon="10.820040672651547"><ele>79.33333333333333</ele><time>2026-04-18T11:10:18Z</time></trkpt><trkpt lat="43.366133607041164" lon="10.819957503672722"><ele>79.16666666666666</ele><time>2026-04-18T11:10:19Z</time></trkpt><trkpt lat="43.36607929187431" lon="10.819869182741892"><ele>79.0</ele><time>2026-04-18T11:10:20Z</time></trkpt><trkpt lat="43.366023291848705" lon="10.819781198835758"><ele>79.0</ele><time>2026-04-18T11:10:21Z</time></trkpt><trkpt lat="43.36597266036215" lon="10.819705795454265"><ele>79.0</ele><time>2026-04-18T11:10:22Z</time></trkpt><trkpt lat="43.36592144877347" lon="10.819635643065523"><ele>79.0</ele><time>2026-04-18T11:10:23Z</time></trkpt><trkpt lat="43.3658620191909" lon="10.819552317728267"><ele>79.0</ele><time>2026-04-18T11:10:24Z</time></trkpt><trkpt lat="43.365803551623735" lon="10.81946980641228"><ele>79.0</ele><time>2026-04-18T11:10:25Z</time></trkpt><trkpt lat="43.36574534429396" lon="10.819382888856772"><ele>79.0</ele><time>2026-04-18T11:10:26Z</time></trkpt><trkpt lat="43.36568682681412" lon="10.819300781529087"><ele>79.0</ele><time>2026-04-18T11:10:27Z</time></trkpt><trkpt lat="43.36563137293066" lon="10.81921742100076"><ele>79.0</ele><time>2026-04-18T11:10:28Z</time></trkpt><trkpt lat="43.36556928973171" lon="10.819125347137879"><ele>79.0</ele><time>2026-04-18T11:10:29Z</time></trkpt><trkpt lat="43.3655025127109" lon="10.819034919945391"><ele>79.0</ele><time>2026-04-18T11:10:30Z</time></trkpt><trkpt lat="43.36543839712659" lon="10.8189356545591"><ele>79.0</ele><time>2026-04-18T11:10:31Z</time></trkpt><trkpt lat="43.365368150149756" lon="10.818850772419513"><ele>79.0</ele><time>2026-04-18T11:10:32Z</time></trkpt><trkpt lat="43.36531323900809" lon="10.818746923627184"><ele>79.0</ele><time>2026-04-18T11:10:33Z</time></trkpt><trkpt lat="43.36525116198928" lon="10.818656587333189"><ele>79.0</ele><time>2026-04-18T11:10:34Z</time></trkpt><trkpt lat="43.36518773713964" lon="10.818564289677727"><ele>79.0</ele><time>2026-04-18T11:10:35Z</time></trkpt><trkpt lat="43.36513137056541" lon="10.81848239994584"><ele>79.0</ele><time>2026-04-18T11:10:36Z</time></trkpt><trkpt lat="43.365071289768366" lon="10.818396250170016"><ele>79.0</ele><time>2026-04-18T11:10:37Z</time></trkpt><trkpt lat="43.36500937829834" lon="10.818307475692135"><ele>78.83333333333333</ele><time>2026-04-18T11:10:38Z</time></trkpt><trkpt lat="43.36494855742142" lon="10.81822026486203"><ele>78.66666666666666</ele><time>2026-04-18T11:10:39Z</time></trkpt><trkpt lat="43.36488049912218" lon="10.818147466248591"><ele>78.5</ele><time>2026-04-18T11:10:40Z</time></trkpt><trkpt lat="43.364822282619095" lon="10.818064879367462"><ele>78.33333333333333</ele><time>2026-04-18T11:10:41Z</time></trkpt><trkpt lat="43.364765219806884" lon="10.817988431679618"><ele>78.16666666666667</ele><time>2026-04-18T11:10:42Z</time></trkpt><trkpt lat="43.364716810347446" lon="10.817886495912028"><ele>78.0</ele><time>2026-04-18T11:10:43.001Z</time></trkpt><trkpt lat="43.36464904069471" lon="10.81781114280663"><ele>78.0</ele><time>2026-04-18T11:10:44.001Z</time></trkpt><trkpt lat="43.364595369699536" lon="10.817726119769858"><ele>78.0</ele><time>2026-04-18T11:10:45.001Z</time></trkpt><trkpt lat="43.36453187258801" lon="10.817642024300563"><ele>78.0</ele><time>2026-04-18T11:10:46.001Z</time></trkpt><trkpt lat="43.36447377067414" lon="10.817559673375646"><ele>78.0</ele><time>2026-04-18T11:10:47.001Z</time></trkpt><trkpt lat="43.36441273441741" lon="10.817473797049933"><ele>78.0</ele><time>2026-04-18T11:10:48.001Z</time></trkpt><trkpt lat="43.36435925956962" lon="10.817371427014592"><ele>78.0</ele><time>2026-04-18T11:10:49.001Z</time></trkpt><trkpt lat="43.36430743918548" lon="10.817294266029661"><ele>77.71428571428572</ele><time>2026-04-18T11:10:50.001Z</time></trkpt><trkpt lat="43.364254908250274" lon="10.817223948189845"><ele>77.42857142857142</ele><time>2026-04-18T11:10:51.001Z</time></trkpt><trkpt lat="43.36420540380936" lon="10.817142410218025"><ele>77.14285714285714</ele><time>2026-04-18T11:10:52.001Z</time></trkpt><trkpt lat="43.36414801982258" lon="10.817070363094514"><ele>76.85714285714286</ele><time>2026-04-18T11:10:53.001Z</time></trkpt><trkpt lat="43.3641020374324" lon="10.817001911078712"><ele>76.57142857142858</ele><time>2026-04-18T11:10:54.001Z</time></trkpt><trkpt lat="43.36405804859078" lon="10.816939508705598"><ele>76.28571428571428</ele><time>2026-04-18T11:10:55.001Z</time></trkpt><trkpt lat="43.36401095896985" lon="10.816877215983597"><ele>76.0</ele><time>2026-04-18T11:10:56.001Z</time></trkpt><trkpt lat="43.36395862150158" lon="10.81676089839906"><ele>75.8</ele><time>2026-04-18T11:10:58.001Z</time></trkpt><trkpt lat="43.3639801193259" lon="10.816641830069328"><ele>75.6</ele><time>2026-04-18T11:11:00.001Z</time></trkpt><trkpt lat="43.36405226710604" lon="10.816542541332998"><ele>75.4</ele><time>2026-04-18T11:11:02.001Z</time></trkpt><trkpt lat="43.3641468756782" lon="10.816466323068653"><ele>75.2</ele><time>2026-04-18T11:11:04.001Z</time></trkpt><trkpt lat="43.364195075783904" lon="10.816403482722107"><ele>75.0</ele><time>2026-04-18T11:11:05.001Z</time></trkpt><trkpt lat="43.364273864325774" lon="10.816272687445585"><ele>75.0</ele><time>2026-04-18T11:11:07.001Z</time></trkpt><trkpt lat="43.3643177203082" lon="10.816209907165574"><ele>75.0</ele><time>2026-04-18T11:11:08.001Z</time></trkpt><trkpt lat="43.36436413393628" lon="10.81614953644294"><ele>75.0</ele><time>2026-04-18T11:11:09.001Z</time></trkpt><trkpt lat="43.364410242657335" lon="10.81608820817248"><ele>75.0</ele><time>2026-04-18T11:11:10.001Z</time></trkpt><trkpt lat="43.36449658894725" lon="10.815976064684072"><ele>75.0</ele><time>2026-04-18T11:11:12.001Z</time></trkpt><trkpt lat="43.36456809093823" lon="10.81587925229007"><ele>75.0</ele><time>2026-04-18T11:11:14.001Z</time></trkpt><trkpt lat="43.364627523104026" lon="10.815797126879174"><ele>75.0</ele><time>2026-04-18T11:11:17.001Z</time></trkpt><trkpt lat="43.36468759233928" lon="10.815720451803585"><ele>75.0</ele><time>2026-04-18T11:11:19.001Z</time></trkpt><trkpt lat="43.364791903603255" lon="10.81563215448519"><ele>75.0</ele><time>2026-04-18T11:11:21.001Z</time></trkpt><trkpt lat="43.3648508188654" lon="10.815583858209045"><ele>75.0</ele><time>2026-04-18T11:11:22.001Z</time></trkpt><trkpt lat="43.364912589997516" lon="10.81553109000409"><ele>75.0</ele><time>2026-04-18T11:11:23.001Z</time></trkpt><trkpt lat="43.3649785100686" lon="10.815483900197307"><ele>75.0</ele><time>2026-04-18T11:11:24.001Z</time></trkpt><trkpt lat="43.36503853978211" lon="10.815438308375215"><ele>75.33333333333333</ele><time>2026-04-18T11:11:25.001Z</time></trkpt><trkpt lat="43.365093654699706" lon="10.815395462723979"><ele>75.66666666666667</ele><time>2026-04-18T11:11:26.001Z</time></trkpt><trkpt lat="43.365216770861785" lon="10.815360509294896"><ele>76.0</ele><time>2026-04-18T11:11:28.001Z</time></trkpt><trkpt lat="43.365283355237864" lon="10.815339637209712"><ele>76.33333333333334</ele><time>2026-04-18T11:11:29.001Z</time></trkpt><trkpt lat="43.36535804017004" lon="10.8153171725118"><ele>76.66666666666667</ele><time>2026-04-18T11:11:30.001Z</time></trkpt><trkpt lat="43.36543673426052" lon="10.815293501869146"><ele>77.0</ele><time>2026-04-18T11:11:31.001Z</time></trkpt><trkpt lat="43.36551462524656" lon="10.815270072796473"><ele>79.8</ele><time>2026-04-18T11:11:32.001Z</time></trkpt><trkpt lat="43.36560215280757" lon="10.81524374512647"><ele>82.6</ele><time>2026-04-18T11:11:33.001Z</time></trkpt><trkpt lat="43.365681819616405" lon="10.815203140864798"><ele>85.39999999999999</ele><time>2026-04-18T11:11:34.001Z</time></trkpt><trkpt lat="43.36578192148457" lon="10.815181300073542"><ele>88.2</ele><time>2026-04-18T11:11:35.001Z</time></trkpt><trkpt lat="43.36588414249475" lon="10.815170787890755"><ele>91.0</ele><time>2026-04-18T11:11:36.002Z</time></trkpt><trkpt lat="43.36598467958354" lon="10.815165660156454"><ele>91.0</ele><time>2026-04-18T11:11:37.002Z</time></trkpt><trkpt lat="43.36609180266755" lon="10.815165524247432"><ele>91.0</ele><time>2026-04-18T11:11:38.002Z</time></trkpt><trkpt lat="43.36619561895086" lon="10.815165964489086"><ele>91.0</ele><time>2026-04-18T11:11:39.002Z</time></trkpt><trkpt lat="43.366283455679316" lon="10.815169702973192"><ele>91.0</ele><time>2026-04-18T11:11:40.002Z</time></trkpt><trkpt lat="43.36636285367195" lon="10.815164740157226"><ele>91.0</ele><time>2026-04-18T11:11:41.002Z</time></trkpt><trkpt lat="43.36644365872674" lon="10.815176569546757"><ele>91.16666666666666</ele><time>2026-04-18T11:11:42.002Z</time></trkpt><trkpt lat="43.36651272298275" lon="10.815187542133076"><ele>91.33333333333333</ele><time>2026-04-18T11:11:43.002Z</time></trkpt><trkpt lat="43.36660772945937" lon="10.815181339925186"><ele>91.5</ele><time>2026-04-18T11:11:45.002Z</time></trkpt><trkpt lat="43.36665380566008" lon="10.815115481893681"><ele>91.66666666666667</ele><time>2026-04-18T11:11:51.002Z</time></trkpt><trkpt lat="43.36658837965" lon="10.815018704469795"><ele>91.83333333333334</ele><time>2026-04-18T11:11:52.002Z</time></trkpt><trkpt lat="43.36649220828332" lon="10.814964136800276"><ele>92.0</ele><time>2026-04-18T11:11:54.002Z</time></trkpt><trkpt lat="43.36638032777899" lon="10.814901314149006"><ele>90.5</ele><time>2026-04-18T11:11:56.002Z</time></trkpt><trkpt lat="43.36631474569087" lon="10.814868802580255"><ele>89.0</ele><time>2026-04-18T11:11:57.002Z</time></trkpt><trkpt lat="43.366245287456124" lon="10.814831125971379"><ele>87.5</ele><time>2026-04-18T11:11:58.002Z</time></trkpt><trkpt lat="43.36617815903945" lon="10.814801105035746"><ele>86.0</ele><time>2026-04-18T11:11:59.002Z</time></trkpt><trkpt lat="43.3661014893954" lon="10.814763319897137"><ele>84.5</ele><time>2026-04-18T11:12:00.002Z</time></trkpt><trkpt lat="43.36602216003167" lon="10.814714213060101"><ele>83.0</ele><time>2026-04-18T11:12:01.002Z</time></trkpt><trkpt lat="43.36594275718707" lon="10.814665958739292"><ele>83.0</ele><time>2026-04-18T11:12:02.002Z</time></trkpt><trkpt lat="43.36586565626954" lon="10.814608668054232"><ele>83.0</ele><time>2026-04-18T11:12:03.002Z</time></trkpt><trkpt lat="43.36578806370502" lon="10.814546650872954"><ele>83.0</ele><time>2026-04-18T11:12:04.002Z</time></trkpt><trkpt lat="43.36570925532463" lon="10.814479906131588"><ele>83.0</ele><time>2026-04-18T11:12:05.002Z</time></trkpt><trkpt lat="43.365631398125544" lon="10.814410793778954"><ele>83.0</ele><time>2026-04-18T11:12:06.002Z</time></trkpt><trkpt lat="43.36555229745886" lon="10.814337815820016"><ele>82.2</ele><time>2026-04-18T11:12:07.002Z</time></trkpt><trkpt lat="43.36547008794081" lon="10.814267016740354"><ele>81.4</ele><time>2026-04-18T11:12:08.002Z</time></trkpt><trkpt lat="43.36538882060075" lon="10.81419346044327"><ele>80.60000000000001</ele><time>2026-04-18T11:12:09.002Z</time></trkpt><trkpt lat="43.365304077922" lon="10.81412326398458"><ele>79.80000000000001</ele><time>2026-04-18T11:12:10.002Z</time></trkpt><trkpt lat="43.36522178078277" lon="10.814045691455199"><ele>79.0</ele><time>2026-04-18T11:12:11.002Z</time></trkpt><trkpt lat="43.365146615811454" lon="10.813965305198021"><ele>79.0</ele><time>2026-04-18T11:12:12.002Z</time></trkpt><trkpt lat="43.36506944504571" lon="10.813887164930229"><ele>79.0</ele><time>2026-04-18T11:12:13Z</time></trkpt><trkpt lat="43.36499134639825" lon="10.813812814914984"><ele>79.0</ele><time>2026-04-18T11:12:14Z</time></trkpt><trkpt lat="43.36491423349711" lon="10.813737336388252"><ele>79.0</ele><time>2026-04-18T11:12:15Z</time></trkpt><trkpt lat="43.36483668828564" lon="10.813663798704244"><ele>79.0</ele><time>2026-04-18T11:12:16Z</time></trkpt><trkpt lat="43.36475996927963" lon="10.813593100023601"><ele>78.8</ele><time>2026-04-18T11:12:17Z</time></trkpt><trkpt lat="43.364688850029204" lon="10.813520500598417"><ele>78.60000000000001</ele><time>2026-04-18T11:12:18Z</time></trkpt><trkpt lat="43.36460722568691" lon="10.813450435287393"><ele>78.4</ele><time>2026-04-18T11:12:19Z</time></trkpt><trkpt lat="43.36453206385588" lon="10.813381164964483"><ele>78.2</ele><time>2026-04-18T11:12:20Z</time></trkpt><trkpt lat="43.364456311251125" lon="10.813308004848295"><ele>78.0</ele><time>2026-04-18T11:12:21Z</time></trkpt><trkpt lat="43.36438854300049" lon="10.813233902297855"><ele>78.0</ele><time>2026-04-18T11:12:22Z</time></trkpt><trkpt lat="43.364310561281464" lon="10.813170931050427"><ele>78.0</ele><time>2026-04-18T11:12:23Z</time></trkpt><trkpt lat="43.364235465345054" lon="10.813105923657446"><ele>78.0</ele><time>2026-04-18T11:12:24Z</time></trkpt><trkpt lat="43.36416234851999" lon="10.813041100868134"><ele>78.0</ele><time>2026-04-18T11:12:25Z</time></trkpt><trkpt lat="43.36409004209043" lon="10.812973921901017"><ele>78.0</ele><time>2026-04-18T11:12:26Z</time></trkpt><trkpt lat="43.36402075624288" lon="10.812911136033538"><ele>78.0</ele><time>2026-04-18T11:12:27Z</time></trkpt><trkpt lat="43.363960084728525" lon="10.812855478525156"><ele>78.0</ele><time>2026-04-18T11:12:28Z</time></trkpt><trkpt lat="43.363883048117124" lon="10.812779691829242"><ele>78.0</ele><time>2026-04-18T11:12:30Z</time></trkpt><trkpt lat="43.363831982655" lon="10.812706450218723"><ele>78.0</ele><time>2026-04-18T11:12:39Z</time></trkpt><trkpt lat="43.36374306718984" lon="10.812639047955207"><ele>78.0</ele><time>2026-04-18T11:12:41Z</time></trkpt><trkpt lat="43.36361741184147" lon="10.81262833737332"><ele>78.0</ele><time>2026-04-18T11:12:43Z</time></trkpt><trkpt lat="43.36355436056062" lon="10.812625073268158"><ele>78.16666666666667</ele><time>2026-04-18T11:12:44Z</time></trkpt><trkpt lat="43.36348460696546" lon="10.812615806757751"><ele>78.33333333333333</ele><time>2026-04-18T11:12:45Z</time></trkpt><trkpt lat="43.3634055261091" lon="10.812601718812486"><ele>78.5</ele><time>2026-04-18T11:12:46Z</time></trkpt><trkpt lat="43.363323565436595" lon="10.812605447573544"><ele>78.66666666666666</ele><time>2026-04-18T11:12:47Z</time></trkpt><trkpt lat="43.36324414879015" lon="10.81260359484483"><ele>78.83333333333333</ele><time>2026-04-18T11:12:48Z</time></trkpt><trkpt lat="43.36316071804083" lon="10.81262392074062"><ele>79.0</ele><time>2026-04-18T11:12:49Z</time></trkpt><trkpt lat="43.363076321928865" lon="10.81263029040673"><ele>79.0</ele><time>2026-04-18T11:12:50Z</time></trkpt><trkpt lat="43.36298295407101" lon="10.812627636700011"><ele>79.0</ele><time>2026-04-18T11:12:51Z</time></trkpt><trkpt lat="43.36288347631397" lon="10.812637311601675"><ele>79.0</ele><time>2026-04-18T11:12:52Z</time></trkpt><trkpt lat="43.36279202009395" lon="10.812644557908293"><ele>79.0</ele><time>2026-04-18T11:12:53Z</time></trkpt><trkpt lat="43.36270179588033" lon="10.81264051225204"><ele>79.0</ele><time>2026-04-18T11:12:54Z</time></trkpt><trkpt lat="43.36260911404475" lon="10.8126377577973"><ele>79.0</ele><time>2026-04-18T11:12:55Z</time></trkpt><trkpt lat="43.362518918009116" lon="10.812633728354658"><ele>79.0</ele><time>2026-04-18T11:12:56Z</time></trkpt><trkpt lat="43.36242797774814" lon="10.812638352439293"><ele>79.0</ele><time>2026-04-18T11:12:57Z</time></trkpt><trkpt lat="43.362333414619016" lon="10.812635101767512"><ele>79.0</ele><time>2026-04-18T11:12:58Z</time></trkpt><trkpt lat="43.362241382900386" lon="10.812638753550074"><ele>79.0</ele><time>2026-04-18T11:12:59.001Z</time></trkpt><trkpt lat="43.36214679686562" lon="10.81263043376482"><ele>78.4</ele><time>2026-04-18T11:13:00.001Z</time></trkpt><trkpt lat="43.36205806942195" lon="10.812595990496499"><ele>77.80000000000001</ele><time>2026-04-18T11:13:01.001Z</time></trkpt><trkpt lat="43.3619729170914" lon="10.81258890707865"><ele>77.19999999999999</ele><time>2026-04-18T11:13:02.001Z</time></trkpt><trkpt lat="43.36188007781037" lon="10.81256740234733"><ele>76.6</ele><time>2026-04-18T11:13:03.001Z</time></trkpt><trkpt lat="43.361793080942846" lon="10.812522140668458"><ele>76.0</ele><time>2026-04-18T11:13:04.001Z</time></trkpt><trkpt lat="43.36170912937783" lon="10.81248388566535"><ele>76.0</ele><time>2026-04-18T11:13:05.001Z</time></trkpt><trkpt lat="43.36163302064103" lon="10.812438369919724"><ele>76.0</ele><time>2026-04-18T11:13:06.001Z</time></trkpt><trkpt lat="43.361559262328846" lon="10.812388210720385"><ele>76.0</ele><time>2026-04-18T11:13:07.001Z</time></trkpt><trkpt lat="43.361488555794594" lon="10.812336193556945"><ele>76.0</ele><time>2026-04-18T11:13:08.001Z</time></trkpt><trkpt lat="43.36139516319555" lon="10.812259698638965"><ele>76.0</ele><time>2026-04-18T11:13:10.001Z</time></trkpt><trkpt lat="43.361328281801235" lon="10.812217400791955"><ele>76.0</ele><time>2026-04-18T11:13:14.001Z</time></trkpt><trkpt lat="43.361269755813055" lon="10.812151774497785"><ele>75.8</ele><time>2026-04-18T11:13:16.001Z</time></trkpt><trkpt lat="43.36119587351244" lon="10.81204220208852"><ele>75.6</ele><time>2026-04-18T11:13:18.001Z</time></trkpt><trkpt lat="43.36110908758011" lon="10.811902034109178"><ele>75.4</ele><time>2026-04-18T11:13:20.001Z</time></trkpt><trkpt lat="43.36106086489403" lon="10.811827237396933"><ele>75.2</ele><time>2026-04-18T11:13:21.001Z</time></trkpt><trkpt lat="43.36101313779952" lon="10.81175024286636"><ele>75.0</ele><time>2026-04-18T11:13:22.001Z</time></trkpt><trkpt lat="43.36096461160885" lon="10.811674200150406"><ele>75.0</ele><time>2026-04-18T11:13:23.001Z</time></trkpt><trkpt lat="43.360905089072524" lon="10.811596848666959"><ele>75.0</ele><time>2026-04-18T11:13:24.001Z</time></trkpt><trkpt lat="43.36086849791248" lon="10.811495677209308"><ele>75.0</ele><time>2026-04-18T11:13:25.001Z</time></trkpt><trkpt lat="43.36080496546508" lon="10.811411198168305"><ele>75.0</ele><time>2026-04-18T11:13:26.001Z</time></trkpt><trkpt lat="43.360756959691074" lon="10.81129821748712"><ele>75.0</ele><time>2026-04-18T11:13:27.001Z</time></trkpt><trkpt lat="43.360703604897154" lon="10.811191160889654"><ele>75.0</ele><time>2026-04-18T11:13:28.001Z</time></trkpt><trkpt lat="43.360655103931656" lon="10.81107002402758"><ele>74.2</ele><time>2026-04-18T11:13:29.001Z</time></trkpt><trkpt lat="43.36060855717876" lon="10.810938483805543"><ele>73.4</ele><time>2026-04-18T11:13:30.001Z</time></trkpt><trkpt lat="43.36056699412443" lon="10.810798961019104"><ele>72.6</ele><time>2026-04-18T11:13:31.001Z</time></trkpt><trkpt lat="43.36052000942516" lon="10.810658117771077"><ele>71.8</ele><time>2026-04-18T11:13:32.001Z</time></trkpt><trkpt lat="43.36047578004337" lon="10.81051048295616"><ele>71.0</ele><time>2026-04-18T11:13:33.001Z</time></trkpt><trkpt lat="43.36042934567" lon="10.810361392011863"><ele>71.0</ele><time>2026-04-18T11:13:34.001Z</time></trkpt><trkpt lat="43.360368815877486" lon="10.810212167782828"><ele>71.0</ele><time>2026-04-18T11:13:35.001Z</time></trkpt><trkpt lat="43.360314903326014" lon="10.810055775413204"><ele>71.0</ele><time>2026-04-18T11:13:36.001Z</time></trkpt><trkpt lat="43.36026550229848" lon="10.80990412598728"><ele>71.0</ele><time>2026-04-18T11:13:37.001Z</time></trkpt><trkpt lat="43.36021621822152" lon="10.809753203215077"><ele>71.25</ele><time>2026-04-18T11:13:38.001Z</time></trkpt><trkpt lat="43.3601761246407" lon="10.809592409821814"><ele>71.5</ele><time>2026-04-18T11:13:39.001Z</time></trkpt><trkpt lat="43.36012918387675" lon="10.809439070408303"><ele>71.75</ele><time>2026-04-18T11:13:40.001Z</time></trkpt><trkpt lat="43.36008665582056" lon="10.809279964730685"><ele>72.0</ele><time>2026-04-18T11:13:41.001Z</time></trkpt><trkpt lat="43.360040230893446" lon="10.809123820660357"><ele>72.5</ele><time>2026-04-18T11:13:42.001Z</time></trkpt><trkpt lat="43.35999226089911" lon="10.80897126276563"><ele>73.0</ele><time>2026-04-18T11:13:43.001Z</time></trkpt><trkpt lat="43.35993978807453" lon="10.808822397304256"><ele>73.5</ele><time>2026-04-18T11:13:44.001Z</time></trkpt><trkpt lat="43.359892146723986" lon="10.808665436439776"><ele>74.0</ele><time>2026-04-18T11:13:45.001Z</time></trkpt><trkpt lat="43.359843853092684" lon="10.808508254178598"><ele>75.0</ele><time>2026-04-18T11:13:46.001Z</time></trkpt><trkpt lat="43.35979486989921" lon="10.80834940691394"><ele>76.0</ele><time>2026-04-18T11:13:47.001Z</time></trkpt><trkpt lat="43.35974607079318" lon="10.808191022243918"><ele>77.0</ele><time>2026-04-18T11:13:48.001Z</time></trkpt><trkpt lat="43.35969714021287" lon="10.808030910747641"><ele>78.0</ele><time>2026-04-18T11:13:49.001Z</time></trkpt><trkpt lat="43.35965004764454" lon="10.807869968494595"><ele>76.0</ele><time>2026-04-18T11:13:50.002Z</time></trkpt><trkpt lat="43.359605002519565" lon="10.80771405002453"><ele>74.0</ele><time>2026-04-18T11:13:51.002Z</time></trkpt><trkpt lat="43.359558764730195" lon="10.807550884243952"><ele>72.0</ele><time>2026-04-18T11:13:52.002Z</time></trkpt><trkpt lat="43.359507369293176" lon="10.8073846535512"><ele>70.0</ele><time>2026-04-18T11:13:53.002Z</time></trkpt><trkpt lat="43.35945592124242" lon="10.80721651351859"><ele>70.0</ele><time>2026-04-18T11:13:54.002Z</time></trkpt><trkpt lat="43.359406239909354" lon="10.807051856330313"><ele>70.0</ele><time>2026-04-18T11:13:55.002Z</time></trkpt><trkpt lat="43.359357005053205" lon="10.8068860033499"><ele>70.0</ele><time>2026-04-18T11:13:56.002Z</time></trkpt><trkpt lat="43.35931274754836" lon="10.806738028821297"><ele>70.0</ele><time>2026-04-18T11:13:57.002Z</time></trkpt><trkpt lat="43.359271656102614" lon="10.806599686322903"><ele>69.8</ele><time>2026-04-18T11:13:58.002Z</time></trkpt><trkpt lat="43.35923812565842" lon="10.806469783630106"><ele>69.6</ele><time>2026-04-18T11:13:59.002Z</time></trkpt><trkpt lat="43.35922052540109" lon="10.806342130375251"><ele>69.4</ele><time>2026-04-18T11:14:00.002Z</time></trkpt><trkpt lat="43.35921827565052" lon="10.80621923809538"><ele>69.2</ele><time>2026-04-18T11:14:01.002Z</time></trkpt><trkpt lat="43.35923124570667" lon="10.806080871427142"><ele>69.0</ele><time>2026-04-18T11:14:02.002Z</time></trkpt><trkpt lat="43.35925231217773" lon="10.80593031332567"><ele>69.0</ele><time>2026-04-18T11:14:03.002Z</time></trkpt><trkpt lat="43.359277113800495" lon="10.805774496252917"><ele>69.0</ele><time>2026-04-18T11:14:04.002Z</time></trkpt><trkpt lat="43.3592956005503" lon="10.805614398767933"><ele>69.0</ele><time>2026-04-18T11:14:05.002Z</time></trkpt><trkpt lat="43.35931419335518" lon="10.80545214957554"><ele>69.0</ele><time>2026-04-18T11:14:06.002Z</time></trkpt><trkpt lat="43.35933215181346" lon="10.805284788587853"><ele>68.5</ele><time>2026-04-18T11:14:07.002Z</time></trkpt><trkpt lat="43.35935155415031" lon="10.805114581066794"><ele>68.0</ele><time>2026-04-18T11:14:08.002Z</time></trkpt><trkpt lat="43.359370450961" lon="10.804947763193416"><ele>67.5</ele><time>2026-04-18T11:14:09.002Z</time></trkpt><trkpt lat="43.359389506957704" lon="10.804781047057702"><ele>67.0</ele><time>2026-04-18T11:14:10.002Z</time></trkpt><trkpt lat="43.359415101554205" lon="10.804605800288158"><ele>67.0</ele><time>2026-04-18T11:14:11.002Z</time></trkpt><trkpt lat="43.35943629447389" lon="10.804439051150455"><ele>67.0</ele><time>2026-04-18T11:14:12.002Z</time></trkpt><trkpt lat="43.35945242335651" lon="10.804277478583645"><ele>67.0</ele><time>2026-04-18T11:14:13.002Z</time></trkpt><trkpt lat="43.359468513521314" lon="10.80410831117837"><ele>67.0</ele><time>2026-04-18T11:14:14.002Z</time></trkpt><trkpt lat="43.35947347239206" lon="10.80393990509219"><ele>66.75</ele><time>2026-04-18T11:14:15.002Z</time></trkpt><trkpt lat="43.35947104056376" lon="10.803764558492066"><ele>66.5</ele><time>2026-04-18T11:14:16.002Z</time></trkpt><trkpt lat="43.359452301892276" lon="10.803590879692164"><ele>66.25</ele><time>2026-04-18T11:14:17.002Z</time></trkpt><trkpt lat="43.35942783383181" lon="10.803422233090762"><ele>66.0</ele><time>2026-04-18T11:14:18.002Z</time></trkpt><trkpt lat="43.35939119535188" lon="10.803254733371695"><ele>66.0</ele><time>2026-04-18T11:14:19Z</time></trkpt><trkpt lat="43.3593623363555" lon="10.803086738162202"><ele>66.0</ele><time>2026-04-18T11:14:20Z</time></trkpt><trkpt lat="43.35931510565392" lon="10.802928676895984"><ele>66.0</ele><time>2026-04-18T11:14:21Z</time></trkpt><trkpt lat="43.35926147159946" lon="10.802775911757621"><ele>66.0</ele><time>2026-04-18T11:14:22Z</time></trkpt><trkpt lat="43.35918918532389" lon="10.802626517008719"><ele>65.75</ele><time>2026-04-18T11:14:23Z</time></trkpt><trkpt lat="43.359103135766894" lon="10.80248975254006"><ele>65.5</ele><time>2026-04-18T11:14:24Z</time></trkpt><trkpt lat="43.3590205280551" lon="10.802353907835506"><ele>65.25</ele><time>2026-04-18T11:14:25Z</time></trkpt><trkpt lat="43.358934713653035" lon="10.802218050214162"><ele>65.0</ele><time>2026-04-18T11:14:26Z</time></trkpt><trkpt lat="43.358851369149654" lon="10.802083217660506"><ele>65.0</ele><time>2026-04-18T11:14:27Z</time></trkpt><trkpt lat="43.35876004003" lon="10.801949124611424"><ele>65.0</ele><time>2026-04-18T11:14:28Z</time></trkpt><trkpt lat="43.35867299912536" lon="10.801812019569601"><ele>65.0</ele><time>2026-04-18T11:14:29Z</time></trkpt><trkpt lat="43.35858235455243" lon="10.80165689002669"><ele>65.0</ele><time>2026-04-18T11:14:30Z</time></trkpt><trkpt lat="43.35849783893029" lon="10.801511533428755"><ele>65.5</ele><time>2026-04-18T11:14:31Z</time></trkpt><trkpt lat="43.35842400148743" lon="10.801356468072614"><ele>66.0</ele><time>2026-04-18T11:14:32Z</time></trkpt><trkpt lat="43.358346774824646" lon="10.801205455849363"><ele>66.5</ele><time>2026-04-18T11:14:33Z</time></trkpt><trkpt lat="43.35827729353328" lon="10.801046109102373"><ele>67.0</ele><time>2026-04-18T11:14:34Z</time></trkpt><trkpt lat="43.358218104281" lon="10.80088297536054"><ele>66.25</ele><time>2026-04-18T11:14:35Z</time></trkpt><trkpt lat="43.358153025085116" lon="10.800710814503718"><ele>65.5</ele><time>2026-04-18T11:14:36Z</time></trkpt><trkpt lat="43.35809307743946" lon="10.800541709641207"><ele>64.75</ele><time>2026-04-18T11:14:37Z</time></trkpt><trkpt lat="43.35803578596943" lon="10.800370285730262"><ele>64.0</ele><time>2026-04-18T11:14:38Z</time></trkpt><trkpt lat="43.35798634339605" lon="10.800190821850785"><ele>64.25</ele><time>2026-04-18T11:14:39Z</time></trkpt><trkpt lat="43.35793035470894" lon="10.800011862083595"><ele>64.5</ele><time>2026-04-18T11:14:40Z</time></trkpt><trkpt lat="43.3578675602561" lon="10.799833796752772"><ele>64.75</ele><time>2026-04-18T11:14:41Z</time></trkpt><trkpt lat="43.35780641148278" lon="10.799657940199781"><ele>65.0</ele><time>2026-04-18T11:14:42Z</time></trkpt><trkpt lat="43.35773428687803" lon="10.799492257069748"><ele>65.5</ele><time>2026-04-18T11:14:43Z</time></trkpt><trkpt lat="43.35765668925928" lon="10.799323064452992"><ele>66.0</ele><time>2026-04-18T11:14:44Z</time></trkpt><trkpt lat="43.35756914976718" lon="10.799155257612842"><ele>66.5</ele><time>2026-04-18T11:14:45Z</time></trkpt><trkpt lat="43.35747428250679" lon="10.799005030385587"><ele>67.0</ele><time>2026-04-18T11:14:46Z</time></trkpt><trkpt lat="43.3573745965969" lon="10.798857938244234"><ele>67.0</ele><time>2026-04-18T11:14:47Z</time></trkpt><trkpt lat="43.357277068500025" lon="10.798705501698612"><ele>67.0</ele><time>2026-04-18T11:14:48Z</time></trkpt><trkpt lat="43.357177910125976" lon="10.79855812692817"><ele>67.0</ele><time>2026-04-18T11:14:49Z</time></trkpt><trkpt lat="43.35708247361463" lon="10.798403413601694"><ele>67.0</ele><time>2026-04-18T11:14:50Z</time></trkpt><trkpt lat="43.356988349060266" lon="10.798246602369531"><ele>66.5</ele><time>2026-04-18T11:14:51Z</time></trkpt><trkpt lat="43.35690361210187" lon="10.79809118585072"><ele>66.0</ele><time>2026-04-18T11:14:52Z</time></trkpt><trkpt lat="43.356827893229834" lon="10.79792139360158"><ele>65.5</ele><time>2026-04-18T11:14:53Z</time></trkpt><trkpt lat="43.35676284311165" lon="10.797772461072439"><ele>65.0</ele><time>2026-04-18T11:14:54Z</time></trkpt><trkpt lat="43.35668788608759" lon="10.797597542611571"><ele>66.25</ele><time>2026-04-18T11:14:55Z</time></trkpt><trkpt lat="43.35662538472704" lon="10.797422406041573"><ele>67.5</ele><time>2026-04-18T11:14:56Z</time></trkpt><trkpt lat="43.35657141479876" lon="10.797246560071438"><ele>68.75</ele><time>2026-04-18T11:14:57Z</time></trkpt><trkpt lat="43.35652212810524" lon="10.797067628923019"><ele>70.0</ele><time>2026-04-18T11:14:58Z</time></trkpt><trkpt lat="43.35648025464471" lon="10.796885161881685"><ele>71.0</ele><time>2026-04-18T11:14:59Z</time></trkpt><trkpt lat="43.35644146784733" lon="10.796698627057626"><ele>72.0</ele><time>2026-04-18T11:15:00Z</time></trkpt><trkpt lat="43.35640852715196" lon="10.796505356671098"><ele>73.0</ele><time>2026-04-18T11:15:01Z</time></trkpt><trkpt lat="43.356390100396034" lon="10.796300806550288"><ele>74.0</ele><time>2026-04-18T11:15:02Z</time></trkpt><trkpt lat="43.35636943860585" lon="10.796091587853358"><ele>70.0</ele><time>2026-04-18T11:15:03.001Z</time></trkpt><trkpt lat="43.35636009475549" lon="10.795885484391023"><ele>66.0</ele><time>2026-04-18T11:15:04.001Z</time></trkpt><trkpt lat="43.356356928684114" lon="10.795681572096665"><ele>62.0</ele><time>2026-04-18T11:15:05.001Z</time></trkpt><trkpt lat="43.356354031638936" lon="10.79545703298714"><ele>62.0</ele><time>2026-04-18T11:15:06.001Z</time></trkpt><trkpt lat="43.35636347110459" lon="10.79523155609017"><ele>62.0</ele><time>2026-04-18T11:15:07.001Z</time></trkpt><trkpt lat="43.35638132118962" lon="10.795007595077848"><ele>62.0</ele><time>2026-04-18T11:15:08.001Z</time></trkpt><trkpt lat="43.35640800336709" lon="10.794786069860166"><ele>62.333333333333336</ele><time>2026-04-18T11:15:09.001Z</time></trkpt><trkpt lat="43.35644095166318" lon="10.794566711539217"><ele>62.66666666666667</ele><time>2026-04-18T11:15:10.001Z</time></trkpt><trkpt lat="43.35647982086458" lon="10.794345649100745"><ele>63.0</ele><time>2026-04-18T11:15:11.001Z</time></trkpt><trkpt lat="43.35652172968669" lon="10.794128260111277"><ele>62.33333333333333</ele><time>2026-04-18T11:15:12.001Z</time></trkpt><trkpt lat="43.35656555631746" lon="10.79391577689067"><ele>61.666666666666664</ele><time>2026-04-18T11:15:13.001Z</time></trkpt><trkpt lat="43.356608181551394" lon="10.79371477300308"><ele>61.0</ele><time>2026-04-18T11:15:14.001Z</time></trkpt><trkpt lat="43.35665591624418" lon="10.793487536310048"><ele>60.666666666666664</ele><time>2026-04-18T11:15:15.001Z</time></trkpt><trkpt lat="43.35670032580188" lon="10.793273139458234"><ele>60.33333333333333</ele><time>2026-04-18T11:15:16.001Z</time></trkpt><trkpt lat="43.356750155470486" lon="10.793053282892526"><ele>60.0</ele><time>2026-04-18T11:15:17.001Z</time></trkpt><trkpt lat="43.356799213195174" lon="10.792835930967072"><ele>59.33333333333333</ele><time>2026-04-18T11:15:18.001Z</time></trkpt><trkpt lat="43.35684715395706" lon="10.792627931411845"><ele>58.666666666666664</ele><time>2026-04-18T11:15:19.001Z</time></trkpt><trkpt lat="43.35689575580624" lon="10.792405459393953"><ele>58.0</ele><time>2026-04-18T11:15:20.001Z</time></trkpt><trkpt lat="43.356941319429616" lon="10.792187397237829"><ele>58.0</ele><time>2026-04-18T11:15:21.001Z</time></trkpt><trkpt lat="43.35699204875485" lon="10.791961186831431"><ele>58.0</ele><time>2026-04-18T11:15:22.001Z</time></trkpt><trkpt lat="43.3570372216193" lon="10.791740385101946"><ele>58.0</ele><time>2026-04-18T11:15:23.001Z</time></trkpt><trkpt lat="43.357077439794445" lon="10.791517426920857"><ele>58.33333333333333</ele><time>2026-04-18T11:15:24.001Z</time></trkpt><trkpt lat="43.35711607516071" lon="10.791289971317461"><ele>58.66666666666667</ele><time>2026-04-18T11:15:25.001Z</time></trkpt><trkpt lat="43.357147783738895" lon="10.791073938601322"><ele>59.0</ele><time>2026-04-18T11:15:26.001Z</time></trkpt><trkpt lat="43.35718204122404" lon="10.790835921805147"><ele>59.66666666666667</ele><time>2026-04-18T11:15:27.001Z</time></trkpt><trkpt lat="43.357212584930835" lon="10.790602287109587"><ele>60.33333333333333</ele><time>2026-04-18T11:15:28.001Z</time></trkpt><trkpt lat="43.357230855845074" lon="10.790369901007592"><ele>61.0</ele><time>2026-04-18T11:15:29.001Z</time></trkpt><trkpt lat="43.357255893207274" lon="10.790134417466975"><ele>61.666666666666664</ele><time>2026-04-18T11:15:30.001Z</time></trkpt><trkpt lat="43.35727605881047" lon="10.78989874862133"><ele>62.33333333333333</ele><time>2026-04-18T11:15:31.001Z</time></trkpt><trkpt lat="43.35729261362859" lon="10.789662763407884"><ele>63.0</ele><time>2026-04-18T11:15:32.001Z</time></trkpt><trkpt lat="43.35729824337194" lon="10.789432413527827"><ele>65.0</ele><time>2026-04-18T11:15:33.001Z</time></trkpt><trkpt lat="43.35730506645303" lon="10.789193497962616"><ele>67.0</ele><time>2026-04-18T11:15:34.001Z</time></trkpt><trkpt lat="43.35730599047122" lon="10.788957107348116"><ele>69.0</ele><time>2026-04-18T11:15:35.001Z</time></trkpt><trkpt lat="43.357304561931755" lon="10.7887148054089"><ele>68.0</ele><time>2026-04-18T11:15:36.001Z</time></trkpt><trkpt lat="43.35729744667845" lon="10.788475228710805"><ele>67.0</ele><time>2026-04-18T11:15:37.001Z</time></trkpt><trkpt lat="43.35729306553018" lon="10.788234384100159"><ele>66.0</ele><time>2026-04-18T11:15:38.001Z</time></trkpt><trkpt lat="43.357280567832845" lon="10.787991325823208"><ele>66.0</ele><time>2026-04-18T11:15:39.001Z</time></trkpt><trkpt lat="43.3572639956736" lon="10.787751991314328"><ele>66.0</ele><time>2026-04-18T11:15:40.001Z</time></trkpt><trkpt lat="43.35723973546099" lon="10.787506524586304"><ele>66.0</ele><time>2026-04-18T11:15:41.001Z</time></trkpt><trkpt lat="43.357219437319216" lon="10.787262525914281"><ele>64.0</ele><time>2026-04-18T11:15:42.001Z</time></trkpt><trkpt lat="43.35719361901411" lon="10.787019833457851"><ele>62.0</ele><time>2026-04-18T11:15:43.001Z</time></trkpt><trkpt lat="43.35716303392074" lon="10.786772787031824"><ele>60.0</ele><time>2026-04-18T11:15:44.001Z</time></trkpt><trkpt lat="43.357132869148565" lon="10.786526795318311"><ele>60.0</ele><time>2026-04-18T11:15:45.001Z</time></trkpt><trkpt lat="43.35709606219624" lon="10.786278984662419"><ele>60.0</ele><time>2026-04-18T11:15:46.001Z</time></trkpt><trkpt lat="43.35705609169397" lon="10.786030373667241"><ele>60.0</ele><time>2026-04-18T11:15:47.001Z</time></trkpt><trkpt lat="43.35701933578617" lon="10.785777347916367"><ele>60.0</ele><time>2026-04-18T11:15:48.001Z</time></trkpt><trkpt lat="43.35698317696852" lon="10.785522709974137"><ele>60.0</ele><time>2026-04-18T11:15:49.001Z</time></trkpt><trkpt lat="43.356947722677795" lon="10.785274339989277"><ele>60.0</ele><time>2026-04-18T11:15:50.001Z</time></trkpt><trkpt lat="43.35690896403746" lon="10.78501937430735"><ele>60.0</ele><time>2026-04-18T11:15:51.001Z</time></trkpt><trkpt lat="43.35686958153713" lon="10.784768931187994"><ele>60.0</ele><time>2026-04-18T11:15:52.002Z</time></trkpt><trkpt lat="43.35682741140435" lon="10.78451547577786"><ele>60.0</ele><time>2026-04-18T11:15:53.002Z</time></trkpt><trkpt lat="43.35678250541546" lon="10.784271819457933"><ele>60.0</ele><time>2026-04-18T11:15:54.002Z</time></trkpt><trkpt lat="43.35674122189448" lon="10.784020642517653"><ele>60.0</ele><time>2026-04-18T11:15:55.002Z</time></trkpt><trkpt lat="43.35670337193101" lon="10.783772391832674"><ele>60.0</ele><time>2026-04-18T11:15:56.002Z</time></trkpt><trkpt lat="43.35666417265417" lon="10.783534095367038"><ele>59.66666666666667</ele><time>2026-04-18T11:15:57.002Z</time></trkpt><trkpt lat="43.35662721428939" lon="10.783293238190998"><ele>59.333333333333336</ele><time>2026-04-18T11:15:58.002Z</time></trkpt><trkpt lat="43.35659161310068" lon="10.783051090337723"><ele>59.0</ele><time>2026-04-18T11:15:59.002Z</time></trkpt><trkpt lat="43.35655985560138" lon="10.782809760740882"><ele>58.66666666666667</ele><time>2026-04-18T11:16:00.002Z</time></trkpt><trkpt lat="43.35653483672531" lon="10.782570720831329"><ele>58.33333333333333</ele><time>2026-04-18T11:16:01.002Z</time></trkpt><trkpt lat="43.35651452704614" lon="10.78233090195096"><ele>58.0</ele><time>2026-04-18T11:16:02.002Z</time></trkpt><trkpt lat="43.35650073184827" lon="10.782086981130517"><ele>58.33333333333333</ele><time>2026-04-18T11:16:03.002Z</time></trkpt><trkpt lat="43.3564905104787" lon="10.781843136642864"><ele>58.66666666666667</ele><time>2026-04-18T11:16:04.002Z</time></trkpt><trkpt lat="43.35648024197236" lon="10.781604984681868"><ele>59.0</ele><time>2026-04-18T11:16:05.002Z</time></trkpt><trkpt lat="43.35647375301655" lon="10.78135877554999"><ele>59.0</ele><time>2026-04-18T11:16:06.002Z</time></trkpt><trkpt lat="43.356468110334355" lon="10.781113810513023"><ele>59.0</ele><time>2026-04-18T11:16:07.002Z</time></trkpt><trkpt lat="43.35646242483593" lon="10.780869669468625"><ele>59.0</ele><time>2026-04-18T11:16:08.002Z</time></trkpt><trkpt lat="43.35645346637689" lon="10.780629370189432"><ele>59.333333333333336</ele><time>2026-04-18T11:16:09.002Z</time></trkpt><trkpt lat="43.356450245639266" lon="10.780386826562456"><ele>59.66666666666667</ele><time>2026-04-18T11:16:10.002Z</time></trkpt><trkpt lat="43.35644371628543" lon="10.780144025433827"><ele>60.0</ele><time>2026-04-18T11:16:11.002Z</time></trkpt><trkpt lat="43.356435878709405" lon="10.779903189254272"><ele>60.0</ele><time>2026-04-18T11:16:12.002Z</time></trkpt><trkpt lat="43.356427171389456" lon="10.77966212928492"><ele>60.0</ele><time>2026-04-18T11:16:13.002Z</time></trkpt><trkpt lat="43.35641805302868" lon="10.779425009610744"><ele>60.0</ele><time>2026-04-18T11:16:14.002Z</time></trkpt><trkpt lat="43.35640672733505" lon="10.779189751315617"><ele>59.33333333333333</ele><time>2026-04-18T11:16:15.002Z</time></trkpt><trkpt lat="43.356383343500084" lon="10.77896121750192"><ele>58.666666666666664</ele><time>2026-04-18T11:16:16.002Z</time></trkpt><trkpt lat="43.3563534199503" lon="10.778736506115532"><ele>58.0</ele><time>2026-04-18T11:16:17.002Z</time></trkpt><trkpt lat="43.35631000195527" lon="10.778513990108143"><ele>58.0</ele><time>2026-04-18T11:16:18.002Z</time></trkpt><trkpt lat="43.35625875166059" lon="10.778291665322904"><ele>58.0</ele><time>2026-04-18T11:16:19.002Z</time></trkpt><trkpt lat="43.356195675777386" lon="10.778074825187762"><ele>58.0</ele><time>2026-04-18T11:16:20.002Z</time></trkpt><trkpt lat="43.356120699112026" lon="10.777860439605362"><ele>59.33333333333333</ele><time>2026-04-18T11:16:21.002Z</time></trkpt><trkpt lat="43.35603512840353" lon="10.777656944770392"><ele>60.66666666666667</ele><time>2026-04-18T11:16:22.002Z</time></trkpt><trkpt lat="43.35593575445634" lon="10.777453410631535"><ele>62.0</ele><time>2026-04-18T11:16:23.002Z</time></trkpt><trkpt lat="43.3558281924242" lon="10.777274744623815"><ele>62.0</ele><time>2026-04-18T11:16:24.002Z</time></trkpt><trkpt lat="43.35571022141703" lon="10.77710479123094"><ele>62.0</ele><time>2026-04-18T11:16:25Z</time></trkpt><trkpt lat="43.355582559310555" lon="10.776948312683363"><ele>62.0</ele><time>2026-04-18T11:16:26Z</time></trkpt><trkpt lat="43.35544673582308" lon="10.776805396441855"><ele>61.0</ele><time>2026-04-18T11:16:27Z</time></trkpt><trkpt lat="43.35529911515092" lon="10.776684752059094"><ele>60.0</ele><time>2026-04-18T11:16:28Z</time></trkpt><trkpt lat="43.35514865590265" lon="10.776585016839144"><ele>59.0</ele><time>2026-04-18T11:16:29Z</time></trkpt><trkpt lat="43.354999521456904" lon="10.776489192844634"><ele>59.0</ele><time>2026-04-18T11:16:30Z</time></trkpt><trkpt lat="43.35485341401458" lon="10.776394923343794"><ele>59.0</ele><time>2026-04-18T11:16:31Z</time></trkpt><trkpt lat="43.354708869538044" lon="10.7763041944871"><ele>59.0</ele><time>2026-04-18T11:16:32Z</time></trkpt><trkpt lat="43.354563187043894" lon="10.776213993819296"><ele>59.333333333333336</ele><time>2026-04-18T11:16:33Z</time></trkpt><trkpt lat="43.35441658078436" lon="10.776124062614592"><ele>59.66666666666667</ele><time>2026-04-18T11:16:34Z</time></trkpt><trkpt lat="43.35426794046843" lon="10.776029680741726"><ele>60.0</ele><time>2026-04-18T11:16:35Z</time></trkpt><trkpt lat="43.35412872829242" lon="10.775945968968026"><ele>60.0</ele><time>2026-04-18T11:16:36Z</time></trkpt><trkpt lat="43.35398859198046" lon="10.775851534824003"><ele>60.0</ele><time>2026-04-18T11:16:37Z</time></trkpt><trkpt lat="43.353854476022036" lon="10.775742910934442"><ele>60.0</ele><time>2026-04-18T11:16:38Z</time></trkpt><trkpt lat="43.35373033214136" lon="10.775616363599555"><ele>59.25</ele><time>2026-04-18T11:16:39Z</time></trkpt><trkpt lat="43.35362018436681" lon="10.77547566747434"><ele>58.5</ele><time>2026-04-18T11:16:40Z</time></trkpt><trkpt lat="43.353521816903" lon="10.775327479741025"><ele>57.75</ele><time>2026-04-18T11:16:41Z</time></trkpt><trkpt lat="43.35343287720553" lon="10.775181334820372"><ele>57.0</ele><time>2026-04-18T11:16:42Z</time></trkpt><trkpt lat="43.35334790094027" lon="10.775036079678431"><ele>57.0</ele><time>2026-04-18T11:16:43Z</time></trkpt><trkpt lat="43.353271426556255" lon="10.77489959907133"><ele>57.0</ele><time>2026-04-18T11:16:44Z</time></trkpt><trkpt lat="43.353200376532975" lon="10.774774431058047"><ele>57.0</ele><time>2026-04-18T11:16:45Z</time></trkpt><trkpt lat="43.35312675314472" lon="10.774656713508968"><ele>57.0</ele><time>2026-04-18T11:16:46Z</time></trkpt><trkpt lat="43.35305116055878" lon="10.774539944565458"><ele>57.0</ele><time>2026-04-18T11:16:47Z</time></trkpt><trkpt lat="43.35297779810335" lon="10.77441265193805"><ele>57.0</ele><time>2026-04-18T11:16:48Z</time></trkpt><trkpt lat="43.35289850092405" lon="10.774285858111716"><ele>57.0</ele><time>2026-04-18T11:16:49Z</time></trkpt><trkpt lat="43.35281058042087" lon="10.774131931478303"><ele>57.0</ele><time>2026-04-18T11:16:50Z</time></trkpt><trkpt lat="43.352733471164434" lon="10.77402429670438"><ele>57.0</ele><time>2026-04-18T11:16:51Z</time></trkpt><trkpt lat="43.35265303356599" lon="10.773880013994814"><ele>57.0</ele><time>2026-04-18T11:16:52Z</time></trkpt><trkpt lat="43.35256848615118" lon="10.773741708035752"><ele>57.0</ele><time>2026-04-18T11:16:53Z</time></trkpt><trkpt lat="43.352489162394754" lon="10.77361335728284"><ele>57.0</ele><time>2026-04-18T11:16:54Z</time></trkpt><trkpt lat="43.352410538422035" lon="10.773473311711006"><ele>57.0</ele><time>2026-04-18T11:16:55Z</time></trkpt><trkpt lat="43.3523317439916" lon="10.773333449554443"><ele>57.0</ele><time>2026-04-18T11:16:56Z</time></trkpt><trkpt lat="43.352254171178295" lon="10.773192854311427"><ele>57.0</ele><time>2026-04-18T11:16:57Z</time></trkpt><trkpt lat="43.352178018943476" lon="10.773056417734873"><ele>57.0</ele><time>2026-04-18T11:16:58Z</time></trkpt><trkpt lat="43.35209835612725" lon="10.772915701493389"><ele>56.5</ele><time>2026-04-18T11:16:59Z</time></trkpt><trkpt lat="43.352015406441204" lon="10.77277277654082"><ele>56.0</ele><time>2026-04-18T11:17:00Z</time></trkpt><trkpt lat="43.35193390276414" lon="10.772633737281225"><ele>55.5</ele><time>2026-04-18T11:17:01Z</time></trkpt><trkpt lat="43.35185306940041" lon="10.772493929554896"><ele>55.0</ele><time>2026-04-18T11:17:02.001Z</time></trkpt><trkpt lat="43.35177466990555" lon="10.772353189763551"><ele>55.0</ele><time>2026-04-18T11:17:03.001Z</time></trkpt><trkpt lat="43.351687513767644" lon="10.772212836894955"><ele>55.0</ele><time>2026-04-18T11:17:04.001Z</time></trkpt><trkpt lat="43.35160014050691" lon="10.772064449547692"><ele>55.0</ele><time>2026-04-18T11:17:05.001Z</time></trkpt><trkpt lat="43.35151134439278" lon="10.771916349923265"><ele>55.0</ele><time>2026-04-18T11:17:06.001Z</time></trkpt><trkpt lat="43.35142818900948" lon="10.77177294898396"><ele>54.75</ele><time>2026-04-18T11:17:07.001Z</time></trkpt><trkpt lat="43.35134309080003" lon="10.771624776679989"><ele>54.5</ele><time>2026-04-18T11:17:08.001Z</time></trkpt><trkpt lat="43.35125992646357" lon="10.771476809034521"><ele>54.25</ele><time>2026-04-18T11:17:09.001Z</time></trkpt><trkpt lat="43.35117433689988" lon="10.771326866898017"><ele>54.0</ele><time>2026-04-18T11:17:10.001Z</time></trkpt><trkpt lat="43.351092045022014" lon="10.771177688848773"><ele>54.0</ele><time>2026-04-18T11:17:11.001Z</time></trkpt><trkpt lat="43.351009656802056" lon="10.771031704146857"><ele>54.0</ele><time>2026-04-18T11:17:12.001Z</time></trkpt><trkpt lat="43.350927042196176" lon="10.770887341178415"><ele>54.0</ele><time>2026-04-18T11:17:13.001Z</time></trkpt><trkpt lat="43.350843877813766" lon="10.770743379444509"><ele>54.0</ele><time>2026-04-18T11:17:14.001Z</time></trkpt><trkpt lat="43.350761342938334" lon="10.770599223081385"><ele>54.5</ele><time>2026-04-18T11:17:15.001Z</time></trkpt><trkpt lat="43.35068282660511" lon="10.770446302552697"><ele>55.0</ele><time>2026-04-18T11:17:16.001Z</time></trkpt><trkpt lat="43.35060342027257" lon="10.77029881173165"><ele>55.5</ele><time>2026-04-18T11:17:17.001Z</time></trkpt><trkpt lat="43.350524224220784" lon="10.770141601786783"><ele>56.0</ele><time>2026-04-18T11:17:18.001Z</time></trkpt><trkpt lat="43.35044425373023" lon="10.769977964384776"><ele>56.0</ele><time>2026-04-18T11:17:19.001Z</time></trkpt><trkpt lat="43.35036998955915" lon="10.769813358487031"><ele>56.0</ele><time>2026-04-18T11:17:20.001Z</time></trkpt><trkpt lat="43.350284897415726" lon="10.769653490462034"><ele>56.0</ele><time>2026-04-18T11:17:21.001Z</time></trkpt><trkpt lat="43.35021074951276" lon="10.769498341202292"><ele>56.0</ele><time>2026-04-18T11:17:22.001Z</time></trkpt><trkpt lat="43.35012897367056" lon="10.76934543141354"><ele>56.0</ele><time>2026-04-18T11:17:23.001Z</time></trkpt><trkpt lat="43.35005187594137" lon="10.769189681988903"><ele>56.0</ele><time>2026-04-18T11:17:24.001Z</time></trkpt><trkpt lat="43.349975802993335" lon="10.769038356572606"><ele>56.0</ele><time>2026-04-18T11:17:25.001Z</time></trkpt><trkpt lat="43.34990204620285" lon="10.768887830354512"><ele>56.0</ele><time>2026-04-18T11:17:26.001Z</time></trkpt><trkpt lat="43.34983026924705" lon="10.768733149166374"><ele>56.0</ele><time>2026-04-18T11:17:27.001Z</time></trkpt><trkpt lat="43.34975903021916" lon="10.768572740427786"><ele>56.0</ele><time>2026-04-18T11:17:28.001Z</time></trkpt><trkpt lat="43.34969147610643" lon="10.76840324063907"><ele>56.0</ele><time>2026-04-18T11:17:29.001Z</time></trkpt><trkpt lat="43.34963172562084" lon="10.768224005142422"><ele>56.0</ele><time>2026-04-18T11:17:30.001Z</time></trkpt><trkpt lat="43.34958619290845" lon="10.768034467576875"><ele>55.75</ele><time>2026-04-18T11:17:31.001Z</time></trkpt><trkpt lat="43.34955073557148" lon="10.767838214529862"><ele>55.5</ele><time>2026-04-18T11:17:32.001Z</time></trkpt><trkpt lat="43.349523398066744" lon="10.767640376700587"><ele>55.25</ele><time>2026-04-18T11:17:33.001Z</time></trkpt><trkpt lat="43.34949826565559" lon="10.76744179373015"><ele>55.0</ele><time>2026-04-18T11:17:34.001Z</time></trkpt><trkpt lat="43.34948582751519" lon="10.767244390824539"><ele>55.0</ele><time>2026-04-18T11:17:35.001Z</time></trkpt><trkpt lat="43.34948788950691" lon="10.767054463121813"><ele>55.0</ele><time>2026-04-18T11:17:36.001Z</time></trkpt><trkpt lat="43.34950515016909" lon="10.766878780656699"><ele>55.0</ele><time>2026-04-18T11:17:37.001Z</time></trkpt><trkpt lat="43.349517618892584" lon="10.766706308973516"><ele>55.0</ele><time>2026-04-18T11:17:38.001Z</time></trkpt><trkpt lat="43.34950854589761" lon="10.766533322008831"><ele>55.25</ele><time>2026-04-18T11:17:39.001Z</time></trkpt><trkpt lat="43.349458265249474" lon="10.766364393930672"><ele>55.5</ele><time>2026-04-18T11:17:40.001Z</time></trkpt><trkpt lat="43.34938356052059" lon="10.76620793632391"><ele>55.75</ele><time>2026-04-18T11:17:41.001Z</time></trkpt><trkpt lat="43.349295897737164" lon="10.766063741637128"><ele>56.0</ele><time>2026-04-18T11:17:42.001Z</time></trkpt><trkpt lat="43.349200390127784" lon="10.76592380371277"><ele>56.0</ele><time>2026-04-18T11:17:43.001Z</time></trkpt><trkpt lat="43.34910368881161" lon="10.765787607181213"><ele>56.0</ele><time>2026-04-18T11:17:44.001Z</time></trkpt><trkpt lat="43.349009873483226" lon="10.765646753529667"><ele>56.0</ele><time>2026-04-18T11:17:45.001Z</time></trkpt><trkpt lat="43.34892128577528" lon="10.765502678318887"><ele>56.0</ele><time>2026-04-18T11:17:46.001Z</time></trkpt><trkpt lat="43.348835049284574" lon="10.76535237020454"><ele>56.0</ele><time>2026-04-18T11:17:47.001Z</time></trkpt><trkpt lat="43.348754950716206" lon="10.765202589093647"><ele>56.0</ele><time>2026-04-18T11:17:48.001Z</time></trkpt><trkpt lat="43.34867671715547" lon="10.765050140125517"><ele>56.0</ele><time>2026-04-18T11:17:49.001Z</time></trkpt><trkpt lat="43.348604051977816" lon="10.764893156836798"><ele>56.0</ele><time>2026-04-18T11:17:50.001Z</time></trkpt><trkpt lat="43.34854198775027" lon="10.764731461378123"><ele>57.0</ele><time>2026-04-18T11:17:51.001Z</time></trkpt><trkpt lat="43.34848480155038" lon="10.76456567312065"><ele>58.0</ele><time>2026-04-18T11:17:52.002Z</time></trkpt><trkpt lat="43.34842935724004" lon="10.764393890120035"><ele>59.0</ele><time>2026-04-18T11:17:53.002Z</time></trkpt><trkpt lat="43.34837253226152" lon="10.764217705243402"><ele>60.0</ele><time>2026-04-18T11:17:54.002Z</time></trkpt><trkpt lat="43.34831712285455" lon="10.764036787578657"><ele>61.25</ele><time>2026-04-18T11:17:55.002Z</time></trkpt><trkpt lat="43.34825945321057" lon="10.763853132029729"><ele>62.5</ele><time>2026-04-18T11:17:56.002Z</time></trkpt><trkpt lat="43.34820101043092" lon="10.763666343451131"><ele>63.75</ele><time>2026-04-18T11:17:57.002Z</time></trkpt><trkpt lat="43.34814019689771" lon="10.76347785732377"><ele>65.0</ele><time>2026-04-18T11:17:58.002Z</time></trkpt><trkpt lat="43.34808013885486" lon="10.763286163067423"><ele>63.0</ele><time>2026-04-18T11:17:59.002Z</time></trkpt><trkpt lat="43.348020579303295" lon="10.763090240542759"><ele>61.0</ele><time>2026-04-18T11:18:00.002Z</time></trkpt><trkpt lat="43.34796236797562" lon="10.762894326930633"><ele>59.0</ele><time>2026-04-18T11:18:01.002Z</time></trkpt><trkpt lat="43.34790519778969" lon="10.76269663497839"><ele>58.66666666666667</ele><time>2026-04-18T11:18:02.002Z</time></trkpt><trkpt lat="43.3478506244476" lon="10.762497584207534"><ele>58.33333333333333</ele><time>2026-04-18T11:18:03.002Z</time></trkpt><trkpt lat="43.347803050366956" lon="10.762295052792666"><ele>58.0</ele><time>2026-04-18T11:18:04.002Z</time></trkpt><trkpt lat="43.347762096199574" lon="10.762087333084546"><ele>58.0</ele><time>2026-04-18T11:18:05.002Z</time></trkpt><trkpt lat="43.347726858200716" lon="10.761879559694291"><ele>58.0</ele><time>2026-04-18T11:18:06.002Z</time></trkpt><trkpt lat="43.34769812408019" lon="10.761663568375754"><ele>58.0</ele><time>2026-04-18T11:18:07.002Z</time></trkpt><trkpt lat="43.34767255919234" lon="10.761441740773941"><ele>58.0</ele><time>2026-04-18T11:18:08.002Z</time></trkpt><trkpt lat="43.34764945651209" lon="10.761218591439434"><ele>58.0</ele><time>2026-04-18T11:18:09.002Z</time></trkpt><trkpt lat="43.34762624663478" lon="10.760992170465729"><ele>58.0</ele><time>2026-04-18T11:18:10.002Z</time></trkpt><trkpt lat="43.34760757686228" lon="10.760757772645302"><ele>58.0</ele><time>2026-04-18T11:18:11.002Z</time></trkpt><trkpt lat="43.34757847251911" lon="10.760540213296935"><ele>58.0</ele><time>2026-04-18T11:18:12.002Z</time></trkpt><trkpt lat="43.34754741276507" lon="10.760323980570663"><ele>58.0</ele><time>2026-04-18T11:18:13.002Z</time></trkpt><trkpt lat="43.34751152367787" lon="10.760113173817887"><ele>57.33333333333333</ele><time>2026-04-18T11:18:14.002Z</time></trkpt><trkpt lat="43.34746563042336" lon="10.759902339192356"><ele>56.66666666666667</ele><time>2026-04-18T11:18:15.002Z</time></trkpt><trkpt lat="43.34740709579252" lon="10.75969679134731"><ele>56.0</ele><time>2026-04-18T11:18:16.002Z</time></trkpt><trkpt lat="43.347337980116485" lon="10.75950021965966"><ele>56.333333333333336</ele><time>2026-04-18T11:18:17.002Z</time></trkpt><trkpt lat="43.34726184576269" lon="10.759314782106426"><ele>56.66666666666667</ele><time>2026-04-18T11:18:18.002Z</time></trkpt><trkpt lat="43.34718253714441" lon="10.759132657841295"><ele>57.0</ele><time>2026-04-18T11:18:19.002Z</time></trkpt><trkpt lat="43.34710003169254" lon="10.75895663498993"><ele>57.0</ele><time>2026-04-18T11:18:20.002Z</time></trkpt><trkpt lat="43.34701140994826" lon="10.75878436119795"><ele>57.0</ele><time>2026-04-18T11:18:21.002Z</time></trkpt><trkpt lat="43.34691870249325" lon="10.758612538796221"><ele>57.0</ele><time>2026-04-18T11:18:22.002Z</time></trkpt><trkpt lat="43.3468228390429" lon="10.758438565344287"><ele>58.33333333333333</ele><time>2026-04-18T11:18:23.002Z</time></trkpt><trkpt lat="43.3467257256519" lon="10.758262868412148"><ele>59.666666666666664</ele><time>2026-04-18T11:18:24.002Z</time></trkpt><trkpt lat="43.34662859021429" lon="10.758083776499456"><ele>61.0</ele><time>2026-04-18T11:18:25.002Z</time></trkpt><trkpt lat="43.346527800029165" lon="10.757898077780775"><ele>61.0</ele><time>2026-04-18T11:18:26.002Z</time></trkpt><trkpt lat="43.34642515371103" lon="10.757710161031023"><ele>61.0</ele><time>2026-04-18T11:18:27.002Z</time></trkpt><trkpt lat="43.346324613881386" lon="10.757520630676531"><ele>61.0</ele><time>2026-04-18T11:18:28.002Z</time></trkpt><trkpt lat="43.34622407735782" lon="10.757334873899941"><ele>60.0</ele><time>2026-04-18T11:18:29.002Z</time></trkpt><trkpt lat="43.346122173760584" lon="10.757161466549562"><ele>59.0</ele><time>2026-04-18T11:18:30.002Z</time></trkpt><trkpt lat="43.34602665848537" lon="10.757004574749496"><ele>58.0</ele><time>2026-04-18T11:18:31Z</time></trkpt><trkpt lat="43.34594031942244" lon="10.7568632993774"><ele>57.0</ele><time>2026-04-18T11:18:32Z</time></trkpt><trkpt lat="43.34586115589923" lon="10.756735511393131"><ele>57.0</ele><time>2026-04-18T11:18:33Z</time></trkpt><trkpt lat="43.3457915602742" lon="10.756616310165457"><ele>57.0</ele><time>2026-04-18T11:18:34Z</time></trkpt><trkpt lat="43.34574160174131" lon="10.756525496625695"><ele>57.0</ele><time>2026-04-18T11:18:35Z</time></trkpt><trkpt lat="43.345690071491475" lon="10.756468207672954"><ele>57.0</ele><time>2026-04-18T11:18:36Z</time></trkpt><trkpt lat="43.34563966959713" lon="10.756413167057106"><ele>57.0</ele><time>2026-04-18T11:19:53.001Z</time></trkpt><trkpt lat="43.34558737536523" lon="10.756364714372753"><ele>57.0</ele><time>2026-04-18T11:19:55.001Z</time></trkpt><trkpt lat="43.345526887878044" lon="10.756310136837488"><ele>56.833333333333336</ele><time>2026-04-18T11:19:57.001Z</time></trkpt><trkpt lat="43.34542920677268" lon="10.756207396523685"><ele>56.66666666666667</ele><time>2026-04-18T11:19:59.001Z</time></trkpt><trkpt lat="43.345377241945044" lon="10.756134703447547"><ele>56.5</ele><time>2026-04-18T11:20:00.001Z</time></trkpt><trkpt lat="43.34531776637884" lon="10.756059587741902"><ele>56.333333333333336</ele><time>2026-04-18T11:20:01.001Z</time></trkpt><trkpt lat="43.34525884043678" lon="10.755982593368566"><ele>56.16666666666667</ele><time>2026-04-18T11:20:02.001Z</time></trkpt><trkpt lat="43.345208865795215" lon="10.755899080758997"><ele>56.0</ele><time>2026-04-18T11:20:03.001Z</time></trkpt><trkpt lat="43.34518492579644" lon="10.755802907245865"><ele>56.0</ele><time>2026-04-18T11:20:04.002Z</time></trkpt><trkpt lat="43.345198929254465" lon="10.755704584231895"><ele>56.0</ele><time>2026-04-18T11:20:05.002Z</time></trkpt><trkpt lat="43.34523307773365" lon="10.755617472530588"><ele>56.0</ele><time>2026-04-18T11:20:06.002Z</time></trkpt><trkpt lat="43.3452648605191" lon="10.755526265379888"><ele>56.0</ele><time>2026-04-18T11:20:07.002Z</time></trkpt><trkpt lat="43.345282318246255" lon="10.75543073504103"><ele>56.0</ele><time>2026-04-18T11:20:08.002Z</time></trkpt><trkpt lat="43.34527293184802" lon="10.755329781427324"><ele>56.0</ele><time>2026-04-18T11:20:09.002Z</time></trkpt><trkpt lat="43.34524054680314" lon="10.755230832638828"><ele>56.0</ele><time>2026-04-18T11:20:10.002Z</time></trkpt><trkpt lat="43.34518106784198" lon="10.75516626958875"><ele>56.00000000000001</ele><time>2026-04-18T11:20:11.002Z</time></trkpt><trkpt lat="43.34510780212324" lon="10.755153348220691"><ele>56.0</ele><time>2026-04-18T11:20:12.002Z</time></trkpt><trkpt lat="43.34503402651323" lon="10.755131527379666"><ele>56.0</ele><time>2026-04-18T11:20:13.002Z</time></trkpt><trkpt lat="43.34497686413224" lon="10.755013102830066"><ele>56.0</ele><time>2026-04-18T11:20:14.002Z</time></trkpt><trkpt lat="43.344927413378386" lon="10.7549208493691"><ele>56.00000000000001</ele><time>2026-04-18T11:20:15.002Z</time></trkpt><trkpt lat="43.344892639566616" lon="10.754807106249933"><ele>56.0</ele><time>2026-04-18T11:20:16.002Z</time></trkpt><trkpt lat="43.34485739607584" lon="10.754682456792148"><ele>56.0</ele><time>2026-04-18T11:20:17.002Z</time></trkpt><trkpt lat="43.34483231927937" lon="10.754562553450357"><ele>55.99999999999999</ele><time>2026-04-18T11:20:18.002Z</time></trkpt><trkpt lat="43.34480168034399" lon="10.754434325267964"><ele>55.99999999999999</ele><time>2026-04-18T11:20:19.002Z</time></trkpt><trkpt lat="43.34476779975848" lon="10.75430159824856"><ele>56.0</ele><time>2026-04-18T11:20:20.002Z</time></trkpt><trkpt lat="43.3447336419358" lon="10.754160861036766"><ele>56.0</ele><time>2026-04-18T11:20:21.002Z</time></trkpt><trkpt lat="43.34468986134606" lon="10.754033704626202"><ele>55.833333333333336</ele><time>2026-04-18T11:20:22.002Z</time></trkpt><trkpt lat="43.34464483819004" lon="10.753908328714537"><ele>55.66666666666667</ele><time>2026-04-18T11:20:23.002Z</time></trkpt><trkpt lat="43.34459962608426" lon="10.753801764345278"><ele>55.5</ele><time>2026-04-18T11:20:24.002Z</time></trkpt><trkpt lat="43.34455576283277" lon="10.753711251015563"><ele>55.33333333333333</ele><time>2026-04-18T11:20:25.002Z</time></trkpt><trkpt lat="43.344501742586104" lon="10.753627526416121"><ele>55.166666666666664</ele><time>2026-04-18T11:20:26.002Z</time></trkpt><trkpt lat="43.34444612172927" lon="10.753532251123051"><ele>55.0</ele><time>2026-04-18T11:20:27.002Z</time></trkpt><trkpt lat="43.34439376342327" lon="10.753448035894658"><ele>55.4</ele><time>2026-04-18T11:20:28.002Z</time></trkpt><trkpt lat="43.344342972574076" lon="10.753372861580704"><ele>55.8</ele><time>2026-04-18T11:20:29.002Z</time></trkpt><trkpt lat="43.344306954285344" lon="10.753298590439721"><ele>56.2</ele><time>2026-04-18T11:20:30.002Z</time></trkpt><trkpt lat="43.34423283035834" lon="10.753177806573053"><ele>56.6</ele><time>2026-04-18T11:20:32.002Z</time></trkpt><trkpt lat="43.34415731999633" lon="10.753061268983204"><ele>57.0</ele><time>2026-04-18T11:20:34.002Z</time></trkpt><trkpt lat="43.344100649247316" lon="10.752966120365476"><ele>57.0</ele><time>2026-04-18T11:20:36.002Z</time></trkpt><trkpt lat="43.3440538714985" lon="10.752896613140722"><ele>57.0</ele><time>2026-04-18T11:20:38Z</time></trkpt><trkpt lat="43.34398077131264" lon="10.752809259876068"><ele>57.0</ele><time>2026-04-18T11:20:42Z</time></trkpt><trkpt lat="43.343927550537735" lon="10.75273784219351"><ele>57.0</ele><time>2026-04-18T11:20:43Z</time></trkpt><trkpt lat="43.343867935136316" lon="10.752653794255309"><ele>57.0</ele><time>2026-04-18T11:20:44Z</time></trkpt><trkpt lat="43.34378939943974" lon="10.752555022262673"><ele>57.0</ele><time>2026-04-18T11:20:45Z</time></trkpt><trkpt lat="43.34371708531845" lon="10.752443851183573"><ele>56.8</ele><time>2026-04-18T11:20:46Z</time></trkpt><trkpt lat="43.343632896656494" lon="10.752322687963682"><ele>56.6</ele><time>2026-04-18T11:20:47Z</time></trkpt><trkpt lat="43.34354750235204" lon="10.752202245577722"><ele>56.39999999999999</ele><time>2026-04-18T11:20:48Z</time></trkpt><trkpt lat="43.343478303797994" lon="10.75210328608383"><ele>56.199999999999996</ele><time>2026-04-18T11:20:49Z</time></trkpt><trkpt lat="43.34342896710714" lon="10.752028685848238"><ele>56.0</ele><time>2026-04-18T11:20:50Z</time></trkpt><trkpt lat="43.343386753799905" lon="10.751950647890517"><ele>56.00000000000001</ele><time>2026-04-18T11:20:52Z</time></trkpt><trkpt lat="43.34344293709538" lon="10.752068900774642"><ele>56.0</ele><time>2026-04-18T11:21:03Z</time></trkpt><trkpt lat="43.34349121753004" lon="10.752008834416714"><ele>56.0</ele><time>2026-04-18T11:21:04Z</time></trkpt><trkpt lat="43.343555311963215" lon="10.752029359023819"><ele>56.0</ele><time>2026-04-18T11:21:05Z</time></trkpt><trkpt lat="43.34362804264196" lon="10.752049448068947"><ele>56.00000000000001</ele><time>2026-04-18T11:21:06Z</time></trkpt><trkpt lat="43.34372780241943" lon="10.752079724364789"><ele>56.0</ele><time>2026-04-18T11:21:07Z</time></trkpt><trkpt lat="43.34374118498695" lon="10.752539351509371"><ele>56.0</ele><time>2026-04-18T11:21:08Z</time></trkpt><trkpt lat="43.343829555983774" lon="10.752669213480255"><ele>56.0</ele><time>2026-04-18T11:21:09Z</time></trkpt><trkpt lat="43.34392191368211" lon="10.752803628796816"><ele>56.0</ele><time>2026-04-18T11:21:10Z</time></trkpt><trkpt lat="43.344010554795986" lon="10.752932016268678"><ele>56.0</ele><time>2026-04-18T11:21:11Z</time></trkpt><trkpt lat="43.34410255337541" lon="10.753052890188865"><ele>56.199999999999996</ele><time>2026-04-18T11:21:12.001Z</time></trkpt><trkpt lat="43.344188512896594" lon="10.753175882881061"><ele>56.39999999999999</ele><time>2026-04-18T11:21:13.001Z</time></trkpt><trkpt lat="43.34426322323941" lon="10.753295002943286"><ele>56.6</ele><time>2026-04-18T11:21:14.001Z</time></trkpt><trkpt lat="43.34432915310508" lon="10.753399866161464"><ele>56.8</ele><time>2026-04-18T11:21:15.001Z</time></trkpt><trkpt lat="43.34438045465299" lon="10.75347428987082"><ele>57.0</ele><time>2026-04-18T11:21:16.001Z</time></trkpt><trkpt lat="43.34444164000333" lon="10.753555271350033"><ele>57.0</ele><time>2026-04-18T11:21:18.001Z</time></trkpt><trkpt lat="43.344519376096635" lon="10.753549736903121"><ele>56.99999999999999</ele><time>2026-04-18T11:21:20.001Z</time></trkpt><trkpt lat="43.344540046742225" lon="10.75344878780314"><ele>57.0</ele><time>2026-04-18T11:21:23.001Z</time></trkpt><trkpt lat="43.34449750591273" lon="10.753377527729098"><ele>57.0</ele><time>2026-04-18T11:21:27.001Z</time></trkpt><trkpt lat="43.34445580220654" lon="10.753296982912152"><ele>56.99999999999999</ele><time>2026-04-18T11:21:30.001Z</time></trkpt><trkpt lat="43.34442470305333" lon="10.753216779104934"><ele>57.0</ele><time>2026-04-18T11:21:33.001Z</time></trkpt><trkpt lat="43.344369730517506" lon="10.753133492464475"><ele>57.0</ele><time>2026-04-18T11:21:36.001Z</time></trkpt><trkpt lat="43.344317718093926" lon="10.753046637068147"><ele>57.0</ele><time>2026-04-18T11:21:39.001Z</time></trkpt><trkpt lat="43.344283257507335" lon="10.75296803300557"><ele>57.0</ele><time>2026-04-18T11:21:42.001Z</time></trkpt><trkpt lat="43.344330147105" lon="10.752868908159337"><ele>57.0</ele><time>2026-04-18T11:21:45.001Z</time></trkpt><trkpt lat="43.34430091000273" lon="10.752757847939407"><ele>57.0</ele><time>2026-04-18T11:21:49.001Z</time></trkpt><trkpt lat="43.344216858483655" lon="10.752726774193128"><ele>57.0</ele><time>2026-04-18T11:21:52.001Z</time></trkpt><trkpt lat="43.344153728107365" lon="10.752736621617897"><ele>57.0</ele><time>2026-04-18T11:21:59.002Z</time></trkpt><trkpt lat="43.34419375379654" lon="10.752666384715997"><ele>57.0</ele><time>2026-04-18T11:22:51Z</time></trkpt><trkpt lat="43.34413865336944" lon="10.75272714137385"><ele>56.99999999999999</ele><time>2026-04-18T11:23:27.001Z</time></trkpt><trkpt lat="43.34418968898835" lon="10.752672669421052"><ele>57.0</ele><time>2026-04-18T11:23:51.001Z</time></trkpt><trkpt lat="43.34418898630329" lon="10.75277223315379"><ele>57.0</ele><time>2026-04-18T11:24:01.001Z</time></trkpt><trkpt lat="43.34417485293848" lon="10.752861970961334"><ele>56.99999999999999</ele><time>2026-04-18T11:24:15.002Z</time></trkpt><trkpt lat="43.34421698749987" lon="10.752937888081322"><ele>57.0</ele><time>2026-04-18T11:24:25.002Z</time></trkpt><trkpt lat="43.34426213780724" lon="10.753001363246671"><ele>57.0</ele><time>2026-04-18T11:24:33.002Z</time></trkpt><trkpt lat="43.344286283121974" lon="10.753088978131297"><ele>57.0</ele><time>2026-04-18T11:24:42.002Z</time></trkpt><trkpt lat="43.34434250998169" lon="10.753132681379084"><ele>56.99999999999999</ele><time>2026-04-18T11:24:50.002Z</time></trkpt><trkpt lat="43.344352316396055" lon="10.753233782161313"><ele>57.0</ele><time>2026-04-18T11:25:33.001Z</time></trkpt><trkpt lat="43.34442867055535" lon="10.753242143204186"><ele>57.0</ele><time>2026-04-18T11:26:13.002Z</time></trkpt><trkpt lat="43.34449007400936" lon="10.753305087008075"><ele>56.99999999999999</ele><time>2026-04-18T11:26:18.002Z</time></trkpt><trkpt lat="43.3445326451677" lon="10.75338478684804"><ele>57.0</ele><time>2026-04-18T11:26:25.002Z</time></trkpt><trkpt lat="43.344572838375036" lon="10.75345574489861"><ele>57.0</ele><time>2026-04-18T11:26:34.002Z</time></trkpt><trkpt lat="43.344615215364094" lon="10.753520459196855"><ele>57.0</ele><time>2026-04-18T11:26:44.003Z</time></trkpt><trkpt lat="43.34469092710888" lon="10.753535662177592"><ele>57.0</ele><time>2026-04-18T11:28:03.002Z</time></trkpt><trkpt lat="43.34462139334133" lon="10.753511620042271"><ele>57.0</ele><time>2026-04-18T11:35:00Z</time></trkpt><trkpt lat="43.344598873591266" lon="10.753620695575952"><ele>57.0</ele><time>2026-04-18T11:36:21Z</time></trkpt><trkpt lat="43.34470182845734" lon="10.753702777277926"><ele>57.0</ele><time>2026-04-18T11:41:53Z</time></trkpt><trkpt lat="43.344637119856415" lon="10.753635301748783"><ele>57.0</ele><time>2026-04-18T11:44:17Z</time></trkpt><trkpt lat="43.344648467716986" lon="10.753541888590853"><ele>57.0</ele><time>2026-04-18T11:54:31Z</time></trkpt><trkpt lat="43.34456152888489" lon="10.75354515261595"><ele>57.0</ele><time>2026-04-18T11:54:44Z</time></trkpt><trkpt lat="43.344639485213726" lon="10.753569963697165"><ele>57.0</ele><time>2026-04-18T11:55:02Z</time></trkpt><trkpt lat="43.34455386686188" lon="10.75341694738007"><ele>57.0</ele><time>2026-04-18T11:55:26Z</time></trkpt><trkpt lat="43.344620063022404" lon="10.753445019366547"><ele>57.0</ele><time>2026-04-18T11:57:12Z</time></trkpt><trkpt lat="43.34466131230289" lon="10.753517505225505"><ele>57.0</ele><time>2026-04-18T11:58:55Z</time></trkpt><trkpt lat="43.344583082710045" lon="10.753445720205283"><ele>57.0</ele><time>2026-04-18T12:04:58Z</time></trkpt><trkpt lat="43.344552431152465" lon="10.753365815912723"><ele>57.0</ele><time>2026-04-18T12:07:21Z</time></trkpt><trkpt lat="43.3446185269372" lon="10.75348174115446"><ele>57.0</ele><time>2026-04-18T12:08:11Z</time></trkpt><trkpt lat="43.34456657555628" lon="10.753555813201626"><ele>57.0</ele><time>2026-04-18T12:41:18Z</time></trkpt><trkpt lat="43.34466431548487" lon="10.75349656923118"><ele>57.0</ele><time>2026-04-18T12:50:18.999Z</time></trkpt><trkpt lat="43.34459841220161" lon="10.753567170553046"><ele>57.0</ele><time>2026-04-18T12:51:29Z</time></trkpt><trkpt lat="43.34461316602764" lon="10.753458286673023"><ele>57.0</ele><time>2026-04-18T12:57:55.999Z</time></trkpt><trkpt lat="43.34455451841644" lon="10.753396393254963"><ele>56.99999999999999</ele><time>2026-04-18T12:58:07.999Z</time></trkpt><trkpt lat="43.344489861884796" lon="10.753348508558505"><ele>57.0</ele><time>2026-04-18T12:58:12.999Z</time></trkpt><trkpt lat="43.34443588421635" lon="10.75329120988803"><ele>57.0</ele><time>2026-04-18T12:58:17.999Z</time></trkpt><trkpt lat="43.34440455771627" lon="10.753210960252694"><ele>56.99999999999999</ele><time>2026-04-18T12:58:34.999Z</time></trkpt><trkpt lat="43.34435669355168" lon="10.753129442617096"><ele>57.0</ele><time>2026-04-18T12:58:40.999Z</time></trkpt><trkpt lat="43.3442987783167" lon="10.753034192803348"><ele>57.0</ele><time>2026-04-18T12:58:45.999Z</time></trkpt><trkpt lat="43.344263446480284" lon="10.752961601045024"><ele>57.0</ele><time>2026-04-18T12:58:51.999Z</time></trkpt><trkpt lat="43.34424304228083" lon="10.752873405541358"><ele>56.99999999999999</ele><time>2026-04-18T12:58:57.999Z</time></trkpt><trkpt lat="43.34422578545166" lon="10.752777573016251"><ele>57.0</ele><time>2026-04-18T12:59:05.999Z</time></trkpt><trkpt lat="43.344219167963665" lon="10.752683008522546"><ele>57.0</ele><time>2026-04-18T12:59:13.999Z</time></trkpt><trkpt lat="43.344171274741925" lon="10.752763941077548"><ele>56.99999999999999</ele><time>2026-04-18T13:02:03Z</time></trkpt><trkpt lat="43.3441772711531" lon="10.752873227081691"><ele>57.0</ele><time>2026-04-18T13:02:07Z</time></trkpt><trkpt lat="43.34423477041918" lon="10.752947854899219"><ele>57.0</ele><time>2026-04-18T13:03:00.999Z</time></trkpt><trkpt lat="43.344290203802814" lon="10.753028083997801"><ele>57.0</ele><time>2026-04-18T13:03:03.999Z</time></trkpt><trkpt lat="43.34435441278645" lon="10.753094377110807"><ele>57.0</ele><time>2026-04-18T13:03:05.999Z</time></trkpt><trkpt lat="43.344409578499906" lon="10.753223748038767"><ele>57.0</ele><time>2026-04-18T13:03:08.999Z</time></trkpt><trkpt lat="43.34446165041262" lon="10.753322435747716"><ele>57.0</ele><time>2026-04-18T13:03:10.999Z</time></trkpt><trkpt lat="43.344510621398456" lon="10.753410340359727"><ele>57.0</ele><time>2026-04-18T13:03:12.999Z</time></trkpt><trkpt lat="43.344541423911224" lon="10.753512307660483"><ele>57.0</ele><time>2026-04-18T13:03:15.999Z</time></trkpt><trkpt lat="43.34448886313064" lon="10.753580422560516"><ele>57.0</ele><time>2026-04-18T13:03:18.999Z</time></trkpt><trkpt lat="43.34442449712538" lon="10.753529266076633"><ele>57.0</ele><time>2026-04-18T13:03:20.999Z</time></trkpt><trkpt lat="43.34434369964135" lon="10.753400562557522"><ele>57.0</ele><time>2026-04-18T13:03:22.999Z</time></trkpt><trkpt lat="43.34429860174037" lon="10.753327394954752"><ele>57.0</ele><time>2026-04-18T13:03:23.999Z</time></trkpt><trkpt lat="43.34424306352149" lon="10.753246828877423"><ele>57.0</ele><time>2026-04-18T13:03:24.999Z</time></trkpt><trkpt lat="43.344185981569424" lon="10.753163235573401"><ele>57.0</ele><time>2026-04-18T13:03:25.999Z</time></trkpt><trkpt lat="43.34412478735368" lon="10.753068916236135"><ele>57.0</ele><time>2026-04-18T13:03:26.999Z</time></trkpt><trkpt lat="43.34407020959636" lon="10.752977634663091"><ele>57.0</ele><time>2026-04-18T13:03:27.999Z</time></trkpt><trkpt lat="43.34399904243063" lon="10.752882298848393"><ele>57.0</ele><time>2026-04-18T13:03:28.999Z</time></trkpt><trkpt lat="43.34392966512885" lon="10.752784018681659"><ele>57.0</ele><time>2026-04-18T13:03:29.999Z</time></trkpt><trkpt lat="43.34385258093801" lon="10.752673667003606"><ele>57.0</ele><time>2026-04-18T13:03:30.999Z</time></trkpt><trkpt lat="43.343778604940525" lon="10.752560919628058"><ele>56.75</ele><time>2026-04-18T13:03:31.999Z</time></trkpt><trkpt lat="43.34369757720953" lon="10.752442479799884"><ele>56.5</ele><time>2026-04-18T13:03:32.999Z</time></trkpt><trkpt lat="43.34361565733837" lon="10.75232305912566"><ele>56.25</ele><time>2026-04-18T13:03:33.999Z</time></trkpt><trkpt lat="43.3435295802079" lon="10.752198823240017"><ele>56.0</ele><time>2026-04-18T13:03:34.999Z</time></trkpt><trkpt lat="43.34343763920602" lon="10.752071928524945"><ele>56.0</ele><time>2026-04-18T13:03:35.999Z</time></trkpt><trkpt lat="43.343348018965564" lon="10.751942725544872"><ele>56.0</ele><time>2026-04-18T13:03:36.999Z</time></trkpt><trkpt lat="43.34326029122664" lon="10.751814715408589"><ele>56.0</ele><time>2026-04-18T13:03:37.999Z</time></trkpt><trkpt lat="43.34316889121777" lon="10.751684545634975"><ele>56.0</ele><time>2026-04-18T13:03:38.999Z</time></trkpt><trkpt lat="43.343079049421924" lon="10.751555084570331"><ele>56.0</ele><time>2026-04-18T13:03:39.999Z</time></trkpt><trkpt lat="43.342990239817006" lon="10.751425655603752"><ele>56.0</ele><time>2026-04-18T13:03:40.999Z</time></trkpt><trkpt lat="43.34290123416265" lon="10.751296492555209"><ele>56.0</ele><time>2026-04-18T13:03:41.999Z</time></trkpt><trkpt lat="43.34281117714517" lon="10.751162202314985"><ele>56.0</ele><time>2026-04-18T13:03:42.999Z</time></trkpt><trkpt lat="43.34271967926146" lon="10.751028425011334"><ele>56.0</ele><time>2026-04-18T13:03:43.999Z</time></trkpt><trkpt lat="43.34262793447989" lon="10.750898861772905"><ele>56.0</ele><time>2026-04-18T13:03:44.999Z</time></trkpt><trkpt lat="43.34253890850293" lon="10.750761315250893"><ele>56.0</ele><time>2026-04-18T13:03:45.999Z</time></trkpt><trkpt lat="43.34244320819538" lon="10.75062648851957"><ele>56.0</ele><time>2026-04-18T13:03:46.999Z</time></trkpt><trkpt lat="43.34234800935411" lon="10.750489072534869"><ele>56.0</ele><time>2026-04-18T13:03:47.999Z</time></trkpt><trkpt lat="43.342251781352275" lon="10.75035136712629"><ele>56.0</ele><time>2026-04-18T13:03:48.999Z</time></trkpt><trkpt lat="43.342155161910675" lon="10.750210670087549"><ele>56.0</ele><time>2026-04-18T13:03:50Z</time></trkpt><trkpt lat="43.34205850700266" lon="10.75006887928807"><ele>56.0</ele><time>2026-04-18T13:03:51Z</time></trkpt><trkpt lat="43.341961512846574" lon="10.749925975621974"><ele>55.75</ele><time>2026-04-18T13:03:52Z</time></trkpt><trkpt lat="43.34186193742158" lon="10.749780742960523"><ele>55.5</ele><time>2026-04-18T13:03:53Z</time></trkpt><trkpt lat="43.34176246188444" lon="10.749648765716044"><ele>55.25</ele><time>2026-04-18T13:03:54Z</time></trkpt><trkpt lat="43.34166192942575" lon="10.749499889767636"><ele>55.0</ele><time>2026-04-18T13:03:55Z</time></trkpt><trkpt lat="43.34156082912768" lon="10.74935770309654"><ele>54.75</ele><time>2026-04-18T13:03:56Z</time></trkpt><trkpt lat="43.341453525078016" lon="10.749233280800139"><ele>54.5</ele><time>2026-04-18T13:03:57Z</time></trkpt><trkpt lat="43.341339622834056" lon="10.74911338075344"><ele>54.25</ele><time>2026-04-18T13:03:58Z</time></trkpt><trkpt lat="43.341217160062996" lon="10.7490038439166"><ele>54.0</ele><time>2026-04-18T13:03:59Z</time></trkpt><trkpt lat="43.34108993313818" lon="10.748897586627413"><ele>54.0</ele><time>2026-04-18T13:04:00Z</time></trkpt><trkpt lat="43.34095728714693" lon="10.748792188875404"><ele>54.0</ele><time>2026-04-18T13:04:01Z</time></trkpt><trkpt lat="43.34082388969987" lon="10.748684762522723"><ele>54.0</ele><time>2026-04-18T13:04:02Z</time></trkpt><trkpt lat="43.34068728586088" lon="10.748581508771013"><ele>54.33333333333333</ele><time>2026-04-18T13:04:03Z</time></trkpt><trkpt lat="43.34054254587748" lon="10.748485897842503"><ele>54.666666666666664</ele><time>2026-04-18T13:04:04Z</time></trkpt><trkpt lat="43.34039690097728" lon="10.748399952755271"><ele>55.0</ele><time>2026-04-18T13:04:05Z</time></trkpt><trkpt lat="43.34024789647743" lon="10.748320900615216"><ele>55.0</ele><time>2026-04-18T13:04:05.999Z</time></trkpt><trkpt lat="43.340097441623755" lon="10.748242769053128"><ele>55.0</ele><time>2026-04-18T13:04:06.999Z</time></trkpt><trkpt lat="43.33994449768648" lon="10.748169431570863"><ele>55.0</ele><time>2026-04-18T13:04:07.999Z</time></trkpt><trkpt lat="43.339790155297514" lon="10.748100442374426"><ele>55.0</ele><time>2026-04-18T13:04:08.999Z</time></trkpt><trkpt lat="43.339634495696814" lon="10.748037273588231"><ele>55.0</ele><time>2026-04-18T13:04:09.999Z</time></trkpt><trkpt lat="43.33947726391365" lon="10.747973835154966"><ele>55.0</ele><time>2026-04-18T13:04:10.999Z</time></trkpt><trkpt lat="43.33933233960057" lon="10.747913409415084"><ele>55.0</ele><time>2026-04-18T13:04:11.999Z</time></trkpt><trkpt lat="43.33917532891353" lon="10.74784748517005"><ele>55.0</ele><time>2026-04-18T13:04:12.999Z</time></trkpt><trkpt lat="43.33901706300283" lon="10.747802843351954"><ele>55.0</ele><time>2026-04-18T13:04:13.999Z</time></trkpt><trkpt lat="43.33885316083794" lon="10.747790610830547"><ele>54.0</ele><time>2026-04-18T13:04:14.999Z</time></trkpt><trkpt lat="43.33868909593349" lon="10.74779047731584"><ele>53.0</ele><time>2026-04-18T13:04:15.999Z</time></trkpt><trkpt lat="43.338539791411996" lon="10.747780105072954"><ele>52.0</ele><time>2026-04-18T13:04:16.999Z</time></trkpt><trkpt lat="43.338374979884115" lon="10.747788619615282"><ele>52.0</ele><time>2026-04-18T13:04:17.999Z</time></trkpt><trkpt lat="43.33822113739047" lon="10.747805397806578"><ele>52.0</ele><time>2026-04-18T13:04:18.999Z</time></trkpt><trkpt lat="43.338064632292706" lon="10.747815480440488"><ele>52.0</ele><time>2026-04-18T13:04:19.999Z</time></trkpt><trkpt lat="43.33791056594204" lon="10.747828316436529"><ele>52.33333333333333</ele><time>2026-04-18T13:04:20.999Z</time></trkpt><trkpt lat="43.33776189218237" lon="10.747823859729683"><ele>52.66666666666667</ele><time>2026-04-18T13:04:21.999Z</time></trkpt><trkpt lat="43.337609595777224" lon="10.747799374780163"><ele>53.0</ele><time>2026-04-18T13:04:22.999Z</time></trkpt><trkpt lat="43.337466605772164" lon="10.747740559325468"><ele>53.75</ele><time>2026-04-18T13:04:23.999Z</time></trkpt><trkpt lat="43.337328190854265" lon="10.747677630802785"><ele>54.5</ele><time>2026-04-18T13:04:24.999Z</time></trkpt><trkpt lat="43.337200951112116" lon="10.747588144285709"><ele>55.25</ele><time>2026-04-18T13:04:25.999Z</time></trkpt><trkpt lat="43.337085332098006" lon="10.747470803427332"><ele>56.0</ele><time>2026-04-18T13:04:26.999Z</time></trkpt><trkpt lat="43.33697475323475" lon="10.747344910508026"><ele>56.0</ele><time>2026-04-18T13:04:27.999Z</time></trkpt><trkpt lat="43.33686594380956" lon="10.747207399368286"><ele>56.0</ele><time>2026-04-18T13:04:28.999Z</time></trkpt><trkpt lat="43.336757612836564" lon="10.747069313729499"><ele>56.0</ele><time>2026-04-18T13:04:29.999Z</time></trkpt><trkpt lat="43.336644344948695" lon="10.746929934428794"><ele>56.0</ele><time>2026-04-18T13:04:30.999Z</time></trkpt><trkpt lat="43.33653204843791" lon="10.746790536736928"><ele>55.333333333333336</ele><time>2026-04-18T13:04:31.999Z</time></trkpt><trkpt lat="43.336430413434556" lon="10.746641941806018"><ele>54.66666666666667</ele><time>2026-04-18T13:04:32.999Z</time></trkpt><trkpt lat="43.336337845630226" lon="10.746476205050655"><ele>54.0</ele><time>2026-04-18T13:04:33.999Z</time></trkpt><trkpt lat="43.33626060471911" lon="10.746294800304577"><ele>54.0</ele><time>2026-04-18T13:04:34.999Z</time></trkpt><trkpt lat="43.33620101651324" lon="10.746100899641435"><ele>54.0</ele><time>2026-04-18T13:04:35.999Z</time></trkpt><trkpt lat="43.3361476066168" lon="10.74590827323126"><ele>54.0</ele><time>2026-04-18T13:04:36.999Z</time></trkpt><trkpt lat="43.33609186312832" lon="10.745720646168618"><ele>54.25</ele><time>2026-04-18T13:04:37.999Z</time></trkpt><trkpt lat="43.33603671029987" lon="10.745534981084699"><ele>54.5</ele><time>2026-04-18T13:04:38.999Z</time></trkpt><trkpt lat="43.33598429997889" lon="10.745354264187435"><ele>54.75</ele><time>2026-04-18T13:04:39.999Z</time></trkpt><trkpt lat="43.33593810695076" lon="10.745181662843803"><ele>55.0</ele><time>2026-04-18T13:04:40.999Z</time></trkpt><trkpt lat="43.335888806286974" lon="10.745013371583822"><ele>55.75</ele><time>2026-04-18T13:04:41.999Z</time></trkpt><trkpt lat="43.33583894834311" lon="10.744857310775314"><ele>56.5</ele><time>2026-04-18T13:04:42.999Z</time></trkpt><trkpt lat="43.33579618252737" lon="10.744704937860956"><ele>57.25</ele><time>2026-04-18T13:04:43.999Z</time></trkpt><trkpt lat="43.335748712078164" lon="10.744562036118374"><ele>58.0</ele><time>2026-04-18T13:04:44.999Z</time></trkpt><trkpt lat="43.33571554412681" lon="10.744409956041657"><ele>57.0</ele><time>2026-04-18T13:04:45.999Z</time></trkpt><trkpt lat="43.33567391240938" lon="10.744270060676294"><ele>56.0</ele><time>2026-04-18T13:04:46.999Z</time></trkpt><trkpt lat="43.33562310007435" lon="10.744120210178"><ele>55.0</ele><time>2026-04-18T13:04:47.999Z</time></trkpt><trkpt lat="43.33558951096991" lon="10.74397639967805"><ele>54.0</ele><time>2026-04-18T13:04:48.999Z</time></trkpt><trkpt lat="43.335546185175986" lon="10.743834054871856"><ele>54.0</ele><time>2026-04-18T13:04:49.999Z</time></trkpt><trkpt lat="43.33551426747528" lon="10.74368200574272"><ele>54.00000000000001</ele><time>2026-04-18T13:04:50.999Z</time></trkpt><trkpt lat="43.33547754499002" lon="10.743547617138676"><ele>54.00000000000001</ele><time>2026-04-18T13:04:51.999Z</time></trkpt><trkpt lat="43.33543307917318" lon="10.743400747740315"><ele>54.0</ele><time>2026-04-18T13:04:52.999Z</time></trkpt><trkpt lat="43.33539756391048" lon="10.743254803391176"><ele>54.0</ele><time>2026-04-18T13:04:53.999Z</time></trkpt><trkpt lat="43.33538823117013" lon="10.743101793389433"><ele>54.0</ele><time>2026-04-18T13:04:54.999Z</time></trkpt><trkpt lat="43.33539481195367" lon="10.742952079547177"><ele>54.0</ele><time>2026-04-18T13:04:55.999Z</time></trkpt><trkpt lat="43.33541327442304" lon="10.74281491069795"><ele>54.0</ele><time>2026-04-18T13:04:56.999Z</time></trkpt><trkpt lat="43.335432004489746" lon="10.742714941612055"><ele>54.0</ele><time>2026-04-18T13:04:57.999Z</time></trkpt><trkpt lat="43.33545768397275" lon="10.742609836564483"><ele>54.0</ele><time>2026-04-18T13:04:59.999Z</time></trkpt><trkpt lat="43.33548272957661" lon="10.742525232144752"><ele>54.0</ele><time>2026-04-18T13:05:08.999Z</time></trkpt><trkpt lat="43.335475472584186" lon="10.742422544014822"><ele>54.0</ele><time>2026-04-18T13:05:14.999Z</time></trkpt><trkpt lat="43.335221097770045" lon="10.742296729152418"><ele>54.0</ele><time>2026-04-18T13:05:15.999Z</time></trkpt><trkpt lat="43.33517234331971" lon="10.74222043714335"><ele>54.0</ele><time>2026-04-18T13:05:17.999Z</time></trkpt><trkpt lat="43.335128988720214" lon="10.742145548085814"><ele>54.0</ele><time>2026-04-18T13:05:19.999Z</time></trkpt><trkpt lat="43.33508099680347" lon="10.742057501922067"><ele>54.0</ele><time>2026-04-18T13:05:21.999Z</time></trkpt><trkpt lat="43.335026631812234" lon="10.74196728864854"><ele>54.0</ele><time>2026-04-18T13:05:23.999Z</time></trkpt><trkpt lat="43.33497449613554" lon="10.741883484733147"><ele>54.0</ele><time>2026-04-18T13:05:25.999Z</time></trkpt><trkpt lat="43.33492249097646" lon="10.741795194671552"><ele>54.0</ele><time>2026-04-18T13:05:27.999Z</time></trkpt><trkpt lat="43.33487009161024" lon="10.741711823502426"><ele>54.0</ele><time>2026-04-18T13:05:29.999Z</time></trkpt><trkpt lat="43.334806531755724" lon="10.741606236993004"><ele>54.0</ele><time>2026-04-18T13:05:31.999Z</time></trkpt><trkpt lat="43.334775381700815" lon="10.741506339874135"><ele>53.666666666666664</ele><time>2026-04-18T13:05:33.999Z</time></trkpt><trkpt lat="43.334729356934666" lon="10.741437383475784"><ele>53.33333333333333</ele><time>2026-04-18T13:05:38.998Z</time></trkpt><trkpt lat="43.33466105407508" lon="10.741355957596227"><ele>53.0</ele><time>2026-04-18T13:05:42.998Z</time></trkpt><trkpt lat="43.334612464732245" lon="10.741277119488908"><ele>52.666666666666664</ele><time>2026-04-18T13:05:44.998Z</time></trkpt><trkpt lat="43.33455435428056" lon="10.741173522693632"><ele>52.33333333333333</ele><time>2026-04-18T13:05:46.998Z</time></trkpt><trkpt lat="43.33448386595264" lon="10.741048461030692"><ele>52.0</ele><time>2026-04-18T13:05:48.998Z</time></trkpt><trkpt lat="43.334443040154525" lon="10.740978782577498"><ele>51.857142857142854</ele><time>2026-04-18T13:05:49.998Z</time></trkpt><trkpt lat="43.334399245556604" lon="10.74090822600757"><ele>51.714285714285715</ele><time>2026-04-18T13:05:50.998Z</time></trkpt><trkpt lat="43.334355492412385" lon="10.740833299354245"><ele>51.57142857142857</ele><time>2026-04-18T13:05:51.998Z</time></trkpt><trkpt lat="43.33430810967771" lon="10.740765668852317"><ele>51.42857142857143</ele><time>2026-04-18T13:05:52.998Z</time></trkpt><trkpt lat="43.334256665008056" lon="10.740689688882014"><ele>51.28571428571429</ele><time>2026-04-18T13:05:53.998Z</time></trkpt><trkpt lat="43.3342172480009" lon="10.740610946852208"><ele>51.142857142857146</ele><time>2026-04-18T13:05:54.998Z</time></trkpt><trkpt lat="43.33417750428129" lon="10.740541454771652"><ele>51.0</ele><time>2026-04-18T13:05:55.998Z</time></trkpt><trkpt lat="43.33409374189409" lon="10.740387701281618"><ele>51.0</ele><time>2026-04-18T13:05:57.998Z</time></trkpt><trkpt lat="43.33404209114002" lon="10.740303157041163"><ele>51.0</ele><time>2026-04-18T13:05:58.999Z</time></trkpt><trkpt lat="43.33399394043338" lon="10.740217623381037"><ele>51.0</ele><time>2026-04-18T13:05:59.999Z</time></trkpt><trkpt lat="43.333939210661484" lon="10.740129804274638"><ele>51.0</ele><time>2026-04-18T13:06:00.999Z</time></trkpt><trkpt lat="43.3338824508851" lon="10.740034893001411"><ele>51.0</ele><time>2026-04-18T13:06:01.999Z</time></trkpt><trkpt lat="43.333822602565725" lon="10.739936654181824"><ele>51.0</ele><time>2026-04-18T13:06:02.999Z</time></trkpt><trkpt lat="43.33376110014387" lon="10.739832102020674"><ele>51.199999999999996</ele><time>2026-04-18T13:06:03.999Z</time></trkpt><trkpt lat="43.33370904710958" lon="10.739718705546467"><ele>51.4</ele><time>2026-04-18T13:06:04.999Z</time></trkpt><trkpt lat="43.33364920481532" lon="10.739612319607302"><ele>51.6</ele><time>2026-04-18T13:06:05.999Z</time></trkpt><trkpt lat="43.33358379185711" lon="10.739511791119442"><ele>51.8</ele><time>2026-04-18T13:06:06.999Z</time></trkpt><trkpt lat="43.3335225997416" lon="10.739403618522665"><ele>52.0</ele><time>2026-04-18T13:06:07.999Z</time></trkpt><trkpt lat="43.33345734764553" lon="10.739289368814706"><ele>52.0</ele><time>2026-04-18T13:06:08.999Z</time></trkpt><trkpt lat="43.333393381886786" lon="10.739181203651567"><ele>52.0</ele><time>2026-04-18T13:06:09.999Z</time></trkpt><trkpt lat="43.33332590091319" lon="10.739066887320869"><ele>52.0</ele><time>2026-04-18T13:06:10.999Z</time></trkpt><trkpt lat="43.333256066232394" lon="10.738961177883905"><ele>52.0</ele><time>2026-04-18T13:06:11.999Z</time></trkpt><trkpt lat="43.33318039492119" lon="10.738860025832361"><ele>52.0</ele><time>2026-04-18T13:06:12.999Z</time></trkpt><trkpt lat="43.33309182437694" lon="10.738765599447634"><ele>52.25</ele><time>2026-04-18T13:06:13.999Z</time></trkpt><trkpt lat="43.33299398703187" lon="10.738692508326556"><ele>52.5</ele><time>2026-04-18T13:06:14.999Z</time></trkpt><trkpt lat="43.332880932634666" lon="10.738618238843689"><ele>52.75</ele><time>2026-04-18T13:06:15.999Z</time></trkpt><trkpt lat="43.33277294767349" lon="10.738551698321377"><ele>53.0</ele><time>2026-04-18T13:06:16.999Z</time></trkpt><trkpt lat="43.33266470527806" lon="10.738490622291827"><ele>53.25</ele><time>2026-04-18T13:06:17.999Z</time></trkpt><trkpt lat="43.3325563460889" lon="10.738429988677343"><ele>53.5</ele><time>2026-04-18T13:06:18.999Z</time></trkpt><trkpt lat="43.3324476258786" lon="10.738369456218383"><ele>53.75</ele><time>2026-04-18T13:06:19.999Z</time></trkpt><trkpt lat="43.332336152161005" lon="10.73831583780957"><ele>54.0</ele><time>2026-04-18T13:06:20.999Z</time></trkpt><trkpt lat="43.332220808388385" lon="10.738245690321543"><ele>53.5</ele><time>2026-04-18T13:06:21.999Z</time></trkpt><trkpt lat="43.33210696646257" lon="10.738179081980165"><ele>53.0</ele><time>2026-04-18T13:06:22.999Z</time></trkpt><trkpt lat="43.33199218522626" lon="10.738111972671367"><ele>52.5</ele><time>2026-04-18T13:06:23.999Z</time></trkpt><trkpt lat="43.33187577964277" lon="10.738042954775688"><ele>52.0</ele><time>2026-04-18T13:06:24.999Z</time></trkpt><trkpt lat="43.33175830469759" lon="10.737973659390397"><ele>52.0</ele><time>2026-04-18T13:06:25.999Z</time></trkpt><trkpt lat="43.33163962423488" lon="10.737905825831469"><ele>52.0</ele><time>2026-04-18T13:06:26.999Z</time></trkpt><trkpt lat="43.3315231594591" lon="10.737839669514457"><ele>52.0</ele><time>2026-04-18T13:06:27.999Z</time></trkpt><trkpt lat="43.331410914515835" lon="10.737772135618835"><ele>52.0</ele><time>2026-04-18T13:06:28.999Z</time></trkpt><trkpt lat="43.33130405946224" lon="10.73769425391755"><ele>54.5</ele><time>2026-04-18T13:06:29.999Z</time></trkpt><trkpt lat="43.33120583156945" lon="10.737601318932576"><ele>57.0</ele><time>2026-04-18T13:06:30.999Z</time></trkpt><trkpt lat="43.331113008033896" lon="10.737497622789"><ele>59.5</ele><time>2026-04-18T13:06:31.999Z</time></trkpt><trkpt lat="43.33103186146556" lon="10.737378435709582"><ele>62.0</ele><time>2026-04-18T13:06:32.999Z</time></trkpt><trkpt lat="43.330964279899774" lon="10.737246181312138"><ele>62.0</ele><time>2026-04-18T13:06:33.999Z</time></trkpt><trkpt lat="43.33091431130232" lon="10.737102830355076"><ele>62.0</ele><time>2026-04-18T13:06:34.999Z</time></trkpt><trkpt lat="43.33086980363049" lon="10.73695061650364"><ele>62.0</ele><time>2026-04-18T13:06:35.999Z</time></trkpt><trkpt lat="43.330831828450535" lon="10.736799290848904"><ele>62.0</ele><time>2026-04-18T13:06:36.999Z</time></trkpt><trkpt lat="43.3307858169803" lon="10.736656139865264"><ele>62.5</ele><time>2026-04-18T13:06:37.999Z</time></trkpt><trkpt lat="43.330745003877" lon="10.736511815990653"><ele>63.0</ele><time>2026-04-18T13:06:38.999Z</time></trkpt><trkpt lat="43.33068302005796" lon="10.73628233497632"><ele>63.5</ele><time>2026-04-18T13:06:40.999Z</time></trkpt><trkpt lat="43.33065342700473" lon="10.73613802939136"><ele>64.0</ele><time>2026-04-18T13:06:42.999Z</time></trkpt><trkpt lat="43.330486390657846" lon="10.736160153287505"><ele>65.33333333333333</ele><time>2026-04-18T13:06:44.999Z</time></trkpt><trkpt lat="43.33042368906128" lon="10.736187792413393"><ele>66.66666666666666</ele><time>2026-04-18T13:06:45.999Z</time></trkpt><trkpt lat="43.33035985841503" lon="10.73621788201041"><ele>68.0</ele><time>2026-04-18T13:06:46.999Z</time></trkpt><trkpt lat="43.33029043106937" lon="10.736257812091354"><ele>69.33333333333333</ele><time>2026-04-18T13:06:47.999Z</time></trkpt><trkpt lat="43.330217518504696" lon="10.736293813474934"><ele>70.66666666666667</ele><time>2026-04-18T13:06:48.999Z</time></trkpt><trkpt lat="43.330138849292126" lon="10.736337740722893"><ele>72.0</ele><time>2026-04-18T13:06:49.999Z</time></trkpt><trkpt lat="43.33005443226737" lon="10.736386808566003"><ele>72.0</ele><time>2026-04-18T13:06:50.999Z</time></trkpt><trkpt lat="43.32995144686111" lon="10.736436577679504"><ele>72.0</ele><time>2026-04-18T13:06:51.999Z</time></trkpt><trkpt lat="43.32985215536023" lon="10.736483417117718"><ele>72.0</ele><time>2026-04-18T13:06:52.999Z</time></trkpt><trkpt lat="43.32974508659107" lon="10.736540634659917"><ele>72.0</ele><time>2026-04-18T13:06:53.999Z</time></trkpt><trkpt lat="43.32962850839749" lon="10.736598086322797"><ele>72.25</ele><time>2026-04-18T13:06:54.999Z</time></trkpt><trkpt lat="43.32951600645857" lon="10.736656466212477"><ele>72.5</ele><time>2026-04-18T13:06:55.999Z</time></trkpt><trkpt lat="43.32940681365828" lon="10.736718548749336"><ele>72.75</ele><time>2026-04-18T13:06:56.999Z</time></trkpt><trkpt lat="43.32927912974005" lon="10.736782956866175"><ele>73.0</ele><time>2026-04-18T13:06:57.999Z</time></trkpt><trkpt lat="43.329159249108415" lon="10.736853180503207"><ele>73.25</ele><time>2026-04-18T13:06:58.999Z</time></trkpt><trkpt lat="43.32903629095287" lon="10.73692327822192"><ele>73.5</ele><time>2026-04-18T13:06:59.999Z</time></trkpt><trkpt lat="43.328911666824105" lon="10.736989136997298"><ele>73.75</ele><time>2026-04-18T13:07:00.999Z</time></trkpt><trkpt lat="43.32878898902314" lon="10.737055304055307"><ele>74.0</ele><time>2026-04-18T13:07:01.999Z</time></trkpt><trkpt lat="43.32866360830836" lon="10.737120955371802"><ele>74.5</ele><time>2026-04-18T13:07:02.999Z</time></trkpt><trkpt lat="43.32853851835208" lon="10.737189000534267"><ele>75.0</ele><time>2026-04-18T13:07:03.999Z</time></trkpt><trkpt lat="43.328415989426844" lon="10.737255249587092"><ele>75.5</ele><time>2026-04-18T13:07:04.999Z</time></trkpt><trkpt lat="43.32829531214658" lon="10.73732544691088"><ele>76.0</ele><time>2026-04-18T13:07:05.999Z</time></trkpt><trkpt lat="43.32817536558227" lon="10.737385232671427"><ele>76.0</ele><time>2026-04-18T13:07:06.999Z</time></trkpt><trkpt lat="43.32806084348677" lon="10.737451256141608"><ele>76.0</ele><time>2026-04-18T13:07:07.999Z</time></trkpt><trkpt lat="43.32794789568471" lon="10.737516568577693"><ele>76.0</ele><time>2026-04-18T13:07:08.999Z</time></trkpt><trkpt lat="43.32783733201257" lon="10.737578736162204"><ele>76.0</ele><time>2026-04-18T13:07:09.999Z</time></trkpt><trkpt lat="43.32772464627016" lon="10.737632278231224"><ele>76.2</ele><time>2026-04-18T13:07:10.999Z</time></trkpt><trkpt lat="43.3276267263217" lon="10.737689506555046"><ele>76.39999999999999</ele><time>2026-04-18T13:07:11.999Z</time></trkpt><trkpt lat="43.327532748286856" lon="10.73773782248245"><ele>76.6</ele><time>2026-04-18T13:07:12.999Z</time></trkpt><trkpt lat="43.327449738404646" lon="10.737788329934189"><ele>76.8</ele><time>2026-04-18T13:07:13.999Z</time></trkpt><trkpt lat="43.327376470154675" lon="10.737846640119383"><ele>77.0</ele><time>2026-04-18T13:07:14.999Z</time></trkpt><trkpt lat="43.32731158220093" lon="10.737915319904115"><ele>77.0</ele><time>2026-04-18T13:07:15.999Z</time></trkpt><trkpt lat="43.327247769481744" lon="10.737985049688344"><ele>77.0</ele><time>2026-04-18T13:07:16.999Z</time></trkpt><trkpt lat="43.32718012468169" lon="10.738064432789205"><ele>77.0</ele><time>2026-04-18T13:07:17.999Z</time></trkpt><trkpt lat="43.32709535855091" lon="10.738135315945042"><ele>77.0</ele><time>2026-04-18T13:07:18.999Z</time></trkpt><trkpt lat="43.32700214949973" lon="10.738203233020252"><ele>77.0</ele><time>2026-04-18T13:07:19.999Z</time></trkpt><trkpt lat="43.32690403843415" lon="10.738262619223537"><ele>77.2</ele><time>2026-04-18T13:07:20.999Z</time></trkpt><trkpt lat="43.3268052863225" lon="10.73832717654784"><ele>77.4</ele><time>2026-04-18T13:07:21.999Z</time></trkpt><trkpt lat="43.326708725821234" lon="10.738396023760314"><ele>77.6</ele><time>2026-04-18T13:07:22.999Z</time></trkpt><trkpt lat="43.32661557775061" lon="10.738488268069023"><ele>77.8</ele><time>2026-04-18T13:07:23.999Z</time></trkpt><trkpt lat="43.326532758327566" lon="10.738601037522287"><ele>78.0</ele><time>2026-04-18T13:07:24.999Z</time></trkpt><trkpt lat="43.326456469979185" lon="10.738720376732132"><ele>78.25</ele><time>2026-04-18T13:07:25.999Z</time></trkpt><trkpt lat="43.32639854446094" lon="10.738846070482293"><ele>78.5</ele><time>2026-04-18T13:07:26.999Z</time></trkpt><trkpt lat="43.32634347256971" lon="10.738978347156335"><ele>78.75</ele><time>2026-04-18T13:07:27.999Z</time></trkpt><trkpt lat="43.32631819255478" lon="10.739133896122368"><ele>79.0</ele><time>2026-04-18T13:07:28.999Z</time></trkpt><trkpt lat="43.32632211751569" lon="10.73929646652765"><ele>77.0</ele><time>2026-04-18T13:07:29.999Z</time></trkpt><trkpt lat="43.32634492282133" lon="10.739443842811443"><ele>75.0</ele><time>2026-04-18T13:07:30.999Z</time></trkpt><trkpt lat="43.32635479708203" lon="10.739599568831038"><ele>73.0</ele><time>2026-04-18T13:07:31.999Z</time></trkpt><trkpt lat="43.326363054603455" lon="10.73974281090127"><ele>71.0</ele><time>2026-04-18T13:07:32.999Z</time></trkpt><trkpt lat="43.32635246675037" lon="10.73987854799518"><ele>69.0</ele><time>2026-04-18T13:07:33.999Z</time></trkpt><trkpt lat="43.32631055090942" lon="10.740003753069379"><ele>69.0</ele><time>2026-04-18T13:07:34.999Z</time></trkpt><trkpt lat="43.326224298855564" lon="10.740087413474697"><ele>69.0</ele><time>2026-04-18T13:07:35.999Z</time></trkpt><trkpt lat="43.32613282179942" lon="10.740168095148771"><ele>69.0</ele><time>2026-04-18T13:07:36.999Z</time></trkpt><trkpt lat="43.326022716722335" lon="10.740227157400929"><ele>69.0</ele><time>2026-04-18T13:07:37.999Z</time></trkpt><trkpt lat="43.325898610736935" lon="10.740292519792101"><ele>68.0</ele><time>2026-04-18T13:07:38.999Z</time></trkpt><trkpt lat="43.32577677550316" lon="10.740369602588668"><ele>67.0</ele><time>2026-04-18T13:07:39.999Z</time></trkpt><trkpt lat="43.325649853939915" lon="10.740452490624119"><ele>66.0</ele><time>2026-04-18T13:07:40.999Z</time></trkpt><trkpt lat="43.32551200266105" lon="10.740540615561654"><ele>65.0</ele><time>2026-04-18T13:07:41.997Z</time></trkpt><trkpt lat="43.32537745064947" lon="10.740631970167875"><ele>65.0</ele><time>2026-04-18T13:07:42.997Z</time></trkpt><trkpt lat="43.325250499095894" lon="10.740735012271974"><ele>65.0</ele><time>2026-04-18T13:07:43.997Z</time></trkpt><trkpt lat="43.325119125262525" lon="10.740842283135146"><ele>65.0</ele><time>2026-04-18T13:07:44.997Z</time></trkpt><trkpt lat="43.324997615967305" lon="10.740955135125922"><ele>65.0</ele><time>2026-04-18T13:07:45.997Z</time></trkpt><trkpt lat="43.3248854089501" lon="10.741086501635094"><ele>64.0</ele><time>2026-04-18T13:07:46.997Z</time></trkpt><trkpt lat="43.32478008537221" lon="10.741229075313724"><ele>63.0</ele><time>2026-04-18T13:07:47.997Z</time></trkpt><trkpt lat="43.324675993283826" lon="10.74137802484228"><ele>62.0</ele><time>2026-04-18T13:07:48.997Z</time></trkpt><trkpt lat="43.32456850089796" lon="10.741530194580164"><ele>62.0</ele><time>2026-04-18T13:07:49.997Z</time></trkpt><trkpt lat="43.32446161431125" lon="10.741689567844734"><ele>62.0</ele><time>2026-04-18T13:07:50.998Z</time></trkpt><trkpt lat="43.32435451253524" lon="10.741862991622416"><ele>62.0</ele><time>2026-04-18T13:07:51.998Z</time></trkpt><trkpt lat="43.32424471878583" lon="10.742016536667613"><ele>60.333333333333336</ele><time>2026-04-18T13:07:52.998Z</time></trkpt><trkpt lat="43.32413844469875" lon="10.742180399262377"><ele>58.66666666666667</ele><time>2026-04-18T13:07:53.998Z</time></trkpt><trkpt lat="43.324030178626096" lon="10.742351290414183"><ele>57.0</ele><time>2026-04-18T13:07:54.998Z</time></trkpt><trkpt lat="43.32392246536308" lon="10.742524181928799"><ele>57.33333333333333</ele><time>2026-04-18T13:07:55.998Z</time></trkpt><trkpt lat="43.323813099550144" lon="10.742696716760527"><ele>57.666666666666664</ele><time>2026-04-18T13:07:56.998Z</time></trkpt><trkpt lat="43.32370666512233" lon="10.74287198949657"><ele>58.0</ele><time>2026-04-18T13:07:57.998Z</time></trkpt><trkpt lat="43.32360278598041" lon="10.743046072830612"><ele>58.0</ele><time>2026-04-18T13:07:58.998Z</time></trkpt><trkpt lat="43.323499315356784" lon="10.743216156869815"><ele>58.0</ele><time>2026-04-18T13:07:59.998Z</time></trkpt><trkpt lat="43.32339466322452" lon="10.74338737794757"><ele>58.0</ele><time>2026-04-18T13:08:00.998Z</time></trkpt><trkpt lat="43.323290801068865" lon="10.743553812209944"><ele>57.0</ele><time>2026-04-18T13:08:01.998Z</time></trkpt><trkpt lat="43.32318941332009" lon="10.743718439911538"><ele>56.0</ele><time>2026-04-18T13:08:02.998Z</time></trkpt><trkpt lat="43.32309156996034" lon="10.743883253920114"><ele>55.0</ele><time>2026-04-18T13:08:03.998Z</time></trkpt><trkpt lat="43.32299503866481" lon="10.744047591496534"><ele>55.666666666666664</ele><time>2026-04-18T13:08:04.998Z</time></trkpt><trkpt lat="43.32289518371298" lon="10.744209287938391"><ele>56.33333333333333</ele><time>2026-04-18T13:08:05.998Z</time></trkpt><trkpt lat="43.32279622887962" lon="10.74437328968321"><ele>57.0</ele><time>2026-04-18T13:08:06.998Z</time></trkpt><trkpt lat="43.32269455731365" lon="10.744536679386195"><ele>57.0</ele><time>2026-04-18T13:08:07.998Z</time></trkpt><trkpt lat="43.32259262303228" lon="10.744703967887824"><ele>57.0</ele><time>2026-04-18T13:08:08.999Z</time></trkpt><trkpt lat="43.32248891280736" lon="10.744870500599516"><ele>57.0</ele><time>2026-04-18T13:08:09.999Z</time></trkpt><trkpt lat="43.322385781645096" lon="10.745036302379027"><ele>57.0</ele><time>2026-04-18T13:08:10.999Z</time></trkpt><trkpt lat="43.322282776634864" lon="10.74520368160413"><ele>57.0</ele><time>2026-04-18T13:08:11.999Z</time></trkpt><trkpt lat="43.32217847345661" lon="10.745369773926694"><ele>57.0</ele><time>2026-04-18T13:08:12.999Z</time></trkpt><trkpt lat="43.32207409964555" lon="10.745536162831357"><ele>56.66666666666667</ele><time>2026-04-18T13:08:13.999Z</time></trkpt><trkpt lat="43.321976176409514" lon="10.745714053195336"><ele>56.333333333333336</ele><time>2026-04-18T13:08:14.999Z</time></trkpt><trkpt lat="43.321883623008816" lon="10.745899239708482"><ele>56.0</ele><time>2026-04-18T13:08:15.999Z</time></trkpt><trkpt lat="43.32179965921999" lon="10.74609148749863"><ele>56.0</ele><time>2026-04-18T13:08:16.999Z</time></trkpt><trkpt lat="43.32171809377962" lon="10.746292946078901"><ele>56.0</ele><time>2026-04-18T13:08:17.999Z</time></trkpt><trkpt lat="43.32163656390939" lon="10.746492057189949"><ele>56.0</ele><time>2026-04-18T13:08:18.999Z</time></trkpt><trkpt lat="43.321555383364924" lon="10.746692285932504"><ele>56.0</ele><time>2026-04-18T13:08:19.999Z</time></trkpt><trkpt lat="43.321473544950315" lon="10.746895074191045"><ele>56.0</ele><time>2026-04-18T13:08:20.999Z</time></trkpt><trkpt lat="43.32139076998461" lon="10.747097860700155"><ele>56.0</ele><time>2026-04-18T13:08:21.999Z</time></trkpt><trkpt lat="43.3213087388862" lon="10.747302836764304"><ele>57.66666666666667</ele><time>2026-04-18T13:08:22.999Z</time></trkpt><trkpt lat="43.321227333219056" lon="10.747507904085642"><ele>59.33333333333333</ele><time>2026-04-18T13:08:23.999Z</time></trkpt><trkpt lat="43.321150082840894" lon="10.747716447920196"><ele>61.0</ele><time>2026-04-18T13:08:24.999Z</time></trkpt><trkpt lat="43.32106488277461" lon="10.747920924794647"><ele>61.0</ele><time>2026-04-18T13:08:25.999Z</time></trkpt><trkpt lat="43.32098067391505" lon="10.74812757756006"><ele>61.0</ele><time>2026-04-18T13:08:26.999Z</time></trkpt><trkpt lat="43.32089365336617" lon="10.74833199069084"><ele>61.0</ele><time>2026-04-18T13:08:27.999Z</time></trkpt><trkpt lat="43.32081079290574" lon="10.748538971085708"><ele>59.666666666666664</ele><time>2026-04-18T13:08:28.999Z</time></trkpt><trkpt lat="43.320727617608114" lon="10.74874636561281"><ele>58.33333333333333</ele><time>2026-04-18T13:08:29.999Z</time></trkpt><trkpt lat="43.320644739417205" lon="10.748955256210582"><ele>57.0</ele><time>2026-04-18T13:08:30.999Z</time></trkpt><trkpt lat="43.32055808282627" lon="10.749162140968258"><ele>58.66666666666667</ele><time>2026-04-18T13:08:31.999Z</time></trkpt><trkpt lat="43.32047338037376" lon="10.749370110638663"><ele>60.333333333333336</ele><time>2026-04-18T13:08:32.999Z</time></trkpt><trkpt lat="43.32039062393143" lon="10.749575395396427"><ele>62.0</ele><time>2026-04-18T13:08:33.999Z</time></trkpt><trkpt lat="43.32030853970461" lon="10.749780023759405"><ele>62.0</ele><time>2026-04-18T13:08:34.999Z</time></trkpt><trkpt lat="43.32022225400529" lon="10.749972653757384"><ele>62.0</ele><time>2026-04-18T13:08:35.999Z</time></trkpt><trkpt lat="43.32012349820831" lon="10.750148153204304"><ele>62.0</ele><time>2026-04-18T13:08:36.999Z</time></trkpt><trkpt lat="43.32000235072919" lon="10.75029680811309"><ele>63.0</ele><time>2026-04-18T13:08:37.999Z</time></trkpt><trkpt lat="43.319887872183" lon="10.750457296727939"><ele>64.0</ele><time>2026-04-18T13:08:38.999Z</time></trkpt><trkpt lat="43.31976003023283" lon="10.75059415256844"><ele>65.0</ele><time>2026-04-18T13:08:39.999Z</time></trkpt><trkpt lat="43.31963278888291" lon="10.75073479763698"><ele>65.0</ele><time>2026-04-18T13:08:40.999Z</time></trkpt><trkpt lat="43.31950147216494" lon="10.750874535073267"><ele>65.0</ele><time>2026-04-18T13:08:41.999Z</time></trkpt><trkpt lat="43.31937394247993" lon="10.751015854641508"><ele>65.0</ele><time>2026-04-18T13:08:42.999Z</time></trkpt><trkpt lat="43.319252559989" lon="10.75115736002041"><ele>64.0</ele><time>2026-04-18T13:08:43.999Z</time></trkpt><trkpt lat="43.31913425944773" lon="10.75130321578525"><ele>63.0</ele><time>2026-04-18T13:08:44.999Z</time></trkpt><trkpt lat="43.319022650608424" lon="10.751459692919482"><ele>62.0</ele><time>2026-04-18T13:08:45.999Z</time></trkpt><trkpt lat="43.31895381223908" lon="10.751662145670483"><ele>65.0</ele><time>2026-04-18T13:08:46.999Z</time></trkpt><trkpt lat="43.31887511787399" lon="10.751860624865193"><ele>68.0</ele><time>2026-04-18T13:08:47.999Z</time></trkpt><trkpt lat="43.31879369355166" lon="10.752069601054018"><ele>71.0</ele><time>2026-04-18T13:08:48.999Z</time></trkpt><trkpt lat="43.318717239567974" lon="10.752284595663582"><ele>71.0</ele><time>2026-04-18T13:08:49.999Z</time></trkpt><trkpt lat="43.31864145578581" lon="10.752502600753449"><ele>71.0</ele><time>2026-04-18T13:08:50.999Z</time></trkpt><trkpt lat="43.318561545613015" lon="10.752723731907984"><ele>71.0</ele><time>2026-04-18T13:08:51.999Z</time></trkpt><trkpt lat="43.318481256789255" lon="10.75294459003191"><ele>70.66666666666667</ele><time>2026-04-18T13:08:52.999Z</time></trkpt><trkpt lat="43.31839955908202" lon="10.753164941822014"><ele>70.33333333333333</ele><time>2026-04-18T13:08:53.999Z</time></trkpt><trkpt lat="43.31831625793397" lon="10.753383305475658"><ele>70.0</ele><time>2026-04-18T13:08:54.999Z</time></trkpt><trkpt lat="43.318236994526785" lon="10.753602333948793"><ele>68.0</ele><time>2026-04-18T13:08:55.999Z</time></trkpt><trkpt lat="43.31815869393392" lon="10.753819221768982"><ele>66.0</ele><time>2026-04-18T13:08:56.999Z</time></trkpt><trkpt lat="43.31807649501846" lon="10.754032792867957"><ele>64.0</ele><time>2026-04-18T13:08:57.999Z</time></trkpt><trkpt lat="43.31799680137202" lon="10.754243616047235"><ele>65.0</ele><time>2026-04-18T13:08:58.999Z</time></trkpt><trkpt lat="43.317917762300254" lon="10.754450377208261"><ele>66.0</ele><time>2026-04-18T13:08:59.999Z</time></trkpt><trkpt lat="43.31783838416293" lon="10.754656290653562"><ele>67.0</ele><time>2026-04-18T13:09:00.999Z</time></trkpt><trkpt lat="43.31776566926182" lon="10.754867346793525"><ele>67.0</ele><time>2026-04-18T13:09:01.999Z</time></trkpt><trkpt lat="43.3176992263062" lon="10.755081773211119"><ele>67.0</ele><time>2026-04-18T13:09:02.999Z</time></trkpt><trkpt lat="43.31763913949921" lon="10.7552994170517"><ele>67.0</ele><time>2026-04-18T13:09:03.999Z</time></trkpt><trkpt lat="43.31757672826418" lon="10.755515765950323"><ele>66.66666666666666</ele><time>2026-04-18T13:09:04.999Z</time></trkpt><trkpt lat="43.31751088888059" lon="10.755727906974197"><ele>66.33333333333333</ele><time>2026-04-18T13:09:05.999Z</time></trkpt><trkpt lat="43.317451523381465" lon="10.75594260430244"><ele>66.0</ele><time>2026-04-18T13:09:06.999Z</time></trkpt><trkpt lat="43.317384820419555" lon="10.756156852148631"><ele>65.66666666666667</ele><time>2026-04-18T13:09:07.999Z</time></trkpt><trkpt lat="43.317313941002716" lon="10.756371178801727"><ele>65.33333333333334</ele><time>2026-04-18T13:09:08.999Z</time></trkpt><trkpt lat="43.317240640746284" lon="10.756578935675215"><ele>65.0</ele><time>2026-04-18T13:09:09.999Z</time></trkpt><trkpt lat="43.31716323782211" lon="10.756782818407897"><ele>70.66666666666667</ele><time>2026-04-18T13:09:10.999Z</time></trkpt><trkpt lat="43.31709240432588" lon="10.756990211044434"><ele>76.33333333333333</ele><time>2026-04-18T13:09:11.999Z</time></trkpt><trkpt lat="43.3170332937006" lon="10.757200204910955"><ele>82.0</ele><time>2026-04-18T13:09:12.999Z</time></trkpt><trkpt lat="43.31698045128119" lon="10.757410524698711"><ele>82.0</ele><time>2026-04-18T13:09:13.999Z</time></trkpt><trkpt lat="43.31693802752356" lon="10.757617105483494"><ele>82.0</ele><time>2026-04-18T13:09:14.999Z</time></trkpt><trkpt lat="43.316900185624085" lon="10.757813111852036"><ele>82.0</ele><time>2026-04-18T13:09:16Z</time></trkpt><trkpt lat="43.31686351547086" lon="10.758002998231014"><ele>82.0</ele><time>2026-04-18T13:09:17Z</time></trkpt><trkpt lat="43.31681436948637" lon="10.758180636803642"><ele>80.0</ele><time>2026-04-18T13:09:18Z</time></trkpt><trkpt lat="43.31677672867879" lon="10.758364483201756"><ele>78.0</ele><time>2026-04-18T13:09:19Z</time></trkpt><trkpt lat="43.316739938464" lon="10.758549373243923"><ele>76.0</ele><time>2026-04-18T13:09:20Z</time></trkpt><trkpt lat="43.31670203523398" lon="10.758736706826618"><ele>74.0</ele><time>2026-04-18T13:09:21Z</time></trkpt><trkpt lat="43.316662794619106" lon="10.758924410851584"><ele>72.5</ele><time>2026-04-18T13:09:22Z</time></trkpt><trkpt lat="43.316623034637004" lon="10.75911321506719"><ele>71.0</ele><time>2026-04-18T13:09:23Z</time></trkpt><trkpt lat="43.316583118029016" lon="10.759301312584537"><ele>69.5</ele><time>2026-04-18T13:09:24Z</time></trkpt><trkpt lat="43.31654133286886" lon="10.759486907016925"><ele>68.0</ele><time>2026-04-18T13:09:25Z</time></trkpt><trkpt lat="43.3165044691407" lon="10.759678302519236"><ele>67.5</ele><time>2026-04-18T13:09:26Z</time></trkpt><trkpt lat="43.316469660896296" lon="10.759872226861043"><ele>67.0</ele><time>2026-04-18T13:09:27Z</time></trkpt><trkpt lat="43.316430558950145" lon="10.760067452098196"><ele>66.5</ele><time>2026-04-18T13:09:28Z</time></trkpt><trkpt lat="43.31638985197212" lon="10.760267138951345"><ele>66.0</ele><time>2026-04-18T13:09:29Z</time></trkpt><trkpt lat="43.31635351149886" lon="10.760465205268929"><ele>67.39999999999999</ele><time>2026-04-18T13:09:30Z</time></trkpt><trkpt lat="43.316317314231846" lon="10.76064777178045"><ele>68.8</ele><time>2026-04-18T13:09:31Z</time></trkpt><trkpt lat="43.316290054158976" lon="10.76079245961565"><ele>70.19999999999999</ele><time>2026-04-18T13:09:32Z</time></trkpt><trkpt lat="43.31625605640585" lon="10.760895011031113"><ele>71.6</ele><time>2026-04-18T13:09:33Z</time></trkpt><trkpt lat="43.31616709775028" lon="10.760982590780104"><ele>73.0</ele><time>2026-04-18T13:09:34Z</time></trkpt><trkpt lat="43.31604680130536" lon="10.761015039288504"><ele>71.75</ele><time>2026-04-18T13:09:36Z</time></trkpt><trkpt lat="43.3159401987643" lon="10.761047936993458"><ele>70.5</ele><time>2026-04-18T13:09:37Z</time></trkpt><trkpt lat="43.31582750756747" lon="10.761087183421472"><ele>69.25</ele><time>2026-04-18T13:09:38Z</time></trkpt><trkpt lat="43.315709656935375" lon="10.761133325799806"><ele>68.0</ele><time>2026-04-18T13:09:39Z</time></trkpt><trkpt lat="43.31558820979963" lon="10.761181382063794"><ele>67.75</ele><time>2026-04-18T13:09:40Z</time></trkpt><trkpt lat="43.315461366262475" lon="10.76125200204629"><ele>67.5</ele><time>2026-04-18T13:09:41Z</time></trkpt><trkpt lat="43.31535019871273" lon="10.761369785043707"><ele>67.25</ele><time>2026-04-18T13:09:42Z</time></trkpt><trkpt lat="43.315228533337354" lon="10.761478399330128"><ele>67.0</ele><time>2026-04-18T13:09:43Z</time></trkpt><trkpt lat="43.31512806540607" lon="10.761617006069306"><ele>67.0</ele><time>2026-04-18T13:09:44Z</time></trkpt><trkpt lat="43.31502477904665" lon="10.761754402436297"><ele>67.0</ele><time>2026-04-18T13:09:45Z</time></trkpt><trkpt lat="43.31492811852886" lon="10.761897071993278"><ele>67.0</ele><time>2026-04-18T13:09:46Z</time></trkpt><trkpt lat="43.31482526630217" lon="10.762027629150701"><ele>67.0</ele><time>2026-04-18T13:09:47Z</time></trkpt><trkpt lat="43.314715160200194" lon="10.762142853875513"><ele>67.75</ele><time>2026-04-18T13:09:47.998Z</time></trkpt><trkpt lat="43.31459494309346" lon="10.762244157009048"><ele>68.5</ele><time>2026-04-18T13:09:48.998Z</time></trkpt><trkpt lat="43.31446711676715" lon="10.762337796873586"><ele>69.25</ele><time>2026-04-18T13:09:49.998Z</time></trkpt><trkpt lat="43.31434314841779" lon="10.762438037239969"><ele>70.0</ele><time>2026-04-18T13:09:50.998Z</time></trkpt><trkpt lat="43.314225113030155" lon="10.762561181914501"><ele>69.66666666666666</ele><time>2026-04-18T13:09:51.998Z</time></trkpt><trkpt lat="43.31412852108408" lon="10.762718087514425"><ele>69.33333333333333</ele><time>2026-04-18T13:09:52.998Z</time></trkpt><trkpt lat="43.314016014609535" lon="10.76285754345681"><ele>69.0</ele><time>2026-04-18T13:09:53.998Z</time></trkpt><trkpt lat="43.31391914591016" lon="10.763013034325336"><ele>70.5</ele><time>2026-04-18T13:09:54.998Z</time></trkpt><trkpt lat="43.31383778786414" lon="10.763182443067691"><ele>72.0</ele><time>2026-04-18T13:09:55.998Z</time></trkpt><trkpt lat="43.313745079643674" lon="10.76333506363959"><ele>73.5</ele><time>2026-04-18T13:09:56.998Z</time></trkpt><trkpt lat="43.31365742505993" lon="10.763479670169566"><ele>75.0</ele><time>2026-04-18T13:09:57.998Z</time></trkpt><trkpt lat="43.31357414557596" lon="10.763617579531209"><ele>75.0</ele><time>2026-04-18T13:09:58.998Z</time></trkpt><trkpt lat="43.31349315158905" lon="10.763749362445036"><ele>75.0</ele><time>2026-04-18T13:09:59.998Z</time></trkpt><trkpt lat="43.31340539697551" lon="10.763863309347967"><ele>75.0</ele><time>2026-04-18T13:10:00.998Z</time></trkpt><trkpt lat="43.31330502035381" lon="10.76395327458353"><ele>75.0</ele><time>2026-04-18T13:10:01.999Z</time></trkpt><trkpt lat="43.31320598089526" lon="10.76403383867668"><ele>75.0</ele><time>2026-04-18T13:10:02.999Z</time></trkpt><trkpt lat="43.31309282382794" lon="10.7641033802436"><ele>75.0</ele><time>2026-04-18T13:10:03.999Z</time></trkpt><trkpt lat="43.31297535029922" lon="10.76417324317181"><ele>75.0</ele><time>2026-04-18T13:10:04.999Z</time></trkpt><trkpt lat="43.312855768102416" lon="10.764247593207978"><ele>75.0</ele><time>2026-04-18T13:10:05.999Z</time></trkpt><trkpt lat="43.31274181539854" lon="10.764334554887133"><ele>78.0</ele><time>2026-04-18T13:10:06.999Z</time></trkpt><trkpt lat="43.3126250624526" lon="10.764428599646013"><ele>81.0</ele><time>2026-04-18T13:10:07.999Z</time></trkpt><trkpt lat="43.31250491537555" lon="10.764536270985177"><ele>84.0</ele><time>2026-04-18T13:10:08.999Z</time></trkpt><trkpt lat="43.31239155958422" lon="10.764627739089702"><ele>87.0</ele><time>2026-04-18T13:10:09.999Z</time></trkpt><trkpt lat="43.3122831314568" lon="10.764728862097854"><ele>90.5</ele><time>2026-04-18T13:10:10.999Z</time></trkpt><trkpt lat="43.312177416822266" lon="10.76483185940393"><ele>94.0</ele><time>2026-04-18T13:10:11.999Z</time></trkpt><trkpt lat="43.31207665501032" lon="10.764935960017615"><ele>97.5</ele><time>2026-04-18T13:10:12.999Z</time></trkpt><trkpt lat="43.31198537055175" lon="10.765050327680827"><ele>101.0</ele><time>2026-04-18T13:10:13.999Z</time></trkpt><trkpt lat="43.311903977769326" lon="10.765179124619086"><ele>101.75</ele><time>2026-04-18T13:10:14.999Z</time></trkpt><trkpt lat="43.31183064582598" lon="10.765320653132333"><ele>102.5</ele><time>2026-04-18T13:10:15.999Z</time></trkpt><trkpt lat="43.311763534593425" lon="10.765473201490922"><ele>103.25</ele><time>2026-04-18T13:10:16.999Z</time></trkpt><trkpt lat="43.31170407412585" lon="10.76563189688274"><ele>104.0</ele><time>2026-04-18T13:10:17.999Z</time></trkpt><trkpt lat="43.3116389214258" lon="10.765777762371048"><ele>104.0</ele><time>2026-04-18T13:10:18.999Z</time></trkpt><trkpt lat="43.311574749947845" lon="10.765911420627193"><ele>104.0</ele><time>2026-04-18T13:10:19.999Z</time></trkpt><trkpt lat="43.31149965345687" lon="10.766019836135651"><ele>104.0</ele><time>2026-04-18T13:10:20.999Z</time></trkpt><trkpt lat="43.31140893721285" lon="10.766100613311112"><ele>104.0</ele><time>2026-04-18T13:10:21.999Z</time></trkpt><trkpt lat="43.311310504406634" lon="10.766108005222518"><ele>104.0</ele><time>2026-04-18T13:10:22.999Z</time></trkpt><trkpt lat="43.31121926018771" lon="10.766086800468596"><ele>105.80000000000001</ele><time>2026-04-18T13:10:23.999Z</time></trkpt><trkpt lat="43.311111436203966" lon="10.766085441547792"><ele>107.60000000000001</ele><time>2026-04-18T13:10:24.999Z</time></trkpt><trkpt lat="43.31102508136652" lon="10.766057660082437"><ele>109.4</ele><time>2026-04-18T13:10:25.999Z</time></trkpt><trkpt lat="43.310917916302486" lon="10.766020215014343"><ele>111.2</ele><time>2026-04-18T13:10:26.999Z</time></trkpt><trkpt lat="43.31080904970173" lon="10.76598744407355"><ele>113.0</ele><time>2026-04-18T13:10:27.999Z</time></trkpt><trkpt lat="43.310696832087366" lon="10.76595610410189"><ele>113.0</ele><time>2026-04-18T13:10:28.999Z</time></trkpt><trkpt lat="43.31058943390816" lon="10.765916967032533"><ele>113.0</ele><time>2026-04-18T13:10:29.999Z</time></trkpt><trkpt lat="43.310485651692645" lon="10.765855592672281"><ele>113.0</ele><time>2026-04-18T13:10:30.999Z</time></trkpt><trkpt lat="43.310387802086616" lon="10.765778406800711"><ele>113.0</ele><time>2026-04-18T13:10:31.999Z</time></trkpt><trkpt lat="43.31029021642961" lon="10.765689759024365"><ele>116.25</ele><time>2026-04-18T13:10:33Z</time></trkpt><trkpt lat="43.31019323894257" lon="10.765592007928877"><ele>119.5</ele><time>2026-04-18T13:10:34Z</time></trkpt><trkpt lat="43.31010516348568" lon="10.765479999383217"><ele>122.75</ele><time>2026-04-18T13:10:35Z</time></trkpt><trkpt lat="43.31002885144154" lon="10.765353088121008"><ele>126.0</ele><time>2026-04-18T13:10:36Z</time></trkpt><trkpt lat="43.30996324970844" lon="10.765212582795927"><ele>126.25</ele><time>2026-04-18T13:10:37Z</time></trkpt><trkpt lat="43.309910800516406" lon="10.765067495756877"><ele>126.5</ele><time>2026-04-18T13:10:38Z</time></trkpt><trkpt lat="43.309866178287365" lon="10.76491086786329"><ele>126.75</ele><time>2026-04-18T13:10:39Z</time></trkpt><trkpt lat="43.309829148653414" lon="10.764758454239159"><ele>127.0</ele><time>2026-04-18T13:10:40Z</time></trkpt><trkpt lat="43.309789219731435" lon="10.764610873740635"><ele>127.0</ele><time>2026-04-18T13:10:41Z</time></trkpt><trkpt lat="43.30974961919635" lon="10.764472363269567"><ele>126.99999999999999</ele><time>2026-04-18T13:10:42Z</time></trkpt><trkpt lat="43.309722470045855" lon="10.764341931093789"><ele>126.99999999999999</ele><time>2026-04-18T13:10:43Z</time></trkpt><trkpt lat="43.309658107620734" lon="10.764242733897854"><ele>127.0</ele><time>2026-04-18T13:10:44Z</time></trkpt><trkpt lat="43.30960897700067" lon="10.764151678422962"><ele>127.0</ele><time>2026-04-18T13:10:45Z</time></trkpt><trkpt lat="43.30955286341608" lon="10.764060127966772"><ele>128.6</ele><time>2026-04-18T13:10:46Z</time></trkpt><trkpt lat="43.30946538687974" lon="10.764029405362775"><ele>130.2</ele><time>2026-04-18T13:10:47Z</time></trkpt><trkpt lat="43.30938015325702" lon="10.764112470695824"><ele>131.8</ele><time>2026-04-18T13:10:48Z</time></trkpt><trkpt lat="43.30932596121852" lon="10.764224528808805"><ele>133.4</ele><time>2026-04-18T13:10:49Z</time></trkpt><trkpt lat="43.30925432434192" lon="10.764314018250872"><ele>135.0</ele><time>2026-04-18T13:10:50Z</time></trkpt><trkpt lat="43.30918101630949" lon="10.76442260439868"><ele>136.75</ele><time>2026-04-18T13:10:51Z</time></trkpt><trkpt lat="43.30910228509313" lon="10.764532699547813"><ele>138.5</ele><time>2026-04-18T13:10:52Z</time></trkpt><trkpt lat="43.30901272015868" lon="10.76463036938172"><ele>140.25</ele><time>2026-04-18T13:10:53Z</time></trkpt><trkpt lat="43.30890478772514" lon="10.764708863894944"><ele>142.0</ele><time>2026-04-18T13:10:54Z</time></trkpt><trkpt lat="43.308797287543904" lon="10.764779423373756"><ele>142.0</ele><time>2026-04-18T13:10:55Z</time></trkpt><trkpt lat="43.30868768751736" lon="10.764853244244357"><ele>142.0</ele><time>2026-04-18T13:10:56Z</time></trkpt><trkpt lat="43.308574103197145" lon="10.764941896091404"><ele>142.0</ele><time>2026-04-18T13:10:57Z</time></trkpt><trkpt lat="43.30845844490053" lon="10.765039131308654"><ele>142.0</ele><time>2026-04-18T13:10:58Z</time></trkpt><trkpt lat="43.30833808083754" lon="10.765136256259463"><ele>142.75</ele><time>2026-04-18T13:10:59Z</time></trkpt><trkpt lat="43.30820779191932" lon="10.76523631473644"><ele>143.5</ele><time>2026-04-18T13:11:00Z</time></trkpt><trkpt lat="43.30807422724787" lon="10.765328794734582"><ele>144.25</ele><time>2026-04-18T13:11:01Z</time></trkpt><trkpt lat="43.30795255556238" lon="10.765415695989201"><ele>145.0</ele><time>2026-04-18T13:11:02Z</time></trkpt><trkpt lat="43.30784809368244" lon="10.765505191215262"><ele>145.0</ele><time>2026-04-18T13:11:03Z</time></trkpt><trkpt lat="43.30774149794016" lon="10.765584500965447"><ele>145.0</ele><time>2026-04-18T13:11:04Z</time></trkpt><trkpt lat="43.30764386539238" lon="10.765669397974904"><ele>145.0</ele><time>2026-04-18T13:11:05Z</time></trkpt><trkpt lat="43.30755788139149" lon="10.765766958283455"><ele>145.0</ele><time>2026-04-18T13:11:06Z</time></trkpt><trkpt lat="43.30746558365738" lon="10.765875279364137"><ele>145.0</ele><time>2026-04-18T13:11:07Z</time></trkpt><trkpt lat="43.307372702164216" lon="10.765992734439257"><ele>145.0</ele><time>2026-04-18T13:11:08Z</time></trkpt><trkpt lat="43.307286908537804" lon="10.766120290852879"><ele>145.0</ele><time>2026-04-18T13:11:09Z</time></trkpt><trkpt lat="43.30720623081685" lon="10.766257331003128"><ele>145.0</ele><time>2026-04-18T13:11:10Z</time></trkpt><trkpt lat="43.30713346642554" lon="10.766408118996488"><ele>144.0</ele><time>2026-04-18T13:11:11Z</time></trkpt><trkpt lat="43.3070670330151" lon="10.76656372077824"><ele>143.0</ele><time>2026-04-18T13:11:12Z</time></trkpt><trkpt lat="43.306998929632684" lon="10.766713475049576"><ele>142.0</ele><time>2026-04-18T13:11:13Z</time></trkpt><trkpt lat="43.306912874273735" lon="10.766832689712585"><ele>141.0</ele><time>2026-04-18T13:11:14Z</time></trkpt><trkpt lat="43.30679265672559" lon="10.76691753430248"><ele>140.75</ele><time>2026-04-18T13:11:15Z</time></trkpt><trkpt lat="43.306657362518365" lon="10.766937727680894"><ele>140.5</ele><time>2026-04-18T13:11:16Z</time></trkpt><trkpt lat="43.30652895870372" lon="10.767005891863574"><ele>140.25</ele><time>2026-04-18T13:11:17Z</time></trkpt><trkpt lat="43.306389916285866" lon="10.767048457127148"><ele>140.0</ele><time>2026-04-18T13:11:18Z</time></trkpt><trkpt lat="43.30625706887087" lon="10.767130712486674"><ele>141.0</ele><time>2026-04-18T13:11:19Z</time></trkpt><trkpt lat="43.30614123797749" lon="10.767243714411173"><ele>142.0</ele><time>2026-04-18T13:11:20Z</time></trkpt><trkpt lat="43.30601633864821" lon="10.767322409656327"><ele>143.0</ele><time>2026-04-18T13:11:21Z</time></trkpt><trkpt lat="43.305887917194646" lon="10.767366345296285"><ele>144.0</ele><time>2026-04-18T13:11:22Z</time></trkpt><trkpt lat="43.305755865748466" lon="10.767385433725241"><ele>144.0</ele><time>2026-04-18T13:11:23Z</time></trkpt><trkpt lat="43.305621057226354" lon="10.767384884332806"><ele>144.0</ele><time>2026-04-18T13:11:24Z</time></trkpt><trkpt lat="43.30548817647826" lon="10.767378231883164"><ele>144.0</ele><time>2026-04-18T13:11:25Z</time></trkpt><trkpt lat="43.30536872693103" lon="10.767372281532122"><ele>144.0</ele><time>2026-04-18T13:11:26Z</time></trkpt><trkpt lat="43.305250165849245" lon="10.767374710124953"><ele>144.8</ele><time>2026-04-18T13:11:27Z</time></trkpt><trkpt lat="43.30514748869973" lon="10.767370627045784"><ele>145.60000000000002</ele><time>2026-04-18T13:11:28Z</time></trkpt><trkpt lat="43.305049008242264" lon="10.767364421373378"><ele>146.4</ele><time>2026-04-18T13:11:29Z</time></trkpt><trkpt lat="43.30494478871327" lon="10.767389828893826"><ele>147.20000000000002</ele><time>2026-04-18T13:11:30Z</time></trkpt><trkpt lat="43.30483762280677" lon="10.767366302944861"><ele>148.0</ele><time>2026-04-18T13:11:31Z</time></trkpt><trkpt lat="43.30472150045822" lon="10.767333550504679"><ele>148.75</ele><time>2026-04-18T13:11:32Z</time></trkpt><trkpt lat="43.30460562150574" lon="10.767295397874905"><ele>149.5</ele><time>2026-04-18T13:11:33Z</time></trkpt><trkpt lat="43.30448031890875" lon="10.767248770795547"><ele>150.25</ele><time>2026-04-18T13:11:34Z</time></trkpt><trkpt lat="43.30435209480411" lon="10.767188657466297"><ele>151.0</ele><time>2026-04-18T13:11:35Z</time></trkpt><trkpt lat="43.30422019300142" lon="10.76713114923864"><ele>151.0</ele><time>2026-04-18T13:11:36Z</time></trkpt><trkpt lat="43.304085776924396" lon="10.767086974547347"><ele>151.0</ele><time>2026-04-18T13:11:37Z</time></trkpt><trkpt lat="43.30394586312466" lon="10.767060132931249"><ele>151.0</ele><time>2026-04-18T13:11:38Z</time></trkpt><trkpt lat="43.3038031125454" lon="10.767070586966952"><ele>151.0</ele><time>2026-04-18T13:11:39Z</time></trkpt><trkpt lat="43.30366630411799" lon="10.767110603107037"><ele>151.75</ele><time>2026-04-18T13:11:40Z</time></trkpt><trkpt lat="43.303524682616015" lon="10.767139317764803"><ele>152.5</ele><time>2026-04-18T13:11:41Z</time></trkpt><trkpt lat="43.303383357365085" lon="10.767188762180648"><ele>153.25</ele><time>2026-04-18T13:11:42Z</time></trkpt><trkpt lat="43.3032424521803" lon="10.76723647637572"><ele>154.0</ele><time>2026-04-18T13:11:43Z</time></trkpt><trkpt lat="43.30310198406234" lon="10.767285062387067"><ele>154.25</ele><time>2026-04-18T13:11:44.001Z</time></trkpt><trkpt lat="43.30296027936206" lon="10.767338259045754"><ele>154.5</ele><time>2026-04-18T13:11:45.001Z</time></trkpt><trkpt lat="43.30281769352647" lon="10.767391764184964"><ele>154.75</ele><time>2026-04-18T13:11:46.001Z</time></trkpt><trkpt lat="43.30267494378153" lon="10.767440527214594"><ele>155.0</ele><time>2026-04-18T13:11:47.001Z</time></trkpt><trkpt lat="43.30253037010657" lon="10.767491791875342"><ele>155.0</ele><time>2026-04-18T13:11:48.001Z</time></trkpt><trkpt lat="43.30238183777589" lon="10.767544395293681"><ele>155.0</ele><time>2026-04-18T13:11:49.001Z</time></trkpt><trkpt lat="43.302229897455405" lon="10.767600146070395"><ele>155.0</ele><time>2026-04-18T13:11:50.001Z</time></trkpt><trkpt lat="43.30207096901945" lon="10.767654831038202"><ele>154.66666666666666</ele><time>2026-04-18T13:11:51.001Z</time></trkpt><trkpt lat="43.301910273520484" lon="10.767717492273036"><ele>154.33333333333334</ele><time>2026-04-18T13:11:52.001Z</time></trkpt><trkpt lat="43.301747911009" lon="10.767778031049286"><ele>154.0</ele><time>2026-04-18T13:11:53.001Z</time></trkpt><trkpt lat="43.30158327023333" lon="10.767841751054565"><ele>154.0</ele><time>2026-04-18T13:11:53.999Z</time></trkpt><trkpt lat="43.30141774664692" lon="10.767905303905604"><ele>154.0</ele><time>2026-04-18T13:11:54.999Z</time></trkpt><trkpt lat="43.301251220961795" lon="10.767970207649409"><ele>154.0</ele><time>2026-04-18T13:11:55.999Z</time></trkpt><trkpt lat="43.30108451285403" lon="10.768034442866737"><ele>155.0</ele><time>2026-04-18T13:11:56.999Z</time></trkpt><trkpt lat="43.30092128794392" lon="10.768098951744333"><ele>156.0</ele><time>2026-04-18T13:11:57.999Z</time></trkpt><trkpt lat="43.3007588976517" lon="10.76815859638522"><ele>157.0</ele><time>2026-04-18T13:11:58.999Z</time></trkpt><trkpt lat="43.300596124479874" lon="10.768203915499798"><ele>159.33333333333334</ele><time>2026-04-18T13:11:59.999Z</time></trkpt><trkpt lat="43.300431674798894" lon="10.768234969761371"><ele>161.66666666666666</ele><time>2026-04-18T13:12:00.999Z</time></trkpt><trkpt lat="43.30026896992137" lon="10.768256574779533"><ele>164.0</ele><time>2026-04-18T13:12:01.999Z</time></trkpt><trkpt lat="43.300109763909774" lon="10.768269244225339"><ele>164.0</ele><time>2026-04-18T13:12:02.999Z</time></trkpt><trkpt lat="43.29995419374039" lon="10.768268436083776"><ele>164.0</ele><time>2026-04-18T13:12:03.999Z</time></trkpt><trkpt lat="43.29980478341833" lon="10.768256138254637"><ele>164.0</ele><time>2026-04-18T13:12:04.999Z</time></trkpt><trkpt lat="43.299655812290446" lon="10.768224498701374"><ele>166.0</ele><time>2026-04-18T13:12:05.999Z</time></trkpt><trkpt lat="43.29950962330366" lon="10.768182098380466"><ele>168.0</ele><time>2026-04-18T13:12:06.999Z</time></trkpt><trkpt lat="43.29936290453663" lon="10.768134918869682"><ele>170.0</ele><time>2026-04-18T13:12:07.999Z</time></trkpt><trkpt lat="43.29921733853739" lon="10.768083697376186"><ele>170.0</ele><time>2026-04-18T13:12:08.999Z</time></trkpt><trkpt lat="43.29907581102897" lon="10.768035154557"><ele>170.0</ele><time>2026-04-18T13:12:09.999Z</time></trkpt><trkpt lat="43.29893806430875" lon="10.767983646973834"><ele>170.0</ele><time>2026-04-18T13:12:10.999Z</time></trkpt><trkpt lat="43.29880364227862" lon="10.767934112686785"><ele>170.0</ele><time>2026-04-18T13:12:11.999Z</time></trkpt><trkpt lat="43.29867217140594" lon="10.767879457023879"><ele>172.5</ele><time>2026-04-18T13:12:12.999Z</time></trkpt><trkpt lat="43.29854345972319" lon="10.76782119243811"><ele>175.0</ele><time>2026-04-18T13:12:13.999Z</time></trkpt><trkpt lat="43.29841727379715" lon="10.767756682978316"><ele>177.5</ele><time>2026-04-18T13:12:14.999Z</time></trkpt><trkpt lat="43.298291322970165" lon="10.767694104119247"><ele>180.0</ele><time>2026-04-18T13:12:15.999Z</time></trkpt><trkpt lat="43.29817869740423" lon="10.76762911981162"><ele>182.0</ele><time>2026-04-18T13:12:16.999Z</time></trkpt><trkpt lat="43.29805145869911" lon="10.767638563821837"><ele>184.0</ele><time>2026-04-18T13:12:17.999Z</time></trkpt><trkpt lat="43.29792898189278" lon="10.767649605879313"><ele>186.0</ele><time>2026-04-18T13:12:18.999Z</time></trkpt><trkpt lat="43.29780977343228" lon="10.76768246026707"><ele>188.0</ele><time>2026-04-18T13:12:19.999Z</time></trkpt><trkpt lat="43.297687722383785" lon="10.76771738415812"><ele>188.0</ele><time>2026-04-18T13:12:20.999Z</time></trkpt><trkpt lat="43.29756841181443" lon="10.767763412624928"><ele>188.0</ele><time>2026-04-18T13:12:22Z</time></trkpt><trkpt lat="43.297448342146886" lon="10.767827287895008"><ele>188.0</ele><time>2026-04-18T13:12:23Z</time></trkpt><trkpt lat="43.297333691688856" lon="10.767913137072382"><ele>188.0</ele><time>2026-04-18T13:12:24Z</time></trkpt><trkpt lat="43.29722462956659" lon="10.76801817801529"><ele>191.0</ele><time>2026-04-18T13:12:25Z</time></trkpt><trkpt lat="43.29713291296057" lon="10.768116823527627"><ele>194.0</ele><time>2026-04-18T13:12:26Z</time></trkpt><trkpt lat="43.29704565264384" lon="10.76820773585552"><ele>197.0</ele><time>2026-04-18T13:12:27Z</time></trkpt><trkpt lat="43.29694745374259" lon="10.76829468503802"><ele>200.0</ele><time>2026-04-18T13:12:28Z</time></trkpt><trkpt lat="43.296834965098974" lon="10.768361029114459"><ele>200.0</ele><time>2026-04-18T13:12:29Z</time></trkpt><trkpt lat="43.29671028589783" lon="10.768404906150668"><ele>200.0</ele><time>2026-04-18T13:12:30Z</time></trkpt><trkpt lat="43.29658308100406" lon="10.768432171254672"><ele>200.0</ele><time>2026-04-18T13:12:31Z</time></trkpt><trkpt lat="43.29645338989195" lon="10.768409521453464"><ele>200.0</ele><time>2026-04-18T13:12:32Z</time></trkpt><trkpt lat="43.29632097468328" lon="10.768419126260307"><ele>201.0</ele><time>2026-04-18T13:12:33Z</time></trkpt><trkpt lat="43.296192772237895" lon="10.768398763569824"><ele>202.0</ele><time>2026-04-18T13:12:34Z</time></trkpt><trkpt lat="43.29606319805347" lon="10.768402178771895"><ele>203.0</ele><time>2026-04-18T13:12:35Z</time></trkpt><trkpt lat="43.295932929570014" lon="10.76839299042993"><ele>204.0</ele><time>2026-04-18T13:12:36Z</time></trkpt><trkpt lat="43.29581037138781" lon="10.768384178013571"><ele>204.0</ele><time>2026-04-18T13:12:37Z</time></trkpt><trkpt lat="43.295691120661" lon="10.768379746665033"><ele>204.0</ele><time>2026-04-18T13:12:38Z</time></trkpt><trkpt lat="43.29556186326201" lon="10.768372155305643"><ele>204.0</ele><time>2026-04-18T13:12:39Z</time></trkpt><trkpt lat="43.29543700338174" lon="10.76842493661051"><ele>204.0</ele><time>2026-04-18T13:12:40Z</time></trkpt><trkpt lat="43.29530461861704" lon="10.768453507569502"><ele>205.25</ele><time>2026-04-18T13:12:41Z</time></trkpt><trkpt lat="43.295171769102645" lon="10.768482859547735"><ele>206.5</ele><time>2026-04-18T13:12:42Z</time></trkpt><trkpt lat="43.29503549283652" lon="10.76850893188969"><ele>207.75</ele><time>2026-04-18T13:12:43Z</time></trkpt><trkpt lat="43.2948975193649" lon="10.768525793027568"><ele>209.0</ele><time>2026-04-18T13:12:44Z</time></trkpt><trkpt lat="43.29475959659648" lon="10.768523733802686"><ele>210.25</ele><time>2026-04-18T13:12:45Z</time></trkpt><trkpt lat="43.29462941348413" lon="10.76848593666971"><ele>211.5</ele><time>2026-04-18T13:12:46Z</time></trkpt><trkpt lat="43.29450504767687" lon="10.768458244333642"><ele>212.75</ele><time>2026-04-18T13:12:47Z</time></trkpt><trkpt lat="43.294383823079706" lon="10.768443103592691"><ele>214.0</ele><time>2026-04-18T13:12:48Z</time></trkpt><trkpt lat="43.29425318589663" lon="10.768451283374231"><ele>214.0</ele><time>2026-04-18T13:12:49Z</time></trkpt><trkpt lat="43.29411430512416" lon="10.768495379212505"><ele>214.0</ele><time>2026-04-18T13:12:50Z</time></trkpt><trkpt lat="43.29397986197479" lon="10.76855328997234"><ele>214.0</ele><time>2026-04-18T13:12:51Z</time></trkpt><trkpt lat="43.29383565395461" lon="10.768583636225088"><ele>214.0</ele><time>2026-04-18T13:12:52Z</time></trkpt><trkpt lat="43.293695187926325" lon="10.768571759615028"><ele>209.5</ele><time>2026-04-18T13:12:53Z</time></trkpt><trkpt lat="43.293552412040526" lon="10.76857862644796"><ele>205.0</ele><time>2026-04-18T13:12:54Z</time></trkpt><trkpt lat="43.29340814769829" lon="10.768605866273486"><ele>200.5</ele><time>2026-04-18T13:12:55Z</time></trkpt><trkpt lat="43.29327112256422" lon="10.768629618985539"><ele>196.0</ele><time>2026-04-18T13:12:56Z</time></trkpt><trkpt lat="43.29313990803794" lon="10.768615287766975"><ele>196.25</ele><time>2026-04-18T13:12:57Z</time></trkpt><trkpt lat="43.29300214988115" lon="10.768578029274638"><ele>196.5</ele><time>2026-04-18T13:12:58Z</time></trkpt><trkpt lat="43.2928647367113" lon="10.768533401485524"><ele>196.75</ele><time>2026-04-18T13:12:59Z</time></trkpt><trkpt lat="43.29272080024804" lon="10.768486655087216"><ele>197.0</ele><time>2026-04-18T13:13:00Z</time></trkpt><trkpt lat="43.29257483658867" lon="10.76843620284277"><ele>199.5</ele><time>2026-04-18T13:13:01Z</time></trkpt><trkpt lat="43.292432469617545" lon="10.768381758254428"><ele>202.0</ele><time>2026-04-18T13:13:02Z</time></trkpt><trkpt lat="43.29228843189497" lon="10.76834884736197"><ele>204.5</ele><time>2026-04-18T13:13:03Z</time></trkpt><trkpt lat="43.2921491012816" lon="10.768293424610668"><ele>207.0</ele><time>2026-04-18T13:13:04Z</time></trkpt><trkpt lat="43.292009138579935" lon="10.768228101075767"><ele>207.0</ele><time>2026-04-18T13:13:05Z</time></trkpt><trkpt lat="43.291868011531285" lon="10.768173591402704"><ele>207.0</ele><time>2026-04-18T13:13:06Z</time></trkpt><trkpt lat="43.29172303849898" lon="10.76811441996191"><ele>207.0</ele><time>2026-04-18T13:13:07Z</time></trkpt><trkpt lat="43.291565821414466" lon="10.768128513089227"><ele>208.33333333333331</ele><time>2026-04-18T13:13:08Z</time></trkpt><trkpt lat="43.29141357972812" lon="10.768124368346136"><ele>209.66666666666666</ele><time>2026-04-18T13:13:09.001Z</time></trkpt><trkpt lat="43.29125750955614" lon="10.76811808657541"><ele>211.0</ele><time>2026-04-18T13:13:10.001Z</time></trkpt><trkpt lat="43.29110044480434" lon="10.76810893553306"><ele>211.0</ele><time>2026-04-18T13:13:11.001Z</time></trkpt><trkpt lat="43.290945421507146" lon="10.768107524362327"><ele>211.0</ele><time>2026-04-18T13:13:12.001Z</time></trkpt><trkpt lat="43.29078975710622" lon="10.768107064317228"><ele>211.0</ele><time>2026-04-18T13:13:13.001Z</time></trkpt><trkpt lat="43.290642695888316" lon="10.768103803966254"><ele>213.5</ele><time>2026-04-18T13:13:14.001Z</time></trkpt><trkpt lat="43.29049144974545" lon="10.768101909057842"><ele>216.0</ele><time>2026-04-18T13:13:15.001Z</time></trkpt><trkpt lat="43.29034363255242" lon="10.768098402369215"><ele>218.5</ele><time>2026-04-18T13:13:16.001Z</time></trkpt><trkpt lat="43.2901998299927" lon="10.768095073746876"><ele>221.0</ele><time>2026-04-18T13:13:17.001Z</time></trkpt><trkpt lat="43.290055438663174" lon="10.768089171597259"><ele>221.0</ele><time>2026-04-18T13:13:18.001Z</time></trkpt><trkpt lat="43.289911720836784" lon="10.768084049721956"><ele>221.0</ele><time>2026-04-18T13:13:19.001Z</time></trkpt><trkpt lat="43.28977209654587" lon="10.768077059365073"><ele>221.0</ele><time>2026-04-18T13:13:20.001Z</time></trkpt><trkpt lat="43.2896344087966" lon="10.768071689990517"><ele>221.0</ele><time>2026-04-18T13:13:21.001Z</time></trkpt><trkpt lat="43.28949915357729" lon="10.76807089444176"><ele>223.5</ele><time>2026-04-18T13:13:22.001Z</time></trkpt><trkpt lat="43.28936612146249" lon="10.768069044910384"><ele>226.0</ele><time>2026-04-18T13:13:23.001Z</time></trkpt><trkpt lat="43.289237765634326" lon="10.76806695260841"><ele>228.5</ele><time>2026-04-18T13:13:24.001Z</time></trkpt><trkpt lat="43.28911633065743" lon="10.768068857340216"><ele>231.0</ele><time>2026-04-18T13:13:25.001Z</time></trkpt><trkpt lat="43.289000156572" lon="10.768072689900254"><ele>232.20000000000002</ele><time>2026-04-18T13:13:26.001Z</time></trkpt><trkpt lat="43.28888924005633" lon="10.768074561379095"><ele>233.40000000000003</ele><time>2026-04-18T13:13:27.001Z</time></trkpt><trkpt lat="43.28878309895027" lon="10.768047302244112"><ele>234.6</ele><time>2026-04-18T13:13:28.001Z</time></trkpt><trkpt lat="43.288679530736516" lon="10.768019831820332"><ele>235.8</ele><time>2026-04-18T13:13:29.001Z</time></trkpt><trkpt lat="43.28858888353593" lon="10.767967282224951"><ele>237.0</ele><time>2026-04-18T13:13:30.001Z</time></trkpt><trkpt lat="43.288508388095146" lon="10.767883364859957"><ele>237.0</ele><time>2026-04-18T13:13:31.001Z</time></trkpt><trkpt lat="43.28843177814515" lon="10.767794392802049"><ele>237.0</ele><time>2026-04-18T13:13:32.001Z</time></trkpt><trkpt lat="43.288359764831526" lon="10.767697526768172"><ele>237.0</ele><time>2026-04-18T13:13:33.001Z</time></trkpt><trkpt lat="43.28828892299382" lon="10.767598480442613"><ele>237.0</ele><time>2026-04-18T13:13:34.001Z</time></trkpt><trkpt lat="43.28822112315171" lon="10.767492281374034"><ele>237.0</ele><time>2026-04-18T13:13:35.001Z</time></trkpt><trkpt lat="43.28816372931912" lon="10.76737816916507"><ele>239.6</ele><time>2026-04-18T13:13:36.001Z</time></trkpt><trkpt lat="43.2881163070721" lon="10.76725452693038"><ele>242.2</ele><time>2026-04-18T13:13:37.001Z</time></trkpt><trkpt lat="43.2880817706633" lon="10.767124527388466"><ele>244.8</ele><time>2026-04-18T13:13:38.001Z</time></trkpt><trkpt lat="43.28806114370606" lon="10.766987419607869"><ele>247.4</ele><time>2026-04-18T13:13:39.001Z</time></trkpt><trkpt lat="43.288037020171295" lon="10.7668477803557"><ele>250.0</ele><time>2026-04-18T13:13:40.001Z</time></trkpt><trkpt lat="43.287998054187476" lon="10.76671035833993"><ele>253.75</ele><time>2026-04-18T13:13:41.001Z</time></trkpt><trkpt lat="43.28793816841758" lon="10.766578240458324"><ele>257.5</ele><time>2026-04-18T13:13:42.001Z</time></trkpt><trkpt lat="43.28786725119081" lon="10.766453740157454"><ele>261.25</ele><time>2026-04-18T13:13:43.001Z</time></trkpt><trkpt lat="43.28778433139121" lon="10.7663382076908"><ele>265.0</ele><time>2026-04-18T13:13:44.001Z</time></trkpt><trkpt lat="43.28768879504565" lon="10.766233412330578"><ele>265.0</ele><time>2026-04-18T13:13:45.001Z</time></trkpt><trkpt lat="43.2875873161116" lon="10.766139427838802"><ele>265.0</ele><time>2026-04-18T13:13:46.001Z</time></trkpt><trkpt lat="43.2874836367414" lon="10.766047305744376"><ele>265.0</ele><time>2026-04-18T13:13:47.001Z</time></trkpt><trkpt lat="43.28738101283843" lon="10.765957842949204"><ele>265.0</ele><time>2026-04-18T13:13:48.001Z</time></trkpt><trkpt lat="43.28727482003412" lon="10.765872163757543"><ele>268.5</ele><time>2026-04-18T13:13:49.001Z</time></trkpt><trkpt lat="43.287166396847205" lon="10.765787454697023"><ele>272.0</ele><time>2026-04-18T13:13:50.001Z</time></trkpt><trkpt lat="43.28704867018255" lon="10.765718714094149"><ele>275.5</ele><time>2026-04-18T13:13:51.001Z</time></trkpt><trkpt lat="43.28693021842057" lon="10.765672872688587"><ele>279.0</ele><time>2026-04-18T13:13:52.001Z</time></trkpt><trkpt lat="43.28681175627321" lon="10.765642115012557"><ele>279.0</ele><time>2026-04-18T13:13:53.001Z</time></trkpt><trkpt lat="43.28669213439416" lon="10.765614184153309"><ele>279.0</ele><time>2026-04-18T13:13:54.001Z</time></trkpt><trkpt lat="43.28657592478187" lon="10.765591468461405"><ele>279.0</ele><time>2026-04-18T13:13:55.001Z</time></trkpt><trkpt lat="43.28645843222165" lon="10.765567697035905"><ele>279.0</ele><time>2026-04-18T13:13:56.001Z</time></trkpt><trkpt lat="43.28633749836648" lon="10.765545142161196"><ele>279.75</ele><time>2026-04-18T13:13:57.001Z</time></trkpt><trkpt lat="43.28620926752585" lon="10.765568522953627"><ele>280.5</ele><time>2026-04-18T13:13:58.001Z</time></trkpt><trkpt lat="43.28608920681124" lon="10.765574993153809"><ele>281.25</ele><time>2026-04-18T13:13:59.001Z</time></trkpt><trkpt lat="43.28597083044896" lon="10.765581136345842"><ele>282.0</ele><time>2026-04-18T13:13:59.999Z</time></trkpt><trkpt lat="43.28585218795601" lon="10.765582643836021"><ele>282.0</ele><time>2026-04-18T13:14:00.999Z</time></trkpt><trkpt lat="43.285728207043775" lon="10.7655768504706"><ele>282.0</ele><time>2026-04-18T13:14:01.999Z</time></trkpt><trkpt lat="43.28560109924261" lon="10.765560097566082"><ele>282.0</ele><time>2026-04-18T13:14:02.999Z</time></trkpt><trkpt lat="43.285472108468106" lon="10.76552894282792"><ele>282.0</ele><time>2026-04-18T13:14:03.999Z</time></trkpt><trkpt lat="43.28534438960404" lon="10.765491771333286"><ele>282.25</ele><time>2026-04-18T13:14:04.999Z</time></trkpt><trkpt lat="43.28521321011364" lon="10.765451718398547"><ele>282.5</ele><time>2026-04-18T13:14:05.999Z</time></trkpt><trkpt lat="43.28507983294523" lon="10.765416408692994"><ele>282.75</ele><time>2026-04-18T13:14:06.999Z</time></trkpt><trkpt lat="43.28494693281116" lon="10.765378282680702"><ele>283.0</ele><time>2026-04-18T13:14:07.999Z</time></trkpt><trkpt lat="43.284815780764625" lon="10.765338322868988"><ele>285.5</ele><time>2026-04-18T13:14:08.999Z</time></trkpt><trkpt lat="43.2846932818745" lon="10.765295413754085"><ele>288.0</ele><time>2026-04-18T13:14:09.999Z</time></trkpt><trkpt lat="43.284569620263824" lon="10.76525634601869"><ele>290.5</ele><time>2026-04-18T13:14:10.999Z</time></trkpt><trkpt lat="43.28444905859803" lon="10.765214386323175"><ele>293.0</ele><time>2026-04-18T13:14:11.999Z</time></trkpt><trkpt lat="43.28433018035923" lon="10.765167583341212"><ele>296.0</ele><time>2026-04-18T13:14:12.999Z</time></trkpt><trkpt lat="43.28421392565944" lon="10.7651276672141"><ele>299.0</ele><time>2026-04-18T13:14:13.999Z</time></trkpt><trkpt lat="43.28409684079473" lon="10.765084075592492"><ele>302.0</ele><time>2026-04-18T13:14:14.999Z</time></trkpt><trkpt lat="43.28397327527225" lon="10.76510545734849"><ele>305.0</ele><time>2026-04-18T13:14:15.999Z</time></trkpt><trkpt lat="43.28385714151622" lon="10.765109700188182"><ele>306.0</ele><time>2026-04-18T13:14:16.999Z</time></trkpt><trkpt lat="43.28374332408664" lon="10.76511448413445"><ele>307.0</ele><time>2026-04-18T13:14:17.999Z</time></trkpt><trkpt lat="43.28363927740361" lon="10.765110235798673"><ele>308.0</ele><time>2026-04-18T13:14:18.999Z</time></trkpt><trkpt lat="43.283538622034165" lon="10.76511276382341"><ele>309.0</ele><time>2026-04-18T13:14:19.999Z</time></trkpt><trkpt lat="43.28344465491927" lon="10.7650988472768"><ele>310.0</ele><time>2026-04-18T13:14:20.999Z</time></trkpt><trkpt lat="43.283358504890806" lon="10.765154262888732"><ele>309.66666666666663</ele><time>2026-04-18T13:14:21.999Z</time></trkpt><trkpt lat="43.28329423639662" lon="10.765217716457471"><ele>309.3333333333333</ele><time>2026-04-18T13:14:23Z</time></trkpt><trkpt lat="43.28324811546574" lon="10.765308392103593"><ele>309.0</ele><time>2026-04-18T13:14:24Z</time></trkpt><trkpt lat="43.283224829666736" lon="10.765420229179744"><ele>308.6666666666667</ele><time>2026-04-18T13:14:25Z</time></trkpt><trkpt lat="43.28322126448597" lon="10.765552485724866"><ele>308.33333333333337</ele><time>2026-04-18T13:14:26Z</time></trkpt><trkpt lat="43.28322645988009" lon="10.76569380234219"><ele>308.0</ele><time>2026-04-18T13:14:27Z</time></trkpt><trkpt lat="43.28323067950751" lon="10.765837277314764"><ele>308.0</ele><time>2026-04-18T13:14:28Z</time></trkpt><trkpt lat="43.283256322738424" lon="10.765978538889868"><ele>308.0</ele><time>2026-04-18T13:14:29Z</time></trkpt><trkpt lat="43.28329148673336" lon="10.766123097575766"><ele>308.0</ele><time>2026-04-18T13:14:30Z</time></trkpt><trkpt lat="43.28333463289881" lon="10.76627579305404"><ele>308.0</ele><time>2026-04-18T13:14:31Z</time></trkpt><trkpt lat="43.28338415049278" lon="10.766420548639054"><ele>309.8</ele><time>2026-04-18T13:14:32Z</time></trkpt><trkpt lat="43.28343402699848" lon="10.766551271480665"><ele>311.6</ele><time>2026-04-18T13:14:33Z</time></trkpt><trkpt lat="43.283480356846624" lon="10.766672652314448"><ele>313.4</ele><time>2026-04-18T13:14:34Z</time></trkpt><trkpt lat="43.28351689944389" lon="10.766790018901157"><ele>315.2</ele><time>2026-04-18T13:14:35Z</time></trkpt><trkpt lat="43.283519571637775" lon="10.766925437071984"><ele>317.0</ele><time>2026-04-18T13:14:36Z</time></trkpt><trkpt lat="43.28351789523248" lon="10.767060257692476"><ele>317.0</ele><time>2026-04-18T13:14:37Z</time></trkpt><trkpt lat="43.283504300194835" lon="10.767203139188988"><ele>317.0</ele><time>2026-04-18T13:14:38Z</time></trkpt><trkpt lat="43.28347950508522" lon="10.767361690398882"><ele>317.0</ele><time>2026-04-18T13:14:39Z</time></trkpt><trkpt lat="43.283470640484175" lon="10.767532561989709"><ele>317.0</ele><time>2026-04-18T13:14:40Z</time></trkpt><trkpt lat="43.28345474409732" lon="10.767696843769262"><ele>316.0</ele><time>2026-04-18T13:14:41Z</time></trkpt><trkpt lat="43.28343166302464" lon="10.767857909975216"><ele>315.0</ele><time>2026-04-18T13:14:42Z</time></trkpt><trkpt lat="43.28340186337163" lon="10.768011055898898"><ele>314.0</ele><time>2026-04-18T13:14:43Z</time></trkpt><trkpt lat="43.28335200450768" lon="10.768144960694016"><ele>313.0</ele><time>2026-04-18T13:14:44Z</time></trkpt><trkpt lat="43.28328334073231" lon="10.768260613270911"><ele>313.0</ele><time>2026-04-18T13:14:45Z</time></trkpt><trkpt lat="43.283211289512295" lon="10.768348922181215"><ele>313.0</ele><time>2026-04-18T13:14:46Z</time></trkpt><trkpt lat="43.28313756933406" lon="10.768417040820852"><ele>313.0</ele><time>2026-04-18T13:14:47Z</time></trkpt><trkpt lat="43.28305147103852" lon="10.768469317397999"><ele>313.0</ele><time>2026-04-18T13:14:48Z</time></trkpt><trkpt lat="43.28295593833266" lon="10.768504983315184"><ele>313.0</ele><time>2026-04-18T13:14:49Z</time></trkpt><trkpt lat="43.282860176249365" lon="10.768528574028402"><ele>313.8</ele><time>2026-04-18T13:14:50Z</time></trkpt><trkpt lat="43.28276091961893" lon="10.768557878764797"><ele>314.6</ele><time>2026-04-18T13:14:51Z</time></trkpt><trkpt lat="43.282655702296154" lon="10.768583584963219"><ele>315.4</ele><time>2026-04-18T13:14:52Z</time></trkpt><trkpt lat="43.282545820676475" lon="10.768611654379441"><ele>316.2</ele><time>2026-04-18T13:14:53Z</time></trkpt><trkpt lat="43.28243626020437" lon="10.768652558968533"><ele>317.0</ele><time>2026-04-18T13:14:54Z</time></trkpt><trkpt lat="43.28232837891855" lon="10.768717090623802"><ele>321.5</ele><time>2026-04-18T13:14:55Z</time></trkpt><trkpt lat="43.28223098868331" lon="10.768802656872065"><ele>326.0</ele><time>2026-04-18T13:14:56Z</time></trkpt><trkpt lat="43.282139277983326" lon="10.76891130406646"><ele>330.5</ele><time>2026-04-18T13:14:57Z</time></trkpt><trkpt lat="43.28205903112197" lon="10.769030712471341"><ele>335.0</ele><time>2026-04-18T13:14:58Z</time></trkpt><trkpt lat="43.28197204759827" lon="10.769147306046866"><ele>335.0</ele><time>2026-04-18T13:14:59Z</time></trkpt><trkpt lat="43.28188323531018" lon="10.769262142047436"><ele>335.0</ele><time>2026-04-18T13:15:00Z</time></trkpt><trkpt lat="43.28179336022768" lon="10.769362833577352"><ele>335.0</ele><time>2026-04-18T13:15:01Z</time></trkpt><trkpt lat="43.281698651662836" lon="10.769439193634298"><ele>335.0</ele><time>2026-04-18T13:15:02Z</time></trkpt><trkpt lat="43.281596433406854" lon="10.769486547839623"><ele>335.5</ele><time>2026-04-18T13:15:03.001Z</time></trkpt><trkpt lat="43.28148454408512" lon="10.769513081351867"><ele>336.0</ele><time>2026-04-18T13:15:04.001Z</time></trkpt><trkpt lat="43.281363579185474" lon="10.769543053551404"><ele>336.5</ele><time>2026-04-18T13:15:05.001Z</time></trkpt><trkpt lat="43.281238374933" lon="10.769574495548476"><ele>337.0</ele><time>2026-04-18T13:15:06.001Z</time></trkpt><trkpt lat="43.28111194706821" lon="10.769612630854969"><ele>337.0</ele><time>2026-04-18T13:15:07.001Z</time></trkpt><trkpt lat="43.28098920747739" lon="10.769671099162906"><ele>337.0</ele><time>2026-04-18T13:15:08.001Z</time></trkpt><trkpt lat="43.280878290935966" lon="10.76976186275177"><ele>337.0</ele><time>2026-04-18T13:15:09.001Z</time></trkpt><trkpt lat="43.28079563861323" lon="10.76989941755178"><ele>337.0</ele><time>2026-04-18T13:15:10.001Z</time></trkpt><trkpt lat="43.28073242827258" lon="10.77003543009046"><ele>337.0</ele><time>2026-04-18T13:15:11.001Z</time></trkpt><trkpt lat="43.28069826334934" lon="10.770182697746323"><ele>337.0</ele><time>2026-04-18T13:15:12.001Z</time></trkpt><trkpt lat="43.280665459132116" lon="10.770317848044542"><ele>337.0</ele><time>2026-04-18T13:15:13.001Z</time></trkpt><trkpt lat="43.280654958330764" lon="10.770461349822774"><ele>337.0</ele><time>2026-04-18T13:15:14.001Z</time></trkpt><trkpt lat="43.28067533446438" lon="10.770591268183034"><ele>337.0</ele><time>2026-04-18T13:15:15.001Z</time></trkpt><trkpt lat="43.28069792578723" lon="10.770734075773992"><ele>336.25</ele><time>2026-04-18T13:15:16.001Z</time></trkpt><trkpt lat="43.280711892608686" lon="10.770889397586835"><ele>335.5</ele><time>2026-04-18T13:15:17.001Z</time></trkpt><trkpt lat="43.28071785810788" lon="10.771052694614784"><ele>334.75</ele><time>2026-04-18T13:15:18.001Z</time></trkpt><trkpt lat="43.28071823677791" lon="10.771217713258082"><ele>334.0</ele><time>2026-04-18T13:15:19.001Z</time></trkpt><trkpt lat="43.28072045526208" lon="10.771377428503879"><ele>334.0</ele><time>2026-04-18T13:15:20.001Z</time></trkpt><trkpt lat="43.280728526392245" lon="10.771526708262389"><ele>334.0</ele><time>2026-04-18T13:15:21.001Z</time></trkpt><trkpt lat="43.28075620312349" lon="10.771674669200383"><ele>334.0</ele><time>2026-04-18T13:15:22.001Z</time></trkpt><trkpt lat="43.28082014985305" lon="10.771797585773001"><ele>334.0</ele><time>2026-04-18T13:15:23.001Z</time></trkpt><trkpt lat="43.280906142844884" lon="10.771897838294095"><ele>334.0</ele><time>2026-04-18T13:15:24.001Z</time></trkpt><trkpt lat="43.28100089243545" lon="10.771989502486063"><ele>337.0</ele><time>2026-04-18T13:15:25.001Z</time></trkpt><trkpt lat="43.28108928904718" lon="10.772076640614442"><ele>340.0</ele><time>2026-04-18T13:15:26.001Z</time></trkpt><trkpt lat="43.28116812023776" lon="10.772169263256911"><ele>343.0</ele><time>2026-04-18T13:15:27.001Z</time></trkpt><trkpt lat="43.28123404544277" lon="10.772275949568089"><ele>346.0</ele><time>2026-04-18T13:15:28.001Z</time></trkpt><trkpt lat="43.28128079489056" lon="10.772394101342813"><ele>349.0</ele><time>2026-04-18T13:15:29.001Z</time></trkpt><trkpt lat="43.281323069022456" lon="10.772518962795713"><ele>349.0</ele><time>2026-04-18T13:15:30.001Z</time></trkpt><trkpt lat="43.28135201514511" lon="10.77264289248603"><ele>349.0</ele><time>2026-04-18T13:15:31.001Z</time></trkpt><trkpt lat="43.281385301863324" lon="10.772761208367676"><ele>349.0</ele><time>2026-04-18T13:15:32.001Z</time></trkpt><trkpt lat="43.281401928927764" lon="10.772914052998091"><ele>349.0</ele><time>2026-04-18T13:15:33.001Z</time></trkpt><trkpt lat="43.28138196149948" lon="10.773059833579252"><ele>349.0</ele><time>2026-04-18T13:15:34.001Z</time></trkpt><trkpt lat="43.28134282232253" lon="10.773191138790802"><ele>348.0</ele><time>2026-04-18T13:15:35.001Z</time></trkpt><trkpt lat="43.28131981837803" lon="10.773321488510032"><ele>347.0</ele><time>2026-04-18T13:15:36.001Z</time></trkpt><trkpt lat="43.281323326195476" lon="10.77346312078984"><ele>346.0</ele><time>2026-04-18T13:15:37.001Z</time></trkpt><trkpt lat="43.28136349389458" lon="10.773592739210597"><ele>345.0</ele><time>2026-04-18T13:15:38.001Z</time></trkpt><trkpt lat="43.281411759303076" lon="10.773706415646581"><ele>344.0</ele><time>2026-04-18T13:15:39.001Z</time></trkpt><trkpt lat="43.28145728874975" lon="10.773812231307781"><ele>344.0</ele><time>2026-04-18T13:15:40.001Z</time></trkpt><trkpt lat="43.28148040496015" lon="10.773919106519843"><ele>344.0</ele><time>2026-04-18T13:15:41.001Z</time></trkpt><trkpt lat="43.281484748446665" lon="10.774033965298425"><ele>344.0</ele><time>2026-04-18T13:15:42.001Z</time></trkpt><trkpt lat="43.28146483020489" lon="10.774147206136073"><ele>344.0</ele><time>2026-04-18T13:15:43.001Z</time></trkpt><trkpt lat="43.28144294724512" lon="10.774254978319961"><ele>344.0</ele><time>2026-04-18T13:15:44.001Z</time></trkpt><trkpt lat="43.28141029984483" lon="10.774376306375363"><ele>344.0</ele><time>2026-04-18T13:15:45.001Z</time></trkpt><trkpt lat="43.28138417021967" lon="10.77450192024917"><ele>349.2</ele><time>2026-04-18T13:15:46.001Z</time></trkpt><trkpt lat="43.28134889389317" lon="10.774626057222664"><ele>354.4</ele><time>2026-04-18T13:15:47.001Z</time></trkpt><trkpt lat="43.28133053175257" lon="10.774759988443083"><ele>359.6</ele><time>2026-04-18T13:15:48.001Z</time></trkpt><trkpt lat="43.28130569239242" lon="10.77489020494556"><ele>364.8</ele><time>2026-04-18T13:15:49.001Z</time></trkpt><trkpt lat="43.28129099345166" lon="10.775027684382243"><ele>370.0</ele><time>2026-04-18T13:15:50.001Z</time></trkpt><trkpt lat="43.281246414688525" lon="10.775155215560806"><ele>370.0</ele><time>2026-04-18T13:15:51.001Z</time></trkpt><trkpt lat="43.28121650655471" lon="10.775285158447382"><ele>370.0</ele><time>2026-04-18T13:15:52.001Z</time></trkpt><trkpt lat="43.28118599967741" lon="10.775417701769086"><ele>370.0</ele><time>2026-04-18T13:15:53.002Z</time></trkpt><trkpt lat="43.28115940404961" lon="10.775548409434037"><ele>370.0</ele><time>2026-04-18T13:15:54.002Z</time></trkpt><trkpt lat="43.281122730299984" lon="10.775681695582977"><ele>370.0</ele><time>2026-04-18T13:15:55.002Z</time></trkpt><trkpt lat="43.28109367046313" lon="10.775820949845224"><ele>370.0</ele><time>2026-04-18T13:15:56.002Z</time></trkpt><trkpt lat="43.281081308498116" lon="10.775971930911757"><ele>370.0</ele><time>2026-04-18T13:15:57.002Z</time></trkpt><trkpt lat="43.28108086869226" lon="10.776121741862704"><ele>370.0</ele><time>2026-04-18T13:15:58.002Z</time></trkpt><trkpt lat="43.281080113645125" lon="10.776273259720924"><ele>370.0</ele><time>2026-04-18T13:15:59.002Z</time></trkpt><trkpt lat="43.281072896167785" lon="10.776422497084832"><ele>370.0</ele><time>2026-04-18T13:16:00.002Z</time></trkpt><trkpt lat="43.28105925528794" lon="10.776577319405677"><ele>371.25</ele><time>2026-04-18T13:16:01.002Z</time></trkpt><trkpt lat="43.28104431128991" lon="10.776738152509418"><ele>372.5</ele><time>2026-04-18T13:16:02.002Z</time></trkpt><trkpt lat="43.2810259681809" lon="10.776895933704388"><ele>373.75</ele><time>2026-04-18T13:16:03.002Z</time></trkpt><trkpt lat="43.28100888381683" lon="10.777052731125707"><ele>375.0</ele><time>2026-04-18T13:16:04.002Z</time></trkpt><trkpt lat="43.281011760172305" lon="10.777210206596365"><ele>377.25</ele><time>2026-04-18T13:16:05.002Z</time></trkpt><trkpt lat="43.281024249170976" lon="10.777366764617673"><ele>379.5</ele><time>2026-04-18T13:16:05.999Z</time></trkpt><trkpt lat="43.28103892738152" lon="10.777517846545154"><ele>381.75</ele><time>2026-04-18T13:16:06.999Z</time></trkpt><trkpt lat="43.281062676446375" lon="10.777662844159822"><ele>384.0</ele><time>2026-04-18T13:16:07.999Z</time></trkpt><trkpt lat="43.281091265719674" lon="10.777822516168282"><ele>386.25</ele><time>2026-04-18T13:16:08.999Z</time></trkpt><trkpt lat="43.28112542119616" lon="10.777976762772559"><ele>388.5</ele><time>2026-04-18T13:16:09.999Z</time></trkpt><trkpt lat="43.28115312262712" lon="10.778133086785315"><ele>390.75</ele><time>2026-04-18T13:16:10.999Z</time></trkpt><trkpt lat="43.28116696309453" lon="10.778290638247197"><ele>393.0</ele><time>2026-04-18T13:16:11.999Z</time></trkpt><trkpt lat="43.28119812280738" lon="10.778446919340709"><ele>394.75</ele><time>2026-04-18T13:16:12.999Z</time></trkpt><trkpt lat="43.2812260348527" lon="10.778607313624413"><ele>396.5</ele><time>2026-04-18T13:16:13.999Z</time></trkpt><trkpt lat="43.281247397247355" lon="10.778768370685725"><ele>398.25</ele><time>2026-04-18T13:16:14.999Z</time></trkpt><trkpt lat="43.28126344216335" lon="10.778925881675322"><ele>400.0</ele><time>2026-04-18T13:16:15.999Z</time></trkpt><trkpt lat="43.28125765179588" lon="10.779080576156808"><ele>400.0</ele><time>2026-04-18T13:16:16.999Z</time></trkpt><trkpt lat="43.28126325829275" lon="10.779234851757643"><ele>400.0</ele><time>2026-04-18T13:16:17.999Z</time></trkpt><trkpt lat="43.28128107425976" lon="10.779389863993961"><ele>400.0</ele><time>2026-04-18T13:16:18.999Z</time></trkpt><trkpt lat="43.28129640450618" lon="10.779540636698988"><ele>400.0</ele><time>2026-04-18T13:16:19.999Z</time></trkpt><trkpt lat="43.2813215494668" lon="10.779683360011534"><ele>400.0</ele><time>2026-04-18T13:16:20.999Z</time></trkpt><trkpt lat="43.28135045930472" lon="10.779814194519586"><ele>399.0</ele><time>2026-04-18T13:16:21.999Z</time></trkpt><trkpt lat="43.28137900080072" lon="10.779942728662785"><ele>398.0</ele><time>2026-04-18T13:16:22.999Z</time></trkpt><trkpt lat="43.2814091044509" lon="10.780066966962153"><ele>397.0</ele><time>2026-04-18T13:16:23.999Z</time></trkpt><trkpt lat="43.2814489968697" lon="10.780178857258624"><ele>396.0</ele><time>2026-04-18T13:16:24.999Z</time></trkpt><trkpt lat="43.281499982085364" lon="10.780278885804508"><ele>395.0</ele><time>2026-04-18T13:16:25.999Z</time></trkpt><trkpt lat="43.28155349446875" lon="10.780359287512498"><ele>394.99999999999994</ele><time>2026-04-18T13:16:26.999Z</time></trkpt><trkpt lat="43.28160394615734" lon="10.780429696440686"><ele>395.0</ele><time>2026-04-18T13:16:27.999Z</time></trkpt><trkpt lat="43.281645872731154" lon="10.78049924600777"><ele>395.0</ele><time>2026-04-18T13:16:28.999Z</time></trkpt><trkpt lat="43.28170487552693" lon="10.780643946619307"><ele>395.0</ele><time>2026-04-18T13:16:31Z</time></trkpt><trkpt lat="43.28173218905839" lon="10.780732019254211"><ele>394.99999999999994</ele><time>2026-04-18T13:16:32Z</time></trkpt><trkpt lat="43.28175759188274" lon="10.78082385021449"><ele>395.0</ele><time>2026-04-18T13:16:33Z</time></trkpt><trkpt lat="43.28178343940858" lon="10.780912351701375"><ele>394.99999999999994</ele><time>2026-04-18T13:16:34Z</time></trkpt><trkpt lat="43.28180956326821" lon="10.78099230064955"><ele>395.0</ele><time>2026-04-18T13:16:35Z</time></trkpt><trkpt lat="43.28185006325397" lon="10.781095724222334"><ele>395.0</ele><time>2026-04-18T13:16:37Z</time></trkpt><trkpt lat="43.28187017840863" lon="10.781184654387898"><ele>395.0</ele><time>2026-04-18T13:16:41Z</time></trkpt><trkpt lat="43.28190594329154" lon="10.781305632958814"><ele>394.99999999999994</ele><time>2026-04-18T13:16:45Z</time></trkpt><trkpt lat="43.282033611190336" lon="10.781325738095399"><ele>395.0</ele><time>2026-04-18T13:16:46Z</time></trkpt><trkpt lat="43.28208028130176" lon="10.781389440306716"><ele>394.6</ele><time>2026-04-18T13:16:47Z</time></trkpt><trkpt lat="43.282137572974996" lon="10.781440348682416"><ele>394.2</ele><time>2026-04-18T13:16:48Z</time></trkpt><trkpt lat="43.28223360100436" lon="10.781467771072295"><ele>393.79999999999995</ele><time>2026-04-18T13:16:50Z</time></trkpt><trkpt lat="43.28231365580552" lon="10.781462439989259"><ele>393.4</ele><time>2026-04-18T13:16:52Z</time></trkpt><trkpt lat="43.28238366256191" lon="10.781330488740736"><ele>393.0</ele><time>2026-04-18T13:16:54Z</time></trkpt><trkpt lat="43.28242551931586" lon="10.781185816954169"><ele>393.8333333333333</ele><time>2026-04-18T13:16:56Z</time></trkpt><trkpt lat="43.28246850314981" lon="10.781035561300303"><ele>394.66666666666663</ele><time>2026-04-18T13:16:58Z</time></trkpt><trkpt lat="43.28250312627885" lon="10.780962475335938"><ele>395.5</ele><time>2026-04-18T13:16:59Z</time></trkpt><trkpt lat="43.28254212917421" lon="10.780891908230652"><ele>396.3333333333333</ele><time>2026-04-18T13:17:00Z</time></trkpt><trkpt lat="43.28259016108149" lon="10.780811146796301"><ele>397.16666666666663</ele><time>2026-04-18T13:17:01Z</time></trkpt><trkpt lat="43.28267172332937" lon="10.780779923084285"><ele>398.0</ele><time>2026-04-18T13:17:02Z</time></trkpt><trkpt lat="43.28275439908559" lon="10.780754448663126"><ele>396.3333333333333</ele><time>2026-04-18T13:17:03Z</time></trkpt><trkpt lat="43.28283400030093" lon="10.780744060273937"><ele>394.66666666666663</ele><time>2026-04-18T13:17:04Z</time></trkpt><trkpt lat="43.2829118923877" lon="10.780731207718013"><ele>393.0</ele><time>2026-04-18T13:17:05Z</time></trkpt><trkpt lat="43.28299688858818" lon="10.780722016575348"><ele>391.33333333333337</ele><time>2026-04-18T13:17:06.001Z</time></trkpt><trkpt lat="43.283079593591175" lon="10.78076692648631"><ele>389.6666666666667</ele><time>2026-04-18T13:17:07.001Z</time></trkpt><trkpt lat="43.283168895900545" lon="10.780776551350439"><ele>388.0</ele><time>2026-04-18T13:17:08.001Z</time></trkpt><trkpt lat="43.283266925447236" lon="10.780774717564848"><ele>385.59999999999997</ele><time>2026-04-18T13:17:09.001Z</time></trkpt><trkpt lat="43.28336482963744" lon="10.780763827632754"><ele>383.2</ele><time>2026-04-18T13:17:10.001Z</time></trkpt><trkpt lat="43.28346662568921" lon="10.780714285389504"><ele>380.8</ele><time>2026-04-18T13:17:11.001Z</time></trkpt><trkpt lat="43.28355041935718" lon="10.780702716146292"><ele>378.4</ele><time>2026-04-18T13:17:12.001Z</time></trkpt><trkpt lat="43.28362569484039" lon="10.780722757163664"><ele>376.0</ele><time>2026-04-18T13:17:13.001Z</time></trkpt><trkpt lat="43.28370642718137" lon="10.780757705671551"><ele>376.0</ele><time>2026-04-18T13:17:14.001Z</time></trkpt><trkpt lat="43.28379258056699" lon="10.78079434801357"><ele>376.0</ele><time>2026-04-18T13:17:15.001Z</time></trkpt><trkpt lat="43.283873653557286" lon="10.780806244362424"><ele>376.0</ele><time>2026-04-18T13:17:16.001Z</time></trkpt><trkpt lat="43.2839528369648" lon="10.780850200410098"><ele>376.0</ele><time>2026-04-18T13:17:17.001Z</time></trkpt><trkpt lat="43.284045062348184" lon="10.780844664377206"><ele>376.0</ele><time>2026-04-18T13:17:18.001Z</time></trkpt><trkpt lat="43.284139339181756" lon="10.780783161041988"><ele>374.5</ele><time>2026-04-18T13:17:19.001Z</time></trkpt><trkpt lat="43.28421335303598" lon="10.780699891087497"><ele>373.0</ele><time>2026-04-18T13:17:20.001Z</time></trkpt><trkpt lat="43.2842827284187" lon="10.780615482749162"><ele>371.5</ele><time>2026-04-18T13:17:21.001Z</time></trkpt><trkpt lat="43.28434905712666" lon="10.780548342083803"><ele>370.0</ele><time>2026-04-18T13:17:22.001Z</time></trkpt><trkpt lat="43.28441036265391" lon="10.780495456225589"><ele>368.5</ele><time>2026-04-18T13:17:23.001Z</time></trkpt><trkpt lat="43.28447498865302" lon="10.780467469428606"><ele>367.0</ele><time>2026-04-18T13:17:24.001Z</time></trkpt><trkpt lat="43.284553623555716" lon="10.780459038804795"><ele>367.0</ele><time>2026-04-18T13:17:25.001Z</time></trkpt><trkpt lat="43.28463088241281" lon="10.780511234907523"><ele>367.0</ele><time>2026-04-18T13:17:26.001Z</time></trkpt><trkpt lat="43.284690826375204" lon="10.780593211770226"><ele>367.0</ele><time>2026-04-18T13:17:27.001Z</time></trkpt><trkpt lat="43.28473722201075" lon="10.7806888688826"><ele>367.0</ele><time>2026-04-18T13:17:28.001Z</time></trkpt><trkpt lat="43.284779209563744" lon="10.780807465302795"><ele>367.0</ele><time>2026-04-18T13:17:29.001Z</time></trkpt><trkpt lat="43.2848126033088" lon="10.780922893075953"><ele>367.0</ele><time>2026-04-18T13:17:30.001Z</time></trkpt><trkpt lat="43.28485552270306" lon="10.781024363749134"><ele>367.16666666666663</ele><time>2026-04-18T13:17:31.001Z</time></trkpt><trkpt lat="43.28489499346429" lon="10.781135254876256"><ele>367.3333333333333</ele><time>2026-04-18T13:17:32.001Z</time></trkpt><trkpt lat="43.28493453322742" lon="10.78124029275254"><ele>367.5</ele><time>2026-04-18T13:17:33.001Z</time></trkpt><trkpt lat="43.28496929967518" lon="10.78132184327687"><ele>367.6666666666667</ele><time>2026-04-18T13:17:34.001Z</time></trkpt><trkpt lat="43.285040323065644" lon="10.781452811506602"><ele>367.83333333333337</ele><time>2026-04-18T13:17:36.001Z</time></trkpt><trkpt lat="43.28510583765544" lon="10.781453231404775"><ele>368.0</ele><time>2026-04-18T13:17:37.001Z</time></trkpt><trkpt lat="43.285205114873165" lon="10.781435947160903"><ele>368.0</ele><time>2026-04-18T13:17:38.001Z</time></trkpt><trkpt lat="43.2852677167422" lon="10.781358727033197"><ele>368.0</ele><time>2026-04-18T13:17:39.001Z</time></trkpt><trkpt lat="43.28532938762341" lon="10.781283816695685"><ele>368.0</ele><time>2026-04-18T13:17:40.001Z</time></trkpt><trkpt lat="43.28541211066519" lon="10.781194816869261"><ele>368.0</ele><time>2026-04-18T13:17:41.001Z</time></trkpt><trkpt lat="43.28549979549713" lon="10.781099011586752"><ele>368.0</ele><time>2026-04-18T13:17:42.001Z</time></trkpt><trkpt lat="43.285579270262915" lon="10.78100225997786"><ele>365.0</ele><time>2026-04-18T13:17:43.001Z</time></trkpt><trkpt lat="43.285653006412254" lon="10.780884044151088"><ele>362.0</ele><time>2026-04-18T13:17:44.001Z</time></trkpt><trkpt lat="43.28574941454362" lon="10.780789254725926"><ele>359.0</ele><time>2026-04-18T13:17:45.001Z</time></trkpt><trkpt lat="43.285854794139645" lon="10.780731155911289"><ele>356.0</ele><time>2026-04-18T13:17:46.001Z</time></trkpt><trkpt lat="43.28596693705055" lon="10.780659110020162"><ele>356.0</ele><time>2026-04-18T13:17:47.001Z</time></trkpt><trkpt lat="43.28609193447375" lon="10.780582679134039"><ele>356.0</ele><time>2026-04-18T13:17:48.001Z</time></trkpt><trkpt lat="43.28620268862438" lon="10.780508677546262"><ele>356.0</ele><time>2026-04-18T13:17:49.002Z</time></trkpt><trkpt lat="43.28629471463727" lon="10.78042675246241"><ele>356.0</ele><time>2026-04-18T13:17:50.002Z</time></trkpt><trkpt lat="43.286391749466624" lon="10.780374242015807"><ele>356.5</ele><time>2026-04-18T13:17:51.002Z</time></trkpt><trkpt lat="43.286478495599525" lon="10.780279797452497"><ele>357.0</ele><time>2026-04-18T13:17:52.002Z</time></trkpt><trkpt lat="43.28655350299418" lon="10.780120093712258"><ele>357.5</ele><time>2026-04-18T13:17:53.002Z</time></trkpt><trkpt lat="43.2866181529629" lon="10.779956338819648"><ele>358.0</ele><time>2026-04-18T13:17:54.002Z</time></trkpt><trkpt lat="43.286681060138854" lon="10.779787465282034"><ele>353.25</ele><time>2026-04-18T13:17:55.002Z</time></trkpt><trkpt lat="43.28674451593519" lon="10.779621354628947"><ele>348.5</ele><time>2026-04-18T13:17:56.002Z</time></trkpt><trkpt lat="43.28681021944112" lon="10.779472025865038"><ele>343.75</ele><time>2026-04-18T13:17:57.002Z</time></trkpt><trkpt lat="43.28687429166542" lon="10.779333144658803"><ele>339.0</ele><time>2026-04-18T13:17:58.002Z</time></trkpt><trkpt lat="43.28693158831362" lon="10.77920799858881"><ele>337.3333333333333</ele><time>2026-04-18T13:17:59.002Z</time></trkpt><trkpt lat="43.286980830395485" lon="10.779094625615715"><ele>335.6666666666667</ele><time>2026-04-18T13:18:00.002Z</time></trkpt><trkpt lat="43.28702539958791" lon="10.778986230677969"><ele>334.0</ele><time>2026-04-18T13:18:01.002Z</time></trkpt><trkpt lat="43.287053890590535" lon="10.77886844502199"><ele>332.33333333333337</ele><time>2026-04-18T13:18:02.002Z</time></trkpt><trkpt lat="43.28709262453401" lon="10.77877793457589"><ele>330.6666666666667</ele><time>2026-04-18T13:18:03.002Z</time></trkpt><trkpt lat="43.28712231745889" lon="10.778677277750024"><ele>329.0</ele><time>2026-04-18T13:18:04.002Z</time></trkpt><trkpt lat="43.287158862705745" lon="10.77857781414002"><ele>326.8</ele><time>2026-04-18T13:18:05.002Z</time></trkpt><trkpt lat="43.287184846718475" lon="10.778454430389276"><ele>324.59999999999997</ele><time>2026-04-18T13:18:06.002Z</time></trkpt><trkpt lat="43.287210048935684" lon="10.778320429808481"><ele>322.4</ele><time>2026-04-18T13:18:07.002Z</time></trkpt><trkpt lat="43.28723010720746" lon="10.778178235670964"><ele>320.2</ele><time>2026-04-18T13:18:08.002Z</time></trkpt><trkpt lat="43.28724109052883" lon="10.778045209976296"><ele>318.0</ele><time>2026-04-18T13:18:09.002Z</time></trkpt><trkpt lat="43.2872502315817" lon="10.777925993650648"><ele>318.0</ele><time>2026-04-18T13:18:10.002Z</time></trkpt><trkpt lat="43.287244814183374" lon="10.777824902231611"><ele>318.0</ele><time>2026-04-18T13:18:11.002Z</time></trkpt><trkpt lat="43.28729862301117" lon="10.777668506243886"><ele>318.0</ele><time>2026-04-18T13:18:12.998Z</time></trkpt><trkpt lat="43.28737092775603" lon="10.77753150972735"><ele>318.0</ele><time>2026-04-18T13:18:14.999Z</time></trkpt><trkpt lat="43.287440190843" lon="10.777493342459666"><ele>318.0</ele><time>2026-04-18T13:18:15.999Z</time></trkpt><trkpt lat="43.287515062324125" lon="10.777477223330804"><ele>317.5</ele><time>2026-04-18T13:18:16.999Z</time></trkpt><trkpt lat="43.28758934444082" lon="10.777481084935262"><ele>317.0</ele><time>2026-04-18T13:18:17.999Z</time></trkpt><trkpt lat="43.287661177237304" lon="10.77751282474716"><ele>316.5</ele><time>2026-04-18T13:18:18.999Z</time></trkpt><trkpt lat="43.287726399088605" lon="10.777588353126307"><ele>316.0</ele><time>2026-04-18T13:18:19.999Z</time></trkpt><trkpt lat="43.2878101773506" lon="10.777659612772192"><ele>315.5</ele><time>2026-04-18T13:18:20.999Z</time></trkpt><trkpt lat="43.28789180646401" lon="10.777711051371625"><ele>315.0</ele><time>2026-04-18T13:18:21.999Z</time></trkpt><trkpt lat="43.28795409304522" lon="10.777783112900005"><ele>315.0</ele><time>2026-04-18T13:18:22.999Z</time></trkpt><trkpt lat="43.288009735530814" lon="10.777840844456014"><ele>315.0</ele><time>2026-04-18T13:18:23.999Z</time></trkpt><trkpt lat="43.288125461674866" lon="10.777900746113346"><ele>315.0</ele><time>2026-04-18T13:18:25.999Z</time></trkpt><trkpt lat="43.28819072977958" lon="10.777925824799386"><ele>315.0</ele><time>2026-04-18T13:18:26.999Z</time></trkpt><trkpt lat="43.288318773703594" lon="10.777952366596848"><ele>315.0</ele><time>2026-04-18T13:18:28.999Z</time></trkpt><trkpt lat="43.28838507090965" lon="10.777986031804012"><ele>313.3333333333333</ele><time>2026-04-18T13:18:29.999Z</time></trkpt><trkpt lat="43.28845340167768" lon="10.778014562096708"><ele>311.6666666666667</ele><time>2026-04-18T13:18:30.999Z</time></trkpt><trkpt lat="43.28852255854906" lon="10.778048979015956"><ele>310.0</ele><time>2026-04-18T13:18:31.999Z</time></trkpt><trkpt lat="43.28861428366624" lon="10.778097390799342"><ele>308.33333333333337</ele><time>2026-04-18T13:18:32.999Z</time></trkpt><trkpt lat="43.28869949496168" lon="10.778144279881975"><ele>306.6666666666667</ele><time>2026-04-18T13:18:33.999Z</time></trkpt><trkpt lat="43.28879141049019" lon="10.778208898835162"><ele>305.0</ele><time>2026-04-18T13:18:34.999Z</time></trkpt><trkpt lat="43.28888271997182" lon="10.778253288436058"><ele>306.1666666666667</ele><time>2026-04-18T13:18:35.999Z</time></trkpt><trkpt lat="43.28897289683323" lon="10.778297741951471"><ele>307.33333333333337</ele><time>2026-04-18T13:18:36.999Z</time></trkpt><trkpt lat="43.28905643051278" lon="10.77833989778405"><ele>308.5</ele><time>2026-04-18T13:18:38Z</time></trkpt><trkpt lat="43.28913284678904" lon="10.778380138358912"><ele>309.6666666666667</ele><time>2026-04-18T13:18:39Z</time></trkpt><trkpt lat="43.28919843346449" lon="10.778419095212495"><ele>310.8333333333333</ele><time>2026-04-18T13:18:40Z</time></trkpt><trkpt lat="43.289260512795146" lon="10.77847953545346"><ele>312.0</ele><time>2026-04-18T13:18:41Z</time></trkpt><trkpt lat="43.289318114837954" lon="10.778556088041517"><ele>312.0</ele><time>2026-04-18T13:18:42Z</time></trkpt><trkpt lat="43.289368452274935" lon="10.77863563756477"><ele>312.0</ele><time>2026-04-18T13:18:43Z</time></trkpt><trkpt lat="43.28941829849347" lon="10.778715251897536"><ele>312.0</ele><time>2026-04-18T13:18:44Z</time></trkpt><trkpt lat="43.28947232844541" lon="10.778777607570234"><ele>312.0</ele><time>2026-04-18T13:18:45Z</time></trkpt><trkpt lat="43.28955037521851" lon="10.778812380127166"><ele>312.0</ele><time>2026-04-18T13:18:46Z</time></trkpt><trkpt lat="43.289644949990894" lon="10.778857004156656"><ele>312.0</ele><time>2026-04-18T13:18:47Z</time></trkpt><trkpt lat="43.289750328065864" lon="10.778850611615782"><ele>311.2</ele><time>2026-04-18T13:18:48Z</time></trkpt><trkpt lat="43.28984783967241" lon="10.778833838424147"><ele>310.4</ele><time>2026-04-18T13:18:49Z</time></trkpt><trkpt lat="43.289945116277515" lon="10.778814340977688"><ele>309.6</ele><time>2026-04-18T13:18:50Z</time></trkpt><trkpt lat="43.29004096677697" lon="10.778835671971642"><ele>308.8</ele><time>2026-04-18T13:18:51Z</time></trkpt><trkpt lat="43.290130582969994" lon="10.778877399292996"><ele>308.0</ele><time>2026-04-18T13:18:52Z</time></trkpt><trkpt lat="43.2902141086609" lon="10.778947403763532"><ele>308.0</ele><time>2026-04-18T13:18:53Z</time></trkpt><trkpt lat="43.29027155830148" lon="10.77905537121782"><ele>308.0</ele><time>2026-04-18T13:18:54Z</time></trkpt><trkpt lat="43.290341519579314" lon="10.779161558962345"><ele>308.0</ele><time>2026-04-18T13:18:55Z</time></trkpt><trkpt lat="43.290384030469376" lon="10.779263210204636"><ele>308.0</ele><time>2026-04-18T13:18:56Z</time></trkpt><trkpt lat="43.29046033309772" lon="10.779347915994519"><ele>308.0</ele><time>2026-04-18T13:18:57Z</time></trkpt><trkpt lat="43.290536244707866" lon="10.779443810470456"><ele>307.8</ele><time>2026-04-18T13:18:58Z</time></trkpt><trkpt lat="43.290614549647906" lon="10.779542728169938"><ele>307.6</ele><time>2026-04-18T13:18:59Z</time></trkpt><trkpt lat="43.29067985780012" lon="10.779625227935718"><ele>307.4</ele><time>2026-04-18T13:19:00Z</time></trkpt><trkpt lat="43.29074446878871" lon="10.779726183856596"><ele>307.2</ele><time>2026-04-18T13:19:01Z</time></trkpt><trkpt lat="43.29081923671965" lon="10.779828309940427"><ele>307.0</ele><time>2026-04-18T13:19:02Z</time></trkpt><trkpt lat="43.290898269136534" lon="10.779919555628132"><ele>307.0</ele><time>2026-04-18T13:19:03Z</time></trkpt><trkpt lat="43.29098460656947" lon="10.779994421616882"><ele>307.0</ele><time>2026-04-18T13:19:04Z</time></trkpt><trkpt lat="43.29107166897132" lon="10.780063671015977"><ele>307.0</ele><time>2026-04-18T13:19:05Z</time></trkpt><trkpt lat="43.2911331828624" lon="10.780150646802904"><ele>307.0</ele><time>2026-04-18T13:19:06Z</time></trkpt><trkpt lat="43.291189232641266" lon="10.780208818910083"><ele>307.0</ele><time>2026-04-18T13:19:07.001Z</time></trkpt><trkpt lat="43.29126013828407" lon="10.780247914717368"><ele>307.0</ele><time>2026-04-18T13:19:08.001Z</time></trkpt><trkpt lat="43.29133651225457" lon="10.780293404095532"><ele>304.8333333333333</ele><time>2026-04-18T13:19:09.001Z</time></trkpt><trkpt lat="43.29141997093132" lon="10.780310762639719"><ele>302.66666666666663</ele><time>2026-04-18T13:19:10.001Z</time></trkpt><trkpt lat="43.29149544454536" lon="10.78029594324477"><ele>300.5</ele><time>2026-04-18T13:19:11.001Z</time></trkpt><trkpt lat="43.29155956007109" lon="10.78028042111383"><ele>298.3333333333333</ele><time>2026-04-18T13:19:12.001Z</time></trkpt><trkpt lat="43.29163123560574" lon="10.780267785088169"><ele>296.1666666666667</ele><time>2026-04-18T13:19:13.001Z</time></trkpt><trkpt lat="43.29169868522025" lon="10.780285432542781"><ele>294.0</ele><time>2026-04-18T13:19:14.001Z</time></trkpt><trkpt lat="43.291778170597006" lon="10.780324208951646"><ele>294.0</ele><time>2026-04-18T13:19:15.001Z</time></trkpt><trkpt lat="43.29183341513145" lon="10.780428397241282"><ele>294.0</ele><time>2026-04-18T13:19:16.001Z</time></trkpt><trkpt lat="43.291905656627" lon="10.780558442841498"><ele>294.0</ele><time>2026-04-18T13:19:17.001Z</time></trkpt><trkpt lat="43.291937683894" lon="10.780705511134926"><ele>294.0</ele><time>2026-04-18T13:19:18.001Z</time></trkpt><trkpt lat="43.29194295877523" lon="10.780879143251198"><ele>294.8</ele><time>2026-04-18T13:19:19.001Z</time></trkpt><trkpt lat="43.291954935994966" lon="10.781058021985634"><ele>295.59999999999997</ele><time>2026-04-18T13:19:20.001Z</time></trkpt><trkpt lat="43.291979637487195" lon="10.78120168882059"><ele>296.4</ele><time>2026-04-18T13:19:21.001Z</time></trkpt><trkpt lat="43.29197014407176" lon="10.781316825611173"><ele>297.2</ele><time>2026-04-18T13:19:22.001Z</time></trkpt><trkpt lat="43.29196691881744" lon="10.781409917821232"><ele>298.0</ele><time>2026-04-18T13:19:23.001Z</time></trkpt><trkpt lat="43.29198691853257" lon="10.781510635226635"><ele>298.0</ele><time>2026-04-18T13:19:24.001Z</time></trkpt><trkpt lat="43.29201321746113" lon="10.781607566967006"><ele>298.0</ele><time>2026-04-18T13:19:25.001Z</time></trkpt><trkpt lat="43.292057366934245" lon="10.781713208208856"><ele>298.0</ele><time>2026-04-18T13:19:26.001Z</time></trkpt><trkpt lat="43.29210506737914" lon="10.781832374003088"><ele>298.0</ele><time>2026-04-18T13:19:27.001Z</time></trkpt><trkpt lat="43.29214918751389" lon="10.781950895841545"><ele>298.0</ele><time>2026-04-18T13:19:28.001Z</time></trkpt><trkpt lat="43.292177502331185" lon="10.782074865985937"><ele>298.6</ele><time>2026-04-18T13:19:29.001Z</time></trkpt><trkpt lat="43.29217856515226" lon="10.782194463154722"><ele>299.20000000000005</ele><time>2026-04-18T13:19:30.001Z</time></trkpt><trkpt lat="43.292160442263885" lon="10.782301813048466"><ele>299.8</ele><time>2026-04-18T13:19:31.001Z</time></trkpt><trkpt lat="43.292123183290144" lon="10.782401270016516"><ele>300.40000000000003</ele><time>2026-04-18T13:19:32.001Z</time></trkpt><trkpt lat="43.292099190550516" lon="10.782542496122272"><ele>301.0</ele><time>2026-04-18T13:19:33.001Z</time></trkpt><trkpt lat="43.2920579073797" lon="10.782679144937426"><ele>301.66666666666663</ele><time>2026-04-18T13:19:34.001Z</time></trkpt><trkpt lat="43.29201128396477" lon="10.782799585216875"><ele>302.3333333333333</ele><time>2026-04-18T13:19:35.001Z</time></trkpt><trkpt lat="43.29195817018891" lon="10.782905483295844"><ele>303.0</ele><time>2026-04-18T13:19:36.001Z</time></trkpt><trkpt lat="43.29191526722238" lon="10.783003758483037"><ele>303.6666666666667</ele><time>2026-04-18T13:19:37.001Z</time></trkpt><trkpt lat="43.29190656777253" lon="10.783108018210742"><ele>304.33333333333337</ele><time>2026-04-18T13:19:38.001Z</time></trkpt><trkpt lat="43.29192248628417" lon="10.78322179059684"><ele>305.0</ele><time>2026-04-18T13:19:39.001Z</time></trkpt><trkpt lat="43.291936542305606" lon="10.783329174105583"><ele>305.0</ele><time>2026-04-18T13:19:40.001Z</time></trkpt><trkpt lat="43.29195450655099" lon="10.783438909458507"><ele>305.0</ele><time>2026-04-18T13:19:41.001Z</time></trkpt><trkpt lat="43.291969109735156" lon="10.78354579296961"><ele>305.0</ele><time>2026-04-18T13:19:42.001Z</time></trkpt><trkpt lat="43.291981101340056" lon="10.783638705778712"><ele>305.0</ele><time>2026-04-18T13:19:43.002Z</time></trkpt><trkpt lat="43.292002723619866" lon="10.783745232362861"><ele>305.0</ele><time>2026-04-18T13:19:44.002Z</time></trkpt><trkpt lat="43.292011788982514" lon="10.783856025036684"><ele>305.0</ele><time>2026-04-18T13:19:45.002Z</time></trkpt><trkpt lat="43.292001134171166" lon="10.783968397792902"><ele>304.1666666666667</ele><time>2026-04-18T13:19:46.002Z</time></trkpt><trkpt lat="43.29196361454979" lon="10.78407897577931"><ele>303.33333333333337</ele><time>2026-04-18T13:19:47.002Z</time></trkpt><trkpt lat="43.29191857950141" lon="10.78416934699079"><ele>302.5</ele><time>2026-04-18T13:19:48.002Z</time></trkpt><trkpt lat="43.29189105617456" lon="10.784252467938051"><ele>301.6666666666667</ele><time>2026-04-18T13:19:49.002Z</time></trkpt><trkpt lat="43.29187570796525" lon="10.784338580568695"><ele>300.8333333333333</ele><time>2026-04-18T13:19:50.002Z</time></trkpt><trkpt lat="43.291876073995006" lon="10.784452890630883"><ele>300.0</ele><time>2026-04-18T13:19:51.002Z</time></trkpt><trkpt lat="43.29193229353288" lon="10.784557248016894"><ele>297.25</ele><time>2026-04-18T13:19:52.002Z</time></trkpt><trkpt lat="43.2920356909627" lon="10.78463078947193"><ele>294.5</ele><time>2026-04-18T13:19:53.002Z</time></trkpt><trkpt lat="43.292144953104604" lon="10.784701024306731"><ele>291.75</ele><time>2026-04-18T13:19:54.002Z</time></trkpt><trkpt lat="43.292249665763784" lon="10.784763315923318"><ele>289.0</ele><time>2026-04-18T13:19:55.002Z</time></trkpt><trkpt lat="43.29235213381305" lon="10.784792729426888"><ele>287.66666666666663</ele><time>2026-04-18T13:19:56.002Z</time></trkpt><trkpt lat="43.29242983397281" lon="10.784839786890299"><ele>286.3333333333333</ele><time>2026-04-18T13:19:57.002Z</time></trkpt><trkpt lat="43.29251348234571" lon="10.784855555801883"><ele>285.0</ele><time>2026-04-18T13:19:58.002Z</time></trkpt><trkpt lat="43.29258987710561" lon="10.78486469852887"><ele>283.6666666666667</ele><time>2026-04-18T13:19:59.002Z</time></trkpt><trkpt lat="43.292663509918256" lon="10.78487331329507"><ele>282.33333333333337</ele><time>2026-04-18T13:20:00.002Z</time></trkpt><trkpt lat="43.29272847691966" lon="10.784884157854501"><ele>281.0</ele><time>2026-04-18T13:20:01.002Z</time></trkpt><trkpt lat="43.29284740208028" lon="10.784920985587597"><ele>281.0</ele><time>2026-04-18T13:20:03.002Z</time></trkpt><trkpt lat="43.292942846508865" lon="10.78501514336839"><ele>281.0</ele><time>2026-04-18T13:20:05.002Z</time></trkpt><trkpt lat="43.2930090202311" lon="10.785161652787739"><ele>281.0</ele><time>2026-04-18T13:20:07.002Z</time></trkpt><trkpt lat="43.29301107137525" lon="10.78527226209374"><ele>281.0</ele><time>2026-04-18T13:20:08.002Z</time></trkpt><trkpt lat="43.29301200842008" lon="10.785396657168723"><ele>281.0</ele><time>2026-04-18T13:20:09.002Z</time></trkpt><trkpt lat="43.293039738658486" lon="10.785531993990627"><ele>280.0</ele><time>2026-04-18T13:20:10.002Z</time></trkpt><trkpt lat="43.29305306036726" lon="10.785676017455966"><ele>279.0</ele><time>2026-04-18T13:20:11.002Z</time></trkpt><trkpt lat="43.29306265490392" lon="10.785809877979457"><ele>278.0</ele><time>2026-04-18T13:20:12.002Z</time></trkpt><trkpt lat="43.293073632418405" lon="10.78593995755457"><ele>277.0</ele><time>2026-04-18T13:20:13.002Z</time></trkpt><trkpt lat="43.293090620538635" lon="10.786055951672132"><ele>276.0</ele><time>2026-04-18T13:20:14.002Z</time></trkpt><trkpt lat="43.29312518366775" lon="10.78616086128836"><ele>272.8333333333333</ele><time>2026-04-18T13:20:15.002Z</time></trkpt><trkpt lat="43.293175058059866" lon="10.786255086991186"><ele>269.6666666666667</ele><time>2026-04-18T13:20:16.002Z</time></trkpt><trkpt lat="43.2932166524826" lon="10.786365236316296"><ele>266.5</ele><time>2026-04-18T13:20:17.002Z</time></trkpt><trkpt lat="43.29328547206265" lon="10.786436954500747"><ele>263.33333333333337</ele><time>2026-04-18T13:20:17.999Z</time></trkpt><trkpt lat="43.293341736273966" lon="10.786520699171946"><ele>260.1666666666667</ele><time>2026-04-18T13:20:18.999Z</time></trkpt><trkpt lat="43.29340407412066" lon="10.786604561656853"><ele>257.0</ele><time>2026-04-18T13:20:19.999Z</time></trkpt><trkpt lat="43.293473073325266" lon="10.786689248606194"><ele>257.0</ele><time>2026-04-18T13:20:20.999Z</time></trkpt><trkpt lat="43.293559316385355" lon="10.786759439135801"><ele>257.0</ele><time>2026-04-18T13:20:21.999Z</time></trkpt><trkpt lat="43.29364093011862" lon="10.78683495134332"><ele>257.0</ele><time>2026-04-18T13:20:22.999Z</time></trkpt><trkpt lat="43.29372271834401" lon="10.786907909564393"><ele>257.0</ele><time>2026-04-18T13:20:23.999Z</time></trkpt><trkpt lat="43.293799971408085" lon="10.786974655541826"><ele>257.0</ele><time>2026-04-18T13:20:24.999Z</time></trkpt><trkpt lat="43.29387202382556" lon="10.787039397594377"><ele>256.0</ele><time>2026-04-18T13:20:25.999Z</time></trkpt><trkpt lat="43.29393403105593" lon="10.78709903465255"><ele>255.0</ele><time>2026-04-18T13:20:26.999Z</time></trkpt><trkpt lat="43.294027071187806" lon="10.787192492147144"><ele>254.0</ele><time>2026-04-18T13:20:28.999Z</time></trkpt><trkpt lat="43.29404830214003" lon="10.78730523399457"><ele>253.0</ele><time>2026-04-18T13:20:30.999Z</time></trkpt><trkpt lat="43.29396701726992" lon="10.787428663530997"><ele>252.0</ele><time>2026-04-18T13:20:32.999Z</time></trkpt><trkpt lat="43.293915503745104" lon="10.787499122399563"><ele>252.0</ele><time>2026-04-18T13:20:33.999Z</time></trkpt><trkpt lat="43.29384546344902" lon="10.787556624750476"><ele>252.0</ele><time>2026-04-18T13:20:34.999Z</time></trkpt><trkpt lat="43.29378164698369" lon="10.787635837338504"><ele>252.0</ele><time>2026-04-18T13:20:35.999Z</time></trkpt><trkpt lat="43.29370862203662" lon="10.787726480358234"><ele>252.0</ele><time>2026-04-18T13:20:37Z</time></trkpt><trkpt lat="43.29363295931893" lon="10.787826152204424"><ele>252.0</ele><time>2026-04-18T13:20:38Z</time></trkpt><trkpt lat="43.29356330507021" lon="10.787952524922039"><ele>251.39999999999998</ele><time>2026-04-18T13:20:39Z</time></trkpt><trkpt lat="43.2934939345945" lon="10.7880712395773"><ele>250.79999999999998</ele><time>2026-04-18T13:20:40Z</time></trkpt><trkpt lat="43.29341755984802" lon="10.788175362389582"><ele>250.2</ele><time>2026-04-18T13:20:41Z</time></trkpt><trkpt lat="43.29338058453849" lon="10.788315285813393"><ele>249.6</ele><time>2026-04-18T13:20:42Z</time></trkpt><trkpt lat="43.29334057168142" lon="10.788434937007903"><ele>249.0</ele><time>2026-04-18T13:20:43Z</time></trkpt><trkpt lat="43.293296023672276" lon="10.78853957194523"><ele>248.5</ele><time>2026-04-18T13:20:44Z</time></trkpt><trkpt lat="43.29325655482547" lon="10.788631203951711"><ele>248.0</ele><time>2026-04-18T13:20:45Z</time></trkpt><trkpt lat="43.29321971261083" lon="10.788707873153111"><ele>247.5</ele><time>2026-04-18T13:20:46Z</time></trkpt><trkpt lat="43.293187889374366" lon="10.78878857695563"><ele>247.0</ele><time>2026-04-18T13:20:47Z</time></trkpt><trkpt lat="43.29316396773507" lon="10.788870030072722"><ele>246.5</ele><time>2026-04-18T13:20:48Z</time></trkpt><trkpt lat="43.29311825437198" lon="10.789039809409264"><ele>246.0</ele><time>2026-04-18T13:20:50Z</time></trkpt><trkpt lat="43.29308645244281" lon="10.789146054356467"><ele>248.83333333333334</ele><time>2026-04-18T13:20:51Z</time></trkpt><trkpt lat="43.293059388547334" lon="10.789255840688453"><ele>251.66666666666669</ele><time>2026-04-18T13:20:52Z</time></trkpt><trkpt lat="43.29303373479063" lon="10.789374545661234"><ele>254.5</ele><time>2026-04-18T13:20:53Z</time></trkpt><trkpt lat="43.29300639830669" lon="10.789490058202503"><ele>257.33333333333337</ele><time>2026-04-18T13:20:54Z</time></trkpt><trkpt lat="43.29297390699542" lon="10.789595939173639"><ele>260.1666666666667</ele><time>2026-04-18T13:20:55Z</time></trkpt><trkpt lat="43.29293812610671" lon="10.789697249501312"><ele>263.0</ele><time>2026-04-18T13:20:56Z</time></trkpt><trkpt lat="43.29289252476185" lon="10.789785506279538"><ele>263.0</ele><time>2026-04-18T13:20:57Z</time></trkpt><trkpt lat="43.292832092790036" lon="10.789855043377505"><ele>263.0</ele><time>2026-04-18T13:20:58Z</time></trkpt><trkpt lat="43.292763011448436" lon="10.789912459865523"><ele>263.0</ele><time>2026-04-18T13:20:59Z</time></trkpt><trkpt lat="43.292697174499715" lon="10.789958730577768"><ele>263.0</ele><time>2026-04-18T13:21:00Z</time></trkpt><trkpt lat="43.292634262818076" lon="10.79000534672973"><ele>263.0</ele><time>2026-04-18T13:21:01Z</time></trkpt><trkpt lat="43.29258645864614" lon="10.790070038748107"><ele>263.0</ele><time>2026-04-18T13:21:02Z</time></trkpt><trkpt lat="43.29250882192509" lon="10.790180176669493"><ele>261.6</ele><time>2026-04-18T13:21:04.001Z</time></trkpt><trkpt lat="43.29243307151096" lon="10.790304201784503"><ele>260.20000000000005</ele><time>2026-04-18T13:21:06.001Z</time></trkpt><trkpt lat="43.29234565404214" lon="10.7904180594502"><ele>258.8</ele><time>2026-04-18T13:21:08.001Z</time></trkpt><trkpt lat="43.29226155371709" lon="10.79052212472186"><ele>257.40000000000003</ele><time>2026-04-18T13:21:10.001Z</time></trkpt><trkpt lat="43.29221010635097" lon="10.790601889613534"><ele>256.0</ele><time>2026-04-18T13:21:11.001Z</time></trkpt><trkpt lat="43.292194273794955" lon="10.790715997558076"><ele>255.20000000000002</ele><time>2026-04-18T13:21:12.001Z</time></trkpt><trkpt lat="43.29219919954366" lon="10.790845008170596"><ele>254.40000000000003</ele><time>2026-04-18T13:21:13.001Z</time></trkpt><trkpt lat="43.292216075141745" lon="10.79097663754224"><ele>253.6</ele><time>2026-04-18T13:21:14.001Z</time></trkpt><trkpt lat="43.29224105757485" lon="10.791107900826377"><ele>252.8</ele><time>2026-04-18T13:21:15.001Z</time></trkpt><trkpt lat="43.29226640383846" lon="10.791232971426595"><ele>252.0</ele><time>2026-04-18T13:21:16.001Z</time></trkpt><trkpt lat="43.292286054012" lon="10.791344537725402"><ele>252.0</ele><time>2026-04-18T13:21:17.001Z</time></trkpt><trkpt lat="43.29230025951144" lon="10.791443848083654"><ele>252.0</ele><time>2026-04-18T13:21:18.001Z</time></trkpt><trkpt lat="43.29230317451227" lon="10.791553961246258"><ele>252.0</ele><time>2026-04-18T13:21:19.001Z</time></trkpt><trkpt lat="43.29228677254703" lon="10.791656099984392"><ele>252.0</ele><time>2026-04-18T13:21:20.001Z</time></trkpt><trkpt lat="43.292261024221844" lon="10.791763758284722"><ele>252.0</ele><time>2026-04-18T13:21:21.001Z</time></trkpt><trkpt lat="43.29221500014563" lon="10.791879002368312"><ele>252.0</ele><time>2026-04-18T13:21:22.001Z</time></trkpt><trkpt lat="43.292120119914216" lon="10.792083145381856"><ele>250.83333333333334</ele><time>2026-04-18T13:21:24.001Z</time></trkpt><trkpt lat="43.29207590121223" lon="10.792178718025918"><ele>249.66666666666669</ele><time>2026-04-18T13:21:25.001Z</time></trkpt><trkpt lat="43.29203757187474" lon="10.792274323813622"><ele>248.5</ele><time>2026-04-18T13:21:26.001Z</time></trkpt><trkpt lat="43.292015143680906" lon="10.792372904280098"><ele>247.33333333333334</ele><time>2026-04-18T13:21:27.001Z</time></trkpt><trkpt lat="43.29200051388221" lon="10.792467828239634"><ele>246.16666666666669</ele><time>2026-04-18T13:21:28.001Z</time></trkpt><trkpt lat="43.29197008991965" lon="10.792595813115613"><ele>245.0</ele><time>2026-04-18T13:21:30.001Z</time></trkpt><trkpt lat="43.291949614085475" lon="10.792679760505662"><ele>245.00000000000003</ele><time>2026-04-18T13:21:34.001Z</time></trkpt><trkpt lat="43.29196740151173" lon="10.792780403163189"><ele>245.0</ele><time>2026-04-18T13:22:14.003Z</time></trkpt><trkpt lat="43.292051725879894" lon="10.79288566802133"><ele>245.0</ele><time>2026-04-18T13:22:16.003Z</time></trkpt><trkpt lat="43.29209861557252" lon="10.7929519712922"><ele>245.0</ele><time>2026-04-18T13:22:17.003Z</time></trkpt><trkpt lat="43.292144429455085" lon="10.793028789659427"><ele>245.00000000000003</ele><time>2026-04-18T13:22:18.003Z</time></trkpt><trkpt lat="43.29219896839354" lon="10.793112009220142"><ele>245.0</ele><time>2026-04-18T13:22:19.003Z</time></trkpt><trkpt lat="43.29225693821864" lon="10.793205756896365"><ele>245.4</ele><time>2026-04-18T13:22:20.003Z</time></trkpt><trkpt lat="43.292317240465295" lon="10.79330743985517"><ele>245.8</ele><time>2026-04-18T13:22:21.003Z</time></trkpt><trkpt lat="43.29237777044178" lon="10.793412765017319"><ele>246.2</ele><time>2026-04-18T13:22:22.003Z</time></trkpt><trkpt lat="43.292434360630295" lon="10.79352392967038"><ele>246.6</ele><time>2026-04-18T13:22:23.003Z</time></trkpt><trkpt lat="43.29248211205941" lon="10.79363910438441"><ele>247.0</ele><time>2026-04-18T13:22:24Z</time></trkpt><trkpt lat="43.29252478349474" lon="10.79374039625331"><ele>246.16666666666666</ele><time>2026-04-18T13:22:25Z</time></trkpt><trkpt lat="43.29257181435134" lon="10.793819599990861"><ele>245.33333333333331</ele><time>2026-04-18T13:22:26Z</time></trkpt><trkpt lat="43.292622650170166" lon="10.793872501612919"><ele>244.5</ele><time>2026-04-18T13:22:27Z</time></trkpt><trkpt lat="43.29268194675338" lon="10.793908564477954"><ele>243.66666666666669</ele><time>2026-04-18T13:22:28Z</time></trkpt><trkpt lat="43.292757041585894" lon="10.794050312467414"><ele>242.83333333333334</ele><time>2026-04-18T13:22:30Z</time></trkpt><trkpt lat="43.29269479942369" lon="10.794150586963369"><ele>242.0</ele><time>2026-04-18T13:22:32Z</time></trkpt><trkpt lat="43.29262573194786" lon="10.79416309232391"><ele>242.0</ele><time>2026-04-18T13:22:33Z</time></trkpt><trkpt lat="43.292540187408584" lon="10.79414860035142"><ele>242.0</ele><time>2026-04-18T13:22:34Z</time></trkpt><trkpt lat="43.29244137932131" lon="10.7941220457136"><ele>242.0</ele><time>2026-04-18T13:22:35Z</time></trkpt><trkpt lat="43.29233471826699" lon="10.794114138759578"><ele>242.0</ele><time>2026-04-18T13:22:36Z</time></trkpt><trkpt lat="43.29222145040292" lon="10.794092298815851"><ele>242.0</ele><time>2026-04-18T13:22:37Z</time></trkpt><trkpt lat="43.29211008321027" lon="10.794055284408937"><ele>240.25</ele><time>2026-04-18T13:22:38Z</time></trkpt><trkpt lat="43.2920050702884" lon="10.793986694308034"><ele>238.5</ele><time>2026-04-18T13:22:39Z</time></trkpt><trkpt lat="43.29189932470352" lon="10.793906768185675"><ele>236.75</ele><time>2026-04-18T13:22:40Z</time></trkpt><trkpt lat="43.29179016004516" lon="10.793846067121928"><ele>235.0</ele><time>2026-04-18T13:22:41Z</time></trkpt><trkpt lat="43.29168280972526" lon="10.793810039600999"><ele>235.0</ele><time>2026-04-18T13:22:42Z</time></trkpt><trkpt lat="43.29158951973615" lon="10.79379027472785"><ele>235.0</ele><time>2026-04-18T13:22:43Z</time></trkpt><trkpt lat="43.291512911556865" lon="10.793785058709481"><ele>235.0</ele><time>2026-04-18T13:22:44Z</time></trkpt><trkpt lat="43.29144436013052" lon="10.793837059934157"><ele>235.0</ele><time>2026-04-18T13:22:46Z</time></trkpt><trkpt lat="43.291418793921835" lon="10.793957703777991"><ele>235.0</ele><time>2026-04-18T13:22:48Z</time></trkpt><trkpt lat="43.29152852956303" lon="10.79402411493662"><ele>234.99999999999997</ele><time>2026-04-18T13:22:49Z</time></trkpt><trkpt lat="43.291580064230246" lon="10.794088171710245"><ele>235.0</ele><time>2026-04-18T13:22:50Z</time></trkpt><trkpt lat="43.29164221931488" lon="10.794142389654711"><ele>235.0</ele><time>2026-04-18T13:22:51Z</time></trkpt><trkpt lat="43.291710120403984" lon="10.794208493231036"><ele>235.0</ele><time>2026-04-18T13:22:52Z</time></trkpt><trkpt lat="43.29174167032731" lon="10.794330586758536"><ele>234.99999999999997</ele><time>2026-04-18T13:22:53Z</time></trkpt><trkpt lat="43.29178564703874" lon="10.794450457747082"><ele>235.0</ele><time>2026-04-18T13:22:54Z</time></trkpt><trkpt lat="43.2918371163486" lon="10.794570895122444"><ele>233.0</ele><time>2026-04-18T13:22:55.001Z</time></trkpt><trkpt lat="43.29190638279731" lon="10.794672860973197"><ele>231.0</ele><time>2026-04-18T13:22:56.001Z</time></trkpt><trkpt lat="43.29196283723137" lon="10.7948006471097"><ele>229.0</ele><time>2026-04-18T13:22:57.001Z</time></trkpt><trkpt lat="43.29206364791533" lon="10.794876026764925"><ele>227.0</ele><time>2026-04-18T13:22:58.001Z</time></trkpt><trkpt lat="43.292164399057285" lon="10.794956524170253"><ele>225.0</ele><time>2026-04-18T13:22:59.001Z</time></trkpt><trkpt lat="43.29226624494795" lon="10.795051028477554"><ele>225.0</ele><time>2026-04-18T13:23:00.001Z</time></trkpt><trkpt lat="43.2923838744874" lon="10.795106465740917"><ele>225.0</ele><time>2026-04-18T13:23:01.001Z</time></trkpt><trkpt lat="43.292495658373824" lon="10.795186698805104"><ele>225.0</ele><time>2026-04-18T13:23:02.001Z</time></trkpt><trkpt lat="43.29259553191933" lon="10.795269735738124"><ele>225.0</ele><time>2026-04-18T13:23:03.001Z</time></trkpt><trkpt lat="43.29268248251553" lon="10.795365818536839"><ele>222.0</ele><time>2026-04-18T13:23:04.001Z</time></trkpt><trkpt lat="43.292753844032276" lon="10.795468555019692"><ele>219.0</ele><time>2026-04-18T13:23:05.001Z</time></trkpt><trkpt lat="43.29280315461343" lon="10.795560752126839"><ele>216.0</ele><time>2026-04-18T13:23:06.001Z</time></trkpt><trkpt lat="43.292833644111305" lon="10.795653799480394"><ele>213.0</ele><time>2026-04-18T13:23:07.001Z</time></trkpt><trkpt lat="43.29289722271743" lon="10.79578436226736"><ele>210.0</ele><time>2026-04-18T13:23:09.001Z</time></trkpt><trkpt lat="43.29295871859882" lon="10.795863926933635"><ele>210.0</ele><time>2026-04-18T13:23:11.001Z</time></trkpt><trkpt lat="43.29301271548739" lon="10.795984965388856"><ele>210.0</ele><time>2026-04-18T13:23:16.001Z</time></trkpt><trkpt lat="43.29307424700567" lon="10.796007687969684"><ele>210.0</ele><time>2026-04-18T13:23:17.001Z</time></trkpt><trkpt lat="43.29317881521704" lon="10.796040813142877"><ele>210.0</ele><time>2026-04-18T13:23:19.001Z</time></trkpt><trkpt lat="43.29324338060904" lon="10.796036810219833"><ele>210.0</ele><time>2026-04-18T13:23:20.001Z</time></trkpt><trkpt lat="43.293319812028905" lon="10.796015195357963"><ele>210.0</ele><time>2026-04-18T13:23:21.001Z</time></trkpt><trkpt lat="43.29340343086101" lon="10.795974236047343"><ele>210.33333333333334</ele><time>2026-04-18T13:23:22.001Z</time></trkpt><trkpt lat="43.29348724756013" lon="10.795908239551506"><ele>210.66666666666669</ele><time>2026-04-18T13:23:23.001Z</time></trkpt><trkpt lat="43.293566014434276" lon="10.79584647320006"><ele>211.0</ele><time>2026-04-18T13:23:24.001Z</time></trkpt><trkpt lat="43.293627095779954" lon="10.795790893938708"><ele>211.33333333333334</ele><time>2026-04-18T13:23:25.001Z</time></trkpt><trkpt lat="43.29369007138226" lon="10.795736838938002"><ele>211.66666666666669</ele><time>2026-04-18T13:23:26.001Z</time></trkpt><trkpt lat="43.29377625828877" lon="10.79576204592526"><ele>212.0</ele><time>2026-04-18T13:23:27.001Z</time></trkpt><trkpt lat="43.29383726680307" lon="10.795836583137289"><ele>212.0</ele><time>2026-04-18T13:23:28.002Z</time></trkpt><trkpt lat="43.29389479937651" lon="10.79595832447648"><ele>212.0</ele><time>2026-04-18T13:23:29.002Z</time></trkpt><trkpt lat="43.29394159504036" lon="10.796071842505558"><ele>212.0</ele><time>2026-04-18T13:23:30.002Z</time></trkpt><trkpt lat="43.29399375309723" lon="10.796192786306214"><ele>212.0</ele><time>2026-04-18T13:23:31.002Z</time></trkpt><trkpt lat="43.2940577440371" lon="10.796314104592525"><ele>212.0</ele><time>2026-04-18T13:23:32.002Z</time></trkpt><trkpt lat="43.29413415383422" lon="10.796426367766065"><ele>209.0</ele><time>2026-04-18T13:23:33.002Z</time></trkpt><trkpt lat="43.29422426809858" lon="10.796520732503689"><ele>206.0</ele><time>2026-04-18T13:23:34.002Z</time></trkpt><trkpt lat="43.29432296806707" lon="10.796597107704718"><ele>203.0</ele><time>2026-04-18T13:23:35.002Z</time></trkpt><trkpt lat="43.2944314534349" lon="10.796650621786124"><ele>200.0</ele><time>2026-04-18T13:23:36.002Z</time></trkpt><trkpt lat="43.29455424857496" lon="10.796693093759107"><ele>197.66666666666669</ele><time>2026-04-18T13:23:37.002Z</time></trkpt><trkpt lat="43.29480991674177" lon="10.796650893583061"><ele>195.33333333333331</ele><time>2026-04-18T13:23:39.002Z</time></trkpt><trkpt lat="43.29492934464204" lon="10.796672154408789"><ele>193.0</ele><time>2026-04-18T13:23:40.002Z</time></trkpt><trkpt lat="43.295025920820734" lon="10.796726080877786"><ele>193.0</ele><time>2026-04-18T13:23:41.002Z</time></trkpt><trkpt lat="43.29512359397876" lon="10.796737421587851"><ele>193.0</ele><time>2026-04-18T13:23:42.002Z</time></trkpt><trkpt lat="43.29523201711696" lon="10.796697217230598"><ele>193.0</ele><time>2026-04-18T13:23:43.002Z</time></trkpt><trkpt lat="43.29533722189292" lon="10.796608021469046"><ele>193.0</ele><time>2026-04-18T13:23:44.002Z</time></trkpt><trkpt lat="43.295448460758976" lon="10.796494849889756"><ele>193.0</ele><time>2026-04-18T13:23:45.002Z</time></trkpt><trkpt lat="43.295534609304426" lon="10.796335969473148"><ele>193.0</ele><time>2026-04-18T13:23:46.002Z</time></trkpt><trkpt lat="43.29554303722118" lon="10.796178661999383"><ele>193.0</ele><time>2026-04-18T13:23:47.002Z</time></trkpt><trkpt lat="43.29558270972313" lon="10.796070104200195"><ele>193.0</ele><time>2026-04-18T13:23:48.002Z</time></trkpt><trkpt lat="43.29566651346236" lon="10.79598984175634"><ele>191.0</ele><time>2026-04-18T13:23:49.002Z</time></trkpt><trkpt lat="43.295778092228915" lon="10.796064194450882"><ele>189.0</ele><time>2026-04-18T13:23:50.002Z</time></trkpt><trkpt lat="43.29589080187177" lon="10.796078555104158"><ele>187.0</ele><time>2026-04-18T13:23:51.002Z</time></trkpt><trkpt lat="43.29602818805115" lon="10.79603159857565"><ele>185.0</ele><time>2026-04-18T13:23:52.002Z</time></trkpt><trkpt lat="43.2961833306024" lon="10.795938838140161"><ele>185.0</ele><time>2026-04-18T13:23:53.002Z</time></trkpt><trkpt lat="43.29633692565026" lon="10.79589236351249"><ele>185.0</ele><time>2026-04-18T13:23:54.002Z</time></trkpt><trkpt lat="43.29647490569463" lon="10.795885976334546"><ele>185.0</ele><time>2026-04-18T13:23:55.002Z</time></trkpt><trkpt lat="43.296586440094586" lon="10.795876774297572"><ele>185.0</ele><time>2026-04-18T13:23:56.002Z</time></trkpt><trkpt lat="43.29668468392748" lon="10.795814472019215"><ele>181.75</ele><time>2026-04-18T13:23:57.002Z</time></trkpt><trkpt lat="43.29676329415038" lon="10.795680160391097"><ele>178.5</ele><time>2026-04-18T13:23:58.002Z</time></trkpt><trkpt lat="43.29681823702491" lon="10.795509136420849"><ele>175.25</ele><time>2026-04-18T13:23:59.002Z</time></trkpt><trkpt lat="43.29687378305794" lon="10.795351537221036"><ele>172.0</ele><time>2026-04-18T13:24:00.002Z</time></trkpt><trkpt lat="43.29695674594557" lon="10.79524353645677"><ele>172.0</ele><time>2026-04-18T13:24:01.002Z</time></trkpt><trkpt lat="43.29705916163255" lon="10.795195520433928"><ele>172.0</ele><time>2026-04-18T13:24:02.003Z</time></trkpt><trkpt lat="43.29718631551544" lon="10.795253119366594"><ele>172.0</ele><time>2026-04-18T13:24:03.003Z</time></trkpt><trkpt lat="43.29732617084053" lon="10.795291789867166"><ele>172.0</ele><time>2026-04-18T13:24:04.003Z</time></trkpt><trkpt lat="43.29748795735751" lon="10.795305093410182"><ele>168.0</ele><time>2026-04-18T13:24:05.003Z</time></trkpt><trkpt lat="43.29765766348766" lon="10.795301720217697"><ele>164.0</ele><time>2026-04-18T13:24:06.003Z</time></trkpt><trkpt lat="43.29782170642733" lon="10.795288457815861"><ele>160.0</ele><time>2026-04-18T13:24:07.003Z</time></trkpt><trkpt lat="43.29795647846486" lon="10.795278238416284"><ele>160.0</ele><time>2026-04-18T13:24:08.003Z</time></trkpt><trkpt lat="43.29807557472063" lon="10.795278642515907"><ele>160.0</ele><time>2026-04-18T13:24:09.003Z</time></trkpt><trkpt lat="43.29818659946559" lon="10.795363912450116"><ele>160.0</ele><time>2026-04-18T13:24:10.003Z</time></trkpt><trkpt lat="43.298255020172945" lon="10.795513165608696"><ele>160.0</ele><time>2026-04-18T13:24:11.003Z</time></trkpt><trkpt lat="43.29833034076285" lon="10.795654213148628"><ele>160.5</ele><time>2026-04-18T13:24:12.003Z</time></trkpt><trkpt lat="43.29840008871737" lon="10.795790599640142"><ele>161.0</ele><time>2026-04-18T13:24:13.003Z</time></trkpt><trkpt lat="43.29841984383321" lon="10.795958700943252"><ele>161.5</ele><time>2026-04-18T13:24:14.003Z</time></trkpt><trkpt lat="43.29841152111784" lon="10.796134884203752"><ele>162.0</ele><time>2026-04-18T13:24:15.003Z</time></trkpt><trkpt lat="43.298406551999754" lon="10.796291434259711"><ele>160.79999999999998</ele><time>2026-04-18T13:24:16.003Z</time></trkpt><trkpt lat="43.29839703300134" lon="10.796458026426228"><ele>159.6</ele><time>2026-04-18T13:24:17.003Z</time></trkpt><trkpt lat="43.29838719733469" lon="10.796603220325373"><ele>158.39999999999998</ele><time>2026-04-18T13:24:18.003Z</time></trkpt><trkpt lat="43.29838742609463" lon="10.79674170792421"><ele>157.2</ele><time>2026-04-18T13:24:19.003Z</time></trkpt><trkpt lat="43.29840084179184" lon="10.796885697360224"><ele>156.0</ele><time>2026-04-18T13:24:20.003Z</time></trkpt><trkpt lat="43.29842293326551" lon="10.797005733086053"><ele>154.0</ele><time>2026-04-18T13:24:21.003Z</time></trkpt><trkpt lat="43.29847557162288" lon="10.79709647686827"><ele>152.0</ele><time>2026-04-18T13:24:22.003Z</time></trkpt><trkpt lat="43.29852785467229" lon="10.797208288169962"><ele>150.0</ele><time>2026-04-18T13:24:23.003Z</time></trkpt><trkpt lat="43.29859147327158" lon="10.7973116359576"><ele>148.0</ele><time>2026-04-18T13:24:24.003Z</time></trkpt><trkpt lat="43.29866540307151" lon="10.797423351187106"><ele>146.0</ele><time>2026-04-18T13:24:25.003Z</time></trkpt><trkpt lat="43.298751498348615" lon="10.797519652063428"><ele>146.0</ele><time>2026-04-18T13:24:26.003Z</time></trkpt><trkpt lat="43.29881653912934" lon="10.797635352374106"><ele>146.0</ele><time>2026-04-18T13:24:27.003Z</time></trkpt><trkpt lat="43.29886118731714" lon="10.797777472838067"><ele>146.0</ele><time>2026-04-18T13:24:28.003Z</time></trkpt><trkpt lat="43.29888354125251" lon="10.797938300291257"><ele>146.0</ele><time>2026-04-18T13:24:29.003Z</time></trkpt><trkpt lat="43.29889633381509" lon="10.798095082921549"><ele>146.0</ele><time>2026-04-18T13:24:30Z</time></trkpt><trkpt lat="43.29893514902313" lon="10.798247442613329"><ele>146.0</ele><time>2026-04-18T13:24:31Z</time></trkpt><trkpt lat="43.29901326714244" lon="10.798395690287895"><ele>146.0</ele><time>2026-04-18T13:24:32Z</time></trkpt><trkpt lat="43.299099769295466" lon="10.798552823110612"><ele>146.0</ele><time>2026-04-18T13:24:33Z</time></trkpt><trkpt lat="43.299193921011216" lon="10.798725713215365"><ele>146.0</ele><time>2026-04-18T13:24:34Z</time></trkpt><trkpt lat="43.29927817640922" lon="10.798894471147081"><ele>146.0</ele><time>2026-04-18T13:24:35Z</time></trkpt><trkpt lat="43.299322791755195" lon="10.799036474149126"><ele>146.0</ele><time>2026-04-18T13:24:36Z</time></trkpt><trkpt lat="43.29936227109143" lon="10.799138744117316"><ele>146.0</ele><time>2026-04-18T13:24:37Z</time></trkpt><trkpt lat="43.299407281992046" lon="10.799246449103464"><ele>146.0</ele><time>2026-04-18T13:24:38Z</time></trkpt><trkpt lat="43.29941759477351" lon="10.79938091225561"><ele>144.8</ele><time>2026-04-18T13:24:39Z</time></trkpt><trkpt lat="43.299420243081784" lon="10.799513875613293"><ele>143.6</ele><time>2026-04-18T13:24:40Z</time></trkpt><trkpt lat="43.29941771230833" lon="10.799659178571465"><ele>142.4</ele><time>2026-04-18T13:24:41Z</time></trkpt><trkpt lat="43.2994230025879" lon="10.799807000555486"><ele>141.2</ele><time>2026-04-18T13:24:42Z</time></trkpt><trkpt lat="43.299437166126566" lon="10.799952984975128"><ele>140.0</ele><time>2026-04-18T13:24:43Z</time></trkpt><trkpt lat="43.29945040538112" lon="10.800092800232385"><ele>139.6</ele><time>2026-04-18T13:24:44Z</time></trkpt><trkpt lat="43.29944665723755" lon="10.800222555842714"><ele>139.2</ele><time>2026-04-18T13:24:45Z</time></trkpt><trkpt lat="43.299419708659734" lon="10.80034832371808"><ele>138.8</ele><time>2026-04-18T13:24:46Z</time></trkpt><trkpt lat="43.29937194179791" lon="10.800455844481085"><ele>138.4</ele><time>2026-04-18T13:24:47Z</time></trkpt><trkpt lat="43.29931615945712" lon="10.800553609140579"><ele>138.0</ele><time>2026-04-18T13:24:48Z</time></trkpt><trkpt lat="43.29928677359831" lon="10.800672365224782"><ele>138.0</ele><time>2026-04-18T13:24:49Z</time></trkpt><trkpt lat="43.29928373609284" lon="10.80081630113186"><ele>138.0</ele><time>2026-04-18T13:24:50Z</time></trkpt><trkpt lat="43.299325304764785" lon="10.800925408976923"><ele>138.0</ele><time>2026-04-18T13:24:51Z</time></trkpt><trkpt lat="43.2993973853996" lon="10.801034969140952"><ele>138.0</ele><time>2026-04-18T13:24:52Z</time></trkpt><trkpt lat="43.29950085210486" lon="10.801121520367522"><ele>138.0</ele><time>2026-04-18T13:24:53Z</time></trkpt><trkpt lat="43.29961239762609" lon="10.801180099121014"><ele>137.5</ele><time>2026-04-18T13:24:54Z</time></trkpt><trkpt lat="43.29972833373589" lon="10.801228669740814"><ele>137.0</ele><time>2026-04-18T13:24:55.001Z</time></trkpt><trkpt lat="43.29984801654288" lon="10.801268905984287"><ele>136.5</ele><time>2026-04-18T13:24:56.001Z</time></trkpt><trkpt lat="43.29996980495872" lon="10.801308506031535"><ele>136.0</ele><time>2026-04-18T13:24:57.001Z</time></trkpt><trkpt lat="43.30009904400989" lon="10.801337890228883"><ele>137.75</ele><time>2026-04-18T13:24:58.001Z</time></trkpt><trkpt lat="43.30022578828481" lon="10.801346263971327"><ele>139.5</ele><time>2026-04-18T13:24:59.001Z</time></trkpt><trkpt lat="43.30035462931387" lon="10.801333966089992"><ele>141.25</ele><time>2026-04-18T13:25:00.001Z</time></trkpt><trkpt lat="43.30047855541267" lon="10.801338102834306"><ele>143.0</ele><time>2026-04-18T13:25:01.001Z</time></trkpt><trkpt lat="43.30059393459548" lon="10.801318358140621"><ele>143.0</ele><time>2026-04-18T13:25:02.001Z</time></trkpt><trkpt lat="43.30070919908451" lon="10.801351111585873"><ele>143.0</ele><time>2026-04-18T13:25:03.001Z</time></trkpt><trkpt lat="43.30079982750028" lon="10.801443607947082"><ele>143.0</ele><time>2026-04-18T13:25:04.001Z</time></trkpt><trkpt lat="43.300888139896934" lon="10.801534489700023"><ele>143.0</ele><time>2026-04-18T13:25:05.001Z</time></trkpt><trkpt lat="43.30098724183484" lon="10.801615904438371"><ele>143.0</ele><time>2026-04-18T13:25:06.001Z</time></trkpt><trkpt lat="43.30107519601201" lon="10.801719244122129"><ele>143.0</ele><time>2026-04-18T13:25:07.001Z</time></trkpt><trkpt lat="43.30116112703437" lon="10.801819852612432"><ele>143.0</ele><time>2026-04-18T13:25:08.001Z</time></trkpt><trkpt lat="43.30125223373137" lon="10.801909327943974"><ele>143.0</ele><time>2026-04-18T13:25:09.001Z</time></trkpt><trkpt lat="43.301338728154235" lon="10.802008379145072"><ele>142.25</ele><time>2026-04-18T13:25:10.001Z</time></trkpt><trkpt lat="43.30143541121714" lon="10.802094334568581"><ele>141.5</ele><time>2026-04-18T13:25:11.001Z</time></trkpt><trkpt lat="43.30153631548096" lon="10.802186027081511"><ele>140.75</ele><time>2026-04-18T13:25:12.001Z</time></trkpt><trkpt lat="43.30163658626229" lon="10.802280295288641"><ele>140.0</ele><time>2026-04-18T13:25:13.001Z</time></trkpt><trkpt lat="43.30174183433848" lon="10.802379665168145"><ele>140.0</ele><time>2026-04-18T13:25:14.001Z</time></trkpt><trkpt lat="43.30184868732213" lon="10.802477968143226"><ele>140.0</ele><time>2026-04-18T13:25:15.001Z</time></trkpt><trkpt lat="43.30195805818568" lon="10.802577073735701"><ele>140.0</ele><time>2026-04-18T13:25:16.001Z</time></trkpt><trkpt lat="43.30206724225464" lon="10.802677512157068"><ele>140.0</ele><time>2026-04-18T13:25:17.001Z</time></trkpt><trkpt lat="43.30217483976912" lon="10.802777769287875"><ele>138.5</ele><time>2026-04-18T13:25:18.001Z</time></trkpt><trkpt lat="43.302283979212945" lon="10.80287244579515"><ele>137.0</ele><time>2026-04-18T13:25:19.001Z</time></trkpt><trkpt lat="43.30239993848838" lon="10.802945207519826"><ele>135.5</ele><time>2026-04-18T13:25:20.001Z</time></trkpt><trkpt lat="43.302526217251504" lon="10.802984673483232"><ele>134.0</ele><time>2026-04-18T13:25:21.001Z</time></trkpt><trkpt lat="43.30265650874495" lon="10.802987106196133"><ele>134.0</ele><time>2026-04-18T13:25:22.001Z</time></trkpt><trkpt lat="43.30277960259473" lon="10.802943589543133"><ele>134.0</ele><time>2026-04-18T13:25:23.001Z</time></trkpt><trkpt lat="43.30289433396826" lon="10.802866829036422"><ele>134.0</ele><time>2026-04-18T13:25:24.001Z</time></trkpt><trkpt lat="43.30299279661712" lon="10.802763442687546"><ele>134.0</ele><time>2026-04-18T13:25:25.001Z</time></trkpt><trkpt lat="43.303092693077744" lon="10.802684817135992"><ele>133.5</ele><time>2026-04-18T13:25:26.001Z</time></trkpt><trkpt lat="43.30319906952282" lon="10.802644620491654"><ele>133.0</ele><time>2026-04-18T13:25:27.001Z</time></trkpt><trkpt lat="43.30331343467053" lon="10.802644895701967"><ele>132.5</ele><time>2026-04-18T13:25:28.001Z</time></trkpt><trkpt lat="43.3034336225643" lon="10.802665711658747"><ele>132.0</ele><time>2026-04-18T13:25:29.001Z</time></trkpt><trkpt lat="43.30353834584283" lon="10.80272276113458"><ele>131.5</ele><time>2026-04-18T13:25:30.001Z</time></trkpt><trkpt lat="43.303609777989145" lon="10.802845840789244"><ele>131.0</ele><time>2026-04-18T13:25:31.001Z</time></trkpt><trkpt lat="43.30368512224734" lon="10.80298040932472"><ele>130.5</ele><time>2026-04-18T13:25:32.002Z</time></trkpt><trkpt lat="43.30371517398156" lon="10.803168176809178"><ele>130.0</ele><time>2026-04-18T13:25:33.002Z</time></trkpt><trkpt lat="43.3037449052391" lon="10.803374099584161"><ele>127.66666666666667</ele><time>2026-04-18T13:25:34.002Z</time></trkpt><trkpt lat="43.30377971933585" lon="10.80359331522014"><ele>125.33333333333334</ele><time>2026-04-18T13:25:35.002Z</time></trkpt><trkpt lat="43.30381676228074" lon="10.80380412240058"><ele>123.0</ele><time>2026-04-18T13:25:36.002Z</time></trkpt><trkpt lat="43.303853447726894" lon="10.804014372263445"><ele>123.0</ele><time>2026-04-18T13:25:37.002Z</time></trkpt><trkpt lat="43.303899806880494" lon="10.804240301709935"><ele>123.0</ele><time>2026-04-18T13:25:38.002Z</time></trkpt><trkpt lat="43.30393169475373" lon="10.804461180490925"><ele>123.0</ele><time>2026-04-18T13:25:39.002Z</time></trkpt><trkpt lat="43.303993426207995" lon="10.804674936298191"><ele>118.0</ele><time>2026-04-18T13:25:40.002Z</time></trkpt><trkpt lat="43.30403606656369" lon="10.804879938994393"><ele>113.0</ele><time>2026-04-18T13:25:41.002Z</time></trkpt><trkpt lat="43.30405414881853" lon="10.80508113579913"><ele>108.0</ele><time>2026-04-18T13:25:42.002Z</time></trkpt><trkpt lat="43.30409276109727" lon="10.8052694538899"><ele>103.0</ele><time>2026-04-18T13:25:43.002Z</time></trkpt><trkpt lat="43.30408531679036" lon="10.805455407413358"><ele>102.25</ele><time>2026-04-18T13:25:44.002Z</time></trkpt><trkpt lat="43.304083257195536" lon="10.805625142373591"><ele>101.5</ele><time>2026-04-18T13:25:45.002Z</time></trkpt><trkpt lat="43.304082692857776" lon="10.805789109769202"><ele>100.75</ele><time>2026-04-18T13:25:46.002Z</time></trkpt><trkpt lat="43.30404585667287" lon="10.805949017118097"><ele>100.0</ele><time>2026-04-18T13:25:47.002Z</time></trkpt><trkpt lat="43.30398260100343" lon="10.80609753896318"><ele>100.0</ele><time>2026-04-18T13:25:48.002Z</time></trkpt><trkpt lat="43.30388784602103" lon="10.806215511101914"><ele>100.0</ele><time>2026-04-18T13:25:49.002Z</time></trkpt><trkpt lat="43.30380832564418" lon="10.806353209267181"><ele>100.0</ele><time>2026-04-18T13:25:50.002Z</time></trkpt><trkpt lat="43.30371494392911" lon="10.806474658947113"><ele>100.0</ele><time>2026-04-18T13:25:51.002Z</time></trkpt><trkpt lat="43.3036220598891" lon="10.806598875696707"><ele>100.0</ele><time>2026-04-18T13:25:52.002Z</time></trkpt><trkpt lat="43.30352724942123" lon="10.80672579283853"><ele>100.0</ele><time>2026-04-18T13:25:53.002Z</time></trkpt><trkpt lat="43.303432329416616" lon="10.806853411748893"><ele>100.0</ele><time>2026-04-18T13:25:54.002Z</time></trkpt><trkpt lat="43.30333772646484" lon="10.806984423704467"><ele>100.0</ele><time>2026-04-18T13:25:55.002Z</time></trkpt><trkpt lat="43.30324227937321" lon="10.80711549981572"><ele>99.75</ele><time>2026-04-18T13:25:56.002Z</time></trkpt><trkpt lat="43.3031456208717" lon="10.807249651131835"><ele>99.5</ele><time>2026-04-18T13:25:57.002Z</time></trkpt><trkpt lat="43.30304790223106" lon="10.807382883259342"><ele>99.25</ele><time>2026-04-18T13:25:58.002Z</time></trkpt><trkpt lat="43.30294886761468" lon="10.807512521923828"><ele>99.0</ele><time>2026-04-18T13:25:59.002Z</time></trkpt><trkpt lat="43.30285619271447" lon="10.807648268662534"><ele>99.75</ele><time>2026-04-18T13:26:00.002Z</time></trkpt><trkpt lat="43.30277846377767" lon="10.807799531080192"><ele>100.5</ele><time>2026-04-18T13:26:01.002Z</time></trkpt><trkpt lat="43.3027111400815" lon="10.807959612248576"><ele>101.25</ele><time>2026-04-18T13:26:02.002Z</time></trkpt><trkpt lat="43.302650801126845" lon="10.808131114521123"><ele>102.0</ele><time>2026-04-18T13:26:03.002Z</time></trkpt><trkpt lat="43.30259432706995" lon="10.808307423113614"><ele>102.0</ele><time>2026-04-18T13:26:04.002Z</time></trkpt><trkpt lat="43.302537406214185" lon="10.808484655680935"><ele>102.0</ele><time>2026-04-18T13:26:05.002Z</time></trkpt><trkpt lat="43.3024791873263" lon="10.808655730363277"><ele>102.0</ele><time>2026-04-18T13:26:06.002Z</time></trkpt><trkpt lat="43.30242782166723" lon="10.80880797257923"><ele>102.0</ele><time>2026-04-18T13:26:07.003Z</time></trkpt><trkpt lat="43.302373604935426" lon="10.808947949793989"><ele>102.0</ele><time>2026-04-18T13:26:08.003Z</time></trkpt><trkpt lat="43.30232734758941" lon="10.80906558517174"><ele>102.0</ele><time>2026-04-18T13:26:09.003Z</time></trkpt><trkpt lat="43.30229168294751" lon="10.809153766701888"><ele>102.0</ele><time>2026-04-18T13:26:10.003Z</time></trkpt><trkpt lat="43.302252235739154" lon="10.809262181091569"><ele>102.0</ele><time>2026-04-18T13:26:12.003Z</time></trkpt><trkpt lat="43.30213076719245" lon="10.809180319231803"><ele>102.0</ele><time>2026-04-18T13:26:16.003Z</time></trkpt><trkpt lat="43.302056597449926" lon="10.809118919100596"><ele>103.16666666666667</ele><time>2026-04-18T13:26:18.003Z</time></trkpt><trkpt lat="43.301972614205404" lon="10.809006612835242"><ele>104.33333333333334</ele><time>2026-04-18T13:26:20.003Z</time></trkpt><trkpt lat="43.30191756203621" lon="10.808936525661656"><ele>105.5</ele><time>2026-04-18T13:26:21.003Z</time></trkpt><trkpt lat="43.301861568223906" lon="10.808862920366716"><ele>106.66666666666667</ele><time>2026-04-18T13:26:22.003Z</time></trkpt><trkpt lat="43.301795793895465" lon="10.808791446849032"><ele>107.83333333333334</ele><time>2026-04-18T13:26:23.003Z</time></trkpt><trkpt lat="43.301726714527845" lon="10.808708088942417"><ele>109.0</ele><time>2026-04-18T13:26:24.003Z</time></trkpt><trkpt lat="43.301651816299966" lon="10.808629113334158"><ele>109.00000000000001</ele><time>2026-04-18T13:26:25.003Z</time></trkpt><trkpt lat="43.30157658963536" lon="10.808546680743458"><ele>109.0</ele><time>2026-04-18T13:26:26.003Z</time></trkpt><trkpt lat="43.30150133601318" lon="10.808463655248573"><ele>109.0</ele><time>2026-04-18T13:26:27.003Z</time></trkpt><trkpt lat="43.30142982623865" lon="10.80838304385406"><ele>109.0</ele><time>2026-04-18T13:26:28.003Z</time></trkpt><trkpt lat="43.30136529002996" lon="10.808311879113194"><ele>109.00000000000001</ele><time>2026-04-18T13:26:29.003Z</time></trkpt><trkpt lat="43.30130412374075" lon="10.808255260935123"><ele>109.0</ele><time>2026-04-18T13:26:30.003Z</time></trkpt><trkpt lat="43.30123004744418" lon="10.808236846819767"><ele>109.66666666666667</ele><time>2026-04-18T13:26:31.003Z</time></trkpt><trkpt lat="43.30116595613504" lon="10.808274828999986"><ele>110.33333333333334</ele><time>2026-04-18T13:26:32.003Z</time></trkpt><trkpt lat="43.30113600084202" lon="10.808353862283345"><ele>111.0</ele><time>2026-04-18T13:26:33.003Z</time></trkpt><trkpt lat="43.30113942216147" lon="10.808452571705553"><ele>111.66666666666666</ele><time>2026-04-18T13:26:34.003Z</time></trkpt><trkpt lat="43.30117202156387" lon="10.808553917925167"><ele>112.33333333333333</ele><time>2026-04-18T13:26:35.003Z</time></trkpt><trkpt lat="43.30119817579725" lon="10.808663753371684"><ele>113.0</ele><time>2026-04-18T13:26:36Z</time></trkpt><trkpt lat="43.301222233669755" lon="10.8087706281623"><ele>114.33333333333333</ele><time>2026-04-18T13:26:37Z</time></trkpt><trkpt lat="43.301220993123685" lon="10.808871866498711"><ele>115.66666666666666</ele><time>2026-04-18T13:26:38Z</time></trkpt><trkpt lat="43.301190039380245" lon="10.808977224499538"><ele>117.0</ele><time>2026-04-18T13:26:39Z</time></trkpt><trkpt lat="43.30113764524864" lon="10.809060236541693"><ele>118.33333333333334</ele><time>2026-04-18T13:26:40Z</time></trkpt><trkpt lat="43.301077498806656" lon="10.809131493122537"><ele>119.66666666666667</ele><time>2026-04-18T13:26:41Z</time></trkpt><trkpt lat="43.30100695029795" lon="10.809192845157028"><ele>121.0</ele><time>2026-04-18T13:26:42Z</time></trkpt><trkpt lat="43.30094403620912" lon="10.809254859944003"><ele>121.0</ele><time>2026-04-18T13:26:43Z</time></trkpt><trkpt lat="43.30088634219923" lon="10.809311838282825"><ele>121.0</ele><time>2026-04-18T13:26:44Z</time></trkpt><trkpt lat="43.30083415731432" lon="10.809364200528547"><ele>121.0</ele><time>2026-04-18T13:26:45Z</time></trkpt><trkpt lat="43.30075641856053" lon="10.809457706908503"><ele>121.0</ele><time>2026-04-18T13:26:47Z</time></trkpt><trkpt lat="43.300681721052" lon="10.809552559207738"><ele>121.0</ele><time>2026-04-18T13:26:49Z</time></trkpt><trkpt lat="43.3005959158929" lon="10.809670575680776"><ele>122.71428571428571</ele><time>2026-04-18T13:26:51Z</time></trkpt><trkpt lat="43.30054849771565" lon="10.809736592368319"><ele>124.42857142857142</ele><time>2026-04-18T13:26:52Z</time></trkpt><trkpt lat="43.30050653133917" lon="10.809817569506828"><ele>126.14285714285714</ele><time>2026-04-18T13:26:53Z</time></trkpt><trkpt lat="43.30047594145314" lon="10.809909899246934"><ele>127.85714285714286</ele><time>2026-04-18T13:26:54Z</time></trkpt><trkpt lat="43.30045213058072" lon="10.810007147498599"><ele>129.57142857142856</ele><time>2026-04-18T13:26:55Z</time></trkpt><trkpt lat="43.30043667112321" lon="10.810110184575827"><ele>131.28571428571428</ele><time>2026-04-18T13:26:56Z</time></trkpt><trkpt lat="43.3004255574655" lon="10.81021966613221"><ele>133.0</ele><time>2026-04-18T13:26:57Z</time></trkpt><trkpt lat="43.300422438662785" lon="10.810329764283031"><ele>133.33333333333334</ele><time>2026-04-18T13:26:58Z</time></trkpt><trkpt lat="43.300423871963" lon="10.81043467818782"><ele>133.66666666666669</ele><time>2026-04-18T13:26:59Z</time></trkpt><trkpt lat="43.30042666573692" lon="10.810534301324175"><ele>134.0</ele><time>2026-04-18T13:27:00Z</time></trkpt><trkpt lat="43.30041923420945" lon="10.810622689577714"><ele>134.33333333333334</ele><time>2026-04-18T13:27:01Z</time></trkpt><trkpt lat="43.30039497683834" lon="10.810703293589574"><ele>134.66666666666666</ele><time>2026-04-18T13:27:02Z</time></trkpt><trkpt lat="43.300287813587516" lon="10.810772705991456"><ele>135.0</ele><time>2026-04-18T13:27:04.001Z</time></trkpt><trkpt lat="43.30023700298502" lon="10.810719677969157"><ele>135.0</ele><time>2026-04-18T13:27:05.001Z</time></trkpt><trkpt lat="43.30016976974945" lon="10.810595921961342"><ele>135.0</ele><time>2026-04-18T13:27:07.001Z</time></trkpt><trkpt lat="43.30012945788752" lon="10.810521271889233"><ele>135.0</ele><time>2026-04-18T13:27:08.001Z</time></trkpt><trkpt lat="43.30009100142554" lon="10.81043294836083"><ele>135.0</ele><time>2026-04-18T13:27:09.001Z</time></trkpt><trkpt lat="43.300049718069154" lon="10.810327110225668"><ele>135.0</ele><time>2026-04-18T13:27:10.001Z</time></trkpt><trkpt lat="43.30001597289825" lon="10.81022232743539"><ele>135.0</ele><time>2026-04-18T13:27:11.001Z</time></trkpt><trkpt lat="43.29997658396843" lon="10.810108214565217"><ele>134.66666666666666</ele><time>2026-04-18T13:27:12.001Z</time></trkpt><trkpt lat="43.29991431788834" lon="10.810013805104777"><ele>134.33333333333334</ele><time>2026-04-18T13:27:13.001Z</time></trkpt><trkpt lat="43.29985586800297" lon="10.809926028272384"><ele>134.0</ele><time>2026-04-18T13:27:14.001Z</time></trkpt><trkpt lat="43.29980723296075" lon="10.809831343110886"><ele>133.66666666666669</ele><time>2026-04-18T13:27:15.001Z</time></trkpt><trkpt lat="43.29977634117299" lon="10.80972591190855"><ele>133.33333333333334</ele><time>2026-04-18T13:27:16.001Z</time></trkpt><trkpt lat="43.29974412379075" lon="10.80961849283324"><ele>133.0</ele><time>2026-04-18T13:27:17.001Z</time></trkpt><trkpt lat="43.29969857078659" lon="10.809526178130382"><ele>133.5</ele><time>2026-04-18T13:27:18.001Z</time></trkpt><trkpt lat="43.29966253319183" lon="10.809430376952392"><ele>134.0</ele><time>2026-04-18T13:27:19.001Z</time></trkpt><trkpt lat="43.29960958204359" lon="10.80935852818087"><ele>134.5</ele><time>2026-04-18T13:27:20.001Z</time></trkpt><trkpt lat="43.299546397772886" lon="10.809307957493795"><ele>135.0</ele><time>2026-04-18T13:27:21.001Z</time></trkpt><trkpt lat="43.29947177216537" lon="10.809283729776125"><ele>135.5</ele><time>2026-04-18T13:27:22.001Z</time></trkpt><trkpt lat="43.29939534086804" lon="10.809291413633684"><ele>136.0</ele><time>2026-04-18T13:27:23.001Z</time></trkpt><trkpt lat="43.29931673044105" lon="10.809312063564118"><ele>137.0</ele><time>2026-04-18T13:27:24.001Z</time></trkpt><trkpt lat="43.29924287946028" lon="10.809332943683616"><ele>138.0</ele><time>2026-04-18T13:27:25.001Z</time></trkpt><trkpt lat="43.29914052866153" lon="10.809371173819047"><ele>139.0</ele><time>2026-04-18T13:27:27.001Z</time></trkpt><trkpt lat="43.29905081655173" lon="10.809403974143644"><ele>140.0</ele><time>2026-04-18T13:27:29.001Z</time></trkpt><trkpt lat="43.298988782761064" lon="10.809427153804005"><ele>141.0</ele><time>2026-04-18T13:27:30.001Z</time></trkpt><trkpt lat="43.29891097793205" lon="10.809452514371134"><ele>142.0</ele><time>2026-04-18T13:27:31.001Z</time></trkpt><trkpt lat="43.29882393875541" lon="10.809486114795943"><ele>142.25</ele><time>2026-04-18T13:27:32.001Z</time></trkpt><trkpt lat="43.29872281870453" lon="10.809525493395716"><ele>142.5</ele><time>2026-04-18T13:27:33.001Z</time></trkpt><trkpt lat="43.29861438986646" lon="10.809567762585417"><ele>142.75</ele><time>2026-04-18T13:27:34.001Z</time></trkpt><trkpt lat="43.29849803351617" lon="10.809609361946604"><ele>143.0</ele><time>2026-04-18T13:27:35.001Z</time></trkpt><trkpt lat="43.29837555627166" lon="10.80966068088348"><ele>143.0</ele><time>2026-04-18T13:27:36.001Z</time></trkpt><trkpt lat="43.29824791643597" lon="10.809725693481493"><ele>143.0</ele><time>2026-04-18T13:27:37.001Z</time></trkpt><trkpt lat="43.29811453987088" lon="10.809798427142134"><ele>143.0</ele><time>2026-04-18T13:27:38.001Z</time></trkpt><trkpt lat="43.29797649404705" lon="10.809876313669712"><ele>143.0</ele><time>2026-04-18T13:27:39.002Z</time></trkpt><trkpt lat="43.297833863485174" lon="10.809956881555946"><ele>142.66666666666666</ele><time>2026-04-18T13:27:40.002Z</time></trkpt><trkpt lat="43.297682083554534" lon="10.8100318521734"><ele>142.33333333333334</ele><time>2026-04-18T13:27:41.002Z</time></trkpt><trkpt lat="43.297527497442175" lon="10.810114261871359"><ele>142.0</ele><time>2026-04-18T13:27:42.002Z</time></trkpt><trkpt lat="43.29736784555062" lon="10.810199671319795"><ele>144.33333333333334</ele><time>2026-04-18T13:27:43.002Z</time></trkpt><trkpt lat="43.29720473296727" lon="10.810283798545175"><ele>146.66666666666666</ele><time>2026-04-18T13:27:44.002Z</time></trkpt><trkpt lat="43.29703802822163" lon="10.81036428994298"><ele>149.0</ele><time>2026-04-18T13:27:45.002Z</time></trkpt><trkpt lat="43.296871266414946" lon="10.810451180528739"><ele>149.0</ele><time>2026-04-18T13:27:46.002Z</time></trkpt><trkpt lat="43.29670914913291" lon="10.810539593966872"><ele>149.0</ele><time>2026-04-18T13:27:47.002Z</time></trkpt><trkpt lat="43.29654886785812" lon="10.810630979430341"><ele>149.0</ele><time>2026-04-18T13:27:48.002Z</time></trkpt><trkpt lat="43.29639097627873" lon="10.8107239867621"><ele>149.0</ele><time>2026-04-18T13:27:49.002Z</time></trkpt><trkpt lat="43.296231275651365" lon="10.810806095761906"><ele>149.0</ele><time>2026-04-18T13:27:50.002Z</time></trkpt><trkpt lat="43.29607362179084" lon="10.810887200925382"><ele>149.0</ele><time>2026-04-18T13:27:51.002Z</time></trkpt><trkpt lat="43.295912309759615" lon="10.810953056589344"><ele>149.66666666666666</ele><time>2026-04-18T13:27:52.002Z</time></trkpt><trkpt lat="43.29574386116458" lon="10.810996530570918"><ele>150.33333333333334</ele><time>2026-04-18T13:27:53.002Z</time></trkpt><trkpt lat="43.29557010850865" lon="10.81097860739232"><ele>151.0</ele><time>2026-04-18T13:27:54.002Z</time></trkpt><trkpt lat="43.295392330962976" lon="10.810966412841275"><ele>151.0</ele><time>2026-04-18T13:27:55.002Z</time></trkpt><trkpt lat="43.295219502455964" lon="10.810950011270425"><ele>151.0</ele><time>2026-04-18T13:27:56.002Z</time></trkpt><trkpt lat="43.29504490556259" lon="10.810962730305707"><ele>151.0</ele><time>2026-04-18T13:27:57.002Z</time></trkpt><trkpt lat="43.29487149542864" lon="10.810942458198266"><ele>151.0</ele><time>2026-04-18T13:27:58.002Z</time></trkpt><trkpt lat="43.29470876911709" lon="10.810926804528915"><ele>151.0</ele><time>2026-04-18T13:27:59.002Z</time></trkpt><trkpt lat="43.29455011313443" lon="10.810908705028702"><ele>151.0</ele><time>2026-04-18T13:28:00.002Z</time></trkpt><trkpt lat="43.2943978408969" lon="10.810893039163744"><ele>151.0</ele><time>2026-04-18T13:28:01.002Z</time></trkpt><trkpt lat="43.29425234519937" lon="10.810906318928865"><ele>151.0</ele><time>2026-04-18T13:28:02.002Z</time></trkpt><trkpt lat="43.29411162355504" lon="10.810967785852391"><ele>151.0</ele><time>2026-04-18T13:28:03.002Z</time></trkpt><trkpt lat="43.293983361223425" lon="10.811069413123835"><ele>151.0</ele><time>2026-04-18T13:28:04.002Z</time></trkpt><trkpt lat="43.29388770397995" lon="10.811203697493758"><ele>153.0</ele><time>2026-04-18T13:28:05.002Z</time></trkpt><trkpt lat="43.29378629558113" lon="10.811295790821278"><ele>155.0</ele><time>2026-04-18T13:28:06.002Z</time></trkpt><trkpt lat="43.293669296173945" lon="10.811311955101205"><ele>157.0</ele><time>2026-04-18T13:28:07.002Z</time></trkpt><trkpt lat="43.29356812139751" lon="10.81123267982645"><ele>159.0</ele><time>2026-04-18T13:28:08.002Z</time></trkpt><trkpt lat="43.293466347998724" lon="10.811158686304411"><ele>159.0</ele><time>2026-04-18T13:28:09.002Z</time></trkpt><trkpt lat="43.29335853513268" lon="10.811073111479885"><ele>159.0</ele><time>2026-04-18T13:28:10.002Z</time></trkpt><trkpt lat="43.29323228943204" lon="10.81100917662852"><ele>159.0</ele><time>2026-04-18T13:28:11.002Z</time></trkpt><trkpt lat="43.29310724237632" lon="10.810963832115675"><ele>159.0</ele><time>2026-04-18T13:28:12.002Z</time></trkpt><trkpt lat="43.29298592783109" lon="10.810919323329736"><ele>161.2</ele><time>2026-04-18T13:28:13.002Z</time></trkpt><trkpt lat="43.29286976256975" lon="10.810895648433503"><ele>163.4</ele><time>2026-04-18T13:28:14.002Z</time></trkpt><trkpt lat="43.29276643049803" lon="10.810841436912925"><ele>165.6</ele><time>2026-04-18T13:28:15.003Z</time></trkpt><trkpt lat="43.29267063448503" lon="10.810799480961654"><ele>167.8</ele><time>2026-04-18T13:28:16.003Z</time></trkpt><trkpt lat="43.29257929021783" lon="10.810774023046529"><ele>170.0</ele><time>2026-04-18T13:28:17.003Z</time></trkpt><trkpt lat="43.29248317716672" lon="10.81075040952133"><ele>170.0</ele><time>2026-04-18T13:28:18.003Z</time></trkpt><trkpt lat="43.29238036735179" lon="10.810743966541915"><ele>170.0</ele><time>2026-04-18T13:28:19.003Z</time></trkpt><trkpt lat="43.29226908348877" lon="10.810742685346758"><ele>170.0</ele><time>2026-04-18T13:28:20.003Z</time></trkpt><trkpt lat="43.292156790437225" lon="10.810740436568834"><ele>170.0</ele><time>2026-04-18T13:28:21.003Z</time></trkpt><trkpt lat="43.292050315653974" lon="10.810743454015155"><ele>170.0</ele><time>2026-04-18T13:28:22.003Z</time></trkpt><trkpt lat="43.291950726269164" lon="10.810747917112444"><ele>171.66666666666666</ele><time>2026-04-18T13:28:23.003Z</time></trkpt><trkpt lat="43.2918582056502" lon="10.810746828339616"><ele>173.33333333333331</ele><time>2026-04-18T13:28:24.003Z</time></trkpt><trkpt lat="43.29177241279481" lon="10.810719322879686"><ele>175.0</ele><time>2026-04-18T13:28:25.003Z</time></trkpt><trkpt lat="43.29169585079428" lon="10.810653942795561"><ele>176.66666666666666</ele><time>2026-04-18T13:28:26.003Z</time></trkpt><trkpt lat="43.29162517723575" lon="10.810594409797778"><ele>178.33333333333334</ele><time>2026-04-18T13:28:27.003Z</time></trkpt><trkpt lat="43.2915656535908" lon="10.810509968735158"><ele>180.0</ele><time>2026-04-18T13:28:28.003Z</time></trkpt><trkpt lat="43.29151246947324" lon="10.810413926129273"><ele>180.0</ele><time>2026-04-18T13:28:29.003Z</time></trkpt><trkpt lat="43.2914467256851" lon="10.810313555701766"><ele>180.0</ele><time>2026-04-18T13:28:30.003Z</time></trkpt><trkpt lat="43.291381391886326" lon="10.810177521181341"><ele>180.0</ele><time>2026-04-18T13:28:31.003Z</time></trkpt><trkpt lat="43.29131960741221" lon="10.810047411459985"><ele>180.0</ele><time>2026-04-18T13:28:32.003Z</time></trkpt><trkpt lat="43.291251376199135" lon="10.80992800294317"><ele>180.0</ele><time>2026-04-18T13:28:33.003Z</time></trkpt><trkpt lat="43.29118470852837" lon="10.809833800986056"><ele>181.66666666666666</ele><time>2026-04-18T13:28:34.003Z</time></trkpt><trkpt lat="43.29113239498958" lon="10.8097491338853"><ele>183.33333333333334</ele><time>2026-04-18T13:28:35.003Z</time></trkpt><trkpt lat="43.29112572292393" lon="10.80963821680145"><ele>185.0</ele><time>2026-04-18T13:28:36.003Z</time></trkpt><trkpt lat="43.29110499401442" lon="10.809517147018338"><ele>186.66666666666669</ele><time>2026-04-18T13:28:37.003Z</time></trkpt><trkpt lat="43.291085484202235" lon="10.809386286506864"><ele>188.33333333333334</ele><time>2026-04-18T13:28:38.003Z</time></trkpt><trkpt lat="43.29105579605097" lon="10.80925940034568"><ele>190.0</ele><time>2026-04-18T13:28:39.003Z</time></trkpt><trkpt lat="43.291061600420306" lon="10.809142812022266"><ele>190.2</ele><time>2026-04-18T13:28:40.003Z</time></trkpt><trkpt lat="43.29108176052388" lon="10.809003639993003"><ele>190.4</ele><time>2026-04-18T13:28:41.003Z</time></trkpt><trkpt lat="43.29110681288977" lon="10.808873828566272"><ele>190.60000000000002</ele><time>2026-04-18T13:28:42Z</time></trkpt><trkpt lat="43.29114159311885" lon="10.808753129872017"><ele>190.8</ele><time>2026-04-18T13:28:43Z</time></trkpt><trkpt lat="43.2911806977063" lon="10.808636334366092"><ele>191.0</ele><time>2026-04-18T13:28:44Z</time></trkpt><trkpt lat="43.29123586093764" lon="10.808540217274489"><ele>191.83333333333331</ele><time>2026-04-18T13:28:45Z</time></trkpt><trkpt lat="43.29129710897369" lon="10.808464256420985"><ele>192.66666666666666</ele><time>2026-04-18T13:28:46Z</time></trkpt><trkpt lat="43.291342291665195" lon="10.808375074487255"><ele>193.5</ele><time>2026-04-18T13:28:47Z</time></trkpt><trkpt lat="43.29136275057396" lon="10.8082701797988"><ele>194.33333333333331</ele><time>2026-04-18T13:28:48Z</time></trkpt><trkpt lat="43.29134690504739" lon="10.808150042052189"><ele>195.16666666666666</ele><time>2026-04-18T13:28:49Z</time></trkpt><trkpt lat="43.2913063121863" lon="10.808037772042182"><ele>196.0</ele><time>2026-04-18T13:28:50Z</time></trkpt><trkpt lat="43.29127209441267" lon="10.807913634241768"><ele>196.0</ele><time>2026-04-18T13:28:51Z</time></trkpt><trkpt lat="43.29124693186385" lon="10.807784694388035"><ele>196.0</ele><time>2026-04-18T13:28:52Z</time></trkpt><trkpt lat="43.2912240006521" lon="10.807648958369684"><ele>196.0</ele><time>2026-04-18T13:28:53Z</time></trkpt><trkpt lat="43.29120197224744" lon="10.80750694582508"><ele>196.0</ele><time>2026-04-18T13:28:54Z</time></trkpt><trkpt lat="43.29117667219141" lon="10.80735776388812"><ele>196.0</ele><time>2026-04-18T13:28:55Z</time></trkpt><trkpt lat="43.291153102181276" lon="10.807199416852827"><ele>196.4</ele><time>2026-04-18T13:28:56Z</time></trkpt><trkpt lat="43.29112734303543" lon="10.807044550890003"><ele>196.8</ele><time>2026-04-18T13:28:57Z</time></trkpt><trkpt lat="43.29110410850273" lon="10.806901401773297"><ele>197.20000000000002</ele><time>2026-04-18T13:28:58Z</time></trkpt><trkpt lat="43.291065849863756" lon="10.806772079218902"><ele>197.60000000000002</ele><time>2026-04-18T13:28:59Z</time></trkpt><trkpt lat="43.29100278094061" lon="10.80665110519099"><ele>198.0</ele><time>2026-04-18T13:29:00Z</time></trkpt><trkpt lat="43.29093092947087" lon="10.806552893538365"><ele>198.0</ele><time>2026-04-18T13:29:01Z</time></trkpt><trkpt lat="43.290864183140634" lon="10.806475729385793"><ele>198.0</ele><time>2026-04-18T13:29:02Z</time></trkpt><trkpt lat="43.29079397084336" lon="10.80642920487082"><ele>198.0</ele><time>2026-04-18T13:29:03Z</time></trkpt><trkpt lat="43.29067678908865" lon="10.806459550827721"><ele>198.0</ele><time>2026-04-18T13:29:05Z</time></trkpt><trkpt lat="43.29063855539249" lon="10.8065868852738"><ele>198.0</ele><time>2026-04-18T13:29:07Z</time></trkpt><trkpt lat="43.29064927534053" lon="10.80669111698497"><ele>198.0</ele><time>2026-04-18T13:29:08Z</time></trkpt><trkpt lat="43.29065930621701" lon="10.806801397135429"><ele>198.0</ele><time>2026-04-18T13:29:09Z</time></trkpt><trkpt lat="43.29067106233606" lon="10.80691495291134"><ele>198.0</ele><time>2026-04-18T13:29:10Z</time></trkpt><trkpt lat="43.290679513852055" lon="10.807025459596314"><ele>198.0</ele><time>2026-04-18T13:29:11Z</time></trkpt><trkpt lat="43.29068265497555" lon="10.80714367823511"><ele>198.0</ele><time>2026-04-18T13:29:12Z</time></trkpt><trkpt lat="43.29066990474207" lon="10.807270618919125"><ele>198.0</ele><time>2026-04-18T13:29:13Z</time></trkpt><trkpt lat="43.290643240483895" lon="10.807399325948674"><ele>198.33333333333334</ele><time>2026-04-18T13:29:14.001Z</time></trkpt><trkpt lat="43.29062225490601" lon="10.807533487464848"><ele>198.66666666666669</ele><time>2026-04-18T13:29:15.001Z</time></trkpt><trkpt lat="43.290598898182154" lon="10.807659233887472"><ele>199.0</ele><time>2026-04-18T13:29:16.001Z</time></trkpt><trkpt lat="43.29057518668861" lon="10.80777377107814"><ele>199.33333333333334</ele><time>2026-04-18T13:29:17.001Z</time></trkpt><trkpt lat="43.29055081702571" lon="10.807885352501154"><ele>199.66666666666669</ele><time>2026-04-18T13:29:18.001Z</time></trkpt><trkpt lat="43.290516486317976" lon="10.807987931738547"><ele>200.0</ele><time>2026-04-18T13:29:19.001Z</time></trkpt><trkpt lat="43.290471611605405" lon="10.808087514985296"><ele>202.16666666666669</ele><time>2026-04-18T13:29:20.001Z</time></trkpt><trkpt lat="43.29040511400407" lon="10.808170153911233"><ele>204.33333333333334</ele><time>2026-04-18T13:29:21.001Z</time></trkpt><trkpt lat="43.290347017748054" lon="10.808258119230938"><ele>206.5</ele><time>2026-04-18T13:29:22.001Z</time></trkpt><trkpt lat="43.290281970942154" lon="10.80833749253259"><ele>208.66666666666669</ele><time>2026-04-18T13:29:23.001Z</time></trkpt><trkpt lat="43.290219668381674" lon="10.808416231380827"><ele>210.83333333333334</ele><time>2026-04-18T13:29:24.001Z</time></trkpt><trkpt lat="43.29015159801956" lon="10.808500400569153"><ele>213.0</ele><time>2026-04-18T13:29:25.001Z</time></trkpt><trkpt lat="43.29009793788336" lon="10.808595130669524"><ele>213.0</ele><time>2026-04-18T13:29:26.001Z</time></trkpt><trkpt lat="43.29006134341124" lon="10.808700267293009"><ele>213.0</ele><time>2026-04-18T13:29:27.001Z</time></trkpt><trkpt lat="43.290036303980635" lon="10.808809849690753"><ele>213.0</ele><time>2026-04-18T13:29:28.001Z</time></trkpt><trkpt lat="43.29001423917393" lon="10.808927856134723"><ele>213.0</ele><time>2026-04-18T13:29:29.001Z</time></trkpt><trkpt lat="43.289995063541824" lon="10.809039330883683"><ele>213.0</ele><time>2026-04-18T13:29:30.001Z</time></trkpt><trkpt lat="43.289977380255884" lon="10.809154061983449"><ele>213.0</ele><time>2026-04-18T13:29:31.001Z</time></trkpt><trkpt lat="43.289957907210194" lon="10.809273993701137"><ele>212.33333333333334</ele><time>2026-04-18T13:29:32.001Z</time></trkpt><trkpt lat="43.289934498620966" lon="10.809378621236883"><ele>211.66666666666669</ele><time>2026-04-18T13:29:33.001Z</time></trkpt><trkpt lat="43.2898898020387" lon="10.809464160833425"><ele>211.0</ele><time>2026-04-18T13:29:34.001Z</time></trkpt><trkpt lat="43.28982486702826" lon="10.809522701417334"><ele>210.33333333333334</ele><time>2026-04-18T13:29:35.001Z</time></trkpt><trkpt lat="43.289748994094786" lon="10.809560286551566"><ele>209.66666666666669</ele><time>2026-04-18T13:29:36.001Z</time></trkpt><trkpt lat="43.28967364345697" lon="10.809597747539776"><ele>209.0</ele><time>2026-04-18T13:29:37.001Z</time></trkpt><trkpt lat="43.28959034093998" lon="10.80968330957577"><ele>212.00000000000003</ele><time>2026-04-18T13:29:38.001Z</time></trkpt><trkpt lat="43.28952784538888" lon="10.809758673479912"><ele>215.0</ele><time>2026-04-18T13:29:39.001Z</time></trkpt><trkpt lat="43.28947164251063" lon="10.80985672395266"><ele>218.0</ele><time>2026-04-18T13:29:40.001Z</time></trkpt><trkpt lat="43.28941650783758" lon="10.809951060746275"><ele>221.0</ele><time>2026-04-18T13:29:41.001Z</time></trkpt><trkpt lat="43.289359547633026" lon="10.810063334283159"><ele>224.00000000000003</ele><time>2026-04-18T13:29:42.001Z</time></trkpt><trkpt lat="43.289313070116265" lon="10.810163183763523"><ele>227.0</ele><time>2026-04-18T13:29:43.001Z</time></trkpt><trkpt lat="43.28929559010544" lon="10.81027742025407"><ele>227.00000000000003</ele><time>2026-04-18T13:29:44.001Z</time></trkpt><trkpt lat="43.289300250234696" lon="10.81039389267056"><ele>227.0</ele><time>2026-04-18T13:29:45.001Z</time></trkpt><trkpt lat="43.28933533790631" lon="10.810508244378381"><ele>227.0</ele><time>2026-04-18T13:29:46.001Z</time></trkpt><trkpt lat="43.289363208411714" lon="10.810616797534115"><ele>227.0</ele><time>2026-04-18T13:29:47.001Z</time></trkpt><trkpt lat="43.2893689792419" lon="10.810727475947559"><ele>227.00000000000003</ele><time>2026-04-18T13:29:48.001Z</time></trkpt><trkpt lat="43.28934923654911" lon="10.810846005554057"><ele>227.0</ele><time>2026-04-18T13:29:49.001Z</time></trkpt><trkpt lat="43.28930832790477" lon="10.81096036409137"><ele>226.8</ele><time>2026-04-18T13:29:50.002Z</time></trkpt><trkpt lat="43.28925660060689" lon="10.811071823073979"><ele>226.6</ele><time>2026-04-18T13:29:51.002Z</time></trkpt><trkpt lat="43.289210776387094" lon="10.811201001857743"><ele>226.40000000000003</ele><time>2026-04-18T13:29:52.002Z</time></trkpt><trkpt lat="43.289167854456885" lon="10.811336358723018"><ele>226.20000000000002</ele><time>2026-04-18T13:29:53.002Z</time></trkpt><trkpt lat="43.289122875257" lon="10.811467683165006"><ele>226.0</ele><time>2026-04-18T13:29:54.002Z</time></trkpt><trkpt lat="43.28908030190768" lon="10.811585627667109"><ele>226.0</ele><time>2026-04-18T13:29:55.002Z</time></trkpt><trkpt lat="43.28904076162537" lon="10.811695745947668"><ele>226.00000000000003</ele><time>2026-04-18T13:29:56.002Z</time></trkpt><trkpt lat="43.28894133575382" lon="10.811791833514825"><ele>226.00000000000003</ele><time>2026-04-18T13:29:58.002Z</time></trkpt><trkpt lat="43.288848728307336" lon="10.811703807002617"><ele>226.0</ele><time>2026-04-18T13:30:00.002Z</time></trkpt><trkpt lat="43.288867365136134" lon="10.81161173053279"><ele>226.0</ele><time>2026-04-18T13:30:01.002Z</time></trkpt><trkpt lat="43.28890413978773" lon="10.81145277913484"><ele>225.99999999999997</ele><time>2026-04-18T13:30:03.002Z</time></trkpt><trkpt lat="43.28890732739389" lon="10.81135199943274"><ele>226.0</ele><time>2026-04-18T13:30:04.002Z</time></trkpt><trkpt lat="43.28891805013394" lon="10.811247981293121"><ele>226.0</ele><time>2026-04-18T13:30:05.002Z</time></trkpt><trkpt lat="43.288935866349775" lon="10.811142646813087"><ele>226.0</ele><time>2026-04-18T13:30:06.002Z</time></trkpt><trkpt lat="43.28892533485399" lon="10.811036653040317"><ele>225.99999999999997</ele><time>2026-04-18T13:30:07.002Z</time></trkpt><trkpt lat="43.288901445921844" lon="10.810916467944612"><ele>226.0</ele><time>2026-04-18T13:30:08.002Z</time></trkpt><trkpt lat="43.28887375017132" lon="10.810797803971033"><ele>229.20000000000002</ele><time>2026-04-18T13:30:09.002Z</time></trkpt><trkpt lat="43.28884265358435" lon="10.810673465158096"><ele>232.40000000000003</ele><time>2026-04-18T13:30:10.002Z</time></trkpt><trkpt lat="43.28881020765552" lon="10.8105437310863"><ele>235.6</ele><time>2026-04-18T13:30:11.002Z</time></trkpt><trkpt lat="43.28877758492824" lon="10.810414066983933"><ele>238.8</ele><time>2026-04-18T13:30:12.002Z</time></trkpt><trkpt lat="43.288748654267295" lon="10.810287582015748"><ele>242.0</ele><time>2026-04-18T13:30:13.002Z</time></trkpt><trkpt lat="43.288724298315486" lon="10.810157991078519"><ele>243.0</ele><time>2026-04-18T13:30:14.002Z</time></trkpt><trkpt lat="43.28871806287797" lon="10.810027605864336"><ele>244.0</ele><time>2026-04-18T13:30:15.002Z</time></trkpt><trkpt lat="43.28873368567013" lon="10.809894550308915"><ele>245.0</ele><time>2026-04-18T13:30:16.002Z</time></trkpt><trkpt lat="43.28875458363813" lon="10.809760182520797"><ele>246.0</ele><time>2026-04-18T13:30:17.002Z</time></trkpt><trkpt lat="43.28877664439599" lon="10.809623759950266"><ele>247.0</ele><time>2026-04-18T13:30:18.002Z</time></trkpt><trkpt lat="43.288792990101996" lon="10.809482663917265"><ele>247.0</ele><time>2026-04-18T13:30:19.002Z</time></trkpt><trkpt lat="43.28880082151242" lon="10.809343173424432"><ele>247.0</ele><time>2026-04-18T13:30:20.002Z</time></trkpt><trkpt lat="43.28879721133164" lon="10.809214572134808"><ele>247.0</ele><time>2026-04-18T13:30:21.002Z</time></trkpt><trkpt lat="43.28878283924318" lon="10.809100983050401"><ele>247.0</ele><time>2026-04-18T13:30:22.002Z</time></trkpt><trkpt lat="43.28873661880978" lon="10.809014842829885"><ele>247.0</ele><time>2026-04-18T13:30:23.002Z</time></trkpt><trkpt lat="43.28863732296241" lon="10.808965197315647"><ele>247.0</ele><time>2026-04-18T13:30:25.002Z</time></trkpt><trkpt lat="43.28857052195559" lon="10.809000685341442"><ele>247.0</ele><time>2026-04-18T13:30:26.003Z</time></trkpt><trkpt lat="43.288533776987336" lon="10.809071232805795"><ele>247.0</ele><time>2026-04-18T13:30:27.003Z</time></trkpt><trkpt lat="43.28851226451411" lon="10.809162161753298"><ele>247.0</ele><time>2026-04-18T13:30:28.003Z</time></trkpt><trkpt lat="43.28849045459737" lon="10.809247957992067"><ele>247.0</ele><time>2026-04-18T13:30:29.003Z</time></trkpt><trkpt lat="43.288466160470136" lon="10.809350310936575"><ele>247.0</ele><time>2026-04-18T13:30:30.003Z</time></trkpt><trkpt lat="43.28844017680037" lon="10.809459646589104"><ele>247.0</ele><time>2026-04-18T13:30:31.003Z</time></trkpt><trkpt lat="43.288410275116455" lon="10.809578614018122"><ele>247.0</ele><time>2026-04-18T13:30:32.003Z</time></trkpt><trkpt lat="43.28836322663329" lon="10.809695838613862"><ele>247.0</ele><time>2026-04-18T13:30:33.003Z</time></trkpt><trkpt lat="43.28833676721023" lon="10.809818473811385"><ele>247.0</ele><time>2026-04-18T13:30:34.003Z</time></trkpt><trkpt lat="43.288315454932366" lon="10.809949175902027"><ele>247.0</ele><time>2026-04-18T13:30:35.003Z</time></trkpt><trkpt lat="43.28829275477433" lon="10.810074843116354"><ele>247.0</ele><time>2026-04-18T13:30:36.003Z</time></trkpt><trkpt lat="43.28828790742763" lon="10.810217531174805"><ele>246.16666666666666</ele><time>2026-04-18T13:30:37.003Z</time></trkpt><trkpt lat="43.28828049918565" lon="10.810346805036547"><ele>245.33333333333331</ele><time>2026-04-18T13:30:38.003Z</time></trkpt><trkpt lat="43.28828045118626" lon="10.810471750548938"><ele>244.5</ele><time>2026-04-18T13:30:39.003Z</time></trkpt><trkpt lat="43.288278398651805" lon="10.810598410228662"><ele>243.66666666666669</ele><time>2026-04-18T13:30:40.003Z</time></trkpt><trkpt lat="43.288276444228934" lon="10.810708587581175"><ele>242.83333333333334</ele><time>2026-04-18T13:30:41.003Z</time></trkpt><trkpt lat="43.2882680135512" lon="10.810815817649043"><ele>242.0</ele><time>2026-04-18T13:30:42.003Z</time></trkpt><trkpt lat="43.28825064650086" lon="10.810931972732211"><ele>241.0</ele><time>2026-04-18T13:30:43.003Z</time></trkpt><trkpt lat="43.28821416141741" lon="10.811038400655638"><ele>240.0</ele><time>2026-04-18T13:30:44.003Z</time></trkpt><trkpt lat="43.28817203054627" lon="10.811141803135243"><ele>239.0</ele><time>2026-04-18T13:30:45.003Z</time></trkpt><trkpt lat="43.28811721761261" lon="10.811239217746124"><ele>238.0</ele><time>2026-04-18T13:30:46.003Z</time></trkpt><trkpt lat="43.28805434917809" lon="10.81133593056641"><ele>237.0</ele><time>2026-04-18T13:30:47.003Z</time></trkpt><trkpt lat="43.28797735303692" lon="10.811414775514997"><ele>239.6</ele><time>2026-04-18T13:30:48Z</time></trkpt><trkpt lat="43.287896045116206" lon="10.811486878265459"><ele>242.2</ele><time>2026-04-18T13:30:49Z</time></trkpt><trkpt lat="43.28781417373123" lon="10.811555435838923"><ele>244.8</ele><time>2026-04-18T13:30:50Z</time></trkpt><trkpt lat="43.28772994207549" lon="10.811626808079211"><ele>247.4</ele><time>2026-04-18T13:30:51Z</time></trkpt><trkpt lat="43.287647004730076" lon="10.81168927503438"><ele>250.0</ele><time>2026-04-18T13:30:52Z</time></trkpt><trkpt lat="43.287557954121986" lon="10.811728364654025"><ele>250.0</ele><time>2026-04-18T13:30:53Z</time></trkpt><trkpt lat="43.28746234752506" lon="10.81175237045739"><ele>250.0</ele><time>2026-04-18T13:30:54Z</time></trkpt><trkpt lat="43.28736001300995" lon="10.811776864082278"><ele>250.0</ele><time>2026-04-18T13:30:55Z</time></trkpt><trkpt lat="43.287256256149085" lon="10.811822376877"><ele>250.0</ele><time>2026-04-18T13:30:56Z</time></trkpt><trkpt lat="43.28715998842453" lon="10.811900135578034"><ele>250.0</ele><time>2026-04-18T13:30:57Z</time></trkpt><trkpt lat="43.28707976392921" lon="10.811981069242409"><ele>252.33333333333331</ele><time>2026-04-18T13:30:58Z</time></trkpt><trkpt lat="43.28700226381242" lon="10.81206114431797"><ele>254.66666666666666</ele><time>2026-04-18T13:30:59Z</time></trkpt><trkpt lat="43.286939676841065" lon="10.812150054603237"><ele>257.0</ele><time>2026-04-18T13:31:00Z</time></trkpt><trkpt lat="43.286892549968485" lon="10.81225269183935"><ele>259.3333333333333</ele><time>2026-04-18T13:31:01Z</time></trkpt><trkpt lat="43.28687454149461" lon="10.812369128710985"><ele>261.6666666666667</ele><time>2026-04-18T13:31:02Z</time></trkpt><trkpt lat="43.286872775483545" lon="10.812478840201113"><ele>264.0</ele><time>2026-04-18T13:31:03Z</time></trkpt><trkpt lat="43.286869188226255" lon="10.812605101539933"><ele>263.4</ele><time>2026-04-18T13:31:04Z</time></trkpt><trkpt lat="43.28690134228839" lon="10.812722898180677"><ele>262.79999999999995</ele><time>2026-04-18T13:31:05Z</time></trkpt><trkpt lat="43.28693408809829" lon="10.812858130980004"><ele>262.20000000000005</ele><time>2026-04-18T13:31:06Z</time></trkpt><trkpt lat="43.286963439770126" lon="10.81298574621332"><ele>261.6</ele><time>2026-04-18T13:31:07Z</time></trkpt><trkpt lat="43.286995373741405" lon="10.813095766294625"><ele>261.0</ele><time>2026-04-18T13:31:08Z</time></trkpt><trkpt lat="43.287010335673315" lon="10.81320016454902"><ele>261.0</ele><time>2026-04-18T13:31:09Z</time></trkpt><trkpt lat="43.28699403729726" lon="10.813309813137838"><ele>261.0</ele><time>2026-04-18T13:31:10Z</time></trkpt><trkpt lat="43.28695392330945" lon="10.813420141581284"><ele>261.0</ele><time>2026-04-18T13:31:11Z</time></trkpt><trkpt lat="43.28686794325881" lon="10.813506178543275"><ele>261.0</ele><time>2026-04-18T13:31:12Z</time></trkpt><trkpt lat="43.286793746575704" lon="10.81361241730188"><ele>261.0</ele><time>2026-04-18T13:31:13Z</time></trkpt><trkpt lat="43.28670086616466" lon="10.813708532619847"><ele>259.5</ele><time>2026-04-18T13:31:14Z</time></trkpt><trkpt lat="43.286602536354366" lon="10.813804929391878"><ele>258.0</ele><time>2026-04-18T13:31:15Z</time></trkpt><trkpt lat="43.2865050344696" lon="10.813892511421718"><ele>256.5</ele><time>2026-04-18T13:31:16Z</time></trkpt><trkpt lat="43.28641385972855" lon="10.813969257383363"><ele>255.0</ele><time>2026-04-18T13:31:17Z</time></trkpt><trkpt lat="43.28632555592338" lon="10.814063365355807"><ele>257.75</ele><time>2026-04-18T13:31:18Z</time></trkpt><trkpt lat="43.28626145980446" lon="10.814204516714556"><ele>260.5</ele><time>2026-04-18T13:31:19Z</time></trkpt><trkpt lat="43.28622369735251" lon="10.814355986845138"><ele>263.25</ele><time>2026-04-18T13:31:20Z</time></trkpt><trkpt lat="43.28614954339605" lon="10.814579752083516"><ele>266.0</ele><time>2026-04-18T13:31:22Z</time></trkpt><trkpt lat="43.286098064209824" lon="10.814658266418398"><ele>266.0</ele><time>2026-04-18T13:31:23Z</time></trkpt><trkpt lat="43.28603678728147" lon="10.814710194870317"><ele>266.0</ele><time>2026-04-18T13:31:24Z</time></trkpt><trkpt lat="43.285967888695914" lon="10.814736934380283"><ele>266.0</ele><time>2026-04-18T13:31:25Z</time></trkpt><trkpt lat="43.2858629559471" lon="10.81477167523264"><ele>266.0</ele><time>2026-04-18T13:31:27.001Z</time></trkpt><trkpt lat="43.285732279935154" lon="10.814807781653654"><ele>266.0</ele><time>2026-04-18T13:31:29.001Z</time></trkpt><trkpt lat="43.28566755882966" lon="10.81483295313251"><ele>267.0</ele><time>2026-04-18T13:31:30.001Z</time></trkpt><trkpt lat="43.28559055850684" lon="10.814858520534319"><ele>268.0</ele><time>2026-04-18T13:31:31.001Z</time></trkpt><trkpt lat="43.285505328335105" lon="10.814881845890914"><ele>269.0</ele><time>2026-04-18T13:31:32.001Z</time></trkpt><trkpt lat="43.28542816337732" lon="10.814942869972654"><ele>270.0</ele><time>2026-04-18T13:31:33.001Z</time></trkpt><trkpt lat="43.28535397378469" lon="10.81500840038876"><ele>271.0</ele><time>2026-04-18T13:31:34.001Z</time></trkpt><trkpt lat="43.285272080367626" lon="10.815089994957921"><ele>272.0</ele><time>2026-04-18T13:31:35.001Z</time></trkpt><trkpt lat="43.28519267814969" lon="10.815181411516473"><ele>272.0</ele><time>2026-04-18T13:31:36.001Z</time></trkpt><trkpt lat="43.28512020544659" lon="10.815271216524101"><ele>272.0</ele><time>2026-04-18T13:31:37.001Z</time></trkpt><trkpt lat="43.285042011628974" lon="10.815358359564376"><ele>272.0</ele><time>2026-04-18T13:31:38.001Z</time></trkpt><trkpt lat="43.28497412010399" lon="10.815440277921665"><ele>272.0</ele><time>2026-04-18T13:31:39.001Z</time></trkpt><trkpt lat="43.284909369647906" lon="10.81551617648193"><ele>272.0</ele><time>2026-04-18T13:31:40.001Z</time></trkpt><trkpt lat="43.28485084268152" lon="10.8155836723722"><ele>272.0</ele><time>2026-04-18T13:31:41.001Z</time></trkpt><trkpt lat="43.28480024373594" lon="10.81565049452936"><ele>272.0</ele><time>2026-04-18T13:31:42.001Z</time></trkpt><trkpt lat="43.28471793592838" lon="10.81574549507935"><ele>272.0</ele><time>2026-04-18T13:31:44.001Z</time></trkpt><trkpt lat="43.28465016773583" lon="10.81580271441005"><ele>272.0</ele><time>2026-04-18T13:31:46.001Z</time></trkpt><trkpt lat="43.28459699154446" lon="10.815852439456828"><ele>272.0</ele><time>2026-04-18T13:31:53.001Z</time></trkpt><trkpt lat="43.28452167183288" lon="10.815910697671342"><ele>272.0</ele><time>2026-04-18T13:31:55.001Z</time></trkpt><trkpt lat="43.28442135920728" lon="10.815919034674549"><ele>273.5</ele><time>2026-04-18T13:31:57.001Z</time></trkpt><trkpt lat="43.28435086469704" lon="10.815838177311822"><ele>275.0</ele><time>2026-04-18T13:31:59.002Z</time></trkpt><trkpt lat="43.284272211345964" lon="10.815728829070943"><ele>276.5</ele><time>2026-04-18T13:32:01.002Z</time></trkpt><trkpt lat="43.28422826452722" lon="10.815661763326846"><ele>278.0</ele><time>2026-04-18T13:32:02.002Z</time></trkpt><trkpt lat="43.28417015563109" lon="10.815608676935625"><ele>279.5</ele><time>2026-04-18T13:32:03.002Z</time></trkpt><trkpt lat="43.28412303991376" lon="10.815540531372504"><ele>281.0</ele><time>2026-04-18T13:32:04.002Z</time></trkpt><trkpt lat="43.28408055129511" lon="10.815468626627297"><ele>281.0</ele><time>2026-04-18T13:32:05.002Z</time></trkpt><trkpt lat="43.284032170370374" lon="10.815402379387935"><ele>281.0</ele><time>2026-04-18T13:32:06.002Z</time></trkpt><trkpt lat="43.28398516944003" lon="10.815334519975593"><ele>281.0</ele><time>2026-04-18T13:32:07.002Z</time></trkpt><trkpt lat="43.28393726685743" lon="10.815272197700242"><ele>281.0</ele><time>2026-04-18T13:32:08.002Z</time></trkpt><trkpt lat="43.28383014728599" lon="10.81518480001177"><ele>281.0</ele><time>2026-04-18T13:32:10.002Z</time></trkpt><trkpt lat="43.28376496952813" lon="10.815165106815112"><ele>281.0</ele><time>2026-04-18T13:32:11.002Z</time></trkpt><trkpt lat="43.28369361689692" lon="10.815161997793297"><ele>280.6</ele><time>2026-04-18T13:32:12.002Z</time></trkpt><trkpt lat="43.28361257259981" lon="10.815171521901153"><ele>280.20000000000005</ele><time>2026-04-18T13:32:13.002Z</time></trkpt><trkpt lat="43.28345236967862" lon="10.815234232711383"><ele>279.79999999999995</ele><time>2026-04-18T13:32:15.002Z</time></trkpt><trkpt lat="43.28337462633475" lon="10.815270669331667"><ele>279.4</ele><time>2026-04-18T13:32:16.002Z</time></trkpt><trkpt lat="43.28330294418672" lon="10.815301595911329"><ele>279.0</ele><time>2026-04-18T13:32:17.002Z</time></trkpt><trkpt lat="43.28323366107307" lon="10.815308859125338"><ele>278.99999999999994</ele><time>2026-04-18T13:32:18.002Z</time></trkpt><trkpt lat="43.28317073208866" lon="10.815275655268428"><ele>279.0</ele><time>2026-04-18T13:32:19.002Z</time></trkpt><trkpt lat="43.28313791138187" lon="10.815200114706057"><ele>279.0</ele><time>2026-04-18T13:32:20.002Z</time></trkpt><trkpt lat="43.28314729290919" lon="10.815106066817506"><ele>279.0</ele><time>2026-04-18T13:32:21.002Z</time></trkpt><trkpt lat="43.283225398619784" lon="10.815063652872713"><ele>279.0</ele><time>2026-04-18T13:32:22.002Z</time></trkpt><trkpt lat="43.28328651881698" lon="10.815005249324976"><ele>278.99999999999994</ele><time>2026-04-18T13:32:23.002Z</time></trkpt><trkpt lat="43.28333903979668" lon="10.814913829964011"><ele>279.0</ele><time>2026-04-18T13:32:24.002Z</time></trkpt><trkpt lat="43.28341580997979" lon="10.814843798667276"><ele>281.59999999999997</ele><time>2026-04-18T13:32:25.002Z</time></trkpt><trkpt lat="43.283496960657594" lon="10.81476608282529"><ele>284.2</ele><time>2026-04-18T13:32:26.002Z</time></trkpt><trkpt lat="43.28357695072159" lon="10.814684296549897"><ele>286.79999999999995</ele><time>2026-04-18T13:32:27.002Z</time></trkpt><trkpt lat="43.28365606729392" lon="10.814601296462195"><ele>289.4</ele><time>2026-04-18T13:32:28.002Z</time></trkpt><trkpt lat="43.28375099591404" lon="10.814545448036755"><ele>292.0</ele><time>2026-04-18T13:32:29.002Z</time></trkpt><trkpt lat="43.28382952771332" lon="10.81447202305391"><ele>292.0</ele><time>2026-04-18T13:32:30.002Z</time></trkpt><trkpt lat="43.2839144121633" lon="10.814413633147138"><ele>292.0</ele><time>2026-04-18T13:32:31.002Z</time></trkpt><trkpt lat="43.28400612838677" lon="10.814355558233082"><ele>292.0</ele><time>2026-04-18T13:32:32.002Z</time></trkpt><trkpt lat="43.28408754619681" lon="10.814293557830394"><ele>292.0</ele><time>2026-04-18T13:32:33.003Z</time></trkpt><trkpt lat="43.28416152300874" lon="10.814223358968178"><ele>292.0</ele><time>2026-04-18T13:32:34.003Z</time></trkpt><trkpt lat="43.28422878715864" lon="10.814120183760119"><ele>293.0</ele><time>2026-04-18T13:32:35.003Z</time></trkpt><trkpt lat="43.2842867839493" lon="10.813998441528033"><ele>294.0</ele><time>2026-04-18T13:32:36.003Z</time></trkpt><trkpt lat="43.284330335096215" lon="10.813862041299904"><ele>295.0</ele><time>2026-04-18T13:32:37.003Z</time></trkpt><trkpt lat="43.2843744502075" lon="10.81374168486487"><ele>296.0</ele><time>2026-04-18T13:32:38.003Z</time></trkpt><trkpt lat="43.28440953698871" lon="10.813609873924396"><ele>297.0</ele><time>2026-04-18T13:32:39.003Z</time></trkpt><trkpt lat="43.284419423806916" lon="10.813462650177618"><ele>299.0</ele><time>2026-04-18T13:32:40.003Z</time></trkpt><trkpt lat="43.28441569438493" lon="10.813314615148176"><ele>301.0</ele><time>2026-04-18T13:32:41.003Z</time></trkpt><trkpt lat="43.28440859190115" lon="10.813168879165227"><ele>303.0</ele><time>2026-04-18T13:32:42.003Z</time></trkpt><trkpt lat="43.28439969981112" lon="10.813031479297576"><ele>305.0</ele><time>2026-04-18T13:32:43.003Z</time></trkpt><trkpt lat="43.28439250509516" lon="10.812900426554917"><ele>307.0</ele><time>2026-04-18T13:32:44.003Z</time></trkpt><trkpt lat="43.284396725175654" lon="10.812778458569413"><ele>307.0</ele><time>2026-04-18T13:32:45.003Z</time></trkpt><trkpt lat="43.28443409332881" lon="10.812665242750086"><ele>307.0</ele><time>2026-04-18T13:32:46.003Z</time></trkpt><trkpt lat="43.28447597328892" lon="10.812544779253583"><ele>307.0</ele><time>2026-04-18T13:32:47.003Z</time></trkpt><trkpt lat="43.28451025459005" lon="10.812404136391503"><ele>307.0</ele><time>2026-04-18T13:32:48.003Z</time></trkpt><trkpt lat="43.284563934164105" lon="10.812287339774793"><ele>307.0</ele><time>2026-04-18T13:32:49.003Z</time></trkpt><trkpt lat="43.28460151695509" lon="10.81217601322779"><ele>310.6</ele><time>2026-04-18T13:32:50.003Z</time></trkpt><trkpt lat="43.28461517784521" lon="10.812039085319773"><ele>314.2</ele><time>2026-04-18T13:32:51.003Z</time></trkpt><trkpt lat="43.28461382091099" lon="10.811900325266366"><ele>317.8</ele><time>2026-04-18T13:32:52.003Z</time></trkpt><trkpt lat="43.28462509857621" lon="10.811749872242592"><ele>321.4</ele><time>2026-04-18T13:32:53.003Z</time></trkpt><trkpt lat="43.284646754362434" lon="10.811603586634162"><ele>325.0</ele><time>2026-04-18T13:32:54Z</time></trkpt><trkpt lat="43.284695074735694" lon="10.811446150493992"><ele>323.4</ele><time>2026-04-18T13:32:55Z</time></trkpt><trkpt lat="43.284741425945576" lon="10.81130690501589"><ele>321.8</ele><time>2026-04-18T13:32:56Z</time></trkpt><trkpt lat="43.2847757842835" lon="10.81115470619826"><ele>320.2</ele><time>2026-04-18T13:32:57Z</time></trkpt><trkpt lat="43.2848043905344" lon="10.811002992902806"><ele>318.6</ele><time>2026-04-18T13:32:58Z</time></trkpt><trkpt lat="43.28484003854913" lon="10.810865546852499"><ele>317.0</ele><time>2026-04-18T13:32:59Z</time></trkpt><trkpt lat="43.28488534876891" lon="10.810735923391054"><ele>317.0</ele><time>2026-04-18T13:33:00Z</time></trkpt><trkpt lat="43.28494851293384" lon="10.81062413628799"><ele>317.0</ele><time>2026-04-18T13:33:01Z</time></trkpt><trkpt lat="43.28501607281584" lon="10.810519047484277"><ele>317.0</ele><time>2026-04-18T13:33:02Z</time></trkpt><trkpt lat="43.285074273304595" lon="10.810416314625945"><ele>317.0</ele><time>2026-04-18T13:33:03Z</time></trkpt><trkpt lat="43.285115286207436" lon="10.810299938182474"><ele>317.0</ele><time>2026-04-18T13:33:04Z</time></trkpt><trkpt lat="43.28514406287672" lon="10.810172845794456"><ele>320.2</ele><time>2026-04-18T13:33:05Z</time></trkpt><trkpt lat="43.28516605490821" lon="10.810049729164637"><ele>323.4</ele><time>2026-04-18T13:33:06Z</time></trkpt><trkpt lat="43.28519263790898" lon="10.80992233869596"><ele>326.59999999999997</ele><time>2026-04-18T13:33:07Z</time></trkpt><trkpt lat="43.28520466429528" lon="10.809791104523248"><ele>329.79999999999995</ele><time>2026-04-18T13:33:08Z</time></trkpt><trkpt lat="43.285204574369544" lon="10.809663241500436"><ele>333.0</ele><time>2026-04-18T13:33:09Z</time></trkpt><trkpt lat="43.28519159640705" lon="10.809526817933602"><ele>333.0</ele><time>2026-04-18T13:33:10Z</time></trkpt><trkpt lat="43.2851660319239" lon="10.809395562376473"><ele>333.0</ele><time>2026-04-18T13:33:11Z</time></trkpt><trkpt lat="43.28512514274624" lon="10.809259171646055"><ele>333.0</ele><time>2026-04-18T13:33:12Z</time></trkpt><trkpt lat="43.28508109568511" lon="10.80911281397242"><ele>333.0</ele><time>2026-04-18T13:33:13Z</time></trkpt><trkpt lat="43.28503632214515" lon="10.8089771296705"><ele>333.0</ele><time>2026-04-18T13:33:14Z</time></trkpt><trkpt lat="43.28499038471829" lon="10.808856059977096"><ele>332.79999999999995</ele><time>2026-04-18T13:33:15Z</time></trkpt><trkpt lat="43.284935842618474" lon="10.808746574233119"><ele>332.6</ele><time>2026-04-18T13:33:16Z</time></trkpt><trkpt lat="43.28487746019341" lon="10.808637960919441"><ele>332.4</ele><time>2026-04-18T13:33:17Z</time></trkpt><trkpt lat="43.28482662791509" lon="10.808526671993118"><ele>332.20000000000005</ele><time>2026-04-18T13:33:18Z</time></trkpt><trkpt lat="43.284775122384985" lon="10.808398076496934"><ele>332.0</ele><time>2026-04-18T13:33:19Z</time></trkpt><trkpt lat="43.284730904137376" lon="10.808292990605379"><ele>330.8</ele><time>2026-04-18T13:33:20Z</time></trkpt><trkpt lat="43.28472630972413" lon="10.808161019263549"><ele>329.6</ele><time>2026-04-18T13:33:21Z</time></trkpt><trkpt lat="43.284764531624006" lon="10.808047394578619"><ele>328.40000000000003</ele><time>2026-04-18T13:33:22Z</time></trkpt><trkpt lat="43.28480754655793" lon="10.80791812734575"><ele>327.20000000000005</ele><time>2026-04-18T13:33:23Z</time></trkpt><trkpt lat="43.28483421231766" lon="10.807787322598994"><ele>326.0</ele><time>2026-04-18T13:33:24Z</time></trkpt><trkpt lat="43.28485974955925" lon="10.807653170698233"><ele>326.0</ele><time>2026-04-18T13:33:25Z</time></trkpt><trkpt lat="43.28486388242829" lon="10.807517958245537"><ele>326.0</ele><time>2026-04-18T13:33:26Z</time></trkpt><trkpt lat="43.28488077363123" lon="10.807402699879031"><ele>326.0</ele><time>2026-04-18T13:33:27Z</time></trkpt><trkpt lat="43.28488476476946" lon="10.807298067298742"><ele>326.0</ele><time>2026-04-18T13:33:28Z</time></trkpt><trkpt lat="43.28485946646071" lon="10.807186701888389"><ele>326.0</ele><time>2026-04-18T13:33:29.001Z</time></trkpt><trkpt lat="43.28482424619573" lon="10.807028923086406"><ele>326.0</ele><time>2026-04-18T13:33:30.001Z</time></trkpt><trkpt lat="43.28477358691257" lon="10.806905748354565"><ele>326.0</ele><time>2026-04-18T13:33:31.001Z</time></trkpt><trkpt lat="43.284736774839374" lon="10.806761532233589"><ele>326.0</ele><time>2026-04-18T13:33:32.001Z</time></trkpt><trkpt lat="43.284725412460006" lon="10.806622110538894"><ele>326.0</ele><time>2026-04-18T13:33:33.001Z</time></trkpt><trkpt lat="43.284728851052016" lon="10.806502882780402"><ele>326.0</ele><time>2026-04-18T13:33:34.001Z</time></trkpt><trkpt lat="43.28476043178284" lon="10.806393845374755"><ele>326.0</ele><time>2026-04-18T13:33:35.001Z</time></trkpt><trkpt lat="43.28478773364378" lon="10.806263890833828"><ele>326.0</ele><time>2026-04-18T13:33:36.001Z</time></trkpt><trkpt lat="43.284826484477584" lon="10.806108353574924"><ele>326.0</ele><time>2026-04-18T13:33:37.001Z</time></trkpt><trkpt lat="43.28486026129799" lon="10.805972107107223"><ele>326.0</ele><time>2026-04-18T13:33:38.001Z</time></trkpt><trkpt lat="43.28488461591362" lon="10.805837476716984"><ele>326.0</ele><time>2026-04-18T13:33:39.001Z</time></trkpt><trkpt lat="43.284892951036106" lon="10.805688888490455"><ele>327.20000000000005</ele><time>2026-04-18T13:33:40.001Z</time></trkpt><trkpt lat="43.284879236033916" lon="10.805555026537345"><ele>328.40000000000003</ele><time>2026-04-18T13:33:41.001Z</time></trkpt><trkpt lat="43.28486006975283" lon="10.805435756867958"><ele>329.6</ele><time>2026-04-18T13:33:42.001Z</time></trkpt><trkpt lat="43.284841618098284" lon="10.805313877999312"><ele>330.8</ele><time>2026-04-18T13:33:43.001Z</time></trkpt><trkpt lat="43.28483167371261" lon="10.805188234189735"><ele>332.0</ele><time>2026-04-18T13:33:44.001Z</time></trkpt><trkpt lat="43.28484218894837" lon="10.805065873134838"><ele>333.20000000000005</ele><time>2026-04-18T13:33:45.001Z</time></trkpt><trkpt lat="43.28485611310836" lon="10.804948736328448"><ele>334.4</ele><time>2026-04-18T13:33:46.001Z</time></trkpt><trkpt lat="43.28487115354366" lon="10.804815981062001"><ele>335.6</ele><time>2026-04-18T13:33:47.001Z</time></trkpt><trkpt lat="43.284882913345726" lon="10.804666310749232"><ele>336.79999999999995</ele><time>2026-04-18T13:33:48.001Z</time></trkpt><trkpt lat="43.28489496820343" lon="10.804541996586883"><ele>338.0</ele><time>2026-04-18T13:33:49.001Z</time></trkpt><trkpt lat="43.28491389945677" lon="10.8044382684526"><ele>338.0</ele><time>2026-04-18T13:33:50.001Z</time></trkpt><trkpt lat="43.28496562713443" lon="10.804332047723149"><ele>338.0</ele><time>2026-04-18T13:33:51.001Z</time></trkpt><trkpt lat="43.285022284155545" lon="10.80423272799808"><ele>338.0</ele><time>2026-04-18T13:33:52.001Z</time></trkpt><trkpt lat="43.28505112520221" lon="10.804112365536202"><ele>338.0</ele><time>2026-04-18T13:33:53.001Z</time></trkpt><trkpt lat="43.28509963055988" lon="10.804013932004391"><ele>338.0</ele><time>2026-04-18T13:33:54.001Z</time></trkpt><trkpt lat="43.28511207527249" lon="10.803906978617901"><ele>338.0</ele><time>2026-04-18T13:33:55.001Z</time></trkpt><trkpt lat="43.28509186020302" lon="10.803770271680884"><ele>338.1666666666667</ele><time>2026-04-18T13:33:56.001Z</time></trkpt><trkpt lat="43.28501908380003" lon="10.803652229157722"><ele>338.33333333333337</ele><time>2026-04-18T13:33:57.001Z</time></trkpt><trkpt lat="43.28495235541235" lon="10.803582453890847"><ele>338.5</ele><time>2026-04-18T13:33:58.001Z</time></trkpt><trkpt lat="43.284881926247536" lon="10.803509883515778"><ele>338.6666666666667</ele><time>2026-04-18T13:33:59.001Z</time></trkpt><trkpt lat="43.28482678511227" lon="10.80342858183074"><ele>338.8333333333333</ele><time>2026-04-18T13:34:00.001Z</time></trkpt><trkpt lat="43.284775704648375" lon="10.803343431240934"><ele>339.0</ele><time>2026-04-18T13:34:01.001Z</time></trkpt><trkpt lat="43.284711436776625" lon="10.803267852511429"><ele>342.3333333333333</ele><time>2026-04-18T13:34:02.002Z</time></trkpt><trkpt lat="43.28461174241888" lon="10.80328476500629"><ele>345.6666666666667</ele><time>2026-04-18T13:34:03.002Z</time></trkpt><trkpt lat="43.28454539527308" lon="10.803321734345419"><ele>349.0</ele><time>2026-04-18T13:34:04.002Z</time></trkpt><trkpt lat="43.284509081458346" lon="10.803420199075072"><ele>352.33333333333337</ele><time>2026-04-18T13:34:05.002Z</time></trkpt><trkpt lat="43.2845377266222" lon="10.803512629060487"><ele>355.6666666666667</ele><time>2026-04-18T13:34:06.002Z</time></trkpt><trkpt lat="43.28460452501969" lon="10.80356734345417"><ele>359.0</ele><time>2026-04-18T13:34:07.002Z</time></trkpt><trkpt lat="43.284687264738" lon="10.80360487280989"><ele>361.5</ele><time>2026-04-18T13:34:08.002Z</time></trkpt><trkpt lat="43.284745349981016" lon="10.803681239195827"><ele>364.0</ele><time>2026-04-18T13:34:09.002Z</time></trkpt><trkpt lat="43.28476486669117" lon="10.803803385690168"><ele>366.5</ele><time>2026-04-18T13:34:10.002Z</time></trkpt><trkpt lat="43.28474972610337" lon="10.803892266178854"><ele>369.0</ele><time>2026-04-18T13:34:11.002Z</time></trkpt><trkpt lat="43.28469981444723" lon="10.80400784051805"><ele>371.5</ele><time>2026-04-18T13:34:16.002Z</time></trkpt><trkpt lat="43.284667866752734" lon="10.804087761910544"><ele>374.0</ele><time>2026-04-18T13:34:17.002Z</time></trkpt><trkpt lat="43.28463184067154" lon="10.804175227666896"><ele>374.0</ele><time>2026-04-18T13:34:18.002Z</time></trkpt><trkpt lat="43.28459469284202" lon="10.804281403247876"><ele>374.0</ele><time>2026-04-18T13:34:19.002Z</time></trkpt><trkpt lat="43.28455790756127" lon="10.80440251838478"><ele>374.0</ele><time>2026-04-18T13:34:20.002Z</time></trkpt><trkpt lat="43.28452190314537" lon="10.804525498919961"><ele>374.0</ele><time>2026-04-18T13:34:21.002Z</time></trkpt><trkpt lat="43.28447976654818" lon="10.804629796975917"><ele>374.0</ele><time>2026-04-18T13:34:22.002Z</time></trkpt><trkpt lat="43.28444245164254" lon="10.804732027821284"><ele>374.0</ele><time>2026-04-18T13:34:23.002Z</time></trkpt><trkpt lat="43.28438019888312" lon="10.804814738152848"><ele>373.0</ele><time>2026-04-18T13:34:24.002Z</time></trkpt><trkpt lat="43.28429497422731" lon="10.804858446085424"><ele>372.0</ele><time>2026-04-18T13:34:25.002Z</time></trkpt><trkpt lat="43.28420867076394" lon="10.804936466945675"><ele>371.0</ele><time>2026-04-18T13:34:26.002Z</time></trkpt><trkpt lat="43.28413025827171" lon="10.80501026375961"><ele>370.0</ele><time>2026-04-18T13:34:27.002Z</time></trkpt><trkpt lat="43.2840543489923" lon="10.80512086535304"><ele>369.0</ele><time>2026-04-18T13:34:28.002Z</time></trkpt><trkpt lat="43.28404311544608" lon="10.80528578532142"><ele>367.79999999999995</ele><time>2026-04-18T13:34:29.002Z</time></trkpt><trkpt lat="43.28400721574219" lon="10.805410768431887"><ele>366.59999999999997</ele><time>2026-04-18T13:34:30.002Z</time></trkpt><trkpt lat="43.28393314141851" lon="10.80551721696854"><ele>365.4</ele><time>2026-04-18T13:34:31.002Z</time></trkpt><trkpt lat="43.28384669544194" lon="10.805602754643903"><ele>364.2</ele><time>2026-04-18T13:34:32.002Z</time></trkpt><trkpt lat="43.28375732710241" lon="10.80568697793909"><ele>363.0</ele><time>2026-04-18T13:34:33.002Z</time></trkpt><trkpt lat="43.28368321289002" lon="10.805791177208539"><ele>367.4</ele><time>2026-04-18T13:34:34.002Z</time></trkpt><trkpt lat="43.28361472261965" lon="10.805901696204467"><ele>371.79999999999995</ele><time>2026-04-18T13:34:35.003Z</time></trkpt><trkpt lat="43.28356403874812" lon="10.806023323218843"><ele>376.2</ele><time>2026-04-18T13:34:36.003Z</time></trkpt><trkpt lat="43.283538342309846" lon="10.806159893889406"><ele>380.6</ele><time>2026-04-18T13:34:37.003Z</time></trkpt><trkpt lat="43.28354880616325" lon="10.806290361148454"><ele>385.0</ele><time>2026-04-18T13:34:38.003Z</time></trkpt><trkpt lat="43.28359585611215" lon="10.806411083364917"><ele>386.6</ele><time>2026-04-18T13:34:39.003Z</time></trkpt><trkpt lat="43.28366706202381" lon="10.806507871087677"><ele>388.2</ele><time>2026-04-18T13:34:40.003Z</time></trkpt><trkpt lat="43.28373907112961" lon="10.806615534337523"><ele>389.79999999999995</ele><time>2026-04-18T13:34:41.003Z</time></trkpt><trkpt lat="43.28379802781355" lon="10.80673808690363"><ele>391.4</ele><time>2026-04-18T13:34:42.003Z</time></trkpt><trkpt lat="43.283849829355134" lon="10.8068503866073"><ele>393.0</ele><time>2026-04-18T13:34:43.003Z</time></trkpt><trkpt lat="43.28390091995279" lon="10.806965681733194"><ele>393.8333333333333</ele><time>2026-04-18T13:34:44.003Z</time></trkpt><trkpt lat="43.2839397876124" lon="10.80706979660226"><ele>394.66666666666663</ele><time>2026-04-18T13:34:45.003Z</time></trkpt><trkpt lat="43.28396990241814" lon="10.807169947428795"><ele>395.5</ele><time>2026-04-18T13:34:46.003Z</time></trkpt><trkpt lat="43.283978223102565" lon="10.807271707215808"><ele>396.3333333333333</ele><time>2026-04-18T13:34:47.003Z</time></trkpt><trkpt lat="43.2839793122247" lon="10.807369233769188"><ele>397.16666666666663</ele><time>2026-04-18T13:34:48.003Z</time></trkpt><trkpt lat="43.28388585939166" lon="10.807469013970998"><ele>398.0</ele><time>2026-04-18T13:34:50.003Z</time></trkpt><trkpt lat="43.28381055860525" lon="10.80746178884688"><ele>397.99999999999994</ele><time>2026-04-18T13:34:51.003Z</time></trkpt><trkpt lat="43.283735578458995" lon="10.807437072848938"><ele>398.0</ele><time>2026-04-18T13:34:52.003Z</time></trkpt><trkpt lat="43.283658549863084" lon="10.80741208036585"><ele>398.0</ele><time>2026-04-18T13:34:53.003Z</time></trkpt><trkpt lat="43.28355709117962" lon="10.80741750658905"><ele>398.0</ele><time>2026-04-18T13:34:54.003Z</time></trkpt><trkpt lat="43.283479092345324" lon="10.807420714418807"><ele>397.99999999999994</ele><time>2026-04-18T13:34:55.003Z</time></trkpt><trkpt lat="43.28339921435196" lon="10.807457663733597"><ele>398.0</ele><time>2026-04-18T13:34:56.003Z</time></trkpt><trkpt lat="43.28335712872867" lon="10.807550836538958"><ele>400.0</ele><time>2026-04-18T13:34:57.003Z</time></trkpt><trkpt lat="43.283366959461446" lon="10.80766972712934"><ele>402.0</ele><time>2026-04-18T13:34:58.003Z</time></trkpt><trkpt lat="43.28341680639796" lon="10.807777838916627"><ele>404.0</ele><time>2026-04-18T13:34:59.003Z</time></trkpt><trkpt lat="43.28348004727183" lon="10.807871011728079"><ele>406.0</ele><time>2026-04-18T13:35:00Z</time></trkpt><trkpt lat="43.28353919126946" lon="10.807970801084842"><ele>408.0</ele><time>2026-04-18T13:35:01Z</time></trkpt><trkpt lat="43.283599684041036" lon="10.808076733805555"><ele>408.0</ele><time>2026-04-18T13:35:02Z</time></trkpt><trkpt lat="43.283653014935645" lon="10.808194930449556"><ele>408.0</ele><time>2026-04-18T13:35:03Z</time></trkpt><trkpt lat="43.28369915035052" lon="10.808324793977315"><ele>408.0</ele><time>2026-04-18T13:35:04Z</time></trkpt><trkpt lat="43.28374034520896" lon="10.80844953686417"><ele>408.0</ele><time>2026-04-18T13:35:05Z</time></trkpt><trkpt lat="43.28375747900074" lon="10.808573139341952"><ele>408.0</ele><time>2026-04-18T13:35:06Z</time></trkpt><trkpt lat="43.283758348037445" lon="10.808693788939706"><ele>408.59999999999997</ele><time>2026-04-18T13:35:07Z</time></trkpt><trkpt lat="43.283729429565966" lon="10.80882281007125"><ele>409.2</ele><time>2026-04-18T13:35:08Z</time></trkpt><trkpt lat="43.283693480105306" lon="10.80894610559695"><ele>409.8</ele><time>2026-04-18T13:35:09Z</time></trkpt><trkpt lat="43.283675389560884" lon="10.80907725245307"><ele>410.4</ele><time>2026-04-18T13:35:10Z</time></trkpt><trkpt lat="43.283700296785206" lon="10.809216406972215"><ele>411.0</ele><time>2026-04-18T13:35:11Z</time></trkpt><trkpt lat="43.28374574912449" lon="10.809340648709021"><ele>411.0</ele><time>2026-04-18T13:35:12Z</time></trkpt><trkpt lat="43.28380827187735" lon="10.809458419016094"><ele>411.0</ele><time>2026-04-18T13:35:13Z</time></trkpt><trkpt lat="43.28387761963825" lon="10.809560134806224"><ele>411.0</ele><time>2026-04-18T13:35:14Z</time></trkpt><trkpt lat="43.283936220075866" lon="10.809653581375597"><ele>411.0</ele><time>2026-04-18T13:35:15Z</time></trkpt><trkpt lat="43.28396595677326" lon="10.80974467696"><ele>411.0</ele><time>2026-04-18T13:35:16Z</time></trkpt><trkpt lat="43.28396999480619" lon="10.809867125113982"><ele>411.0</ele><time>2026-04-18T13:35:17Z</time></trkpt><trkpt lat="43.28394356697275" lon="10.80999005083337"><ele>411.0</ele><time>2026-04-18T13:35:18Z</time></trkpt><trkpt lat="43.28389878689703" lon="10.810090948222877"><ele>411.0</ele><time>2026-04-18T13:35:19Z</time></trkpt><trkpt lat="43.28385385418561" lon="10.810188672281923"><ele>411.0</ele><time>2026-04-18T13:35:20Z</time></trkpt><trkpt lat="43.2837667501075" lon="10.81022602293525"><ele>411.0</ele><time>2026-04-18T13:35:21Z</time></trkpt><trkpt lat="43.283685566652395" lon="10.810278731431323"><ele>411.0</ele><time>2026-04-18T13:35:22Z</time></trkpt><trkpt lat="43.28358562529269" lon="10.810307334159752"><ele>408.20000000000005</ele><time>2026-04-18T13:35:23.001Z</time></trkpt><trkpt lat="43.28347854671765" lon="10.81033888296954"><ele>405.40000000000003</ele><time>2026-04-18T13:35:24.001Z</time></trkpt><trkpt lat="43.283370026622926" lon="10.810366940826677"><ele>402.6</ele><time>2026-04-18T13:35:25.001Z</time></trkpt><trkpt lat="43.28326880084277" lon="10.810346568828326"><ele>399.8</ele><time>2026-04-18T13:35:26.001Z</time></trkpt><trkpt lat="43.28318148298277" lon="10.810321441909666"><ele>397.0</ele><time>2026-04-18T13:35:27.001Z</time></trkpt><trkpt lat="43.283103928372874" lon="10.810241177001046"><ele>400.0</ele><time>2026-04-18T13:35:28.001Z</time></trkpt><trkpt lat="43.28303579388369" lon="10.810149893994616"><ele>403.0</ele><time>2026-04-18T13:35:29.001Z</time></trkpt><trkpt lat="43.28289730197493" lon="10.80994159206348"><ele>406.0</ele><time>2026-04-18T13:35:31.001Z</time></trkpt><trkpt lat="43.28283477607071" lon="10.80983312277925"><ele>409.0</ele><time>2026-04-18T13:35:32.001Z</time></trkpt><trkpt lat="43.282770726672396" lon="10.809730549062243"><ele>409.0</ele><time>2026-04-18T13:35:33.001Z</time></trkpt><trkpt lat="43.28268596875487" lon="10.809649286189837"><ele>409.0</ele><time>2026-04-18T13:35:34.001Z</time></trkpt><trkpt lat="43.28258286318" lon="10.809622525120568"><ele>409.0</ele><time>2026-04-18T13:35:35.001Z</time></trkpt><trkpt lat="43.282483354794145" lon="10.809611119515223"><ele>409.0</ele><time>2026-04-18T13:35:36.001Z</time></trkpt><trkpt lat="43.282391329568696" lon="10.809640977673299"><ele>409.0</ele><time>2026-04-18T13:35:37.001Z</time></trkpt><trkpt lat="43.28229554240321" lon="10.809674814493729"><ele>409.00000000000006</ele><time>2026-04-18T13:35:38.001Z</time></trkpt><trkpt lat="43.2822166328926" lon="10.80971036160287"><ele>409.0</ele><time>2026-04-18T13:35:39.001Z</time></trkpt><trkpt lat="43.28215245868411" lon="10.809711888824006"><ele>409.0</ele><time>2026-04-18T13:35:40.001Z</time></trkpt><trkpt lat="43.28220255433634" lon="10.80961598234826"><ele>409.0</ele><time>2026-04-18T13:35:42.001Z</time></trkpt><trkpt lat="43.28229123443747" lon="10.809519549595409"><ele>409.00000000000006</ele><time>2026-04-18T13:35:44.001Z</time></trkpt><trkpt lat="43.28237127462114" lon="10.809476014532175"><ele>409.0</ele><time>2026-04-18T13:35:45.001Z</time></trkpt><trkpt lat="43.28245539982825" lon="10.809449025116516"><ele>409.0</ele><time>2026-04-18T13:35:46.001Z</time></trkpt><trkpt lat="43.28254077349378" lon="10.809474672662681"><ele>409.0</ele><time>2026-04-18T13:35:47.001Z</time></trkpt><trkpt lat="43.28263198692146" lon="10.809476681485735"><ele>409.0</ele><time>2026-04-18T13:35:48.001Z</time></trkpt><trkpt lat="43.28271236596985" lon="10.809527124671536"><ele>409.0</ele><time>2026-04-18T13:35:49.001Z</time></trkpt><trkpt lat="43.282798825273" lon="10.809557065058431"><ele>409.0</ele><time>2026-04-18T13:35:50.001Z</time></trkpt><trkpt lat="43.282900767322595" lon="10.809577409770831"><ele>409.00000000000006</ele><time>2026-04-18T13:35:51.001Z</time></trkpt><trkpt lat="43.2829834949638" lon="10.80959837814596"><ele>409.0</ele><time>2026-04-18T13:35:52.001Z</time></trkpt><trkpt lat="43.283048962460036" lon="10.809636621052881"><ele>409.0</ele><time>2026-04-18T13:35:53.001Z</time></trkpt><trkpt lat="43.283117944500354" lon="10.809626070159593"><ele>409.0</ele><time>2026-04-18T13:35:54.001Z</time></trkpt><trkpt lat="43.283171689574736" lon="10.80955998445595"><ele>409.00000000000006</ele><time>2026-04-18T13:35:55.001Z</time></trkpt><trkpt lat="43.28321289117277" lon="10.809462875754893"><ele>409.0</ele><time>2026-04-18T13:35:56.001Z</time></trkpt><trkpt lat="43.28318169010153" lon="10.809312042325995"><ele>410.00000000000006</ele><time>2026-04-18T13:35:57.001Z</time></trkpt><trkpt lat="43.28314730811077" lon="10.809200910996772"><ele>411.0</ele><time>2026-04-18T13:35:58.001Z</time></trkpt><trkpt lat="43.283109778489596" lon="10.809095733902392"><ele>412.0</ele><time>2026-04-18T13:35:59.001Z</time></trkpt><trkpt lat="43.283071553029366" lon="10.809000492503078"><ele>413.0</ele><time>2026-04-18T13:36:00.002Z</time></trkpt><trkpt lat="43.283033995751325" lon="10.808907412339417"><ele>414.00000000000006</ele><time>2026-04-18T13:36:01.002Z</time></trkpt><trkpt lat="43.2829929130397" lon="10.808805594753787"><ele>415.0</ele><time>2026-04-18T13:36:02.002Z</time></trkpt><trkpt lat="43.28292856926045" lon="10.808732059444049"><ele>417.33333333333337</ele><time>2026-04-18T13:36:03.002Z</time></trkpt><trkpt lat="43.28284579206323" lon="10.808681901929841"><ele>419.6666666666667</ele><time>2026-04-18T13:36:04.002Z</time></trkpt><trkpt lat="43.28276033847573" lon="10.808694568575465"><ele>422.0</ele><time>2026-04-18T13:36:05.002Z</time></trkpt><trkpt lat="43.28269642680807" lon="10.808779419616558"><ele>424.33333333333337</ele><time>2026-04-18T13:36:06.002Z</time></trkpt><trkpt lat="43.282634732740014" lon="10.808817705245186"><ele>426.6666666666667</ele><time>2026-04-18T13:36:07.002Z</time></trkpt><trkpt lat="43.282564104559505" lon="10.808816240008925"><ele>429.0</ele><time>2026-04-18T13:36:08.002Z</time></trkpt><trkpt lat="43.28248597891139" lon="10.808816118146575"><ele>429.0</ele><time>2026-04-18T13:36:09.002Z</time></trkpt><trkpt lat="43.28239704622394" lon="10.808816608819207"><ele>429.0</ele><time>2026-04-18T13:36:10.002Z</time></trkpt><trkpt lat="43.28231553485273" lon="10.808812319031118"><ele>429.0</ele><time>2026-04-18T13:36:11.002Z</time></trkpt><trkpt lat="43.28223625564089" lon="10.80880323191158"><ele>429.0</ele><time>2026-04-18T13:36:12.002Z</time></trkpt><trkpt lat="43.28215909152767" lon="10.808788205513395"><ele>429.0</ele><time>2026-04-18T13:36:13.002Z</time></trkpt><trkpt lat="43.28208493270562" lon="10.80877379041574"><ele>429.0</ele><time>2026-04-18T13:36:14.002Z</time></trkpt><trkpt lat="43.28201887050692" lon="10.808760949147375"><ele>428.8333333333333</ele><time>2026-04-18T13:36:15.002Z</time></trkpt><trkpt lat="43.28195253281883" lon="10.808748119773762"><ele>428.66666666666663</ele><time>2026-04-18T13:36:16.002Z</time></trkpt><trkpt lat="43.281841953986905" lon="10.808737722743064"><ele>428.5</ele><time>2026-04-18T13:36:18.002Z</time></trkpt><trkpt lat="43.281776208809355" lon="10.808703035485566"><ele>428.3333333333333</ele><time>2026-04-18T13:36:20.002Z</time></trkpt><trkpt lat="43.28171384177574" lon="10.80865812753505"><ele>428.16666666666663</ele><time>2026-04-18T13:36:23.002Z</time></trkpt><trkpt lat="43.28178246225868" lon="10.808712979546343"><ele>428.0</ele><time>2026-04-18T13:36:38.003Z</time></trkpt><trkpt lat="43.281710786034935" lon="10.808648454046915"><ele>428.0</ele><time>2026-04-18T13:36:57.003Z</time></trkpt><trkpt lat="43.281613144868345" lon="10.80864184640078"><ele>427.99999999999994</ele><time>2026-04-18T13:37:00.003Z</time></trkpt><trkpt lat="43.28156052458699" lon="10.808566121549418"><ele>427.99999999999994</ele><time>2026-04-18T13:37:02.003Z</time></trkpt><trkpt lat="43.281500781544075" lon="10.808457674730294"><ele>428.0</ele><time>2026-04-18T13:37:04.003Z</time></trkpt><trkpt lat="43.28140114165403" lon="10.808365963819293"><ele>428.0</ele><time>2026-04-18T13:37:06.001Z</time></trkpt><trkpt lat="43.28134327204081" lon="10.808319597024349"><ele>429.16666666666663</ele><time>2026-04-18T13:37:07.001Z</time></trkpt><trkpt lat="43.28127779954305" lon="10.80827715279823"><ele>430.3333333333333</ele><time>2026-04-18T13:37:08.001Z</time></trkpt><trkpt lat="43.2812079950664" lon="10.808244251786183"><ele>431.5</ele><time>2026-04-18T13:37:09.001Z</time></trkpt><trkpt lat="43.2811404422686" lon="10.80825812801043"><ele>432.66666666666663</ele><time>2026-04-18T13:37:10.001Z</time></trkpt><trkpt lat="43.28107461590352" lon="10.80822767863713"><ele>433.8333333333333</ele><time>2026-04-18T13:37:11.001Z</time></trkpt><trkpt lat="43.280943631991406" lon="10.808214146841806"><ele>435.0</ele><time>2026-04-18T13:37:13.001Z</time></trkpt><trkpt lat="43.28087414491501" lon="10.80821170883852"><ele>435.0</ele><time>2026-04-18T13:37:14.001Z</time></trkpt><trkpt lat="43.28079920951579" lon="10.808211708833966"><ele>435.0</ele><time>2026-04-18T13:37:15.001Z</time></trkpt><trkpt lat="43.28071901321763" lon="10.808216800937977"><ele>435.0</ele><time>2026-04-18T13:37:16.001Z</time></trkpt><trkpt lat="43.28063733765613" lon="10.808228744159049"><ele>435.0</ele><time>2026-04-18T13:37:17.001Z</time></trkpt><trkpt lat="43.28056189218878" lon="10.80826460528658"><ele>435.0</ele><time>2026-04-18T13:37:18.001Z</time></trkpt><trkpt lat="43.28049308684276" lon="10.808288284741272"><ele>435.0</ele><time>2026-04-18T13:37:19.001Z</time></trkpt><trkpt lat="43.28040395983032" lon="10.808349151931559"><ele>435.6</ele><time>2026-04-18T13:37:21.001Z</time></trkpt><trkpt lat="43.28034545582395" lon="10.808386359755717"><ele>436.2</ele><time>2026-04-18T13:37:23.001Z</time></trkpt><trkpt lat="43.280277536357296" lon="10.808458436028518"><ele>436.79999999999995</ele><time>2026-04-18T13:37:25.001Z</time></trkpt><trkpt lat="43.280165677320504" lon="10.808464901952044"><ele>437.4</ele><time>2026-04-18T13:37:27.001Z</time></trkpt><trkpt lat="43.280034605175466" lon="10.808484735116085"><ele>438.0</ele><time>2026-04-18T13:37:29.001Z</time></trkpt><trkpt lat="43.27993256184343" lon="10.808549536297658"><ele>436.8333333333333</ele><time>2026-04-18T13:37:31.001Z</time></trkpt><trkpt lat="43.27984485890357" lon="10.808589949083585"><ele>435.66666666666663</ele><time>2026-04-18T13:37:33.001Z</time></trkpt><trkpt lat="43.27974241155969" lon="10.808659813427036"><ele>434.5</ele><time>2026-04-18T13:37:35.001Z</time></trkpt><trkpt lat="43.27968400538377" lon="10.808723776647263"><ele>433.3333333333333</ele><time>2026-04-18T13:37:36.001Z</time></trkpt><trkpt lat="43.27963169011967" lon="10.808791075442072"><ele>432.16666666666663</ele><time>2026-04-18T13:37:37.001Z</time></trkpt><trkpt lat="43.279576604669984" lon="10.808855207910483"><ele>431.0</ele><time>2026-04-18T13:37:38.001Z</time></trkpt><trkpt lat="43.27952077920508" lon="10.808911082318048"><ele>434.4</ele><time>2026-04-18T13:37:39.001Z</time></trkpt><trkpt lat="43.27942816766106" lon="10.809016648419773"><ele>437.8</ele><time>2026-04-18T13:37:41.001Z</time></trkpt><trkpt lat="43.27933055269518" lon="10.80906231633093"><ele>441.19999999999993</ele><time>2026-04-18T13:37:43.001Z</time></trkpt><trkpt lat="43.279253619480684" lon="10.809039375083513"><ele>444.59999999999997</ele><time>2026-04-18T13:37:45.001Z</time></trkpt><trkpt lat="43.27917669665749" lon="10.80895363719621"><ele>448.0</ele><time>2026-04-18T13:37:47.001Z</time></trkpt><trkpt lat="43.27911128967246" lon="10.808827078657133"><ele>448.0</ele><time>2026-04-18T13:37:49.001Z</time></trkpt><trkpt lat="43.27909349539905" lon="10.808687076638499"><ele>447.99999999999994</ele><time>2026-04-18T13:37:51.001Z</time></trkpt><trkpt lat="43.279091624626254" lon="10.808508638709462"><ele>447.99999999999994</ele><time>2026-04-18T13:37:53.001Z</time></trkpt><trkpt lat="43.279083839155824" lon="10.808397913085626"><ele>448.0</ele><time>2026-04-18T13:37:54.001Z</time></trkpt><trkpt lat="43.279065518793466" lon="10.808288635607102"><ele>448.0</ele><time>2026-04-18T13:37:55.001Z</time></trkpt><trkpt lat="43.27905096439958" lon="10.808188091651342"><ele>448.0</ele><time>2026-04-18T13:37:56.001Z</time></trkpt><trkpt lat="43.279033266504406" lon="10.808069412336737"><ele>447.99999999999994</ele><time>2026-04-18T13:37:57.001Z</time></trkpt><trkpt lat="43.279002462179626" lon="10.807950016806336"><ele>447.99999999999994</ele><time>2026-04-18T13:37:58.001Z</time></trkpt><trkpt lat="43.27894913557636" lon="10.807831110763745"><ele>448.0</ele><time>2026-04-18T13:37:59.001Z</time></trkpt><trkpt lat="43.27885127211531" lon="10.807740581394198"><ele>448.0</ele><time>2026-04-18T13:38:00.001Z</time></trkpt><trkpt lat="43.27876012516184" lon="10.807700451332682"><ele>448.0</ele><time>2026-04-18T13:38:01.002Z</time></trkpt><trkpt lat="43.27866192132074" lon="10.807665722119113"><ele>447.99999999999994</ele><time>2026-04-18T13:38:02.002Z</time></trkpt><trkpt lat="43.278592484715624" lon="10.807630027019133"><ele>447.99999999999994</ele><time>2026-04-18T13:38:03.002Z</time></trkpt><trkpt lat="43.278523725348315" lon="10.807580985028025"><ele>448.0</ele><time>2026-04-18T13:38:04.002Z</time></trkpt><trkpt lat="43.27844982698636" lon="10.807445509476768"><ele>448.0</ele><time>2026-04-18T13:38:06.002Z</time></trkpt><trkpt lat="43.27840981775944" lon="10.807352835620025"><ele>450.79999999999995</ele><time>2026-04-18T13:38:07.002Z</time></trkpt><trkpt lat="43.27835896497001" lon="10.807228562047829"><ele>453.59999999999997</ele><time>2026-04-18T13:38:08.002Z</time></trkpt><trkpt lat="43.27832020221759" lon="10.807088553852216"><ele>456.40000000000003</ele><time>2026-04-18T13:38:09.002Z</time></trkpt><trkpt lat="43.27828173185519" lon="10.806953496496563"><ele>459.20000000000005</ele><time>2026-04-18T13:38:10.002Z</time></trkpt><trkpt lat="43.27821294720835" lon="10.80682732140315"><ele>462.0</ele><time>2026-04-18T13:38:11.002Z</time></trkpt><trkpt lat="43.27811572361271" lon="10.806759258478927"><ele>462.7142857142857</ele><time>2026-04-18T13:38:12.002Z</time></trkpt><trkpt lat="43.27802697778483" lon="10.806757512194693"><ele>463.42857142857144</ele><time>2026-04-18T13:38:13.002Z</time></trkpt><trkpt lat="43.27795220086379" lon="10.806760780209869"><ele>464.1428571428571</ele><time>2026-04-18T13:38:14.002Z</time></trkpt><trkpt lat="43.27788118277717" lon="10.806759087821995"><ele>464.85714285714283</ele><time>2026-04-18T13:38:15.002Z</time></trkpt><trkpt lat="43.27780959806862" lon="10.806754246189827"><ele>465.57142857142856</ele><time>2026-04-18T13:38:16.002Z</time></trkpt><trkpt lat="43.277737407551555" lon="10.806739535992836"><ele>466.2857142857142</ele><time>2026-04-18T13:38:17.002Z</time></trkpt><trkpt lat="43.27767627298448" lon="10.8067110641877"><ele>466.99999999999994</ele><time>2026-04-18T13:38:18.002Z</time></trkpt><trkpt lat="43.27758628018765" lon="10.806620131339312"><ele>466.99999999999994</ele><time>2026-04-18T13:38:20.002Z</time></trkpt><trkpt lat="43.277505259398055" lon="10.806499039575902"><ele>467.0</ele><time>2026-04-18T13:38:22.002Z</time></trkpt><trkpt lat="43.27744312945548" lon="10.80644327755102"><ele>467.0</ele><time>2026-04-18T13:38:23.002Z</time></trkpt><trkpt lat="43.277411340214925" lon="10.806352620463638"><ele>467.0</ele><time>2026-04-18T13:38:24.002Z</time></trkpt><trkpt lat="43.27735583621083" lon="10.806254608186075"><ele>466.99999999999994</ele><time>2026-04-18T13:38:25.002Z</time></trkpt><trkpt lat="43.27731155655648" lon="10.806152069174178"><ele>467.0</ele><time>2026-04-18T13:38:26.002Z</time></trkpt><trkpt lat="43.27726508931574" lon="10.806037934811329"><ele>467.6</ele><time>2026-04-18T13:38:27.002Z</time></trkpt><trkpt lat="43.277213044783494" lon="10.80590838276991"><ele>468.20000000000005</ele><time>2026-04-18T13:38:28.002Z</time></trkpt><trkpt lat="43.27715566892182" lon="10.805778506473692"><ele>468.8</ele><time>2026-04-18T13:38:29.002Z</time></trkpt><trkpt lat="43.27710227209203" lon="10.805670034326392"><ele>469.4</ele><time>2026-04-18T13:38:30.002Z</time></trkpt><trkpt lat="43.27705362942774" lon="10.805570350674119"><ele>470.0</ele><time>2026-04-18T13:38:31.002Z</time></trkpt><trkpt lat="43.27700052582436" lon="10.805486071414277"><ele>469.99999999999994</ele><time>2026-04-18T13:38:32.002Z</time></trkpt><trkpt lat="43.276927902220216" lon="10.805420922237438"><ele>470.0</ele><time>2026-04-18T13:38:33.002Z</time></trkpt><trkpt lat="43.27686162924052" lon="10.805409709928181"><ele>470.0</ele><time>2026-04-18T13:38:34.002Z</time></trkpt><trkpt lat="43.27679173766033" lon="10.805469335477497"><ele>470.0</ele><time>2026-04-18T13:38:35.002Z</time></trkpt><trkpt lat="43.27672014341938" lon="10.805499153937697"><ele>469.99999999999994</ele><time>2026-04-18T13:38:36.002Z</time></trkpt><trkpt lat="43.27664336713931" lon="10.805523393637804"><ele>470.0</ele><time>2026-04-18T13:38:37.002Z</time></trkpt><trkpt lat="43.27657871966563" lon="10.805562525194324"><ele>469.99999999999994</ele><time>2026-04-18T13:38:38.002Z</time></trkpt><trkpt lat="43.27649310650479" lon="10.805581337613248"><ele>470.0</ele><time>2026-04-18T13:38:39.003Z</time></trkpt><trkpt lat="43.27642531309765" lon="10.805585218279667"><ele>470.0</ele><time>2026-04-18T13:38:40.003Z</time></trkpt><trkpt lat="43.276321122640496" lon="10.805584834101891"><ele>470.0</ele><time>2026-04-18T13:38:41.003Z</time></trkpt><trkpt lat="43.27624358973348" lon="10.805575135442895"><ele>469.99999999999994</ele><time>2026-04-18T13:38:42.003Z</time></trkpt><trkpt lat="43.27618033771978" lon="10.805557730355266"><ele>470.0</ele><time>2026-04-18T13:38:43.003Z</time></trkpt><trkpt lat="43.27607125644703" lon="10.805488110876004"><ele>469.16666666666663</ele><time>2026-04-18T13:38:45.003Z</time></trkpt><trkpt lat="43.27602071534419" lon="10.805428454883497"><ele>468.3333333333333</ele><time>2026-04-18T13:38:46.003Z</time></trkpt><trkpt lat="43.27593673653482" lon="10.805284978375122"><ele>467.5</ele><time>2026-04-18T13:38:48.003Z</time></trkpt><trkpt lat="43.27589899681507" lon="10.805210171354874"><ele>466.66666666666663</ele><time>2026-04-18T13:38:49.003Z</time></trkpt><trkpt lat="43.275861682293346" lon="10.805129467914012"><ele>465.8333333333333</ele><time>2026-04-18T13:38:50.003Z</time></trkpt><trkpt lat="43.27582000191913" lon="10.80504814104771"><ele>465.0</ele><time>2026-04-18T13:38:51.003Z</time></trkpt><trkpt lat="43.27575971794982" lon="10.804972883253104"><ele>465.0</ele><time>2026-04-18T13:38:52.003Z</time></trkpt><trkpt lat="43.27568979251722" lon="10.804924934419256"><ele>465.0</ele><time>2026-04-18T13:38:53.003Z</time></trkpt><trkpt lat="43.27562660843615" lon="10.804889647255806"><ele>465.0</ele><time>2026-04-18T13:38:54.003Z</time></trkpt><trkpt lat="43.275553589512235" lon="10.804857850516527"><ele>465.0</ele><time>2026-04-18T13:38:55.003Z</time></trkpt><trkpt lat="43.27544897705206" lon="10.804827373935753"><ele>465.0</ele><time>2026-04-18T13:38:57.003Z</time></trkpt><trkpt lat="43.2753661282339" lon="10.804827543912904"><ele>465.0</ele><time>2026-04-18T13:39:00.003Z</time></trkpt><trkpt lat="43.27529466201031" lon="10.804841377034528"><ele>465.0</ele><time>2026-04-18T13:39:02.003Z</time></trkpt><trkpt lat="43.2752090927153" lon="10.804863464113735"><ele>465.0</ele><time>2026-04-18T13:39:05.003Z</time></trkpt><trkpt lat="43.27512520731646" lon="10.804885470076242"><ele>465.0</ele><time>2026-04-18T13:39:08.003Z</time></trkpt><trkpt lat="43.275048797719144" lon="10.804911939227535"><ele>465.0</ele><time>2026-04-18T13:39:10.003Z</time></trkpt><trkpt lat="43.2749725978023" lon="10.804937385608477"><ele>465.0</ele><time>2026-04-18T13:39:12.001Z</time></trkpt><trkpt lat="43.27490738972856" lon="10.80495890449683"><ele>465.0</ele><time>2026-04-18T13:39:14.001Z</time></trkpt><trkpt lat="43.27482230890095" lon="10.804986981475997"><ele>463.6666666666667</ele><time>2026-04-18T13:39:17.001Z</time></trkpt><trkpt lat="43.274748666733764" lon="10.805027615106606"><ele>462.33333333333337</ele><time>2026-04-18T13:39:20.001Z</time></trkpt><trkpt lat="43.27465279451836" lon="10.805053964987568"><ele>461.0</ele><time>2026-04-18T13:39:23.001Z</time></trkpt><trkpt lat="43.27458553935335" lon="10.805084433446543"><ele>459.6666666666667</ele><time>2026-04-18T13:39:25.001Z</time></trkpt><trkpt lat="43.2745141509293" lon="10.805114647840233"><ele>458.33333333333337</ele><time>2026-04-18T13:39:27.001Z</time></trkpt><trkpt lat="43.274425393373185" lon="10.805138043208427"><ele>457.0</ele><time>2026-04-18T13:39:29.001Z</time></trkpt><trkpt lat="43.27432685967628" lon="10.805171104377782"><ele>455.8</ele><time>2026-04-18T13:39:31.001Z</time></trkpt><trkpt lat="43.274226221413294" lon="10.805189269436552"><ele>454.6</ele><time>2026-04-18T13:39:33.001Z</time></trkpt><trkpt lat="43.27411314116191" lon="10.805212070054829"><ele>453.40000000000003</ele><time>2026-04-18T13:39:35.001Z</time></trkpt><trkpt lat="43.27400143179262" lon="10.805232741454189"><ele>452.20000000000005</ele><time>2026-04-18T13:39:37.001Z</time></trkpt><trkpt lat="43.273885917642964" lon="10.805245904194237"><ele>451.0</ele><time>2026-04-18T13:39:39.001Z</time></trkpt><trkpt lat="43.273767302454" lon="10.805259243959163"><ele>451.0</ele><time>2026-04-18T13:39:41.001Z</time></trkpt><trkpt lat="43.273691463734636" lon="10.805267432916027"><ele>451.0</ele><time>2026-04-18T13:39:42.001Z</time></trkpt><trkpt lat="43.27360351463358" lon="10.805274238417939"><ele>451.0</ele><time>2026-04-18T13:39:43.001Z</time></trkpt><trkpt lat="43.27351611749594" lon="10.805283524220954"><ele>451.0</ele><time>2026-04-18T13:39:44.001Z</time></trkpt><trkpt lat="43.27341743207831" lon="10.80529527748124"><ele>451.0</ele><time>2026-04-18T13:39:45.001Z</time></trkpt><trkpt lat="43.27329984707369" lon="10.805306276031441"><ele>451.0</ele><time>2026-04-18T13:39:46.001Z</time></trkpt><trkpt lat="43.273169182677606" lon="10.805317867802318"><ele>451.0</ele><time>2026-04-18T13:39:47.001Z</time></trkpt><trkpt lat="43.27303756659825" lon="10.805322627704838"><ele>451.0</ele><time>2026-04-18T13:39:48.001Z</time></trkpt><trkpt lat="43.2729056113618" lon="10.805333819981806"><ele>451.0</ele><time>2026-04-18T13:39:49.001Z</time></trkpt><trkpt lat="43.27277385560205" lon="10.80535107133934"><ele>450.75</ele><time>2026-04-18T13:39:50.001Z</time></trkpt><trkpt lat="43.272643670786486" lon="10.805380151338117"><ele>450.5</ele><time>2026-04-18T13:39:51.001Z</time></trkpt><trkpt lat="43.272508389360766" lon="10.805413618780234"><ele>450.25</ele><time>2026-04-18T13:39:52.001Z</time></trkpt><trkpt lat="43.27237977175548" lon="10.805465537183352"><ele>450.0</ele><time>2026-04-18T13:39:53.001Z</time></trkpt><trkpt lat="43.272261287208764" lon="10.805518491075366"><ele>450.0</ele><time>2026-04-18T13:39:54.001Z</time></trkpt><trkpt lat="43.272155874975006" lon="10.805563751891556"><ele>450.0</ele><time>2026-04-18T13:39:55.001Z</time></trkpt><trkpt lat="43.2720579319341" lon="10.805609991260084"><ele>450.0</ele><time>2026-04-18T13:39:56.001Z</time></trkpt><trkpt lat="43.27196854918185" lon="10.805654654584634"><ele>450.0</ele><time>2026-04-18T13:39:57.001Z</time></trkpt><trkpt lat="43.27188137352591" lon="10.805701000704653"><ele>450.0</ele><time>2026-04-18T13:39:58.001Z</time></trkpt><trkpt lat="43.2717967077868" lon="10.805741343783511"><ele>450.0</ele><time>2026-04-18T13:39:59.001Z</time></trkpt><trkpt lat="43.27171276771207" lon="10.805768567090524"><ele>450.0</ele><time>2026-04-18T13:40:00.001Z</time></trkpt><trkpt lat="43.271622250772076" lon="10.805782007426709"><ele>450.0</ele><time>2026-04-18T13:40:01.001Z</time></trkpt><trkpt lat="43.271533316638234" lon="10.805789474565033"><ele>450.0</ele><time>2026-04-18T13:40:02.001Z</time></trkpt><trkpt lat="43.27142872507139" lon="10.80579773683205"><ele>450.0</ele><time>2026-04-18T13:40:03.001Z</time></trkpt><trkpt lat="43.27133148651901" lon="10.805776476313948"><ele>450.2</ele><time>2026-04-18T13:40:04.001Z</time></trkpt><trkpt lat="43.271240454267215" lon="10.805798470006058"><ele>450.4</ele><time>2026-04-18T13:40:05.001Z</time></trkpt><trkpt lat="43.27114211546952" lon="10.805798582441383"><ele>450.6</ele><time>2026-04-18T13:40:06.001Z</time></trkpt><trkpt lat="43.27104192019257" lon="10.805805220076163"><ele>450.8</ele><time>2026-04-18T13:40:07.001Z</time></trkpt><trkpt lat="43.270941255316295" lon="10.805821813361971"><ele>451.0</ele><time>2026-04-18T13:40:08.001Z</time></trkpt><trkpt lat="43.27083598533468" lon="10.805844901300532"><ele>451.0</ele><time>2026-04-18T13:40:09.001Z</time></trkpt><trkpt lat="43.27072564391224" lon="10.8058618601466"><ele>451.0</ele><time>2026-04-18T13:40:10.002Z</time></trkpt><trkpt lat="43.27061088685837" lon="10.805870364910932"><ele>451.0</ele><time>2026-04-18T13:40:11.002Z</time></trkpt><trkpt lat="43.27049549808364" lon="10.805857060657571"><ele>451.0</ele><time>2026-04-18T13:40:12.002Z</time></trkpt><trkpt lat="43.27038255795723" lon="10.805877835812092"><ele>451.25</ele><time>2026-04-18T13:40:13.002Z</time></trkpt><trkpt lat="43.27026513066525" lon="10.805891522007776"><ele>451.5</ele><time>2026-04-18T13:40:14.002Z</time></trkpt><trkpt lat="43.27014761216705" lon="10.805912937620949"><ele>451.75</ele><time>2026-04-18T13:40:15.002Z</time></trkpt><trkpt lat="43.27003121683353" lon="10.805930094020553"><ele>452.0</ele><time>2026-04-18T13:40:16.002Z</time></trkpt><trkpt lat="43.26991557555488" lon="10.805941735664573"><ele>452.0</ele><time>2026-04-18T13:40:17.002Z</time></trkpt><trkpt lat="43.26980419048767" lon="10.805951467143633"><ele>452.00000000000006</ele><time>2026-04-18T13:40:18.002Z</time></trkpt><trkpt lat="43.269698625839496" lon="10.80595787046899"><ele>452.00000000000006</ele><time>2026-04-18T13:40:19.002Z</time></trkpt><trkpt lat="43.26960117106667" lon="10.805958193933945"><ele>452.0</ele><time>2026-04-18T13:40:20.002Z</time></trkpt><trkpt lat="43.26950645888673" lon="10.80593699104914"><ele>452.0</ele><time>2026-04-18T13:40:21.002Z</time></trkpt><trkpt lat="43.26941414241461" lon="10.80589468109771"><ele>453.0</ele><time>2026-04-18T13:40:22.002Z</time></trkpt><trkpt lat="43.26932180523114" lon="10.8058282999282"><ele>454.00000000000006</ele><time>2026-04-18T13:40:23.002Z</time></trkpt><trkpt lat="43.26924027897099" lon="10.805735121171388"><ele>455.00000000000006</ele><time>2026-04-18T13:40:24.002Z</time></trkpt><trkpt lat="43.26913789543297" lon="10.805689590339346"><ele>456.0</ele><time>2026-04-18T13:40:25.002Z</time></trkpt><trkpt lat="43.269042880752224" lon="10.805631006404804"><ele>457.0</ele><time>2026-04-18T13:40:26.002Z</time></trkpt><trkpt lat="43.26894254926912" lon="10.805578451964328"><ele>457.0</ele><time>2026-04-18T13:40:27.002Z</time></trkpt><trkpt lat="43.268837896072526" lon="10.805584539325272"><ele>457.00000000000006</ele><time>2026-04-18T13:40:28.002Z</time></trkpt><trkpt lat="43.26873299138488" lon="10.805598479022489"><ele>457.00000000000006</ele><time>2026-04-18T13:40:29.002Z</time></trkpt><trkpt lat="43.26863022417049" lon="10.805612735742583"><ele>457.0</ele><time>2026-04-18T13:40:30.002Z</time></trkpt><trkpt lat="43.268520781933" lon="10.805629833111201"><ele>457.0</ele><time>2026-04-18T13:40:31.002Z</time></trkpt><trkpt lat="43.26842057610382" lon="10.805644362690352"><ele>457.0</ele><time>2026-04-18T13:40:32.002Z</time></trkpt><trkpt lat="43.2683211326559" lon="10.805651550619777"><ele>457.00000000000006</ele><time>2026-04-18T13:40:33.002Z</time></trkpt><trkpt lat="43.26822763472983" lon="10.805652612535201"><ele>457.00000000000006</ele><time>2026-04-18T13:40:34.002Z</time></trkpt><trkpt lat="43.26813995351517" lon="10.80564629550248"><ele>457.0</ele><time>2026-04-18T13:40:35.002Z</time></trkpt><trkpt lat="43.26805199794029" lon="10.805631646805713"><ele>457.0</ele><time>2026-04-18T13:40:36.002Z</time></trkpt><trkpt lat="43.26796054677682" lon="10.80560932005622"><ele>457.20000000000005</ele><time>2026-04-18T13:40:37.002Z</time></trkpt><trkpt lat="43.26786663426915" lon="10.805575988752567"><ele>457.40000000000003</ele><time>2026-04-18T13:40:38.002Z</time></trkpt><trkpt lat="43.267773859608724" lon="10.805535234807373"><ele>457.59999999999997</ele><time>2026-04-18T13:40:39.002Z</time></trkpt><trkpt lat="43.26768165586421" lon="10.80549460405723"><ele>457.79999999999995</ele><time>2026-04-18T13:40:40.002Z</time></trkpt><trkpt lat="43.26759096967935" lon="10.805454642038466"><ele>458.0</ele><time>2026-04-18T13:40:41.002Z</time></trkpt><trkpt lat="43.267497415523884" lon="10.805435233564278"><ele>458.0</ele><time>2026-04-18T13:40:42.002Z</time></trkpt><trkpt lat="43.2674111772593" lon="10.805386061359124"><ele>457.99999999999994</ele><time>2026-04-18T13:40:43.002Z</time></trkpt><trkpt lat="43.26732391136641" lon="10.805338799133692"><ele>457.99999999999994</ele><time>2026-04-18T13:40:44.002Z</time></trkpt><trkpt lat="43.2672310185539" lon="10.805302660891039"><ele>458.0</ele><time>2026-04-18T13:40:45.002Z</time></trkpt><trkpt lat="43.26713509418637" lon="10.805280123076727"><ele>458.0</ele><time>2026-04-18T13:40:46.002Z</time></trkpt><trkpt lat="43.267039072924774" lon="10.805241358102952"><ele>457.25</ele><time>2026-04-18T13:40:47.002Z</time></trkpt><trkpt lat="43.26693656509016" lon="10.80520199239585"><ele>456.5</ele><time>2026-04-18T13:40:48.002Z</time></trkpt><trkpt lat="43.26683584599383" lon="10.805172066312913"><ele>455.75</ele><time>2026-04-18T13:40:49.002Z</time></trkpt><trkpt lat="43.26671379329587" lon="10.8051086744876"><ele>455.0</ele><time>2026-04-18T13:40:50.002Z</time></trkpt><trkpt lat="43.26661040903796" lon="10.805007105559158"><ele>455.0</ele><time>2026-04-18T13:40:51.003Z</time></trkpt><trkpt lat="43.2664983623428" lon="10.80491685197865"><ele>455.0</ele><time>2026-04-18T13:40:52.003Z</time></trkpt><trkpt lat="43.26638948835562" lon="10.80482689116656"><ele>455.0</ele><time>2026-04-18T13:40:53.003Z</time></trkpt><trkpt lat="43.26628306280559" lon="10.804726347210174"><ele>455.0</ele><time>2026-04-18T13:40:54.003Z</time></trkpt><trkpt lat="43.26617251334111" lon="10.80461877332686"><ele>456.25</ele><time>2026-04-18T13:40:55.003Z</time></trkpt><trkpt lat="43.266063471882276" lon="10.804539870323786"><ele>457.5</ele><time>2026-04-18T13:40:56.003Z</time></trkpt><trkpt lat="43.26596605144847" lon="10.804431560554567"><ele>458.75</ele><time>2026-04-18T13:40:57.003Z</time></trkpt><trkpt lat="43.26586626661731" lon="10.804343653330982"><ele>460.0</ele><time>2026-04-18T13:40:58.003Z</time></trkpt><trkpt lat="43.265766879411935" lon="10.804265066902172"><ele>460.0</ele><time>2026-04-18T13:40:59.003Z</time></trkpt><trkpt lat="43.2656660162055" lon="10.80418996919791"><ele>460.0</ele><time>2026-04-18T13:41:00.003Z</time></trkpt><trkpt lat="43.26558657870641" lon="10.804092379693959"><ele>460.0</ele><time>2026-04-18T13:41:01.003Z</time></trkpt><trkpt lat="43.26551511958101" lon="10.803990155307837"><ele>460.0</ele><time>2026-04-18T13:41:02.003Z</time></trkpt><trkpt lat="43.26545470983305" lon="10.803870962857417"><ele>460.0</ele><time>2026-04-18T13:41:03.003Z</time></trkpt><trkpt lat="43.26542567185973" lon="10.803742056556331"><ele>459.83333333333337</ele><time>2026-04-18T13:41:04.003Z</time></trkpt><trkpt lat="43.26538922858223" lon="10.803629426604555"><ele>459.6666666666667</ele><time>2026-04-18T13:41:05.003Z</time></trkpt><trkpt lat="43.26533059574829" lon="10.803568537204908"><ele>459.5</ele><time>2026-04-18T13:41:06.003Z</time></trkpt><trkpt lat="43.26526421614862" lon="10.803516195493307"><ele>459.33333333333337</ele><time>2026-04-18T13:41:07.003Z</time></trkpt><trkpt lat="43.26518480869593" lon="10.803493720322376"><ele>459.1666666666667</ele><time>2026-04-18T13:41:08.003Z</time></trkpt><trkpt lat="43.265081929645234" lon="10.803477110428958"><ele>459.0</ele><time>2026-04-18T13:41:09.003Z</time></trkpt><trkpt lat="43.26496904362618" lon="10.803474858505345"><ele>459.0</ele><time>2026-04-18T13:41:10.003Z</time></trkpt><trkpt lat="43.264827096746714" lon="10.803477637899864"><ele>459.0</ele><time>2026-04-18T13:41:11.003Z</time></trkpt><trkpt lat="43.26469238760736" lon="10.803498821536925"><ele>459.0</ele><time>2026-04-18T13:41:12.003Z</time></trkpt><trkpt lat="43.2645384087472" lon="10.803487123214776"><ele>459.0</ele><time>2026-04-18T13:41:13.003Z</time></trkpt><trkpt lat="43.26441245937692" lon="10.803512019263398"><ele>460.2</ele><time>2026-04-18T13:41:14.003Z</time></trkpt><trkpt lat="43.26428829774549" lon="10.803530714430531"><ele>461.4</ele><time>2026-04-18T13:41:15.003Z</time></trkpt><trkpt lat="43.264172768315866" lon="10.803519952491715"><ele>462.6</ele><time>2026-04-18T13:41:16.003Z</time></trkpt><trkpt lat="43.264082352349604" lon="10.803462087504967"><ele>463.8</ele><time>2026-04-18T13:41:17.003Z</time></trkpt><trkpt lat="43.26399998515948" lon="10.803372849251078"><ele>465.0</ele><time>2026-04-18T13:41:18.001Z</time></trkpt><trkpt lat="43.26391438085654" lon="10.803272980590517"><ele>465.0</ele><time>2026-04-18T13:41:19.001Z</time></trkpt><trkpt lat="43.26383066657039" lon="10.803168100973876"><ele>465.0</ele><time>2026-04-18T13:41:20.001Z</time></trkpt><trkpt lat="43.26375758526969" lon="10.803062565938655"><ele>465.0</ele><time>2026-04-18T13:41:21.001Z</time></trkpt><trkpt lat="43.263688256792705" lon="10.80295066663229"><ele>465.0</ele><time>2026-04-18T13:41:22.001Z</time></trkpt><trkpt lat="43.26363220637901" lon="10.802820301667838"><ele>465.0</ele><time>2026-04-18T13:41:23.001Z</time></trkpt><trkpt lat="43.26360086098096" lon="10.80267690638215"><ele>465.25</ele><time>2026-04-18T13:41:24.001Z</time></trkpt><trkpt lat="43.26358553460172" lon="10.802526818278134"><ele>465.5</ele><time>2026-04-18T13:41:25.001Z</time></trkpt><trkpt lat="43.26359503165547" lon="10.802371060285408"><ele>465.75</ele><time>2026-04-18T13:41:26.001Z</time></trkpt><trkpt lat="43.26360966195932" lon="10.802197193316886"><ele>466.0</ele><time>2026-04-18T13:41:27.001Z</time></trkpt><trkpt lat="43.26362735790087" lon="10.802010052156833"><ele>466.0</ele><time>2026-04-18T13:41:28.001Z</time></trkpt><trkpt lat="43.263676508374964" lon="10.801825121378297"><ele>466.0</ele><time>2026-04-18T13:41:29.001Z</time></trkpt><trkpt lat="43.2637223074509" lon="10.801661153159836"><ele>466.0</ele><time>2026-04-18T13:41:30.001Z</time></trkpt><trkpt lat="43.26377387209071" lon="10.801512783511988"><ele>466.0</ele><time>2026-04-18T13:41:31.001Z</time></trkpt><trkpt lat="43.263835219882125" lon="10.80137898814692"><ele>466.0</ele><time>2026-04-18T13:41:32.001Z</time></trkpt><trkpt lat="43.263881398715554" lon="10.801255624501852"><ele>466.0</ele><time>2026-04-18T13:41:33.001Z</time></trkpt><trkpt lat="43.26391534028854" lon="10.801139014236345"><ele>466.0</ele><time>2026-04-18T13:41:34.001Z</time></trkpt><trkpt lat="43.26393110530377" lon="10.80100693947016"><ele>466.0</ele><time>2026-04-18T13:41:35.001Z</time></trkpt><trkpt lat="43.263907220368736" lon="10.800866806896032"><ele>466.0</ele><time>2026-04-18T13:41:36.001Z</time></trkpt><trkpt lat="43.26382584197162" lon="10.80076344269008"><ele>465.25</ele><time>2026-04-18T13:41:37.001Z</time></trkpt><trkpt lat="43.26375298454105" lon="10.800662775176509"><ele>464.5</ele><time>2026-04-18T13:41:38.001Z</time></trkpt><trkpt lat="43.26366373973541" lon="10.800569223469285"><ele>463.75</ele><time>2026-04-18T13:41:39.001Z</time></trkpt><trkpt lat="43.26357333950457" lon="10.80047300400819"><ele>463.0</ele><time>2026-04-18T13:41:40.001Z</time></trkpt><trkpt lat="43.26345820939272" lon="10.800351520919431"><ele>463.0</ele><time>2026-04-18T13:41:41.001Z</time></trkpt><trkpt lat="43.26332305969934" lon="10.800212577775977"><ele>463.0</ele><time>2026-04-18T13:41:42.001Z</time></trkpt><trkpt lat="43.26317412189562" lon="10.800068843843176"><ele>463.0</ele><time>2026-04-18T13:41:43.001Z</time></trkpt><trkpt lat="43.26301761236621" lon="10.799925404759053"><ele>465.0</ele><time>2026-04-18T13:41:44.001Z</time></trkpt><trkpt lat="43.2628562452658" lon="10.799780864959633"><ele>467.0</ele><time>2026-04-18T13:41:45.001Z</time></trkpt><trkpt lat="43.26271712294248" lon="10.799655412659545"><ele>469.0</ele><time>2026-04-18T13:41:46.001Z</time></trkpt><trkpt lat="43.2626198058656" lon="10.799560517506093"><ele>469.0</ele><time>2026-04-18T13:41:47.001Z</time></trkpt><trkpt lat="43.262554947077014" lon="10.799465891642694"><ele>469.0</ele><time>2026-04-18T13:41:48.001Z</time></trkpt><trkpt lat="43.26248021632216" lon="10.799382301829704"><ele>469.0</ele><time>2026-04-18T13:41:50.001Z</time></trkpt><trkpt lat="43.26241798553228" lon="10.79928863637164"><ele>469.0</ele><time>2026-04-18T13:41:52.001Z</time></trkpt><trkpt lat="43.262361470819435" lon="10.79914555676784"><ele>469.0</ele><time>2026-04-18T13:41:54.001Z</time></trkpt><trkpt lat="43.26233402408815" lon="10.79905169447897"><ele>470.2</ele><time>2026-04-18T13:41:55.001Z</time></trkpt><trkpt lat="43.26230742315943" lon="10.798948242014397"><ele>471.4</ele><time>2026-04-18T13:41:56.001Z</time></trkpt><trkpt lat="43.26227749191048" lon="10.798830857799521"><ele>472.6</ele><time>2026-04-18T13:41:57.001Z</time></trkpt><trkpt lat="43.26224678409988" lon="10.798710429008128"><ele>473.8</ele><time>2026-04-18T13:41:58.001Z</time></trkpt><trkpt lat="43.26221695680656" lon="10.798584542051424"><ele>475.0</ele><time>2026-04-18T13:41:59.001Z</time></trkpt><trkpt lat="43.262185344082056" lon="10.798446988034945"><ele>477.8</ele><time>2026-04-18T13:42:00.001Z</time></trkpt><trkpt lat="43.26215379539472" lon="10.798309712905658"><ele>480.6</ele><time>2026-04-18T13:42:01.001Z</time></trkpt><trkpt lat="43.262121467496065" lon="10.798169047081394"><ele>483.4</ele><time>2026-04-18T13:42:02.001Z</time></trkpt><trkpt lat="43.26208646215731" lon="10.798020914931852"><ele>486.2</ele><time>2026-04-18T13:42:03.001Z</time></trkpt><trkpt lat="43.26205477734349" lon="10.797887732047016"><ele>489.0</ele><time>2026-04-18T13:42:04.001Z</time></trkpt><trkpt lat="43.262010821804516" lon="10.7977671152354"><ele>488.6</ele><time>2026-04-18T13:42:05.001Z</time></trkpt><trkpt lat="43.26198506582714" lon="10.797644901261064"><ele>488.2</ele><time>2026-04-18T13:42:06.001Z</time></trkpt><trkpt lat="43.26194924524598" lon="10.797519047353434"><ele>487.80000000000007</ele><time>2026-04-18T13:42:07.001Z</time></trkpt><trkpt lat="43.26192708211044" lon="10.797381803656004"><ele>487.40000000000003</ele><time>2026-04-18T13:42:08.001Z</time></trkpt><trkpt lat="43.26188941081528" lon="10.797247779150377"><ele>487.0</ele><time>2026-04-18T13:42:09.001Z</time></trkpt><trkpt lat="43.2618465811767" lon="10.797105998315708"><ele>487.0</ele><time>2026-04-18T13:42:10.001Z</time></trkpt><trkpt lat="43.26180136666476" lon="10.796981777316654"><ele>487.00000000000006</ele><time>2026-04-18T13:42:11.001Z</time></trkpt><trkpt lat="43.26177702836771" lon="10.796849440483268"><ele>487.00000000000006</ele><time>2026-04-18T13:42:12.001Z</time></trkpt><trkpt lat="43.26173804578839" lon="10.796725384619293"><ele>487.0</ele><time>2026-04-18T13:42:13.001Z</time></trkpt><trkpt lat="43.26168717643966" lon="10.79660439507976"><ele>487.0</ele><time>2026-04-18T13:42:14.001Z</time></trkpt><trkpt lat="43.26163459198655" lon="10.796474941056205"><ele>485.6</ele><time>2026-04-18T13:42:15.001Z</time></trkpt><trkpt lat="43.261602965130216" lon="10.796335766800398"><ele>484.20000000000005</ele><time>2026-04-18T13:42:16.001Z</time></trkpt><trkpt lat="43.26156255435885" lon="10.796204398390838"><ele>482.8</ele><time>2026-04-18T13:42:17.001Z</time></trkpt><trkpt lat="43.26151857420969" lon="10.796073565465415"><ele>481.4</ele><time>2026-04-18T13:42:18.001Z</time></trkpt><trkpt lat="43.26146070277038" lon="10.795954946787127"><ele>480.0</ele><time>2026-04-18T13:42:19.001Z</time></trkpt><trkpt lat="43.261434050909145" lon="10.795817593661237"><ele>479.4</ele><time>2026-04-18T13:42:20.001Z</time></trkpt><trkpt lat="43.26139525106872" lon="10.795688026338967"><ele>478.8</ele><time>2026-04-18T13:42:21.001Z</time></trkpt><trkpt lat="43.261350842587014" lon="10.795559993188343"><ele>478.20000000000005</ele><time>2026-04-18T13:42:22.001Z</time></trkpt><trkpt lat="43.261296537697454" lon="10.795426154101076"><ele>477.6</ele><time>2026-04-18T13:42:23.002Z</time></trkpt><trkpt lat="43.261235319692005" lon="10.795296684334767"><ele>477.0</ele><time>2026-04-18T13:42:24.002Z</time></trkpt><trkpt lat="43.26117062381925" lon="10.79517074022803"><ele>475.0</ele><time>2026-04-18T13:42:25.002Z</time></trkpt><trkpt lat="43.26110308625018" lon="10.795040210262213"><ele>473.0</ele><time>2026-04-18T13:42:26.002Z</time></trkpt><trkpt lat="43.261034479061365" lon="10.79491234430216"><ele>471.0</ele><time>2026-04-18T13:42:27.002Z</time></trkpt><trkpt lat="43.26096365193757" lon="10.79478908623316"><ele>469.0</ele><time>2026-04-18T13:42:28.002Z</time></trkpt><trkpt lat="43.26089971448114" lon="10.79466439879387"><ele>469.0</ele><time>2026-04-18T13:42:29.002Z</time></trkpt><trkpt lat="43.26083940078761" lon="10.794544804962932"><ele>469.0</ele><time>2026-04-18T13:42:30.002Z</time></trkpt><trkpt lat="43.260778061656744" lon="10.794427378053074"><ele>469.0</ele><time>2026-04-18T13:42:31.002Z</time></trkpt><trkpt lat="43.26071675795605" lon="10.794313950433853"><ele>469.0</ele><time>2026-04-18T13:42:32.002Z</time></trkpt><trkpt lat="43.260674006415904" lon="10.794181166459813"><ele>469.0</ele><time>2026-04-18T13:42:33.002Z</time></trkpt><trkpt lat="43.26062209299868" lon="10.794061834311437"><ele>467.0</ele><time>2026-04-18T13:42:34.002Z</time></trkpt><trkpt lat="43.26057389503312" lon="10.793940436567791"><ele>465.0</ele><time>2026-04-18T13:42:35.002Z</time></trkpt><trkpt lat="43.26052886706705" lon="10.793820864119262"><ele>463.0</ele><time>2026-04-18T13:42:36.002Z</time></trkpt><trkpt lat="43.26048689532107" lon="10.793693639963246"><ele>461.0</ele><time>2026-04-18T13:42:37.002Z</time></trkpt><trkpt lat="43.26043773618523" lon="10.793581318824943"><ele>459.0</ele><time>2026-04-18T13:42:38.002Z</time></trkpt><trkpt lat="43.26040772946829" lon="10.793451413419103"><ele>459.0</ele><time>2026-04-18T13:42:39.002Z</time></trkpt><trkpt lat="43.26037389724339" lon="10.793323026144522"><ele>459.0</ele><time>2026-04-18T13:42:40.002Z</time></trkpt><trkpt lat="43.2603300831325" lon="10.79319719137958"><ele>459.0</ele><time>2026-04-18T13:42:41.002Z</time></trkpt><trkpt lat="43.26028289488448" lon="10.793072401621394"><ele>459.0</ele><time>2026-04-18T13:42:42.002Z</time></trkpt><trkpt lat="43.26023296914818" lon="10.792948833077533"><ele>459.0</ele><time>2026-04-18T13:42:43.002Z</time></trkpt><trkpt lat="43.26017711889776" lon="10.792828331567053"><ele>459.0</ele><time>2026-04-18T13:42:44.002Z</time></trkpt><trkpt lat="43.260116330907294" lon="10.792705595215754"><ele>459.0</ele><time>2026-04-18T13:42:45.002Z</time></trkpt><trkpt lat="43.260057667135534" lon="10.792581918627503"><ele>459.0</ele><time>2026-04-18T13:42:46.002Z</time></trkpt><trkpt lat="43.25999699630305" lon="10.79245855978878"><ele>459.0</ele><time>2026-04-18T13:42:47.002Z</time></trkpt><trkpt lat="43.25992734520696" lon="10.792330407432532"><ele>459.0</ele><time>2026-04-18T13:42:48.002Z</time></trkpt><trkpt lat="43.25984719038043" lon="10.79218928190479"><ele>458.75</ele><time>2026-04-18T13:42:49.002Z</time></trkpt><trkpt lat="43.259767703045505" lon="10.792050672268807"><ele>458.5</ele><time>2026-04-18T13:42:50.002Z</time></trkpt><trkpt lat="43.25967961423226" lon="10.791908628755921"><ele>458.25</ele><time>2026-04-18T13:42:51.002Z</time></trkpt><trkpt lat="43.25958099020767" lon="10.791764628014255"><ele>458.0</ele><time>2026-04-18T13:42:52.002Z</time></trkpt><trkpt lat="43.25947887365867" lon="10.791631210421583"><ele>458.0</ele><time>2026-04-18T13:42:53.002Z</time></trkpt><trkpt lat="43.25938671169657" lon="10.79147782309926"><ele>458.0</ele><time>2026-04-18T13:42:54.002Z</time></trkpt><trkpt lat="43.25929737750825" lon="10.79131826997662"><ele>458.0</ele><time>2026-04-18T13:42:55.002Z</time></trkpt><trkpt lat="43.25921399375954" lon="10.791150944055435"><ele>458.0</ele><time>2026-04-18T13:42:56.002Z</time></trkpt><trkpt lat="43.259130002845794" lon="10.790976450341722"><ele>458.0</ele><time>2026-04-18T13:42:57.002Z</time></trkpt><trkpt lat="43.259053265617545" lon="10.790809568765752"><ele>458.0</ele><time>2026-04-18T13:42:58.002Z</time></trkpt><trkpt lat="43.25898963478676" lon="10.790649612101596"><ele>458.0</ele><time>2026-04-18T13:42:59.002Z</time></trkpt><trkpt lat="43.25892819589749" lon="10.790503294493082"><ele>458.0</ele><time>2026-04-18T13:43:00.002Z</time></trkpt><trkpt lat="43.25886234606364" lon="10.790353979760566"><ele>457.75</ele><time>2026-04-18T13:43:01.002Z</time></trkpt><trkpt lat="43.25879678762125" lon="10.790195179798468"><ele>457.5</ele><time>2026-04-18T13:43:02.002Z</time></trkpt><trkpt lat="43.25875223515188" lon="10.790025169993747"><ele>457.25</ele><time>2026-04-18T13:43:03.002Z</time></trkpt><trkpt lat="43.258695565028624" lon="10.789858412831421"><ele>457.0</ele><time>2026-04-18T13:43:04.002Z</time></trkpt><trkpt lat="43.25864385657265" lon="10.789687175126392"><ele>457.0</ele><time>2026-04-18T13:43:05.002Z</time></trkpt><trkpt lat="43.25858121121343" lon="10.789514917405826"><ele>457.0</ele><time>2026-04-18T13:43:06.002Z</time></trkpt><trkpt lat="43.2585393498867" lon="10.789336960975609"><ele>457.0</ele><time>2026-04-18T13:43:07.002Z</time></trkpt><trkpt lat="43.25850151107788" lon="10.789155639471687"><ele>457.0</ele><time>2026-04-18T13:43:08.003Z</time></trkpt><trkpt lat="43.2584692912328" lon="10.788970284333377"><ele>456.5</ele><time>2026-04-18T13:43:09.003Z</time></trkpt><trkpt lat="43.25844543211827" lon="10.788770946729036"><ele>456.0</ele><time>2026-04-18T13:43:10.003Z</time></trkpt><trkpt lat="43.25845059440559" lon="10.788572173900487"><ele>455.5</ele><time>2026-04-18T13:43:11.003Z</time></trkpt><trkpt lat="43.25844673263454" lon="10.788375121959156"><ele>455.0</ele><time>2026-04-18T13:43:12.003Z</time></trkpt><trkpt lat="43.258442779747035" lon="10.78817458860729"><ele>455.0</ele><time>2026-04-18T13:43:13.003Z</time></trkpt><trkpt lat="43.25844387812986" lon="10.78798225731914"><ele>455.0</ele><time>2026-04-18T13:43:14.003Z</time></trkpt><trkpt lat="43.25844473145107" lon="10.787819187471882"><ele>455.0</ele><time>2026-04-18T13:43:15.003Z</time></trkpt><trkpt lat="43.25844041598967" lon="10.787683660968293"><ele>455.0</ele><time>2026-04-18T13:43:16.003Z</time></trkpt><trkpt lat="43.258425525032365" lon="10.787549998838355"><ele>455.4</ele><time>2026-04-18T13:43:17.003Z</time></trkpt><trkpt lat="43.258390525588084" lon="10.787410258863884"><ele>455.8</ele><time>2026-04-18T13:43:18.003Z</time></trkpt><trkpt lat="43.25833626565416" lon="10.787279971819267"><ele>456.20000000000005</ele><time>2026-04-18T13:43:19.003Z</time></trkpt><trkpt lat="43.2582662710903" lon="10.787185960267635"><ele>456.6</ele><time>2026-04-18T13:43:20.003Z</time></trkpt><trkpt lat="43.25816986247294" lon="10.787106642093717"><ele>457.0</ele><time>2026-04-18T13:43:21.003Z</time></trkpt><trkpt lat="43.25807814708857" lon="10.787026864563522"><ele>454.75</ele><time>2026-04-18T13:43:22.003Z</time></trkpt><trkpt lat="43.25797609780557" lon="10.786942825791293"><ele>452.5</ele><time>2026-04-18T13:43:23.003Z</time></trkpt><trkpt lat="43.25785018237605" lon="10.786861544107115"><ele>450.25</ele><time>2026-04-18T13:43:24Z</time></trkpt><trkpt lat="43.257738493389695" lon="10.786721503608646"><ele>448.0</ele><time>2026-04-18T13:43:25Z</time></trkpt><trkpt lat="43.25763394860369" lon="10.786600006973744"><ele>448.0</ele><time>2026-04-18T13:43:26Z</time></trkpt><trkpt lat="43.257522623490786" lon="10.78646428215349"><ele>448.0</ele><time>2026-04-18T13:43:27Z</time></trkpt><trkpt lat="43.25743192942899" lon="10.786348009746744"><ele>448.0</ele><time>2026-04-18T13:43:28Z</time></trkpt><trkpt lat="43.257349638286456" lon="10.786233743849966"><ele>448.0</ele><time>2026-04-18T13:43:29Z</time></trkpt><trkpt lat="43.25727745083215" lon="10.786134365941452"><ele>445.59999999999997</ele><time>2026-04-18T13:43:30Z</time></trkpt><trkpt lat="43.2572109090478" lon="10.786060427619493"><ele>443.19999999999993</ele><time>2026-04-18T13:43:31Z</time></trkpt><trkpt lat="43.25718589618687" lon="10.785937863529792"><ele>440.8</ele><time>2026-04-18T13:43:32Z</time></trkpt><trkpt lat="43.25716834824114" lon="10.785800542372078"><ele>438.4</ele><time>2026-04-18T13:43:33Z</time></trkpt><trkpt lat="43.25719396456704" lon="10.785707023772815"><ele>436.0</ele><time>2026-04-18T13:43:34Z</time></trkpt><trkpt lat="43.25720919558702" lon="10.78557002052441"><ele>436.0</ele><time>2026-04-18T13:43:35Z</time></trkpt><trkpt lat="43.25721995357631" lon="10.785435242716321"><ele>436.0</ele><time>2026-04-18T13:43:36Z</time></trkpt><trkpt lat="43.25721407432631" lon="10.785282194929797"><ele>436.0</ele><time>2026-04-18T13:43:37Z</time></trkpt><trkpt lat="43.25716966696745" lon="10.785110845342864"><ele>436.0</ele><time>2026-04-18T13:43:38Z</time></trkpt><trkpt lat="43.25708001982062" lon="10.784981584774364"><ele>436.8</ele><time>2026-04-18T13:43:39Z</time></trkpt><trkpt lat="43.25701609737046" lon="10.784859984323306"><ele>437.6</ele><time>2026-04-18T13:43:40Z</time></trkpt><trkpt lat="43.25696845332602" lon="10.784753514343889"><ele>438.4</ele><time>2026-04-18T13:43:41Z</time></trkpt><trkpt lat="43.25692769006458" lon="10.784639774373836"><ele>439.2</ele><time>2026-04-18T13:43:42Z</time></trkpt><trkpt lat="43.256891474162465" lon="10.784520529207361"><ele>440.0</ele><time>2026-04-18T13:43:43Z</time></trkpt><trkpt lat="43.25683478424794" lon="10.7843602373628"><ele>441.0</ele><time>2026-04-18T13:43:44Z</time></trkpt><trkpt lat="43.25680241470624" lon="10.784167307674336"><ele>442.0</ele><time>2026-04-18T13:43:45Z</time></trkpt><trkpt lat="43.25679059188344" lon="10.7839751012683"><ele>443.0</ele><time>2026-04-18T13:43:46Z</time></trkpt><trkpt lat="43.256772568515565" lon="10.78379654802548"><ele>444.0</ele><time>2026-04-18T13:43:47Z</time></trkpt><trkpt lat="43.25675663985593" lon="10.783638746688107"><ele>445.0</ele><time>2026-04-18T13:43:48Z</time></trkpt><trkpt lat="43.256726743534166" lon="10.783494580357518"><ele>446.0</ele><time>2026-04-18T13:43:49Z</time></trkpt><trkpt lat="43.25671661398933" lon="10.78338426547125"><ele>447.0</ele><time>2026-04-18T13:43:50Z</time></trkpt><trkpt lat="43.25670008149792" lon="10.783256030626823"><ele>448.0</ele><time>2026-04-18T13:43:51.001Z</time></trkpt><trkpt lat="43.256646038331375" lon="10.783128094033737"><ele>449.0</ele><time>2026-04-18T13:43:52.001Z</time></trkpt><trkpt lat="43.256576222372274" lon="10.783050841619964"><ele>449.5</ele><time>2026-04-18T13:43:53.001Z</time></trkpt><trkpt lat="43.25643879303074" lon="10.783040804915624"><ele>450.0</ele><time>2026-04-18T13:43:54.001Z</time></trkpt><trkpt lat="43.25632686138731" lon="10.783037518125685"><ele>450.5</ele><time>2026-04-18T13:43:55.001Z</time></trkpt><trkpt lat="43.25619194421275" lon="10.783036137179831"><ele>451.0</ele><time>2026-04-18T13:43:56.001Z</time></trkpt><trkpt lat="43.256068071867865" lon="10.783029728279375"><ele>451.00000000000006</ele><time>2026-04-18T13:43:57.001Z</time></trkpt><trkpt lat="43.25595691803696" lon="10.783018582138148"><ele>451.0</ele><time>2026-04-18T13:43:58.001Z</time></trkpt><trkpt lat="43.255869538760486" lon="10.782987789175383"><ele>451.0</ele><time>2026-04-18T13:43:59.001Z</time></trkpt><trkpt lat="43.255808757306006" lon="10.782934944509968"><ele>451.0</ele><time>2026-04-18T13:44:00.001Z</time></trkpt><trkpt lat="43.25574960801217" lon="10.782863629556394"><ele>451.00000000000006</ele><time>2026-04-18T13:44:01.001Z</time></trkpt><trkpt lat="43.25567761110623" lon="10.78278000255709"><ele>451.0</ele><time>2026-04-18T13:44:02.001Z</time></trkpt><trkpt lat="43.25558303967355" lon="10.782666321836388"><ele>451.0</ele><time>2026-04-18T13:44:03.001Z</time></trkpt><trkpt lat="43.25550043970862" lon="10.782557015479501"><ele>451.0</ele><time>2026-04-18T13:44:04.001Z</time></trkpt><trkpt lat="43.25543424649824" lon="10.782458751200974"><ele>451.0</ele><time>2026-04-18T13:44:05.001Z</time></trkpt><trkpt lat="43.25539070382139" lon="10.782374565138905"><ele>451.0</ele><time>2026-04-18T13:44:06.001Z</time></trkpt><trkpt lat="43.25536332325919" lon="10.782272541562135"><ele>451.0</ele><time>2026-04-18T13:44:07.001Z</time></trkpt><trkpt lat="43.25533978775" lon="10.782162907934334"><ele>451.0</ele><time>2026-04-18T13:44:08.001Z</time></trkpt><trkpt lat="43.25533617656065" lon="10.782039317440667"><ele>451.0</ele><time>2026-04-18T13:44:09.001Z</time></trkpt><trkpt lat="43.255306712730246" lon="10.781894718399515"><ele>451.0</ele><time>2026-04-18T13:44:10.001Z</time></trkpt><trkpt lat="43.255253200733556" lon="10.781742537307363"><ele>451.0</ele><time>2026-04-18T13:44:11.001Z</time></trkpt><trkpt lat="43.25518132280058" lon="10.781596618437616"><ele>454.0</ele><time>2026-04-18T13:44:12.001Z</time></trkpt><trkpt lat="43.2551126117396" lon="10.78143283300679"><ele>457.0</ele><time>2026-04-18T13:44:13.001Z</time></trkpt><trkpt lat="43.25499373360157" lon="10.781294993388345"><ele>460.0</ele><time>2026-04-18T13:44:14.001Z</time></trkpt><trkpt lat="43.25488060202529" lon="10.78119362784966"><ele>463.0</ele><time>2026-04-18T13:44:15.001Z</time></trkpt><trkpt lat="43.25478974116566" lon="10.781123856142935"><ele>462.0</ele><time>2026-04-18T13:44:16.001Z</time></trkpt><trkpt lat="43.25470028201926" lon="10.781088341999938"><ele>460.99999999999994</ele><time>2026-04-18T13:44:17.001Z</time></trkpt><trkpt lat="43.254582803729875" lon="10.781100324174835"><ele>459.99999999999994</ele><time>2026-04-18T13:44:18.001Z</time></trkpt><trkpt lat="43.25446818456367" lon="10.78116181604658"><ele>459.0</ele><time>2026-04-18T13:44:19.001Z</time></trkpt><trkpt lat="43.25436166040225" lon="10.781213923387975"><ele>458.0</ele><time>2026-04-18T13:44:20.001Z</time></trkpt><trkpt lat="43.25425920835707" lon="10.781247494815677"><ele>458.0</ele><time>2026-04-18T13:44:21.001Z</time></trkpt><trkpt lat="43.2541685575946" lon="10.781242571519028"><ele>457.99999999999994</ele><time>2026-04-18T13:44:22.001Z</time></trkpt><trkpt lat="43.25408798417375" lon="10.781192523583476"><ele>457.99999999999994</ele><time>2026-04-18T13:44:23.001Z</time></trkpt><trkpt lat="43.25400540569694" lon="10.781122315800694"><ele>458.0</ele><time>2026-04-18T13:44:24.001Z</time></trkpt><trkpt lat="43.25390689766291" lon="10.781032238941576"><ele>458.0</ele><time>2026-04-18T13:44:25.001Z</time></trkpt><trkpt lat="43.253811134733276" lon="10.780933727253299"><ele>458.79999999999995</ele><time>2026-04-18T13:44:26.001Z</time></trkpt><trkpt lat="43.253720541084604" lon="10.780819429469691"><ele>459.59999999999997</ele><time>2026-04-18T13:44:27.001Z</time></trkpt><trkpt lat="43.25365043295467" lon="10.780711069602013"><ele>460.40000000000003</ele><time>2026-04-18T13:44:28.001Z</time></trkpt><trkpt lat="43.25360946049583" lon="10.780611766763057"><ele>461.20000000000005</ele><time>2026-04-18T13:44:29.001Z</time></trkpt><trkpt lat="43.25357021556558" lon="10.780467790130652"><ele>462.0</ele><time>2026-04-18T13:44:30.001Z</time></trkpt><trkpt lat="43.25351963026655" lon="10.7803119202389"><ele>465.0</ele><time>2026-04-18T13:44:31.001Z</time></trkpt><trkpt lat="43.25345051420117" lon="10.780159457188104"><ele>468.0</ele><time>2026-04-18T13:44:32.001Z</time></trkpt><trkpt lat="43.25335131230762" lon="10.780012323926721"><ele>471.0</ele><time>2026-04-18T13:44:33.001Z</time></trkpt><trkpt lat="43.25324869312135" lon="10.779871060705611"><ele>474.0</ele><time>2026-04-18T13:44:34.001Z</time></trkpt><trkpt lat="43.253136551289224" lon="10.77973659604556"><ele>474.33333333333337</ele><time>2026-04-18T13:44:35.001Z</time></trkpt><trkpt lat="43.25301199902228" lon="10.77960363805829"><ele>474.6666666666667</ele><time>2026-04-18T13:44:36.001Z</time></trkpt><trkpt lat="43.2528839043041" lon="10.779473650069605"><ele>475.0</ele><time>2026-04-18T13:44:37.001Z</time></trkpt><trkpt lat="43.25275485768155" lon="10.779350197628498"><ele>475.0</ele><time>2026-04-18T13:44:38.001Z</time></trkpt><trkpt lat="43.25263569016975" lon="10.779242958478125"><ele>475.0</ele><time>2026-04-18T13:44:39.001Z</time></trkpt><trkpt lat="43.25252895977625" lon="10.779150397215384"><ele>475.0</ele><time>2026-04-18T13:44:40.001Z</time></trkpt><trkpt lat="43.252433950481596" lon="10.779070695791168"><ele>475.0</ele><time>2026-04-18T13:44:41.001Z</time></trkpt><trkpt lat="43.25234005379334" lon="10.77899192770307"><ele>473.2</ele><time>2026-04-18T13:44:42.002Z</time></trkpt><trkpt lat="43.252246757585176" lon="10.778913663329304"><ele>471.4</ele><time>2026-04-18T13:44:43.002Z</time></trkpt><trkpt lat="43.25214887198829" lon="10.778856246600938"><ele>469.6</ele><time>2026-04-18T13:44:44.002Z</time></trkpt><trkpt lat="43.25205911246077" lon="10.778782178359862"><ele>467.8</ele><time>2026-04-18T13:44:45.002Z</time></trkpt><trkpt lat="43.251964739527544" lon="10.778704295586143"><ele>466.0</ele><time>2026-04-18T13:44:46.002Z</time></trkpt><trkpt lat="43.25186706465349" lon="10.778620579026358"><ele>467.0</ele><time>2026-04-18T13:44:47.002Z</time></trkpt><trkpt lat="43.25176510991931" lon="10.778517024962884"><ele>468.0</ele><time>2026-04-18T13:44:48.002Z</time></trkpt><trkpt lat="43.25164101596796" lon="10.77844779479752"><ele>469.0</ele><time>2026-04-18T13:44:49.002Z</time></trkpt><trkpt lat="43.25151267366686" lon="10.77835899010394"><ele>470.0</ele><time>2026-04-18T13:44:50.002Z</time></trkpt><trkpt lat="43.251387483263535" lon="10.778251020753446"><ele>470.5</ele><time>2026-04-18T13:44:51.002Z</time></trkpt><trkpt lat="43.25125457642315" lon="10.77816119877251"><ele>471.0</ele><time>2026-04-18T13:44:52.002Z</time></trkpt><trkpt lat="43.25113435016482" lon="10.778082328391303"><ele>471.5</ele><time>2026-04-18T13:44:53.002Z</time></trkpt><trkpt lat="43.2510398725978" lon="10.778022433853229"><ele>472.0</ele><time>2026-04-18T13:44:54.002Z</time></trkpt><trkpt lat="43.25095602565892" lon="10.777992818383547"><ele>472.00000000000006</ele><time>2026-04-18T13:44:55.002Z</time></trkpt><trkpt lat="43.25088215626392" lon="10.777956781304459"><ele>472.0</ele><time>2026-04-18T13:44:56.002Z</time></trkpt><trkpt lat="43.25080153249707" lon="10.777950057433127"><ele>472.0</ele><time>2026-04-18T13:44:57.002Z</time></trkpt><trkpt lat="43.25071863607586" lon="10.777983305978324"><ele>472.0</ele><time>2026-04-18T13:44:58.002Z</time></trkpt><trkpt lat="43.25062244868862" lon="10.778031892214237"><ele>472.00000000000006</ele><time>2026-04-18T13:44:59.002Z</time></trkpt><trkpt lat="43.2505254651902" lon="10.778067183733805"><ele>472.0</ele><time>2026-04-18T13:45:00.002Z</time></trkpt><trkpt lat="43.25042998844311" lon="10.778093831344636"><ele>472.8</ele><time>2026-04-18T13:45:01.002Z</time></trkpt><trkpt lat="43.25032633422531" lon="10.77810223639579"><ele>473.6</ele><time>2026-04-18T13:45:02.002Z</time></trkpt><trkpt lat="43.25021247648237" lon="10.77808047986183"><ele>474.40000000000003</ele><time>2026-04-18T13:45:03.002Z</time></trkpt><trkpt lat="43.2500903666243" lon="10.778074189419673"><ele>475.20000000000005</ele><time>2026-04-18T13:45:04.002Z</time></trkpt><trkpt lat="43.249994988942106" lon="10.778071553844258"><ele>476.0</ele><time>2026-04-18T13:45:05.002Z</time></trkpt><trkpt lat="43.24990729083105" lon="10.778023736984117"><ele>476.0</ele><time>2026-04-18T13:45:06.002Z</time></trkpt><trkpt lat="43.2498272180834" lon="10.777966638416048"><ele>476.0</ele><time>2026-04-18T13:45:07.002Z</time></trkpt><trkpt lat="43.24975930122711" lon="10.77790360181757"><ele>476.0</ele><time>2026-04-18T13:45:08.002Z</time></trkpt><trkpt lat="43.24969194729216" lon="10.777827429821144"><ele>476.0</ele><time>2026-04-18T13:45:09.002Z</time></trkpt><trkpt lat="43.24961226865265" lon="10.777728986654015"><ele>476.0</ele><time>2026-04-18T13:45:10.002Z</time></trkpt><trkpt lat="43.249531765069854" lon="10.77762395768878"><ele>481.5</ele><time>2026-04-18T13:45:11.002Z</time></trkpt><trkpt lat="43.24944524808457" lon="10.777517024618337"><ele>487.0</ele><time>2026-04-18T13:45:12.002Z</time></trkpt><trkpt lat="43.24936246034305" lon="10.777412575846782"><ele>492.5</ele><time>2026-04-18T13:45:13.002Z</time></trkpt><trkpt lat="43.2492801815473" lon="10.777286451298277"><ele>498.0</ele><time>2026-04-18T13:45:14.002Z</time></trkpt><trkpt lat="43.249231772541656" lon="10.777134462872528"><ele>498.0</ele><time>2026-04-18T13:45:15.002Z</time></trkpt><trkpt lat="43.249195814402654" lon="10.776985701208519"><ele>497.99999999999994</ele><time>2026-04-18T13:45:16.002Z</time></trkpt><trkpt lat="43.249155112237005" lon="10.776838598021117"><ele>497.99999999999994</ele><time>2026-04-18T13:45:17.002Z</time></trkpt><trkpt lat="43.2491154806446" lon="10.776713850708298"><ele>498.0</ele><time>2026-04-18T13:45:18.002Z</time></trkpt><trkpt lat="43.24906560998072" lon="10.77658519359625"><ele>498.0</ele><time>2026-04-18T13:45:19.002Z</time></trkpt><trkpt lat="43.248997317232714" lon="10.776480737536197"><ele>502.5</ele><time>2026-04-18T13:45:20.002Z</time></trkpt><trkpt lat="43.24892095181228" lon="10.77637508276892"><ele>507.0</ele><time>2026-04-18T13:45:21.002Z</time></trkpt><trkpt lat="43.24882587242913" lon="10.776276049515731"><ele>511.5</ele><time>2026-04-18T13:45:22.002Z</time></trkpt><trkpt lat="43.248745136916334" lon="10.776160949704717"><ele>516.0</ele><time>2026-04-18T13:45:23.002Z</time></trkpt><trkpt lat="43.24867022569736" lon="10.776025863507998"><ele>513.8333333333334</ele><time>2026-04-18T13:45:24.002Z</time></trkpt><trkpt lat="43.248601150756485" lon="10.77588908057011"><ele>511.66666666666663</ele><time>2026-04-18T13:45:25.002Z</time></trkpt><trkpt lat="43.248552488025965" lon="10.775794678529262"><ele>509.5</ele><time>2026-04-18T13:45:26.002Z</time></trkpt><trkpt lat="43.24848265208818" lon="10.775735350599728"><ele>507.3333333333333</ele><time>2026-04-18T13:45:27.002Z</time></trkpt><trkpt lat="43.24840435381792" lon="10.775715786057566"><ele>505.16666666666663</ele><time>2026-04-18T13:45:28.003Z</time></trkpt><trkpt lat="43.24832925587627" lon="10.775743933338603"><ele>503.0</ele><time>2026-04-18T13:45:29.003Z</time></trkpt><trkpt lat="43.24826965776879" lon="10.775789996782644"><ele>503.0</ele><time>2026-04-18T13:45:30Z</time></trkpt><trkpt lat="43.248208411495646" lon="10.77584240179431"><ele>502.99999999999994</ele><time>2026-04-18T13:45:31Z</time></trkpt><trkpt lat="43.248105484766064" lon="10.77590696367761"><ele>502.99999999999994</ele><time>2026-04-18T13:45:33Z</time></trkpt><trkpt lat="43.24799489341123" lon="10.775957548668666"><ele>503.0</ele><time>2026-04-18T13:45:35Z</time></trkpt><trkpt lat="43.247901717831745" lon="10.775955520898911"><ele>503.0</ele><time>2026-04-18T13:45:37Z</time></trkpt><trkpt lat="43.247827865297616" lon="10.775909663161093"><ele>503.28571428571433</ele><time>2026-04-18T13:45:38Z</time></trkpt><trkpt lat="43.24776596740445" lon="10.775892875553797"><ele>503.5714285714286</ele><time>2026-04-18T13:45:39Z</time></trkpt><trkpt lat="43.247697044833075" lon="10.77589421471856"><ele>503.8571428571429</ele><time>2026-04-18T13:45:40Z</time></trkpt><trkpt lat="43.24763379976227" lon="10.775867038863442"><ele>504.1428571428571</ele><time>2026-04-18T13:45:41Z</time></trkpt><trkpt lat="43.247555379716125" lon="10.775862669251321"><ele>504.4285714285714</ele><time>2026-04-18T13:45:42Z</time></trkpt><trkpt lat="43.2474734965684" lon="10.775889132314566"><ele>504.71428571428567</ele><time>2026-04-18T13:45:43Z</time></trkpt><trkpt lat="43.2473940061682" lon="10.775942607192809"><ele>505.0</ele><time>2026-04-18T13:45:44Z</time></trkpt><trkpt lat="43.24732109435883" lon="10.775997981899641"><ele>508.50000000000006</ele><time>2026-04-18T13:45:45Z</time></trkpt><trkpt lat="43.24723565635869" lon="10.776044267679783"><ele>512.0</ele><time>2026-04-18T13:45:46Z</time></trkpt><trkpt lat="43.24715258527105" lon="10.776084801809871"><ele>515.5</ele><time>2026-04-18T13:45:47Z</time></trkpt><trkpt lat="43.247074586132584" lon="10.776133611404584"><ele>519.0</ele><time>2026-04-18T13:45:48Z</time></trkpt><trkpt lat="43.24699464583568" lon="10.77615896827652"><ele>522.5</ele><time>2026-04-18T13:45:49Z</time></trkpt><trkpt lat="43.24691634273497" lon="10.7761404633352"><ele>526.0</ele><time>2026-04-18T13:45:50Z</time></trkpt><trkpt lat="43.246834064426146" lon="10.77610359799898"><ele>526.0</ele><time>2026-04-18T13:45:51Z</time></trkpt><trkpt lat="43.24676704537731" lon="10.776049854519146"><ele>526.0</ele><time>2026-04-18T13:45:52Z</time></trkpt><trkpt lat="43.24671909588246" lon="10.775987487190376"><ele>526.0</ele><time>2026-04-18T13:45:53Z</time></trkpt><trkpt lat="43.24665295101199" lon="10.775891044963318"><ele>526.0</ele><time>2026-04-18T13:45:54Z</time></trkpt><trkpt lat="43.246584564366415" lon="10.775796027890747"><ele>526.0</ele><time>2026-04-18T13:45:55Z</time></trkpt><trkpt lat="43.246509330540555" lon="10.7757145429067"><ele>526.0</ele><time>2026-04-18T13:45:56Z</time></trkpt><trkpt lat="43.24643521322801" lon="10.775646487656015"><ele>523.6</ele><time>2026-04-18T13:45:57Z</time></trkpt><trkpt lat="43.24635460397795" lon="10.775571055430477"><ele>521.2</ele><time>2026-04-18T13:45:58Z</time></trkpt><trkpt lat="43.2462848754765" lon="10.775493133840936"><ele>518.8</ele><time>2026-04-18T13:45:59Z</time></trkpt><trkpt lat="43.24623067301271" lon="10.775382917173472"><ele>516.4</ele><time>2026-04-18T13:46:00Z</time></trkpt><trkpt lat="43.24618320983251" lon="10.775265143829808"><ele>514.0</ele><time>2026-04-18T13:46:01.001Z</time></trkpt><trkpt lat="43.24613649228861" lon="10.775148641715939"><ele>512.2</ele><time>2026-04-18T13:46:02.001Z</time></trkpt><trkpt lat="43.24608475788661" lon="10.775060864550774"><ele>510.4</ele><time>2026-04-18T13:46:03.001Z</time></trkpt><trkpt lat="43.24602922271769" lon="10.775009087903763"><ele>508.6</ele><time>2026-04-18T13:46:04.001Z</time></trkpt><trkpt lat="43.2459147666072" lon="10.774977843827717"><ele>506.8</ele><time>2026-04-18T13:46:06.001Z</time></trkpt><trkpt lat="43.24579046968165" lon="10.77503326353707"><ele>505.0</ele><time>2026-04-18T13:46:08.001Z</time></trkpt><trkpt lat="43.2457199269646" lon="10.775064461368851"><ele>505.00000000000006</ele><time>2026-04-18T13:46:09.001Z</time></trkpt><trkpt lat="43.24565686330025" lon="10.775071632743193"><ele>505.0</ele><time>2026-04-18T13:46:10.001Z</time></trkpt><trkpt lat="43.245576134763446" lon="10.77509749029797"><ele>505.0</ele><time>2026-04-18T13:46:12.001Z</time></trkpt><trkpt lat="43.24549432755213" lon="10.77511733410531"><ele>505.0</ele><time>2026-04-18T13:46:17.001Z</time></trkpt><trkpt lat="43.24541369457452" lon="10.775090985443702"><ele>505.00000000000006</ele><time>2026-04-18T13:46:19.001Z</time></trkpt><trkpt lat="43.24532082170216" lon="10.775000791678517"><ele>505.0</ele><time>2026-04-18T13:46:21.001Z</time></trkpt><trkpt lat="43.24526893991544" lon="10.774950208432726"><ele>504.6666666666667</ele><time>2026-04-18T13:46:22.001Z</time></trkpt><trkpt lat="43.2452035498034" lon="10.774890166961715"><ele>504.33333333333337</ele><time>2026-04-18T13:46:23.001Z</time></trkpt><trkpt lat="43.245129869114855" lon="10.77484385751071"><ele>504.0</ele><time>2026-04-18T13:46:24.001Z</time></trkpt><trkpt lat="43.245057573918565" lon="10.77479841891542"><ele>503.66666666666663</ele><time>2026-04-18T13:46:25.001Z</time></trkpt><trkpt lat="43.24497803639757" lon="10.774748428342878"><ele>503.3333333333333</ele><time>2026-04-18T13:46:26.001Z</time></trkpt><trkpt lat="43.244902635214956" lon="10.774701037621833"><ele>503.0</ele><time>2026-04-18T13:46:27.001Z</time></trkpt><trkpt lat="43.24481715787753" lon="10.774667366659932"><ele>502.66666666666663</ele><time>2026-04-18T13:46:28.001Z</time></trkpt><trkpt lat="43.24474760087238" lon="10.774607115878094"><ele>502.3333333333333</ele><time>2026-04-18T13:46:29.001Z</time></trkpt><trkpt lat="43.24466088887524" lon="10.774547779641155"><ele>502.0</ele><time>2026-04-18T13:46:30.001Z</time></trkpt><trkpt lat="43.24459164937383" lon="10.774494594483503"><ele>501.66666666666663</ele><time>2026-04-18T13:46:31.001Z</time></trkpt><trkpt lat="43.244522901439936" lon="10.774445515874806"><ele>501.3333333333333</ele><time>2026-04-18T13:46:32.001Z</time></trkpt><trkpt lat="43.24444741626844" lon="10.774390873673049"><ele>501.0</ele><time>2026-04-18T13:46:33.001Z</time></trkpt><trkpt lat="43.24437075013722" lon="10.774341754184316"><ele>501.0</ele><time>2026-04-18T13:46:34.001Z</time></trkpt><trkpt lat="43.24429444390104" lon="10.774288243237947"><ele>501.0</ele><time>2026-04-18T13:46:35.001Z</time></trkpt><trkpt lat="43.2442158174642" lon="10.774233577997693"><ele>501.0</ele><time>2026-04-18T13:46:36.001Z</time></trkpt><trkpt lat="43.244141702835755" lon="10.774164873930209"><ele>501.0</ele><time>2026-04-18T13:46:37.001Z</time></trkpt><trkpt lat="43.24408308900045" lon="10.77408696421345"><ele>501.0</ele><time>2026-04-18T13:46:38.001Z</time></trkpt><trkpt lat="43.24405745894782" lon="10.77397562454715"><ele>501.0</ele><time>2026-04-18T13:46:39.001Z</time></trkpt><trkpt lat="43.244033785567744" lon="10.773854983023332"><ele>501.0</ele><time>2026-04-18T13:46:40.001Z</time></trkpt><trkpt lat="43.24401818023048" lon="10.773726898917928"><ele>501.0</ele><time>2026-04-18T13:46:41.001Z</time></trkpt><trkpt lat="43.24399753630876" lon="10.773590496522877"><ele>501.0</ele><time>2026-04-18T13:46:42.001Z</time></trkpt><trkpt lat="43.243971690087875" lon="10.773461780452712"><ele>501.0</ele><time>2026-04-18T13:46:43.001Z</time></trkpt><trkpt lat="43.24392783957354" lon="10.773336430087127"><ele>501.0</ele><time>2026-04-18T13:46:44.001Z</time></trkpt><trkpt lat="43.243863305929224" lon="10.77321498796417"><ele>501.4</ele><time>2026-04-18T13:46:45.001Z</time></trkpt><trkpt lat="43.24377385148082" lon="10.773123555229876"><ele>501.8</ele><time>2026-04-18T13:46:46.001Z</time></trkpt><trkpt lat="43.24370061708009" lon="10.77303575721856"><ele>502.19999999999993</ele><time>2026-04-18T13:46:47.001Z</time></trkpt><trkpt lat="43.24365509302255" lon="10.772921945678576"><ele>502.59999999999997</ele><time>2026-04-18T13:46:48.001Z</time></trkpt><trkpt lat="43.24363498887902" lon="10.772787635242848"><ele>503.0</ele><time>2026-04-18T13:46:49.002Z</time></trkpt><trkpt lat="43.243629284884534" lon="10.772626870603645"><ele>504.0</ele><time>2026-04-18T13:46:50.002Z</time></trkpt><trkpt lat="43.243626145587704" lon="10.772445607106182"><ele>505.0</ele><time>2026-04-18T13:46:51.002Z</time></trkpt><trkpt lat="43.243618924624904" lon="10.772251868064258"><ele>506.0</ele><time>2026-04-18T13:46:52.002Z</time></trkpt><trkpt lat="43.24363788223508" lon="10.772055837947473"><ele>507.0</ele><time>2026-04-18T13:46:53.002Z</time></trkpt><trkpt lat="43.24365606748022" lon="10.771892112159911"><ele>506.20000000000005</ele><time>2026-04-18T13:46:54.002Z</time></trkpt><trkpt lat="43.24364663662184" lon="10.771760223467304"><ele>505.40000000000003</ele><time>2026-04-18T13:46:55.002Z</time></trkpt><trkpt lat="43.24363294053158" lon="10.771664292007696"><ele>504.59999999999997</ele><time>2026-04-18T13:46:56.002Z</time></trkpt><trkpt lat="43.24362318985433" lon="10.771577343607733"><ele>503.79999999999995</ele><time>2026-04-18T13:46:57.002Z</time></trkpt><trkpt lat="43.24355410533645" lon="10.771475351297429"><ele>503.0</ele><time>2026-04-18T13:46:58.002Z</time></trkpt><trkpt lat="43.24343473434205" lon="10.77142170009378"><ele>503.0</ele><time>2026-04-18T13:46:59.002Z</time></trkpt><trkpt lat="43.24330588616331" lon="10.771427749224841"><ele>502.99999999999994</ele><time>2026-04-18T13:47:00.002Z</time></trkpt><trkpt lat="43.24321377311706" lon="10.771427569143336"><ele>502.99999999999994</ele><time>2026-04-18T13:47:01.002Z</time></trkpt><trkpt lat="43.24313653328597" lon="10.771381646303455"><ele>503.0</ele><time>2026-04-18T13:47:02.002Z</time></trkpt><trkpt lat="43.24309892039392" lon="10.77129262455363"><ele>503.0</ele><time>2026-04-18T13:47:03.002Z</time></trkpt><trkpt lat="43.24307815309528" lon="10.771168431960724"><ele>503.75</ele><time>2026-04-18T13:47:04.002Z</time></trkpt><trkpt lat="43.24304316988018" lon="10.771000110254109"><ele>504.5</ele><time>2026-04-18T13:47:05.002Z</time></trkpt><trkpt lat="43.2430117818845" lon="10.77081506056146"><ele>505.25</ele><time>2026-04-18T13:47:06.002Z</time></trkpt><trkpt lat="43.24298696366946" lon="10.770654930595938"><ele>506.0</ele><time>2026-04-18T13:47:07.002Z</time></trkpt><trkpt lat="43.24296353911987" lon="10.770514447445793"><ele>506.0</ele><time>2026-04-18T13:47:08.002Z</time></trkpt><trkpt lat="43.24290251611143" lon="10.77035530507219"><ele>506.0</ele><time>2026-04-18T13:47:09.002Z</time></trkpt><trkpt lat="43.2428139346571" lon="10.770223671132866"><ele>506.0</ele><time>2026-04-18T13:47:10.002Z</time></trkpt><trkpt lat="43.24274702917307" lon="10.770061259182002"><ele>506.0</ele><time>2026-04-18T13:47:11.002Z</time></trkpt><trkpt lat="43.24269011295399" lon="10.769902633955825"><ele>503.20000000000005</ele><time>2026-04-18T13:47:12.002Z</time></trkpt><trkpt lat="43.242656598096104" lon="10.769728016942462"><ele>500.40000000000003</ele><time>2026-04-18T13:47:13.002Z</time></trkpt><trkpt lat="43.24263203093507" lon="10.769558818577229"><ele>497.6</ele><time>2026-04-18T13:47:14.002Z</time></trkpt><trkpt lat="43.24262136847155" lon="10.769430414244539"><ele>494.8</ele><time>2026-04-18T13:47:15.002Z</time></trkpt><trkpt lat="43.24261629903264" lon="10.769306631622133"><ele>492.0</ele><time>2026-04-18T13:47:16.002Z</time></trkpt><trkpt lat="43.24258824590477" lon="10.769199716452457"><ele>489.8</ele><time>2026-04-18T13:47:17.002Z</time></trkpt><trkpt lat="43.2425382422298" lon="10.769114496559732"><ele>487.6</ele><time>2026-04-18T13:47:18.002Z</time></trkpt><trkpt lat="43.24244684559209" lon="10.769049331500536"><ele>485.40000000000003</ele><time>2026-04-18T13:47:19.002Z</time></trkpt><trkpt lat="43.24232753451347" lon="10.768999192024797"><ele>483.20000000000005</ele><time>2026-04-18T13:47:20.002Z</time></trkpt><trkpt lat="43.24219850996725" lon="10.768955453145397"><ele>481.0</ele><time>2026-04-18T13:47:21.002Z</time></trkpt><trkpt lat="43.242050806628" lon="10.76890434102095"><ele>481.0</ele><time>2026-04-18T13:47:22.002Z</time></trkpt><trkpt lat="43.241890545677535" lon="10.768838939574094"><ele>481.0</ele><time>2026-04-18T13:47:23.002Z</time></trkpt><trkpt lat="43.241758201223696" lon="10.768795933432079"><ele>481.0</ele><time>2026-04-18T13:47:24.002Z</time></trkpt><trkpt lat="43.24163129020147" lon="10.768745191300862"><ele>481.0</ele><time>2026-04-18T13:47:25.002Z</time></trkpt><trkpt lat="43.24149261187276" lon="10.768773770830498"><ele>479.20000000000005</ele><time>2026-04-18T13:47:26.002Z</time></trkpt><trkpt lat="43.241383351348524" lon="10.768791459560854"><ele>477.40000000000003</ele><time>2026-04-18T13:47:27.002Z</time></trkpt><trkpt lat="43.241275368949516" lon="10.768772299809386"><ele>475.6</ele><time>2026-04-18T13:47:28.002Z</time></trkpt><trkpt lat="43.24116550569763" lon="10.768711031093797"><ele>473.8</ele><time>2026-04-18T13:47:29.002Z</time></trkpt><trkpt lat="43.24107555550255" lon="10.768661464608137"><ele>472.0</ele><time>2026-04-18T13:47:30.002Z</time></trkpt><trkpt lat="43.2409931448349" lon="10.768632414875574"><ele>472.00000000000006</ele><time>2026-04-18T13:47:31.002Z</time></trkpt><trkpt lat="43.24091272076497" lon="10.768588690122796"><ele>472.0</ele><time>2026-04-18T13:47:32.002Z</time></trkpt><trkpt lat="43.24083508472881" lon="10.768543640558919"><ele>472.0</ele><time>2026-04-18T13:47:33.002Z</time></trkpt><trkpt lat="43.24077440720542" lon="10.768504437631082"><ele>472.0</ele><time>2026-04-18T13:47:34.002Z</time></trkpt><trkpt lat="43.240705613456484" lon="10.768464346089376"><ele>472.00000000000006</ele><time>2026-04-18T13:47:36Z</time></trkpt><trkpt lat="43.240639566281864" lon="10.768421465000221"><ele>472.0</ele><time>2026-04-18T13:47:39Z</time></trkpt><trkpt lat="43.240691095890135" lon="10.767874509241084"><ele>470.0</ele><time>2026-04-18T13:48:41.001Z</time></trkpt><trkpt lat="43.24071391099451" lon="10.76769785506913"><ele>468.00000000000006</ele><time>2026-04-18T13:48:43.001Z</time></trkpt><trkpt lat="43.24073057978942" lon="10.767589279554054"><ele>466.00000000000006</ele><time>2026-04-18T13:48:44.001Z</time></trkpt><trkpt lat="43.24074750982966" lon="10.76747366505401"><ele>464.0</ele><time>2026-04-18T13:48:45.001Z</time></trkpt><trkpt lat="43.240765394726395" lon="10.767353155264212"><ele>462.0</ele><time>2026-04-18T13:48:46.001Z</time></trkpt><trkpt lat="43.24077016170826" lon="10.767221113090773"><ele>461.8</ele><time>2026-04-18T13:48:47.001Z</time></trkpt><trkpt lat="43.24079059623747" lon="10.767082237208733"><ele>461.6</ele><time>2026-04-18T13:48:48.001Z</time></trkpt><trkpt lat="43.240803005768036" lon="10.766946083532053"><ele>461.40000000000003</ele><time>2026-04-18T13:48:49.001Z</time></trkpt><trkpt lat="43.24081194128694" lon="10.76681046738206"><ele>461.20000000000005</ele><time>2026-04-18T13:48:50.001Z</time></trkpt><trkpt lat="43.240820235267094" lon="10.766670817783893"><ele>461.0</ele><time>2026-04-18T13:48:51.001Z</time></trkpt><trkpt lat="43.240845101859676" lon="10.76654156405135"><ele>460.99999999999994</ele><time>2026-04-18T13:48:52.001Z</time></trkpt><trkpt lat="43.240875539263705" lon="10.766420187517378"><ele>461.0</ele><time>2026-04-18T13:48:53.001Z</time></trkpt><trkpt lat="43.240907299269296" lon="10.766310235727023"><ele>461.0</ele><time>2026-04-18T13:48:54.001Z</time></trkpt><trkpt lat="43.24093661595937" lon="10.766206718446432"><ele>461.0</ele><time>2026-04-18T13:48:55.002Z</time></trkpt><trkpt lat="43.240966002209724" lon="10.766103154551269"><ele>460.99999999999994</ele><time>2026-04-18T13:48:56.002Z</time></trkpt><trkpt lat="43.24099305410138" lon="10.766006696946155"><ele>461.0</ele><time>2026-04-18T13:48:57.002Z</time></trkpt><trkpt lat="43.24101215033803" lon="10.765906278048154"><ele>460.49999999999994</ele><time>2026-04-18T13:48:58.002Z</time></trkpt><trkpt lat="43.24102703895023" lon="10.765805572536527"><ele>460.0</ele><time>2026-04-18T13:48:59.002Z</time></trkpt><trkpt lat="43.241020568701266" lon="10.76569866406632"><ele>459.5</ele><time>2026-04-18T13:49:00.002Z</time></trkpt><trkpt lat="43.2410043651015" lon="10.765584454299365"><ele>459.0</ele><time>2026-04-18T13:49:01.002Z</time></trkpt><trkpt lat="43.24097290738954" lon="10.76545892736114"><ele>458.49999999999994</ele><time>2026-04-18T13:49:02.002Z</time></trkpt><trkpt lat="43.240927536813984" lon="10.765328137190455"><ele>458.0</ele><time>2026-04-18T13:49:03.002Z</time></trkpt><trkpt lat="43.24090044347556" lon="10.765192127598088"><ele>458.0</ele><time>2026-04-18T13:49:04.002Z</time></trkpt><trkpt lat="43.24090259479089" lon="10.765060959069618"><ele>457.99999999999994</ele><time>2026-04-18T13:49:05.002Z</time></trkpt><trkpt lat="43.240902495879325" lon="10.764940920797693"><ele>457.99999999999994</ele><time>2026-04-18T13:49:06.002Z</time></trkpt><trkpt lat="43.24088011112372" lon="10.764824766226068"><ele>458.0</ele><time>2026-04-18T13:49:07.002Z</time></trkpt><trkpt lat="43.24084707574484" lon="10.764704450829631"><ele>458.0</ele><time>2026-04-18T13:49:08.002Z</time></trkpt><trkpt lat="43.240803758405534" lon="10.764581543296785"><ele>458.0</ele><time>2026-04-18T13:49:09.002Z</time></trkpt><trkpt lat="43.24074593820432" lon="10.764468237548131"><ele>457.99999999999994</ele><time>2026-04-18T13:49:10.002Z</time></trkpt><trkpt lat="43.240677580206125" lon="10.764359059694746"><ele>457.99999999999994</ele><time>2026-04-18T13:49:11.002Z</time></trkpt><trkpt lat="43.24062053980488" lon="10.764233228040064"><ele>458.0</ele><time>2026-04-18T13:49:12.002Z</time></trkpt><trkpt lat="43.24057761981427" lon="10.764109970491097"><ele>458.0</ele><time>2026-04-18T13:49:13.002Z</time></trkpt><trkpt lat="43.24053515127019" lon="10.764013349248366"><ele>460.49999999999994</ele><time>2026-04-18T13:49:14.002Z</time></trkpt><trkpt lat="43.240469313228004" lon="10.76395799162948"><ele>463.0</ele><time>2026-04-18T13:49:15.002Z</time></trkpt><trkpt lat="43.24038465685771" lon="10.763902511714608"><ele>465.5</ele><time>2026-04-18T13:49:16.002Z</time></trkpt><trkpt lat="43.24030019981109" lon="10.763857816363716"><ele>468.0</ele><time>2026-04-18T13:49:17.002Z</time></trkpt><trkpt lat="43.24022191511253" lon="10.763815863292258"><ele>470.49999999999994</ele><time>2026-04-18T13:49:18.002Z</time></trkpt><trkpt lat="43.240155293475055" lon="10.763767211113697"><ele>473.0</ele><time>2026-04-18T13:49:19.002Z</time></trkpt><trkpt lat="43.240127352463404" lon="10.763678962876174"><ele>473.0</ele><time>2026-04-18T13:49:20.002Z</time></trkpt><trkpt lat="43.24015348191546" lon="10.763534465564698"><ele>472.99999999999994</ele><time>2026-04-18T13:49:22.002Z</time></trkpt><trkpt lat="43.2402181874621" lon="10.763500991606618"><ele>472.99999999999994</ele><time>2026-04-18T13:49:23.002Z</time></trkpt><trkpt lat="43.24030848709691" lon="10.763469176187586"><ele>473.0</ele><time>2026-04-18T13:49:24.002Z</time></trkpt><trkpt lat="43.24041058932023" lon="10.763421478798968"><ele>473.0</ele><time>2026-04-18T13:49:25.002Z</time></trkpt><trkpt lat="43.24049364615782" lon="10.763322734971025"><ele>472.2</ele><time>2026-04-18T13:49:26.002Z</time></trkpt><trkpt lat="43.240583748896086" lon="10.763229483405564"><ele>471.4</ele><time>2026-04-18T13:49:27.002Z</time></trkpt><trkpt lat="43.240669000647564" lon="10.763193615654982"><ele>470.59999999999997</ele><time>2026-04-18T13:49:28.002Z</time></trkpt><trkpt lat="43.24074978342695" lon="10.763170962123986"><ele>469.79999999999995</ele><time>2026-04-18T13:49:29.002Z</time></trkpt><trkpt lat="43.240822320875324" lon="10.763111812538531"><ele>469.0</ele><time>2026-04-18T13:49:30.002Z</time></trkpt><trkpt lat="43.24087802597964" lon="10.763025216154096"><ele>468.33333333333337</ele><time>2026-04-18T13:49:31.002Z</time></trkpt><trkpt lat="43.24090673843606" lon="10.762913732474793"><ele>467.6666666666667</ele><time>2026-04-18T13:49:32.002Z</time></trkpt><trkpt lat="43.24097452134678" lon="10.762835344154174"><ele>467.0</ele><time>2026-04-18T13:49:33.002Z</time></trkpt><trkpt lat="43.24103733893966" lon="10.762761759225821"><ele>466.33333333333337</ele><time>2026-04-18T13:49:34.002Z</time></trkpt><trkpt lat="43.24108511610332" lon="10.76267930471847"><ele>465.6666666666667</ele><time>2026-04-18T13:49:35.002Z</time></trkpt><trkpt lat="43.24112993663209" lon="10.762618583480206"><ele>465.0</ele><time>2026-04-18T13:49:36.002Z</time></trkpt><trkpt lat="43.241159493440655" lon="10.762457586053577"><ele>465.0</ele><time>2026-04-18T13:49:38.002Z</time></trkpt><trkpt lat="43.241147743177535" lon="10.762352031885914"><ele>465.0</ele><time>2026-04-18T13:49:39.002Z</time></trkpt><trkpt lat="43.24113843414191" lon="10.762234631970689"><ele>465.0</ele><time>2026-04-18T13:49:40.002Z</time></trkpt><trkpt lat="43.24113862606287" lon="10.762110533580007"><ele>465.0</ele><time>2026-04-18T13:49:41.002Z</time></trkpt><trkpt lat="43.241152689188304" lon="10.761989846646529"><ele>465.0</ele><time>2026-04-18T13:49:42.001Z</time></trkpt><trkpt lat="43.24120535131797" lon="10.761889632438063"><ele>465.0</ele><time>2026-04-18T13:49:43.001Z</time></trkpt><trkpt lat="43.24125493459516" lon="10.761780498556979"><ele>465.8333333333333</ele><time>2026-04-18T13:49:44.001Z</time></trkpt><trkpt lat="43.24129084355791" lon="10.761665197482076"><ele>466.66666666666663</ele><time>2026-04-18T13:49:45.001Z</time></trkpt><trkpt lat="43.241335213125225" lon="10.761588094954982"><ele>467.5</ele><time>2026-04-18T13:49:46.001Z</time></trkpt><trkpt lat="43.24138681879005" lon="10.761514259117094"><ele>468.3333333333333</ele><time>2026-04-18T13:49:47.001Z</time></trkpt><trkpt lat="43.24145816320856" lon="10.761500004216602"><ele>469.16666666666663</ele><time>2026-04-18T13:49:48.001Z</time></trkpt><trkpt lat="43.241524032003035" lon="10.761403068640403"><ele>470.0</ele><time>2026-04-18T13:49:50.001Z</time></trkpt><trkpt lat="43.24153042449178" lon="10.761252174402193"><ele>469.99999999999994</ele><time>2026-04-18T13:49:52.001Z</time></trkpt><trkpt lat="43.2414923216374" lon="10.761169540610286"><ele>470.0</ele><time>2026-04-18T13:49:53.001Z</time></trkpt><trkpt lat="43.241433013588534" lon="10.76109772004125"><ele>470.0</ele><time>2026-04-18T13:49:54.001Z</time></trkpt><trkpt lat="43.241402191411865" lon="10.760995956659913"><ele>470.0</ele><time>2026-04-18T13:49:55.001Z</time></trkpt><trkpt lat="43.24136295809668" lon="10.76090897298791"><ele>469.99999999999994</ele><time>2026-04-18T13:49:56.001Z</time></trkpt><trkpt lat="43.24130509690995" lon="10.760842959074639"><ele>470.0</ele><time>2026-04-18T13:49:57.001Z</time></trkpt><trkpt lat="43.24126207900751" lon="10.76076229676725"><ele>469.6</ele><time>2026-04-18T13:49:58.001Z</time></trkpt><trkpt lat="43.241225311413395" lon="10.760662243267785"><ele>469.2</ele><time>2026-04-18T13:49:59.001Z</time></trkpt><trkpt lat="43.241203711387584" lon="10.760544574013638"><ele>468.79999999999995</ele><time>2026-04-18T13:50:00.001Z</time></trkpt><trkpt lat="43.241182434592794" lon="10.760421315276446"><ele>468.4</ele><time>2026-04-18T13:50:01.001Z</time></trkpt><trkpt lat="43.24117808098517" lon="10.760287122927005"><ele>468.0</ele><time>2026-04-18T13:50:02.001Z</time></trkpt><trkpt lat="43.24120694913882" lon="10.760136236945925"><ele>465.2</ele><time>2026-04-18T13:50:03.001Z</time></trkpt><trkpt lat="43.24120972566721" lon="10.759985283216995"><ele>462.4</ele><time>2026-04-18T13:50:04.001Z</time></trkpt><trkpt lat="43.24118995841201" lon="10.75984732216643"><ele>459.59999999999997</ele><time>2026-04-18T13:50:05.001Z</time></trkpt><trkpt lat="43.24119816952441" lon="10.759715301447457"><ele>456.79999999999995</ele><time>2026-04-18T13:50:06.001Z</time></trkpt><trkpt lat="43.24123859889549" lon="10.75960500825437"><ele>454.0</ele><time>2026-04-18T13:50:07.001Z</time></trkpt><trkpt lat="43.24125391229501" lon="10.759489300012447"><ele>454.00000000000006</ele><time>2026-04-18T13:50:08.001Z</time></trkpt><trkpt lat="43.24123974615539" lon="10.75937748101493"><ele>454.0</ele><time>2026-04-18T13:50:09.001Z</time></trkpt><trkpt lat="43.24120822979473" lon="10.759288145354"><ele>454.0</ele><time>2026-04-18T13:50:10.001Z</time></trkpt><trkpt lat="43.24119566288539" lon="10.759190635822977"><ele>454.0</ele><time>2026-04-18T13:50:11.001Z</time></trkpt><trkpt lat="43.24116130409413" lon="10.759114580128886"><ele>454.00000000000006</ele><time>2026-04-18T13:50:12.001Z</time></trkpt><trkpt lat="43.24112795085386" lon="10.758992439045109"><ele>454.0</ele><time>2026-04-18T13:50:14.001Z</time></trkpt><trkpt lat="43.24121341577455" lon="10.758962101771768"><ele>454.0</ele><time>2026-04-18T13:50:16.001Z</time></trkpt><trkpt lat="43.24129469889988" lon="10.75907329464464"><ele>454.0</ele><time>2026-04-18T13:50:18.001Z</time></trkpt><trkpt lat="43.2413087863304" lon="10.759182188819974"><ele>454.0</ele><time>2026-04-18T13:50:19.001Z</time></trkpt><trkpt lat="43.24135208136353" lon="10.759302626517037"><ele>454.0</ele><time>2026-04-18T13:50:20.001Z</time></trkpt><trkpt lat="43.24137732410412" lon="10.759467437023671"><ele>454.0</ele><time>2026-04-18T13:50:21.001Z</time></trkpt><trkpt lat="43.24141982985801" lon="10.759622582947049"><ele>454.0</ele><time>2026-04-18T13:50:22.001Z</time></trkpt><trkpt lat="43.241461367833516" lon="10.759755216118043"><ele>454.0</ele><time>2026-04-18T13:50:23.001Z</time></trkpt><trkpt lat="43.24150571799234" lon="10.759882030504269"><ele>454.0</ele><time>2026-04-18T13:50:24.001Z</time></trkpt><trkpt lat="43.24155121302162" lon="10.759995072263541"><ele>454.0</ele><time>2026-04-18T13:50:25.001Z</time></trkpt><trkpt lat="43.24157930923236" lon="10.76008627230229"><ele>454.0</ele><time>2026-04-18T13:50:26.001Z</time></trkpt><trkpt lat="43.241644290371745" lon="10.76022511007965"><ele>452.83333333333337</ele><time>2026-04-18T13:50:28.001Z</time></trkpt><trkpt lat="43.24170261470807" lon="10.76026888968554"><ele>451.6666666666667</ele><time>2026-04-18T13:50:29.001Z</time></trkpt><trkpt lat="43.24177907008498" lon="10.760221873527101"><ele>450.5</ele><time>2026-04-18T13:50:30.001Z</time></trkpt><trkpt lat="43.241847837926535" lon="10.760218284659809"><ele>449.33333333333337</ele><time>2026-04-18T13:50:31.001Z</time></trkpt><trkpt lat="43.24192002981287" lon="10.760209693176044"><ele>448.1666666666667</ele><time>2026-04-18T13:50:32.001Z</time></trkpt><trkpt lat="43.241996291372175" lon="10.760176093059695"><ele>447.0</ele><time>2026-04-18T13:50:33.001Z</time></trkpt><trkpt lat="43.24206905049022" lon="10.7601174967604"><ele>445.8333333333333</ele><time>2026-04-18T13:50:34.001Z</time></trkpt><trkpt lat="43.24213381327652" lon="10.760039459014063"><ele>444.66666666666663</ele><time>2026-04-18T13:50:35.001Z</time></trkpt><trkpt lat="43.24219446393661" lon="10.75995854312025"><ele>443.5</ele><time>2026-04-18T13:50:36.001Z</time></trkpt><trkpt lat="43.24224307130211" lon="10.75986407308444"><ele>442.3333333333333</ele><time>2026-04-18T13:50:37.001Z</time></trkpt><trkpt lat="43.24230060834943" lon="10.759780590366256"><ele>441.16666666666663</ele><time>2026-04-18T13:50:38.001Z</time></trkpt><trkpt lat="43.24237799806284" lon="10.759722995123408"><ele>440.0</ele><time>2026-04-18T13:50:39.001Z</time></trkpt><trkpt lat="43.242451095627075" lon="10.75964418885113"><ele>439.99999999999994</ele><time>2026-04-18T13:50:40.001Z</time></trkpt><trkpt lat="43.2425420796986" lon="10.75961579321659"><ele>440.0</ele><time>2026-04-18T13:50:41.001Z</time></trkpt><trkpt lat="43.2426234845938" lon="10.759587967846386"><ele>440.0</ele><time>2026-04-18T13:50:42.001Z</time></trkpt><trkpt lat="43.24270162434423" lon="10.759585376527374"><ele>440.0</ele><time>2026-04-18T13:50:43.001Z</time></trkpt><trkpt lat="43.24278967322232" lon="10.759593241844046"><ele>439.99999999999994</ele><time>2026-04-18T13:50:44.001Z</time></trkpt><trkpt lat="43.24286841033292" lon="10.759613118602479"><ele>440.0</ele><time>2026-04-18T13:50:45.001Z</time></trkpt><trkpt lat="43.24295825727711" lon="10.759665082121277"><ele>440.0</ele><time>2026-04-18T13:50:46.001Z</time></trkpt><trkpt lat="43.24304639915781" lon="10.759764559369541"><ele>440.0</ele><time>2026-04-18T13:50:47.001Z</time></trkpt><trkpt lat="43.24314909167687" lon="10.759843123330304"><ele>440.0</ele><time>2026-04-18T13:50:48.001Z</time></trkpt><trkpt lat="43.243248695918844" lon="10.759911419921643"><ele>440.0</ele><time>2026-04-18T13:50:49.001Z</time></trkpt><trkpt lat="43.2433549346471" lon="10.759968574466457"><ele>437.25</ele><time>2026-04-18T13:50:50.001Z</time></trkpt><trkpt lat="43.24346552704367" lon="10.759983568526726"><ele>434.5</ele><time>2026-04-18T13:50:51.001Z</time></trkpt><trkpt lat="43.243573088383265" lon="10.760049113182697"><ele>431.75</ele><time>2026-04-18T13:50:52.001Z</time></trkpt><trkpt lat="43.24366879174764" lon="10.760107579128647"><ele>429.0</ele><time>2026-04-18T13:50:53.001Z</time></trkpt><trkpt lat="43.243771662315375" lon="10.760186281075063"><ele>429.6</ele><time>2026-04-18T13:50:54.001Z</time></trkpt><trkpt lat="43.243881080554324" lon="10.760251783220012"><ele>430.2</ele><time>2026-04-18T13:50:55.001Z</time></trkpt><trkpt lat="43.243979079017535" lon="10.760333715242874"><ele>430.80000000000007</ele><time>2026-04-18T13:50:56.001Z</time></trkpt><trkpt lat="43.244077354225766" lon="10.760400201521541"><ele>431.40000000000003</ele><time>2026-04-18T13:50:57.001Z</time></trkpt><trkpt lat="43.2441689071933" lon="10.760471467060635"><ele>432.0</ele><time>2026-04-18T13:50:58.001Z</time></trkpt><trkpt lat="43.24426836187363" lon="10.76047308464836"><ele>429.6666666666667</ele><time>2026-04-18T13:50:59.001Z</time></trkpt><trkpt lat="43.24435891150832" lon="10.760466359085008"><ele>427.33333333333337</ele><time>2026-04-18T13:51:00.001Z</time></trkpt><trkpt lat="43.244446006008715" lon="10.760446924957858"><ele>425.0</ele><time>2026-04-18T13:51:01.001Z</time></trkpt><trkpt lat="43.24453048955709" lon="10.760414422662006"><ele>422.6666666666667</ele><time>2026-04-18T13:51:02.001Z</time></trkpt><trkpt lat="43.244604309283076" lon="10.760397919725358"><ele>420.33333333333337</ele><time>2026-04-18T13:51:03.001Z</time></trkpt><trkpt lat="43.244674284485235" lon="10.760391614292574"><ele>418.0</ele><time>2026-04-18T13:51:04.001Z</time></trkpt><trkpt lat="43.24473853389747" lon="10.760348354716886"><ele>418.00000000000006</ele><time>2026-04-18T13:51:05.002Z</time></trkpt><trkpt lat="43.24478796088211" lon="10.760291668132346"><ele>418.0</ele><time>2026-04-18T13:51:06.002Z</time></trkpt><trkpt lat="43.24483666929419" lon="10.760205949767512"><ele>418.0</ele><time>2026-04-18T13:51:07.002Z</time></trkpt><trkpt lat="43.24487601747086" lon="10.760101699184945"><ele>418.0</ele><time>2026-04-18T13:51:08.002Z</time></trkpt><trkpt lat="43.244900286450545" lon="10.759985887252737"><ele>418.00000000000006</ele><time>2026-04-18T13:51:09.002Z</time></trkpt><trkpt lat="43.24493805599351" lon="10.759871299236156"><ele>418.0</ele><time>2026-04-18T13:51:10.002Z</time></trkpt><trkpt lat="43.24495707623933" lon="10.759738876313229"><ele>421.0</ele><time>2026-04-18T13:51:11.002Z</time></trkpt><trkpt lat="43.24496039623837" lon="10.759601938246025"><ele>424.0</ele><time>2026-04-18T13:51:12.002Z</time></trkpt><trkpt lat="43.244981526731955" lon="10.75946795444893"><ele>426.99999999999994</ele><time>2026-04-18T13:51:13.002Z</time></trkpt><trkpt lat="43.24502112133522" lon="10.7593341639715"><ele>430.0</ele><time>2026-04-18T13:51:14.002Z</time></trkpt><trkpt lat="43.24505752735602" lon="10.759202981700042"><ele>433.0</ele><time>2026-04-18T13:51:15.002Z</time></trkpt><trkpt lat="43.24510230153385" lon="10.759088386202505"><ele>433.50000000000006</ele><time>2026-04-18T13:51:16.002Z</time></trkpt><trkpt lat="43.24515834205116" lon="10.758996096942555"><ele>434.0</ele><time>2026-04-18T13:51:17.002Z</time></trkpt><trkpt lat="43.24521631134383" lon="10.758910885773885"><ele>434.5</ele><time>2026-04-18T13:51:18.002Z</time></trkpt><trkpt lat="43.24528194894747" lon="10.758836174073048"><ele>435.0</ele><time>2026-04-18T13:51:19.002Z</time></trkpt><trkpt lat="43.2453463695637" lon="10.758762328836864"><ele>435.50000000000006</ele><time>2026-04-18T13:51:20.002Z</time></trkpt><trkpt lat="43.24540827579235" lon="10.758694025942415"><ele>436.0</ele><time>2026-04-18T13:51:21.002Z</time></trkpt><trkpt lat="43.24547275812741" lon="10.75862382319432"><ele>436.00000000000006</ele><time>2026-04-18T13:51:22.002Z</time></trkpt><trkpt lat="43.24553026689293" lon="10.758560394355184"><ele>436.0</ele><time>2026-04-18T13:51:23.002Z</time></trkpt><trkpt lat="43.245584345090634" lon="10.758496650769043"><ele>436.0</ele><time>2026-04-18T13:51:24.002Z</time></trkpt><trkpt lat="43.24562668857247" lon="10.75840415721881"><ele>436.0</ele><time>2026-04-18T13:51:25.002Z</time></trkpt><trkpt lat="43.24563887803804" lon="10.758299883328897"><ele>436.00000000000006</ele><time>2026-04-18T13:51:26.002Z</time></trkpt><trkpt lat="43.245641583467126" lon="10.758197800906624"><ele>436.0</ele><time>2026-04-18T13:51:27.002Z</time></trkpt><trkpt lat="43.24564399008173" lon="10.758096719473935"><ele>438.8</ele><time>2026-04-18T13:51:28.002Z</time></trkpt><trkpt lat="43.24568838502213" lon="10.75791297798336"><ele>441.6</ele><time>2026-04-18T13:51:30.002Z</time></trkpt><trkpt lat="43.24572189488343" lon="10.75779124340027"><ele>444.4</ele><time>2026-04-18T13:51:31.002Z</time></trkpt><trkpt lat="43.2457671782825" lon="10.757675846108691"><ele>447.2</ele><time>2026-04-18T13:51:32.002Z</time></trkpt><trkpt lat="43.24581842292442" lon="10.757563026326713"><ele>450.0</ele><time>2026-04-18T13:51:33.002Z</time></trkpt><trkpt lat="43.245876529301334" lon="10.757452295612495"><ele>451.0</ele><time>2026-04-18T13:51:34.002Z</time></trkpt><trkpt lat="43.24594064757114" lon="10.7573404233184"><ele>452.0</ele><time>2026-04-18T13:51:35.002Z</time></trkpt><trkpt lat="43.246002711458864" lon="10.75723579174017"><ele>453.0</ele><time>2026-04-18T13:51:36.002Z</time></trkpt><trkpt lat="43.24607148474476" lon="10.757138082593531"><ele>454.0</ele><time>2026-04-18T13:51:37.002Z</time></trkpt><trkpt lat="43.24613924584155" lon="10.757061391242305"><ele>455.0</ele><time>2026-04-18T13:51:38.002Z</time></trkpt><trkpt lat="43.24620795898518" lon="10.75700004272393"><ele>455.0</ele><time>2026-04-18T13:51:39.002Z</time></trkpt><trkpt lat="43.24628312542414" lon="10.756957244585722"><ele>455.0</ele><time>2026-04-18T13:51:40.002Z</time></trkpt><trkpt lat="43.24636944615634" lon="10.75692385065856"><ele>455.0</ele><time>2026-04-18T13:51:41.002Z</time></trkpt><trkpt lat="43.24647099450922" lon="10.756874725551649"><ele>455.0</ele><time>2026-04-18T13:51:42.002Z</time></trkpt><trkpt lat="43.246581052857394" lon="10.756860677672288"><ele>455.0</ele><time>2026-04-18T13:51:43.002Z</time></trkpt><trkpt lat="43.24668005170177" lon="10.756828736596207"><ele>456.4</ele><time>2026-04-18T13:51:44.002Z</time></trkpt><trkpt lat="43.24677276980624" lon="10.756805043407637"><ele>457.8</ele><time>2026-04-18T13:51:45.002Z</time></trkpt><trkpt lat="43.24686600053067" lon="10.756787391367745"><ele>459.20000000000005</ele><time>2026-04-18T13:51:46.002Z</time></trkpt><trkpt lat="43.24696300618889" lon="10.756757736303488"><ele>460.6</ele><time>2026-04-18T13:51:47.002Z</time></trkpt><trkpt lat="43.24705441345276" lon="10.756704102681189"><ele>462.0</ele><time>2026-04-18T13:51:48Z</time></trkpt><trkpt lat="43.247150095782416" lon="10.75669350195429"><ele>462.0</ele><time>2026-04-18T13:51:49Z</time></trkpt><trkpt lat="43.24722897567911" lon="10.756651139518532"><ele>462.0</ele><time>2026-04-18T13:51:50Z</time></trkpt><trkpt lat="43.247281762087766" lon="10.756571827998151"><ele>462.0</ele><time>2026-04-18T13:51:51Z</time></trkpt><trkpt lat="43.24730434026509" lon="10.756484646946468"><ele>462.0</ele><time>2026-04-18T13:51:52Z</time></trkpt><trkpt lat="43.24728152398942" lon="10.756381822529075"><ele>462.0</ele><time>2026-04-18T13:51:53Z</time></trkpt><trkpt lat="43.24722967672579" lon="10.756278758487632"><ele>462.0</ele><time>2026-04-18T13:51:54Z</time></trkpt><trkpt lat="43.24717546720407" lon="10.756183201084442"><ele>462.0</ele><time>2026-04-18T13:51:55Z</time></trkpt><trkpt lat="43.24712809671398" lon="10.756090095212905"><ele>462.0</ele><time>2026-04-18T13:51:56Z</time></trkpt><trkpt lat="43.24709002847723" lon="10.756016616218968"><ele>462.0</ele><time>2026-04-18T13:51:57Z</time></trkpt><trkpt lat="43.247097016575545" lon="10.755927726541907"><ele>462.0</ele><time>2026-04-18T13:51:58Z</time></trkpt><trkpt lat="43.24713438059296" lon="10.755844493395827"><ele>462.0</ele><time>2026-04-18T13:51:59Z</time></trkpt><trkpt lat="43.247201167142855" lon="10.75578507728581"><ele>462.0</ele><time>2026-04-18T13:52:00Z</time></trkpt><trkpt lat="43.24728626521899" lon="10.755671934068449"><ele>466.25</ele><time>2026-04-18T13:52:02Z</time></trkpt><trkpt lat="43.247344453062105" lon="10.755593721410753"><ele>470.5</ele><time>2026-04-18T13:52:03Z</time></trkpt><trkpt lat="43.24744159019536" lon="10.755502978812551"><ele>474.75</ele><time>2026-04-18T13:52:04Z</time></trkpt><trkpt lat="43.24754735986952" lon="10.755394123758125"><ele>479.0</ele><time>2026-04-18T13:52:05Z</time></trkpt><trkpt lat="43.24767096662525" lon="10.755312159696857"><ele>479.0</ele><time>2026-04-18T13:52:06Z</time></trkpt><trkpt lat="43.24776204599717" lon="10.755221924525758"><ele>479.0</ele><time>2026-04-18T13:52:07Z</time></trkpt><trkpt lat="43.247814716197524" lon="10.755104425522646"><ele>479.0</ele><time>2026-04-18T13:52:08Z</time></trkpt><trkpt lat="43.24788546565915" lon="10.755006356492153"><ele>479.0</ele><time>2026-04-18T13:52:09Z</time></trkpt><trkpt lat="43.24795070937899" lon="10.754896122930116"><ele>479.0</ele><time>2026-04-18T13:52:10Z</time></trkpt><trkpt lat="43.24801437971468" lon="10.754783716939087"><ele>478.2</ele><time>2026-04-18T13:52:11Z</time></trkpt><trkpt lat="43.24806390417587" lon="10.754656618161814"><ele>477.4</ele><time>2026-04-18T13:52:12Z</time></trkpt><trkpt lat="43.248122372014706" lon="10.75454365034182"><ele>476.6</ele><time>2026-04-18T13:52:13Z</time></trkpt><trkpt lat="43.24817421124027" lon="10.75441911735113"><ele>475.8</ele><time>2026-04-18T13:52:14Z</time></trkpt><trkpt lat="43.2482151773828" lon="10.754282253572725"><ele>475.0</ele><time>2026-04-18T13:52:15Z</time></trkpt><trkpt lat="43.24824792926834" lon="10.754144803115004"><ele>474.0</ele><time>2026-04-18T13:52:16Z</time></trkpt><trkpt lat="43.24827586794802" lon="10.754003024658616"><ele>473.0</ele><time>2026-04-18T13:52:17Z</time></trkpt><trkpt lat="43.24829952247313" lon="10.75386488969442"><ele>472.0</ele><time>2026-04-18T13:52:18Z</time></trkpt><trkpt lat="43.24831904586779" lon="10.753734513828245"><ele>471.0</ele><time>2026-04-18T13:52:19Z</time></trkpt><trkpt lat="43.24834702889183" lon="10.753589094063374"><ele>470.0</ele><time>2026-04-18T13:52:20Z</time></trkpt><trkpt lat="43.24838142209085" lon="10.753473711616403"><ele>471.8333333333333</ele><time>2026-04-18T13:52:21Z</time></trkpt><trkpt lat="43.248406266001325" lon="10.753367007876166"><ele>473.66666666666663</ele><time>2026-04-18T13:52:22Z</time></trkpt><trkpt lat="43.24843841854791" lon="10.753267069589661"><ele>475.5</ele><time>2026-04-18T13:52:23Z</time></trkpt><trkpt lat="43.24846813909626" lon="10.75317323809014"><ele>477.33333333333337</ele><time>2026-04-18T13:52:24Z</time></trkpt><trkpt lat="43.24849872559284" lon="10.753082984917432"><ele>479.1666666666667</ele><time>2026-04-18T13:52:25Z</time></trkpt><trkpt lat="43.24852281949056" lon="10.752986670785853"><ele>481.0</ele><time>2026-04-18T13:52:26Z</time></trkpt><trkpt lat="43.24853563665309" lon="10.75288021747945"><ele>481.00000000000006</ele><time>2026-04-18T13:52:27Z</time></trkpt><trkpt lat="43.24854716908409" lon="10.752774456827016"><ele>481.0</ele><time>2026-04-18T13:52:28Z</time></trkpt><trkpt lat="43.2485508138978" lon="10.75266447664086"><ele>481.0</ele><time>2026-04-18T13:52:29.001Z</time></trkpt><trkpt lat="43.2485610995597" lon="10.752546568045402"><ele>481.0</ele><time>2026-04-18T13:52:30.001Z</time></trkpt><trkpt lat="43.24857616059542" lon="10.752420385799583"><ele>481.00000000000006</ele><time>2026-04-18T13:52:31.001Z</time></trkpt><trkpt lat="43.2485805012046" lon="10.752293947746072"><ele>481.0</ele><time>2026-04-18T13:52:32.001Z</time></trkpt><trkpt lat="43.24858976628232" lon="10.752174530207677"><ele>481.8</ele><time>2026-04-18T13:52:33.001Z</time></trkpt><trkpt lat="43.24859179413778" lon="10.75205528959557"><ele>482.6</ele><time>2026-04-18T13:52:34.001Z</time></trkpt><trkpt lat="43.248592102564224" lon="10.751930459064269"><ele>483.4</ele><time>2026-04-18T13:52:35.001Z</time></trkpt><trkpt lat="43.24857719539472" lon="10.751798110619841"><ele>484.2</ele><time>2026-04-18T13:52:36.001Z</time></trkpt><trkpt lat="43.24854421662237" lon="10.751669955870486"><ele>485.0</ele><time>2026-04-18T13:52:37.001Z</time></trkpt><trkpt lat="43.24851817829213" lon="10.75155335967761"><ele>484.99999999999994</ele><time>2026-04-18T13:52:38.001Z</time></trkpt><trkpt lat="43.24851108323938" lon="10.751440635632727"><ele>485.0</ele><time>2026-04-18T13:52:39.001Z</time></trkpt><trkpt lat="43.24852434405457" lon="10.751330899316013"><ele>485.0</ele><time>2026-04-18T13:52:40.001Z</time></trkpt><trkpt lat="43.248545523639365" lon="10.751216976916266"><ele>485.0</ele><time>2026-04-18T13:52:41.001Z</time></trkpt><trkpt lat="43.24857048673045" lon="10.751100704351485"><ele>484.99999999999994</ele><time>2026-04-18T13:52:42.001Z</time></trkpt><trkpt lat="43.24859868513273" lon="10.750964846119617"><ele>485.0</ele><time>2026-04-18T13:52:43.001Z</time></trkpt><trkpt lat="43.24862222920015" lon="10.750824976643305"><ele>485.0</ele><time>2026-04-18T13:52:44.001Z</time></trkpt><trkpt lat="43.24864519503781" lon="10.750684016779994"><ele>485.0</ele><time>2026-04-18T13:52:45.001Z</time></trkpt><trkpt lat="43.24866562874522" lon="10.750537886029493"><ele>485.0</ele><time>2026-04-18T13:52:46.001Z</time></trkpt><trkpt lat="43.24867562570493" lon="10.75038815340236"><ele>485.0</ele><time>2026-04-18T13:52:47.001Z</time></trkpt><trkpt lat="43.248681164041805" lon="10.75023145481249"><ele>485.0</ele><time>2026-04-18T13:52:48.001Z</time></trkpt><trkpt lat="43.24868998125135" lon="10.750079625528972"><ele>485.0</ele><time>2026-04-18T13:52:49.001Z</time></trkpt><trkpt lat="43.2486739455253" lon="10.749961273204326"><ele>485.0</ele><time>2026-04-18T13:52:50.001Z</time></trkpt><trkpt lat="43.24868378719682" lon="10.749837712354921"><ele>485.0</ele><time>2026-04-18T13:52:51.001Z</time></trkpt><trkpt lat="43.24868594010169" lon="10.749704164078707"><ele>485.0</ele><time>2026-04-18T13:52:52.001Z</time></trkpt><trkpt lat="43.24868839158502" lon="10.74958255578509"><ele>485.0</ele><time>2026-04-18T13:52:53.001Z</time></trkpt><trkpt lat="43.248675995192926" lon="10.74945757590411"><ele>485.2</ele><time>2026-04-18T13:52:54.001Z</time></trkpt><trkpt lat="43.24864875933848" lon="10.749340742205074"><ele>485.4</ele><time>2026-04-18T13:52:55.001Z</time></trkpt><trkpt lat="43.24863566647341" lon="10.749190811130614"><ele>485.6</ele><time>2026-04-18T13:52:56.001Z</time></trkpt><trkpt lat="43.24860970538278" lon="10.749042001360563"><ele>485.8</ele><time>2026-04-18T13:52:57.001Z</time></trkpt><trkpt lat="43.248580298550905" lon="10.748893095703908"><ele>486.0</ele><time>2026-04-18T13:52:58.001Z</time></trkpt><trkpt lat="43.24853431567974" lon="10.748753888597797"><ele>486.0</ele><time>2026-04-18T13:52:59.001Z</time></trkpt><trkpt lat="43.248490449331996" lon="10.748620067479429"><ele>486.0</ele><time>2026-04-18T13:53:00.001Z</time></trkpt><trkpt lat="43.24845689982126" lon="10.748491835155864"><ele>486.0</ele><time>2026-04-18T13:53:01.001Z</time></trkpt><trkpt lat="43.2484149232737" lon="10.748392616071255"><ele>486.0</ele><time>2026-04-18T13:53:02.001Z</time></trkpt><trkpt lat="43.24839213091038" lon="10.748296278423041"><ele>486.0</ele><time>2026-04-18T13:53:03.001Z</time></trkpt><trkpt lat="43.24842457111538" lon="10.74822041188547"><ele>486.0</ele><time>2026-04-18T13:53:04.001Z</time></trkpt><trkpt lat="43.2484793258833" lon="10.748169713558903"><ele>486.8</ele><time>2026-04-18T13:53:05.001Z</time></trkpt><trkpt lat="43.248548710604865" lon="10.748202797639298"><ele>487.6</ele><time>2026-04-18T13:53:06.001Z</time></trkpt><trkpt lat="43.248616715955784" lon="10.748205209429294"><ele>488.4</ele><time>2026-04-18T13:53:07.001Z</time></trkpt><trkpt lat="43.24869821988303" lon="10.748262414061369"><ele>489.2</ele><time>2026-04-18T13:53:08.001Z</time></trkpt><trkpt lat="43.24879679223672" lon="10.748328934360451"><ele>490.0</ele><time>2026-04-18T13:53:09.001Z</time></trkpt><trkpt lat="43.24888508588544" lon="10.748420288472348"><ele>490.8</ele><time>2026-04-18T13:53:10.001Z</time></trkpt><trkpt lat="43.24897185897526" lon="10.748495019180906"><ele>491.6</ele><time>2026-04-18T13:53:11.001Z</time></trkpt><trkpt lat="43.249043885721456" lon="10.74858384304176"><ele>492.4</ele><time>2026-04-18T13:53:12.001Z</time></trkpt><trkpt lat="43.249109635245986" lon="10.748651647441877"><ele>493.2</ele><time>2026-04-18T13:53:13.001Z</time></trkpt><trkpt lat="43.24920234560629" lon="10.748709341399271"><ele>494.0</ele><time>2026-04-18T13:53:14.001Z</time></trkpt><trkpt lat="43.24929619839602" lon="10.748743365799818"><ele>494.2</ele><time>2026-04-18T13:53:15.001Z</time></trkpt><trkpt lat="43.24938247822543" lon="10.748778424789196"><ele>494.4</ele><time>2026-04-18T13:53:16.001Z</time></trkpt><trkpt lat="43.24947478148605" lon="10.748799998652412"><ele>494.6</ele><time>2026-04-18T13:53:17.001Z</time></trkpt><trkpt lat="43.24957039351184" lon="10.748836514873279"><ele>494.8</ele><time>2026-04-18T13:53:18.001Z</time></trkpt><trkpt lat="43.24967618860894" lon="10.748829012370342"><ele>495.0</ele><time>2026-04-18T13:53:19.001Z</time></trkpt><trkpt lat="43.24978423852259" lon="10.748792529224763"><ele>494.4</ele><time>2026-04-18T13:53:20.001Z</time></trkpt><trkpt lat="43.249884326223" lon="10.748763291582602"><ele>493.8</ele><time>2026-04-18T13:53:21.001Z</time></trkpt><trkpt lat="43.249991401863525" lon="10.748732525177264"><ele>493.20000000000005</ele><time>2026-04-18T13:53:22.001Z</time></trkpt><trkpt lat="43.25008581353082" lon="10.748693471216066"><ele>492.6</ele><time>2026-04-18T13:53:23.002Z</time></trkpt><trkpt lat="43.25017852961067" lon="10.748641851838425"><ele>492.0</ele><time>2026-04-18T13:53:24.002Z</time></trkpt><trkpt lat="43.2502661371395" lon="10.748572073658087"><ele>492.0</ele><time>2026-04-18T13:53:25.002Z</time></trkpt><trkpt lat="43.25033807956007" lon="10.748472936664287"><ele>492.00000000000006</ele><time>2026-04-18T13:53:26.002Z</time></trkpt><trkpt lat="43.2504270397716" lon="10.748414160220621"><ele>492.00000000000006</ele><time>2026-04-18T13:53:27.002Z</time></trkpt><trkpt lat="43.250518938851044" lon="10.74836450626133"><ele>492.0</ele><time>2026-04-18T13:53:28.002Z</time></trkpt><trkpt lat="43.25058648413112" lon="10.748301652396929"><ele>492.0</ele><time>2026-04-18T13:53:29.002Z</time></trkpt><trkpt lat="43.250649407775455" lon="10.748250745798375"><ele>492.0</ele><time>2026-04-18T13:53:30.002Z</time></trkpt><trkpt lat="43.250700786594976" lon="10.748172243288298"><ele>492.0</ele><time>2026-04-18T13:53:31.002Z</time></trkpt><trkpt lat="43.25075412443376" lon="10.748102049976294"><ele>492.0</ele><time>2026-04-18T13:53:32.002Z</time></trkpt><trkpt lat="43.25079045072587" lon="10.7480148290682"><ele>492.0</ele><time>2026-04-18T13:53:33.002Z</time></trkpt><trkpt lat="43.25081745302445" lon="10.747875686499519"><ele>492.0</ele><time>2026-04-18T13:53:34.002Z</time></trkpt><trkpt lat="43.250833926269735" lon="10.747764487652729"><ele>492.0</ele><time>2026-04-18T13:53:35.002Z</time></trkpt><trkpt lat="43.250862927229356" lon="10.747651513716328"><ele>492.0</ele><time>2026-04-18T13:53:36.002Z</time></trkpt><trkpt lat="43.250902973832204" lon="10.747541660412518"><ele>492.00000000000006</ele><time>2026-04-18T13:53:37.002Z</time></trkpt><trkpt lat="43.25095102275955" lon="10.747433000977406"><ele>492.00000000000006</ele><time>2026-04-18T13:53:38.002Z</time></trkpt><trkpt lat="43.2510096471905" lon="10.747328217622195"><ele>492.0</ele><time>2026-04-18T13:53:39.002Z</time></trkpt><trkpt lat="43.25106838724621" lon="10.747236141751069"><ele>492.0</ele><time>2026-04-18T13:53:40.002Z</time></trkpt><trkpt lat="43.25113662342236" lon="10.747136358969437"><ele>492.0</ele><time>2026-04-18T13:53:41.002Z</time></trkpt><trkpt lat="43.251208322220236" lon="10.747046854901864"><ele>492.00000000000006</ele><time>2026-04-18T13:53:42.002Z</time></trkpt><trkpt lat="43.251282304402885" lon="10.746962019942154"><ele>492.00000000000006</ele><time>2026-04-18T13:53:43.002Z</time></trkpt><trkpt lat="43.25134980928385" lon="10.746866826153859"><ele>492.0</ele><time>2026-04-18T13:53:44.002Z</time></trkpt><trkpt lat="43.25141603364881" lon="10.746735987013185"><ele>492.0</ele><time>2026-04-18T13:53:45.002Z</time></trkpt><trkpt lat="43.2514623183955" lon="10.746617888062923"><ele>492.3333333333333</ele><time>2026-04-18T13:53:46.002Z</time></trkpt><trkpt lat="43.25149261255042" lon="10.746497367145965"><ele>492.66666666666663</ele><time>2026-04-18T13:53:47.002Z</time></trkpt><trkpt lat="43.25154096393891" lon="10.746400452707231"><ele>493.0</ele><time>2026-04-18T13:53:48.002Z</time></trkpt><trkpt lat="43.25160196274881" lon="10.746344588314052"><ele>493.3333333333333</ele><time>2026-04-18T13:53:49.002Z</time></trkpt><trkpt lat="43.251665966743516" lon="10.746316650653258"><ele>493.66666666666663</ele><time>2026-04-18T13:53:50.002Z</time></trkpt><trkpt lat="43.251770378791214" lon="10.7463640406083"><ele>494.0</ele><time>2026-04-18T13:53:52.002Z</time></trkpt><trkpt lat="43.25185264469362" lon="10.74653073203379"><ele>494.0</ele><time>2026-04-18T13:53:54Z</time></trkpt><trkpt lat="43.251916295298116" lon="10.746624442895598"><ele>494.0</ele><time>2026-04-18T13:53:55Z</time></trkpt><trkpt lat="43.251962020596025" lon="10.746726167721388"><ele>494.0</ele><time>2026-04-18T13:53:56Z</time></trkpt><trkpt lat="43.252014855176284" lon="10.746827015731814"><ele>494.0</ele><time>2026-04-18T13:53:57Z</time></trkpt><trkpt lat="43.25206558493065" lon="10.746925536984092"><ele>494.0</ele><time>2026-04-18T13:53:58Z</time></trkpt><trkpt lat="43.25211810036808" lon="10.747032453380115"><ele>494.79999999999995</ele><time>2026-04-18T13:53:59Z</time></trkpt><trkpt lat="43.252198891871885" lon="10.747114485401793"><ele>495.59999999999997</ele><time>2026-04-18T13:54:00Z</time></trkpt><trkpt lat="43.252285788342334" lon="10.747177910661941"><ele>496.4</ele><time>2026-04-18T13:54:01Z</time></trkpt><trkpt lat="43.25236085668337" lon="10.747223153938515"><ele>497.2</ele><time>2026-04-18T13:54:02Z</time></trkpt><trkpt lat="43.25245838690391" lon="10.74725405693976"><ele>498.0</ele><time>2026-04-18T13:54:03Z</time></trkpt><trkpt lat="43.2525565265052" lon="10.747255024238875"><ele>498.0</ele><time>2026-04-18T13:54:04Z</time></trkpt><trkpt lat="43.25266091013586" lon="10.747228364253857"><ele>497.99999999999994</ele><time>2026-04-18T13:54:05Z</time></trkpt><trkpt lat="43.25275620985729" lon="10.747205793976399"><ele>497.99999999999994</ele><time>2026-04-18T13:54:06Z</time></trkpt><trkpt lat="43.252827712416135" lon="10.747196538024575"><ele>498.0</ele><time>2026-04-18T13:54:07Z</time></trkpt><trkpt lat="43.252917610467094" lon="10.747215687788612"><ele>498.0</ele><time>2026-04-18T13:54:09Z</time></trkpt><trkpt lat="43.25299323077473" lon="10.747367188262743"><ele>498.0</ele><time>2026-04-18T13:54:11Z</time></trkpt><trkpt lat="43.253006731721314" lon="10.747502833122642"><ele>497.99999999999994</ele><time>2026-04-18T13:54:12Z</time></trkpt><trkpt lat="43.25303638477864" lon="10.747631373866497"><ele>497.99999999999994</ele><time>2026-04-18T13:54:13Z</time></trkpt><trkpt lat="43.25306849305515" lon="10.747770365028378"><ele>498.0</ele><time>2026-04-18T13:54:14Z</time></trkpt><trkpt lat="43.253095595262" lon="10.747888552385508"><ele>498.0</ele><time>2026-04-18T13:54:15Z</time></trkpt><trkpt lat="43.25313256450606" lon="10.74800319704348"><ele>495.2</ele><time>2026-04-18T13:54:16Z</time></trkpt><trkpt lat="43.25319924132778" lon="10.748110221440804"><ele>492.4</ele><time>2026-04-18T13:54:17Z</time></trkpt><trkpt lat="43.253278453718366" lon="10.748182557791136"><ele>489.59999999999997</ele><time>2026-04-18T13:54:18Z</time></trkpt><trkpt lat="43.25337786225194" lon="10.74823565019318"><ele>486.79999999999995</ele><time>2026-04-18T13:54:19Z</time></trkpt><trkpt lat="43.25348202354028" lon="10.7482558958811"><ele>484.0</ele><time>2026-04-18T13:54:20Z</time></trkpt><trkpt lat="43.253571325564394" lon="10.748299467387607"><ele>484.0</ele><time>2026-04-18T13:54:21Z</time></trkpt><trkpt lat="43.25363288605562" lon="10.748362571799136"><ele>484.0</ele><time>2026-04-18T13:54:22Z</time></trkpt><trkpt lat="43.253683632926794" lon="10.748422695824614"><ele>484.0</ele><time>2026-04-18T13:54:23Z</time></trkpt><trkpt lat="43.25373744795838" lon="10.748581058972164"><ele>484.0</ele><time>2026-04-18T13:54:25Z</time></trkpt><trkpt lat="43.25373963511579" lon="10.748706154856167"><ele>484.0</ele><time>2026-04-18T13:54:26Z</time></trkpt><trkpt lat="43.25374056360264" lon="10.74885746596601"><ele>484.2</ele><time>2026-04-18T13:54:27Z</time></trkpt><trkpt lat="43.253772364159595" lon="10.74899467383388"><ele>484.4</ele><time>2026-04-18T13:54:28Z</time></trkpt><trkpt lat="43.25380355106903" lon="10.749129015383453"><ele>484.6</ele><time>2026-04-18T13:54:29Z</time></trkpt><trkpt lat="43.25383323553356" lon="10.749243605252508"><ele>484.8</ele><time>2026-04-18T13:54:30Z</time></trkpt><trkpt lat="43.25388631309457" lon="10.74936528903709"><ele>485.0</ele><time>2026-04-18T13:54:31Z</time></trkpt><trkpt lat="43.253945843353755" lon="10.749483921837706"><ele>485.2</ele><time>2026-04-18T13:54:32Z</time></trkpt><trkpt lat="43.254027932025274" lon="10.74960220762361"><ele>485.4</ele><time>2026-04-18T13:54:33Z</time></trkpt><trkpt lat="43.25411321642347" lon="10.74969612282062"><ele>485.6</ele><time>2026-04-18T13:54:34Z</time></trkpt><trkpt lat="43.254202059647746" lon="10.749777122230604"><ele>485.8</ele><time>2026-04-18T13:54:35Z</time></trkpt><trkpt lat="43.25428624440085" lon="10.749851640781364"><ele>486.0</ele><time>2026-04-18T13:54:36Z</time></trkpt><trkpt lat="43.25438100030317" lon="10.749915986082973"><ele>486.0</ele><time>2026-04-18T13:54:37Z</time></trkpt><trkpt lat="43.254482202717504" lon="10.749962446355301"><ele>486.0</ele><time>2026-04-18T13:54:38Z</time></trkpt><trkpt lat="43.254608895437855" lon="10.7499764971628"><ele>486.0</ele><time>2026-04-18T13:54:39Z</time></trkpt><trkpt lat="43.25473640036135" lon="10.749917996450758"><ele>486.0</ele><time>2026-04-18T13:54:40.001Z</time></trkpt><trkpt lat="43.254871765155634" lon="10.749925612974833"><ele>483.8</ele><time>2026-04-18T13:54:41.001Z</time></trkpt><trkpt lat="43.254975207452915" lon="10.749994982559743"><ele>481.6</ele><time>2026-04-18T13:54:42.001Z</time></trkpt><trkpt lat="43.25508279737895" lon="10.750014277068448"><ele>479.4</ele><time>2026-04-18T13:54:43.001Z</time></trkpt><trkpt lat="43.2551801243611" lon="10.749962872130117"><ele>477.2</ele><time>2026-04-18T13:54:44.001Z</time></trkpt><trkpt lat="43.255278852041215" lon="10.749943260024999"><ele>475.0</ele><time>2026-04-18T13:54:45.001Z</time></trkpt><trkpt lat="43.25539810708407" lon="10.749899881013885"><ele>475.0</ele><time>2026-04-18T13:54:46.001Z</time></trkpt><trkpt lat="43.25547499796312" lon="10.74986611389196"><ele>475.0</ele><time>2026-04-18T13:54:47.001Z</time></trkpt><trkpt lat="43.25556984334808" lon="10.749889452764323"><ele>475.0</ele><time>2026-04-18T13:54:49.001Z</time></trkpt><trkpt lat="43.25567754366193" lon="10.750006413688936"><ele>475.0</ele><time>2026-04-18T13:54:51.001Z</time></trkpt><trkpt lat="43.25572667193688" lon="10.750151451386847"><ele>475.0</ele><time>2026-04-18T13:54:52.001Z</time></trkpt><trkpt lat="43.25580563012717" lon="10.750266587832748"><ele>474.2</ele><time>2026-04-18T13:54:53.001Z</time></trkpt><trkpt lat="43.25586896844584" lon="10.750368817257867"><ele>473.4</ele><time>2026-04-18T13:54:54.001Z</time></trkpt><trkpt lat="43.25593910346095" lon="10.75045179886591"><ele>472.6</ele><time>2026-04-18T13:54:55.001Z</time></trkpt><trkpt lat="43.25603098483664" lon="10.750507381035876"><ele>471.8</ele><time>2026-04-18T13:54:56.001Z</time></trkpt><trkpt lat="43.25613506703472" lon="10.750469834075147"><ele>471.0</ele><time>2026-04-18T13:54:57.001Z</time></trkpt><trkpt lat="43.256210387918635" lon="10.750507465601496"><ele>471.0</ele><time>2026-04-18T13:54:58.001Z</time></trkpt><trkpt lat="43.25625347262026" lon="10.750576307304922"><ele>471.0</ele><time>2026-04-18T13:54:59.001Z</time></trkpt><trkpt lat="43.25630309334018" lon="10.750674446442392"><ele>471.0</ele><time>2026-04-18T13:55:00.001Z</time></trkpt><trkpt lat="43.25636474461282" lon="10.75078599657748"><ele>471.0</ele><time>2026-04-18T13:55:01.001Z</time></trkpt><trkpt lat="43.25642520462122" lon="10.750913655208924"><ele>471.0</ele><time>2026-04-18T13:55:02.001Z</time></trkpt><trkpt lat="43.256483675240275" lon="10.751048172202017"><ele>469.0</ele><time>2026-04-18T13:55:03.001Z</time></trkpt><trkpt lat="43.25655350394962" lon="10.751183869775463"><ele>467.0</ele><time>2026-04-18T13:55:04.001Z</time></trkpt><trkpt lat="43.25662651190654" lon="10.75130392378792"><ele>465.0</ele><time>2026-04-18T13:55:05.001Z</time></trkpt><trkpt lat="43.25670398246201" lon="10.751425652475632"><ele>463.0</ele><time>2026-04-18T13:55:06.001Z</time></trkpt><trkpt lat="43.256758346810386" lon="10.751561394275617"><ele>463.0</ele><time>2026-04-18T13:55:07.001Z</time></trkpt><trkpt lat="43.25683647593201" lon="10.751656096851272"><ele>462.99999999999994</ele><time>2026-04-18T13:55:08.001Z</time></trkpt><trkpt lat="43.25690346408303" lon="10.751765450080235"><ele>462.99999999999994</ele><time>2026-04-18T13:55:09.001Z</time></trkpt><trkpt lat="43.25697753902013" lon="10.751855197399523"><ele>463.0</ele><time>2026-04-18T13:55:10.001Z</time></trkpt><trkpt lat="43.257060229857466" lon="10.751937524473753"><ele>463.0</ele><time>2026-04-18T13:55:11.001Z</time></trkpt><trkpt lat="43.25715023764717" lon="10.752008399003465"><ele>462.59999999999997</ele><time>2026-04-18T13:55:12.001Z</time></trkpt><trkpt lat="43.25724077759313" lon="10.752093543195858"><ele>462.19999999999993</ele><time>2026-04-18T13:55:13.001Z</time></trkpt><trkpt lat="43.2573456343329" lon="10.752177418851325"><ele>461.8</ele><time>2026-04-18T13:55:14.001Z</time></trkpt><trkpt lat="43.257442562982625" lon="10.752251301174079"><ele>461.4</ele><time>2026-04-18T13:55:15.001Z</time></trkpt><trkpt lat="43.25754125815104" lon="10.752306786702881"><ele>461.0</ele><time>2026-04-18T13:55:16.001Z</time></trkpt><trkpt lat="43.25762048449053" lon="10.752376878640945"><ele>460.99999999999994</ele><time>2026-04-18T13:55:17.001Z</time></trkpt><trkpt lat="43.257702798737604" lon="10.75242459648915"><ele>461.0</ele><time>2026-04-18T13:55:18.001Z</time></trkpt><trkpt lat="43.25778702514091" lon="10.752452532262195"><ele>461.0</ele><time>2026-04-18T13:55:19.001Z</time></trkpt><trkpt lat="43.25787277465401" lon="10.75245683001543"><ele>461.0</ele><time>2026-04-18T13:55:20.001Z</time></trkpt><trkpt lat="43.25796015057289" lon="10.752439500621088"><ele>460.99999999999994</ele><time>2026-04-18T13:55:21.001Z</time></trkpt><trkpt lat="43.258058119897996" lon="10.752427941355252"><ele>461.0</ele><time>2026-04-18T13:55:22.001Z</time></trkpt><trkpt lat="43.258181326834254" lon="10.752434473731121"><ele>462.0</ele><time>2026-04-18T13:55:23.001Z</time></trkpt><trkpt lat="43.25829080975383" lon="10.752393676178526"><ele>463.0</ele><time>2026-04-18T13:55:24.001Z</time></trkpt><trkpt lat="43.258397717781754" lon="10.752365917164676"><ele>464.0</ele><time>2026-04-18T13:55:25.001Z</time></trkpt><trkpt lat="43.25849879012507" lon="10.75232746879753"><ele>465.0</ele><time>2026-04-18T13:55:26.001Z</time></trkpt><trkpt lat="43.25860556530595" lon="10.752266928724298"><ele>466.0</ele><time>2026-04-18T13:55:27.001Z</time></trkpt><trkpt lat="43.258726238554104" lon="10.752196205124939"><ele>466.0</ele><time>2026-04-18T13:55:28.001Z</time></trkpt><trkpt lat="43.25882089301154" lon="10.752132769529513"><ele>466.0</ele><time>2026-04-18T13:55:29.001Z</time></trkpt><trkpt lat="43.25892399213994" lon="10.752067943476769"><ele>466.0</ele><time>2026-04-18T13:55:30.001Z</time></trkpt><trkpt lat="43.25901952651077" lon="10.75201019479106"><ele>466.0</ele><time>2026-04-18T13:55:31.001Z</time></trkpt><trkpt lat="43.25913178234373" lon="10.751985560985107"><ele>466.0</ele><time>2026-04-18T13:55:32.002Z</time></trkpt><trkpt lat="43.25923939492206" lon="10.752001912702944"><ele>465.8</ele><time>2026-04-18T13:55:33.002Z</time></trkpt><trkpt lat="43.259357612317324" lon="10.752037589799599"><ele>465.6</ele><time>2026-04-18T13:55:34.002Z</time></trkpt><trkpt lat="43.25947126153991" lon="10.752064564193075"><ele>465.4</ele><time>2026-04-18T13:55:35.002Z</time></trkpt><trkpt lat="43.25955441211374" lon="10.752089073610138"><ele>465.2</ele><time>2026-04-18T13:55:36.002Z</time></trkpt><trkpt lat="43.25962021302568" lon="10.752109001700385"><ele>465.0</ele><time>2026-04-18T13:55:37.002Z</time></trkpt><trkpt lat="43.259675895372304" lon="10.752168650288393"><ele>465.0</ele><time>2026-04-18T13:55:38.002Z</time></trkpt><trkpt lat="43.25971148465981" lon="10.752243038109592"><ele>465.0</ele><time>2026-04-18T13:55:39.002Z</time></trkpt><trkpt lat="43.25969487529434" lon="10.752356381076993"><ele>465.0</ele><time>2026-04-18T13:55:40.002Z</time></trkpt><trkpt lat="43.25965479890057" lon="10.752474273546172"><ele>465.0</ele><time>2026-04-18T13:55:41.002Z</time></trkpt><trkpt lat="43.259617716216006" lon="10.752607303209107"><ele>465.0</ele><time>2026-04-18T13:55:42.002Z</time></trkpt><trkpt lat="43.25957613520108" lon="10.752756221110324"><ele>463.0</ele><time>2026-04-18T13:55:43.002Z</time></trkpt><trkpt lat="43.25950012298141" lon="10.752880730396987"><ele>461.0</ele><time>2026-04-18T13:55:44.002Z</time></trkpt><trkpt lat="43.259472749623384" lon="10.753012023185216"><ele>459.0</ele><time>2026-04-18T13:55:45.002Z</time></trkpt><trkpt lat="43.259466380275846" lon="10.753114397476708"><ele>457.0</ele><time>2026-04-18T13:55:46.002Z</time></trkpt><trkpt lat="43.259461315144456" lon="10.753227918955922"><ele>455.0</ele><time>2026-04-18T13:55:47.002Z</time></trkpt><trkpt lat="43.259471017105206" lon="10.753332491613397"><ele>455.0</ele><time>2026-04-18T13:55:48.002Z</time></trkpt><trkpt lat="43.25950364743996" lon="10.75342082604547"><ele>455.0</ele><time>2026-04-18T13:55:49.002Z</time></trkpt><trkpt lat="43.25953431699166" lon="10.753510042178158"><ele>455.0</ele><time>2026-04-18T13:55:50.002Z</time></trkpt><trkpt lat="43.25960894072153" lon="10.75360412890747"><ele>455.0</ele><time>2026-04-18T13:55:51.002Z</time></trkpt><trkpt lat="43.25968164469254" lon="10.753714612013445"><ele>455.0</ele><time>2026-04-18T13:55:52.002Z</time></trkpt><trkpt lat="43.25975050942413" lon="10.753816248247729"><ele>455.6</ele><time>2026-04-18T13:55:53.002Z</time></trkpt><trkpt lat="43.25981733087551" lon="10.753910208428556"><ele>456.2</ele><time>2026-04-18T13:55:54.002Z</time></trkpt><trkpt lat="43.25989410749426" lon="10.753983089532932"><ele>456.79999999999995</ele><time>2026-04-18T13:55:55.002Z</time></trkpt><trkpt lat="43.25998366418142" lon="10.754036305048832"><ele>457.4</ele><time>2026-04-18T13:55:56.002Z</time></trkpt><trkpt lat="43.26007848938434" lon="10.754083556288142"><ele>458.0</ele><time>2026-04-18T13:55:57.002Z</time></trkpt><trkpt lat="43.26017118347829" lon="10.754125577799183"><ele>458.0</ele><time>2026-04-18T13:55:58.002Z</time></trkpt><trkpt lat="43.26026509697123" lon="10.754158819902205"><ele>457.99999999999994</ele><time>2026-04-18T13:55:59.002Z</time></trkpt><trkpt lat="43.260350781029345" lon="10.754210056180545"><ele>457.99999999999994</ele><time>2026-04-18T13:56:00Z</time></trkpt><trkpt lat="43.26045140743802" lon="10.754215733418665"><ele>458.0</ele><time>2026-04-18T13:56:01Z</time></trkpt><trkpt lat="43.26054421166302" lon="10.754200484926207"><ele>458.0</ele><time>2026-04-18T13:56:02Z</time></trkpt><trkpt lat="43.26063339057191" lon="10.75417123619586"><ele>457.99999999999994</ele><time>2026-04-18T13:56:03Z</time></trkpt><trkpt lat="43.26072343118597" lon="10.7541253099369"><ele>458.0</ele><time>2026-04-18T13:56:04Z</time></trkpt><trkpt lat="43.26079330844418" lon="10.754052450881792"><ele>458.0</ele><time>2026-04-18T13:56:05Z</time></trkpt><trkpt lat="43.26086404716414" lon="10.754009023851006"><ele>458.0</ele><time>2026-04-18T13:56:06Z</time></trkpt><trkpt lat="43.26092207695279" lon="10.753946113331285"><ele>457.99999999999994</ele><time>2026-04-18T13:56:07Z</time></trkpt><trkpt lat="43.260963332238006" lon="10.753862459489405"><ele>458.0</ele><time>2026-04-18T13:56:08Z</time></trkpt><trkpt lat="43.260993629467734" lon="10.75374463721334"><ele>458.0</ele><time>2026-04-18T13:56:09Z</time></trkpt><trkpt lat="43.26103632528224" lon="10.753679878161536"><ele>457.99999999999994</ele><time>2026-04-18T13:56:10Z</time></trkpt><trkpt lat="43.261150512276096" lon="10.75360949569338"><ele>457.99999999999994</ele><time>2026-04-18T13:56:12Z</time></trkpt><trkpt lat="43.26128473035087" lon="10.753583251863933"><ele>458.0</ele><time>2026-04-18T13:56:14Z</time></trkpt><trkpt lat="43.26135198847028" lon="10.753559910407036"><ele>458.0</ele><time>2026-04-18T13:56:15Z</time></trkpt><trkpt lat="43.26141385194015" lon="10.753496842357297"><ele>459.3333333333333</ele><time>2026-04-18T13:56:16Z</time></trkpt><trkpt lat="43.26146599222674" lon="10.75342587988002"><ele>460.66666666666663</ele><time>2026-04-18T13:56:17Z</time></trkpt><trkpt lat="43.26152619947185" lon="10.753354907725557"><ele>462.0</ele><time>2026-04-18T13:56:18Z</time></trkpt><trkpt lat="43.261595421301706" lon="10.753271597338992"><ele>463.33333333333337</ele><time>2026-04-18T13:56:19Z</time></trkpt><trkpt lat="43.26165221621354" lon="10.753201310718433"><ele>464.6666666666667</ele><time>2026-04-18T13:56:20Z</time></trkpt><trkpt lat="43.26170516614395" lon="10.753136362834773"><ele>466.0</ele><time>2026-04-18T13:56:21Z</time></trkpt><trkpt lat="43.26176526341557" lon="10.753110125085925"><ele>466.0</ele><time>2026-04-18T13:56:22Z</time></trkpt><trkpt lat="43.26183738599742" lon="10.753086401285007"><ele>466.0</ele><time>2026-04-18T13:56:23Z</time></trkpt><trkpt lat="43.26190747097518" lon="10.753073214345436"><ele>466.0</ele><time>2026-04-18T13:56:24Z</time></trkpt><trkpt lat="43.26197032402031" lon="10.753106175930698"><ele>466.0</ele><time>2026-04-18T13:56:25Z</time></trkpt><trkpt lat="43.262033051396415" lon="10.75315805284377"><ele>466.0</ele><time>2026-04-18T13:56:26Z</time></trkpt><trkpt lat="43.26209426020227" lon="10.753235172670932"><ele>466.0</ele><time>2026-04-18T13:56:27Z</time></trkpt><trkpt lat="43.26216493902689" lon="10.75326271094623"><ele>466.0</ele><time>2026-04-18T13:56:28Z</time></trkpt><trkpt lat="43.26222887488809" lon="10.753310571464024"><ele>465.00000000000006</ele><time>2026-04-18T13:56:29Z</time></trkpt><trkpt lat="43.262301345689124" lon="10.753345854334409"><ele>464.0</ele><time>2026-04-18T13:56:30Z</time></trkpt><trkpt lat="43.26236684700425" lon="10.753322077452655"><ele>463.0</ele><time>2026-04-18T13:56:31Z</time></trkpt><trkpt lat="43.262445896429135" lon="10.753268740346039"><ele>462.0</ele><time>2026-04-18T13:56:32Z</time></trkpt><trkpt lat="43.26252730046929" lon="10.753185335367228"><ele>461.00000000000006</ele><time>2026-04-18T13:56:33Z</time></trkpt><trkpt lat="43.26259485319687" lon="10.753179323717877"><ele>460.0</ele><time>2026-04-18T13:56:34Z</time></trkpt><trkpt lat="43.262670753411264" lon="10.753225804859515"><ele>460.0</ele><time>2026-04-18T13:56:35Z</time></trkpt><trkpt lat="43.26274886951548" lon="10.75330254419551"><ele>460.0</ele><time>2026-04-18T13:56:36Z</time></trkpt><trkpt lat="43.26282456744494" lon="10.753390001952399"><ele>460.0</ele><time>2026-04-18T13:56:37Z</time></trkpt><trkpt lat="43.262909144479124" lon="10.753464637806033"><ele>460.0</ele><time>2026-04-18T13:56:38Z</time></trkpt><trkpt lat="43.26300982099204" lon="10.75350781645019"><ele>460.0</ele><time>2026-04-18T13:56:39Z</time></trkpt><trkpt lat="43.263118825218335" lon="10.753567350625111"><ele>457.2</ele><time>2026-04-18T13:56:40Z</time></trkpt><trkpt lat="43.263247036126764" lon="10.753586808545876"><ele>454.4</ele><time>2026-04-18T13:56:41Z</time></trkpt><trkpt lat="43.263356501838494" lon="10.75357778829524"><ele>451.6</ele><time>2026-04-18T13:56:42Z</time></trkpt><trkpt lat="43.26343243323113" lon="10.753610507255019"><ele>448.8</ele><time>2026-04-18T13:56:43.001Z</time></trkpt><trkpt lat="43.26353138517655" lon="10.753632851797839"><ele>446.0</ele><time>2026-04-18T13:56:45.001Z</time></trkpt><trkpt lat="43.263608454922135" lon="10.753809216483441"><ele>445.99999999999994</ele><time>2026-04-18T13:56:48.001Z</time></trkpt><trkpt lat="43.263659426048584" lon="10.75395915405372"><ele>446.0</ele><time>2026-04-18T13:56:50.001Z</time></trkpt><trkpt lat="43.26368608968156" lon="10.754051973993418"><ele>446.0</ele><time>2026-04-18T13:56:51.001Z</time></trkpt><trkpt lat="43.26371547619884" lon="10.754157560498223"><ele>446.0</ele><time>2026-04-18T13:56:52.001Z</time></trkpt><trkpt lat="43.26374416794234" lon="10.754269600412519"><ele>445.99999999999994</ele><time>2026-04-18T13:56:53.001Z</time></trkpt><trkpt lat="43.26377426920287" lon="10.754375056096022"><ele>446.0</ele><time>2026-04-18T13:56:54.001Z</time></trkpt><trkpt lat="43.263812740872396" lon="10.754485169560462"><ele>447.3333333333333</ele><time>2026-04-18T13:56:55.001Z</time></trkpt><trkpt lat="43.26385979794552" lon="10.754584236652182"><ele>448.66666666666663</ele><time>2026-04-18T13:56:56.001Z</time></trkpt><trkpt lat="43.2639043958559" lon="10.75467851813848"><ele>450.0</ele><time>2026-04-18T13:56:57.001Z</time></trkpt><trkpt lat="43.26395422273758" lon="10.754754427069807"><ele>451.33333333333337</ele><time>2026-04-18T13:56:58.001Z</time></trkpt><trkpt lat="43.26402176246833" lon="10.75481243230969"><ele>452.6666666666667</ele><time>2026-04-18T13:56:59.001Z</time></trkpt><trkpt lat="43.264096782530046" lon="10.754852263027155"><ele>454.0</ele><time>2026-04-18T13:57:00.001Z</time></trkpt><trkpt lat="43.264172767606695" lon="10.754884040218487"><ele>454.0</ele><time>2026-04-18T13:57:01.001Z</time></trkpt><trkpt lat="43.26426069600056" lon="10.754904088819917"><ele>454.0</ele><time>2026-04-18T13:57:02.001Z</time></trkpt><trkpt lat="43.264354576253304" lon="10.754940224956753"><ele>454.0</ele><time>2026-04-18T13:57:03.001Z</time></trkpt><trkpt lat="43.26445130914133" lon="10.75492285478358"><ele>454.0</ele><time>2026-04-18T13:57:04.001Z</time></trkpt><trkpt lat="43.26453861277675" lon="10.754935383236225"><ele>454.0</ele><time>2026-04-18T13:57:05.001Z</time></trkpt><trkpt lat="43.26463011580273" lon="10.754974972444987"><ele>454.0</ele><time>2026-04-18T13:57:06.001Z</time></trkpt><trkpt lat="43.264717747834624" lon="10.755030027396877"><ele>454.0</ele><time>2026-04-18T13:57:07.001Z</time></trkpt><trkpt lat="43.26481156081189" lon="10.755083934276243"><ele>454.0</ele><time>2026-04-18T13:57:08.001Z</time></trkpt><trkpt lat="43.26489896069005" lon="10.755119825675905"><ele>454.0</ele><time>2026-04-18T13:57:09.001Z</time></trkpt><trkpt lat="43.26498944235159" lon="10.755138334563961"><ele>454.0</ele><time>2026-04-18T13:57:10.001Z</time></trkpt><trkpt lat="43.265073784740004" lon="10.755143860695508"><ele>455.50000000000006</ele><time>2026-04-18T13:57:11.001Z</time></trkpt><trkpt lat="43.26516740994796" lon="10.75513733849255"><ele>457.0</ele><time>2026-04-18T13:57:12.001Z</time></trkpt><trkpt lat="43.26525580190733" lon="10.755114363145735"><ele>458.5</ele><time>2026-04-18T13:57:13.001Z</time></trkpt><trkpt lat="43.265334745516725" lon="10.755075890279127"><ele>460.0</ele><time>2026-04-18T13:57:14.001Z</time></trkpt><trkpt lat="43.26541682949628" lon="10.755063508423655"><ele>461.50000000000006</ele><time>2026-04-18T13:57:15.001Z</time></trkpt><trkpt lat="43.265492796645916" lon="10.755025478908244"><ele>463.0</ele><time>2026-04-18T13:57:16.001Z</time></trkpt><trkpt lat="43.26557287492496" lon="10.755010414738654"><ele>461.00000000000006</ele><time>2026-04-18T13:57:17.001Z</time></trkpt><trkpt lat="43.265661939938035" lon="10.755010982468502"><ele>459.0</ele><time>2026-04-18T13:57:18.001Z</time></trkpt><trkpt lat="43.265749550515785" lon="10.755018399127863"><ele>457.0</ele><time>2026-04-18T13:57:19.001Z</time></trkpt><trkpt lat="43.26581924119434" lon="10.755029769484608"><ele>455.0</ele><time>2026-04-18T13:57:20.001Z</time></trkpt><trkpt lat="43.26590741370539" lon="10.754987958049332"><ele>453.00000000000006</ele><time>2026-04-18T13:57:21.001Z</time></trkpt><trkpt lat="43.26598456914886" lon="10.75495042346735"><ele>451.0</ele><time>2026-04-18T13:57:22.001Z</time></trkpt><trkpt lat="43.26605046187848" lon="10.754912896162507"><ele>451.0</ele><time>2026-04-18T13:57:23.001Z</time></trkpt><trkpt lat="43.26613074281152" lon="10.754895735041739"><ele>451.0</ele><time>2026-04-18T13:57:24.001Z</time></trkpt><trkpt lat="43.266228834169794" lon="10.754884300335961"><ele>451.0</ele><time>2026-04-18T13:57:25.001Z</time></trkpt><trkpt lat="43.26632428769141" lon="10.754895489948312"><ele>451.0</ele><time>2026-04-18T13:57:26.001Z</time></trkpt><trkpt lat="43.26641605188706" lon="10.754933998066125"><ele>451.0</ele><time>2026-04-18T13:57:27.001Z</time></trkpt><trkpt lat="43.26649575226588" lon="10.754985923247665"><ele>449.20000000000005</ele><time>2026-04-18T13:57:28.001Z</time></trkpt><trkpt lat="43.26657845779067" lon="10.755050827044627"><ele>447.40000000000003</ele><time>2026-04-18T13:57:29.001Z</time></trkpt><trkpt lat="43.26665728254432" lon="10.755115804532144"><ele>445.6</ele><time>2026-04-18T13:57:30.001Z</time></trkpt><trkpt lat="43.26672641455294" lon="10.755197125823905"><ele>443.8</ele><time>2026-04-18T13:57:31.001Z</time></trkpt><trkpt lat="43.26681385187183" lon="10.755241366537971"><ele>442.0</ele><time>2026-04-18T13:57:32.001Z</time></trkpt><trkpt lat="43.26688350271781" lon="10.755296635218407"><ele>442.00000000000006</ele><time>2026-04-18T13:57:33.001Z</time></trkpt><trkpt lat="43.266959947143405" lon="10.75534262500373"><ele>442.0</ele><time>2026-04-18T13:57:34.001Z</time></trkpt><trkpt lat="43.267039748677455" lon="10.755383847819905"><ele>442.0</ele><time>2026-04-18T13:57:35.001Z</time></trkpt><trkpt lat="43.26711986082653" lon="10.755417290535556"><ele>442.0</ele><time>2026-04-18T13:57:36.002Z</time></trkpt><trkpt lat="43.26720007180007" lon="10.755451120231749"><ele>442.00000000000006</ele><time>2026-04-18T13:57:37.002Z</time></trkpt><trkpt lat="43.267279880198636" lon="10.75547136355892"><ele>442.0</ele><time>2026-04-18T13:57:38.002Z</time></trkpt><trkpt lat="43.26735734465542" lon="10.75547403327148"><ele>442.00000000000006</ele><time>2026-04-18T13:57:39.002Z</time></trkpt><trkpt lat="43.26743651745163" lon="10.755456938982297"><ele>442.0</ele><time>2026-04-18T13:57:40.002Z</time></trkpt><trkpt lat="43.26751748420797" lon="10.755431066881123"><ele>442.0</ele><time>2026-04-18T13:57:41.002Z</time></trkpt><trkpt lat="43.267594458905975" lon="10.755387371279859"><ele>442.0</ele><time>2026-04-18T13:57:42.002Z</time></trkpt><trkpt lat="43.26766911680698" lon="10.755328319160316"><ele>442.00000000000006</ele><time>2026-04-18T13:57:43.002Z</time></trkpt><trkpt lat="43.267738391262135" lon="10.755260415820604"><ele>442.0</ele><time>2026-04-18T13:57:44.002Z</time></trkpt><trkpt lat="43.26779965775942" lon="10.755179546876173"><ele>442.1666666666667</ele><time>2026-04-18T13:57:45.002Z</time></trkpt><trkpt lat="43.267856496979554" lon="10.755100476398107"><ele>442.33333333333337</ele><time>2026-04-18T13:57:46.002Z</time></trkpt><trkpt lat="43.26792334016302" lon="10.7550510369266"><ele>442.5</ele><time>2026-04-18T13:57:47.002Z</time></trkpt><trkpt lat="43.267981597478176" lon="10.755005600183294"><ele>442.66666666666663</ele><time>2026-04-18T13:57:48.002Z</time></trkpt><trkpt lat="43.268045953128855" lon="10.75502852112666"><ele>442.8333333333333</ele><time>2026-04-18T13:57:49.002Z</time></trkpt><trkpt lat="43.26814119937169" lon="10.755143999528027"><ele>443.0</ele><time>2026-04-18T13:57:51.002Z</time></trkpt><trkpt lat="43.268179678758" lon="10.755223661676174"><ele>442.99999999999994</ele><time>2026-04-18T13:57:52.002Z</time></trkpt><trkpt lat="43.268223883928755" lon="10.755312624453417"><ele>443.0</ele><time>2026-04-18T13:57:53.002Z</time></trkpt><trkpt lat="43.268268859631426" lon="10.755403138047518"><ele>443.0</ele><time>2026-04-18T13:57:54.002Z</time></trkpt><trkpt lat="43.268321048158036" lon="10.755501751664715"><ele>443.0</ele><time>2026-04-18T13:57:55.002Z</time></trkpt><trkpt lat="43.26839538486786" lon="10.755573808242065"><ele>442.99999999999994</ele><time>2026-04-18T13:57:56.002Z</time></trkpt><trkpt lat="43.2684624076158" lon="10.755658309975358"><ele>443.0</ele><time>2026-04-18T13:57:57.002Z</time></trkpt><trkpt lat="43.2685307313064" lon="10.755733555222829"><ele>443.0</ele><time>2026-04-18T13:57:58.002Z</time></trkpt><trkpt lat="43.268599516163235" lon="10.755816698734114"><ele>442.99999999999994</ele><time>2026-04-18T13:57:59.002Z</time></trkpt><trkpt lat="43.26867570164869" lon="10.755904170433576"><ele>442.99999999999994</ele><time>2026-04-18T13:58:00.002Z</time></trkpt><trkpt lat="43.26875445731498" lon="10.755994054946038"><ele>443.0</ele><time>2026-04-18T13:58:01.002Z</time></trkpt><trkpt lat="43.26884051707429" lon="10.756091862663821"><ele>443.0</ele><time>2026-04-18T13:58:02.002Z</time></trkpt><trkpt lat="43.268918426015624" lon="10.756177935641128"><ele>442.4</ele><time>2026-04-18T13:58:03.002Z</time></trkpt><trkpt lat="43.269000218697656" lon="10.756269141758636"><ele>441.79999999999995</ele><time>2026-04-18T13:58:04.002Z</time></trkpt><trkpt lat="43.26907140808974" lon="10.756367848193575"><ele>441.2</ele><time>2026-04-18T13:58:05.002Z</time></trkpt><trkpt lat="43.2691650671224" lon="10.756446940206393"><ele>440.6</ele><time>2026-04-18T13:58:06Z</time></trkpt><trkpt lat="43.26925698411448" lon="10.756515753400002"><ele>440.0</ele><time>2026-04-18T13:58:07Z</time></trkpt><trkpt lat="43.269346618101096" lon="10.756587738523676"><ele>440.0</ele><time>2026-04-18T13:58:08Z</time></trkpt><trkpt lat="43.26944805501542" lon="10.756642423904054"><ele>440.0</ele><time>2026-04-18T13:58:09Z</time></trkpt><trkpt lat="43.2695348603083" lon="10.756712037312518"><ele>440.0</ele><time>2026-04-18T13:58:10Z</time></trkpt><trkpt lat="43.26962441773051" lon="10.756766794540496"><ele>440.0</ele><time>2026-04-18T13:58:11Z</time></trkpt><trkpt lat="43.26971403169331" lon="10.75680880001628"><ele>440.0</ele><time>2026-04-18T13:58:12Z</time></trkpt><trkpt lat="43.2698048820417" lon="10.756834385178148"><ele>440.2</ele><time>2026-04-18T13:58:13Z</time></trkpt><trkpt lat="43.26989856587997" lon="10.756846620881628"><ele>440.4</ele><time>2026-04-18T13:58:14Z</time></trkpt><trkpt lat="43.26999308012632" lon="10.756844091738094"><ele>440.6</ele><time>2026-04-18T13:58:15Z</time></trkpt><trkpt lat="43.270085309499976" lon="10.75686825334316"><ele>440.8</ele><time>2026-04-18T13:58:16Z</time></trkpt><trkpt lat="43.270175287565806" lon="10.756879477172305"><ele>441.0</ele><time>2026-04-18T13:58:17Z</time></trkpt><trkpt lat="43.270265592396655" lon="10.756899988661877"><ele>441.0</ele><time>2026-04-18T13:58:18Z</time></trkpt><trkpt lat="43.27034882837567" lon="10.756927557111268"><ele>441.0</ele><time>2026-04-18T13:58:19Z</time></trkpt><trkpt lat="43.27042645173138" lon="10.756961015949225"><ele>441.0</ele><time>2026-04-18T13:58:20Z</time></trkpt><trkpt lat="43.27050484961819" lon="10.75700268540771"><ele>441.0</ele><time>2026-04-18T13:58:21Z</time></trkpt><trkpt lat="43.270590491473534" lon="10.757034416950441"><ele>441.0</ele><time>2026-04-18T13:58:22Z</time></trkpt><trkpt lat="43.27066636655283" lon="10.757090788108293"><ele>441.0</ele><time>2026-04-18T13:58:23Z</time></trkpt><trkpt lat="43.27072250625458" lon="10.75717929002263"><ele>442.7142857142857</ele><time>2026-04-18T13:58:24Z</time></trkpt><trkpt lat="43.270773935951304" lon="10.757255817517764"><ele>444.42857142857144</ele><time>2026-04-18T13:58:25Z</time></trkpt><trkpt lat="43.270794954531794" lon="10.757347210687877"><ele>446.1428571428571</ele><time>2026-04-18T13:58:26Z</time></trkpt><trkpt lat="43.270776162499146" lon="10.757440116742243"><ele>447.85714285714283</ele><time>2026-04-18T13:58:27Z</time></trkpt><trkpt lat="43.270784322115304" lon="10.757532115661471"><ele>449.57142857142856</ele><time>2026-04-18T13:58:28Z</time></trkpt><trkpt lat="43.27077394754877" lon="10.75762244213226"><ele>451.2857142857142</ele><time>2026-04-18T13:58:29Z</time></trkpt><trkpt lat="43.27076719198965" lon="10.75771402986791"><ele>452.99999999999994</ele><time>2026-04-18T13:58:30Z</time></trkpt><trkpt lat="43.27076882454319" lon="10.75780263217147"><ele>453.5</ele><time>2026-04-18T13:58:31Z</time></trkpt><trkpt lat="43.270798904406746" lon="10.75797284428601"><ele>454.0</ele><time>2026-04-18T13:58:33Z</time></trkpt><trkpt lat="43.27086337091202" lon="10.758123671544942"><ele>454.5</ele><time>2026-04-18T13:58:35Z</time></trkpt><trkpt lat="43.27091023314683" lon="10.75818392517866"><ele>455.0</ele><time>2026-04-18T13:58:36Z</time></trkpt><trkpt lat="43.27092069121522" lon="10.75827231305987"><ele>455.5</ele><time>2026-04-18T13:58:37Z</time></trkpt><trkpt lat="43.27093565426076" lon="10.758357811954086"><ele>456.0</ele><time>2026-04-18T13:58:38Z</time></trkpt><trkpt lat="43.2709195315983" lon="10.758519073905171"><ele>456.6666666666667</ele><time>2026-04-18T13:58:40Z</time></trkpt><trkpt lat="43.27089423384061" lon="10.758686330011486"><ele>457.33333333333337</ele><time>2026-04-18T13:58:42Z</time></trkpt><trkpt lat="43.270896214879386" lon="10.758782706045828"><ele>458.0</ele><time>2026-04-18T13:58:43Z</time></trkpt><trkpt lat="43.27087713414861" lon="10.758871199123757"><ele>458.6666666666667</ele><time>2026-04-18T13:58:44Z</time></trkpt><trkpt lat="43.27086195973256" lon="10.758961844195483"><ele>459.33333333333337</ele><time>2026-04-18T13:58:45Z</time></trkpt><trkpt lat="43.27084066169473" lon="10.7590522135426"><ele>460.0</ele><time>2026-04-18T13:58:46Z</time></trkpt><trkpt lat="43.270813078824105" lon="10.759137939197743"><ele>460.00000000000006</ele><time>2026-04-18T13:58:47Z</time></trkpt><trkpt lat="43.270763765380394" lon="10.759219888425367"><ele>460.0</ele><time>2026-04-18T13:58:48Z</time></trkpt><trkpt lat="43.27075337658026" lon="10.759323079384615"><ele>460.0</ele><time>2026-04-18T13:58:49.001Z</time></trkpt><trkpt lat="43.2707370406015" lon="10.759423112088069"><ele>460.0</ele><time>2026-04-18T13:58:50.001Z</time></trkpt><trkpt lat="43.270770370012954" lon="10.759546024452247"><ele>460.00000000000006</ele><time>2026-04-18T13:58:51.001Z</time></trkpt><trkpt lat="43.2708131722216" lon="10.75968160782305"><ele>460.0</ele><time>2026-04-18T13:58:52.001Z</time></trkpt><trkpt lat="43.27083914791548" lon="10.759844119187191"><ele>460.25</ele><time>2026-04-18T13:58:53.001Z</time></trkpt><trkpt lat="43.27082548928394" lon="10.760015460049146"><ele>460.5</ele><time>2026-04-18T13:58:54.001Z</time></trkpt><trkpt lat="43.270789419149295" lon="10.760208991408067"><ele>460.75</ele><time>2026-04-18T13:58:55.001Z</time></trkpt><trkpt lat="43.2707733476498" lon="10.760407603135402"><ele>461.0</ele><time>2026-04-18T13:58:56.001Z</time></trkpt><trkpt lat="43.27077347579821" lon="10.760604808549388"><ele>461.0</ele><time>2026-04-18T13:58:57.001Z</time></trkpt><trkpt lat="43.2707870408816" lon="10.76078248098679"><ele>461.0</ele><time>2026-04-18T13:58:58.001Z</time></trkpt><trkpt lat="43.27077668355616" lon="10.760929339584395"><ele>461.0</ele><time>2026-04-18T13:58:59.001Z</time></trkpt><trkpt lat="43.2707659622339" lon="10.761033811041647"><ele>461.0</ele><time>2026-04-18T13:59:00.001Z</time></trkpt><trkpt lat="43.270778841987074" lon="10.76112059318868"><ele>461.0</ele><time>2026-04-18T13:59:01.001Z</time></trkpt><trkpt lat="43.270823884463326" lon="10.761203987106207"><ele>461.0</ele><time>2026-04-18T13:59:02.001Z</time></trkpt><trkpt lat="43.2708912806595" lon="10.761261340522672"><ele>461.0</ele><time>2026-04-18T13:59:03.001Z</time></trkpt><trkpt lat="43.270973747731574" lon="10.761292101931222"><ele>461.0</ele><time>2026-04-18T13:59:04.001Z</time></trkpt><trkpt lat="43.27106699940283" lon="10.761321145606065"><ele>461.0</ele><time>2026-04-18T13:59:05.001Z</time></trkpt><trkpt lat="43.27117734654112" lon="10.761314278106546"><ele>461.0</ele><time>2026-04-18T13:59:06.001Z</time></trkpt><trkpt lat="43.27129095185324" lon="10.761331595252935"><ele>460.99999999999994</ele><time>2026-04-18T13:59:07.001Z</time></trkpt><trkpt lat="43.27139455471534" lon="10.761300584681264"><ele>461.0</ele><time>2026-04-18T13:59:08.001Z</time></trkpt><trkpt lat="43.2714887327719" lon="10.761278263696239"><ele>461.0</ele><time>2026-04-18T13:59:09.001Z</time></trkpt><trkpt lat="43.27157024035519" lon="10.761236739033901"><ele>461.0</ele><time>2026-04-18T13:59:10.001Z</time></trkpt><trkpt lat="43.27163336611884" lon="10.761165100732917"><ele>460.99999999999994</ele><time>2026-04-18T13:59:11.001Z</time></trkpt><trkpt lat="43.271667914412355" lon="10.761080669599634"><ele>461.0</ele><time>2026-04-18T13:59:12.001Z</time></trkpt><trkpt lat="43.27170933480021" lon="10.760989553982961"><ele>463.3333333333333</ele><time>2026-04-18T13:59:13.001Z</time></trkpt><trkpt lat="43.2717232603513" lon="10.760866164631357"><ele>465.66666666666663</ele><time>2026-04-18T13:59:14.001Z</time></trkpt><trkpt lat="43.27175142031951" lon="10.760764632025028"><ele>468.0</ele><time>2026-04-18T13:59:15.001Z</time></trkpt><trkpt lat="43.271766711856976" lon="10.760659947224488"><ele>470.33333333333337</ele><time>2026-04-18T13:59:16.001Z</time></trkpt><trkpt lat="43.27178476276584" lon="10.760559395292315"><ele>472.6666666666667</ele><time>2026-04-18T13:59:17.001Z</time></trkpt><trkpt lat="43.271802475726545" lon="10.760473286640744"><ele>475.0</ele><time>2026-04-18T13:59:18.001Z</time></trkpt><trkpt lat="43.27184364327878" lon="10.760370189696594"><ele>475.0</ele><time>2026-04-18T13:59:20.001Z</time></trkpt><trkpt lat="43.271916316233344" lon="10.760284348894213"><ele>475.0</ele><time>2026-04-18T13:59:22.001Z</time></trkpt><trkpt lat="43.27198989857617" lon="10.760181482967372"><ele>475.0</ele><time>2026-04-18T13:59:24.001Z</time></trkpt><trkpt lat="43.27208985024975" lon="10.760108496216608"><ele>475.0</ele><time>2026-04-18T13:59:26.001Z</time></trkpt><trkpt lat="43.272192172909165" lon="10.760073987863152"><ele>475.0</ele><time>2026-04-18T13:59:28.001Z</time></trkpt><trkpt lat="43.27225539878846" lon="10.760073585811696"><ele>476.33333333333337</ele><time>2026-04-18T13:59:29.001Z</time></trkpt><trkpt lat="43.272343338697496" lon="10.760074247521347"><ele>477.6666666666667</ele><time>2026-04-18T13:59:30.001Z</time></trkpt><trkpt lat="43.2724285768353" lon="10.760122340947907"><ele>479.0</ele><time>2026-04-18T13:59:31.001Z</time></trkpt><trkpt lat="43.27251979154498" lon="10.760169577242307"><ele>480.33333333333337</ele><time>2026-04-18T13:59:32.001Z</time></trkpt><trkpt lat="43.27259002619448" lon="10.76018638418731"><ele>481.6666666666667</ele><time>2026-04-18T13:59:33.001Z</time></trkpt><trkpt lat="43.272671810075785" lon="10.760196157402861"><ele>483.0</ele><time>2026-04-18T13:59:34.001Z</time></trkpt><trkpt lat="43.27274593860282" lon="10.760170645941692"><ele>483.0</ele><time>2026-04-18T13:59:35.001Z</time></trkpt><trkpt lat="43.27281832786222" lon="10.760154123663103"><ele>483.0</ele><time>2026-04-18T13:59:36.001Z</time></trkpt><trkpt lat="43.27289414879839" lon="10.76011068356834"><ele>483.0</ele><time>2026-04-18T13:59:37.001Z</time></trkpt><trkpt lat="43.272961615433715" lon="10.760051597874513"><ele>483.0</ele><time>2026-04-18T13:59:38.001Z</time></trkpt><trkpt lat="43.27302173601664" lon="10.759972503718894"><ele>483.0</ele><time>2026-04-18T13:59:39.001Z</time></trkpt><trkpt lat="43.27309115494387" lon="10.759906603657074"><ele>483.0</ele><time>2026-04-18T13:59:40.001Z</time></trkpt><trkpt lat="43.27314782579626" lon="10.75981427803186"><ele>483.1666666666667</ele><time>2026-04-18T13:59:41.002Z</time></trkpt><trkpt lat="43.27321854963257" lon="10.759728992952926"><ele>483.33333333333337</ele><time>2026-04-18T13:59:42.002Z</time></trkpt><trkpt lat="43.273289454267335" lon="10.759634711587779"><ele>483.5</ele><time>2026-04-18T13:59:43.002Z</time></trkpt><trkpt lat="43.273355747437435" lon="10.759537840415296"><ele>483.6666666666667</ele><time>2026-04-18T13:59:44.002Z</time></trkpt><trkpt lat="43.273420010772554" lon="10.759471185872776"><ele>483.83333333333337</ele><time>2026-04-18T13:59:45.002Z</time></trkpt><trkpt lat="43.273478253871566" lon="10.759410079405091"><ele>484.0</ele><time>2026-04-18T13:59:46.002Z</time></trkpt><trkpt lat="43.273545579975305" lon="10.759339552342825"><ele>484.00000000000006</ele><time>2026-04-18T13:59:48.002Z</time></trkpt><trkpt lat="43.27362372723516" lon="10.759287357473731"><ele>484.0</ele><time>2026-04-18T13:59:52.002Z</time></trkpt><trkpt lat="43.27368699388698" lon="10.759231826490325"><ele>484.0</ele><time>2026-04-18T13:59:55.002Z</time></trkpt><trkpt lat="43.27375282671239" lon="10.759216615346622"><ele>484.0</ele><time>2026-04-18T13:59:56.002Z</time></trkpt><trkpt lat="43.27382942781152" lon="10.759186239802471"><ele>484.00000000000006</ele><time>2026-04-18T13:59:57.002Z</time></trkpt><trkpt lat="43.27392493657193" lon="10.759158158882576"><ele>484.0</ele><time>2026-04-18T13:59:58.002Z</time></trkpt><trkpt lat="43.27403235057813" lon="10.759105014371125"><ele>486.2</ele><time>2026-04-18T13:59:59.002Z</time></trkpt><trkpt lat="43.27414061767998" lon="10.759063042309814"><ele>488.4</ele><time>2026-04-18T14:00:00.002Z</time></trkpt><trkpt lat="43.27425580071996" lon="10.759016872731262"><ele>490.6</ele><time>2026-04-18T14:00:01.002Z</time></trkpt><trkpt lat="43.27435686963463" lon="10.758963984131045"><ele>492.8</ele><time>2026-04-18T14:00:02.002Z</time></trkpt><trkpt lat="43.27443932404661" lon="10.758919027950375"><ele>495.0</ele><time>2026-04-18T14:00:03.002Z</time></trkpt><trkpt lat="43.27453098319171" lon="10.758906945029377"><ele>495.0</ele><time>2026-04-18T14:00:04.002Z</time></trkpt><trkpt lat="43.27462015836107" lon="10.75894196601291"><ele>495.0</ele><time>2026-04-18T14:00:05.002Z</time></trkpt><trkpt lat="43.27470486979632" lon="10.75897916129558"><ele>495.0</ele><time>2026-04-18T14:00:06.002Z</time></trkpt><trkpt lat="43.27478010292591" lon="10.758980431249405"><ele>495.0</ele><time>2026-04-18T14:00:07.002Z</time></trkpt><trkpt lat="43.27485479622787" lon="10.758986486415536"><ele>495.0</ele><time>2026-04-18T14:00:08.002Z</time></trkpt><trkpt lat="43.2749172922719" lon="10.758941224235066"><ele>495.0</ele><time>2026-04-18T14:00:09.002Z</time></trkpt><trkpt lat="43.274970761444465" lon="10.758883721495005"><ele>494.6666666666667</ele><time>2026-04-18T14:00:10.002Z</time></trkpt><trkpt lat="43.27503498873059" lon="10.758807394300772"><ele>494.33333333333337</ele><time>2026-04-18T14:00:11.002Z</time></trkpt><trkpt lat="43.275095698928" lon="10.75869902640856"><ele>494.0</ele><time>2026-04-18T14:00:12Z</time></trkpt><trkpt lat="43.275161752841434" lon="10.758637333000424"><ele>493.6666666666667</ele><time>2026-04-18T14:00:13Z</time></trkpt><trkpt lat="43.275238040631955" lon="10.758608526208535"><ele>493.33333333333337</ele><time>2026-04-18T14:00:14Z</time></trkpt><trkpt lat="43.27531708014035" lon="10.758637306862308"><ele>493.0</ele><time>2026-04-18T14:00:15Z</time></trkpt><trkpt lat="43.27539562694875" lon="10.758701105339217"><ele>493.0</ele><time>2026-04-18T14:00:16Z</time></trkpt><trkpt lat="43.27548674944493" lon="10.75876877743805"><ele>492.99999999999994</ele><time>2026-04-18T14:00:17Z</time></trkpt><trkpt lat="43.275583294815135" lon="10.758817481989825"><ele>492.99999999999994</ele><time>2026-04-18T14:00:18Z</time></trkpt><trkpt lat="43.27568339040714" lon="10.758832644027082"><ele>493.0</ele><time>2026-04-18T14:00:19Z</time></trkpt><trkpt lat="43.275765782097565" lon="10.758849931789848"><ele>493.0</ele><time>2026-04-18T14:00:20Z</time></trkpt><trkpt lat="43.275842918022185" lon="10.758844674064163"><ele>492.33333333333337</ele><time>2026-04-18T14:00:21Z</time></trkpt><trkpt lat="43.275916142157755" lon="10.758804122822104"><ele>491.6666666666667</ele><time>2026-04-18T14:00:22Z</time></trkpt><trkpt lat="43.27596971396504" lon="10.75873370594694"><ele>491.0</ele><time>2026-04-18T14:00:23Z</time></trkpt><trkpt lat="43.27600377147078" lon="10.758631994562338"><ele>490.33333333333337</ele><time>2026-04-18T14:00:24Z</time></trkpt><trkpt lat="43.27601993010844" lon="10.758503622300728"><ele>489.6666666666667</ele><time>2026-04-18T14:00:25Z</time></trkpt><trkpt lat="43.276030276304894" lon="10.758356934102162"><ele>489.0</ele><time>2026-04-18T14:00:26Z</time></trkpt><trkpt lat="43.27604678596681" lon="10.758202324190078"><ele>489.0</ele><time>2026-04-18T14:00:27Z</time></trkpt><trkpt lat="43.27606538442512" lon="10.758044932479839"><ele>489.0</ele><time>2026-04-18T14:00:28Z</time></trkpt><trkpt lat="43.27608287719808" lon="10.757911518488783"><ele>489.0</ele><time>2026-04-18T14:00:29Z</time></trkpt><trkpt lat="43.27610822621452" lon="10.757773954782285"><ele>489.0</ele><time>2026-04-18T14:00:30Z</time></trkpt><trkpt lat="43.276132294824336" lon="10.757643278284002"><ele>489.0</ele><time>2026-04-18T14:00:31Z</time></trkpt><trkpt lat="43.276172468338466" lon="10.757523494392792"><ele>489.0</ele><time>2026-04-18T14:00:32Z</time></trkpt><trkpt lat="43.27622935639357" lon="10.75739379010755"><ele>489.0</ele><time>2026-04-18T14:00:33Z</time></trkpt><trkpt lat="43.276294412354154" lon="10.757269656413921"><ele>489.0</ele><time>2026-04-18T14:00:34Z</time></trkpt><trkpt lat="43.276342021439405" lon="10.757151991661571"><ele>489.0</ele><time>2026-04-18T14:00:35Z</time></trkpt><trkpt lat="43.27639001553208" lon="10.757052972140405"><ele>489.0</ele><time>2026-04-18T14:00:36Z</time></trkpt><trkpt lat="43.276460248915896" lon="10.756992870860275"><ele>486.4</ele><time>2026-04-18T14:00:37Z</time></trkpt><trkpt lat="43.27654307058131" lon="10.75696481748024"><ele>483.79999999999995</ele><time>2026-04-18T14:00:38Z</time></trkpt><trkpt lat="43.27663086378752" lon="10.756963574675595"><ele>481.20000000000005</ele><time>2026-04-18T14:00:39Z</time></trkpt><trkpt lat="43.27672932548622" lon="10.756966424678849"><ele>478.6</ele><time>2026-04-18T14:00:40Z</time></trkpt><trkpt lat="43.27683725527466" lon="10.756959481095604"><ele>476.0</ele><time>2026-04-18T14:00:41Z</time></trkpt><trkpt lat="43.27695375408223" lon="10.756919557011708"><ele>476.0</ele><time>2026-04-18T14:00:42Z</time></trkpt><trkpt lat="43.27707212420064" lon="10.756873075572457"><ele>476.0</ele><time>2026-04-18T14:00:43Z</time></trkpt><trkpt lat="43.27719641554373" lon="10.756822637560091"><ele>476.0</ele><time>2026-04-18T14:00:44Z</time></trkpt><trkpt lat="43.277319971702994" lon="10.756781326462283"><ele>476.0</ele><time>2026-04-18T14:00:45Z</time></trkpt><trkpt lat="43.27743102912709" lon="10.756743230007439"><ele>475.8</ele><time>2026-04-18T14:00:46Z</time></trkpt><trkpt lat="43.27752614969932" lon="10.756690951001628"><ele>475.6</ele><time>2026-04-18T14:00:47Z</time></trkpt><trkpt lat="43.27760715150235" lon="10.756632597920385"><ele>475.4</ele><time>2026-04-18T14:00:48Z</time></trkpt><trkpt lat="43.2776816270019" lon="10.75653776996578"><ele>475.2</ele><time>2026-04-18T14:00:49Z</time></trkpt><trkpt lat="43.27775373232476" lon="10.756420403683032"><ele>475.0</ele><time>2026-04-18T14:00:50Z</time></trkpt><trkpt lat="43.27782228887427" lon="10.756286890155366"><ele>475.0</ele><time>2026-04-18T14:00:51Z</time></trkpt><trkpt lat="43.27788345013283" lon="10.75613797196231"><ele>475.0</ele><time>2026-04-18T14:00:52Z</time></trkpt><trkpt lat="43.27794003141611" lon="10.755977501509525"><ele>475.0</ele><time>2026-04-18T14:00:53Z</time></trkpt><trkpt lat="43.27798133293757" lon="10.755858414849804"><ele>475.0</ele><time>2026-04-18T14:00:54Z</time></trkpt><trkpt lat="43.278019136241475" lon="10.755764340737386"><ele>475.0</ele><time>2026-04-18T14:00:55Z</time></trkpt><trkpt lat="43.27807257108369" lon="10.755682446584618"><ele>473.6666666666667</ele><time>2026-04-18T14:00:56Z</time></trkpt><trkpt lat="43.278141303570216" lon="10.755632200642847"><ele>472.33333333333337</ele><time>2026-04-18T14:00:57.001Z</time></trkpt><trkpt lat="43.27821977822539" lon="10.75564593519134"><ele>471.0</ele><time>2026-04-18T14:00:58.001Z</time></trkpt><trkpt lat="43.27828933534509" lon="10.755671942227668"><ele>469.66666666666663</ele><time>2026-04-18T14:00:59.001Z</time></trkpt><trkpt lat="43.27835736124329" lon="10.755731317820167"><ele>468.3333333333333</ele><time>2026-04-18T14:01:00.001Z</time></trkpt><trkpt lat="43.278432794623036" lon="10.755806926821856"><ele>467.0</ele><time>2026-04-18T14:01:01.001Z</time></trkpt><trkpt lat="43.27848258233565" lon="10.755966492951135"><ele>466.6</ele><time>2026-04-18T14:01:02.001Z</time></trkpt><trkpt lat="43.278552048061776" lon="10.75609303215017"><ele>466.20000000000005</ele><time>2026-04-18T14:01:03.001Z</time></trkpt><trkpt lat="43.27858869674676" lon="10.75622551403172"><ele>465.8</ele><time>2026-04-18T14:01:04.001Z</time></trkpt><trkpt lat="43.27864007499756" lon="10.756334842707611"><ele>465.4</ele><time>2026-04-18T14:01:05.001Z</time></trkpt><trkpt lat="43.27869438717868" lon="10.756425810173246"><ele>465.0</ele><time>2026-04-18T14:01:06.001Z</time></trkpt><trkpt lat="43.278743944254394" lon="10.756494031315357"><ele>465.0</ele><time>2026-04-18T14:01:07.001Z</time></trkpt><trkpt lat="43.278803673293204" lon="10.756531818060381"><ele>465.0</ele><time>2026-04-18T14:01:08.001Z</time></trkpt><trkpt lat="43.27886724250849" lon="10.75653465545727"><ele>465.0</ele><time>2026-04-18T14:01:09.001Z</time></trkpt><trkpt lat="43.278944824734744" lon="10.756512642800475"><ele>465.0</ele><time>2026-04-18T14:01:10.001Z</time></trkpt><trkpt lat="43.27899205318041" lon="10.756395701921065"><ele>465.0</ele><time>2026-04-18T14:01:11.001Z</time></trkpt><trkpt lat="43.27903796787663" lon="10.75625712082625"><ele>465.0</ele><time>2026-04-18T14:01:12.001Z</time></trkpt><trkpt lat="43.27909790872145" lon="10.756112307507864"><ele>464.2</ele><time>2026-04-18T14:01:13.001Z</time></trkpt><trkpt lat="43.27914534194087" lon="10.75596643620352"><ele>463.4</ele><time>2026-04-18T14:01:14.001Z</time></trkpt><trkpt lat="43.2791650201498" lon="10.755851792623233"><ele>462.6</ele><time>2026-04-18T14:01:15.001Z</time></trkpt><trkpt lat="43.27918432408738" lon="10.755733086824272"><ele>461.8</ele><time>2026-04-18T14:01:16.001Z</time></trkpt><trkpt lat="43.279173488317866" lon="10.755603846642734"><ele>461.0</ele><time>2026-04-18T14:01:17.001Z</time></trkpt><trkpt lat="43.279148104552185" lon="10.755460254624868"><ele>461.0</ele><time>2026-04-18T14:01:18.001Z</time></trkpt><trkpt lat="43.27914165314169" lon="10.755317526590693"><ele>461.0</ele><time>2026-04-18T14:01:19.001Z</time></trkpt><trkpt lat="43.27912858328837" lon="10.755194701548422"><ele>461.0</ele><time>2026-04-18T14:01:20.001Z</time></trkpt><trkpt lat="43.27912821244677" lon="10.755068508555912"><ele>461.0</ele><time>2026-04-18T14:01:21.001Z</time></trkpt><trkpt lat="43.279152889942395" lon="10.754953250737714"><ele>461.0</ele><time>2026-04-18T14:01:22.001Z</time></trkpt><trkpt lat="43.279207531872615" lon="10.754880522099448"><ele>460.4</ele><time>2026-04-18T14:01:23.001Z</time></trkpt><trkpt lat="43.27927414759046" lon="10.75481826486708"><ele>459.8</ele><time>2026-04-18T14:01:24.001Z</time></trkpt><trkpt lat="43.27935239069492" lon="10.754731684685897"><ele>459.19999999999993</ele><time>2026-04-18T14:01:25.001Z</time></trkpt><trkpt lat="43.2794268561778" lon="10.754646311227772"><ele>458.59999999999997</ele><time>2026-04-18T14:01:26.001Z</time></trkpt><trkpt lat="43.27947839461461" lon="10.754539443930993"><ele>458.0</ele><time>2026-04-18T14:01:27.001Z</time></trkpt><trkpt lat="43.27952633090538" lon="10.75444776581626"><ele>457.49999999999994</ele><time>2026-04-18T14:01:28.001Z</time></trkpt><trkpt lat="43.27954774830368" lon="10.75435260963634"><ele>457.0</ele><time>2026-04-18T14:01:29.001Z</time></trkpt><trkpt lat="43.27956048176419" lon="10.754265174691694"><ele>456.5</ele><time>2026-04-18T14:01:30.001Z</time></trkpt><trkpt lat="43.27958424696401" lon="10.754179983223366"><ele>456.0</ele><time>2026-04-18T14:01:31.001Z</time></trkpt><trkpt lat="43.27958513484323" lon="10.753997792682954"><ele>455.49999999999994</ele><time>2026-04-18T14:01:33.001Z</time></trkpt><trkpt lat="43.279602243709334" lon="10.753900738316215"><ele>455.0</ele><time>2026-04-18T14:01:34.001Z</time></trkpt><trkpt lat="43.27963864839643" lon="10.753809357513482"><ele>454.99999999999994</ele><time>2026-04-18T14:01:35.001Z</time></trkpt><trkpt lat="43.27964808080344" lon="10.753705690402603"><ele>455.0</ele><time>2026-04-18T14:01:36.001Z</time></trkpt><trkpt lat="43.27967627908194" lon="10.75361019558201"><ele>455.0</ele><time>2026-04-18T14:01:37.001Z</time></trkpt><trkpt lat="43.27970853297589" lon="10.75351532997824"><ele>455.0</ele><time>2026-04-18T14:01:38.001Z</time></trkpt><trkpt lat="43.27974049866213" lon="10.753420088411653"><ele>454.99999999999994</ele><time>2026-04-18T14:01:39.001Z</time></trkpt><trkpt lat="43.27977092129179" lon="10.753322029483703"><ele>455.0</ele><time>2026-04-18T14:01:40.001Z</time></trkpt><trkpt lat="43.2797991454212" lon="10.753221047636895"><ele>454.49999999999994</ele><time>2026-04-18T14:01:41.001Z</time></trkpt><trkpt lat="43.27982220651253" lon="10.753113095762089"><ele>454.0</ele><time>2026-04-18T14:01:42.001Z</time></trkpt><trkpt lat="43.27984146675437" lon="10.75300149246246"><ele>453.5</ele><time>2026-04-18T14:01:43.001Z</time></trkpt><trkpt lat="43.27985052038318" lon="10.752891832316722"><ele>453.0</ele><time>2026-04-18T14:01:44.001Z</time></trkpt><trkpt lat="43.279859965636746" lon="10.752782228075866"><ele>452.49999999999994</ele><time>2026-04-18T14:01:45.001Z</time></trkpt><trkpt lat="43.27987256842764" lon="10.7526856820274"><ele>452.0</ele><time>2026-04-18T14:01:46.001Z</time></trkpt><trkpt lat="43.27992814124728" lon="10.75254843241264"><ele>451.99999999999994</ele><time>2026-04-18T14:01:48.002Z</time></trkpt><trkpt lat="43.27998322042899" lon="10.7525002368594"><ele>452.0</ele><time>2026-04-18T14:01:49.002Z</time></trkpt><trkpt lat="43.28005467599868" lon="10.752488355228804"><ele>452.0</ele><time>2026-04-18T14:01:50.002Z</time></trkpt><trkpt lat="43.280125033164516" lon="10.752417318191945"><ele>452.0</ele><time>2026-04-18T14:01:51.002Z</time></trkpt><trkpt lat="43.28019794698929" lon="10.752388089442295"><ele>451.99999999999994</ele><time>2026-04-18T14:01:52.002Z</time></trkpt><trkpt lat="43.28027582600157" lon="10.752371550820737"><ele>452.0</ele><time>2026-04-18T14:01:53.002Z</time></trkpt><trkpt lat="43.28036159221853" lon="10.752349160125341"><ele>452.0</ele><time>2026-04-18T14:01:54.002Z</time></trkpt><trkpt lat="43.28045146174234" lon="10.752326222656015"><ele>452.00000000000006</ele><time>2026-04-18T14:01:55.002Z</time></trkpt><trkpt lat="43.280542414048426" lon="10.752285814637213"><ele>452.00000000000006</ele><time>2026-04-18T14:01:56.002Z</time></trkpt><trkpt lat="43.28063392935523" lon="10.752250053855642"><ele>452.0</ele><time>2026-04-18T14:01:57.002Z</time></trkpt><trkpt lat="43.28073112425621" lon="10.752220175980176"><ele>452.0</ele><time>2026-04-18T14:01:58.002Z</time></trkpt><trkpt lat="43.28082926604333" lon="10.752182000225668"><ele>451.8</ele><time>2026-04-18T14:01:59.002Z</time></trkpt><trkpt lat="43.28093731969832" lon="10.752176136462792"><ele>451.6</ele><time>2026-04-18T14:02:00.002Z</time></trkpt><trkpt lat="43.281028364922186" lon="10.752183390436599"><ele>451.40000000000003</ele><time>2026-04-18T14:02:01.002Z</time></trkpt><trkpt lat="43.28114423609602" lon="10.752174511085318"><ele>451.20000000000005</ele><time>2026-04-18T14:02:02.002Z</time></trkpt><trkpt lat="43.281242561523484" lon="10.752163467012947"><ele>451.0</ele><time>2026-04-18T14:02:03.002Z</time></trkpt><trkpt lat="43.28132688010614" lon="10.752150876702496"><ele>451.00000000000006</ele><time>2026-04-18T14:02:04.002Z</time></trkpt><trkpt lat="43.28139553026376" lon="10.752117819544184"><ele>451.0</ele><time>2026-04-18T14:02:05.002Z</time></trkpt><trkpt lat="43.28145910184743" lon="10.752093761981323"><ele>451.0</ele><time>2026-04-18T14:02:06.002Z</time></trkpt><trkpt lat="43.28153545617075" lon="10.752055745980654"><ele>451.0</ele><time>2026-04-18T14:02:07.002Z</time></trkpt><trkpt lat="43.28158882304263" lon="10.752003400595926"><ele>451.00000000000006</ele><time>2026-04-18T14:02:08.002Z</time></trkpt><trkpt lat="43.28162912282279" lon="10.75192960102395"><ele>451.0</ele><time>2026-04-18T14:02:09.002Z</time></trkpt><trkpt lat="43.281695740174804" lon="10.751775523460251"><ele>449.50000000000006</ele><time>2026-04-18T14:02:11.002Z</time></trkpt><trkpt lat="43.28172349882933" lon="10.751674391684322"><ele>448.0</ele><time>2026-04-18T14:02:12.002Z</time></trkpt><trkpt lat="43.281757010588294" lon="10.751566587747744"><ele>446.5</ele><time>2026-04-18T14:02:13.002Z</time></trkpt><trkpt lat="43.28177111719112" lon="10.751453735671719"><ele>445.0</ele><time>2026-04-18T14:02:14.002Z</time></trkpt><trkpt lat="43.28177831442101" lon="10.751358623691335"><ele>443.50000000000006</ele><time>2026-04-18T14:02:15.002Z</time></trkpt><trkpt lat="43.28178862933714" lon="10.751204250586483"><ele>442.0</ele><time>2026-04-18T14:02:17.002Z</time></trkpt><trkpt lat="43.281793406013314" lon="10.751117177716843"><ele>441.1666666666667</ele><time>2026-04-18T14:02:18Z</time></trkpt><trkpt lat="43.28179339062547" lon="10.750932019514345"><ele>440.33333333333337</ele><time>2026-04-18T14:02:20Z</time></trkpt><trkpt lat="43.28181399492414" lon="10.750848635980242"><ele>439.5</ele><time>2026-04-18T14:02:21Z</time></trkpt><trkpt lat="43.281818218874776" lon="10.750753485168081"><ele>438.66666666666663</ele><time>2026-04-18T14:02:22Z</time></trkpt><trkpt lat="43.28179350925248" lon="10.750646390931367"><ele>437.8333333333333</ele><time>2026-04-18T14:02:23Z</time></trkpt><trkpt lat="43.28175091542023" lon="10.750530369228851"><ele>437.0</ele><time>2026-04-18T14:02:24Z</time></trkpt><trkpt lat="43.281706077709586" lon="10.750444219664452"><ele>436.99999999999994</ele><time>2026-04-18T14:02:25Z</time></trkpt><trkpt lat="43.28166049440667" lon="10.750360961438918"><ele>437.0</ele><time>2026-04-18T14:02:26Z</time></trkpt><trkpt lat="43.28162207824555" lon="10.750274686652865"><ele>437.0</ele><time>2026-04-18T14:02:27Z</time></trkpt><trkpt lat="43.28159265080417" lon="10.750096747187486"><ele>437.0</ele><time>2026-04-18T14:02:29Z</time></trkpt><trkpt lat="43.2816038251763" lon="10.7500073555985"><ele>436.99999999999994</ele><time>2026-04-18T14:02:30Z</time></trkpt><trkpt lat="43.28161291174661" lon="10.74991157781782"><ele>437.0</ele><time>2026-04-18T14:02:31Z</time></trkpt><trkpt lat="43.28164249465038" lon="10.74980770931606"><ele>436.16666666666663</ele><time>2026-04-18T14:02:32Z</time></trkpt><trkpt lat="43.28167740958767" lon="10.749706325204258"><ele>435.3333333333333</ele><time>2026-04-18T14:02:33Z</time></trkpt><trkpt lat="43.281717576220984" lon="10.749604305982777"><ele>434.5</ele><time>2026-04-18T14:02:34Z</time></trkpt><trkpt lat="43.28176581363747" lon="10.749503824313244"><ele>433.66666666666663</ele><time>2026-04-18T14:02:35Z</time></trkpt><trkpt lat="43.281814578524646" lon="10.749401279621214"><ele>432.8333333333333</ele><time>2026-04-18T14:02:36Z</time></trkpt><trkpt lat="43.28184605442535" lon="10.749301159379376"><ele>432.0</ele><time>2026-04-18T14:02:37Z</time></trkpt><trkpt lat="43.281927851893364" lon="10.749194021524788"><ele>431.8333333333333</ele><time>2026-04-18T14:02:39Z</time></trkpt><trkpt lat="43.28206070933163" lon="10.749163458216595"><ele>431.66666666666663</ele><time>2026-04-18T14:02:41Z</time></trkpt><trkpt lat="43.282135810441765" lon="10.749149807466065"><ele>431.5</ele><time>2026-04-18T14:02:42Z</time></trkpt><trkpt lat="43.2822039590678" lon="10.749138269518628"><ele>431.3333333333333</ele><time>2026-04-18T14:02:43Z</time></trkpt><trkpt lat="43.28227050386944" lon="10.74911784311876"><ele>431.16666666666663</ele><time>2026-04-18T14:02:44Z</time></trkpt><trkpt lat="43.282333631524004" lon="10.749077722808314"><ele>431.0</ele><time>2026-04-18T14:02:45Z</time></trkpt><trkpt lat="43.28239336081051" lon="10.74900489054665"><ele>430.99999999999994</ele><time>2026-04-18T14:02:46Z</time></trkpt><trkpt lat="43.28241149876279" lon="10.748893041042775"><ele>431.0</ele><time>2026-04-18T14:02:47Z</time></trkpt><trkpt lat="43.282402724525255" lon="10.748781301363444"><ele>431.0</ele><time>2026-04-18T14:02:48Z</time></trkpt><trkpt lat="43.28236591280321" lon="10.748664957578605"><ele>431.0</ele><time>2026-04-18T14:02:49Z</time></trkpt><trkpt lat="43.28234493435223" lon="10.7485783369141"><ele>430.99999999999994</ele><time>2026-04-18T14:02:50Z</time></trkpt><trkpt lat="43.28233874817089" lon="10.748414537606086"><ele>431.0</ele><time>2026-04-18T14:02:52Z</time></trkpt><trkpt lat="43.282379511202905" lon="10.748340747001386"><ele>428.66666666666663</ele><time>2026-04-18T14:02:53Z</time></trkpt><trkpt lat="43.282424872903704" lon="10.748247564014502"><ele>426.3333333333333</ele><time>2026-04-18T14:02:54.001Z</time></trkpt><trkpt lat="43.28248447559774" lon="10.748140301817617"><ele>424.0</ele><time>2026-04-18T14:02:55.001Z</time></trkpt><trkpt lat="43.282535819067675" lon="10.748055306361014"><ele>421.66666666666663</ele><time>2026-04-18T14:02:56.001Z</time></trkpt><trkpt lat="43.28260001273779" lon="10.747984188728285"><ele>419.3333333333333</ele><time>2026-04-18T14:02:57.001Z</time></trkpt><trkpt lat="43.2826840117455" lon="10.74792835662385"><ele>417.0</ele><time>2026-04-18T14:02:58.001Z</time></trkpt><trkpt lat="43.28275241769173" lon="10.74786206280954"><ele>417.0</ele><time>2026-04-18T14:02:59.001Z</time></trkpt><trkpt lat="43.28281393181104" lon="10.747781327054303"><ele>417.0</ele><time>2026-04-18T14:03:00.001Z</time></trkpt><trkpt lat="43.28285798503096" lon="10.747718012458503"><ele>417.0</ele><time>2026-04-18T14:03:01.001Z</time></trkpt><trkpt lat="43.28296811501782" lon="10.747668655482885"><ele>417.0</ele><time>2026-04-18T14:03:03.001Z</time></trkpt><trkpt lat="43.283090123215736" lon="10.747587004368501"><ele>417.0</ele><time>2026-04-18T14:03:05.001Z</time></trkpt><trkpt lat="43.28310621495434" lon="10.747473811353073"><ele>416.5</ele><time>2026-04-18T14:03:06.001Z</time></trkpt><trkpt lat="43.28314149468439" lon="10.747342160806777"><ele>416.0</ele><time>2026-04-18T14:03:07.001Z</time></trkpt><trkpt lat="43.28318416550298" lon="10.747235010100326"><ele>415.5</ele><time>2026-04-18T14:03:08.001Z</time></trkpt><trkpt lat="43.28323338089471" lon="10.747149500988284"><ele>415.0</ele><time>2026-04-18T14:03:09.001Z</time></trkpt><trkpt lat="43.283305981252376" lon="10.74714148254651"><ele>414.5</ele><time>2026-04-18T14:03:10.001Z</time></trkpt><trkpt lat="43.2833835601205" lon="10.74710062293007"><ele>414.0</ele><time>2026-04-18T14:03:11.001Z</time></trkpt><trkpt lat="43.28347375573306" lon="10.747115234302383"><ele>414.0</ele><time>2026-04-18T14:03:12.001Z</time></trkpt><trkpt lat="43.28354820927415" lon="10.747136803594913"><ele>414.0</ele><time>2026-04-18T14:03:13.001Z</time></trkpt><trkpt lat="43.28363078195301" lon="10.747122045478678"><ele>414.0</ele><time>2026-04-18T14:03:14.001Z</time></trkpt><trkpt lat="43.28369596436776" lon="10.747086506329111"><ele>414.0</ele><time>2026-04-18T14:03:15.001Z</time></trkpt><trkpt lat="43.28375317617198" lon="10.747047536155137"><ele>414.0</ele><time>2026-04-18T14:03:16.001Z</time></trkpt><trkpt lat="43.28377883505085" lon="10.746955368016645"><ele>414.0</ele><time>2026-04-18T14:03:17.001Z</time></trkpt><trkpt lat="43.283773555144755" lon="10.746834275250386"><ele>412.0</ele><time>2026-04-18T14:03:19.001Z</time></trkpt><trkpt lat="43.283711200911306" lon="10.746778799501957"><ele>410.0</ele><time>2026-04-18T14:03:20.001Z</time></trkpt><trkpt lat="43.283643235490274" lon="10.746733265309633"><ele>408.0</ele><time>2026-04-18T14:03:21.001Z</time></trkpt><trkpt lat="43.283569711290745" lon="10.746700567154186"><ele>406.0</ele><time>2026-04-18T14:03:22.001Z</time></trkpt><trkpt lat="43.28351319205858" lon="10.7466233494559"><ele>404.0</ele><time>2026-04-18T14:03:23.001Z</time></trkpt><trkpt lat="43.2834617409346" lon="10.746560205224968"><ele>402.0</ele><time>2026-04-18T14:03:24.001Z</time></trkpt><trkpt lat="43.28340630796504" lon="10.746444721754377"><ele>402.0</ele><time>2026-04-18T14:03:26.001Z</time></trkpt><trkpt lat="43.2833865675443" lon="10.74630730536261"><ele>402.0</ele><time>2026-04-18T14:03:28.001Z</time></trkpt><trkpt lat="43.283389005744155" lon="10.746196006012642"><ele>402.0</ele><time>2026-04-18T14:03:29.001Z</time></trkpt><trkpt lat="43.283428846958046" lon="10.746080599558901"><ele>402.0</ele><time>2026-04-18T14:03:30.001Z</time></trkpt><trkpt lat="43.283468948105934" lon="10.745962347700054"><ele>402.0</ele><time>2026-04-18T14:03:31.001Z</time></trkpt><trkpt lat="43.283516315993005" lon="10.745845644993265"><ele>400.5</ele><time>2026-04-18T14:03:32.001Z</time></trkpt><trkpt lat="43.28357338904959" lon="10.745736780662249"><ele>399.0</ele><time>2026-04-18T14:03:33.001Z</time></trkpt><trkpt lat="43.28362759324524" lon="10.745637196829028"><ele>397.5</ele><time>2026-04-18T14:03:34.001Z</time></trkpt><trkpt lat="43.28367514019746" lon="10.745544394345513"><ele>396.0</ele><time>2026-04-18T14:03:35.001Z</time></trkpt><trkpt lat="43.28370665108013" lon="10.745455537267272"><ele>394.5</ele><time>2026-04-18T14:03:36.001Z</time></trkpt><trkpt lat="43.28374800048401" lon="10.745380271972516"><ele>393.0</ele><time>2026-04-18T14:03:37.001Z</time></trkpt><trkpt lat="43.283759143886634" lon="10.745274452707527"><ele>392.2</ele><time>2026-04-18T14:03:38.001Z</time></trkpt><trkpt lat="43.28374669432665" lon="10.745175133266489"><ele>391.4</ele><time>2026-04-18T14:03:39.001Z</time></trkpt><trkpt lat="43.28372488460881" lon="10.745061481112005"><ele>390.59999999999997</ele><time>2026-04-18T14:03:40.001Z</time></trkpt><trkpt lat="43.28368918085434" lon="10.744924654984594"><ele>389.79999999999995</ele><time>2026-04-18T14:03:41.001Z</time></trkpt><trkpt lat="43.28364525845165" lon="10.744801697290457"><ele>389.0</ele><time>2026-04-18T14:03:42.001Z</time></trkpt><trkpt lat="43.28359071899656" lon="10.7446670993201"><ele>389.0</ele><time>2026-04-18T14:03:43.001Z</time></trkpt><trkpt lat="43.283521938653315" lon="10.744526696702907"><ele>389.0</ele><time>2026-04-18T14:03:44.001Z</time></trkpt><trkpt lat="43.28347761253464" lon="10.744396790548167"><ele>389.0</ele><time>2026-04-18T14:03:45.001Z</time></trkpt><trkpt lat="43.28341861851784" lon="10.744266272080138"><ele>389.0</ele><time>2026-04-18T14:03:46.002Z</time></trkpt><trkpt lat="43.283338343645006" lon="10.744133531810066"><ele>388.4</ele><time>2026-04-18T14:03:47.002Z</time></trkpt><trkpt lat="43.28327125040404" lon="10.743984860702072"><ele>387.79999999999995</ele><time>2026-04-18T14:03:48.002Z</time></trkpt><trkpt lat="43.283204896181346" lon="10.743863732366346"><ele>387.20000000000005</ele><time>2026-04-18T14:03:49.002Z</time></trkpt><trkpt lat="43.28314406364496" lon="10.74375447194553"><ele>386.6</ele><time>2026-04-18T14:03:50.002Z</time></trkpt><trkpt lat="43.28308510946497" lon="10.743651832103193"><ele>386.0</ele><time>2026-04-18T14:03:51.002Z</time></trkpt><trkpt lat="43.283038416138574" lon="10.743556321593985"><ele>383.49999999999994</ele><time>2026-04-18T14:03:52.002Z</time></trkpt><trkpt lat="43.28300705551056" lon="10.743462565597518"><ele>381.0</ele><time>2026-04-18T14:03:53.002Z</time></trkpt><trkpt lat="43.28299022725318" lon="10.74335268787933"><ele>378.5</ele><time>2026-04-18T14:03:54.002Z</time></trkpt><trkpt lat="43.28298122991101" lon="10.743225099529672"><ele>376.0</ele><time>2026-04-18T14:03:55.002Z</time></trkpt><trkpt lat="43.28297282720375" lon="10.743111042394432"><ele>373.5</ele><time>2026-04-18T14:03:56.002Z</time></trkpt><trkpt lat="43.282962707071086" lon="10.742967393866884"><ele>371.0</ele><time>2026-04-18T14:03:58.002Z</time></trkpt><trkpt lat="43.283017624592546" lon="10.742854153333417"><ele>371.0</ele><time>2026-04-18T14:04:00.002Z</time></trkpt><trkpt lat="43.28308956149928" lon="10.742841023336682"><ele>371.0</ele><time>2026-04-18T14:04:01.002Z</time></trkpt><trkpt lat="43.28320569814693" lon="10.74279760349084"><ele>371.0</ele><time>2026-04-18T14:04:03.002Z</time></trkpt><trkpt lat="43.28326765407367" lon="10.742755690877013"><ele>371.0</ele><time>2026-04-18T14:04:04.002Z</time></trkpt><trkpt lat="43.283321859244836" lon="10.742685965122796"><ele>371.0</ele><time>2026-04-18T14:04:05.002Z</time></trkpt><trkpt lat="43.283370220751685" lon="10.7426285370606"><ele>371.0</ele><time>2026-04-18T14:04:06.002Z</time></trkpt><trkpt lat="43.283492484958735" lon="10.742581007011053"><ele>370.83333333333337</ele><time>2026-04-18T14:04:08.002Z</time></trkpt><trkpt lat="43.28361007869789" lon="10.742620529010347"><ele>370.6666666666667</ele><time>2026-04-18T14:04:10.002Z</time></trkpt><trkpt lat="43.2836626397548" lon="10.742711351349568"><ele>370.5</ele><time>2026-04-18T14:04:11.002Z</time></trkpt><trkpt lat="43.283739432060905" lon="10.742796270631358"><ele>370.3333333333333</ele><time>2026-04-18T14:04:12.002Z</time></trkpt><trkpt lat="43.28379360724043" lon="10.742857403847678"><ele>370.16666666666663</ele><time>2026-04-18T14:04:13.002Z</time></trkpt><trkpt lat="43.2838588204855" lon="10.742904118473628"><ele>370.0</ele><time>2026-04-18T14:04:14.002Z</time></trkpt><trkpt lat="43.28393470184195" lon="10.742926782471464"><ele>370.8</ele><time>2026-04-18T14:04:15.002Z</time></trkpt><trkpt lat="43.284027501310966" lon="10.742932678089776"><ele>371.6</ele><time>2026-04-18T14:04:16.002Z</time></trkpt><trkpt lat="43.284111674587194" lon="10.74294099233067"><ele>372.4</ele><time>2026-04-18T14:04:17.002Z</time></trkpt><trkpt lat="43.284188939198444" lon="10.742963392293886"><ele>373.2</ele><time>2026-04-18T14:04:18.002Z</time></trkpt><trkpt lat="43.284290444083034" lon="10.743036352249911"><ele>374.0</ele><time>2026-04-18T14:04:20.002Z</time></trkpt><trkpt lat="43.28439020389914" lon="10.74307831297944"><ele>374.0</ele><time>2026-04-18T14:04:22.002Z</time></trkpt><trkpt lat="43.2845221180925" lon="10.743079552907467"><ele>374.0</ele><time>2026-04-18T14:04:24Z</time></trkpt><trkpt lat="43.28461521336724" lon="10.743062002978153"><ele>374.0</ele><time>2026-04-18T14:04:25Z</time></trkpt><trkpt lat="43.28471693421126" lon="10.743039389625906"><ele>374.0</ele><time>2026-04-18T14:04:27Z</time></trkpt><trkpt lat="43.28479773900793" lon="10.743018594613133"><ele>374.0</ele><time>2026-04-18T14:04:31Z</time></trkpt><trkpt lat="43.28486938188336" lon="10.74300273908235"><ele>372.6666666666667</ele><time>2026-04-18T14:04:35Z</time></trkpt><trkpt lat="43.284932410789075" lon="10.742998415435103"><ele>371.33333333333337</ele><time>2026-04-18T14:04:41Z</time></trkpt><trkpt lat="43.284992126427795" lon="10.743047892478982"><ele>370.0</ele><time>2026-04-18T14:04:47Z</time></trkpt><trkpt lat="43.28504322186519" lon="10.74313314795687"><ele>368.6666666666667</ele><time>2026-04-18T14:04:52Z</time></trkpt><trkpt lat="43.28511735842926" lon="10.743223985008107"><ele>367.3333333333333</ele><time>2026-04-18T14:05:05.001Z</time></trkpt><trkpt lat="43.28521235175289" lon="10.743322278231663"><ele>366.0</ele><time>2026-04-18T14:05:07.001Z</time></trkpt><trkpt lat="43.28527676391861" lon="10.743364255617344"><ele>366.0</ele><time>2026-04-18T14:05:08.001Z</time></trkpt><trkpt lat="43.285340174042744" lon="10.743399743701191"><ele>366.0</ele><time>2026-04-18T14:05:09.001Z</time></trkpt><trkpt lat="43.285419436963316" lon="10.743412238265286"><ele>366.0</ele><time>2026-04-18T14:05:10.001Z</time></trkpt><trkpt lat="43.285485047878865" lon="10.743412138317078"><ele>366.0</ele><time>2026-04-18T14:05:11.001Z</time></trkpt><trkpt lat="43.28559435973177" lon="10.743439354238692"><ele>366.0</ele><time>2026-04-18T14:05:13.001Z</time></trkpt><trkpt lat="43.28564644415166" lon="10.743505236275661"><ele>366.0</ele><time>2026-04-18T14:05:14.001Z</time></trkpt><trkpt lat="43.285656639068655" lon="10.743617502151347"><ele>366.20000000000005</ele><time>2026-04-18T14:05:15.001Z</time></trkpt><trkpt lat="43.28568395468627" lon="10.743721457787029"><ele>366.40000000000003</ele><time>2026-04-18T14:05:16.001Z</time></trkpt><trkpt lat="43.28570853128448" lon="10.74380866728636"><ele>366.6</ele><time>2026-04-18T14:05:17.001Z</time></trkpt><trkpt lat="43.28575900213676" lon="10.743940723063105"><ele>366.8</ele><time>2026-04-18T14:05:19.001Z</time></trkpt><trkpt lat="43.28587359055933" lon="10.743981936297656"><ele>367.0</ele><time>2026-04-18T14:05:21.001Z</time></trkpt><trkpt lat="43.285925988539596" lon="10.74386701628177"><ele>367.0</ele><time>2026-04-18T14:05:23.001Z</time></trkpt><trkpt lat="43.28592965962877" lon="10.74376808784209"><ele>367.0</ele><time>2026-04-18T14:05:24.001Z</time></trkpt><trkpt lat="43.28591256041836" lon="10.743639683503455"><ele>367.0</ele><time>2026-04-18T14:05:25.001Z</time></trkpt><trkpt lat="43.285908549696714" lon="10.74353708213896"><ele>367.0</ele><time>2026-04-18T14:05:26.001Z</time></trkpt><trkpt lat="43.28591805101002" lon="10.743434601593057"><ele>367.0</ele><time>2026-04-18T14:05:27.001Z</time></trkpt><trkpt lat="43.2859180510112" lon="10.743342594324991"><ele>367.0</ele><time>2026-04-18T14:05:28.001Z</time></trkpt><trkpt lat="43.28592401003961" lon="10.74325295346376"><ele>365.66666666666663</ele><time>2026-04-18T14:05:29.001Z</time></trkpt><trkpt lat="43.28595319105656" lon="10.743160637143175"><ele>364.3333333333333</ele><time>2026-04-18T14:05:30.001Z</time></trkpt><trkpt lat="43.28602642359544" lon="10.743097565704304"><ele>363.0</ele><time>2026-04-18T14:05:31.001Z</time></trkpt><trkpt lat="43.28610041517891" lon="10.743006332426106"><ele>361.6666666666667</ele><time>2026-04-18T14:05:32.001Z</time></trkpt><trkpt lat="43.286159061275406" lon="10.742910454977364"><ele>360.33333333333337</ele><time>2026-04-18T14:05:33.001Z</time></trkpt><trkpt lat="43.286206475725955" lon="10.742799622800609"><ele>359.0</ele><time>2026-04-18T14:05:34.001Z</time></trkpt><trkpt lat="43.28624567119451" lon="10.742677938019227"><ele>357.1666666666667</ele><time>2026-04-18T14:05:35.001Z</time></trkpt><trkpt lat="43.286276679750586" lon="10.742553413023785"><ele>355.33333333333337</ele><time>2026-04-18T14:05:36.001Z</time></trkpt><trkpt lat="43.286300919557" lon="10.742438087547464"><ele>353.5</ele><time>2026-04-18T14:05:37.001Z</time></trkpt><trkpt lat="43.28631738440214" lon="10.742329453496675"><ele>351.6666666666667</ele><time>2026-04-18T14:05:38.001Z</time></trkpt><trkpt lat="43.28633256346957" lon="10.74222687977713"><ele>349.8333333333333</ele><time>2026-04-18T14:05:39.001Z</time></trkpt><trkpt lat="43.2863563080456" lon="10.742131489199306"><ele>348.0</ele><time>2026-04-18T14:05:40.001Z</time></trkpt><trkpt lat="43.286390222682364" lon="10.742008319696092"><ele>348.2</ele><time>2026-04-18T14:05:41.001Z</time></trkpt><trkpt lat="43.28644467068025" lon="10.74190171747821"><ele>348.4</ele><time>2026-04-18T14:05:42.001Z</time></trkpt><trkpt lat="43.28647737808229" lon="10.741771073310655"><ele>348.59999999999997</ele><time>2026-04-18T14:05:43.001Z</time></trkpt><trkpt lat="43.28653416834712" lon="10.741643142866568"><ele>348.79999999999995</ele><time>2026-04-18T14:05:44.001Z</time></trkpt><trkpt lat="43.28656854901898" lon="10.74151658031919"><ele>349.0</ele><time>2026-04-18T14:05:45.001Z</time></trkpt><trkpt lat="43.28661075859513" lon="10.741403027051561"><ele>349.0</ele><time>2026-04-18T14:05:46.001Z</time></trkpt><trkpt lat="43.28667953456875" lon="10.741310286483522"><ele>349.0</ele><time>2026-04-18T14:05:47.001Z</time></trkpt><trkpt lat="43.28672097822927" lon="10.741194140805613"><ele>349.0</ele><time>2026-04-18T14:05:48.001Z</time></trkpt><trkpt lat="43.28674911514821" lon="10.74107169071321"><ele>349.0</ele><time>2026-04-18T14:05:49.001Z</time></trkpt><trkpt lat="43.28678279316857" lon="10.74095447946063"><ele>349.0</ele><time>2026-04-18T14:05:50.002Z</time></trkpt><trkpt lat="43.28682423116573" lon="10.74081700750326"><ele>345.8333333333333</ele><time>2026-04-18T14:05:51.002Z</time></trkpt><trkpt lat="43.28686308334911" lon="10.740693505256955"><ele>342.66666666666663</ele><time>2026-04-18T14:05:52.002Z</time></trkpt><trkpt lat="43.2868861664053" lon="10.740576537676896"><ele>339.5</ele><time>2026-04-18T14:05:53.002Z</time></trkpt><trkpt lat="43.28692385998292" lon="10.740477611645423"><ele>336.3333333333333</ele><time>2026-04-18T14:05:54.002Z</time></trkpt><trkpt lat="43.28696821574064" lon="10.740369422221198"><ele>333.1666666666667</ele><time>2026-04-18T14:05:55.002Z</time></trkpt><trkpt lat="43.28700374892324" lon="10.740262006639098"><ele>330.0</ele><time>2026-04-18T14:05:56.002Z</time></trkpt><trkpt lat="43.28705952721591" lon="10.74016929650446"><ele>331.3333333333333</ele><time>2026-04-18T14:05:57.002Z</time></trkpt><trkpt lat="43.28712221364562" lon="10.740086944763231"><ele>332.6666666666667</ele><time>2026-04-18T14:05:58.002Z</time></trkpt><trkpt lat="43.28718300564782" lon="10.740025760444153"><ele>334.0</ele><time>2026-04-18T14:05:59.002Z</time></trkpt><trkpt lat="43.28723994866491" lon="10.73995507008836"><ele>335.33333333333337</ele><time>2026-04-18T14:06:00.002Z</time></trkpt><trkpt lat="43.28729425293785" lon="10.739871580135633"><ele>336.6666666666667</ele><time>2026-04-18T14:06:01.002Z</time></trkpt><trkpt lat="43.28733471642078" lon="10.739768604751204"><ele>338.0</ele><time>2026-04-18T14:06:02.002Z</time></trkpt><trkpt lat="43.2873884546621" lon="10.739667544953507"><ele>338.0</ele><time>2026-04-18T14:06:03.002Z</time></trkpt><trkpt lat="43.28742498293158" lon="10.739561275751306"><ele>338.0</ele><time>2026-04-18T14:06:04.002Z</time></trkpt><trkpt lat="43.28746657819884" lon="10.739480088512709"><ele>338.0</ele><time>2026-04-18T14:06:05.002Z</time></trkpt><trkpt lat="43.28749689808189" lon="10.739394575888305"><ele>338.0</ele><time>2026-04-18T14:06:06.002Z</time></trkpt><trkpt lat="43.28761470097605" lon="10.739325552972083"><ele>338.0</ele><time>2026-04-18T14:06:08.002Z</time></trkpt><trkpt lat="43.28772900636878" lon="10.739384800329653"><ele>338.0</ele><time>2026-04-18T14:06:10.002Z</time></trkpt><trkpt lat="43.28783492418347" lon="10.739487721599055"><ele>338.0</ele><time>2026-04-18T14:06:12.002Z</time></trkpt><trkpt lat="43.28787176328581" lon="10.739563546520753"><ele>338.0</ele><time>2026-04-18T14:06:13.002Z</time></trkpt><trkpt lat="43.287914184351095" lon="10.739628302379064"><ele>338.0</ele><time>2026-04-18T14:06:14.002Z</time></trkpt><trkpt lat="43.28798643343824" lon="10.739697240724691"><ele>338.0</ele><time>2026-04-18T14:06:16.002Z</time></trkpt><trkpt lat="43.28807302454405" lon="10.739725575256294"><ele>338.0</ele><time>2026-04-18T14:06:18.002Z</time></trkpt><trkpt lat="43.288132772630085" lon="10.739629966536622"><ele>336.4</ele><time>2026-04-18T14:06:19.002Z</time></trkpt><trkpt lat="43.2881450765088" lon="10.739530875264215"><ele>334.79999999999995</ele><time>2026-04-18T14:06:20.002Z</time></trkpt><trkpt lat="43.288156081820546" lon="10.739442268543893"><ele>333.2</ele><time>2026-04-18T14:06:21.002Z</time></trkpt><trkpt lat="43.28820419492304" lon="10.739249627740238"><ele>331.6</ele><time>2026-04-18T14:06:23.002Z</time></trkpt><trkpt lat="43.28824107192161" lon="10.73915486314785"><ele>330.0</ele><time>2026-04-18T14:06:24.002Z</time></trkpt><trkpt lat="43.288288579743664" lon="10.739052504170044"><ele>330.0</ele><time>2026-04-18T14:06:25.002Z</time></trkpt><trkpt lat="43.28833680943511" lon="10.738958889959015"><ele>330.0</ele><time>2026-04-18T14:06:26.002Z</time></trkpt><trkpt lat="43.288386847499964" lon="10.738867977956803"><ele>330.0</ele><time>2026-04-18T14:06:27.002Z</time></trkpt><trkpt lat="43.288443395556186" lon="10.738779723799697"><ele>330.0</ele><time>2026-04-18T14:06:28.002Z</time></trkpt><trkpt lat="43.288495436342934" lon="10.738684860156225"><ele>330.0</ele><time>2026-04-18T14:06:29.002Z</time></trkpt><trkpt lat="43.28855216659412" lon="10.738643791138765"><ele>330.0</ele><time>2026-04-18T14:06:30Z</time></trkpt><trkpt lat="43.28860812108816" lon="10.738586038653908"><ele>329.4</ele><time>2026-04-18T14:06:31Z</time></trkpt><trkpt lat="43.28868527025556" lon="10.738526587723749"><ele>328.8</ele><time>2026-04-18T14:06:32Z</time></trkpt><trkpt lat="43.28878881521038" lon="10.738470579768084"><ele>328.20000000000005</ele><time>2026-04-18T14:06:33Z</time></trkpt><trkpt lat="43.28887789583505" lon="10.738420951670232"><ele>327.6</ele><time>2026-04-18T14:06:34Z</time></trkpt><trkpt lat="43.288974518776584" lon="10.738376494668696"><ele>327.0</ele><time>2026-04-18T14:06:35Z</time></trkpt><trkpt lat="43.289075185014056" lon="10.738305774941896"><ele>327.0</ele><time>2026-04-18T14:06:36Z</time></trkpt><trkpt lat="43.28916006478741" lon="10.738214580256148"><ele>327.0</ele><time>2026-04-18T14:06:37Z</time></trkpt><trkpt lat="43.28925060001323" lon="10.738139837560558"><ele>327.0</ele><time>2026-04-18T14:06:38Z</time></trkpt><trkpt lat="43.289338519614724" lon="10.738092286480423"><ele>327.0</ele><time>2026-04-18T14:06:39Z</time></trkpt><trkpt lat="43.28941801519329" lon="10.738049231235376"><ele>327.0</ele><time>2026-04-18T14:06:40Z</time></trkpt><trkpt lat="43.28948998252544" lon="10.738010253466086"><ele>327.0</ele><time>2026-04-18T14:06:41Z</time></trkpt><trkpt lat="43.28955924081914" lon="10.737966491716834"><ele>327.0</ele><time>2026-04-18T14:06:42Z</time></trkpt><trkpt lat="43.289625241734086" lon="10.737879774745386"><ele>327.0</ele><time>2026-04-18T14:06:43Z</time></trkpt><trkpt lat="43.28968379504023" lon="10.73778870936796"><ele>327.0</ele><time>2026-04-18T14:06:44Z</time></trkpt><trkpt lat="43.28974252347208" lon="10.73770943370084"><ele>327.0</ele><time>2026-04-18T14:06:45Z</time></trkpt><trkpt lat="43.28980407057686" lon="10.737640461926436"><ele>327.0</ele><time>2026-04-18T14:06:46Z</time></trkpt><trkpt lat="43.2898762720389" lon="10.737559457014738"><ele>325.3333333333333</ele><time>2026-04-18T14:06:47Z</time></trkpt><trkpt lat="43.28994951197869" lon="10.737477619630939"><ele>323.6666666666667</ele><time>2026-04-18T14:06:48Z</time></trkpt><trkpt lat="43.290014872630834" lon="10.73739322157544"><ele>322.0</ele><time>2026-04-18T14:06:49Z</time></trkpt><trkpt lat="43.29007680034313" lon="10.737335335263623"><ele>320.33333333333337</ele><time>2026-04-18T14:06:50Z</time></trkpt><trkpt lat="43.29013286742903" lon="10.737281100539118"><ele>318.6666666666667</ele><time>2026-04-18T14:06:51Z</time></trkpt><trkpt lat="43.29018429418683" lon="10.737216230755731"><ele>317.0</ele><time>2026-04-18T14:06:52Z</time></trkpt><trkpt lat="43.29023372359357" lon="10.7371374311979"><ele>317.0</ele><time>2026-04-18T14:06:53Z</time></trkpt><trkpt lat="43.29027338137404" lon="10.737043335839166"><ele>317.0</ele><time>2026-04-18T14:06:54Z</time></trkpt><trkpt lat="43.29031328085587" lon="10.73695340052169"><ele>317.0</ele><time>2026-04-18T14:06:55Z</time></trkpt><trkpt lat="43.2903526426464" lon="10.73688189312635"><ele>317.0</ele><time>2026-04-18T14:06:56Z</time></trkpt><trkpt lat="43.2903757759953" lon="10.736788467807749"><ele>317.0</ele><time>2026-04-18T14:06:57Z</time></trkpt><trkpt lat="43.29037568506577" lon="10.736690238496404"><ele>317.0</ele><time>2026-04-18T14:06:58Z</time></trkpt><trkpt lat="43.29040725058921" lon="10.736593828749253"><ele>317.0</ele><time>2026-04-18T14:06:59.001Z</time></trkpt><trkpt lat="43.29039643196553" lon="10.736440292813711"><ele>314.2</ele><time>2026-04-18T14:07:00.001Z</time></trkpt><trkpt lat="43.290364701767366" lon="10.73629906765821"><ele>311.4</ele><time>2026-04-18T14:07:01.001Z</time></trkpt><trkpt lat="43.2903158773983" lon="10.73615660759221"><ele>308.6</ele><time>2026-04-18T14:07:02.001Z</time></trkpt><trkpt lat="43.290264461202845" lon="10.73604154000767"><ele>305.8</ele><time>2026-04-18T14:07:03.001Z</time></trkpt><trkpt lat="43.290197241908864" lon="10.735946247021737"><ele>303.0</ele><time>2026-04-18T14:07:04.001Z</time></trkpt><trkpt lat="43.29009234900872" lon="10.73588367761239"><ele>303.0</ele><time>2026-04-18T14:07:05.001Z</time></trkpt><trkpt lat="43.28998958749069" lon="10.73585068616715"><ele>303.0</ele><time>2026-04-18T14:07:06.001Z</time></trkpt><trkpt lat="43.28991883113808" lon="10.73584669363132"><ele>303.0</ele><time>2026-04-18T14:07:07.001Z</time></trkpt><trkpt lat="43.28984614366832" lon="10.73583761925243"><ele>303.0</ele><time>2026-04-18T14:07:08.001Z</time></trkpt><trkpt lat="43.289773419335155" lon="10.735816706036873"><ele>303.0</ele><time>2026-04-18T14:07:09.001Z</time></trkpt><trkpt lat="43.28967728962905" lon="10.735783606190537"><ele>303.0</ele><time>2026-04-18T14:07:10.001Z</time></trkpt><trkpt lat="43.28958337106142" lon="10.735765875042587"><ele>300.3333333333333</ele><time>2026-04-18T14:07:11.001Z</time></trkpt><trkpt lat="43.28949002733366" lon="10.73573850600054"><ele>297.6666666666667</ele><time>2026-04-18T14:07:12.001Z</time></trkpt><trkpt lat="43.28941166441722" lon="10.73569468453794"><ele>295.0</ele><time>2026-04-18T14:07:13.001Z</time></trkpt><trkpt lat="43.28934349039034" lon="10.735642033456735"><ele>292.33333333333337</ele><time>2026-04-18T14:07:14.001Z</time></trkpt><trkpt lat="43.28929050738027" lon="10.735585655458395"><ele>289.6666666666667</ele><time>2026-04-18T14:07:15.001Z</time></trkpt><trkpt lat="43.28924852873676" lon="10.735518058239595"><ele>287.0</ele><time>2026-04-18T14:07:16.001Z</time></trkpt><trkpt lat="43.28921868454824" lon="10.735439300290993"><ele>287.0</ele><time>2026-04-18T14:07:17.001Z</time></trkpt><trkpt lat="43.289205510139766" lon="10.73535362753585"><ele>287.0</ele><time>2026-04-18T14:07:18.001Z</time></trkpt><trkpt lat="43.28921272098951" lon="10.735261020925115"><ele>287.0</ele><time>2026-04-18T14:07:19.001Z</time></trkpt><trkpt lat="43.28922433362222" lon="10.73513999445691"><ele>287.0</ele><time>2026-04-18T14:07:20.001Z</time></trkpt><trkpt lat="43.289229742621636" lon="10.735023769703645"><ele>287.0</ele><time>2026-04-18T14:07:21.001Z</time></trkpt><trkpt lat="43.28923378329959" lon="10.73491021961408"><ele>287.0</ele><time>2026-04-18T14:07:22.001Z</time></trkpt><trkpt lat="43.28922892814665" lon="10.73481077909896"><ele>287.6666666666667</ele><time>2026-04-18T14:07:23.001Z</time></trkpt><trkpt lat="43.28919955960312" lon="10.734651684665717"><ele>288.33333333333337</ele><time>2026-04-18T14:07:25.001Z</time></trkpt><trkpt lat="43.28914422899423" lon="10.734532211369409"><ele>289.0</ele><time>2026-04-18T14:07:27.001Z</time></trkpt><trkpt lat="43.28912154109676" lon="10.734444300363833"><ele>289.6666666666667</ele><time>2026-04-18T14:07:29.001Z</time></trkpt><trkpt lat="43.28912206776729" lon="10.734342274045021"><ele>290.3333333333333</ele><time>2026-04-18T14:07:32.001Z</time></trkpt><trkpt lat="43.28916811896255" lon="10.734258828880957"><ele>291.0</ele><time>2026-04-18T14:07:47.001Z</time></trkpt><trkpt lat="43.28925361457215" lon="10.734140711458354"><ele>289.0</ele><time>2026-04-18T14:07:52.001Z</time></trkpt><trkpt lat="43.289304039700895" lon="10.734076779735865"><ele>287.0</ele><time>2026-04-18T14:07:54.001Z</time></trkpt><trkpt lat="43.28938218744393" lon="10.733998306893916"><ele>285.0</ele><time>2026-04-18T14:07:56.001Z</time></trkpt><trkpt lat="43.28946470721944" lon="10.733912491447581"><ele>283.0</ele><time>2026-04-18T14:07:58.001Z</time></trkpt><trkpt lat="43.289551366850134" lon="10.733818328474149"><ele>281.0</ele><time>2026-04-18T14:08:00.001Z</time></trkpt><trkpt lat="43.2896295017137" lon="10.733717480594148"><ele>281.0</ele><time>2026-04-18T14:08:02.002Z</time></trkpt><trkpt lat="43.28969131124801" lon="10.733589509381169"><ele>281.0</ele><time>2026-04-18T14:08:04.002Z</time></trkpt><trkpt lat="43.289746788367786" lon="10.73346328006743"><ele>281.0</ele><time>2026-04-18T14:08:06.002Z</time></trkpt><trkpt lat="43.28982535498945" lon="10.733376851347963"><ele>281.0</ele><time>2026-04-18T14:08:08.002Z</time></trkpt><trkpt lat="43.28991652115657" lon="10.733338227034272"><ele>281.0</ele><time>2026-04-18T14:08:10.002Z</time></trkpt><trkpt lat="43.290010532556146" lon="10.733322789567596"><ele>281.1666666666667</ele><time>2026-04-18T14:08:12.002Z</time></trkpt><trkpt lat="43.29011810460244" lon="10.733351490994101"><ele>281.33333333333337</ele><time>2026-04-18T14:08:14.002Z</time></trkpt><trkpt lat="43.29018126610041" lon="10.733360287638419"><ele>281.5</ele><time>2026-04-18T14:08:15.002Z</time></trkpt><trkpt lat="43.29024432999423" lon="10.733372240944622"><ele>281.6666666666667</ele><time>2026-04-18T14:08:16.002Z</time></trkpt><trkpt lat="43.29036531688123" lon="10.733406823893494"><ele>281.8333333333333</ele><time>2026-04-18T14:08:18.002Z</time></trkpt><trkpt lat="43.29043027882535" lon="10.73341533079608"><ele>282.0</ele><time>2026-04-18T14:08:19.002Z</time></trkpt><trkpt lat="43.29048684638059" lon="10.733455222752452"><ele>283.5</ele><time>2026-04-18T14:08:20.002Z</time></trkpt><trkpt lat="43.290569228857" lon="10.733561287349918"><ele>285.0</ele><time>2026-04-18T14:08:22.002Z</time></trkpt><trkpt lat="43.29060738073217" lon="10.733723658492707"><ele>286.5</ele><time>2026-04-18T14:08:24.002Z</time></trkpt><trkpt lat="43.290623904816805" lon="10.733879817733863"><ele>288.0</ele><time>2026-04-18T14:08:26.002Z</time></trkpt><trkpt lat="43.29069939385874" lon="10.733992587994855"><ele>288.00000000000006</ele><time>2026-04-18T14:08:28.002Z</time></trkpt><trkpt lat="43.290750079363704" lon="10.73405196929768"><ele>288.0</ele><time>2026-04-18T14:08:29.002Z</time></trkpt><trkpt lat="43.29082598643848" lon="10.734084704644216"><ele>288.0</ele><time>2026-04-18T14:08:31.002Z</time></trkpt><trkpt lat="43.29088795725057" lon="10.734101225850436"><ele>288.0</ele><time>2026-04-18T14:08:34.002Z</time></trkpt><trkpt lat="43.29095813490664" lon="10.734096742594176"><ele>288.0</ele><time>2026-04-18T14:08:55Z</time></trkpt><trkpt lat="43.29105073265715" lon="10.73409248291239"><ele>288.00000000000006</ele><time>2026-04-18T14:08:59Z</time></trkpt><trkpt lat="43.291121248810725" lon="10.734108879508966"><ele>288.0</ele><time>2026-04-18T14:09:01Z</time></trkpt><trkpt lat="43.29119964677149" lon="10.73413537899162"><ele>288.0</ele><time>2026-04-18T14:09:03Z</time></trkpt><trkpt lat="43.29130955559872" lon="10.73420147302521"><ele>288.0</ele><time>2026-04-18T14:09:05Z</time></trkpt><trkpt lat="43.29139740525446" lon="10.73431503087304"><ele>288.0</ele><time>2026-04-18T14:09:07Z</time></trkpt><trkpt lat="43.29144790835009" lon="10.734403598005969"><ele>288.0</ele><time>2026-04-18T14:09:08Z</time></trkpt><trkpt lat="43.29148809751278" lon="10.73448210132303"><ele>288.0</ele><time>2026-04-18T14:09:09Z</time></trkpt><trkpt lat="43.29152661182855" lon="10.734564449323857"><ele>287.6</ele><time>2026-04-18T14:09:10Z</time></trkpt><trkpt lat="43.29155862844307" lon="10.7346464206306"><ele>287.20000000000005</ele><time>2026-04-18T14:09:11Z</time></trkpt><trkpt lat="43.29157022799317" lon="10.73479357394188"><ele>286.8</ele><time>2026-04-18T14:09:13Z</time></trkpt><trkpt lat="43.2915999501003" lon="10.734923061054436"><ele>286.40000000000003</ele><time>2026-04-18T14:09:15Z</time></trkpt><trkpt lat="43.29172614613671" lon="10.735047253045275"><ele>286.0</ele><time>2026-04-18T14:09:17Z</time></trkpt><trkpt lat="43.29180029134493" lon="10.735015430576787"><ele>286.0</ele><time>2026-04-18T14:09:18Z</time></trkpt><trkpt lat="43.291843815265025" lon="10.734921293352688"><ele>286.0</ele><time>2026-04-18T14:09:19Z</time></trkpt><trkpt lat="43.291922578331025" lon="10.734818869828967"><ele>286.0</ele><time>2026-04-18T14:09:21Z</time></trkpt><trkpt lat="43.29199065316814" lon="10.73477914819804"><ele>286.0</ele><time>2026-04-18T14:09:22Z</time></trkpt><trkpt lat="43.29206608676082" lon="10.734683614787084"><ele>286.0</ele><time>2026-04-18T14:09:23Z</time></trkpt><trkpt lat="43.292105205771676" lon="10.734541638678653"><ele>286.0</ele><time>2026-04-18T14:09:24Z</time></trkpt><trkpt lat="43.292132225161694" lon="10.734437068674882"><ele>286.0</ele><time>2026-04-18T14:09:25.001Z</time></trkpt><trkpt lat="43.2921466198973" lon="10.734344327245859"><ele>286.0</ele><time>2026-04-18T14:09:26.001Z</time></trkpt><trkpt lat="43.29217123903967" lon="10.73423891582779"><ele>286.0</ele><time>2026-04-18T14:09:27.001Z</time></trkpt><trkpt lat="43.2921938900963" lon="10.734145726660543"><ele>286.0</ele><time>2026-04-18T14:09:28.001Z</time></trkpt><trkpt lat="43.29221643463394" lon="10.734051817314665"><ele>286.0</ele><time>2026-04-18T14:09:29.001Z</time></trkpt><trkpt lat="43.29227812946753" lon="10.733970658585921"><ele>286.0</ele><time>2026-04-18T14:09:30.001Z</time></trkpt><trkpt lat="43.29229222542854" lon="10.733855865121003"><ele>286.0</ele><time>2026-04-18T14:09:31.001Z</time></trkpt><trkpt lat="43.292295447006325" lon="10.733760349816505"><ele>286.0</ele><time>2026-04-18T14:09:32.001Z</time></trkpt><trkpt lat="43.292289023625436" lon="10.733643377431811"><ele>286.0</ele><time>2026-04-18T14:09:33.001Z</time></trkpt><trkpt lat="43.29230339281121" lon="10.733548511724043"><ele>286.0</ele><time>2026-04-18T14:09:34.001Z</time></trkpt><trkpt lat="43.29230235580588" lon="10.733407304543697"><ele>286.0</ele><time>2026-04-18T14:09:36.001Z</time></trkpt><trkpt lat="43.29234088836764" lon="10.733313300184534"><ele>283.3333333333333</ele><time>2026-04-18T14:09:38.001Z</time></trkpt><trkpt lat="43.29234693930545" lon="10.733165526444095"><ele>280.66666666666663</ele><time>2026-04-18T14:09:40.001Z</time></trkpt><trkpt lat="43.29238715653361" lon="10.733076993922072"><ele>278.0</ele><time>2026-04-18T14:09:41.001Z</time></trkpt><trkpt lat="43.29243805112195" lon="10.733019755580322"><ele>275.3333333333333</ele><time>2026-04-18T14:09:42.001Z</time></trkpt><trkpt lat="43.29250746356474" lon="10.732976800540278"><ele>272.6666666666667</ele><time>2026-04-18T14:09:43.001Z</time></trkpt><trkpt lat="43.29259265417941" lon="10.733005027695732"><ele>270.0</ele><time>2026-04-18T14:09:44.001Z</time></trkpt><trkpt lat="43.29272307113192" lon="10.733010621940359"><ele>270.0</ele><time>2026-04-18T14:09:46.001Z</time></trkpt><trkpt lat="43.29282381728625" lon="10.733013494566107"><ele>270.0</ele><time>2026-04-18T14:09:48.001Z</time></trkpt><trkpt lat="43.29291270441576" lon="10.733019416804588"><ele>270.0</ele><time>2026-04-18T14:09:50.001Z</time></trkpt><trkpt lat="43.293000697494406" lon="10.733025643350592"><ele>270.0</ele><time>2026-04-18T14:09:52.001Z</time></trkpt><trkpt lat="43.293077807891315" lon="10.733023301763987"><ele>270.0</ele><time>2026-04-18T14:09:54.001Z</time></trkpt><trkpt lat="43.29314234622992" lon="10.732964422363077"><ele>270.0</ele><time>2026-04-18T14:09:56.001Z</time></trkpt><trkpt lat="43.29316032018396" lon="10.732868291077429"><ele>269.5</ele><time>2026-04-18T14:09:57.001Z</time></trkpt><trkpt lat="43.293155301132565" lon="10.732771513360559"><ele>269.0</ele><time>2026-04-18T14:09:58.001Z</time></trkpt><trkpt lat="43.293144431952776" lon="10.732678539360386"><ele>268.5</ele><time>2026-04-18T14:09:59.001Z</time></trkpt><trkpt lat="43.293116564696795" lon="10.73254377253462"><ele>268.0</ele><time>2026-04-18T14:10:01.001Z</time></trkpt><trkpt lat="43.29310625811327" lon="10.732449932562666"><ele>267.5</ele><time>2026-04-18T14:10:02.001Z</time></trkpt><trkpt lat="43.29313530076087" lon="10.732292453457541"><ele>267.0</ele><time>2026-04-18T14:10:04.001Z</time></trkpt><trkpt lat="43.293175346691946" lon="10.732154616381502"><ele>267.0</ele><time>2026-04-18T14:10:06.001Z</time></trkpt><trkpt lat="43.293183539682616" lon="10.732019917264866"><ele>267.0</ele><time>2026-04-18T14:10:08.001Z</time></trkpt><trkpt lat="43.29314475998741" lon="10.731878385461272"><ele>267.0</ele><time>2026-04-18T14:10:10.001Z</time></trkpt><trkpt lat="43.293117488582745" lon="10.731783558999533"><ele>267.0</ele><time>2026-04-18T14:10:11.001Z</time></trkpt><trkpt lat="43.293073756060174" lon="10.73171825900998"><ele>267.0</ele><time>2026-04-18T14:10:12.001Z</time></trkpt><trkpt lat="43.29301264322661" lon="10.731576383324228"><ele>265.0</ele><time>2026-04-18T14:10:14.001Z</time></trkpt><trkpt lat="43.292984293215476" lon="10.731493785104231"><ele>263.0</ele><time>2026-04-18T14:10:15.001Z</time></trkpt><trkpt lat="43.292966436898745" lon="10.731355831108866"><ele>261.0</ele><time>2026-04-18T14:10:17.001Z</time></trkpt><trkpt lat="43.29302040230399" lon="10.731229711788899"><ele>259.0</ele><time>2026-04-18T14:10:19.002Z</time></trkpt><trkpt lat="43.2931018900702" lon="10.731108460730256"><ele>257.0</ele><time>2026-04-18T14:10:21.002Z</time></trkpt><trkpt lat="43.293142767008135" lon="10.730986207298766"><ele>257.0</ele><time>2026-04-18T14:10:23.002Z</time></trkpt><trkpt lat="43.29316985426785" lon="10.730884671640677"><ele>257.0</ele><time>2026-04-18T14:10:25.002Z</time></trkpt><trkpt lat="43.293220886625704" lon="10.730792297953478"><ele>257.0</ele><time>2026-04-18T14:10:28.002Z</time></trkpt><trkpt lat="43.29325430802881" lon="10.730688362587609"><ele>257.0</ele><time>2026-04-18T14:10:31.002Z</time></trkpt><trkpt lat="43.293280089294015" lon="10.730586586909931"><ele>257.0</ele><time>2026-04-18T14:10:33.002Z</time></trkpt><trkpt lat="43.29330002470876" lon="10.730462062611902"><ele>257.0</ele><time>2026-04-18T14:10:35.002Z</time></trkpt><trkpt lat="43.29333430028432" lon="10.730337453837581"><ele>254.2</ele><time>2026-04-18T14:10:37.002Z</time></trkpt><trkpt lat="43.293377674414664" lon="10.730201070183838"><ele>251.39999999999998</ele><time>2026-04-18T14:10:39.002Z</time></trkpt><trkpt lat="43.29344747383907" lon="10.730086016831459"><ele>248.60000000000002</ele><time>2026-04-18T14:10:41.002Z</time></trkpt><trkpt lat="43.293551127846484" lon="10.730026903666877"><ele>245.8</ele><time>2026-04-18T14:10:43Z</time></trkpt><trkpt lat="43.29365750486084" lon="10.729974439124357"><ele>243.0</ele><time>2026-04-18T14:10:45Z</time></trkpt><trkpt lat="43.29376059177248" lon="10.729907218273244"><ele>243.0</ele><time>2026-04-18T14:10:47Z</time></trkpt><trkpt lat="43.2938234761212" lon="10.729899065224096"><ele>243.0</ele><time>2026-04-18T14:10:48Z</time></trkpt><trkpt lat="43.293893980412236" lon="10.729885655250307"><ele>243.0</ele><time>2026-04-18T14:10:49Z</time></trkpt><trkpt lat="43.29401497204187" lon="10.729849554112112"><ele>243.0</ele><time>2026-04-18T14:10:51Z</time></trkpt><trkpt lat="43.294112409988834" lon="10.729798074341652"><ele>243.0</ele><time>2026-04-18T14:10:53Z</time></trkpt><trkpt lat="43.29421504713189" lon="10.729736655461126"><ele>244.83333333333334</ele><time>2026-04-18T14:10:55Z</time></trkpt><trkpt lat="43.29428335094618" lon="10.729712814915493"><ele>246.66666666666669</ele><time>2026-04-18T14:10:57Z</time></trkpt><trkpt lat="43.29437082136777" lon="10.72965857276076"><ele>248.5</ele><time>2026-04-18T14:11:00Z</time></trkpt><trkpt lat="43.2944401930525" lon="10.729630848414294"><ele>250.33333333333334</ele><time>2026-04-18T14:11:03Z</time></trkpt><trkpt lat="43.29452029098917" lon="10.729658989494666"><ele>252.16666666666669</ele><time>2026-04-18T14:11:07Z</time></trkpt><trkpt lat="43.29455759443044" lon="10.72974563290159"><ele>254.0</ele><time>2026-04-18T14:11:09Z</time></trkpt><trkpt lat="43.29457082622771" lon="10.729837074690488"><ele>254.0</ele><time>2026-04-18T14:11:12Z</time></trkpt><trkpt lat="43.29472775236894" lon="10.729776479792836"><ele>253.99999999999997</ele><time>2026-04-18T14:11:19Z</time></trkpt><trkpt lat="43.29477284650836" lon="10.729688467422806"><ele>253.99999999999997</ele><time>2026-04-18T14:11:21Z</time></trkpt><trkpt lat="43.2947821135848" lon="10.729539212170401"><ele>254.0</ele><time>2026-04-18T14:11:23Z</time></trkpt><trkpt lat="43.294782530936985" lon="10.729451909441275"><ele>254.0</ele><time>2026-04-18T14:11:25Z</time></trkpt><trkpt lat="43.29479558405622" lon="10.729351554548218"><ele>252.0</ele><time>2026-04-18T14:11:27.001Z</time></trkpt><trkpt lat="43.29488531871866" lon="10.729260598322366"><ele>249.99999999999997</ele><time>2026-04-18T14:11:29.001Z</time></trkpt><trkpt lat="43.29498751255105" lon="10.729191216134193"><ele>247.99999999999997</ele><time>2026-04-18T14:11:31.001Z</time></trkpt><trkpt lat="43.2950941889248" lon="10.729121285101833"><ele>246.0</ele><time>2026-04-18T14:11:33.001Z</time></trkpt><trkpt lat="43.29515506947115" lon="10.729086617004503"><ele>244.0</ele><time>2026-04-18T14:11:34.001Z</time></trkpt><trkpt lat="43.29521305269705" lon="10.729039880212856"><ele>243.99999999999997</ele><time>2026-04-18T14:11:35.001Z</time></trkpt><trkpt lat="43.29527002321863" lon="10.728990653576924"><ele>244.0</ele><time>2026-04-18T14:11:36.001Z</time></trkpt><trkpt lat="43.29532371274809" lon="10.728930179125724"><ele>244.0</ele><time>2026-04-18T14:11:37.001Z</time></trkpt><trkpt lat="43.29538560617176" lon="10.728867843707249"><ele>244.0</ele><time>2026-04-18T14:11:38.001Z</time></trkpt><trkpt lat="43.29544785736399" lon="10.728792161563357"><ele>243.99999999999997</ele><time>2026-04-18T14:11:39.001Z</time></trkpt><trkpt lat="43.29550882887465" lon="10.728701936242077"><ele>244.0</ele><time>2026-04-18T14:11:40.001Z</time></trkpt><trkpt lat="43.29555807701779" lon="10.728600435470883"><ele>240.16666666666666</ele><time>2026-04-18T14:11:41.001Z</time></trkpt><trkpt lat="43.295601290392256" lon="10.728501663365552"><ele>236.33333333333331</ele><time>2026-04-18T14:11:42.001Z</time></trkpt><trkpt lat="43.29566468733132" lon="10.728412935991882"><ele>232.5</ele><time>2026-04-18T14:11:43.001Z</time></trkpt><trkpt lat="43.29569372681081" lon="10.728322637730555"><ele>228.66666666666669</ele><time>2026-04-18T14:11:44.001Z</time></trkpt><trkpt lat="43.295739202206704" lon="10.728244514066496"><ele>224.83333333333334</ele><time>2026-04-18T14:11:46.001Z</time></trkpt><trkpt lat="43.29580051482376" lon="10.728132887510332"><ele>221.0</ele><time>2026-04-18T14:11:49.001Z</time></trkpt><trkpt lat="43.29582554469955" lon="10.728027192001813"><ele>221.0</ele><time>2026-04-18T14:11:51.001Z</time></trkpt><trkpt lat="43.29586806533351" lon="10.727914550132548"><ele>221.00000000000003</ele><time>2026-04-18T14:11:53.001Z</time></trkpt><trkpt lat="43.29587414196744" lon="10.72778781583991"><ele>221.00000000000003</ele><time>2026-04-18T14:11:55.001Z</time></trkpt><trkpt lat="43.295828460442806" lon="10.727663901239598"><ele>221.0</ele><time>2026-04-18T14:11:57.001Z</time></trkpt><trkpt lat="43.295744813533894" lon="10.727532227306083"><ele>221.0</ele><time>2026-04-18T14:11:59.001Z</time></trkpt><trkpt lat="43.29569458573555" lon="10.72746893672703"><ele>220.16666666666669</ele><time>2026-04-18T14:12:00.001Z</time></trkpt><trkpt lat="43.29564203702337" lon="10.727403282451135"><ele>219.33333333333334</ele><time>2026-04-18T14:12:01.001Z</time></trkpt><trkpt lat="43.295593661108924" lon="10.727335129980595"><ele>218.5</ele><time>2026-04-18T14:12:02.001Z</time></trkpt><trkpt lat="43.295534503174565" lon="10.727260644339248"><ele>217.66666666666669</ele><time>2026-04-18T14:12:03.001Z</time></trkpt><trkpt lat="43.29546969880839" lon="10.727187314397018"><ele>216.83333333333334</ele><time>2026-04-18T14:12:04.001Z</time></trkpt><trkpt lat="43.295406199878315" lon="10.727127408874704"><ele>216.0</ele><time>2026-04-18T14:12:05.001Z</time></trkpt><trkpt lat="43.295345423099896" lon="10.727019621159783"><ele>215.5</ele><time>2026-04-18T14:12:07.001Z</time></trkpt><trkpt lat="43.29537533913246" lon="10.726922000365633"><ele>215.0</ele><time>2026-04-18T14:12:09.001Z</time></trkpt><trkpt lat="43.29543475673291" lon="10.726866690518426"><ele>214.5</ele><time>2026-04-18T14:12:10.001Z</time></trkpt><trkpt lat="43.29549774398582" lon="10.726804056979628"><ele>214.0</ele><time>2026-04-18T14:12:11.001Z</time></trkpt><trkpt lat="43.295549873046404" lon="10.726742608770376"><ele>213.5</ele><time>2026-04-18T14:12:12.001Z</time></trkpt><trkpt lat="43.29561025054749" lon="10.726709488754231"><ele>213.0</ele><time>2026-04-18T14:12:13.001Z</time></trkpt><trkpt lat="43.29573404213702" lon="10.726731488975469"><ele>213.5</ele><time>2026-04-18T14:12:15.001Z</time></trkpt><trkpt lat="43.29579958577039" lon="10.72677453655639"><ele>214.0</ele><time>2026-04-18T14:12:16.001Z</time></trkpt><trkpt lat="43.29586501361838" lon="10.726830402691125"><ele>214.5</ele><time>2026-04-18T14:12:17.001Z</time></trkpt><trkpt lat="43.29593431740287" lon="10.726897848781837"><ele>215.0</ele><time>2026-04-18T14:12:18.001Z</time></trkpt><trkpt lat="43.29601353368743" lon="10.726956559399026"><ele>215.5</ele><time>2026-04-18T14:12:19.002Z</time></trkpt><trkpt lat="43.29608316871221" lon="10.727036484837818"><ele>216.0</ele><time>2026-04-18T14:12:20.002Z</time></trkpt><trkpt lat="43.29614654348587" lon="10.727104582541973"><ele>216.0</ele><time>2026-04-18T14:12:21.002Z</time></trkpt><trkpt lat="43.29619998971414" lon="10.727157495076385"><ele>216.0</ele><time>2026-04-18T14:12:22.002Z</time></trkpt><trkpt lat="43.29626073827845" lon="10.72719245186831"><ele>216.0</ele><time>2026-04-18T14:12:23.002Z</time></trkpt><trkpt lat="43.29633176387913" lon="10.727222714797902"><ele>216.0</ele><time>2026-04-18T14:12:24.002Z</time></trkpt><trkpt lat="43.296396059538345" lon="10.727159805790928"><ele>216.0</ele><time>2026-04-18T14:12:25.002Z</time></trkpt><trkpt lat="43.29639402358247" lon="10.727052436490364"><ele>216.0</ele><time>2026-04-18T14:12:26.002Z</time></trkpt><trkpt lat="43.296390337941304" lon="10.726927232876545"><ele>214.16666666666666</ele><time>2026-04-18T14:12:27.002Z</time></trkpt><trkpt lat="43.29639120010656" lon="10.726825182991917"><ele>212.33333333333331</ele><time>2026-04-18T14:12:28.002Z</time></trkpt><trkpt lat="43.29640291510368" lon="10.726722414204868"><ele>210.5</ele><time>2026-04-18T14:12:29.002Z</time></trkpt><trkpt lat="43.2964327965614" lon="10.726615402024455"><ele>208.66666666666666</ele><time>2026-04-18T14:12:30.002Z</time></trkpt><trkpt lat="43.29647374501859" lon="10.72650327648113"><ele>206.83333333333331</ele><time>2026-04-18T14:12:31.002Z</time></trkpt><trkpt lat="43.29651156881681" lon="10.726397599947394"><ele>205.0</ele><time>2026-04-18T14:12:32.002Z</time></trkpt><trkpt lat="43.29654412796404" lon="10.726294535567016"><ele>203.66666666666666</ele><time>2026-04-18T14:12:33.002Z</time></trkpt><trkpt lat="43.29656461736292" lon="10.726207019404363"><ele>202.33333333333331</ele><time>2026-04-18T14:12:34.002Z</time></trkpt><trkpt lat="43.29655823607768" lon="10.72610954705529"><ele>201.0</ele><time>2026-04-18T14:12:35.002Z</time></trkpt><trkpt lat="43.29649567470579" lon="10.726026411347181"><ele>199.66666666666669</ele><time>2026-04-18T14:12:36.002Z</time></trkpt><trkpt lat="43.29644454985012" lon="10.725946766026428"><ele>198.33333333333334</ele><time>2026-04-18T14:12:37.002Z</time></trkpt><trkpt lat="43.29640262592802" lon="10.725855008972543"><ele>197.0</ele><time>2026-04-18T14:12:38.002Z</time></trkpt><trkpt lat="43.29637326696069" lon="10.725738820149331"><ele>197.00000000000003</ele><time>2026-04-18T14:12:39.002Z</time></trkpt><trkpt lat="43.296395200954294" lon="10.725620093185993"><ele>197.0</ele><time>2026-04-18T14:12:40.002Z</time></trkpt><trkpt lat="43.29642702774274" lon="10.72551400062297"><ele>197.0</ele><time>2026-04-18T14:12:41.002Z</time></trkpt><trkpt lat="43.29647066103478" lon="10.725418759761634"><ele>197.0</ele><time>2026-04-18T14:12:42.002Z</time></trkpt><trkpt lat="43.296519337007325" lon="10.7253205253132"><ele>197.00000000000003</ele><time>2026-04-18T14:12:43.002Z</time></trkpt><trkpt lat="43.29657359881956" lon="10.72522584869148"><ele>197.0</ele><time>2026-04-18T14:12:44.002Z</time></trkpt><trkpt lat="43.296635727812635" lon="10.725146375782241"><ele>195.00000000000003</ele><time>2026-04-18T14:12:45.002Z</time></trkpt><trkpt lat="43.29670554330342" lon="10.725090634490272"><ele>193.0</ele><time>2026-04-18T14:12:46.002Z</time></trkpt><trkpt lat="43.29676894510791" lon="10.725009068863004"><ele>191.0</ele><time>2026-04-18T14:12:47.002Z</time></trkpt><trkpt lat="43.296845210931295" lon="10.724965334201823"><ele>189.0</ele><time>2026-04-18T14:12:48Z</time></trkpt><trkpt lat="43.29692891319627" lon="10.724934554496235"><ele>187.0</ele><time>2026-04-18T14:12:49Z</time></trkpt><trkpt lat="43.297014883161616" lon="10.724900706140582"><ele>185.0</ele><time>2026-04-18T14:12:50Z</time></trkpt><trkpt lat="43.297107481246755" lon="10.724902812474678"><ele>185.0</ele><time>2026-04-18T14:12:51Z</time></trkpt><trkpt lat="43.297192572934954" lon="10.724846274554375"><ele>185.0</ele><time>2026-04-18T14:12:52Z</time></trkpt><trkpt lat="43.29727404444071" lon="10.724816899409117"><ele>185.0</ele><time>2026-04-18T14:12:53Z</time></trkpt><trkpt lat="43.297347256779304" lon="10.724796550976965"><ele>185.0</ele><time>2026-04-18T14:12:54Z</time></trkpt><trkpt lat="43.29740958690113" lon="10.724770911852737"><ele>185.0</ele><time>2026-04-18T14:12:55Z</time></trkpt><trkpt lat="43.297521471642334" lon="10.724723935090498"><ele>185.0</ele><time>2026-04-18T14:12:57Z</time></trkpt><trkpt lat="43.29763508671167" lon="10.724684693936107"><ele>185.0</ele><time>2026-04-18T14:12:59Z</time></trkpt><trkpt lat="43.297707911372704" lon="10.724666456299008"><ele>185.0</ele><time>2026-04-18T14:13:01Z</time></trkpt><trkpt lat="43.29775801670315" lon="10.724584884259132"><ele>185.0</ele><time>2026-04-18T14:13:04Z</time></trkpt><trkpt lat="43.29771208490873" lon="10.724441207258158"><ele>185.0</ele><time>2026-04-18T14:13:06Z</time></trkpt><trkpt lat="43.29765762198595" lon="10.724371497167349"><ele>185.0</ele><time>2026-04-18T14:13:09Z</time></trkpt><trkpt lat="43.29761804389059" lon="10.72425965641421"><ele>185.0</ele><time>2026-04-18T14:13:12Z</time></trkpt><trkpt lat="43.29757239542996" lon="10.724156334693486"><ele>185.33333333333331</ele><time>2026-04-18T14:13:15Z</time></trkpt><trkpt lat="43.29752161956025" lon="10.724083107470063"><ele>185.66666666666666</ele><time>2026-04-18T14:13:17Z</time></trkpt><trkpt lat="43.29745427412763" lon="10.723965572599424"><ele>186.0</ele><time>2026-04-18T14:13:19Z</time></trkpt><trkpt lat="43.29742120765215" lon="10.723868607830626"><ele>186.33333333333334</ele><time>2026-04-18T14:13:20Z</time></trkpt><trkpt lat="43.29736443729003" lon="10.72377904552865"><ele>186.66666666666669</ele><time>2026-04-18T14:13:21Z</time></trkpt><trkpt lat="43.297331558626524" lon="10.723682470792054"><ele>187.0</ele><time>2026-04-18T14:13:22Z</time></trkpt><trkpt lat="43.297309159548725" lon="10.723580131566154"><ele>187.5</ele><time>2026-04-18T14:13:23Z</time></trkpt><trkpt lat="43.29730188087231" lon="10.723458511458434"><ele>188.0</ele><time>2026-04-18T14:13:24Z</time></trkpt><trkpt lat="43.297293077399026" lon="10.723324609149508"><ele>188.5</ele><time>2026-04-18T14:13:25Z</time></trkpt><trkpt lat="43.297301194659546" lon="10.723212295767079"><ele>189.0</ele><time>2026-04-18T14:13:26Z</time></trkpt><trkpt lat="43.2972754027163" lon="10.72310357449605"><ele>189.5</ele><time>2026-04-18T14:13:27Z</time></trkpt><trkpt lat="43.29724310671478" lon="10.722996589266073"><ele>190.0</ele><time>2026-04-18T14:13:28Z</time></trkpt><trkpt lat="43.297202882088264" lon="10.722893919739745"><ele>190.0</ele><time>2026-04-18T14:13:29Z</time></trkpt><trkpt lat="43.29716260944904" lon="10.722768873839161"><ele>190.0</ele><time>2026-04-18T14:13:30Z</time></trkpt><trkpt lat="43.29708267371714" lon="10.722643693987939"><ele>190.0</ele><time>2026-04-18T14:13:31Z</time></trkpt><trkpt lat="43.29699572337577" lon="10.722549724148157"><ele>190.0</ele><time>2026-04-18T14:13:32Z</time></trkpt><trkpt lat="43.2969046773001" lon="10.722463723927923"><ele>190.0</ele><time>2026-04-18T14:13:33Z</time></trkpt><trkpt lat="43.29682674138661" lon="10.722398909511865"><ele>188.5</ele><time>2026-04-18T14:13:34Z</time></trkpt><trkpt lat="43.29678649356485" lon="10.722327155566687"><ele>187.0</ele><time>2026-04-18T14:13:35Z</time></trkpt><trkpt lat="43.29675534681144" lon="10.72221799741026"><ele>185.5</ele><time>2026-04-18T14:13:36.001Z</time></trkpt><trkpt lat="43.296728906554556" lon="10.722103532915755"><ele>184.0</ele><time>2026-04-18T14:13:37.001Z</time></trkpt><trkpt lat="43.296704370212446" lon="10.721970033212422"><ele>182.5</ele><time>2026-04-18T14:13:38.001Z</time></trkpt><trkpt lat="43.29666492281429" lon="10.721848672735511"><ele>181.0</ele><time>2026-04-18T14:13:39.001Z</time></trkpt><trkpt lat="43.29664395580982" lon="10.721726645739427"><ele>180.0</ele><time>2026-04-18T14:13:40.001Z</time></trkpt><trkpt lat="43.29662618385058" lon="10.721598774987601"><ele>179.0</ele><time>2026-04-18T14:13:41.001Z</time></trkpt><trkpt lat="43.296602652043106" lon="10.721489776327298"><ele>178.0</ele><time>2026-04-18T14:13:42.001Z</time></trkpt><trkpt lat="43.296588998935604" lon="10.721381909586421"><ele>177.0</ele><time>2026-04-18T14:13:43.001Z</time></trkpt><trkpt lat="43.29663683307519" lon="10.721300257724877"><ele>176.0</ele><time>2026-04-18T14:13:44.001Z</time></trkpt><trkpt lat="43.296694431179255" lon="10.72125760955741"><ele>175.0</ele><time>2026-04-18T14:13:45.001Z</time></trkpt><trkpt lat="43.29675558516964" lon="10.721181852682138"><ele>175.0</ele><time>2026-04-18T14:13:46.001Z</time></trkpt><trkpt lat="43.2968284999484" lon="10.7210869721871"><ele>175.0</ele><time>2026-04-18T14:13:47.001Z</time></trkpt><trkpt lat="43.29689596837307" lon="10.720978004522532"><ele>175.0</ele><time>2026-04-18T14:13:48.001Z</time></trkpt><trkpt lat="43.296976892226695" lon="10.720877730135209"><ele>175.0</ele><time>2026-04-18T14:13:49.001Z</time></trkpt><trkpt lat="43.297060259512065" lon="10.720773421729378"><ele>175.0</ele><time>2026-04-18T14:13:50.001Z</time></trkpt><trkpt lat="43.29714363630201" lon="10.720667221390336"><ele>175.0</ele><time>2026-04-18T14:13:51.001Z</time></trkpt><trkpt lat="43.297230491082225" lon="10.720550697222661"><ele>175.0</ele><time>2026-04-18T14:13:52.001Z</time></trkpt><trkpt lat="43.2973172246858" lon="10.72044004708573"><ele>175.0</ele><time>2026-04-18T14:13:53.001Z</time></trkpt><trkpt lat="43.297399481535976" lon="10.720328604126053"><ele>175.0</ele><time>2026-04-18T14:13:54.001Z</time></trkpt><trkpt lat="43.29748526988223" lon="10.720226860936574"><ele>175.0</ele><time>2026-04-18T14:13:55.001Z</time></trkpt><trkpt lat="43.29756976251413" lon="10.720124388374533"><ele>175.0</ele><time>2026-04-18T14:13:56.001Z</time></trkpt><trkpt lat="43.29764691012217" lon="10.720028599193881"><ele>175.0</ele><time>2026-04-18T14:13:57.001Z</time></trkpt><trkpt lat="43.29771342018421" lon="10.719944552306158"><ele>175.0</ele><time>2026-04-18T14:13:58.001Z</time></trkpt><trkpt lat="43.29776627298327" lon="10.71987010436615"><ele>175.0</ele><time>2026-04-18T14:13:59.001Z</time></trkpt><trkpt lat="43.297811331755874" lon="10.719807952412529"><ele>175.0</ele><time>2026-04-18T14:14:00.001Z</time></trkpt><trkpt lat="43.297863186755976" lon="10.719757044090008"><ele>175.0</ele><time>2026-04-18T14:14:01.001Z</time></trkpt><trkpt lat="43.297903138102456" lon="10.719675703919991"><ele>175.0</ele><time>2026-04-18T14:14:03.001Z</time></trkpt><trkpt lat="43.29794751390833" lon="10.719587878433364"><ele>175.0</ele><time>2026-04-18T14:14:35.002Z</time></trkpt><trkpt lat="43.29795308250532" lon="10.719483472204255"><ele>175.0</ele><time>2026-04-18T14:14:37.002Z</time></trkpt><trkpt lat="43.297884931044344" lon="10.719424039989878"><ele>175.0</ele><time>2026-04-18T14:14:38.002Z</time></trkpt><trkpt lat="43.29781280999" lon="10.719285484173433"><ele>175.0</ele><time>2026-04-18T14:14:40.002Z</time></trkpt><trkpt lat="43.297750961900455" lon="10.719221461607983"><ele>174.0</ele><time>2026-04-18T14:14:41.002Z</time></trkpt><trkpt lat="43.297692931595414" lon="10.719141583385822"><ele>173.0</ele><time>2026-04-18T14:14:42.002Z</time></trkpt><trkpt lat="43.29763836223221" lon="10.719032045996256"><ele>172.0</ele><time>2026-04-18T14:14:43.002Z</time></trkpt><trkpt lat="43.29756613174558" lon="10.718950365634969"><ele>171.0</ele><time>2026-04-18T14:14:44.002Z</time></trkpt><trkpt lat="43.29751253855102" lon="10.71884870946053"><ele>170.0</ele><time>2026-04-18T14:14:45.002Z</time></trkpt><trkpt lat="43.29744507630837" lon="10.7187506089893"><ele>170.0</ele><time>2026-04-18T14:14:46.002Z</time></trkpt><trkpt lat="43.29737921749422" lon="10.718643837945427"><ele>170.0</ele><time>2026-04-18T14:14:47.002Z</time></trkpt><trkpt lat="43.29731314923127" lon="10.718524255065924"><ele>170.0</ele><time>2026-04-18T14:14:48.002Z</time></trkpt><trkpt lat="43.29724299447066" lon="10.718427382473156"><ele>170.0</ele><time>2026-04-18T14:14:49.002Z</time></trkpt><trkpt lat="43.297174697560045" lon="10.718331271804159"><ele>170.0</ele><time>2026-04-18T14:14:50.002Z</time></trkpt><trkpt lat="43.29710975227649" lon="10.718252622256584"><ele>170.2</ele><time>2026-04-18T14:14:51.002Z</time></trkpt><trkpt lat="43.297053649694256" lon="10.718184715740648"><ele>170.4</ele><time>2026-04-18T14:14:52.002Z</time></trkpt><trkpt lat="43.29700203803465" lon="10.718077581748682"><ele>170.60000000000002</ele><time>2026-04-18T14:14:54Z</time></trkpt><trkpt lat="43.29694349767524" lon="10.717954458710576"><ele>170.8</ele><time>2026-04-18T14:14:56Z</time></trkpt><trkpt lat="43.29688224877043" lon="10.717817935721111"><ele>171.0</ele><time>2026-04-18T14:14:58Z</time></trkpt><trkpt lat="43.29682351340429" lon="10.717653482314372"><ele>170.4</ele><time>2026-04-18T14:15:00Z</time></trkpt><trkpt lat="43.29680170350728" lon="10.717539408852328"><ele>169.8</ele><time>2026-04-18T14:15:01Z</time></trkpt><trkpt lat="43.29680714092366" lon="10.717419775891909"><ele>169.20000000000002</ele><time>2026-04-18T14:15:02Z</time></trkpt><trkpt lat="43.2968250230802" lon="10.717284162724486"><ele>168.60000000000002</ele><time>2026-04-18T14:15:03Z</time></trkpt><trkpt lat="43.29683395066297" lon="10.717136696945099"><ele>168.0</ele><time>2026-04-18T14:15:04Z</time></trkpt><trkpt lat="43.29682482526469" lon="10.716989036259376"><ele>167.0</ele><time>2026-04-18T14:15:05Z</time></trkpt><trkpt lat="43.29682709597546" lon="10.716840331036973"><ele>166.0</ele><time>2026-04-18T14:15:06Z</time></trkpt><trkpt lat="43.296824769383896" lon="10.716699730119117"><ele>165.0</ele><time>2026-04-18T14:15:07Z</time></trkpt><trkpt lat="43.296838548546795" lon="10.71655715634763"><ele>164.0</ele><time>2026-04-18T14:15:08Z</time></trkpt><trkpt lat="43.296850501327604" lon="10.716402226857241"><ele>163.0</ele><time>2026-04-18T14:15:09Z</time></trkpt><trkpt lat="43.296869000646936" lon="10.71625322948068"><ele>163.0</ele><time>2026-04-18T14:15:10Z</time></trkpt><trkpt lat="43.29688427468354" lon="10.71610494335447"><ele>163.0</ele><time>2026-04-18T14:15:11Z</time></trkpt><trkpt lat="43.296907135994154" lon="10.71595313711474"><ele>163.0</ele><time>2026-04-18T14:15:12Z</time></trkpt><trkpt lat="43.29693544181103" lon="10.715800405477465"><ele>163.0</ele><time>2026-04-18T14:15:13Z</time></trkpt><trkpt lat="43.29694717129243" lon="10.715638494993378"><ele>162.60000000000002</ele><time>2026-04-18T14:15:14Z</time></trkpt><trkpt lat="43.29698047606575" lon="10.715473699676377"><ele>162.20000000000002</ele><time>2026-04-18T14:15:15Z</time></trkpt><trkpt lat="43.296996856753914" lon="10.715348093857367"><ele>161.8</ele><time>2026-04-18T14:15:16Z</time></trkpt><trkpt lat="43.29700095262777" lon="10.715234298931708"><ele>161.4</ele><time>2026-04-18T14:15:17Z</time></trkpt><trkpt lat="43.296983761515925" lon="10.715107410139217"><ele>161.0</ele><time>2026-04-18T14:15:18Z</time></trkpt><trkpt lat="43.296943015634746" lon="10.714987464235623"><ele>159.75</ele><time>2026-04-18T14:15:19Z</time></trkpt><trkpt lat="43.296880538816914" lon="10.714845311193237"><ele>158.5</ele><time>2026-04-18T14:15:20Z</time></trkpt><trkpt lat="43.29682322762963" lon="10.714718521120632"><ele>157.25</ele><time>2026-04-18T14:15:21Z</time></trkpt><trkpt lat="43.296786545307356" lon="10.71457628498067"><ele>156.0</ele><time>2026-04-18T14:15:22Z</time></trkpt><trkpt lat="43.29674542578071" lon="10.71441124024133"><ele>155.25</ele><time>2026-04-18T14:15:23Z</time></trkpt><trkpt lat="43.29668891890015" lon="10.714283472873458"><ele>154.5</ele><time>2026-04-18T14:15:24Z</time></trkpt><trkpt lat="43.296650180979874" lon="10.714131945545411"><ele>153.75</ele><time>2026-04-18T14:15:25Z</time></trkpt><trkpt lat="43.29661867176387" lon="10.713962186885343"><ele>153.0</ele><time>2026-04-18T14:15:26Z</time></trkpt><trkpt lat="43.29658927435184" lon="10.713778981728407"><ele>153.0</ele><time>2026-04-18T14:15:27Z</time></trkpt><trkpt lat="43.29656594657559" lon="10.713602015663964"><ele>153.0</ele><time>2026-04-18T14:15:28Z</time></trkpt><trkpt lat="43.296545129692156" lon="10.713444097341053"><ele>153.0</ele><time>2026-04-18T14:15:29Z</time></trkpt><trkpt lat="43.296522985488465" lon="10.713295104275385"><ele>153.0</ele><time>2026-04-18T14:15:30Z</time></trkpt><trkpt lat="43.29648112368083" lon="10.713156787500296"><ele>152.16666666666666</ele><time>2026-04-18T14:15:31Z</time></trkpt><trkpt lat="43.29646287913692" lon="10.71303574210931"><ele>151.33333333333334</ele><time>2026-04-18T14:15:32Z</time></trkpt><trkpt lat="43.29646326084022" lon="10.712901620994845"><ele>150.5</ele><time>2026-04-18T14:15:33Z</time></trkpt><trkpt lat="43.29648224491688" lon="10.712808373160513"><ele>149.66666666666669</ele><time>2026-04-18T14:15:34.001Z</time></trkpt><trkpt lat="43.296479818520126" lon="10.712701296222567"><ele>148.83333333333334</ele><time>2026-04-18T14:15:35.001Z</time></trkpt><trkpt lat="43.29650677810464" lon="10.712586715845806"><ele>148.0</ele><time>2026-04-18T14:15:36.001Z</time></trkpt><trkpt lat="43.29651921432745" lon="10.712460979578378"><ele>146.83333333333334</ele><time>2026-04-18T14:15:37.001Z</time></trkpt><trkpt lat="43.29649118313539" lon="10.712328574254851"><ele>145.66666666666669</ele><time>2026-04-18T14:15:38.001Z</time></trkpt><trkpt lat="43.29647998854091" lon="10.712237524554103"><ele>144.5</ele><time>2026-04-18T14:15:39.001Z</time></trkpt><trkpt lat="43.29646791961006" lon="10.71213381429611"><ele>143.33333333333334</ele><time>2026-04-18T14:15:40.001Z</time></trkpt><trkpt lat="43.296422619667965" lon="10.712059183850986"><ele>142.16666666666666</ele><time>2026-04-18T14:15:41.001Z</time></trkpt><trkpt lat="43.296350014779684" lon="10.712021379621214"><ele>141.0</ele><time>2026-04-18T14:15:42.001Z</time></trkpt><trkpt lat="43.296224725390715" lon="10.711993486986197"><ele>137.5</ele><time>2026-04-18T14:15:44.001Z</time></trkpt><trkpt lat="43.29602790814876" lon="10.712077443097625"><ele>134.0</ele><time>2026-04-18T14:15:45.001Z</time></trkpt><trkpt lat="43.29586869523472" lon="10.712125565331762"><ele>130.5</ele><time>2026-04-18T14:15:46.001Z</time></trkpt><trkpt lat="43.295792275626034" lon="10.712146193082368"><ele>127.0</ele><time>2026-04-18T14:15:47.001Z</time></trkpt><trkpt lat="43.29569062262168" lon="10.712168747708679"><ele>122.75</ele><time>2026-04-18T14:15:48.001Z</time></trkpt><trkpt lat="43.295558620991486" lon="10.712181679223256"><ele>118.5</ele><time>2026-04-18T14:15:49.001Z</time></trkpt><trkpt lat="43.295433867957314" lon="10.712164235890961"><ele>114.25</ele><time>2026-04-18T14:15:50.001Z</time></trkpt><trkpt lat="43.295332883106404" lon="10.712130780996878"><ele>110.0</ele><time>2026-04-18T14:15:51.001Z</time></trkpt><trkpt lat="43.295238570418036" lon="10.712075308941687"><ele>109.99999999999999</ele><time>2026-04-18T14:15:52.001Z</time></trkpt><trkpt lat="43.29515991980513" lon="10.71200006846859"><ele>110.0</ele><time>2026-04-18T14:15:53.001Z</time></trkpt><trkpt lat="43.29508507976467" lon="10.711924245754194"><ele>110.0</ele><time>2026-04-18T14:15:54.001Z</time></trkpt><trkpt lat="43.29502053147356" lon="10.711850629563607"><ele>110.0</ele><time>2026-04-18T14:15:55.001Z</time></trkpt><trkpt lat="43.295014124353294" lon="10.711741300459792"><ele>109.99999999999999</ele><time>2026-04-18T14:15:56.001Z</time></trkpt><trkpt lat="43.29502528046098" lon="10.71164432537976"><ele>110.0</ele><time>2026-04-18T14:15:57.001Z</time></trkpt><trkpt lat="43.29504549190824" lon="10.711560743782933"><ele>109.83333333333333</ele><time>2026-04-18T14:15:58.001Z</time></trkpt><trkpt lat="43.295042808594786" lon="10.711456115566195"><ele>109.66666666666666</ele><time>2026-04-18T14:15:59.001Z</time></trkpt><trkpt lat="43.29504949830699" lon="10.711357490156669"><ele>109.5</ele><time>2026-04-18T14:16:00.001Z</time></trkpt><trkpt lat="43.295048138875536" lon="10.71125878878796"><ele>109.33333333333334</ele><time>2026-04-18T14:16:01.001Z</time></trkpt><trkpt lat="43.29500164724187" lon="10.711154149580688"><ele>109.16666666666667</ele><time>2026-04-18T14:16:02.001Z</time></trkpt><trkpt lat="43.29493380301283" lon="10.711067730911958"><ele>109.0</ele><time>2026-04-18T14:16:03.001Z</time></trkpt><trkpt lat="43.294867475791314" lon="10.710993049194265"><ele>107.6</ele><time>2026-04-18T14:16:04.001Z</time></trkpt><trkpt lat="43.29478467496179" lon="10.71091699602573"><ele>106.2</ele><time>2026-04-18T14:16:05.001Z</time></trkpt><trkpt lat="43.29469679696356" lon="10.710851275617232"><ele>104.8</ele><time>2026-04-18T14:16:06.001Z</time></trkpt><trkpt lat="43.29462395044662" lon="10.710777289995937"><ele>103.39999999999999</ele><time>2026-04-18T14:16:07.001Z</time></trkpt><trkpt lat="43.29454114712053" lon="10.710684083030442"><ele>102.0</ele><time>2026-04-18T14:16:08.001Z</time></trkpt><trkpt lat="43.29446568391394" lon="10.710590188053873"><ele>102.0</ele><time>2026-04-18T14:16:09.001Z</time></trkpt><trkpt lat="43.294391480855694" lon="10.710525077161027"><ele>102.0</ele><time>2026-04-18T14:16:10.001Z</time></trkpt><trkpt lat="43.29433182483696" lon="10.710428097196532"><ele>102.0</ele><time>2026-04-18T14:16:11.001Z</time></trkpt><trkpt lat="43.29426707468156" lon="10.710361337501443"><ele>102.0</ele><time>2026-04-18T14:16:12.001Z</time></trkpt><trkpt lat="43.29422494317102" lon="10.710279632245479"><ele>102.0</ele><time>2026-04-18T14:16:13.001Z</time></trkpt><trkpt lat="43.29414628969037" lon="10.710194460280325"><ele>102.0</ele><time>2026-04-18T14:16:15.001Z</time></trkpt><trkpt lat="43.29409161259666" lon="10.710141080038287"><ele>100.8</ele><time>2026-04-18T14:16:19.001Z</time></trkpt><trkpt lat="43.29403659085941" lon="10.710074815612675"><ele>99.6</ele><time>2026-04-18T14:16:30.002Z</time></trkpt><trkpt lat="43.293978279406204" lon="10.709945189205513"><ele>98.39999999999999</ele><time>2026-04-18T14:16:32.002Z</time></trkpt><trkpt lat="43.29395534106985" lon="10.70983809952192"><ele>97.19999999999999</ele><time>2026-04-18T14:16:33.002Z</time></trkpt><trkpt lat="43.29395336873474" lon="10.709729764320011"><ele>96.0</ele><time>2026-04-18T14:16:34.002Z</time></trkpt><trkpt lat="43.29396321777715" lon="10.709585153233709"><ele>96.0</ele><time>2026-04-18T14:16:35.002Z</time></trkpt><trkpt lat="43.293972858510415" lon="10.709449266497394"><ele>96.0</ele><time>2026-04-18T14:16:36.002Z</time></trkpt><trkpt lat="43.29395977168755" lon="10.709230546909698"><ele>96.0</ele><time>2026-04-18T14:16:37.002Z</time></trkpt><trkpt lat="43.293926802864306" lon="10.709063610345037"><ele>96.0</ele><time>2026-04-18T14:16:38.002Z</time></trkpt><trkpt lat="43.293915238958604" lon="10.708870848179194"><ele>92.5</ele><time>2026-04-18T14:16:39.002Z</time></trkpt><trkpt lat="43.293895664087884" lon="10.708734431157135"><ele>89.0</ele><time>2026-04-18T14:16:40.002Z</time></trkpt><trkpt lat="43.293865756753334" lon="10.708579886948803"><ele>85.5</ele><time>2026-04-18T14:16:41.002Z</time></trkpt><trkpt lat="43.293835730374816" lon="10.708421797048382"><ele>82.0</ele><time>2026-04-18T14:16:42.002Z</time></trkpt><trkpt lat="43.29379936909787" lon="10.708272878857176"><ele>80.0</ele><time>2026-04-18T14:16:43.002Z</time></trkpt><trkpt lat="43.29376654986548" lon="10.708125596465477"><ele>78.0</ele><time>2026-04-18T14:16:44.002Z</time></trkpt><trkpt lat="43.29372829564307" lon="10.707989723947707"><ele>76.0</ele><time>2026-04-18T14:16:45.002Z</time></trkpt><trkpt lat="43.29369764553936" lon="10.707848438493782"><ele>74.0</ele><time>2026-04-18T14:16:46.002Z</time></trkpt><trkpt lat="43.293615741702716" lon="10.707784595666176"><ele>72.0</ele><time>2026-04-18T14:16:47.002Z</time></trkpt><trkpt lat="43.2935283042259" lon="10.707714158332346"><ele>70.75</ele><time>2026-04-18T14:16:48.002Z</time></trkpt><trkpt lat="43.293435473609364" lon="10.707631199202623"><ele>69.5</ele><time>2026-04-18T14:16:49.002Z</time></trkpt><trkpt lat="43.29332155712766" lon="10.70756969937766"><ele>68.25</ele><time>2026-04-18T14:16:50.002Z</time></trkpt><trkpt lat="43.29321473821954" lon="10.707505910400176"><ele>67.0</ele><time>2026-04-18T14:16:51.002Z</time></trkpt><trkpt lat="43.293082959777244" lon="10.707421845764664"><ele>67.0</ele><time>2026-04-18T14:16:52.002Z</time></trkpt><trkpt lat="43.292945269670625" lon="10.707362039439891"><ele>67.0</ele><time>2026-04-18T14:16:53.002Z</time></trkpt><trkpt lat="43.29282135160045" lon="10.70723393761407"><ele>67.0</ele><time>2026-04-18T14:16:54.002Z</time></trkpt><trkpt lat="43.29269307770383" lon="10.707203270474869"><ele>67.0</ele><time>2026-04-18T14:16:55.002Z</time></trkpt><trkpt lat="43.29258052878801" lon="10.70716016562887"><ele>67.0</ele><time>2026-04-18T14:16:56.002Z</time></trkpt><trkpt lat="43.2924777066719" lon="10.707109798454802"><ele>67.0</ele><time>2026-04-18T14:16:57.002Z</time></trkpt><trkpt lat="43.29237729334807" lon="10.707046688000004"><ele>67.0</ele><time>2026-04-18T14:16:58.002Z</time></trkpt><trkpt lat="43.292300966648085" lon="10.707004452270855"><ele>67.0</ele><time>2026-04-18T14:16:59.002Z</time></trkpt><trkpt lat="43.29223299731611" lon="10.706919682676238"><ele>67.0</ele><time>2026-04-18T14:17:00Z</time></trkpt><trkpt lat="43.292191419264526" lon="10.706795526914547"><ele>66.8</ele><time>2026-04-18T14:17:01Z</time></trkpt><trkpt lat="43.292167528711936" lon="10.706707001081433"><ele>66.6</ele><time>2026-04-18T14:17:02Z</time></trkpt><trkpt lat="43.292164546968046" lon="10.706580400071646"><ele>66.39999999999999</ele><time>2026-04-18T14:17:03Z</time></trkpt><trkpt lat="43.29224114963251" lon="10.70648193700029"><ele>66.2</ele><time>2026-04-18T14:17:04Z</time></trkpt><trkpt lat="43.29229881761226" lon="10.706349562675221"><ele>66.0</ele><time>2026-04-18T14:17:05Z</time></trkpt><trkpt lat="43.292363035937576" lon="10.706259408940065"><ele>66.0</ele><time>2026-04-18T14:17:06Z</time></trkpt><trkpt lat="43.29240712226523" lon="10.706183294994881"><ele>66.0</ele><time>2026-04-18T14:17:07Z</time></trkpt><trkpt lat="43.29246534508727" lon="10.70607690482895"><ele>66.0</ele><time>2026-04-18T14:17:08Z</time></trkpt><trkpt lat="43.292521428275855" lon="10.705985331641148"><ele>66.0</ele><time>2026-04-18T14:17:09Z</time></trkpt><trkpt lat="43.29257634914882" lon="10.705886797527157"><ele>66.0</ele><time>2026-04-18T14:17:10Z</time></trkpt><trkpt lat="43.29263272633574" lon="10.705790988748538"><ele>66.0</ele><time>2026-04-18T14:17:11Z</time></trkpt><trkpt lat="43.2926819245172" lon="10.705709226440508"><ele>66.33333333333333</ele><time>2026-04-18T14:17:12Z</time></trkpt><trkpt lat="43.29272693374218" lon="10.705630023451718"><ele>66.66666666666667</ele><time>2026-04-18T14:17:15Z</time></trkpt><trkpt lat="43.292773723438856" lon="10.705559303245705"><ele>67.0</ele><time>2026-04-18T14:17:17Z</time></trkpt><trkpt lat="43.292828152506694" lon="10.70546781874852"><ele>67.33333333333334</ele><time>2026-04-18T14:17:18Z</time></trkpt><trkpt lat="43.29287203446169" lon="10.705387932029652"><ele>67.66666666666667</ele><time>2026-04-18T14:17:19Z</time></trkpt><trkpt lat="43.292908344814045" lon="10.705292850695763"><ele>68.0</ele><time>2026-04-18T14:17:20Z</time></trkpt><trkpt lat="43.29297057640822" lon="10.705216594771624"><ele>68.8</ele><time>2026-04-18T14:17:21Z</time></trkpt><trkpt lat="43.2930149724565" lon="10.705119713593714"><ele>69.6</ele><time>2026-04-18T14:17:22Z</time></trkpt><trkpt lat="43.29306131976864" lon="10.705014619667367"><ele>70.4</ele><time>2026-04-18T14:17:23Z</time></trkpt><trkpt lat="43.29310140621074" lon="10.704900388617842"><ele>71.2</ele><time>2026-04-18T14:17:24Z</time></trkpt><trkpt lat="43.29313533661942" lon="10.704766314689811"><ele>72.0</ele><time>2026-04-18T14:17:25Z</time></trkpt><trkpt lat="43.29317186001646" lon="10.704619302422712"><ele>70.0</ele><time>2026-04-18T14:17:26Z</time></trkpt><trkpt lat="43.29321142769075" lon="10.704463368084516"><ele>68.0</ele><time>2026-04-18T14:17:27Z</time></trkpt><trkpt lat="43.2932427532899" lon="10.704307342328526"><ele>66.0</ele><time>2026-04-18T14:17:28Z</time></trkpt><trkpt lat="43.29328608179875" lon="10.704133277299613"><ele>64.0</ele><time>2026-04-18T14:17:29.001Z</time></trkpt><trkpt lat="43.293328262598386" lon="10.703960211131289"><ele>64.0</ele><time>2026-04-18T14:17:30.001Z</time></trkpt><trkpt lat="43.29337229279547" lon="10.70378028178906"><ele>64.0</ele><time>2026-04-18T14:17:31.001Z</time></trkpt><trkpt lat="43.293413667575024" lon="10.703600400498653"><ele>64.0</ele><time>2026-04-18T14:17:32.001Z</time></trkpt><trkpt lat="43.29345820149605" lon="10.70340918349776"><ele>64.0</ele><time>2026-04-18T14:17:33.001Z</time></trkpt><trkpt lat="43.29350135212181" lon="10.703216652654456"><ele>63.5</ele><time>2026-04-18T14:17:34.001Z</time></trkpt><trkpt lat="43.29356275069255" lon="10.703044471842219"><ele>63.0</ele><time>2026-04-18T14:17:35.001Z</time></trkpt><trkpt lat="43.293606481595056" lon="10.702854793049465"><ele>62.5</ele><time>2026-04-18T14:17:36.001Z</time></trkpt><trkpt lat="43.293651426012765" lon="10.702671882164061"><ele>62.0</ele><time>2026-04-18T14:17:37.001Z</time></trkpt><trkpt lat="43.2936978411104" lon="10.702487602540302"><ele>61.75</ele><time>2026-04-18T14:17:38.001Z</time></trkpt><trkpt lat="43.29374315325469" lon="10.702297758475899"><ele>61.5</ele><time>2026-04-18T14:17:39.001Z</time></trkpt><trkpt lat="43.293778917139456" lon="10.7021360076588"><ele>61.25</ele><time>2026-04-18T14:17:40.001Z</time></trkpt><trkpt lat="43.29380981743699" lon="10.701991932770667"><ele>61.0</ele><time>2026-04-18T14:17:41.001Z</time></trkpt><trkpt lat="43.29384935267265" lon="10.70183944634024"><ele>61.5</ele><time>2026-04-18T14:17:42.001Z</time></trkpt><trkpt lat="43.29385295649004" lon="10.701673429482376"><ele>62.0</ele><time>2026-04-18T14:17:43.001Z</time></trkpt><trkpt lat="43.29383248655792" lon="10.701500238217102"><ele>62.5</ele><time>2026-04-18T14:17:44.001Z</time></trkpt><trkpt lat="43.293806745620365" lon="10.701320491405802"><ele>63.0</ele><time>2026-04-18T14:17:45.001Z</time></trkpt><trkpt lat="43.293778584726496" lon="10.701140528925267"><ele>63.5</ele><time>2026-04-18T14:17:46.001Z</time></trkpt><trkpt lat="43.29375193680794" lon="10.700957049246165"><ele>64.0</ele><time>2026-04-18T14:17:47.001Z</time></trkpt><trkpt lat="43.29372684328006" lon="10.700772476981403"><ele>64.5</ele><time>2026-04-18T14:17:48.001Z</time></trkpt><trkpt lat="43.29370095705901" lon="10.700583578450088"><ele>65.0</ele><time>2026-04-18T14:17:49.001Z</time></trkpt><trkpt lat="43.293670973689835" lon="10.700408988701094"><ele>64.4</ele><time>2026-04-18T14:17:50.001Z</time></trkpt><trkpt lat="43.29364644231252" lon="10.700238377522401"><ele>63.8</ele><time>2026-04-18T14:17:51.001Z</time></trkpt><trkpt lat="43.29362458327014" lon="10.700081393552741"><ele>63.2</ele><time>2026-04-18T14:17:52.001Z</time></trkpt><trkpt lat="43.29360631063774" lon="10.699943329353395"><ele>62.6</ele><time>2026-04-18T14:17:53.001Z</time></trkpt><trkpt lat="43.293592842584474" lon="10.699812477072895"><ele>62.0</ele><time>2026-04-18T14:17:54.001Z</time></trkpt><trkpt lat="43.29357764016047" lon="10.699692812938144"><ele>62.0</ele><time>2026-04-18T14:17:55.001Z</time></trkpt><trkpt lat="43.29356450063247" lon="10.69958444976299"><ele>62.0</ele><time>2026-04-18T14:17:56.001Z</time></trkpt><trkpt lat="43.293551231840325" lon="10.699465343618195"><ele>62.0</ele><time>2026-04-18T14:17:57.001Z</time></trkpt><trkpt lat="43.29354656415997" lon="10.699347584809148"><ele>62.0</ele><time>2026-04-18T14:17:58.001Z</time></trkpt><trkpt lat="43.293536253009364" lon="10.699086543275772"><ele>62.0</ele><time>2026-04-18T14:18:00.001Z</time></trkpt><trkpt lat="43.293532350729826" lon="10.698959852125732"><ele>61.16666666666667</ele><time>2026-04-18T14:18:01.001Z</time></trkpt><trkpt lat="43.293518460510214" lon="10.698840691405614"><ele>60.333333333333336</ele><time>2026-04-18T14:18:02.001Z</time></trkpt><trkpt lat="43.29352867296307" lon="10.69873562415548"><ele>59.5</ele><time>2026-04-18T14:18:03.001Z</time></trkpt><trkpt lat="43.29352299899374" lon="10.698592096250692"><ele>58.66666666666667</ele><time>2026-04-18T14:18:05.001Z</time></trkpt><trkpt lat="43.29355470811635" lon="10.698501568078667"><ele>57.833333333333336</ele><time>2026-04-18T14:18:09.001Z</time></trkpt><trkpt lat="43.29364323306164" lon="10.698452485635231"><ele>57.0</ele><time>2026-04-18T14:18:12.001Z</time></trkpt><trkpt lat="43.29372150670237" lon="10.69840644603529"><ele>56.0</ele><time>2026-04-18T14:18:14.001Z</time></trkpt><trkpt lat="43.29378222219472" lon="10.698370743745121"><ele>55.0</ele><time>2026-04-18T14:18:15.001Z</time></trkpt><trkpt lat="43.29388931250446" lon="10.698285612867108"><ele>54.0</ele><time>2026-04-18T14:18:17.001Z</time></trkpt><trkpt lat="43.2939606981926" lon="10.698232141629665"><ele>53.0</ele><time>2026-04-18T14:18:18.001Z</time></trkpt><trkpt lat="43.294023513789945" lon="10.698190770561721"><ele>52.0</ele><time>2026-04-18T14:18:19.001Z</time></trkpt><trkpt lat="43.29410826444903" lon="10.698136355009032"><ele>51.0</ele><time>2026-04-18T14:18:20.001Z</time></trkpt><trkpt lat="43.29419059415488" lon="10.698059882782061"><ele>51.0</ele><time>2026-04-18T14:18:21.001Z</time></trkpt><trkpt lat="43.294288341289224" lon="10.69797701680266"><ele>51.0</ele><time>2026-04-18T14:18:22.002Z</time></trkpt><trkpt lat="43.29438646274573" lon="10.697890886574358"><ele>51.0</ele><time>2026-04-18T14:18:23.002Z</time></trkpt><trkpt lat="43.294490990817046" lon="10.69779923444387"><ele>51.0</ele><time>2026-04-18T14:18:24.002Z</time></trkpt><trkpt lat="43.294594135625864" lon="10.697700413075198"><ele>51.0</ele><time>2026-04-18T14:18:25.002Z</time></trkpt><trkpt lat="43.294702468503374" lon="10.697599383152143"><ele>51.0</ele><time>2026-04-18T14:18:26.002Z</time></trkpt><trkpt lat="43.29481800241784" lon="10.697501070408824"><ele>51.0</ele><time>2026-04-18T14:18:27.002Z</time></trkpt><trkpt lat="43.294934083889835" lon="10.697395158216406"><ele>51.0</ele><time>2026-04-18T14:18:28.002Z</time></trkpt><trkpt lat="43.29505604870232" lon="10.697284207044017"><ele>51.0</ele><time>2026-04-18T14:18:29.002Z</time></trkpt><trkpt lat="43.295177369993745" lon="10.697183605758251"><ele>51.0</ele><time>2026-04-18T14:18:30.002Z</time></trkpt><trkpt lat="43.29530138949159" lon="10.697071202005644"><ele>51.0</ele><time>2026-04-18T14:18:31.002Z</time></trkpt><trkpt lat="43.29543106900887" lon="10.696956302636625"><ele>51.0</ele><time>2026-04-18T14:18:32.002Z</time></trkpt><trkpt lat="43.29555472444739" lon="10.696833690861329"><ele>51.33333333333333</ele><time>2026-04-18T14:18:33.002Z</time></trkpt><trkpt lat="43.295687643178226" lon="10.696712641667606"><ele>51.666666666666664</ele><time>2026-04-18T14:18:34.002Z</time></trkpt><trkpt lat="43.29581903004104" lon="10.696587926721016"><ele>52.0</ele><time>2026-04-18T14:18:35.002Z</time></trkpt><trkpt lat="43.29595225218498" lon="10.696462320985907"><ele>52.0</ele><time>2026-04-18T14:18:36.002Z</time></trkpt><trkpt lat="43.29609346134578" lon="10.696334237387353"><ele>52.0</ele><time>2026-04-18T14:18:37.002Z</time></trkpt><trkpt lat="43.296233560687085" lon="10.696207004543693"><ele>52.0</ele><time>2026-04-18T14:18:38.002Z</time></trkpt><trkpt lat="43.296378337869335" lon="10.696080748948205"><ele>51.33333333333333</ele><time>2026-04-18T14:18:39.002Z</time></trkpt><trkpt lat="43.29652241074241" lon="10.695951514912283"><ele>50.66666666666667</ele><time>2026-04-18T14:18:40.002Z</time></trkpt><trkpt lat="43.296669618579116" lon="10.695816529862963"><ele>50.0</ele><time>2026-04-18T14:18:41.002Z</time></trkpt><trkpt lat="43.29681470642251" lon="10.695688279954707"><ele>50.0</ele><time>2026-04-18T14:18:42.002Z</time></trkpt><trkpt lat="43.296959443782725" lon="10.695551913651475"><ele>50.0</ele><time>2026-04-18T14:18:43.002Z</time></trkpt><trkpt lat="43.297100995932695" lon="10.695420274958503"><ele>50.0</ele><time>2026-04-18T14:18:44.002Z</time></trkpt><trkpt lat="43.2972428928613" lon="10.69529164496344"><ele>50.0</ele><time>2026-04-18T14:18:45.002Z</time></trkpt><trkpt lat="43.297386417182665" lon="10.695156270290006"><ele>50.0</ele><time>2026-04-18T14:18:46.002Z</time></trkpt><trkpt lat="43.29753140265328" lon="10.695026970044871"><ele>50.0</ele><time>2026-04-18T14:18:47.002Z</time></trkpt><trkpt lat="43.29767585065132" lon="10.694896229976285"><ele>50.0</ele><time>2026-04-18T14:18:48.002Z</time></trkpt><trkpt lat="43.29782086182038" lon="10.69477132169958"><ele>50.0</ele><time>2026-04-18T14:18:49.002Z</time></trkpt><trkpt lat="43.29796469436981" lon="10.694647753267997"><ele>50.0</ele><time>2026-04-18T14:18:50.002Z</time></trkpt><trkpt lat="43.298106701019414" lon="10.6945165384949"><ele>48.66666666666667</ele><time>2026-04-18T14:18:51.002Z</time></trkpt><trkpt lat="43.29824643216582" lon="10.694390183575484"><ele>47.333333333333336</ele><time>2026-04-18T14:18:52.002Z</time></trkpt><trkpt lat="43.29838815404828" lon="10.69426639993369"><ele>46.0</ele><time>2026-04-18T14:18:53.002Z</time></trkpt><trkpt lat="43.29852987499218" lon="10.694137082796376"><ele>46.0</ele><time>2026-04-18T14:18:54.002Z</time></trkpt><trkpt lat="43.298669114649385" lon="10.69400907979592"><ele>46.0</ele><time>2026-04-18T14:18:55.002Z</time></trkpt><trkpt lat="43.298808891220226" lon="10.693881998089289"><ele>46.0</ele><time>2026-04-18T14:18:56.002Z</time></trkpt><trkpt lat="43.298949648322726" lon="10.693753187373412"><ele>46.0</ele><time>2026-04-18T14:18:57.002Z</time></trkpt><trkpt lat="43.299090148554015" lon="10.693627384692567"><ele>46.0</ele><time>2026-04-18T14:18:58.002Z</time></trkpt><trkpt lat="43.29923319121452" lon="10.693500096516123"><ele>46.0</ele><time>2026-04-18T14:18:59.002Z</time></trkpt><trkpt lat="43.299378379631364" lon="10.69336753086181"><ele>46.0</ele><time>2026-04-18T14:19:00.002Z</time></trkpt><trkpt lat="43.29952395495463" lon="10.693236545483176"><ele>46.0</ele><time>2026-04-18T14:19:01.002Z</time></trkpt><trkpt lat="43.299669652499446" lon="10.693113906446007"><ele>46.0</ele><time>2026-04-18T14:19:02.002Z</time></trkpt><trkpt lat="43.299812509184065" lon="10.692986187983964"><ele>46.333333333333336</ele><time>2026-04-18T14:19:03.002Z</time></trkpt><trkpt lat="43.29995424263531" lon="10.692860146365467"><ele>46.666666666666664</ele><time>2026-04-18T14:19:04.002Z</time></trkpt><trkpt lat="43.300098471428164" lon="10.692727323617873"><ele>47.0</ele><time>2026-04-18T14:19:05.002Z</time></trkpt><trkpt lat="43.30023935812782" lon="10.692589920707016"><ele>47.0</ele><time>2026-04-18T14:19:06Z</time></trkpt><trkpt lat="43.30038132704455" lon="10.692452587443768"><ele>47.0</ele><time>2026-04-18T14:19:07Z</time></trkpt><trkpt lat="43.300520280850016" lon="10.692306923152291"><ele>47.0</ele><time>2026-04-18T14:19:08Z</time></trkpt><trkpt lat="43.3006549350314" lon="10.692159908340733"><ele>47.666666666666664</ele><time>2026-04-18T14:19:09Z</time></trkpt><trkpt lat="43.30078368902169" lon="10.691999945641967"><ele>48.33333333333333</ele><time>2026-04-18T14:19:10Z</time></trkpt><trkpt lat="43.300907255120855" lon="10.691830319983222"><ele>49.0</ele><time>2026-04-18T14:19:11Z</time></trkpt><trkpt lat="43.30102340621597" lon="10.691648209731834"><ele>49.0</ele><time>2026-04-18T14:19:12Z</time></trkpt><trkpt lat="43.30113896773625" lon="10.691462295530973"><ele>49.0</ele><time>2026-04-18T14:19:13Z</time></trkpt><trkpt lat="43.301254284655286" lon="10.691273932541561"><ele>49.0</ele><time>2026-04-18T14:19:14Z</time></trkpt><trkpt lat="43.30137090147984" lon="10.691090449957775"><ele>48.666666666666664</ele><time>2026-04-18T14:19:15Z</time></trkpt><trkpt lat="43.30148269405033" lon="10.690901258509571"><ele>48.33333333333333</ele><time>2026-04-18T14:19:16Z</time></trkpt><trkpt lat="43.30159542874621" lon="10.690715166291776"><ele>48.0</ele><time>2026-04-18T14:19:17Z</time></trkpt><trkpt lat="43.301704551691024" lon="10.690523783275259"><ele>48.0</ele><time>2026-04-18T14:19:18Z</time></trkpt><trkpt lat="43.30181459766876" lon="10.690335971775754"><ele>48.0</ele><time>2026-04-18T14:19:19Z</time></trkpt><trkpt lat="43.30192694178076" lon="10.690147322065112"><ele>48.0</ele><time>2026-04-18T14:19:20Z</time></trkpt><trkpt lat="43.302041904582175" lon="10.68995825901905"><ele>47.333333333333336</ele><time>2026-04-18T14:19:21Z</time></trkpt><trkpt lat="43.302161429528034" lon="10.689775136891846"><ele>46.66666666666667</ele><time>2026-04-18T14:19:22Z</time></trkpt><trkpt lat="43.3022813273811" lon="10.689593428332191"><ele>46.0</ele><time>2026-04-18T14:19:23Z</time></trkpt><trkpt lat="43.302408621079884" lon="10.689422742536387"><ele>46.0</ele><time>2026-04-18T14:19:24Z</time></trkpt><trkpt lat="43.30253889464761" lon="10.68925684575817"><ele>46.0</ele><time>2026-04-18T14:19:25Z</time></trkpt><trkpt lat="43.3026746133487" lon="10.689098784119745"><ele>46.0</ele><time>2026-04-18T14:19:26Z</time></trkpt><trkpt lat="43.302813758466115" lon="10.688946571801935"><ele>46.0</ele><time>2026-04-18T14:19:27Z</time></trkpt><trkpt lat="43.3029538919351" lon="10.688794880537692"><ele>46.0</ele><time>2026-04-18T14:19:28Z</time></trkpt><trkpt lat="43.30309661964953" lon="10.688642773172363"><ele>46.0</ele><time>2026-04-18T14:19:29Z</time></trkpt><trkpt lat="43.3032399030342" lon="10.68849361578704"><ele>46.0</ele><time>2026-04-18T14:19:30Z</time></trkpt><trkpt lat="43.303384444300384" lon="10.688344921781596"><ele>46.0</ele><time>2026-04-18T14:19:31Z</time></trkpt><trkpt lat="43.30352980640239" lon="10.688193264787142"><ele>46.0</ele><time>2026-04-18T14:19:32Z</time></trkpt><trkpt lat="43.30367490038378" lon="10.6880402298013"><ele>46.0</ele><time>2026-04-18T14:19:33Z</time></trkpt><trkpt lat="43.303819075637534" lon="10.687888711187394"><ele>46.0</ele><time>2026-04-18T14:19:34Z</time></trkpt><trkpt lat="43.30396094312605" lon="10.687737989593746"><ele>46.0</ele><time>2026-04-18T14:19:35Z</time></trkpt><trkpt lat="43.304104154465286" lon="10.687584935519475"><ele>46.66666666666667</ele><time>2026-04-18T14:19:36Z</time></trkpt><trkpt lat="43.30424517779326" lon="10.6874301815922"><ele>47.333333333333336</ele><time>2026-04-18T14:19:37Z</time></trkpt><trkpt lat="43.30438783010412" lon="10.687279841250136"><ele>48.0</ele><time>2026-04-18T14:19:38Z</time></trkpt><trkpt lat="43.30453180705759" lon="10.687126446315576"><ele>48.0</ele><time>2026-04-18T14:19:39Z</time></trkpt><trkpt lat="43.30467585301408" lon="10.686967679712557"><ele>48.0</ele><time>2026-04-18T14:19:40Z</time></trkpt><trkpt lat="43.30481745177904" lon="10.686815122002166"><ele>48.0</ele><time>2026-04-18T14:19:41Z</time></trkpt><trkpt lat="43.3049652923184" lon="10.686663696865793"><ele>47.333333333333336</ele><time>2026-04-18T14:19:42Z</time></trkpt><trkpt lat="43.30511031905928" lon="10.686514231489237"><ele>46.66666666666667</ele><time>2026-04-18T14:19:43Z</time></trkpt><trkpt lat="43.30525401279209" lon="10.686362532003423"><ele>46.0</ele><time>2026-04-18T14:19:44.001Z</time></trkpt><trkpt lat="43.305394166410636" lon="10.686214574676036"><ele>45.66666666666667</ele><time>2026-04-18T14:19:45.001Z</time></trkpt><trkpt lat="43.305529012028174" lon="10.686066202993699"><ele>45.333333333333336</ele><time>2026-04-18T14:19:46.001Z</time></trkpt><trkpt lat="43.30565150922439" lon="10.685900017059218"><ele>45.0</ele><time>2026-04-18T14:19:47.001Z</time></trkpt><trkpt lat="43.30576387423377" lon="10.68571885038163"><ele>45.0</ele><time>2026-04-18T14:19:48.001Z</time></trkpt><trkpt lat="43.30587598290776" lon="10.685527219037054"><ele>45.0</ele><time>2026-04-18T14:19:49.001Z</time></trkpt><trkpt lat="43.30598672250099" lon="10.685332937283624"><ele>45.0</ele><time>2026-04-18T14:19:50.001Z</time></trkpt><trkpt lat="43.30609467511363" lon="10.685134974781302"><ele>45.333333333333336</ele><time>2026-04-18T14:19:51.001Z</time></trkpt><trkpt lat="43.30620593926966" lon="10.684933447855217"><ele>45.66666666666667</ele><time>2026-04-18T14:19:52.001Z</time></trkpt><trkpt lat="43.3063155978801" lon="10.684729898936402"><ele>46.0</ele><time>2026-04-18T14:19:53.001Z</time></trkpt><trkpt lat="43.306426310902125" lon="10.684524268802775"><ele>45.333333333333336</ele><time>2026-04-18T14:19:54.001Z</time></trkpt><trkpt lat="43.30653764272232" lon="10.684320292053059"><ele>44.666666666666664</ele><time>2026-04-18T14:19:55.001Z</time></trkpt><trkpt lat="43.306649836230854" lon="10.684113777666155"><ele>44.0</ele><time>2026-04-18T14:19:56.001Z</time></trkpt><trkpt lat="43.30676287785634" lon="10.683904904207637"><ele>44.0</ele><time>2026-04-18T14:19:57.001Z</time></trkpt><trkpt lat="43.306875850343836" lon="10.683691569125502"><ele>44.0</ele><time>2026-04-18T14:19:58.001Z</time></trkpt><trkpt lat="43.306989581966675" lon="10.683478967901117"><ele>44.0</ele><time>2026-04-18T14:19:59.001Z</time></trkpt><trkpt lat="43.30710489165328" lon="10.683262181513612"><ele>43.666666666666664</ele><time>2026-04-18T14:20:00.001Z</time></trkpt><trkpt lat="43.307219734618435" lon="10.683048194219252"><ele>43.333333333333336</ele><time>2026-04-18T14:20:01.001Z</time></trkpt><trkpt lat="43.30733395662815" lon="10.682834599928857"><ele>43.0</ele><time>2026-04-18T14:20:02.001Z</time></trkpt><trkpt lat="43.30744826211872" lon="10.682623142991345"><ele>45.0</ele><time>2026-04-18T14:20:03.001Z</time></trkpt><trkpt lat="43.3075600334484" lon="10.682414937816914"><ele>47.0</ele><time>2026-04-18T14:20:04.001Z</time></trkpt><trkpt lat="43.30767056743088" lon="10.682208916486417"><ele>49.0</ele><time>2026-04-18T14:20:05.001Z</time></trkpt><trkpt lat="43.30777821557451" lon="10.682006509765781"><ele>47.0</ele><time>2026-04-18T14:20:06.001Z</time></trkpt><trkpt lat="43.30789055220103" lon="10.681802531930618"><ele>45.0</ele><time>2026-04-18T14:20:07.001Z</time></trkpt><trkpt lat="43.30800817126224" lon="10.681605598861386"><ele>43.0</ele><time>2026-04-18T14:20:08.001Z</time></trkpt><trkpt lat="43.30814438390386" lon="10.681419594289695"><ele>43.0</ele><time>2026-04-18T14:20:09.001Z</time></trkpt><trkpt lat="43.30828253095963" lon="10.68123556205028"><ele>43.0</ele><time>2026-04-18T14:20:10.001Z</time></trkpt><trkpt lat="43.30842662895603" lon="10.681058743778259"><ele>43.0</ele><time>2026-04-18T14:20:11.001Z</time></trkpt><trkpt lat="43.308574060022806" lon="10.680883343055473"><ele>43.0</ele><time>2026-04-18T14:20:12.001Z</time></trkpt><trkpt lat="43.30872240659773" lon="10.6807036102126"><ele>43.0</ele><time>2026-04-18T14:20:13.001Z</time></trkpt><trkpt lat="43.308871655650684" lon="10.680526603122848"><ele>43.0</ele><time>2026-04-18T14:20:14.001Z</time></trkpt><trkpt lat="43.309020886873284" lon="10.68034774431613"><ele>42.0</ele><time>2026-04-18T14:20:15.001Z</time></trkpt><trkpt lat="43.30916800519908" lon="10.680166248557192"><ele>41.0</ele><time>2026-04-18T14:20:16.001Z</time></trkpt><trkpt lat="43.309319510866914" lon="10.679986703047001"><ele>40.0</ele><time>2026-04-18T14:20:17.001Z</time></trkpt><trkpt lat="43.309469188676296" lon="10.679809547249349"><ele>40.0</ele><time>2026-04-18T14:20:18.001Z</time></trkpt><trkpt lat="43.30962273027794" lon="10.6796321071501"><ele>40.0</ele><time>2026-04-18T14:20:19.001Z</time></trkpt><trkpt lat="43.30977550907057" lon="10.679455138463075"><ele>40.0</ele><time>2026-04-18T14:20:20.001Z</time></trkpt><trkpt lat="43.309927086270335" lon="10.679276512811061"><ele>39.66666666666667</ele><time>2026-04-18T14:20:21.001Z</time></trkpt><trkpt lat="43.310078388982554" lon="10.679098856165664"><ele>39.333333333333336</ele><time>2026-04-18T14:20:22.001Z</time></trkpt><trkpt lat="43.31022868860819" lon="10.6789220094687"><ele>39.0</ele><time>2026-04-18T14:20:23.001Z</time></trkpt><trkpt lat="43.31037559117204" lon="10.67874606103062"><ele>39.0</ele><time>2026-04-18T14:20:24.001Z</time></trkpt><trkpt lat="43.31052377388601" lon="10.678570366078763"><ele>39.0</ele><time>2026-04-18T14:20:25.001Z</time></trkpt><trkpt lat="43.31067005517239" lon="10.678393740174315"><ele>39.0</ele><time>2026-04-18T14:20:26.001Z</time></trkpt><trkpt lat="43.3108180987506" lon="10.678217125919518"><ele>39.0</ele><time>2026-04-18T14:20:27.001Z</time></trkpt><trkpt lat="43.310963184905525" lon="10.67804535316289"><ele>39.0</ele><time>2026-04-18T14:20:28.001Z</time></trkpt><trkpt lat="43.31110722275667" lon="10.677870645398265"><ele>39.0</ele><time>2026-04-18T14:20:29.001Z</time></trkpt><trkpt lat="43.31125412191389" lon="10.677696978575403"><ele>38.666666666666664</ele><time>2026-04-18T14:20:30.001Z</time></trkpt><trkpt lat="43.31139994932994" lon="10.677526671796684"><ele>38.33333333333333</ele><time>2026-04-18T14:20:31.001Z</time></trkpt><trkpt lat="43.31154759581334" lon="10.677361580775122"><ele>38.0</ele><time>2026-04-18T14:20:32.001Z</time></trkpt><trkpt lat="43.31169419473497" lon="10.677192791280207"><ele>37.666666666666664</ele><time>2026-04-18T14:20:33.001Z</time></trkpt><trkpt lat="43.31184001817379" lon="10.677021778003715"><ele>37.333333333333336</ele><time>2026-04-18T14:20:34.001Z</time></trkpt><trkpt lat="43.31198191837568" lon="10.676854801695496"><ele>37.0</ele><time>2026-04-18T14:20:35.001Z</time></trkpt><trkpt lat="43.312118816046265" lon="10.67669317621005"><ele>37.333333333333336</ele><time>2026-04-18T14:20:36.002Z</time></trkpt><trkpt lat="43.31225253854104" lon="10.676533539735518"><ele>37.666666666666664</ele><time>2026-04-18T14:20:37.002Z</time></trkpt><trkpt lat="43.31238256193404" lon="10.67637742689825"><ele>38.0</ele><time>2026-04-18T14:20:38.002Z</time></trkpt><trkpt lat="43.312513320428344" lon="10.676221352438022"><ele>38.33333333333333</ele><time>2026-04-18T14:20:39.002Z</time></trkpt><trkpt lat="43.3126422357696" lon="10.676067808882202"><ele>38.666666666666664</ele><time>2026-04-18T14:20:40.002Z</time></trkpt><trkpt lat="43.31276985997794" lon="10.675914339205315"><ele>39.0</ele><time>2026-04-18T14:20:41.002Z</time></trkpt><trkpt lat="43.31289831478791" lon="10.675764597381526"><ele>39.0</ele><time>2026-04-18T14:20:42.002Z</time></trkpt><trkpt lat="43.313027163525724" lon="10.675610428962491"><ele>39.0</ele><time>2026-04-18T14:20:43.002Z</time></trkpt><trkpt lat="43.31315770751037" lon="10.675457648248532"><ele>39.0</ele><time>2026-04-18T14:20:44.002Z</time></trkpt><trkpt lat="43.31329152159672" lon="10.675305367757785"><ele>39.666666666666664</ele><time>2026-04-18T14:20:45.002Z</time></trkpt><trkpt lat="43.3134246695612" lon="10.675152458206588"><ele>40.33333333333333</ele><time>2026-04-18T14:20:46.002Z</time></trkpt><trkpt lat="43.31355504809306" lon="10.674999004109958"><ele>41.0</ele><time>2026-04-18T14:20:47.002Z</time></trkpt><trkpt lat="43.313680132911614" lon="10.674843194954061"><ele>41.0</ele><time>2026-04-18T14:20:48.002Z</time></trkpt><trkpt lat="43.313805738569556" lon="10.674687704593424"><ele>41.0</ele><time>2026-04-18T14:20:49.002Z</time></trkpt><trkpt lat="43.31393442531236" lon="10.674531237934705"><ele>41.0</ele><time>2026-04-18T14:20:50.002Z</time></trkpt><trkpt lat="43.31406561445882" lon="10.674379804348218"><ele>40.0</ele><time>2026-04-18T14:20:51.002Z</time></trkpt><trkpt lat="43.31420485805473" lon="10.674229445113976"><ele>39.0</ele><time>2026-04-18T14:20:52.002Z</time></trkpt><trkpt lat="43.314341701798455" lon="10.674081960076155"><ele>38.0</ele><time>2026-04-18T14:20:53.002Z</time></trkpt><trkpt lat="43.31447799154999" lon="10.67393677684326"><ele>38.0</ele><time>2026-04-18T14:20:54.002Z</time></trkpt><trkpt lat="43.31461898064217" lon="10.673792415860701"><ele>38.0</ele><time>2026-04-18T14:20:55.002Z</time></trkpt><trkpt lat="43.314760038084685" lon="10.673648306144356"><ele>38.0</ele><time>2026-04-18T14:20:56.002Z</time></trkpt><trkpt lat="43.31490723189442" lon="10.673514238748977"><ele>39.0</ele><time>2026-04-18T14:20:57.002Z</time></trkpt><trkpt lat="43.31505703985646" lon="10.67338117808585"><ele>40.0</ele><time>2026-04-18T14:20:58.002Z</time></trkpt><trkpt lat="43.3152083181408" lon="10.673247924213973"><ele>41.0</ele><time>2026-04-18T14:20:59.002Z</time></trkpt><trkpt lat="43.31535635381709" lon="10.673116490305798"><ele>41.0</ele><time>2026-04-18T14:21:00.002Z</time></trkpt><trkpt lat="43.315508445799495" lon="10.67298270886055"><ele>41.0</ele><time>2026-04-18T14:21:01.002Z</time></trkpt><trkpt lat="43.31565969650844" lon="10.672846851595434"><ele>41.0</ele><time>2026-04-18T14:21:02.002Z</time></trkpt><trkpt lat="43.31581017714379" lon="10.67271231189262"><ele>40.33333333333333</ele><time>2026-04-18T14:21:03.002Z</time></trkpt><trkpt lat="43.31596075653136" lon="10.672577394331324"><ele>39.666666666666664</ele><time>2026-04-18T14:21:04.002Z</time></trkpt><trkpt lat="43.316116522649864" lon="10.67244169278672"><ele>39.0</ele><time>2026-04-18T14:21:05.002Z</time></trkpt><trkpt lat="43.31626864375917" lon="10.672301617768303"><ele>39.0</ele><time>2026-04-18T14:21:06.002Z</time></trkpt><trkpt lat="43.31642085314306" lon="10.672165172865054"><ele>39.0</ele><time>2026-04-18T14:21:07.002Z</time></trkpt><trkpt lat="43.31657423142673" lon="10.672032317838319"><ele>39.0</ele><time>2026-04-18T14:21:08.002Z</time></trkpt><trkpt lat="43.316726547925235" lon="10.67190396081574"><ele>39.0</ele><time>2026-04-18T14:21:09.002Z</time></trkpt><trkpt lat="43.31687594804284" lon="10.671777882467039"><ele>39.0</ele><time>2026-04-18T14:21:10.002Z</time></trkpt><trkpt lat="43.31702515485659" lon="10.671653731500305"><ele>39.0</ele><time>2026-04-18T14:21:11.002Z</time></trkpt><trkpt lat="43.31717205416737" lon="10.671530462119017"><ele>38.666666666666664</ele><time>2026-04-18T14:21:12Z</time></trkpt><trkpt lat="43.31732163709608" lon="10.671408384031162"><ele>38.33333333333333</ele><time>2026-04-18T14:21:13Z</time></trkpt><trkpt lat="43.31746964207205" lon="10.671292059413814"><ele>38.0</ele><time>2026-04-18T14:21:14Z</time></trkpt><trkpt lat="43.31761890146389" lon="10.671177171072568"><ele>37.666666666666664</ele><time>2026-04-18T14:21:15Z</time></trkpt><trkpt lat="43.317765834438916" lon="10.671067674936575"><ele>37.333333333333336</ele><time>2026-04-18T14:21:16Z</time></trkpt><trkpt lat="43.317917583925095" lon="10.670966335170176"><ele>37.0</ele><time>2026-04-18T14:21:17Z</time></trkpt><trkpt lat="43.318070240208684" lon="10.67086558109527"><ele>36.66666666666667</ele><time>2026-04-18T14:21:18Z</time></trkpt><trkpt lat="43.31822917730222" lon="10.670770978563445"><ele>36.333333333333336</ele><time>2026-04-18T14:21:19Z</time></trkpt><trkpt lat="43.31839023232732" lon="10.670676280135163"><ele>36.0</ele><time>2026-04-18T14:21:20Z</time></trkpt><trkpt lat="43.31855511624295" lon="10.670593031584662"><ele>36.0</ele><time>2026-04-18T14:21:21Z</time></trkpt><trkpt lat="43.31872393003645" lon="10.67051205165489"><ele>36.0</ele><time>2026-04-18T14:21:22Z</time></trkpt><trkpt lat="43.31889411426727" lon="10.670437059543412"><ele>36.0</ele><time>2026-04-18T14:21:23Z</time></trkpt><trkpt lat="43.31906499592931" lon="10.670364538501186"><ele>36.0</ele><time>2026-04-18T14:21:24Z</time></trkpt><trkpt lat="43.31923340835367" lon="10.67029216274377"><ele>36.0</ele><time>2026-04-18T14:21:25Z</time></trkpt><trkpt lat="43.31940361541147" lon="10.670227127410072"><ele>36.0</ele><time>2026-04-18T14:21:26Z</time></trkpt><trkpt lat="43.31957287119033" lon="10.67017255571765"><ele>36.333333333333336</ele><time>2026-04-18T14:21:27Z</time></trkpt><trkpt lat="43.31974007554295" lon="10.670125902841356"><ele>36.66666666666667</ele><time>2026-04-18T14:21:28Z</time></trkpt><trkpt lat="43.31991203450428" lon="10.67008103449833"><ele>37.0</ele><time>2026-04-18T14:21:29Z</time></trkpt><trkpt lat="43.3200873156287" lon="10.670042540669812"><ele>37.0</ele><time>2026-04-18T14:21:30Z</time></trkpt><trkpt lat="43.32026181356621" lon="10.670005348598703"><ele>37.0</ele><time>2026-04-18T14:21:31Z</time></trkpt><trkpt lat="43.320435650765205" lon="10.66997420160239"><ele>37.0</ele><time>2026-04-18T14:21:32Z</time></trkpt><trkpt lat="43.32060648608683" lon="10.669947984980446"><ele>37.0</ele><time>2026-04-18T14:21:33Z</time></trkpt><trkpt lat="43.32077762411321" lon="10.669928692756889"><ele>37.0</ele><time>2026-04-18T14:21:34Z</time></trkpt><trkpt lat="43.32095192117936" lon="10.669914779359917"><ele>37.0</ele><time>2026-04-18T14:21:35Z</time></trkpt><trkpt lat="43.32112728101439" lon="10.66990757575958"><ele>37.0</ele><time>2026-04-18T14:21:36Z</time></trkpt><trkpt lat="43.321301610473085" lon="10.669903631882974"><ele>37.0</ele><time>2026-04-18T14:21:37Z</time></trkpt><trkpt lat="43.321472869078136" lon="10.669897961793726"><ele>37.0</ele><time>2026-04-18T14:21:38Z</time></trkpt><trkpt lat="43.32164236883576" lon="10.669894987595832"><ele>37.0</ele><time>2026-04-18T14:21:39Z</time></trkpt><trkpt lat="43.32181133972971" lon="10.669893869375617"><ele>37.0</ele><time>2026-04-18T14:21:40Z</time></trkpt><trkpt lat="43.32197779754437" lon="10.669897013253465"><ele>37.0</ele><time>2026-04-18T14:21:41Z</time></trkpt><trkpt lat="43.32214661009715" lon="10.669897654596785"><ele>37.333333333333336</ele><time>2026-04-18T14:21:42Z</time></trkpt><trkpt lat="43.322313934364644" lon="10.669894677657892"><ele>37.666666666666664</ele><time>2026-04-18T14:21:43.001Z</time></trkpt><trkpt lat="43.322481370975204" lon="10.66989453774813"><ele>38.0</ele><time>2026-04-18T14:21:44.001Z</time></trkpt><trkpt lat="43.32264682981099" lon="10.669889023873424"><ele>38.0</ele><time>2026-04-18T14:21:45.001Z</time></trkpt><trkpt lat="43.32281314542694" lon="10.6698873108397"><ele>38.0</ele><time>2026-04-18T14:21:46.001Z</time></trkpt><trkpt lat="43.3229790018133" lon="10.669885312261892"><ele>38.0</ele><time>2026-04-18T14:21:47.001Z</time></trkpt><trkpt lat="43.32314040967931" lon="10.669884153875776"><ele>36.666666666666664</ele><time>2026-04-18T14:21:48.001Z</time></trkpt><trkpt lat="43.323302048103926" lon="10.66988370088117"><ele>35.333333333333336</ele><time>2026-04-18T14:21:49.001Z</time></trkpt><trkpt lat="43.32346473025899" lon="10.669888188735293"><ele>34.0</ele><time>2026-04-18T14:21:50.001Z</time></trkpt><trkpt lat="43.32362718420911" lon="10.669886852457207"><ele>34.0</ele><time>2026-04-18T14:21:51.001Z</time></trkpt><trkpt lat="43.32378928410601" lon="10.66988509080844"><ele>34.0</ele><time>2026-04-18T14:21:52.001Z</time></trkpt><trkpt lat="43.323950272992874" lon="10.669879966627754"><ele>34.0</ele><time>2026-04-18T14:21:53.001Z</time></trkpt><trkpt lat="43.32410876808582" lon="10.669878626215866"><ele>34.66666666666667</ele><time>2026-04-18T14:21:54.001Z</time></trkpt><trkpt lat="43.32426729286287" lon="10.669882793449489"><ele>35.333333333333336</ele><time>2026-04-18T14:21:55.001Z</time></trkpt><trkpt lat="43.32442973841653" lon="10.669891489899427"><ele>36.0</ele><time>2026-04-18T14:21:56.001Z</time></trkpt><trkpt lat="43.32459331438956" lon="10.669908266191522"><ele>36.0</ele><time>2026-04-18T14:21:57.001Z</time></trkpt><trkpt lat="43.32492004386782" lon="10.669960457942585"><ele>36.0</ele><time>2026-04-18T14:21:59.001Z</time></trkpt><trkpt lat="43.32508563841885" lon="10.669994630292937"><ele>36.0</ele><time>2026-04-18T14:22:00.001Z</time></trkpt><trkpt lat="43.32525316219722" lon="10.670025107145946"><ele>36.0</ele><time>2026-04-18T14:22:01.001Z</time></trkpt><trkpt lat="43.32542109570227" lon="10.670059748436802"><ele>36.0</ele><time>2026-04-18T14:22:02.001Z</time></trkpt><trkpt lat="43.32558821083463" lon="10.67009263115797"><ele>36.0</ele><time>2026-04-18T14:22:03.001Z</time></trkpt><trkpt lat="43.325757162046465" lon="10.670126271254887"><ele>36.0</ele><time>2026-04-18T14:22:04.001Z</time></trkpt><trkpt lat="43.32592324291904" lon="10.670156401619783"><ele>36.0</ele><time>2026-04-18T14:22:05.001Z</time></trkpt><trkpt lat="43.32609015212352" lon="10.670187812331323"><ele>36.0</ele><time>2026-04-18T14:22:06.001Z</time></trkpt><trkpt lat="43.3262564934866" lon="10.670220996375187"><ele>36.0</ele><time>2026-04-18T14:22:07.001Z</time></trkpt><trkpt lat="43.326421258872855" lon="10.670253242660452"><ele>36.0</ele><time>2026-04-18T14:22:08.001Z</time></trkpt><trkpt lat="43.326583648242135" lon="10.670284618060172"><ele>36.666666666666664</ele><time>2026-04-18T14:22:09.001Z</time></trkpt><trkpt lat="43.32674634574051" lon="10.670314932330035"><ele>37.33333333333333</ele><time>2026-04-18T14:22:10.001Z</time></trkpt><trkpt lat="43.32690646032175" lon="10.670340765659864"><ele>38.0</ele><time>2026-04-18T14:22:11.001Z</time></trkpt><trkpt lat="43.32706562759611" lon="10.670372034097628"><ele>38.0</ele><time>2026-04-18T14:22:12.001Z</time></trkpt><trkpt lat="43.32722390809865" lon="10.670412026521758"><ele>38.0</ele><time>2026-04-18T14:22:13.001Z</time></trkpt><trkpt lat="43.32738313884807" lon="10.670444292178447"><ele>38.0</ele><time>2026-04-18T14:22:14.001Z</time></trkpt><trkpt lat="43.3275399391374" lon="10.670482922209677"><ele>37.666666666666664</ele><time>2026-04-18T14:22:15.001Z</time></trkpt><trkpt lat="43.32769601289143" lon="10.670515201594583"><ele>37.333333333333336</ele><time>2026-04-18T14:22:16.001Z</time></trkpt><trkpt lat="43.32785124417221" lon="10.670545761967125"><ele>37.0</ele><time>2026-04-18T14:22:17.001Z</time></trkpt><trkpt lat="43.32800364061045" lon="10.670588833822437"><ele>36.75</ele><time>2026-04-18T14:22:18.001Z</time></trkpt><trkpt lat="43.32815482792176" lon="10.670616424985836"><ele>36.5</ele><time>2026-04-18T14:22:19.001Z</time></trkpt><trkpt lat="43.32830357219894" lon="10.670638289364007"><ele>36.25</ele><time>2026-04-18T14:22:20.001Z</time></trkpt><trkpt lat="43.328433876102" lon="10.670657774474648"><ele>36.0</ele><time>2026-04-18T14:22:21.001Z</time></trkpt><trkpt lat="43.32855690124667" lon="10.67065983493968"><ele>36.0</ele><time>2026-04-18T14:22:22.001Z</time></trkpt><trkpt lat="43.32867366014865" lon="10.67063174220873"><ele>36.0</ele><time>2026-04-18T14:22:23.001Z</time></trkpt><trkpt lat="43.32877387517921" lon="10.670591809626002"><ele>36.0</ele><time>2026-04-18T14:22:24.001Z</time></trkpt><trkpt lat="43.32885321054151" lon="10.670557160722474"><ele>36.0</ele><time>2026-04-18T14:22:25.001Z</time></trkpt><trkpt lat="43.32895523576096" lon="10.670540650869114"><ele>36.0</ele><time>2026-04-18T14:22:27.001Z</time></trkpt><trkpt lat="43.32905061013827" lon="10.670571876499944"><ele>36.166666666666664</ele><time>2026-04-18T14:22:29.001Z</time></trkpt><trkpt lat="43.32916749825577" lon="10.67061372003293"><ele>36.333333333333336</ele><time>2026-04-18T14:22:31.001Z</time></trkpt><trkpt lat="43.329230261949895" lon="10.670593974759756"><ele>36.5</ele><time>2026-04-18T14:22:32.001Z</time></trkpt><trkpt lat="43.32929116638213" lon="10.67054449078584"><ele>36.66666666666667</ele><time>2026-04-18T14:22:33.001Z</time></trkpt><trkpt lat="43.32932965553601" lon="10.670462612936005"><ele>36.833333333333336</ele><time>2026-04-18T14:22:34.001Z</time></trkpt><trkpt lat="43.32934024543354" lon="10.670369927818975"><ele>37.0</ele><time>2026-04-18T14:22:35.001Z</time></trkpt><trkpt lat="43.32932291119661" lon="10.67027809202837"><ele>36.66666666666667</ele><time>2026-04-18T14:22:36.001Z</time></trkpt><trkpt lat="43.329287390257505" lon="10.670189836915577"><ele>36.333333333333336</ele><time>2026-04-18T14:22:37.001Z</time></trkpt><trkpt lat="43.329257899427" lon="10.67009523690447"><ele>36.0</ele><time>2026-04-18T14:22:38.001Z</time></trkpt><trkpt lat="43.32923158768814" lon="10.669996501606734"><ele>35.666666666666664</ele><time>2026-04-18T14:22:39.002Z</time></trkpt><trkpt lat="43.329207363384626" lon="10.669891181812936"><ele>35.33333333333333</ele><time>2026-04-18T14:22:40.002Z</time></trkpt><trkpt lat="43.32918509164587" lon="10.669782920631048"><ele>35.0</ele><time>2026-04-18T14:22:41.002Z</time></trkpt><trkpt lat="43.329161721168155" lon="10.669672573511745"><ele>35.0</ele><time>2026-04-18T14:22:42.002Z</time></trkpt><trkpt lat="43.32914351370676" lon="10.669555660206164"><ele>35.0</ele><time>2026-04-18T14:22:43.002Z</time></trkpt><trkpt lat="43.32912459439112" lon="10.669432448899817"><ele>35.0</ele><time>2026-04-18T14:22:44.002Z</time></trkpt><trkpt lat="43.32910544750205" lon="10.66930633726355"><ele>35.0</ele><time>2026-04-18T14:22:45.002Z</time></trkpt><trkpt lat="43.32908035088632" lon="10.66918268956241"><ele>35.0</ele><time>2026-04-18T14:22:46.002Z</time></trkpt><trkpt lat="43.32906283461886" lon="10.669054754965513"><ele>34.8</ele><time>2026-04-18T14:22:47.002Z</time></trkpt><trkpt lat="43.32904290642523" lon="10.668922818566884"><ele>34.6</ele><time>2026-04-18T14:22:48.002Z</time></trkpt><trkpt lat="43.329023631642954" lon="10.668789325715158"><ele>34.4</ele><time>2026-04-18T14:22:49.002Z</time></trkpt><trkpt lat="43.32900644602858" lon="10.668644864214766"><ele>34.2</ele><time>2026-04-18T14:22:50.002Z</time></trkpt><trkpt lat="43.328984477141105" lon="10.668511787490985"><ele>34.0</ele><time>2026-04-18T14:22:51.002Z</time></trkpt><trkpt lat="43.32896316258777" lon="10.668379204667225"><ele>34.4</ele><time>2026-04-18T14:22:52.002Z</time></trkpt><trkpt lat="43.328941667307824" lon="10.668244154888793"><ele>34.8</ele><time>2026-04-18T14:22:53.002Z</time></trkpt><trkpt lat="43.32891924731722" lon="10.668108997996285"><ele>35.2</ele><time>2026-04-18T14:22:54.002Z</time></trkpt><trkpt lat="43.32889278703218" lon="10.667975364723153"><ele>35.6</ele><time>2026-04-18T14:22:55.002Z</time></trkpt><trkpt lat="43.328872978127485" lon="10.66783350544094"><ele>36.0</ele><time>2026-04-18T14:22:56.002Z</time></trkpt><trkpt lat="43.32885113502276" lon="10.667692497167804"><ele>36.2</ele><time>2026-04-18T14:22:57.002Z</time></trkpt><trkpt lat="43.32882848012616" lon="10.667550556730443"><ele>36.400000000000006</ele><time>2026-04-18T14:22:58.002Z</time></trkpt><trkpt lat="43.328804380021914" lon="10.667413853014327"><ele>36.6</ele><time>2026-04-18T14:22:59.002Z</time></trkpt><trkpt lat="43.328782666507024" lon="10.667263238704436"><ele>36.800000000000004</ele><time>2026-04-18T14:23:00.002Z</time></trkpt><trkpt lat="43.328760944023706" lon="10.667111840059855"><ele>37.0</ele><time>2026-04-18T14:23:01.002Z</time></trkpt><trkpt lat="43.32873946981171" lon="10.66695896551533"><ele>37.0</ele><time>2026-04-18T14:23:02.002Z</time></trkpt><trkpt lat="43.32871246185292" lon="10.666800320556552"><ele>37.0</ele><time>2026-04-18T14:23:03.002Z</time></trkpt><trkpt lat="43.32868875184919" lon="10.666639355044383"><ele>37.0</ele><time>2026-04-18T14:23:04.002Z</time></trkpt><trkpt lat="43.32866816237741" lon="10.666473744564662"><ele>37.0</ele><time>2026-04-18T14:23:05.002Z</time></trkpt><trkpt lat="43.328641777897914" lon="10.666311859005287"><ele>37.0</ele><time>2026-04-18T14:23:06.002Z</time></trkpt><trkpt lat="43.32862805348441" lon="10.666147596053204"><ele>37.0</ele><time>2026-04-18T14:23:07.002Z</time></trkpt><trkpt lat="43.328607590551215" lon="10.665982650171753"><ele>37.0</ele><time>2026-04-18T14:23:08.002Z</time></trkpt><trkpt lat="43.328589859035446" lon="10.665816313098945"><ele>37.0</ele><time>2026-04-18T14:23:09.002Z</time></trkpt><trkpt lat="43.328575196614956" lon="10.665646771107042"><ele>37.25</ele><time>2026-04-18T14:23:10.002Z</time></trkpt><trkpt lat="43.32856166856746" lon="10.665481526463424"><ele>37.5</ele><time>2026-04-18T14:23:11.002Z</time></trkpt><trkpt lat="43.32854535401812" lon="10.66531346570873"><ele>37.75</ele><time>2026-04-18T14:23:12.002Z</time></trkpt><trkpt lat="43.32853591528192" lon="10.665137178043139"><ele>38.0</ele><time>2026-04-18T14:23:13.002Z</time></trkpt><trkpt lat="43.32852576880384" lon="10.664957734880458"><ele>38.0</ele><time>2026-04-18T14:23:14.002Z</time></trkpt><trkpt lat="43.32851402910896" lon="10.664782755362252"><ele>38.0</ele><time>2026-04-18T14:23:15.002Z</time></trkpt><trkpt lat="43.32850492763944" lon="10.664607016947901"><ele>38.0</ele><time>2026-04-18T14:23:16.002Z</time></trkpt><trkpt lat="43.32849416473775" lon="10.664428227177869"><ele>38.0</ele><time>2026-04-18T14:23:17.002Z</time></trkpt><trkpt lat="43.32848662303342" lon="10.664251800413139"><ele>37.25</ele><time>2026-04-18T14:23:18Z</time></trkpt><trkpt lat="43.328490928866316" lon="10.664079908923261"><ele>36.5</ele><time>2026-04-18T14:23:19Z</time></trkpt><trkpt lat="43.32850398464307" lon="10.663914310081093"><ele>35.75</ele><time>2026-04-18T14:23:20Z</time></trkpt><trkpt lat="43.32852611677076" lon="10.663753019821046"><ele>35.0</ele><time>2026-04-18T14:23:21Z</time></trkpt><trkpt lat="43.32855841524053" lon="10.663594461560946"><ele>35.0</ele><time>2026-04-18T14:23:22Z</time></trkpt><trkpt lat="43.32860528105145" lon="10.663434876182016"><ele>35.0</ele><time>2026-04-18T14:23:23Z</time></trkpt><trkpt lat="43.328663750543136" lon="10.6632833212013"><ele>35.0</ele><time>2026-04-18T14:23:24Z</time></trkpt><trkpt lat="43.3287286464877" lon="10.663138272915672"><ele>35.0</ele><time>2026-04-18T14:23:25Z</time></trkpt><trkpt lat="43.32880370837727" lon="10.663003803325108"><ele>35.0</ele><time>2026-04-18T14:23:26Z</time></trkpt><trkpt lat="43.32888554667838" lon="10.662879886481852"><ele>35.0</ele><time>2026-04-18T14:23:27Z</time></trkpt><trkpt lat="43.32897991805725" lon="10.66276883149239"><ele>35.0</ele><time>2026-04-18T14:23:28Z</time></trkpt><trkpt lat="43.3290854058531" lon="10.662670978660017"><ele>35.0</ele><time>2026-04-18T14:23:29Z</time></trkpt><trkpt lat="43.32919569038571" lon="10.662583769480708"><ele>35.0</ele><time>2026-04-18T14:23:30Z</time></trkpt><trkpt lat="43.32931307451413" lon="10.66250479439783"><ele>35.0</ele><time>2026-04-18T14:23:31Z</time></trkpt><trkpt lat="43.3294327650667" lon="10.662436052731408"><ele>35.0</ele><time>2026-04-18T14:23:32Z</time></trkpt><trkpt lat="43.329558279180986" lon="10.662374073892524"><ele>35.0</ele><time>2026-04-18T14:23:33Z</time></trkpt><trkpt lat="43.329684442302614" lon="10.662312595613468"><ele>35.75</ele><time>2026-04-18T14:23:34Z</time></trkpt><trkpt lat="43.32981749010472" lon="10.662256521823894"><ele>36.5</ele><time>2026-04-18T14:23:35Z</time></trkpt><trkpt lat="43.32995156876812" lon="10.662194870143768"><ele>37.25</ele><time>2026-04-18T14:23:36Z</time></trkpt><trkpt lat="43.330086814197315" lon="10.662130333713906"><ele>38.0</ele><time>2026-04-18T14:23:37Z</time></trkpt><trkpt lat="43.33022876133926" lon="10.662064890406667"><ele>38.0</ele><time>2026-04-18T14:23:38Z</time></trkpt><trkpt lat="43.33037024900904" lon="10.661999720733025"><ele>38.0</ele><time>2026-04-18T14:23:39Z</time></trkpt><trkpt lat="43.33051224293091" lon="10.661927076242309"><ele>38.0</ele><time>2026-04-18T14:23:40Z</time></trkpt><trkpt lat="43.330650583719816" lon="10.661843845222483"><ele>38.666666666666664</ele><time>2026-04-18T14:23:41Z</time></trkpt><trkpt lat="43.33079582168661" lon="10.661756795321935"><ele>39.333333333333336</ele><time>2026-04-18T14:23:42.001Z</time></trkpt><trkpt lat="43.33093384986625" lon="10.661659133307994"><ele>40.0</ele><time>2026-04-18T14:23:43.001Z</time></trkpt><trkpt lat="43.33107509173717" lon="10.661554145206013"><ele>40.0</ele><time>2026-04-18T14:23:44.001Z</time></trkpt><trkpt lat="43.331211914046726" lon="10.661446880195733"><ele>40.0</ele><time>2026-04-18T14:23:45.001Z</time></trkpt><trkpt lat="43.331345503220305" lon="10.661328253234744"><ele>40.0</ele><time>2026-04-18T14:23:46.001Z</time></trkpt><trkpt lat="43.331477514116735" lon="10.661203442154768"><ele>38.66666666666667</ele><time>2026-04-18T14:23:47.001Z</time></trkpt><trkpt lat="43.33160025880251" lon="10.661071021739607"><ele>37.333333333333336</ele><time>2026-04-18T14:23:48.001Z</time></trkpt><trkpt lat="43.33172246528653" lon="10.660937073944131"><ele>36.0</ele><time>2026-04-18T14:23:49.001Z</time></trkpt><trkpt lat="43.33184321997184" lon="10.66080091100722"><ele>36.0</ele><time>2026-04-18T14:23:50.001Z</time></trkpt><trkpt lat="43.33195905606572" lon="10.660658537450193"><ele>36.0</ele><time>2026-04-18T14:23:51.001Z</time></trkpt><trkpt lat="43.332068771337035" lon="10.660510433425161"><ele>36.0</ele><time>2026-04-18T14:23:52.001Z</time></trkpt><trkpt lat="43.33217490969951" lon="10.660358777417656"><ele>37.0</ele><time>2026-04-18T14:23:53.001Z</time></trkpt><trkpt lat="43.33227765243785" lon="10.66019847138489"><ele>38.0</ele><time>2026-04-18T14:23:54.001Z</time></trkpt><trkpt lat="43.33237619900503" lon="10.660036813882265"><ele>39.0</ele><time>2026-04-18T14:23:55.001Z</time></trkpt><trkpt lat="43.33247316908181" lon="10.65986471114056"><ele>39.0</ele><time>2026-04-18T14:23:56.001Z</time></trkpt><trkpt lat="43.33256972039587" lon="10.659691532362105"><ele>39.0</ele><time>2026-04-18T14:23:57.001Z</time></trkpt><trkpt lat="43.33266910245399" lon="10.659522263967794"><ele>39.0</ele><time>2026-04-18T14:23:58.001Z</time></trkpt><trkpt lat="43.332767559052655" lon="10.6593462930275"><ele>38.0</ele><time>2026-04-18T14:23:59.001Z</time></trkpt><trkpt lat="43.33286744420728" lon="10.65916961967289"><ele>37.0</ele><time>2026-04-18T14:24:00.001Z</time></trkpt><trkpt lat="43.332962203047735" lon="10.65898941627283"><ele>36.0</ele><time>2026-04-18T14:24:01.001Z</time></trkpt><trkpt lat="43.33306050459271" lon="10.658809024845551"><ele>36.0</ele><time>2026-04-18T14:24:02.001Z</time></trkpt><trkpt lat="43.333157207954436" lon="10.658624166148083"><ele>36.0</ele><time>2026-04-18T14:24:03.001Z</time></trkpt><trkpt lat="43.333256474505546" lon="10.658444153133193"><ele>36.0</ele><time>2026-04-18T14:24:04.001Z</time></trkpt><trkpt lat="43.333356416440004" lon="10.658260368225653"><ele>34.666666666666664</ele><time>2026-04-18T14:24:05.001Z</time></trkpt><trkpt lat="43.333455980290005" lon="10.658074043036947"><ele>33.33333333333333</ele><time>2026-04-18T14:24:06.001Z</time></trkpt><trkpt lat="43.33355682673359" lon="10.657883390414964"><ele>32.0</ele><time>2026-04-18T14:24:07.001Z</time></trkpt><trkpt lat="43.33366141088511" lon="10.657692368282797"><ele>32.0</ele><time>2026-04-18T14:24:08.001Z</time></trkpt><trkpt lat="43.33376861790206" lon="10.657496794827985"><ele>32.0</ele><time>2026-04-18T14:24:09.001Z</time></trkpt><trkpt lat="43.333876233627365" lon="10.657302119010307"><ele>32.0</ele><time>2026-04-18T14:24:10.001Z</time></trkpt><trkpt lat="43.33398474468806" lon="10.657104778535485"><ele>32.33333333333333</ele><time>2026-04-18T14:24:11.001Z</time></trkpt><trkpt lat="43.33409584579948" lon="10.65690144487492"><ele>32.666666666666664</ele><time>2026-04-18T14:24:12.001Z</time></trkpt><trkpt lat="43.33420397115517" lon="10.656700747445946"><ele>33.0</ele><time>2026-04-18T14:24:13.001Z</time></trkpt><trkpt lat="43.33431106400599" lon="10.656502081278246"><ele>33.0</ele><time>2026-04-18T14:24:14.001Z</time></trkpt><trkpt lat="43.33441916317921" lon="10.656303307668606"><ele>33.0</ele><time>2026-04-18T14:24:15.001Z</time></trkpt><trkpt lat="43.33452734138178" lon="10.656106554370696"><ele>33.0</ele><time>2026-04-18T14:24:16.001Z</time></trkpt><trkpt lat="43.33463380083779" lon="10.655913990448278"><ele>34.333333333333336</ele><time>2026-04-18T14:24:17.001Z</time></trkpt><trkpt lat="43.334739618569984" lon="10.655720579248454"><ele>35.66666666666667</ele><time>2026-04-18T14:24:18.001Z</time></trkpt><trkpt lat="43.33484398697258" lon="10.655529823520688"><ele>37.0</ele><time>2026-04-18T14:24:19.001Z</time></trkpt><trkpt lat="43.334946612939014" lon="10.655340190413648"><ele>35.66666666666667</ele><time>2026-04-18T14:24:20.001Z</time></trkpt><trkpt lat="43.335047263069434" lon="10.655150927879893"><ele>34.333333333333336</ele><time>2026-04-18T14:24:21.001Z</time></trkpt><trkpt lat="43.33514774919645" lon="10.654965206539073"><ele>33.0</ele><time>2026-04-18T14:24:22.001Z</time></trkpt><trkpt lat="43.33524663460964" lon="10.65477977438663"><ele>33.0</ele><time>2026-04-18T14:24:23.001Z</time></trkpt><trkpt lat="43.33534720211175" lon="10.654594881402913"><ele>33.0</ele><time>2026-04-18T14:24:24.001Z</time></trkpt><trkpt lat="43.33544812712413" lon="10.654411036117047"><ele>33.0</ele><time>2026-04-18T14:24:25.001Z</time></trkpt><trkpt lat="43.33555126272283" lon="10.654229457746517"><ele>34.666666666666664</ele><time>2026-04-18T14:24:26.001Z</time></trkpt><trkpt lat="43.3356523951494" lon="10.654057271482436"><ele>36.33333333333333</ele><time>2026-04-18T14:24:27.001Z</time></trkpt><trkpt lat="43.335751349735524" lon="10.653886357653278"><ele>38.0</ele><time>2026-04-18T14:24:28.001Z</time></trkpt><trkpt lat="43.335852438641" lon="10.653721570196012"><ele>36.75</ele><time>2026-04-18T14:24:29.001Z</time></trkpt><trkpt lat="43.33594673448428" lon="10.65356174865261"><ele>35.5</ele><time>2026-04-18T14:24:30.001Z</time></trkpt><trkpt lat="43.33603843009496" lon="10.653412819288317"><ele>34.25</ele><time>2026-04-18T14:24:31.001Z</time></trkpt><trkpt lat="43.33611837816786" lon="10.653281884999068"><ele>33.0</ele><time>2026-04-18T14:24:32.001Z</time></trkpt><trkpt lat="43.33618465892167" lon="10.653172192956914"><ele>33.0</ele><time>2026-04-18T14:24:33.001Z</time></trkpt><trkpt lat="43.33624957705676" lon="10.653089393475023"><ele>33.0</ele><time>2026-04-18T14:24:34.001Z</time></trkpt><trkpt lat="43.33631369494221" lon="10.653032132203743"><ele>33.0</ele><time>2026-04-18T14:24:35.001Z</time></trkpt><trkpt lat="43.336387705516685" lon="10.652996050320574"><ele>33.0</ele><time>2026-04-18T14:24:36.001Z</time></trkpt><trkpt lat="43.33646663101621" lon="10.652973697020753"><ele>33.0</ele><time>2026-04-18T14:24:37.001Z</time></trkpt><trkpt lat="43.336535596115645" lon="10.652935676541725"><ele>33.0</ele><time>2026-04-18T14:24:38.001Z</time></trkpt><trkpt lat="43.33658627568172" lon="10.652867292276573"><ele>33.0</ele><time>2026-04-18T14:24:39.001Z</time></trkpt><trkpt lat="43.33662063509232" lon="10.652776583271303"><ele>33.0</ele><time>2026-04-18T14:24:40.001Z</time></trkpt><trkpt lat="43.336637195791525" lon="10.652661058489679"><ele>33.0</ele><time>2026-04-18T14:24:41.002Z</time></trkpt><trkpt lat="43.33665835049949" lon="10.652541005465048"><ele>33.0</ele><time>2026-04-18T14:24:42.002Z</time></trkpt><trkpt lat="43.33668943614726" lon="10.652429662906272"><ele>33.0</ele><time>2026-04-18T14:24:43.002Z</time></trkpt><trkpt lat="43.33674027299564" lon="10.652320566499395"><ele>33.0</ele><time>2026-04-18T14:24:44.002Z</time></trkpt><trkpt lat="43.336803463210465" lon="10.652224312630683"><ele>33.0</ele><time>2026-04-18T14:24:45.002Z</time></trkpt><trkpt lat="43.33687560255114" lon="10.652120167521227"><ele>33.0</ele><time>2026-04-18T14:24:46.002Z</time></trkpt><trkpt lat="43.336954067443536" lon="10.65200848058395"><ele>33.0</ele><time>2026-04-18T14:24:47.002Z</time></trkpt><trkpt lat="43.33703584274044" lon="10.651891099685178"><ele>33.0</ele><time>2026-04-18T14:24:48.002Z</time></trkpt><trkpt lat="43.3371212537702" lon="10.65176437774399"><ele>32.75</ele><time>2026-04-18T14:24:49.002Z</time></trkpt><trkpt lat="43.33721130787106" lon="10.651634464327215"><ele>32.5</ele><time>2026-04-18T14:24:50.002Z</time></trkpt><trkpt lat="43.337302555202044" lon="10.651495743770896"><ele>32.25</ele><time>2026-04-18T14:24:51.002Z</time></trkpt><trkpt lat="43.33739588269191" lon="10.651360470269461"><ele>32.0</ele><time>2026-04-18T14:24:52.002Z</time></trkpt><trkpt lat="43.337489440596244" lon="10.65122821745754"><ele>31.75</ele><time>2026-04-18T14:24:53.002Z</time></trkpt><trkpt lat="43.33758032163354" lon="10.651096374587413"><ele>31.5</ele><time>2026-04-18T14:24:54.002Z</time></trkpt><trkpt lat="43.337670474097806" lon="10.650966769993829"><ele>31.25</ele><time>2026-04-18T14:24:55.002Z</time></trkpt><trkpt lat="43.33776190746853" lon="10.650833840947016"><ele>31.0</ele><time>2026-04-18T14:24:56.002Z</time></trkpt><trkpt lat="43.33785528989438" lon="10.650691101760705"><ele>31.0</ele><time>2026-04-18T14:24:57.002Z</time></trkpt><trkpt lat="43.33795243215929" lon="10.65054539423584"><ele>31.0</ele><time>2026-04-18T14:24:58.002Z</time></trkpt><trkpt lat="43.338051464954795" lon="10.650397292422923"><ele>31.0</ele><time>2026-04-18T14:24:59.002Z</time></trkpt><trkpt lat="43.338149134479636" lon="10.650243418968596"><ele>31.0</ele><time>2026-04-18T14:25:00.002Z</time></trkpt><trkpt lat="43.33824214717164" lon="10.650082636946873"><ele>31.333333333333336</ele><time>2026-04-18T14:25:01.002Z</time></trkpt><trkpt lat="43.33833421518141" lon="10.649916989276287"><ele>31.666666666666664</ele><time>2026-04-18T14:25:02.002Z</time></trkpt><trkpt lat="43.338421443951155" lon="10.649746530949866"><ele>32.0</ele><time>2026-04-18T14:25:03.002Z</time></trkpt><trkpt lat="43.33850446568935" lon="10.649566288445019"><ele>32.0</ele><time>2026-04-18T14:25:04.002Z</time></trkpt><trkpt lat="43.338583748792836" lon="10.649384917469954"><ele>32.0</ele><time>2026-04-18T14:25:05.002Z</time></trkpt><trkpt lat="43.338658364416915" lon="10.649199071396446"><ele>32.0</ele><time>2026-04-18T14:25:06.002Z</time></trkpt><trkpt lat="43.338729226757394" lon="10.6490082710098"><ele>32.0</ele><time>2026-04-18T14:25:07.002Z</time></trkpt><trkpt lat="43.338795780103304" lon="10.648808337581832"><ele>32.0</ele><time>2026-04-18T14:25:08.002Z</time></trkpt><trkpt lat="43.338856307579924" lon="10.648607532937545"><ele>32.0</ele><time>2026-04-18T14:25:09.002Z</time></trkpt><trkpt lat="43.338915403801025" lon="10.648405126285198"><ele>32.0</ele><time>2026-04-18T14:25:10.002Z</time></trkpt><trkpt lat="43.33896996820233" lon="10.648201284848613"><ele>32.0</ele><time>2026-04-18T14:25:11.002Z</time></trkpt><trkpt lat="43.3390215802401" lon="10.647998894884099"><ele>32.0</ele><time>2026-04-18T14:25:12.002Z</time></trkpt><trkpt lat="43.33907078876245" lon="10.647800862818746"><ele>32.0</ele><time>2026-04-18T14:25:13.002Z</time></trkpt><trkpt lat="43.339119989896815" lon="10.647602097157275"><ele>32.0</ele><time>2026-04-18T14:25:14.002Z</time></trkpt><trkpt lat="43.33916629483743" lon="10.647410310163954"><ele>32.0</ele><time>2026-04-18T14:25:15.002Z</time></trkpt><trkpt lat="43.33921133082465" lon="10.647219157951435"><ele>32.0</ele><time>2026-04-18T14:25:16.002Z</time></trkpt><trkpt lat="43.3392565507397" lon="10.647030499629018"><ele>32.0</ele><time>2026-04-18T14:25:17.002Z</time></trkpt><trkpt lat="43.33930242844381" lon="10.646841149473634"><ele>32.0</ele><time>2026-04-18T14:25:18.002Z</time></trkpt><trkpt lat="43.33934926242102" lon="10.64664929071617"><ele>32.0</ele><time>2026-04-18T14:25:19.002Z</time></trkpt><trkpt lat="43.33939762305998" lon="10.64646198033126"><ele>32.0</ele><time>2026-04-18T14:25:20.002Z</time></trkpt><trkpt lat="43.33944636910211" lon="10.646279619458122"><ele>31.666666666666664</ele><time>2026-04-18T14:25:21.002Z</time></trkpt><trkpt lat="43.339489190801345" lon="10.646096611348046"><ele>31.333333333333336</ele><time>2026-04-18T14:25:22.002Z</time></trkpt><trkpt lat="43.339575534751376" lon="10.645727899848012"><ele>31.0</ele><time>2026-04-18T14:25:24Z</time></trkpt><trkpt lat="43.33961935125002" lon="10.64554413794414"><ele>31.0</ele><time>2026-04-18T14:25:25Z</time></trkpt><trkpt lat="43.33966319621827" lon="10.645361373811543"><ele>31.0</ele><time>2026-04-18T14:25:26Z</time></trkpt><trkpt lat="43.33970735071464" lon="10.645176664784428"><ele>31.0</ele><time>2026-04-18T14:25:27Z</time></trkpt><trkpt lat="43.33975064249028" lon="10.644994836714494"><ele>31.0</ele><time>2026-04-18T14:25:28Z</time></trkpt><trkpt lat="43.33979333626203" lon="10.644817486543234"><ele>31.0</ele><time>2026-04-18T14:25:29Z</time></trkpt><trkpt lat="43.33983325060268" lon="10.644664662597666"><ele>31.0</ele><time>2026-04-18T14:25:30Z</time></trkpt><trkpt lat="43.33986493562085" lon="10.644539640958119"><ele>31.0</ele><time>2026-04-18T14:25:31Z</time></trkpt><trkpt lat="43.33989448360228" lon="10.644438002556146"><ele>31.0</ele><time>2026-04-18T14:25:32Z</time></trkpt><trkpt lat="43.339928391023854" lon="10.644358742028478"><ele>31.0</ele><time>2026-04-18T14:25:33Z</time></trkpt><trkpt lat="43.34001374217018" lon="10.64428148620923"><ele>31.0</ele><time>2026-04-18T14:25:35Z</time></trkpt><trkpt lat="43.34011284577075" lon="10.644329707985866"><ele>31.0</ele><time>2026-04-18T14:25:37Z</time></trkpt><trkpt lat="43.34012219359036" lon="10.644483788676409"><ele>31.0</ele><time>2026-04-18T14:25:39Z</time></trkpt><trkpt lat="43.34013946074473" lon="10.644623643706838"><ele>31.0</ele><time>2026-04-18T14:25:41Z</time></trkpt><trkpt lat="43.34015533373009" lon="10.64475618962707"><ele>31.0</ele><time>2026-04-18T14:25:43Z</time></trkpt><trkpt lat="43.34025445209679" lon="10.644833626447864"><ele>31.000000000000004</ele><time>2026-04-18T14:25:46Z</time></trkpt><trkpt lat="43.34034075546758" lon="10.644863636064573"><ele>31.0</ele><time>2026-04-18T14:25:48Z</time></trkpt><trkpt lat="43.340447166214666" lon="10.644921141072265"><ele>31.0</ele><time>2026-04-18T14:25:50Z</time></trkpt><trkpt lat="43.34050655369814" lon="10.644976302237104"><ele>31.0</ele><time>2026-04-18T14:25:51Z</time></trkpt><trkpt lat="43.340573570181" lon="10.645032482131489"><ele>31.000000000000004</ele><time>2026-04-18T14:25:52Z</time></trkpt><trkpt lat="43.34064338781445" lon="10.645101669920606"><ele>31.0</ele><time>2026-04-18T14:25:53Z</time></trkpt><trkpt lat="43.34072095427128" lon="10.645174942830046"><ele>31.4</ele><time>2026-04-18T14:25:54Z</time></trkpt><trkpt lat="43.3408031431916" lon="10.645253226754448"><ele>31.8</ele><time>2026-04-18T14:25:55Z</time></trkpt><trkpt lat="43.340888421330284" lon="10.645332810235999"><ele>32.199999999999996</ele><time>2026-04-18T14:25:56Z</time></trkpt><trkpt lat="43.34097799684659" lon="10.645418267079776"><ele>32.6</ele><time>2026-04-18T14:25:57Z</time></trkpt><trkpt lat="43.34106989988706" lon="10.645508320701408"><ele>33.0</ele><time>2026-04-18T14:25:58Z</time></trkpt><trkpt lat="43.34115859232316" lon="10.64559076029932"><ele>33.0</ele><time>2026-04-18T14:25:59.001Z</time></trkpt><trkpt lat="43.3412371270631" lon="10.645679489089432"><ele>33.0</ele><time>2026-04-18T14:26:00.001Z</time></trkpt><trkpt lat="43.341299350282426" lon="10.645736863653525"><ele>33.0</ele><time>2026-04-18T14:26:01.001Z</time></trkpt><trkpt lat="43.34139163030982" lon="10.645828997200859"><ele>33.0</ele><time>2026-04-18T14:26:03.001Z</time></trkpt><trkpt lat="43.3414470858314" lon="10.645885472290333"><ele>33.0</ele><time>2026-04-18T14:26:04.001Z</time></trkpt><trkpt lat="43.34150767423923" lon="10.645949009416002"><ele>33.0</ele><time>2026-04-18T14:26:05.001Z</time></trkpt><trkpt lat="43.34157405215322" lon="10.646016165465877"><ele>32.833333333333336</ele><time>2026-04-18T14:26:06.001Z</time></trkpt><trkpt lat="43.3416352114633" lon="10.646082201659686"><ele>32.666666666666664</ele><time>2026-04-18T14:26:07.001Z</time></trkpt><trkpt lat="43.34169205228484" lon="10.64613506384331"><ele>32.5</ele><time>2026-04-18T14:26:08.001Z</time></trkpt><trkpt lat="43.341773238460114" lon="10.646213892176355"><ele>32.33333333333333</ele><time>2026-04-18T14:26:10.001Z</time></trkpt><trkpt lat="43.34184597548524" lon="10.646275507349891"><ele>32.166666666666664</ele><time>2026-04-18T14:26:12.001Z</time></trkpt><trkpt lat="43.34194388218935" lon="10.64634610769675"><ele>32.0</ele><time>2026-04-18T14:26:14.001Z</time></trkpt><trkpt lat="43.34201121765912" lon="10.646378129822917"><ele>31.999999999999996</ele><time>2026-04-18T14:26:15.001Z</time></trkpt><trkpt lat="43.34208380300525" lon="10.646407945411733"><ele>32.0</ele><time>2026-04-18T14:26:16.001Z</time></trkpt><trkpt lat="43.34215553207983" lon="10.646434524607741"><ele>32.0</ele><time>2026-04-18T14:26:17.001Z</time></trkpt><trkpt lat="43.342239938699485" lon="10.646457819652094"><ele>32.0</ele><time>2026-04-18T14:26:18.001Z</time></trkpt><trkpt lat="43.34232851041195" lon="10.646485508025595"><ele>31.999999999999996</ele><time>2026-04-18T14:26:19.001Z</time></trkpt><trkpt lat="43.34242063880373" lon="10.646511468091143"><ele>32.0</ele><time>2026-04-18T14:26:20.001Z</time></trkpt><trkpt lat="43.34251464939575" lon="10.646540070687328"><ele>32.800000000000004</ele><time>2026-04-18T14:26:21.001Z</time></trkpt><trkpt lat="43.34260769172168" lon="10.646577969985442"><ele>33.6</ele><time>2026-04-18T14:26:22.001Z</time></trkpt><trkpt lat="43.342701609302296" lon="10.646616053313096"><ele>34.400000000000006</ele><time>2026-04-18T14:26:23.001Z</time></trkpt><trkpt lat="43.34279267658085" lon="10.646667466441448"><ele>35.2</ele><time>2026-04-18T14:26:24.001Z</time></trkpt><trkpt lat="43.34288195310635" lon="10.64670610415573"><ele>36.0</ele><time>2026-04-18T14:26:25.001Z</time></trkpt><trkpt lat="43.342982256056274" lon="10.64672902847334"><ele>36.75</ele><time>2026-04-18T14:26:26.001Z</time></trkpt><trkpt lat="43.34312227745888" lon="10.646738124144838"><ele>37.5</ele><time>2026-04-18T14:26:27.001Z</time></trkpt><trkpt lat="43.34323531545279" lon="10.64674123022049"><ele>38.25</ele><time>2026-04-18T14:26:28.001Z</time></trkpt><trkpt lat="43.34334066948473" lon="10.646738423997519"><ele>39.0</ele><time>2026-04-18T14:26:29.001Z</time></trkpt><trkpt lat="43.343458046582334" lon="10.646743325144989"><ele>39.0</ele><time>2026-04-18T14:26:30.001Z</time></trkpt><trkpt lat="43.34356985471793" lon="10.646750312270214"><ele>39.0</ele><time>2026-04-18T14:26:31.001Z</time></trkpt><trkpt lat="43.34368736503682" lon="10.64676317164522"><ele>39.0</ele><time>2026-04-18T14:26:32.001Z</time></trkpt><trkpt lat="43.343805648759265" lon="10.64678484167526"><ele>39.0</ele><time>2026-04-18T14:26:33.001Z</time></trkpt><trkpt lat="43.3439259674239" lon="10.646787795518733"><ele>39.0</ele><time>2026-04-18T14:26:34.001Z</time></trkpt><trkpt lat="43.344040375341635" lon="10.64684293671774"><ele>39.0</ele><time>2026-04-18T14:26:35.001Z</time></trkpt><trkpt lat="43.34416781535394" lon="10.646861336137048"><ele>39.0</ele><time>2026-04-18T14:26:36.001Z</time></trkpt><trkpt lat="43.34429228827982" lon="10.646910247392857"><ele>39.0</ele><time>2026-04-18T14:26:37.001Z</time></trkpt><trkpt lat="43.34442095292769" lon="10.646945145570784"><ele>39.0</ele><time>2026-04-18T14:26:38.001Z</time></trkpt><trkpt lat="43.34454838198344" lon="10.646975265894303"><ele>39.0</ele><time>2026-04-18T14:26:39.001Z</time></trkpt><trkpt lat="43.344673490270026" lon="10.647004438172646"><ele>39.0</ele><time>2026-04-18T14:26:40.001Z</time></trkpt><trkpt lat="43.34480300567188" lon="10.64702588259417"><ele>39.0</ele><time>2026-04-18T14:26:41.001Z</time></trkpt><trkpt lat="43.34492660169175" lon="10.647051966561277"><ele>39.0</ele><time>2026-04-18T14:26:42.001Z</time></trkpt><trkpt lat="43.34504019895646" lon="10.647091974082965"><ele>39.0</ele><time>2026-04-18T14:26:43.001Z</time></trkpt><trkpt lat="43.34515876790647" lon="10.647126928580542"><ele>39.0</ele><time>2026-04-18T14:26:44.001Z</time></trkpt><trkpt lat="43.34526817455249" lon="10.647176466930723"><ele>39.0</ele><time>2026-04-18T14:26:45.001Z</time></trkpt><trkpt lat="43.34537108441222" lon="10.647225383111985"><ele>39.0</ele><time>2026-04-18T14:26:46.001Z</time></trkpt><trkpt lat="43.34547434811829" lon="10.647255298686494"><ele>39.0</ele><time>2026-04-18T14:26:47.001Z</time></trkpt><trkpt lat="43.345571628964" lon="10.647278960339374"><ele>39.0</ele><time>2026-04-18T14:26:48.001Z</time></trkpt><trkpt lat="43.34567181713542" lon="10.647305569258458"><ele>39.0</ele><time>2026-04-18T14:26:49.001Z</time></trkpt><trkpt lat="43.34577199195788" lon="10.647330099457339"><ele>39.0</ele><time>2026-04-18T14:26:50.001Z</time></trkpt><trkpt lat="43.34588872836754" lon="10.647366628617998"><ele>40.0</ele><time>2026-04-18T14:26:51.001Z</time></trkpt><trkpt lat="43.34600062768373" lon="10.647385938244048"><ele>41.0</ele><time>2026-04-18T14:26:52.001Z</time></trkpt><trkpt lat="43.34612286866482" lon="10.64742137767176"><ele>42.0</ele><time>2026-04-18T14:26:53.001Z</time></trkpt><trkpt lat="43.34623509984972" lon="10.64746302239245"><ele>43.0</ele><time>2026-04-18T14:26:54.001Z</time></trkpt><trkpt lat="43.34635085454396" lon="10.647476987971961"><ele>42.75</ele><time>2026-04-18T14:26:55.001Z</time></trkpt><trkpt lat="43.346482405390844" lon="10.647534227957815"><ele>42.5</ele><time>2026-04-18T14:26:56.001Z</time></trkpt><trkpt lat="43.346612473801954" lon="10.647601708104329"><ele>42.25</ele><time>2026-04-18T14:26:57.001Z</time></trkpt><trkpt lat="43.346737989186195" lon="10.64765543834631"><ele>42.0</ele><time>2026-04-18T14:26:58.001Z</time></trkpt><trkpt lat="43.346866007068265" lon="10.647711063953729"><ele>42.0</ele><time>2026-04-18T14:26:59.001Z</time></trkpt><trkpt lat="43.347006965047335" lon="10.647769616823169"><ele>42.0</ele><time>2026-04-18T14:27:00.001Z</time></trkpt><trkpt lat="43.34713872348581" lon="10.6478259252503"><ele>42.0</ele><time>2026-04-18T14:27:01.002Z</time></trkpt><trkpt lat="43.34727286151296" lon="10.647886913873348"><ele>42.0</ele><time>2026-04-18T14:27:02.002Z</time></trkpt><trkpt lat="43.34740117821406" lon="10.647934503877226"><ele>41.25</ele><time>2026-04-18T14:27:03.002Z</time></trkpt><trkpt lat="43.34752925561636" lon="10.647984648488896"><ele>40.5</ele><time>2026-04-18T14:27:04.002Z</time></trkpt><trkpt lat="43.347671637433294" lon="10.648042566303209"><ele>39.75</ele><time>2026-04-18T14:27:05.002Z</time></trkpt><trkpt lat="43.34781493172774" lon="10.648101615444213"><ele>39.0</ele><time>2026-04-18T14:27:06.002Z</time></trkpt><trkpt lat="43.34796037216033" lon="10.648160819225962"><ele>39.25</ele><time>2026-04-18T14:27:07.002Z</time></trkpt><trkpt lat="43.34810236330033" lon="10.648216951119572"><ele>39.5</ele><time>2026-04-18T14:27:08.002Z</time></trkpt><trkpt lat="43.34823827287617" lon="10.648273139335263"><ele>39.75</ele><time>2026-04-18T14:27:09.002Z</time></trkpt><trkpt lat="43.34837043688676" lon="10.648331860765412"><ele>40.0</ele><time>2026-04-18T14:27:10.002Z</time></trkpt><trkpt lat="43.34850437304413" lon="10.6483899853695"><ele>40.0</ele><time>2026-04-18T14:27:11.002Z</time></trkpt><trkpt lat="43.3486376281764" lon="10.648447032582594"><ele>40.0</ele><time>2026-04-18T14:27:12.002Z</time></trkpt><trkpt lat="43.348766693897296" lon="10.648503932227772"><ele>40.0</ele><time>2026-04-18T14:27:13.002Z</time></trkpt><trkpt lat="43.34889925626478" lon="10.648559926512139"><ele>40.0</ele><time>2026-04-18T14:27:14.002Z</time></trkpt><trkpt lat="43.34903445540327" lon="10.648613810158741"><ele>40.0</ele><time>2026-04-18T14:27:15.002Z</time></trkpt><trkpt lat="43.349170705913856" lon="10.648685243396356"><ele>40.0</ele><time>2026-04-18T14:27:16.002Z</time></trkpt><trkpt lat="43.34929942977572" lon="10.648735581882104"><ele>40.0</ele><time>2026-04-18T14:27:17.002Z</time></trkpt><trkpt lat="43.349430274986865" lon="10.648789478736882"><ele>40.0</ele><time>2026-04-18T14:27:18.002Z</time></trkpt><trkpt lat="43.34955182791093" lon="10.648832782268313"><ele>40.0</ele><time>2026-04-18T14:27:19.002Z</time></trkpt><trkpt lat="43.349675356504065" lon="10.648889059913007"><ele>40.0</ele><time>2026-04-18T14:27:20.002Z</time></trkpt><trkpt lat="43.34980313142205" lon="10.648954239735636"><ele>40.0</ele><time>2026-04-18T14:27:21.002Z</time></trkpt><trkpt lat="43.349933604092996" lon="10.649019598243312"><ele>40.0</ele><time>2026-04-18T14:27:22.002Z</time></trkpt><trkpt lat="43.35006555001767" lon="10.649085336166774"><ele>41.0</ele><time>2026-04-18T14:27:23.002Z</time></trkpt><trkpt lat="43.35020097600345" lon="10.649155414038352"><ele>42.0</ele><time>2026-04-18T14:27:24.002Z</time></trkpt><trkpt lat="43.350331325144" lon="10.649220310107951"><ele>43.0</ele><time>2026-04-18T14:27:25.002Z</time></trkpt><trkpt lat="43.350465832974606" lon="10.649286026212756"><ele>44.0</ele><time>2026-04-18T14:27:26.002Z</time></trkpt><trkpt lat="43.35060861244453" lon="10.649357948436748"><ele>44.0</ele><time>2026-04-18T14:27:27.002Z</time></trkpt><trkpt lat="43.350756624859244" lon="10.649425081100626"><ele>44.0</ele><time>2026-04-18T14:27:28.002Z</time></trkpt><trkpt lat="43.35089420430854" lon="10.649498756361732"><ele>44.0</ele><time>2026-04-18T14:27:29.002Z</time></trkpt><trkpt lat="43.35102918155594" lon="10.649570155237354"><ele>44.0</ele><time>2026-04-18T14:27:30Z</time></trkpt><trkpt lat="43.35116642450379" lon="10.649638356694263"><ele>44.25</ele><time>2026-04-18T14:27:31Z</time></trkpt><trkpt lat="43.351302158357925" lon="10.64970899385758"><ele>44.5</ele><time>2026-04-18T14:27:32Z</time></trkpt><trkpt lat="43.35143802343605" lon="10.649772475428499"><ele>44.75</ele><time>2026-04-18T14:27:33Z</time></trkpt><trkpt lat="43.351576811188906" lon="10.649838466615849"><ele>45.0</ele><time>2026-04-18T14:27:34Z</time></trkpt><trkpt lat="43.35170893169316" lon="10.649905136947682"><ele>45.0</ele><time>2026-04-18T14:27:35Z</time></trkpt><trkpt lat="43.351843963985175" lon="10.649975285628187"><ele>45.0</ele><time>2026-04-18T14:27:36Z</time></trkpt><trkpt lat="43.35198111709489" lon="10.65004456400412"><ele>45.0</ele><time>2026-04-18T14:27:37Z</time></trkpt><trkpt lat="43.35211709446434" lon="10.65011415044164"><ele>45.0</ele><time>2026-04-18T14:27:38Z</time></trkpt><trkpt lat="43.352253833962536" lon="10.65018309924158"><ele>45.25</ele><time>2026-04-18T14:27:39Z</time></trkpt><trkpt lat="43.352393491614194" lon="10.650252196772096"><ele>45.5</ele><time>2026-04-18T14:27:40Z</time></trkpt><trkpt lat="43.352532376623905" lon="10.650319803589417"><ele>45.75</ele><time>2026-04-18T14:27:41Z</time></trkpt><trkpt lat="43.35267159163628" lon="10.65039105022716"><ele>46.0</ele><time>2026-04-18T14:27:42Z</time></trkpt><trkpt lat="43.35281064390713" lon="10.650461266426328"><ele>46.0</ele><time>2026-04-18T14:27:43Z</time></trkpt><trkpt lat="43.35294631923452" lon="10.650527160407483"><ele>46.0</ele><time>2026-04-18T14:27:44Z</time></trkpt><trkpt lat="43.35308337756544" lon="10.650597384598337"><ele>46.0</ele><time>2026-04-18T14:27:45Z</time></trkpt><trkpt lat="43.353218687314595" lon="10.650666504855778"><ele>46.0</ele><time>2026-04-18T14:27:46Z</time></trkpt><trkpt lat="43.35335050242753" lon="10.65073628554925"><ele>46.5</ele><time>2026-04-18T14:27:47Z</time></trkpt><trkpt lat="43.35347922059519" lon="10.650805742823291"><ele>47.0</ele><time>2026-04-18T14:27:48Z</time></trkpt><trkpt lat="43.35360421875628" lon="10.650866207495403"><ele>47.5</ele><time>2026-04-18T14:27:49Z</time></trkpt><trkpt lat="43.35372428910305" lon="10.650920351679238"><ele>48.0</ele><time>2026-04-18T14:27:50Z</time></trkpt><trkpt lat="43.353837607194" lon="10.650975365360557"><ele>49.0</ele><time>2026-04-18T14:27:51Z</time></trkpt><trkpt lat="43.35394870840748" lon="10.651021966053962"><ele>50.0</ele><time>2026-04-18T14:27:52Z</time></trkpt><trkpt lat="43.354058520771574" lon="10.651045713166324"><ele>51.0</ele><time>2026-04-18T14:27:53Z</time></trkpt><trkpt lat="43.35417039453187" lon="10.651078621867502"><ele>52.0</ele><time>2026-04-18T14:27:54Z</time></trkpt><trkpt lat="43.354282539713154" lon="10.65111621759785"><ele>51.75</ele><time>2026-04-18T14:27:55Z</time></trkpt><trkpt lat="43.35439758935569" lon="10.651158308515496"><ele>51.5</ele><time>2026-04-18T14:27:56Z</time></trkpt><trkpt lat="43.35451530018718" lon="10.651197936471675"><ele>51.25</ele><time>2026-04-18T14:27:57Z</time></trkpt><trkpt lat="43.354632642005726" lon="10.65124061826992"><ele>51.0</ele><time>2026-04-18T14:27:58Z</time></trkpt><trkpt lat="43.354749105209365" lon="10.65128699138788"><ele>51.0</ele><time>2026-04-18T14:27:59Z</time></trkpt><trkpt lat="43.354863218157156" lon="10.651326465123804"><ele>51.0</ele><time>2026-04-18T14:28:00Z</time></trkpt><trkpt lat="43.35497614867124" lon="10.65136475326975"><ele>51.0</ele><time>2026-04-18T14:28:01Z</time></trkpt><trkpt lat="43.35508619315953" lon="10.651403301383395"><ele>51.0</ele><time>2026-04-18T14:28:02Z</time></trkpt><trkpt lat="43.35519732463004" lon="10.651432048826713"><ele>51.0</ele><time>2026-04-18T14:28:03Z</time></trkpt><trkpt lat="43.35530917926326" lon="10.651469362790877"><ele>51.0</ele><time>2026-04-18T14:28:04Z</time></trkpt><trkpt lat="43.35541405487185" lon="10.651508415167951"><ele>51.0</ele><time>2026-04-18T14:28:05.001Z</time></trkpt><trkpt lat="43.35551732955251" lon="10.651543740240616"><ele>51.0</ele><time>2026-04-18T14:28:06.001Z</time></trkpt><trkpt lat="43.35562042840839" lon="10.651575901888847"><ele>51.0</ele><time>2026-04-18T14:28:07.001Z</time></trkpt><trkpt lat="43.35572370151903" lon="10.651603273081665"><ele>52.0</ele><time>2026-04-18T14:28:08.001Z</time></trkpt><trkpt lat="43.35582287117424" lon="10.65163530829488"><ele>53.0</ele><time>2026-04-18T14:28:09.001Z</time></trkpt><trkpt lat="43.355917482546374" lon="10.65165576825443"><ele>53.99999999999999</ele><time>2026-04-18T14:28:10.001Z</time></trkpt><trkpt lat="43.3560142150745" lon="10.651679398257807"><ele>55.0</ele><time>2026-04-18T14:28:11.001Z</time></trkpt><trkpt lat="43.356109232430086" lon="10.651713805340961"><ele>56.0</ele><time>2026-04-18T14:28:12.001Z</time></trkpt><trkpt lat="43.35620651430323" lon="10.651756525964368"><ele>56.0</ele><time>2026-04-18T14:28:13.001Z</time></trkpt><trkpt lat="43.356303141126745" lon="10.651818911018816"><ele>56.0</ele><time>2026-04-18T14:28:14.001Z</time></trkpt><trkpt lat="43.35640852616246" lon="10.651891639786855"><ele>56.0</ele><time>2026-04-18T14:28:15.001Z</time></trkpt><trkpt lat="43.35651123808769" lon="10.65196634117278"><ele>56.0</ele><time>2026-04-18T14:28:16.001Z</time></trkpt><trkpt lat="43.356617131529426" lon="10.65204414205595"><ele>55.75</ele><time>2026-04-18T14:28:17.001Z</time></trkpt><trkpt lat="43.35673660893582" lon="10.652100121821167"><ele>55.5</ele><time>2026-04-18T14:28:18.001Z</time></trkpt><trkpt lat="43.356850940058166" lon="10.652185333132147"><ele>55.25</ele><time>2026-04-18T14:28:19.001Z</time></trkpt><trkpt lat="43.35695929159247" lon="10.652258901004553"><ele>55.0</ele><time>2026-04-18T14:28:20.001Z</time></trkpt><trkpt lat="43.35707303965844" lon="10.65233386141631"><ele>55.0</ele><time>2026-04-18T14:28:21.001Z</time></trkpt><trkpt lat="43.357191366013645" lon="10.65239223089081"><ele>55.0</ele><time>2026-04-18T14:28:22.001Z</time></trkpt><trkpt lat="43.35730529572527" lon="10.652469659493951"><ele>55.0</ele><time>2026-04-18T14:28:23.001Z</time></trkpt><trkpt lat="43.357416220305105" lon="10.65254357573169"><ele>55.0</ele><time>2026-04-18T14:28:24.001Z</time></trkpt><trkpt lat="43.35752398508724" lon="10.652621455132012"><ele>55.0</ele><time>2026-04-18T14:28:25.001Z</time></trkpt><trkpt lat="43.35763317540759" lon="10.652685365431951"><ele>55.0</ele><time>2026-04-18T14:28:26.001Z</time></trkpt><trkpt lat="43.35774319938304" lon="10.652748822025458"><ele>55.0</ele><time>2026-04-18T14:28:27.001Z</time></trkpt><trkpt lat="43.35785903710848" lon="10.652802229908286"><ele>55.0</ele><time>2026-04-18T14:28:28.001Z</time></trkpt><trkpt lat="43.35797761578501" lon="10.652848288381762"><ele>55.33333333333333</ele><time>2026-04-18T14:28:29.001Z</time></trkpt><trkpt lat="43.35820978119268" lon="10.652911481960547"><ele>55.66666666666667</ele><time>2026-04-18T14:28:31.001Z</time></trkpt><trkpt lat="43.35832406444202" lon="10.652934802668906"><ele>56.0</ele><time>2026-04-18T14:28:32.001Z</time></trkpt><trkpt lat="43.35843850587735" lon="10.652954534333574"><ele>56.0</ele><time>2026-04-18T14:28:33.001Z</time></trkpt><trkpt lat="43.35855244322232" lon="10.652963842471344"><ele>55.99999999999999</ele><time>2026-04-18T14:28:34.001Z</time></trkpt><trkpt lat="43.35865999134881" lon="10.652974943548568"><ele>55.99999999999999</ele><time>2026-04-18T14:28:35.001Z</time></trkpt><trkpt lat="43.358760443012486" lon="10.652985617534164"><ele>56.0</ele><time>2026-04-18T14:28:36.001Z</time></trkpt><trkpt lat="43.358856483668475" lon="10.653001369755653"><ele>56.0</ele><time>2026-04-18T14:28:37.001Z</time></trkpt><trkpt lat="43.35896212040593" lon="10.653035604350253"><ele>57.0</ele><time>2026-04-18T14:28:38.001Z</time></trkpt><trkpt lat="43.35905712748505" lon="10.653089391035373"><ele>57.99999999999999</ele><time>2026-04-18T14:28:39.001Z</time></trkpt><trkpt lat="43.35915860395061" lon="10.653145850965817"><ele>58.99999999999999</ele><time>2026-04-18T14:28:40.001Z</time></trkpt><trkpt lat="43.35925976427027" lon="10.653201750522895"><ele>60.0</ele><time>2026-04-18T14:28:41.001Z</time></trkpt><trkpt lat="43.35936022204462" lon="10.65325704684227"><ele>61.0</ele><time>2026-04-18T14:28:42.001Z</time></trkpt><trkpt lat="43.35946468925519" lon="10.653291691778364"><ele>60.99999999999999</ele><time>2026-04-18T14:28:43.001Z</time></trkpt><trkpt lat="43.35955942772755" lon="10.653321628035078"><ele>61.0</ele><time>2026-04-18T14:28:44.001Z</time></trkpt><trkpt lat="43.359647852299716" lon="10.653334065865225"><ele>61.0</ele><time>2026-04-18T14:28:45.001Z</time></trkpt><trkpt lat="43.35973321750099" lon="10.65335134532968"><ele>61.0</ele><time>2026-04-18T14:28:46.001Z</time></trkpt><trkpt lat="43.35982028370004" lon="10.653362406607464"><ele>60.99999999999999</ele><time>2026-04-18T14:28:47.001Z</time></trkpt><trkpt lat="43.35990679170763" lon="10.653372706198335"><ele>61.0</ele><time>2026-04-18T14:28:48.001Z</time></trkpt><trkpt lat="43.35999503071276" lon="10.65338364033616"><ele>61.33333333333333</ele><time>2026-04-18T14:28:49.001Z</time></trkpt><trkpt lat="43.36008006523667" lon="10.65339711770623"><ele>61.666666666666664</ele><time>2026-04-18T14:28:50.001Z</time></trkpt><trkpt lat="43.360165554740036" lon="10.653412372733824"><ele>62.0</ele><time>2026-04-18T14:28:51.001Z</time></trkpt><trkpt lat="43.360239156076325" lon="10.653447826721921"><ele>62.33333333333333</ele><time>2026-04-18T14:28:52.001Z</time></trkpt><trkpt lat="43.360314962778986" lon="10.653489239074956"><ele>62.666666666666664</ele><time>2026-04-18T14:28:53.001Z</time></trkpt><trkpt lat="43.360380622858" lon="10.653523074642155"><ele>63.0</ele><time>2026-04-18T14:28:54.001Z</time></trkpt><trkpt lat="43.36045330170553" lon="10.653549240550102"><ele>63.0</ele><time>2026-04-18T14:28:55.001Z</time></trkpt><trkpt lat="43.36052961220657" lon="10.653586055538701"><ele>63.0</ele><time>2026-04-18T14:28:56.001Z</time></trkpt><trkpt lat="43.36060476406252" lon="10.653623942065222"><ele>63.0</ele><time>2026-04-18T14:28:57.001Z</time></trkpt><trkpt lat="43.36067456312301" lon="10.653663265501576"><ele>63.0</ele><time>2026-04-18T14:28:58.001Z</time></trkpt><trkpt lat="43.36074209864967" lon="10.65369992815293"><ele>63.0</ele><time>2026-04-18T14:28:59.001Z</time></trkpt><trkpt lat="43.36080832038485" lon="10.65373182450233"><ele>63.0</ele><time>2026-04-18T14:29:00.001Z</time></trkpt><trkpt lat="43.360874716492816" lon="10.653760566385799"><ele>63.0</ele><time>2026-04-18T14:29:01.001Z</time></trkpt><trkpt lat="43.36093912732342" lon="10.653785883444714"><ele>63.166666666666664</ele><time>2026-04-18T14:29:02.001Z</time></trkpt><trkpt lat="43.36100062059795" lon="10.653811691150942"><ele>63.33333333333333</ele><time>2026-04-18T14:29:03.001Z</time></trkpt><trkpt lat="43.36109610146545" lon="10.653888238701755"><ele>63.5</ele><time>2026-04-18T14:29:05.001Z</time></trkpt><trkpt lat="43.36117208538666" lon="10.6539632786405"><ele>63.666666666666664</ele><time>2026-04-18T14:29:07.001Z</time></trkpt><trkpt lat="43.36123416368779" lon="10.654018706448706"><ele>63.83333333333333</ele><time>2026-04-18T14:29:09.002Z</time></trkpt><trkpt lat="43.361293765367016" lon="10.654064211303327"><ele>64.0</ele><time>2026-04-18T14:29:11.002Z</time></trkpt><trkpt lat="43.36134493189559" lon="10.654117220436609"><ele>64.66666666666666</ele><time>2026-04-18T14:29:13.002Z</time></trkpt><trkpt lat="43.361405936802875" lon="10.654184376004956"><ele>65.33333333333333</ele><time>2026-04-18T14:29:15.002Z</time></trkpt><trkpt lat="43.36146145264255" lon="10.654269727889233"><ele>66.0</ele><time>2026-04-18T14:29:17.002Z</time></trkpt><trkpt lat="43.36151335328007" lon="10.654359736096522"><ele>66.66666666666667</ele><time>2026-04-18T14:29:19.002Z</time></trkpt><trkpt lat="43.36156428051674" lon="10.654463487472638"><ele>67.33333333333334</ele><time>2026-04-18T14:29:21.002Z</time></trkpt><trkpt lat="43.36163537757177" lon="10.654552803797706"><ele>68.0</ele><time>2026-04-18T14:29:23.002Z</time></trkpt><trkpt lat="43.36171035474855" lon="10.654656442168939"><ele>68.0</ele><time>2026-04-18T14:29:25.002Z</time></trkpt><trkpt lat="43.36180309933869" lon="10.654729247755192"><ele>68.0</ele><time>2026-04-18T14:29:27.002Z</time></trkpt><trkpt lat="43.36190694895896" lon="10.65476378603093"><ele>68.0</ele><time>2026-04-18T14:29:29.002Z</time></trkpt><trkpt lat="43.362018318486356" lon="10.654789590727258"><ele>68.0</ele><time>2026-04-18T14:29:31.002Z</time></trkpt><trkpt lat="43.36211195647099" lon="10.654820469971094"><ele>68.0</ele><time>2026-04-18T14:29:33.002Z</time></trkpt><trkpt lat="43.362202080030734" lon="10.654873771311033"><ele>70.6</ele><time>2026-04-18T14:29:35.002Z</time></trkpt><trkpt lat="43.36230312928073" lon="10.654940768008528"><ele>73.19999999999999</ele><time>2026-04-18T14:29:37Z</time></trkpt><trkpt lat="43.36241837664294" lon="10.654967656849907"><ele>75.8</ele><time>2026-04-18T14:29:39Z</time></trkpt><trkpt lat="43.362525023174" lon="10.654952079689108"><ele>78.39999999999999</ele><time>2026-04-18T14:29:41Z</time></trkpt><trkpt lat="43.36263349092764" lon="10.654917349037007"><ele>81.0</ele><time>2026-04-18T14:29:43Z</time></trkpt><trkpt lat="43.36274356410107" lon="10.654894425750946"><ele>81.0</ele><time>2026-04-18T14:29:45Z</time></trkpt><trkpt lat="43.362859029324184" lon="10.654896769767149"><ele>81.0</ele><time>2026-04-18T14:29:47Z</time></trkpt><trkpt lat="43.362952711694426" lon="10.654979350945181"><ele>81.0</ele><time>2026-04-18T14:29:49Z</time></trkpt><trkpt lat="43.36303716979248" lon="10.655063424590853"><ele>81.0</ele><time>2026-04-18T14:29:51Z</time></trkpt><trkpt lat="43.36308971965861" lon="10.655147418732827"><ele>81.0</ele><time>2026-04-18T14:29:53Z</time></trkpt><trkpt lat="43.363151595053246" lon="10.65517934949567"><ele>80.83333333333333</ele><time>2026-04-18T14:29:54Z</time></trkpt><trkpt lat="43.36321478791765" lon="10.65522853009568"><ele>80.66666666666667</ele><time>2026-04-18T14:29:56Z</time></trkpt><trkpt lat="43.36329372140216" lon="10.655210328131904"><ele>80.5</ele><time>2026-04-18T14:29:58Z</time></trkpt><trkpt lat="43.363384431591676" lon="10.655194412122349"><ele>80.33333333333334</ele><time>2026-04-18T14:30:00Z</time></trkpt><trkpt lat="43.36347335316615" lon="10.65521071096019"><ele>80.16666666666667</ele><time>2026-04-18T14:30:02Z</time></trkpt><trkpt lat="43.36356701251531" lon="10.65527425555166"><ele>80.0</ele><time>2026-04-18T14:30:04Z</time></trkpt><trkpt lat="43.363659426904256" lon="10.655314826840002"><ele>81.8</ele><time>2026-04-18T14:30:06Z</time></trkpt><trkpt lat="43.363751716968366" lon="10.655271693113969"><ele>83.6</ele><time>2026-04-18T14:30:08Z</time></trkpt><trkpt lat="43.36378752034642" lon="10.65512977746969"><ele>85.4</ele><time>2026-04-18T14:30:10Z</time></trkpt><trkpt lat="43.363757318641696" lon="10.65496585077825"><ele>87.2</ele><time>2026-04-18T14:30:12Z</time></trkpt><trkpt lat="43.36370619313024" lon="10.654896601013744"><ele>89.0</ele><time>2026-04-18T14:30:13Z</time></trkpt><trkpt lat="43.3636219211521" lon="10.654762824454822"><ele>89.0</ele><time>2026-04-18T14:30:15Z</time></trkpt><trkpt lat="43.363573663414655" lon="10.654644602963296"><ele>89.0</ele><time>2026-04-18T14:30:17Z</time></trkpt><trkpt lat="43.36351083455599" lon="10.654537040611773"><ele>89.0</ele><time>2026-04-18T14:30:19Z</time></trkpt><trkpt lat="43.363463235309865" lon="10.654419221719678"><ele>89.0</ele><time>2026-04-18T14:30:21Z</time></trkpt><trkpt lat="43.36337117315513" lon="10.654367806449095"><ele>89.0</ele><time>2026-04-18T14:30:23.001Z</time></trkpt><trkpt lat="43.36328853448254" lon="10.654279355929276"><ele>90.66666666666667</ele><time>2026-04-18T14:30:25.001Z</time></trkpt><trkpt lat="43.363259651415845" lon="10.654199852144263"><ele>92.33333333333334</ele><time>2026-04-18T14:30:29.001Z</time></trkpt><trkpt lat="43.36333206833193" lon="10.654158097791324"><ele>94.0</ele><time>2026-04-18T14:30:32.001Z</time></trkpt><trkpt lat="43.36340861649267" lon="10.6542114620485"><ele>95.66666666666667</ele><time>2026-04-18T14:30:34.001Z</time></trkpt><trkpt lat="43.36350658442877" lon="10.65426297055364"><ele>97.33333333333333</ele><time>2026-04-18T14:30:36.001Z</time></trkpt><trkpt lat="43.36357104489649" lon="10.654273827668733"><ele>99.0</ele><time>2026-04-18T14:30:37.001Z</time></trkpt><trkpt lat="43.36363653455475" lon="10.654281109211132"><ele>99.0</ele><time>2026-04-18T14:30:38.001Z</time></trkpt><trkpt lat="43.36369900177226" lon="10.654293796465252"><ele>99.0</ele><time>2026-04-18T14:30:39.001Z</time></trkpt><trkpt lat="43.36379941742626" lon="10.654330867665282"><ele>99.0</ele><time>2026-04-18T14:30:41.001Z</time></trkpt><trkpt lat="43.36389791535783" lon="10.654376318116354"><ele>99.0</ele><time>2026-04-18T14:30:43.001Z</time></trkpt><trkpt lat="43.3639867034653" lon="10.654451296517667"><ele>99.0</ele><time>2026-04-18T14:30:45.001Z</time></trkpt><trkpt lat="43.36406747288898" lon="10.654543762689903"><ele>99.5</ele><time>2026-04-18T14:30:47.001Z</time></trkpt><trkpt lat="43.36414257511637" lon="10.654638641084489"><ele>100.0</ele><time>2026-04-18T14:30:49.001Z</time></trkpt><trkpt lat="43.36419719926071" lon="10.654727673130923"><ele>100.5</ele><time>2026-04-18T14:30:51.001Z</time></trkpt><trkpt lat="43.36425211947618" lon="10.654790306434217"><ele>101.0</ele><time>2026-04-18T14:30:52.001Z</time></trkpt><trkpt lat="43.36433565849417" lon="10.654834171344385"><ele>101.5</ele><time>2026-04-18T14:30:53.001Z</time></trkpt><trkpt lat="43.36439782370858" lon="10.65486656677811"><ele>102.0</ele><time>2026-04-18T14:30:54.001Z</time></trkpt><trkpt lat="43.36445900804216" lon="10.654894706967918"><ele>102.0</ele><time>2026-04-18T14:30:55.001Z</time></trkpt><trkpt lat="43.36457789051971" lon="10.654935888659804"><ele>102.0</ele><time>2026-04-18T14:30:57.001Z</time></trkpt><trkpt lat="43.36469581623483" lon="10.654946369889938"><ele>102.0</ele><time>2026-04-18T14:30:59.001Z</time></trkpt><trkpt lat="43.364762478031814" lon="10.654978023592276"><ele>102.0</ele><time>2026-04-18T14:31:00.001Z</time></trkpt><trkpt lat="43.364875263829006" lon="10.655014608765535"><ele>102.0</ele><time>2026-04-18T14:31:02.001Z</time></trkpt><trkpt lat="43.36498003841136" lon="10.65509561737683"><ele>104.19999999999999</ele><time>2026-04-18T14:31:04.001Z</time></trkpt><trkpt lat="43.365096749848846" lon="10.655084713403333"><ele>106.4</ele><time>2026-04-18T14:31:06.001Z</time></trkpt><trkpt lat="43.365209338770825" lon="10.655044837921402"><ele>108.60000000000001</ele><time>2026-04-18T14:31:08.001Z</time></trkpt><trkpt lat="43.36526767773059" lon="10.655006030883714"><ele>110.80000000000001</ele><time>2026-04-18T14:31:09.001Z</time></trkpt><trkpt lat="43.36537556420697" lon="10.654936344276297"><ele>113.0</ele><time>2026-04-18T14:31:11.001Z</time></trkpt><trkpt lat="43.36548641515672" lon="10.654887974118775"><ele>113.0</ele><time>2026-04-18T14:31:13.001Z</time></trkpt><trkpt lat="43.36559775335214" lon="10.654848851187024"><ele>113.00000000000001</ele><time>2026-04-18T14:31:15.001Z</time></trkpt><trkpt lat="43.36570717047654" lon="10.654818955207002"><ele>113.00000000000001</ele><time>2026-04-18T14:31:17.001Z</time></trkpt><trkpt lat="43.365810601201986" lon="10.654803869078584"><ele>113.0</ele><time>2026-04-18T14:31:19.001Z</time></trkpt><trkpt lat="43.36590605621728" lon="10.654839972600698"><ele>113.0</ele><time>2026-04-18T14:31:21.001Z</time></trkpt><trkpt lat="43.36600079235523" lon="10.654853577820155"><ele>113.0</ele><time>2026-04-18T14:31:23.001Z</time></trkpt><trkpt lat="43.36609624016197" lon="10.654840663120996"><ele>113.00000000000001</ele><time>2026-04-18T14:31:25.002Z</time></trkpt><trkpt lat="43.36615274115934" lon="10.654723185357584"><ele>113.00000000000001</ele><time>2026-04-18T14:31:27.002Z</time></trkpt><trkpt lat="43.36616846720162" lon="10.654560538173415"><ele>113.0</ele><time>2026-04-18T14:31:29.002Z</time></trkpt><trkpt lat="43.36616299573146" lon="10.654415572884089"><ele>113.0</ele><time>2026-04-18T14:31:31.002Z</time></trkpt><trkpt lat="43.366187188413456" lon="10.654274602887343"><ele>114.0</ele><time>2026-04-18T14:31:33.002Z</time></trkpt><trkpt lat="43.366231425534956" lon="10.654124016750295"><ele>115.00000000000001</ele><time>2026-04-18T14:31:35.002Z</time></trkpt><trkpt lat="43.36626546554144" lon="10.654036562744988"><ele>116.00000000000001</ele><time>2026-04-18T14:31:36.002Z</time></trkpt><trkpt lat="43.36630422391989" lon="10.653934265971468"><ele>117.0</ele><time>2026-04-18T14:31:37.002Z</time></trkpt><trkpt lat="43.36634908897196" lon="10.653831889434878"><ele>118.0</ele><time>2026-04-18T14:31:38.002Z</time></trkpt><trkpt lat="43.366372041455506" lon="10.653711605144522"><ele>120.00000000000001</ele><time>2026-04-18T14:31:39.002Z</time></trkpt><trkpt lat="43.36638018220834" lon="10.653594376349602"><ele>122.0</ele><time>2026-04-18T14:31:40.002Z</time></trkpt><trkpt lat="43.36640667957269" lon="10.65348471599352"><ele>124.0</ele><time>2026-04-18T14:31:41.002Z</time></trkpt><trkpt lat="43.36646414939338" lon="10.653386688215466"><ele>126.0</ele><time>2026-04-18T14:31:42Z</time></trkpt><trkpt lat="43.366521919768424" lon="10.653324870020997"><ele>128.0</ele><time>2026-04-18T14:31:43Z</time></trkpt><trkpt lat="43.366594081407925" lon="10.653310292057077"><ele>130.0</ele><time>2026-04-18T14:31:44Z</time></trkpt><trkpt lat="43.366666010107004" lon="10.653309369025667"><ele>130.0</ele><time>2026-04-18T14:31:45Z</time></trkpt><trkpt lat="43.3667469778466" lon="10.653304554494913"><ele>130.0</ele><time>2026-04-18T14:31:46Z</time></trkpt><trkpt lat="43.36682538872323" lon="10.653279608790756"><ele>130.0</ele><time>2026-04-18T14:31:47Z</time></trkpt><trkpt lat="43.36690928404504" lon="10.653284851936666"><ele>130.0</ele><time>2026-04-18T14:31:48Z</time></trkpt><trkpt lat="43.366992722418516" lon="10.65327522604553"><ele>130.0</ele><time>2026-04-18T14:31:49Z</time></trkpt><trkpt lat="43.367077074078175" lon="10.653261819779674"><ele>130.0</ele><time>2026-04-18T14:31:50Z</time></trkpt><trkpt lat="43.36716463520843" lon="10.653250613829709"><ele>129.6</ele><time>2026-04-18T14:31:51Z</time></trkpt><trkpt lat="43.36725621807481" lon="10.653222806158388"><ele>129.2</ele><time>2026-04-18T14:31:52Z</time></trkpt><trkpt lat="43.36734344570634" lon="10.653192133377873"><ele>128.8</ele><time>2026-04-18T14:31:53Z</time></trkpt><trkpt lat="43.36743469976263" lon="10.653161148940827"><ele>128.4</ele><time>2026-04-18T14:31:54Z</time></trkpt><trkpt lat="43.3675205330424" lon="10.653148014184278"><ele>128.0</ele><time>2026-04-18T14:31:55Z</time></trkpt><trkpt lat="43.36761729640463" lon="10.653097833303521"><ele>127.99999999999999</ele><time>2026-04-18T14:31:56Z</time></trkpt><trkpt lat="43.36771393968521" lon="10.65305224125896"><ele>128.0</ele><time>2026-04-18T14:31:57Z</time></trkpt><trkpt lat="43.367811028063684" lon="10.653034690571333"><ele>128.0</ele><time>2026-04-18T14:31:58Z</time></trkpt><trkpt lat="43.36788632347322" lon="10.653031610315141"><ele>128.0</ele><time>2026-04-18T14:31:59Z</time></trkpt><trkpt lat="43.36797430644849" lon="10.653084921046217"><ele>127.99999999999999</ele><time>2026-04-18T14:32:00Z</time></trkpt><trkpt lat="43.36804651476266" lon="10.65311284112864"><ele>128.0</ele><time>2026-04-18T14:32:01Z</time></trkpt><trkpt lat="43.3681282967326" lon="10.653089685423799"><ele>128.66666666666666</ele><time>2026-04-18T14:32:02Z</time></trkpt><trkpt lat="43.36819421098749" lon="10.653041885696814"><ele>129.33333333333331</ele><time>2026-04-18T14:32:03Z</time></trkpt><trkpt lat="43.36823351813336" lon="10.652949956378668"><ele>130.0</ele><time>2026-04-18T14:32:04Z</time></trkpt><trkpt lat="43.368271835401" lon="10.652839924387411"><ele>130.66666666666666</ele><time>2026-04-18T14:32:05Z</time></trkpt><trkpt lat="43.36831873113387" lon="10.652748455243945"><ele>131.33333333333334</ele><time>2026-04-18T14:32:06Z</time></trkpt><trkpt lat="43.36837974450682" lon="10.652674916156494"><ele>132.0</ele><time>2026-04-18T14:32:07Z</time></trkpt><trkpt lat="43.36844851324417" lon="10.65261845306836"><ele>134.5</ele><time>2026-04-18T14:32:08Z</time></trkpt><trkpt lat="43.368521882259024" lon="10.652563585857417"><ele>137.0</ele><time>2026-04-18T14:32:09Z</time></trkpt><trkpt lat="43.368595842271425" lon="10.652527682067157"><ele>139.5</ele><time>2026-04-18T14:32:10Z</time></trkpt><trkpt lat="43.36867536364227" lon="10.652527367258722"><ele>142.0</ele><time>2026-04-18T14:32:11Z</time></trkpt><trkpt lat="43.36875097691265" lon="10.652560965150734"><ele>144.5</ele><time>2026-04-18T14:32:12Z</time></trkpt><trkpt lat="43.36881277921849" lon="10.652648124807937"><ele>147.0</ele><time>2026-04-18T14:32:13Z</time></trkpt><trkpt lat="43.36885840560858" lon="10.652753604728527"><ele>145.5</ele><time>2026-04-18T14:32:14Z</time></trkpt><trkpt lat="43.36889911926245" lon="10.652854099453476"><ele>144.0</ele><time>2026-04-18T14:32:15Z</time></trkpt><trkpt lat="43.36896114490155" lon="10.65292840445295"><ele>142.5</ele><time>2026-04-18T14:32:16Z</time></trkpt><trkpt lat="43.369032385127824" lon="10.652973234277301"><ele>141.0</ele><time>2026-04-18T14:32:17Z</time></trkpt><trkpt lat="43.369113147268735" lon="10.653006329120052"><ele>139.5</ele><time>2026-04-18T14:32:18Z</time></trkpt><trkpt lat="43.36920036046067" lon="10.65300405237342"><ele>138.0</ele><time>2026-04-18T14:32:19Z</time></trkpt><trkpt lat="43.36928841573719" lon="10.652989517246402"><ele>138.0</ele><time>2026-04-18T14:32:20Z</time></trkpt><trkpt lat="43.369369788886985" lon="10.652976436176546"><ele>138.0</ele><time>2026-04-18T14:32:21Z</time></trkpt><trkpt lat="43.369457130953336" lon="10.652953657876488"><ele>138.0</ele><time>2026-04-18T14:32:22Z</time></trkpt><trkpt lat="43.36954416885586" lon="10.65293460970238"><ele>138.0</ele><time>2026-04-18T14:32:23Z</time></trkpt><trkpt lat="43.36963768993919" lon="10.652909179704384"><ele>138.0</ele><time>2026-04-18T14:32:24Z</time></trkpt><trkpt lat="43.369728009210746" lon="10.652882224263246"><ele>138.0</ele><time>2026-04-18T14:32:25Z</time></trkpt><trkpt lat="43.369809860587594" lon="10.65285476115674"><ele>138.16666666666666</ele><time>2026-04-18T14:32:26Z</time></trkpt><trkpt lat="43.36988808587767" lon="10.652789871972212"><ele>138.33333333333334</ele><time>2026-04-18T14:32:27Z</time></trkpt><trkpt lat="43.369961550528984" lon="10.652729951608334"><ele>138.5</ele><time>2026-04-18T14:32:28Z</time></trkpt><trkpt lat="43.37002466270514" lon="10.652673102012146"><ele>138.66666666666669</ele><time>2026-04-18T14:32:29Z</time></trkpt><trkpt lat="43.370094425062774" lon="10.652641497988526"><ele>138.83333333333334</ele><time>2026-04-18T14:32:30Z</time></trkpt><trkpt lat="43.37017127431874" lon="10.652628202189486"><ele>139.0</ele><time>2026-04-18T14:32:31Z</time></trkpt><trkpt lat="43.37025472007022" lon="10.652643447146845"><ele>141.83333333333334</ele><time>2026-04-18T14:32:32Z</time></trkpt><trkpt lat="43.370333419560104" lon="10.652678070870861"><ele>144.66666666666669</ele><time>2026-04-18T14:32:33Z</time></trkpt><trkpt lat="43.370420921547165" lon="10.652700944752123"><ele>147.5</ele><time>2026-04-18T14:32:34Z</time></trkpt><trkpt lat="43.37050968424264" lon="10.652702190501225"><ele>150.33333333333334</ele><time>2026-04-18T14:32:35.001Z</time></trkpt><trkpt lat="43.370583664316435" lon="10.65272038350504"><ele>153.16666666666666</ele><time>2026-04-18T14:32:36.001Z</time></trkpt><trkpt lat="43.370652381172064" lon="10.652706692043157"><ele>156.0</ele><time>2026-04-18T14:32:37.001Z</time></trkpt><trkpt lat="43.370711962396776" lon="10.652675703139426"><ele>156.0</ele><time>2026-04-18T14:32:38.001Z</time></trkpt><trkpt lat="43.37076916547796" lon="10.65262310381355"><ele>156.0</ele><time>2026-04-18T14:32:39.001Z</time></trkpt><trkpt lat="43.37082209414563" lon="10.652552538354369"><ele>156.0</ele><time>2026-04-18T14:32:40.001Z</time></trkpt><trkpt lat="43.37088003579841" lon="10.65248738154635"><ele>156.0</ele><time>2026-04-18T14:32:41.001Z</time></trkpt><trkpt lat="43.37094827584822" lon="10.652351450686472"><ele>156.0</ele><time>2026-04-18T14:32:43.001Z</time></trkpt><trkpt lat="43.370881192620416" lon="10.652195049867162"><ele>156.0</ele><time>2026-04-18T14:32:45.001Z</time></trkpt><trkpt lat="43.37081189429806" lon="10.652194686035982"><ele>156.0</ele><time>2026-04-18T14:32:46.001Z</time></trkpt><trkpt lat="43.37075494938827" lon="10.652242589699938"><ele>156.0</ele><time>2026-04-18T14:32:47.001Z</time></trkpt><trkpt lat="43.370657527576554" lon="10.652278187017293"><ele>156.0</ele><time>2026-04-18T14:32:49.001Z</time></trkpt><trkpt lat="43.37058987112513" lon="10.65214759136416"><ele>156.0</ele><time>2026-04-18T14:32:51.001Z</time></trkpt><trkpt lat="43.37051754796486" lon="10.652050508576329"><ele>156.83333333333334</ele><time>2026-04-18T14:32:53.001Z</time></trkpt><trkpt lat="43.370425028988194" lon="10.651972697828812"><ele>157.66666666666666</ele><time>2026-04-18T14:32:55.001Z</time></trkpt><trkpt lat="43.37036173055249" lon="10.651943863906716"><ele>158.5</ele><time>2026-04-18T14:32:56.001Z</time></trkpt><trkpt lat="43.37027818745257" lon="10.65194793740873"><ele>159.33333333333331</ele><time>2026-04-18T14:32:57.001Z</time></trkpt><trkpt lat="43.37020599084741" lon="10.651974930594754"><ele>160.16666666666666</ele><time>2026-04-18T14:32:58.001Z</time></trkpt><trkpt lat="43.37014368174926" lon="10.652001758510524"><ele>161.0</ele><time>2026-04-18T14:32:59.001Z</time></trkpt><trkpt lat="43.37008010986109" lon="10.652024880283015"><ele>161.0</ele><time>2026-04-18T14:33:00.001Z</time></trkpt><trkpt lat="43.37001853458504" lon="10.652045859466202"><ele>161.0</ele><time>2026-04-18T14:33:01.001Z</time></trkpt><trkpt lat="43.36995505327907" lon="10.652087453637243"><ele>161.0</ele><time>2026-04-18T14:33:02.001Z</time></trkpt><trkpt lat="43.36987835675379" lon="10.65210535062662"><ele>161.0</ele><time>2026-04-18T14:33:03.001Z</time></trkpt><trkpt lat="43.36980344310802" lon="10.652109067234328"><ele>161.0</ele><time>2026-04-18T14:33:04.001Z</time></trkpt><trkpt lat="43.369733413291" lon="10.652085111241444"><ele>161.0</ele><time>2026-04-18T14:33:05.001Z</time></trkpt><trkpt lat="43.36965862275193" lon="10.652044268713205"><ele>161.0</ele><time>2026-04-18T14:33:06.001Z</time></trkpt><trkpt lat="43.36958780262918" lon="10.651990757323118"><ele>161.83333333333331</ele><time>2026-04-18T14:33:07.001Z</time></trkpt><trkpt lat="43.36952947199472" lon="10.651918206539907"><ele>162.66666666666666</ele><time>2026-04-18T14:33:08.001Z</time></trkpt><trkpt lat="43.369471765812364" lon="10.651847540211135"><ele>163.5</ele><time>2026-04-18T14:33:09.001Z</time></trkpt><trkpt lat="43.369415293495344" lon="10.651797339116095"><ele>164.33333333333334</ele><time>2026-04-18T14:33:10.001Z</time></trkpt><trkpt lat="43.36937899304251" lon="10.651719438601102"><ele>165.16666666666669</ele><time>2026-04-18T14:33:11.001Z</time></trkpt><trkpt lat="43.36936007353163" lon="10.651543135586765"><ele>166.0</ele><time>2026-04-18T14:33:13.001Z</time></trkpt><trkpt lat="43.369383739661565" lon="10.651446293200513"><ele>166.0</ele><time>2026-04-18T14:33:14.001Z</time></trkpt><trkpt lat="43.36941223650247" lon="10.651353794075657"><ele>166.0</ele><time>2026-04-18T14:33:15.001Z</time></trkpt><trkpt lat="43.36944573030048" lon="10.651261997553274"><ele>166.0</ele><time>2026-04-18T14:33:16.001Z</time></trkpt><trkpt lat="43.369478763995225" lon="10.651166962219996"><ele>166.0</ele><time>2026-04-18T14:33:17.001Z</time></trkpt><trkpt lat="43.36950894681768" lon="10.65107118489912"><ele>166.0</ele><time>2026-04-18T14:33:18.001Z</time></trkpt><trkpt lat="43.36954758330925" lon="10.65098953019331"><ele>166.0</ele><time>2026-04-18T14:33:19.001Z</time></trkpt><trkpt lat="43.369606186663475" lon="10.650938805303888"><ele>166.0</ele><time>2026-04-18T14:33:20.001Z</time></trkpt><trkpt lat="43.369692157404955" lon="10.650887641913096"><ele>168.0</ele><time>2026-04-18T14:33:21.001Z</time></trkpt><trkpt lat="43.36976661765284" lon="10.650849045866916"><ele>170.0</ele><time>2026-04-18T14:33:22.001Z</time></trkpt><trkpt lat="43.36984449162554" lon="10.650834741714467"><ele>172.0</ele><time>2026-04-18T14:33:23.001Z</time></trkpt><trkpt lat="43.36992293537986" lon="10.650804432980323"><ele>174.0</ele><time>2026-04-18T14:33:24.001Z</time></trkpt><trkpt lat="43.37000875508353" lon="10.650812557564292"><ele>176.0</ele><time>2026-04-18T14:33:25.001Z</time></trkpt><trkpt lat="43.37010515988402" lon="10.65083466668532"><ele>178.0</ele><time>2026-04-18T14:33:26.001Z</time></trkpt><trkpt lat="43.370199046652544" lon="10.650846665123323"><ele>178.0</ele><time>2026-04-18T14:33:27.001Z</time></trkpt><trkpt lat="43.37028975702834" lon="10.650857523841703"><ele>178.0</ele><time>2026-04-18T14:33:28.001Z</time></trkpt><trkpt lat="43.370377740829475" lon="10.650887420686123"><ele>178.0</ele><time>2026-04-18T14:33:29.001Z</time></trkpt><trkpt lat="43.370457299313976" lon="10.65092727762857"><ele>178.0</ele><time>2026-04-18T14:33:30.001Z</time></trkpt><trkpt lat="43.37052641006345" lon="10.650970118352847"><ele>178.0</ele><time>2026-04-18T14:33:31.001Z</time></trkpt><trkpt lat="43.3706356389688" lon="10.650925227681418"><ele>178.0</ele><time>2026-04-18T14:33:33.002Z</time></trkpt><trkpt lat="43.37068148238719" lon="10.650859071412015"><ele>178.0</ele><time>2026-04-18T14:33:34.002Z</time></trkpt><trkpt lat="43.370740434293886" lon="10.65076115873306"><ele>178.0</ele><time>2026-04-18T14:33:35.002Z</time></trkpt><trkpt lat="43.37080764728068" lon="10.650676050106531"><ele>178.0</ele><time>2026-04-18T14:33:36.002Z</time></trkpt><trkpt lat="43.370875384590384" lon="10.650561134062475"><ele>178.0</ele><time>2026-04-18T14:33:37.002Z</time></trkpt><trkpt lat="43.370954100007246" lon="10.650443097713696"><ele>178.0</ele><time>2026-04-18T14:33:38.002Z</time></trkpt><trkpt lat="43.37104050861506" lon="10.650322417120456"><ele>178.0</ele><time>2026-04-18T14:33:39.002Z</time></trkpt><trkpt lat="43.37113251474421" lon="10.650200382950626"><ele>178.0</ele><time>2026-04-18T14:33:40.002Z</time></trkpt><trkpt lat="43.37121662792074" lon="10.650082568605574"><ele>178.0</ele><time>2026-04-18T14:33:41.002Z</time></trkpt><trkpt lat="43.37130388312488" lon="10.64995416591066"><ele>177.8</ele><time>2026-04-18T14:33:42.002Z</time></trkpt><trkpt lat="43.37138581663146" lon="10.649836003969973"><ele>177.60000000000002</ele><time>2026-04-18T14:33:43.002Z</time></trkpt><trkpt lat="43.37145557776056" lon="10.649727795943752"><ele>177.39999999999998</ele><time>2026-04-18T14:33:44.002Z</time></trkpt><trkpt lat="43.37150206135884" lon="10.649627988741997"><ele>177.2</ele><time>2026-04-18T14:33:45.002Z</time></trkpt><trkpt lat="43.37153187356336" lon="10.649519902911798"><ele>177.0</ele><time>2026-04-18T14:33:46.002Z</time></trkpt><trkpt lat="43.37155168766055" lon="10.649416464185059"><ele>177.0</ele><time>2026-04-18T14:33:47.002Z</time></trkpt><trkpt lat="43.371563156254005" lon="10.649320190270224"><ele>177.0</ele><time>2026-04-18T14:33:48Z</time></trkpt><trkpt lat="43.37157742136753" lon="10.649230173466183"><ele>177.0</ele><time>2026-04-18T14:33:49Z</time></trkpt><trkpt lat="43.371610405875145" lon="10.649114081520057"><ele>177.0</ele><time>2026-04-18T14:33:51Z</time></trkpt><trkpt lat="43.371684722204655" lon="10.649077870903266"><ele>177.0</ele><time>2026-04-18T14:33:53Z</time></trkpt><trkpt lat="43.37179072457716" lon="10.649050962234021"><ele>177.0</ele><time>2026-04-18T14:33:55Z</time></trkpt><trkpt lat="43.371863281351544" lon="10.64905112547233"><ele>177.0</ele><time>2026-04-18T14:33:56Z</time></trkpt><trkpt lat="43.37194857449405" lon="10.649052002211441"><ele>177.0</ele><time>2026-04-18T14:33:57Z</time></trkpt><trkpt lat="43.37204289919674" lon="10.649052572626596"><ele>177.0</ele><time>2026-04-18T14:33:58Z</time></trkpt><trkpt lat="43.37214403771482" lon="10.649047865722455"><ele>177.0</ele><time>2026-04-18T14:33:59Z</time></trkpt><trkpt lat="43.37225533444433" lon="10.649042791377038"><ele>177.0</ele><time>2026-04-18T14:34:00Z</time></trkpt><trkpt lat="43.37236995206824" lon="10.649036226968688"><ele>177.25</ele><time>2026-04-18T14:34:01Z</time></trkpt><trkpt lat="43.37248826444988" lon="10.64903110472436"><ele>177.5</ele><time>2026-04-18T14:34:02Z</time></trkpt><trkpt lat="43.37260700632387" lon="10.649027278283546"><ele>177.75</ele><time>2026-04-18T14:34:03Z</time></trkpt><trkpt lat="43.37273325291647" lon="10.649024253310127"><ele>178.0</ele><time>2026-04-18T14:34:04Z</time></trkpt><trkpt lat="43.37285405407509" lon="10.649012195224902"><ele>178.0</ele><time>2026-04-18T14:34:05Z</time></trkpt><trkpt lat="43.372978472499334" lon="10.649003841334805"><ele>178.0</ele><time>2026-04-18T14:34:06Z</time></trkpt><trkpt lat="43.3730981638062" lon="10.648999023232095"><ele>178.0</ele><time>2026-04-18T14:34:07Z</time></trkpt><trkpt lat="43.373205495561045" lon="10.648997086929903"><ele>178.0</ele><time>2026-04-18T14:34:08Z</time></trkpt><trkpt lat="43.37330235069289" lon="10.648991737083822"><ele>178.0</ele><time>2026-04-18T14:34:09Z</time></trkpt><trkpt lat="43.37340087570572" lon="10.6489783581025"><ele>178.4</ele><time>2026-04-18T14:34:10Z</time></trkpt><trkpt lat="43.37350463661854" lon="10.648970557586003"><ele>178.8</ele><time>2026-04-18T14:34:11Z</time></trkpt><trkpt lat="43.37360720513489" lon="10.64896606424101"><ele>179.2</ele><time>2026-04-18T14:34:12Z</time></trkpt><trkpt lat="43.37370998063315" lon="10.648963061143462"><ele>179.6</ele><time>2026-04-18T14:34:13Z</time></trkpt><trkpt lat="43.37380798896092" lon="10.648958886819834"><ele>180.0</ele><time>2026-04-18T14:34:14Z</time></trkpt><trkpt lat="43.37390171203712" lon="10.648952418332865"><ele>179.33333333333334</ele><time>2026-04-18T14:34:15Z</time></trkpt><trkpt lat="43.37397812393529" lon="10.648939094848728"><ele>178.66666666666666</ele><time>2026-04-18T14:34:16Z</time></trkpt><trkpt lat="43.37404702749039" lon="10.64890586666709"><ele>178.0</ele><time>2026-04-18T14:34:17Z</time></trkpt><trkpt lat="43.374121448818094" lon="10.648854459652757"><ele>177.33333333333331</ele><time>2026-04-18T14:34:18Z</time></trkpt><trkpt lat="43.374198745182326" lon="10.648791166878608"><ele>176.66666666666666</ele><time>2026-04-18T14:34:19Z</time></trkpt><trkpt lat="43.3742746097214" lon="10.64871572158119"><ele>176.0</ele><time>2026-04-18T14:34:20Z</time></trkpt><trkpt lat="43.37435898261317" lon="10.648651083949558"><ele>176.20000000000002</ele><time>2026-04-18T14:34:21Z</time></trkpt><trkpt lat="43.37443270940605" lon="10.64858680533858"><ele>176.4</ele><time>2026-04-18T14:34:22Z</time></trkpt><trkpt lat="43.3745115420731" lon="10.648513479242158"><ele>176.6</ele><time>2026-04-18T14:34:23Z</time></trkpt><trkpt lat="43.374588532310796" lon="10.648451127660786"><ele>176.8</ele><time>2026-04-18T14:34:24Z</time></trkpt><trkpt lat="43.37467321812612" lon="10.648384966155879"><ele>177.0</ele><time>2026-04-18T14:34:25Z</time></trkpt><trkpt lat="43.37475679643245" lon="10.648307517308488"><ele>177.0</ele><time>2026-04-18T14:34:26Z</time></trkpt><trkpt lat="43.37483774252795" lon="10.648237124753988"><ele>177.0</ele><time>2026-04-18T14:34:27Z</time></trkpt><trkpt lat="43.37491500030157" lon="10.64816617204767"><ele>177.0</ele><time>2026-04-18T14:34:28Z</time></trkpt><trkpt lat="43.37497969293395" lon="10.648104223339782"><ele>177.0</ele><time>2026-04-18T14:34:29Z</time></trkpt><trkpt lat="43.3750400036921" lon="10.64802582476508"><ele>177.0</ele><time>2026-04-18T14:34:30Z</time></trkpt><trkpt lat="43.37511272726681" lon="10.647959181420193"><ele>177.0</ele><time>2026-04-18T14:34:31Z</time></trkpt><trkpt lat="43.37516795588433" lon="10.647898343041772"><ele>177.0</ele><time>2026-04-18T14:34:32Z</time></trkpt><trkpt lat="43.37523487614477" lon="10.647853199044905"><ele>177.0</ele><time>2026-04-18T14:34:33Z</time></trkpt><trkpt lat="43.375326463958885" lon="10.647832454337099"><ele>177.0</ele><time>2026-04-18T14:34:34Z</time></trkpt><trkpt lat="43.37542251536284" lon="10.647828323330451"><ele>177.0</ele><time>2026-04-18T14:34:35Z</time></trkpt><trkpt lat="43.37551900075377" lon="10.647826882184217"><ele>177.0</ele><time>2026-04-18T14:34:36Z</time></trkpt><trkpt lat="43.375615907216435" lon="10.6478353153282"><ele>176.8</ele><time>2026-04-18T14:34:37Z</time></trkpt><trkpt lat="43.37571923026238" lon="10.647839868607338"><ele>176.6</ele><time>2026-04-18T14:34:38.001Z</time></trkpt><trkpt lat="43.375826616617545" lon="10.647830823216232"><ele>176.4</ele><time>2026-04-18T14:34:39.001Z</time></trkpt><trkpt lat="43.37592370252266" lon="10.64783795759547"><ele>176.20000000000002</ele><time>2026-04-18T14:34:40.001Z</time></trkpt><trkpt lat="43.37601670824185" lon="10.6478629180848"><ele>176.0</ele><time>2026-04-18T14:34:41.001Z</time></trkpt><trkpt lat="43.376100602650325" lon="10.647875129870318"><ele>176.0</ele><time>2026-04-18T14:34:42.001Z</time></trkpt><trkpt lat="43.37617451775828" lon="10.647876487845434"><ele>176.0</ele><time>2026-04-18T14:34:43.001Z</time></trkpt><trkpt lat="43.37624497915861" lon="10.647840529211035"><ele>176.0</ele><time>2026-04-18T14:34:44.001Z</time></trkpt><trkpt lat="43.376310303704535" lon="10.647776930078724"><ele>176.0</ele><time>2026-04-18T14:34:45.001Z</time></trkpt><trkpt lat="43.37636107727154" lon="10.647725127223541"><ele>176.0</ele><time>2026-04-18T14:34:46.001Z</time></trkpt><trkpt lat="43.37644165315989" lon="10.64767385740914"><ele>176.0</ele><time>2026-04-18T14:34:47.001Z</time></trkpt><trkpt lat="43.37653569182994" lon="10.647636855977343"><ele>179.60000000000002</ele><time>2026-04-18T14:34:48.001Z</time></trkpt><trkpt lat="43.37665090644314" lon="10.64769320174579"><ele>183.2</ele><time>2026-04-18T14:34:49.001Z</time></trkpt><trkpt lat="43.37674966215377" lon="10.64772700809994"><ele>186.8</ele><time>2026-04-18T14:34:50.001Z</time></trkpt><trkpt lat="43.376845861011084" lon="10.647730365431125"><ele>190.39999999999998</ele><time>2026-04-18T14:34:51.001Z</time></trkpt><trkpt lat="43.376942936261166" lon="10.647716946539779"><ele>194.0</ele><time>2026-04-18T14:34:52.001Z</time></trkpt><trkpt lat="43.37704209422736" lon="10.647708540357801"><ele>194.0</ele><time>2026-04-18T14:34:53.001Z</time></trkpt><trkpt lat="43.377148674405454" lon="10.647676772392517"><ele>194.0</ele><time>2026-04-18T14:34:54.001Z</time></trkpt><trkpt lat="43.377275336007905" lon="10.647625628832882"><ele>194.0</ele><time>2026-04-18T14:34:55.001Z</time></trkpt><trkpt lat="43.37739471865434" lon="10.64759791476764"><ele>194.0</ele><time>2026-04-18T14:34:56.001Z</time></trkpt><trkpt lat="43.37751215009486" lon="10.647571046427025"><ele>193.33333333333334</ele><time>2026-04-18T14:34:57.001Z</time></trkpt><trkpt lat="43.37760874273721" lon="10.647573846473161"><ele>192.66666666666669</ele><time>2026-04-18T14:34:58.001Z</time></trkpt><trkpt lat="43.37768541054345" lon="10.647540317560878"><ele>192.0</ele><time>2026-04-18T14:34:59.001Z</time></trkpt><trkpt lat="43.377746757333256" lon="10.647519365902381"><ele>191.33333333333334</ele><time>2026-04-18T14:35:00.001Z</time></trkpt><trkpt lat="43.37780772568633" lon="10.647473940905213"><ele>190.66666666666669</ele><time>2026-04-18T14:35:01.001Z</time></trkpt><trkpt lat="43.37786432212057" lon="10.647420123085968"><ele>190.0</ele><time>2026-04-18T14:35:02.001Z</time></trkpt><trkpt lat="43.3779250926312" lon="10.647355138292548"><ele>190.0</ele><time>2026-04-18T14:35:03.001Z</time></trkpt><trkpt lat="43.37798647085782" lon="10.647285550351427"><ele>190.0</ele><time>2026-04-18T14:35:04.001Z</time></trkpt><trkpt lat="43.37805229526632" lon="10.647210868316686"><ele>190.0</ele><time>2026-04-18T14:35:05.001Z</time></trkpt><trkpt lat="43.37812929353562" lon="10.64715975034053"><ele>190.0</ele><time>2026-04-18T14:35:06.001Z</time></trkpt><trkpt lat="43.37820304026697" lon="10.647089841704723"><ele>190.0</ele><time>2026-04-18T14:35:07.001Z</time></trkpt><trkpt lat="43.37828138945149" lon="10.647027575788366"><ele>190.0</ele><time>2026-04-18T14:35:08.001Z</time></trkpt><trkpt lat="43.37835550465074" lon="10.646958578447721"><ele>191.6</ele><time>2026-04-18T14:35:09.001Z</time></trkpt><trkpt lat="43.37842703201775" lon="10.646857174178281"><ele>193.2</ele><time>2026-04-18T14:35:10.001Z</time></trkpt><trkpt lat="43.37849529140514" lon="10.646777877052989"><ele>194.8</ele><time>2026-04-18T14:35:11.001Z</time></trkpt><trkpt lat="43.37856572512023" lon="10.64671403259686"><ele>196.4</ele><time>2026-04-18T14:35:12.001Z</time></trkpt><trkpt lat="43.37864184166802" lon="10.646637137890066"><ele>198.0</ele><time>2026-04-18T14:35:13.001Z</time></trkpt><trkpt lat="43.37872877835818" lon="10.646582905904184"><ele>198.0</ele><time>2026-04-18T14:35:14.001Z</time></trkpt><trkpt lat="43.37881692409107" lon="10.64653831442577"><ele>198.0</ele><time>2026-04-18T14:35:15.001Z</time></trkpt><trkpt lat="43.37891426088153" lon="10.646507049591275"><ele>198.0</ele><time>2026-04-18T14:35:16.001Z</time></trkpt><trkpt lat="43.379005926787336" lon="10.64646537176899"><ele>198.0</ele><time>2026-04-18T14:35:17.001Z</time></trkpt><trkpt lat="43.37909188126192" lon="10.64642223443651"><ele>198.0</ele><time>2026-04-18T14:35:18.001Z</time></trkpt><trkpt lat="43.379176442073785" lon="10.64638973980616"><ele>195.60000000000002</ele><time>2026-04-18T14:35:19.001Z</time></trkpt><trkpt lat="43.379275251340886" lon="10.64634538678145"><ele>193.20000000000002</ele><time>2026-04-18T14:35:20.001Z</time></trkpt><trkpt lat="43.37936982021713" lon="10.646343454317083"><ele>190.8</ele><time>2026-04-18T14:35:21.001Z</time></trkpt><trkpt lat="43.379451164061756" lon="10.646331817988779"><ele>188.4</ele><time>2026-04-18T14:35:22.001Z</time></trkpt><trkpt lat="43.379534056254705" lon="10.646311774687373"><ele>186.0</ele><time>2026-04-18T14:35:23.001Z</time></trkpt><trkpt lat="43.379619243727994" lon="10.646275155611711"><ele>185.8</ele><time>2026-04-18T14:35:24.001Z</time></trkpt><trkpt lat="43.379708042515" lon="10.646219158005755"><ele>185.60000000000002</ele><time>2026-04-18T14:35:25.001Z</time></trkpt><trkpt lat="43.37980544241211" lon="10.646177792100818"><ele>185.4</ele><time>2026-04-18T14:35:26.001Z</time></trkpt><trkpt lat="43.37989513435449" lon="10.646100105058924"><ele>185.2</ele><time>2026-04-18T14:35:27.001Z</time></trkpt><trkpt lat="43.380000267441616" lon="10.64606555971984"><ele>185.0</ele><time>2026-04-18T14:35:28.001Z</time></trkpt><trkpt lat="43.38010718123134" lon="10.646061063392995"><ele>186.8</ele><time>2026-04-18T14:35:29.001Z</time></trkpt><trkpt lat="43.38021708544747" lon="10.64604006378906"><ele>188.6</ele><time>2026-04-18T14:35:30.001Z</time></trkpt><trkpt lat="43.38031391852752" lon="10.646023583170534"><ele>190.39999999999998</ele><time>2026-04-18T14:35:31.001Z</time></trkpt><trkpt lat="43.38041035869592" lon="10.646016156352633"><ele>192.2</ele><time>2026-04-18T14:35:32.002Z</time></trkpt><trkpt lat="43.380495052283074" lon="10.646016002908222"><ele>194.0</ele><time>2026-04-18T14:35:33.002Z</time></trkpt><trkpt lat="43.38056788461656" lon="10.646028199189198"><ele>194.00000000000003</ele><time>2026-04-18T14:35:34.002Z</time></trkpt><trkpt lat="43.38063751274228" lon="10.646010834218355"><ele>194.0</ele><time>2026-04-18T14:35:35.002Z</time></trkpt><trkpt lat="43.38070486435039" lon="10.645993757686563"><ele>194.0</ele><time>2026-04-18T14:35:36.002Z</time></trkpt><trkpt lat="43.380779614009036" lon="10.645941044964696"><ele>194.0</ele><time>2026-04-18T14:35:37.002Z</time></trkpt><trkpt lat="43.380844285368845" lon="10.645860661503972"><ele>194.00000000000003</ele><time>2026-04-18T14:35:38.002Z</time></trkpt><trkpt lat="43.38089096630956" lon="10.6457789982237"><ele>194.0</ele><time>2026-04-18T14:35:39.002Z</time></trkpt><trkpt lat="43.380935949452876" lon="10.6456978658252"><ele>194.00000000000003</ele><time>2026-04-18T14:35:40.002Z</time></trkpt><trkpt lat="43.38097404982916" lon="10.645606727530536"><ele>194.0</ele><time>2026-04-18T14:35:41.002Z</time></trkpt><trkpt lat="43.381010346165326" lon="10.645503151918602"><ele>194.0</ele><time>2026-04-18T14:35:42.002Z</time></trkpt><trkpt lat="43.381047015835776" lon="10.645400184454749"><ele>194.0</ele><time>2026-04-18T14:35:43.002Z</time></trkpt><trkpt lat="43.38110077164601" lon="10.645331373921527"><ele>194.00000000000003</ele><time>2026-04-18T14:35:45.002Z</time></trkpt><trkpt lat="43.38120261172112" lon="10.645359141097746"><ele>194.0</ele><time>2026-04-18T14:35:47.002Z</time></trkpt><trkpt lat="43.381258481296506" lon="10.645412436144838"><ele>194.0</ele><time>2026-04-18T14:35:48.002Z</time></trkpt><trkpt lat="43.38131304038383" lon="10.64546750145137"><ele>194.0</ele><time>2026-04-18T14:35:49.002Z</time></trkpt><trkpt lat="43.38137057728228" lon="10.645515270269591"><ele>194.0</ele><time>2026-04-18T14:35:50.002Z</time></trkpt><trkpt lat="43.38143214802962" lon="10.645558819364542"><ele>194.0</ele><time>2026-04-18T14:35:51.002Z</time></trkpt><trkpt lat="43.38151184075848" lon="10.645588096056697"><ele>194.0</ele><time>2026-04-18T14:35:52.002Z</time></trkpt><trkpt lat="43.381581475911474" lon="10.645594812203468"><ele>194.0</ele><time>2026-04-18T14:35:53.002Z</time></trkpt><trkpt lat="43.38164542910565" lon="10.645581249584758"><ele>194.0</ele><time>2026-04-18T14:35:54Z</time></trkpt><trkpt lat="43.38170521985655" lon="10.645547681165837"><ele>193.85714285714286</ele><time>2026-04-18T14:35:55Z</time></trkpt><trkpt lat="43.381765086113795" lon="10.645496509992768"><ele>193.71428571428572</ele><time>2026-04-18T14:35:56Z</time></trkpt><trkpt lat="43.38181717267524" lon="10.645433267071198"><ele>193.57142857142858</ele><time>2026-04-18T14:35:57Z</time></trkpt><trkpt lat="43.38186470584555" lon="10.645369656723629"><ele>193.42857142857144</ele><time>2026-04-18T14:35:58Z</time></trkpt><trkpt lat="43.381907085695715" lon="10.645290110088347"><ele>193.28571428571428</ele><time>2026-04-18T14:35:59Z</time></trkpt><trkpt lat="43.381951026853464" lon="10.645210029462325"><ele>193.14285714285717</ele><time>2026-04-18T14:36:00Z</time></trkpt><trkpt lat="43.38199823762158" lon="10.64513373513931"><ele>193.0</ele><time>2026-04-18T14:36:01Z</time></trkpt><trkpt lat="43.382069876641594" lon="10.644996092577047"><ele>194.85714285714286</ele><time>2026-04-18T14:36:03Z</time></trkpt><trkpt lat="43.38212338871228" lon="10.644935985781641"><ele>196.71428571428572</ele><time>2026-04-18T14:36:04Z</time></trkpt><trkpt lat="43.38218419128912" lon="10.64490072916951"><ele>198.57142857142856</ele><time>2026-04-18T14:36:05Z</time></trkpt><trkpt lat="43.38224627054108" lon="10.64488545860412"><ele>200.42857142857144</ele><time>2026-04-18T14:36:06Z</time></trkpt><trkpt lat="43.382312297237256" lon="10.644891343343527"><ele>202.28571428571428</ele><time>2026-04-18T14:36:07Z</time></trkpt><trkpt lat="43.38237683608897" lon="10.644883070739006"><ele>204.14285714285714</ele><time>2026-04-18T14:36:08Z</time></trkpt><trkpt lat="43.38244637232649" lon="10.644852702157154"><ele>206.0</ele><time>2026-04-18T14:36:09Z</time></trkpt><trkpt lat="43.382513293099365" lon="10.64480130878685"><ele>206.28571428571428</ele><time>2026-04-18T14:36:10Z</time></trkpt><trkpt lat="43.382577373438856" lon="10.644756375055326"><ele>206.57142857142856</ele><time>2026-04-18T14:36:11Z</time></trkpt><trkpt lat="43.3826328672951" lon="10.644707475758741"><ele>206.85714285714283</ele><time>2026-04-18T14:36:12Z</time></trkpt><trkpt lat="43.38269129542548" lon="10.644653935147275"><ele>207.14285714285714</ele><time>2026-04-18T14:36:13Z</time></trkpt><trkpt lat="43.38273500221911" lon="10.644579195364926"><ele>207.42857142857144</ele><time>2026-04-18T14:36:14Z</time></trkpt><trkpt lat="43.38276711427473" lon="10.64449928830794"><ele>207.7142857142857</ele><time>2026-04-18T14:36:15Z</time></trkpt><trkpt lat="43.382788081739555" lon="10.644412994621215"><ele>208.0</ele><time>2026-04-18T14:36:16Z</time></trkpt><trkpt lat="43.382789427009996" lon="10.644325540747342"><ele>209.4</ele><time>2026-04-18T14:36:17Z</time></trkpt><trkpt lat="43.38281537985319" lon="10.644153351009011"><ele>210.8</ele><time>2026-04-18T14:36:19Z</time></trkpt><trkpt lat="43.382851740513146" lon="10.644078659295547"><ele>212.2</ele><time>2026-04-18T14:36:20Z</time></trkpt><trkpt lat="43.38289666536477" lon="10.643926103997218"><ele>213.6</ele><time>2026-04-18T14:36:22Z</time></trkpt><trkpt lat="43.38297976484716" lon="10.64381598196164"><ele>215.0</ele><time>2026-04-18T14:36:24Z</time></trkpt><trkpt lat="43.38309754781013" lon="10.643802261365758"><ele>215.0</ele><time>2026-04-18T14:36:26Z</time></trkpt><trkpt lat="43.38320888811921" lon="10.643777078988524"><ele>215.0</ele><time>2026-04-18T14:36:28Z</time></trkpt><trkpt lat="43.383340347058" lon="10.643724223915031"><ele>215.0</ele><time>2026-04-18T14:36:30Z</time></trkpt><trkpt lat="43.38338893271627" lon="10.643567232747456"><ele>215.0</ele><time>2026-04-18T14:36:32Z</time></trkpt><trkpt lat="43.38342579937354" lon="10.643474593787818"><ele>217.0</ele><time>2026-04-18T14:36:33Z</time></trkpt><trkpt lat="43.383490547601234" lon="10.643434382304743"><ele>219.0</ele><time>2026-04-18T14:36:34.001Z</time></trkpt><trkpt lat="43.383554150661965" lon="10.643363053113656"><ele>221.0</ele><time>2026-04-18T14:36:35.001Z</time></trkpt><trkpt lat="43.383608082490206" lon="10.643302925373689"><ele>223.0</ele><time>2026-04-18T14:36:36.001Z</time></trkpt><trkpt lat="43.38365341496587" lon="10.643227822872397"><ele>225.0</ele><time>2026-04-18T14:36:37.001Z</time></trkpt><trkpt lat="43.38368497878079" lon="10.643131376295713"><ele>227.0</ele><time>2026-04-18T14:36:38.001Z</time></trkpt><trkpt lat="43.38371271601109" lon="10.643034177320219"><ele>229.0</ele><time>2026-04-18T14:36:39.001Z</time></trkpt><trkpt lat="43.383739140792706" lon="10.642929182594768"><ele>228.99999999999997</ele><time>2026-04-18T14:36:40.001Z</time></trkpt><trkpt lat="43.383787522015645" lon="10.64283991109164"><ele>229.0</ele><time>2026-04-18T14:36:41.001Z</time></trkpt><trkpt lat="43.38383323982015" lon="10.64276251342498"><ele>229.0</ele><time>2026-04-18T14:36:42.001Z</time></trkpt><trkpt lat="43.38389505446506" lon="10.642729749162308"><ele>229.0</ele><time>2026-04-18T14:36:43.001Z</time></trkpt><trkpt lat="43.38395960210808" lon="10.642698547366615"><ele>228.99999999999997</ele><time>2026-04-18T14:36:44.001Z</time></trkpt><trkpt lat="43.384046522885534" lon="10.64265854731689"><ele>229.0</ele><time>2026-04-18T14:36:45.001Z</time></trkpt><trkpt lat="43.38413718939656" lon="10.64261312961445"><ele>230.33333333333331</ele><time>2026-04-18T14:36:46.001Z</time></trkpt><trkpt lat="43.38418571826834" lon="10.642552913922849"><ele>231.66666666666666</ele><time>2026-04-18T14:36:47.001Z</time></trkpt><trkpt lat="43.384237561957804" lon="10.642486474771811"><ele>233.0</ele><time>2026-04-18T14:36:48.001Z</time></trkpt><trkpt lat="43.38429292929604" lon="10.642358894486879"><ele>234.33333333333331</ele><time>2026-04-18T14:36:49.001Z</time></trkpt><trkpt lat="43.38434746088084" lon="10.642299345246968"><ele>235.66666666666666</ele><time>2026-04-18T14:36:50.001Z</time></trkpt><trkpt lat="43.38441232193039" lon="10.642234999170327"><ele>237.0</ele><time>2026-04-18T14:36:51.001Z</time></trkpt><trkpt lat="43.38450002284197" lon="10.642223602301746"><ele>237.0</ele><time>2026-04-18T14:36:52.001Z</time></trkpt><trkpt lat="43.384608833705414" lon="10.642146283024369"><ele>237.0</ele><time>2026-04-18T14:36:53.001Z</time></trkpt><trkpt lat="43.38465459044445" lon="10.64207136854593"><ele>237.0</ele><time>2026-04-18T14:36:54.001Z</time></trkpt><trkpt lat="43.38474787379993" lon="10.641961106555298"><ele>237.0</ele><time>2026-04-18T14:36:55.001Z</time></trkpt><trkpt lat="43.384840207761975" lon="10.641868953985194"><ele>237.0</ele><time>2026-04-18T14:36:56.001Z</time></trkpt><trkpt lat="43.38491324852029" lon="10.641803445141257"><ele>238.6</ele><time>2026-04-18T14:36:57.001Z</time></trkpt><trkpt lat="43.38499286093925" lon="10.641734778988704"><ele>240.2</ele><time>2026-04-18T14:36:58.001Z</time></trkpt><trkpt lat="43.38507512799446" lon="10.64166553423837"><ele>241.8</ele><time>2026-04-18T14:36:59.001Z</time></trkpt><trkpt lat="43.38514468118779" lon="10.641591976936517"><ele>243.4</ele><time>2026-04-18T14:37:00.001Z</time></trkpt><trkpt lat="43.385207261937246" lon="10.641523483365994"><ele>245.0</ele><time>2026-04-18T14:37:01.001Z</time></trkpt><trkpt lat="43.385281578604605" lon="10.641445275314844"><ele>245.0</ele><time>2026-04-18T14:37:03.001Z</time></trkpt><trkpt lat="43.38534406731394" lon="10.641406871934137"><ele>245.0</ele><time>2026-04-18T14:37:08.001Z</time></trkpt><trkpt lat="43.38540969339275" lon="10.641372799567273"><ele>245.0</ele><time>2026-04-18T14:37:11.001Z</time></trkpt><trkpt lat="43.38549499634133" lon="10.641411266489543"><ele>245.0</ele><time>2026-04-18T14:37:15.001Z</time></trkpt><trkpt lat="43.38558344341506" lon="10.641480816468162"><ele>245.0</ele><time>2026-04-18T14:37:17.001Z</time></trkpt><trkpt lat="43.38567280624968" lon="10.641605834746786"><ele>246.16666666666669</ele><time>2026-04-18T14:37:19.001Z</time></trkpt><trkpt lat="43.3857006269599" lon="10.641685670549393"><ele>247.33333333333334</ele><time>2026-04-18T14:37:20.001Z</time></trkpt><trkpt lat="43.38573616352417" lon="10.64176500577303"><ele>248.5</ele><time>2026-04-18T14:37:21.001Z</time></trkpt><trkpt lat="43.38577287334318" lon="10.641861040395789"><ele>249.66666666666669</ele><time>2026-04-18T14:37:22.001Z</time></trkpt><trkpt lat="43.38579296690441" lon="10.64197731785136"><ele>250.83333333333334</ele><time>2026-04-18T14:37:23.001Z</time></trkpt><trkpt lat="43.385775429679995" lon="10.642098818379223"><ele>252.0</ele><time>2026-04-18T14:37:24.001Z</time></trkpt><trkpt lat="43.38575986923756" lon="10.64222181492381"><ele>252.0</ele><time>2026-04-18T14:37:25.001Z</time></trkpt><trkpt lat="43.38574190396392" lon="10.642348119235146"><ele>252.0</ele><time>2026-04-18T14:37:26.001Z</time></trkpt><trkpt lat="43.3857229173269" lon="10.642476292674608"><ele>252.0</ele><time>2026-04-18T14:37:27.001Z</time></trkpt><trkpt lat="43.38571721956226" lon="10.642591839163588"><ele>252.0</ele><time>2026-04-18T14:37:28.002Z</time></trkpt><trkpt lat="43.38570632214751" lon="10.642702420287362"><ele>252.0</ele><time>2026-04-18T14:37:29.002Z</time></trkpt><trkpt lat="43.385713172964174" lon="10.642815371811883"><ele>252.0</ele><time>2026-04-18T14:37:30.002Z</time></trkpt><trkpt lat="43.385734931513575" lon="10.642924377904627"><ele>252.0</ele><time>2026-04-18T14:37:31.002Z</time></trkpt><trkpt lat="43.385759494945255" lon="10.643026886592619"><ele>252.0</ele><time>2026-04-18T14:37:32.002Z</time></trkpt><trkpt lat="43.385784201065206" lon="10.64312616235624"><ele>252.0</ele><time>2026-04-18T14:37:33.002Z</time></trkpt><trkpt lat="43.38581709226102" lon="10.643206996476234"><ele>252.0</ele><time>2026-04-18T14:37:34.002Z</time></trkpt><trkpt lat="43.38587829378134" lon="10.643333361092209"><ele>252.0</ele><time>2026-04-18T14:37:36.002Z</time></trkpt><trkpt lat="43.38595935719551" lon="10.643393806867165"><ele>252.0</ele><time>2026-04-18T14:37:38.002Z</time></trkpt><trkpt lat="43.38607106472378" lon="10.643409895304584"><ele>252.0</ele><time>2026-04-18T14:37:40.002Z</time></trkpt><trkpt lat="43.386134504983694" lon="10.643418179197647"><ele>252.0</ele><time>2026-04-18T14:37:41.002Z</time></trkpt><trkpt lat="43.38620053370382" lon="10.643426233096637"><ele>252.0</ele><time>2026-04-18T14:37:42.002Z</time></trkpt><trkpt lat="43.386265783554926" lon="10.643452999369392"><ele>252.0</ele><time>2026-04-18T14:37:43.002Z</time></trkpt><trkpt lat="43.386349870059526" lon="10.643464031142196"><ele>252.0</ele><time>2026-04-18T14:37:44.002Z</time></trkpt><trkpt lat="43.386434741407484" lon="10.643477492811886"><ele>252.0</ele><time>2026-04-18T14:37:45.002Z</time></trkpt><trkpt lat="43.386526662382174" lon="10.643485903707724"><ele>253.6</ele><time>2026-04-18T14:37:46.002Z</time></trkpt><trkpt lat="43.38661797548464" lon="10.643498953251786"><ele>255.2</ele><time>2026-04-18T14:37:47.002Z</time></trkpt><trkpt lat="43.38671704919114" lon="10.643508665770959"><ele>256.8</ele><time>2026-04-18T14:37:48.002Z</time></trkpt><trkpt lat="43.38682321475067" lon="10.643522311499472"><ele>258.4</ele><time>2026-04-18T14:37:49.002Z</time></trkpt><trkpt lat="43.38693795636341" lon="10.643535298234958"><ele>260.0</ele><time>2026-04-18T14:37:50.002Z</time></trkpt><trkpt lat="43.38705942749878" lon="10.643556257283677"><ele>260.2</ele><time>2026-04-18T14:37:51.002Z</time></trkpt><trkpt lat="43.3871871044767" lon="10.643575195547891"><ele>260.4</ele><time>2026-04-18T14:37:52.002Z</time></trkpt><trkpt lat="43.38730910119876" lon="10.643598421899284"><ele>260.6</ele><time>2026-04-18T14:37:53.002Z</time></trkpt><trkpt lat="43.387408208867214" lon="10.643633125056141"><ele>260.8</ele><time>2026-04-18T14:37:54.002Z</time></trkpt><trkpt lat="43.38749006387817" lon="10.643674090042897"><ele>261.0</ele><time>2026-04-18T14:37:55.002Z</time></trkpt><trkpt lat="43.3875547807427" lon="10.643704025434584"><ele>261.0</ele><time>2026-04-18T14:37:56.002Z</time></trkpt><trkpt lat="43.3876505479276" lon="10.643645488643935"><ele>261.0</ele><time>2026-04-18T14:37:58.002Z</time></trkpt><trkpt lat="43.387678401984594" lon="10.64350628148939"><ele>261.0</ele><time>2026-04-18T14:38:00Z</time></trkpt><trkpt lat="43.38768096990992" lon="10.643418021731932"><ele>261.0</ele><time>2026-04-18T14:38:01Z</time></trkpt><trkpt lat="43.38768521569135" lon="10.643258707674063"><ele>261.0</ele><time>2026-04-18T14:38:03Z</time></trkpt><trkpt lat="43.38769887249951" lon="10.64309611729688"><ele>262.6</ele><time>2026-04-18T14:38:05Z</time></trkpt><trkpt lat="43.387710142756816" lon="10.642947110617232"><ele>264.20000000000005</ele><time>2026-04-18T14:38:07Z</time></trkpt><trkpt lat="43.387716148387696" lon="10.642797178022015"><ele>265.79999999999995</ele><time>2026-04-18T14:38:09Z</time></trkpt><trkpt lat="43.3877250761234" lon="10.642638724883758"><ele>267.4</ele><time>2026-04-18T14:38:11Z</time></trkpt><trkpt lat="43.38774070612949" lon="10.642494021823126"><ele>269.0</ele><time>2026-04-18T14:38:13Z</time></trkpt><trkpt lat="43.387751194584006" lon="10.642292089583194"><ele>270.0</ele><time>2026-04-18T14:38:15Z</time></trkpt><trkpt lat="43.387747449912744" lon="10.642192036806895"><ele>271.0</ele><time>2026-04-18T14:38:16Z</time></trkpt><trkpt lat="43.38778360875115" lon="10.642034007058646"><ele>272.0</ele><time>2026-04-18T14:38:18Z</time></trkpt><trkpt lat="43.387870305080554" lon="10.641923661222926"><ele>273.0</ele><time>2026-04-18T14:38:20Z</time></trkpt><trkpt lat="43.38793535043135" lon="10.641915197611999"><ele>274.0</ele><time>2026-04-18T14:38:21Z</time></trkpt><trkpt lat="43.38800395644904" lon="10.641913880269387"><ele>275.0</ele><time>2026-04-18T14:38:22Z</time></trkpt><trkpt lat="43.38812192428154" lon="10.641967714034003"><ele>277.0</ele><time>2026-04-18T14:38:24Z</time></trkpt><trkpt lat="43.38819851389119" lon="10.641991385934658"><ele>279.0</ele><time>2026-04-18T14:38:25Z</time></trkpt><trkpt lat="43.38828287138504" lon="10.64200227210254"><ele>281.0</ele><time>2026-04-18T14:38:26Z</time></trkpt><trkpt lat="43.38835962683342" lon="10.642014173779854"><ele>283.0</ele><time>2026-04-18T14:38:27Z</time></trkpt><trkpt lat="43.38845429819677" lon="10.64203216981855"><ele>285.0</ele><time>2026-04-18T14:38:28Z</time></trkpt><trkpt lat="43.388543537944685" lon="10.642072838503108"><ele>287.0</ele><time>2026-04-18T14:38:29Z</time></trkpt><trkpt lat="43.388630818638035" lon="10.642101360834927"><ele>287.0</ele><time>2026-04-18T14:38:30Z</time></trkpt><trkpt lat="43.38871168579774" lon="10.642117718109665"><ele>287.0</ele><time>2026-04-18T14:38:31Z</time></trkpt><trkpt lat="43.38878928089584" lon="10.642121172449729"><ele>287.0</ele><time>2026-04-18T14:38:32Z</time></trkpt><trkpt lat="43.38885559866239" lon="10.642112780448016"><ele>287.0</ele><time>2026-04-18T14:38:33Z</time></trkpt><trkpt lat="43.388935111119984" lon="10.642074017118334"><ele>287.0</ele><time>2026-04-18T14:38:34Z</time></trkpt><trkpt lat="43.38901551333714" lon="10.642040220329378"><ele>287.0</ele><time>2026-04-18T14:38:35Z</time></trkpt><trkpt lat="43.389103205491494" lon="10.642007029829758"><ele>288.4</ele><time>2026-04-18T14:38:36Z</time></trkpt><trkpt lat="43.38918361169995" lon="10.641980527167496"><ele>289.79999999999995</ele><time>2026-04-18T14:38:37Z</time></trkpt><trkpt lat="43.3892773015621" lon="10.641954772402865"><ele>291.2</ele><time>2026-04-18T14:38:38Z</time></trkpt><trkpt lat="43.38937896689767" lon="10.641935876271587"><ele>292.59999999999997</ele><time>2026-04-18T14:38:39Z</time></trkpt><trkpt lat="43.3894740393493" lon="10.641943331346965"><ele>294.0</ele><time>2026-04-18T14:38:40Z</time></trkpt><trkpt lat="43.38960023060699" lon="10.64192970431964"><ele>298.0</ele><time>2026-04-18T14:38:41Z</time></trkpt><trkpt lat="43.38973340426838" lon="10.641894967144577"><ele>302.0</ele><time>2026-04-18T14:38:42Z</time></trkpt><trkpt lat="43.38982898784487" lon="10.64187948691704"><ele>306.0</ele><time>2026-04-18T14:38:43Z</time></trkpt><trkpt lat="43.389901539029474" lon="10.641917084819953"><ele>310.0</ele><time>2026-04-18T14:38:44Z</time></trkpt><trkpt lat="43.390014847791754" lon="10.64191548703148"><ele>314.0</ele><time>2026-04-18T14:38:45.001Z</time></trkpt><trkpt lat="43.390090780928844" lon="10.641943727933375"><ele>314.0</ele><time>2026-04-18T14:38:46.001Z</time></trkpt><trkpt lat="43.390153751244895" lon="10.641959813507869"><ele>314.0</ele><time>2026-04-18T14:38:47.001Z</time></trkpt><trkpt lat="43.39030698004013" lon="10.641982269901536"><ele>314.0</ele><time>2026-04-18T14:38:48.001Z</time></trkpt><trkpt lat="43.39041859070324" lon="10.642019030844699"><ele>314.0</ele><time>2026-04-18T14:38:49.001Z</time></trkpt><trkpt lat="43.39051553480021" lon="10.642026145099214"><ele>314.0</ele><time>2026-04-18T14:38:50.001Z</time></trkpt><trkpt lat="43.39062234596492" lon="10.6420453013324"><ele>314.59999999999997</ele><time>2026-04-18T14:38:51.001Z</time></trkpt><trkpt lat="43.39070236777682" lon="10.642051224424405"><ele>315.2</ele><time>2026-04-18T14:38:52.001Z</time></trkpt><trkpt lat="43.39078943774585" lon="10.642034379683915"><ele>315.79999999999995</ele><time>2026-04-18T14:38:53.001Z</time></trkpt><trkpt lat="43.39093615968405" lon="10.641958382203986"><ele>316.4</ele><time>2026-04-18T14:38:55.001Z</time></trkpt><trkpt lat="43.391012691270234" lon="10.64183217557487"><ele>317.0</ele><time>2026-04-18T14:38:56.001Z</time></trkpt><trkpt lat="43.39108296437374" lon="10.64178444622265"><ele>317.0</ele><time>2026-04-18T14:38:57.001Z</time></trkpt><trkpt lat="43.39122325445949" lon="10.641792559873068"><ele>317.0</ele><time>2026-04-18T14:38:59.001Z</time></trkpt><trkpt lat="43.391294574531244" lon="10.641868523680905"><ele>317.0</ele><time>2026-04-18T14:39:00.001Z</time></trkpt><trkpt lat="43.39136930869742" lon="10.641933406400842"><ele>317.0</ele><time>2026-04-18T14:39:01.001Z</time></trkpt><trkpt lat="43.39144690587712" lon="10.641945862397595"><ele>317.0</ele><time>2026-04-18T14:39:02.001Z</time></trkpt><trkpt lat="43.391518699766664" lon="10.641953718752392"><ele>317.5</ele><time>2026-04-18T14:39:03.001Z</time></trkpt><trkpt lat="43.391602027481895" lon="10.641947415148614"><ele>318.0</ele><time>2026-04-18T14:39:04.001Z</time></trkpt><trkpt lat="43.39169552465784" lon="10.641950916481557"><ele>318.5</ele><time>2026-04-18T14:39:05.001Z</time></trkpt><trkpt lat="43.39177865834286" lon="10.641957028101412"><ele>319.0</ele><time>2026-04-18T14:39:06.001Z</time></trkpt><trkpt lat="43.391877905293484" lon="10.641956188073218"><ele>319.5</ele><time>2026-04-18T14:39:07.001Z</time></trkpt><trkpt lat="43.391961492905814" lon="10.641968444432226"><ele>320.0</ele><time>2026-04-18T14:39:08.001Z</time></trkpt><trkpt lat="43.392081757908045" lon="10.641970294138204"><ele>320.0</ele><time>2026-04-18T14:39:09.001Z</time></trkpt><trkpt lat="43.39217544437843" lon="10.641966450418398"><ele>320.0</ele><time>2026-04-18T14:39:10.001Z</time></trkpt><trkpt lat="43.39226403299506" lon="10.641959760795446"><ele>320.0</ele><time>2026-04-18T14:39:11.001Z</time></trkpt><trkpt lat="43.3923484026081" lon="10.641949598069283"><ele>320.0</ele><time>2026-04-18T14:39:12.001Z</time></trkpt><trkpt lat="43.392421423619474" lon="10.641925194896917"><ele>320.0</ele><time>2026-04-18T14:39:13.001Z</time></trkpt><trkpt lat="43.392483915717364" lon="10.641894666021269"><ele>320.0</ele><time>2026-04-18T14:39:14.001Z</time></trkpt><trkpt lat="43.392585421674994" lon="10.641797998032231"><ele>322.0</ele><time>2026-04-18T14:39:16.001Z</time></trkpt><trkpt lat="43.39264673289123" lon="10.641671643679011"><ele>324.0</ele><time>2026-04-18T14:39:18.001Z</time></trkpt><trkpt lat="43.39267261604386" lon="10.641580722762377"><ele>326.0</ele><time>2026-04-18T14:39:20.001Z</time></trkpt><trkpt lat="43.39268973010186" lon="10.641458742724405"><ele>328.0</ele><time>2026-04-18T14:39:22.001Z</time></trkpt><trkpt lat="43.392721958600184" lon="10.641338889445143"><ele>330.0</ele><time>2026-04-18T14:39:24.001Z</time></trkpt><trkpt lat="43.39274884538452" lon="10.641207310621754"><ele>331.8</ele><time>2026-04-18T14:39:26.001Z</time></trkpt><trkpt lat="43.39279319656407" lon="10.641066175117865"><ele>333.6</ele><time>2026-04-18T14:39:28.001Z</time></trkpt><trkpt lat="43.39283292211591" lon="10.640917487596282"><ele>335.4</ele><time>2026-04-18T14:39:30.001Z</time></trkpt><trkpt lat="43.39286832074134" lon="10.640783215099672"><ele>337.2</ele><time>2026-04-18T14:39:32.001Z</time></trkpt><trkpt lat="43.39290793132815" lon="10.640633421015805"><ele>339.0</ele><time>2026-04-18T14:39:34.001Z</time></trkpt><trkpt lat="43.39294245804154" lon="10.64054902908899"><ele>339.0</ele><time>2026-04-18T14:39:35.001Z</time></trkpt><trkpt lat="43.39298737897752" lon="10.64047413913592"><ele>339.0</ele><time>2026-04-18T14:39:36.001Z</time></trkpt><trkpt lat="43.39304753045242" lon="10.640415335511916"><ele>339.0</ele><time>2026-04-18T14:39:37.001Z</time></trkpt><trkpt lat="43.39310636840871" lon="10.64036829555867"><ele>339.0</ele><time>2026-04-18T14:39:38.001Z</time></trkpt><trkpt lat="43.39316552796475" lon="10.640309783335987"><ele>339.0</ele><time>2026-04-18T14:39:39.001Z</time></trkpt><trkpt lat="43.39324522651181" lon="10.640405254563769"><ele>339.0</ele><time>2026-04-18T14:39:40.001Z</time></trkpt><trkpt lat="43.39332137696579" lon="10.640537116121882"><ele>338.8333333333333</ele><time>2026-04-18T14:39:42.002Z</time></trkpt><trkpt lat="43.39337583449716" lon="10.640611636622818"><ele>338.6666666666667</ele><time>2026-04-18T14:39:43.002Z</time></trkpt><trkpt lat="43.393451922096475" lon="10.640684965075376"><ele>338.5</ele><time>2026-04-18T14:39:44.002Z</time></trkpt><trkpt lat="43.39350273788588" lon="10.64078968462817"><ele>338.33333333333337</ele><time>2026-04-18T14:39:45.002Z</time></trkpt><trkpt lat="43.39357551458082" lon="10.640873082369605"><ele>338.1666666666667</ele><time>2026-04-18T14:39:46.002Z</time></trkpt><trkpt lat="43.39364004598107" lon="10.640955307620327"><ele>338.0</ele><time>2026-04-18T14:39:47.002Z</time></trkpt><trkpt lat="43.393745528468486" lon="10.641142750989575"><ele>338.0</ele><time>2026-04-18T14:39:49.002Z</time></trkpt><trkpt lat="43.393780951221075" lon="10.641225575629472"><ele>338.0</ele><time>2026-04-18T14:39:50.002Z</time></trkpt><trkpt lat="43.393857240747415" lon="10.641331847485883"><ele>338.0</ele><time>2026-04-18T14:39:52.002Z</time></trkpt><trkpt lat="43.393986271868926" lon="10.641347203609655"><ele>338.0</ele><time>2026-04-18T14:39:54.002Z</time></trkpt><trkpt lat="43.394048824188395" lon="10.641324883641275"><ele>338.0</ele><time>2026-04-18T14:39:55.002Z</time></trkpt><trkpt lat="43.39413141852691" lon="10.641308949021617"><ele>340.6666666666667</ele><time>2026-04-18T14:39:56.002Z</time></trkpt><trkpt lat="43.3942029004839" lon="10.641314571231712"><ele>343.33333333333337</ele><time>2026-04-18T14:39:57.002Z</time></trkpt><trkpt lat="43.39428874172134" lon="10.64128828500989"><ele>346.0</ele><time>2026-04-18T14:39:58.002Z</time></trkpt><trkpt lat="43.39437336919263" lon="10.641263403844233"><ele>348.6666666666667</ele><time>2026-04-18T14:39:59.002Z</time></trkpt><trkpt lat="43.39446910465977" lon="10.641226926647963"><ele>351.3333333333333</ele><time>2026-04-18T14:40:00.002Z</time></trkpt><trkpt lat="43.39456881360345" lon="10.641192275035275"><ele>354.0</ele><time>2026-04-18T14:40:01.002Z</time></trkpt><trkpt lat="43.394660445013784" lon="10.64117150102745"><ele>355.25</ele><time>2026-04-18T14:40:02.002Z</time></trkpt><trkpt lat="43.3947711890754" lon="10.641156431065825"><ele>356.5</ele><time>2026-04-18T14:40:03.002Z</time></trkpt><trkpt lat="43.39489178907284" lon="10.641113066023012"><ele>357.75</ele><time>2026-04-18T14:40:04.002Z</time></trkpt><trkpt lat="43.39503929298866" lon="10.64106885998973"><ele>359.0</ele><time>2026-04-18T14:40:05.002Z</time></trkpt><trkpt lat="43.395153751708875" lon="10.641001569712193"><ele>363.5</ele><time>2026-04-18T14:40:06Z</time></trkpt><trkpt lat="43.395273904224304" lon="10.640988229915738"><ele>368.0</ele><time>2026-04-18T14:40:07Z</time></trkpt><trkpt lat="43.39539231350856" lon="10.640982068791745"><ele>372.5</ele><time>2026-04-18T14:40:08Z</time></trkpt><trkpt lat="43.395538303569076" lon="10.641004515182026"><ele>377.0</ele><time>2026-04-18T14:40:09Z</time></trkpt><trkpt lat="43.39568866606698" lon="10.64098563041883"><ele>377.20000000000005</ele><time>2026-04-18T14:40:10Z</time></trkpt><trkpt lat="43.39581863990335" lon="10.640943624696009"><ele>377.4</ele><time>2026-04-18T14:40:11Z</time></trkpt><trkpt lat="43.395932292638726" lon="10.640948281468589"><ele>377.6</ele><time>2026-04-18T14:40:12Z</time></trkpt><trkpt lat="43.39602876065616" lon="10.640927923112367"><ele>377.79999999999995</ele><time>2026-04-18T14:40:13Z</time></trkpt><trkpt lat="43.39611960589131" lon="10.640929304251733"><ele>378.0</ele><time>2026-04-18T14:40:14Z</time></trkpt><trkpt lat="43.39621657741786" lon="10.640871503502634"><ele>378.0</ele><time>2026-04-18T14:40:15Z</time></trkpt><trkpt lat="43.39631400353734" lon="10.640845363203308"><ele>378.0</ele><time>2026-04-18T14:40:16Z</time></trkpt><trkpt lat="43.396449414140825" lon="10.640775068776716"><ele>378.0</ele><time>2026-04-18T14:40:17Z</time></trkpt><trkpt lat="43.39652140318492" lon="10.640760313176928"><ele>378.0</ele><time>2026-04-18T14:40:18Z</time></trkpt><trkpt lat="43.396614861843084" lon="10.640706260750001"><ele>378.0</ele><time>2026-04-18T14:40:19Z</time></trkpt><trkpt lat="43.39671029704794" lon="10.640705129203882"><ele>377.59999999999997</ele><time>2026-04-18T14:40:20Z</time></trkpt><trkpt lat="43.396795109602685" lon="10.640710624539867"><ele>377.2</ele><time>2026-04-18T14:40:21Z</time></trkpt><trkpt lat="43.396915234451185" lon="10.640784842842312"><ele>376.8</ele><time>2026-04-18T14:40:23Z</time></trkpt><trkpt lat="43.39698673678167" lon="10.640819567667968"><ele>376.4</ele><time>2026-04-18T14:40:24Z</time></trkpt><trkpt lat="43.39705638452017" lon="10.640848432926063"><ele>376.0</ele><time>2026-04-18T14:40:25Z</time></trkpt><trkpt lat="43.39719075043627" lon="10.640893928467232"><ele>376.0</ele><time>2026-04-18T14:40:27Z</time></trkpt><trkpt lat="43.397271367079064" lon="10.640916862637907"><ele>376.0</ele><time>2026-04-18T14:40:28Z</time></trkpt><trkpt lat="43.397349668275425" lon="10.640912760138274"><ele>376.0</ele><time>2026-04-18T14:40:29Z</time></trkpt><trkpt lat="43.39743196998829" lon="10.64093171833695"><ele>376.0</ele><time>2026-04-18T14:40:30Z</time></trkpt><trkpt lat="43.39752131074451" lon="10.640937371476971"><ele>376.0</ele><time>2026-04-18T14:40:31Z</time></trkpt><trkpt lat="43.39763122632706" lon="10.640939003824087"><ele>376.0</ele><time>2026-04-18T14:40:32Z</time></trkpt><trkpt lat="43.39776811307321" lon="10.640912785444405"><ele>376.0</ele><time>2026-04-18T14:40:33Z</time></trkpt><trkpt lat="43.39787986540505" lon="10.640894552436619"><ele>376.0</ele><time>2026-04-18T14:40:34Z</time></trkpt><trkpt lat="43.39794042894776" lon="10.640810028269652"><ele>376.0</ele><time>2026-04-18T14:40:35Z</time></trkpt><trkpt lat="43.39803675113236" lon="10.640739031670513"><ele>376.0</ele><time>2026-04-18T14:40:37Z</time></trkpt><trkpt lat="43.3980970646347" lon="10.640691484205073"><ele>376.0</ele><time>2026-04-18T14:40:38Z</time></trkpt><trkpt lat="43.398178966336474" lon="10.640646272581057"><ele>376.4</ele><time>2026-04-18T14:40:39Z</time></trkpt><trkpt lat="43.39830604772426" lon="10.640615765011924"><ele>376.8</ele><time>2026-04-18T14:40:40Z</time></trkpt><trkpt lat="43.39839937594622" lon="10.640602865188574"><ele>377.2</ele><time>2026-04-18T14:40:41Z</time></trkpt><trkpt lat="43.39849795225595" lon="10.640595199552724"><ele>377.59999999999997</ele><time>2026-04-18T14:40:42Z</time></trkpt><trkpt lat="43.39860040339469" lon="10.640585547938729"><ele>378.0</ele><time>2026-04-18T14:40:43Z</time></trkpt><trkpt lat="43.39870324514841" lon="10.640577873571026"><ele>378.0</ele><time>2026-04-18T14:40:44Z</time></trkpt><trkpt lat="43.39879423708975" lon="10.640575220178626"><ele>378.0</ele><time>2026-04-18T14:40:45Z</time></trkpt><trkpt lat="43.398890094870566" lon="10.640576889157167"><ele>378.0</ele><time>2026-04-18T14:40:46Z</time></trkpt><trkpt lat="43.398988724795274" lon="10.640596601606692"><ele>378.0</ele><time>2026-04-18T14:40:47Z</time></trkpt><trkpt lat="43.39908724974167" lon="10.640648509510637"><ele>378.0</ele><time>2026-04-18T14:40:48Z</time></trkpt><trkpt lat="43.399173683869066" lon="10.640700397397598"><ele>379.59999999999997</ele><time>2026-04-18T14:40:49Z</time></trkpt><trkpt lat="43.39927167274547" lon="10.640745026635962"><ele>381.2</ele><time>2026-04-18T14:40:50Z</time></trkpt><trkpt lat="43.399354374925295" lon="10.640797610357563"><ele>382.8</ele><time>2026-04-18T14:40:51.001Z</time></trkpt><trkpt lat="43.39944188749859" lon="10.640862317393017"><ele>384.4</ele><time>2026-04-18T14:40:52.001Z</time></trkpt><trkpt lat="43.39952087908699" lon="10.640934471651152"><ele>386.0</ele><time>2026-04-18T14:40:53.001Z</time></trkpt><trkpt lat="43.399577447363825" lon="10.641019454325122"><ele>385.99999999999994</ele><time>2026-04-18T14:40:54.001Z</time></trkpt><trkpt lat="43.3996498589163" lon="10.641063321813204"><ele>386.0</ele><time>2026-04-18T14:40:55.001Z</time></trkpt><trkpt lat="43.39970429712657" lon="10.641108466800025"><ele>386.0</ele><time>2026-04-18T14:40:56.001Z</time></trkpt><trkpt lat="43.39980837781308" lon="10.64112574580483"><ele>386.0</ele><time>2026-04-18T14:40:58.001Z</time></trkpt><trkpt lat="43.399866902638024" lon="10.641057776436902"><ele>385.99999999999994</ele><time>2026-04-18T14:41:00.001Z</time></trkpt><trkpt lat="43.399847785575695" lon="10.640948515927846"><ele>386.0</ele><time>2026-04-18T14:41:02.001Z</time></trkpt><trkpt lat="43.39977935008693" lon="10.640874400658179"><ele>386.0</ele><time>2026-04-18T14:41:04.001Z</time></trkpt><trkpt lat="43.39972785822709" lon="10.640819834080355"><ele>386.0</ele><time>2026-04-18T14:41:05.001Z</time></trkpt><trkpt lat="43.39967483940778" lon="10.640759890529388"><ele>386.0</ele><time>2026-04-18T14:41:06.001Z</time></trkpt><trkpt lat="43.39961955270742" lon="10.640690149519603"><ele>386.0</ele><time>2026-04-18T14:41:07.001Z</time></trkpt><trkpt lat="43.39957820126114" lon="10.640527523741486"><ele>386.0</ele><time>2026-04-18T14:41:08.001Z</time></trkpt><trkpt lat="43.39955707057952" lon="10.64034524563375"><ele>385.99999999999994</ele><time>2026-04-18T14:41:09.001Z</time></trkpt><trkpt lat="43.399554555287196" lon="10.640432203356012"><ele>386.0</ele><time>2026-04-18T14:41:12.001Z</time></trkpt><trkpt lat="43.39956841286943" lon="10.640312319550564"><ele>386.0</ele><time>2026-04-18T14:41:14.001Z</time></trkpt><trkpt lat="43.39961998304654" lon="10.640159079512424"><ele>386.0</ele><time>2026-04-18T14:41:16.001Z</time></trkpt><trkpt lat="43.39958629876144" lon="10.64005513351243"><ele>385.99999999999994</ele><time>2026-04-18T14:41:18.001Z</time></trkpt><trkpt lat="43.39957620327935" lon="10.639940743037238"><ele>386.0</ele><time>2026-04-18T14:41:19.001Z</time></trkpt><trkpt lat="43.39954796401693" lon="10.639838137146123"><ele>388.20000000000005</ele><time>2026-04-18T14:41:20.001Z</time></trkpt><trkpt lat="43.39949737747658" lon="10.639646666742946"><ele>390.40000000000003</ele><time>2026-04-18T14:41:22.001Z</time></trkpt><trkpt lat="43.39945377768407" lon="10.639553617305467"><ele>392.6</ele><time>2026-04-18T14:41:23.001Z</time></trkpt><trkpt lat="43.399427323322186" lon="10.639430120962533"><ele>394.8</ele><time>2026-04-18T14:41:24.001Z</time></trkpt><trkpt lat="43.39940958451505" lon="10.639298032747467"><ele>397.0</ele><time>2026-04-18T14:41:25.001Z</time></trkpt><trkpt lat="43.399358188801706" lon="10.639170228533125"><ele>400.75</ele><time>2026-04-18T14:41:26.001Z</time></trkpt><trkpt lat="43.39929033804488" lon="10.639046500466627"><ele>404.5</ele><time>2026-04-18T14:41:27.001Z</time></trkpt><trkpt lat="43.39922133063013" lon="10.63893165790748"><ele>408.25</ele><time>2026-04-18T14:41:28.001Z</time></trkpt><trkpt lat="43.39914288308919" lon="10.63880423649686"><ele>412.0</ele><time>2026-04-18T14:41:29.001Z</time></trkpt><trkpt lat="43.39904872742497" lon="10.6387234025642"><ele>414.40000000000003</ele><time>2026-04-18T14:41:30.001Z</time></trkpt><trkpt lat="43.39897883827703" lon="10.63860082126202"><ele>416.8</ele><time>2026-04-18T14:41:31.001Z</time></trkpt><trkpt lat="43.39891150646502" lon="10.63849570641373"><ele>419.2</ele><time>2026-04-18T14:41:32.001Z</time></trkpt><trkpt lat="43.398867263747206" lon="10.638395033506557"><ele>421.6</ele><time>2026-04-18T14:41:33.001Z</time></trkpt><trkpt lat="43.398869701260544" lon="10.638267966849893"><ele>424.0</ele><time>2026-04-18T14:41:34.001Z</time></trkpt><trkpt lat="43.398886099988175" lon="10.63814085166282"><ele>424.0</ele><time>2026-04-18T14:41:35.001Z</time></trkpt><trkpt lat="43.39889362968492" lon="10.63800121857159"><ele>424.0</ele><time>2026-04-18T14:41:36.001Z</time></trkpt><trkpt lat="43.39889840766426" lon="10.637854548685205"><ele>424.0</ele><time>2026-04-18T14:41:37.001Z</time></trkpt><trkpt lat="43.398877296213605" lon="10.637717522845099"><ele>424.0</ele><time>2026-04-18T14:41:38.001Z</time></trkpt><trkpt lat="43.398846955618815" lon="10.637584314191926"><ele>424.0</ele><time>2026-04-18T14:41:39.001Z</time></trkpt><trkpt lat="43.39882383911743" lon="10.6374295662932"><ele>425.6</ele><time>2026-04-18T14:41:40.001Z</time></trkpt><trkpt lat="43.398746478231615" lon="10.63729566399166"><ele>427.2</ele><time>2026-04-18T14:41:41.002Z</time></trkpt><trkpt lat="43.39870405926149" lon="10.637159149143622"><ele>428.80000000000007</ele><time>2026-04-18T14:41:42.002Z</time></trkpt><trkpt lat="43.398672058601164" lon="10.637065956913204"><ele>430.40000000000003</ele><time>2026-04-18T14:41:43.002Z</time></trkpt><trkpt lat="43.39861416773134" lon="10.63694200457055"><ele>432.0</ele><time>2026-04-18T14:41:44.002Z</time></trkpt><trkpt lat="43.39852848355886" lon="10.636851185289819"><ele>434.20000000000005</ele><time>2026-04-18T14:41:45.002Z</time></trkpt><trkpt lat="43.39842659048581" lon="10.636793617045683"><ele>436.40000000000003</ele><time>2026-04-18T14:41:46.002Z</time></trkpt><trkpt lat="43.39832859365569" lon="10.636721312519057"><ele>438.59999999999997</ele><time>2026-04-18T14:41:47.002Z</time></trkpt><trkpt lat="43.39824712044811" lon="10.636642264227792"><ele>440.79999999999995</ele><time>2026-04-18T14:41:48.002Z</time></trkpt><trkpt lat="43.39815935013229" lon="10.636568998258054"><ele>443.0</ele><time>2026-04-18T14:41:49.002Z</time></trkpt><trkpt lat="43.39808211172499" lon="10.636455601730562"><ele>443.8333333333333</ele><time>2026-04-18T14:41:50.002Z</time></trkpt><trkpt lat="43.39799965489618" lon="10.636377973489598"><ele>444.66666666666663</ele><time>2026-04-18T14:41:51.002Z</time></trkpt><trkpt lat="43.3979293717936" lon="10.636284446918456"><ele>445.5</ele><time>2026-04-18T14:41:52.002Z</time></trkpt><trkpt lat="43.39786955853255" lon="10.636191973609735"><ele>446.33333333333337</ele><time>2026-04-18T14:41:53.002Z</time></trkpt><trkpt lat="43.39781471152195" lon="10.63610404010342"><ele>447.1666666666667</ele><time>2026-04-18T14:41:54.002Z</time></trkpt><trkpt lat="43.397768779627825" lon="10.636030399418427"><ele>448.0</ele><time>2026-04-18T14:41:55.002Z</time></trkpt><trkpt lat="43.39771751543535" lon="10.635915930485796"><ele>450.0</ele><time>2026-04-18T14:41:56.002Z</time></trkpt><trkpt lat="43.3976457439757" lon="10.635799894249715"><ele>451.99999999999994</ele><time>2026-04-18T14:41:57.002Z</time></trkpt><trkpt lat="43.397597595881976" lon="10.635708742256302"><ele>453.99999999999994</ele><time>2026-04-18T14:41:58.002Z</time></trkpt><trkpt lat="43.39751134333555" lon="10.635612263944969"><ele>456.0</ele><time>2026-04-18T14:41:59.002Z</time></trkpt><trkpt lat="43.39744803520739" lon="10.635519512264443"><ele>458.0</ele><time>2026-04-18T14:42:00.002Z</time></trkpt><trkpt lat="43.397384052566956" lon="10.635388631159625"><ele>460.5</ele><time>2026-04-18T14:42:01.002Z</time></trkpt><trkpt lat="43.39736812687127" lon="10.635220845640829"><ele>463.0</ele><time>2026-04-18T14:42:02.002Z</time></trkpt><trkpt lat="43.39733350076744" lon="10.635091020285293"><ele>465.5</ele><time>2026-04-18T14:42:03.002Z</time></trkpt><trkpt lat="43.39736078721715" lon="10.63490005681615"><ele>468.0</ele><time>2026-04-18T14:42:04.002Z</time></trkpt><trkpt lat="43.39736526444571" lon="10.63476566548569"><ele>468.0</ele><time>2026-04-18T14:42:05.002Z</time></trkpt><trkpt lat="43.397365600957414" lon="10.63462748923835"><ele>467.99999999999994</ele><time>2026-04-18T14:42:06.002Z</time></trkpt><trkpt lat="43.39736567698887" lon="10.6344846481129"><ele>467.99999999999994</ele><time>2026-04-18T14:42:07.002Z</time></trkpt><trkpt lat="43.39735668045055" lon="10.634367593953613"><ele>468.0</ele><time>2026-04-18T14:42:08.002Z</time></trkpt><trkpt lat="43.39736845875471" lon="10.634232085952654"><ele>468.0</ele><time>2026-04-18T14:42:09.002Z</time></trkpt><trkpt lat="43.39740285726754" lon="10.634092551551277"><ele>468.25</ele><time>2026-04-18T14:42:10.002Z</time></trkpt><trkpt lat="43.397441604437454" lon="10.63394744854239"><ele>468.5</ele><time>2026-04-18T14:42:11.002Z</time></trkpt><trkpt lat="43.397472211235986" lon="10.633776789966754"><ele>468.75</ele><time>2026-04-18T14:42:12Z</time></trkpt><trkpt lat="43.397500414502424" lon="10.633613728078497"><ele>469.0</ele><time>2026-04-18T14:42:13Z</time></trkpt><trkpt lat="43.397546988804585" lon="10.63342421975391"><ele>468.6666666666667</ele><time>2026-04-18T14:42:14Z</time></trkpt><trkpt lat="43.397580032727255" lon="10.633211358753005"><ele>468.33333333333337</ele><time>2026-04-18T14:42:15Z</time></trkpt><trkpt lat="43.39761498124065" lon="10.633006370564994"><ele>468.0</ele><time>2026-04-18T14:42:16Z</time></trkpt><trkpt lat="43.397660357193665" lon="10.632802452886223"><ele>468.0</ele><time>2026-04-18T14:42:17Z</time></trkpt><trkpt lat="43.39770054139735" lon="10.632592412809997"><ele>468.0</ele><time>2026-04-18T14:42:18Z</time></trkpt><trkpt lat="43.397742906190864" lon="10.632366736011743"><ele>468.0</ele><time>2026-04-18T14:42:19Z</time></trkpt><trkpt lat="43.39777462767608" lon="10.632147012967323"><ele>468.0</ele><time>2026-04-18T14:42:20Z</time></trkpt><trkpt lat="43.39780435630706" lon="10.631996568102235"><ele>467.99999999999994</ele><time>2026-04-18T14:42:21Z</time></trkpt><trkpt lat="43.39784298529551" lon="10.631875542199609"><ele>467.99999999999994</ele><time>2026-04-18T14:42:22Z</time></trkpt><trkpt lat="43.39789046429212" lon="10.631758176596547"><ele>468.0</ele><time>2026-04-18T14:42:23Z</time></trkpt><trkpt lat="43.39794495693581" lon="10.631672654168302"><ele>468.0</ele><time>2026-04-18T14:42:24Z</time></trkpt><trkpt lat="43.39808851153835" lon="10.631398130924142"><ele>468.7142857142857</ele><time>2026-04-18T14:42:27Z</time></trkpt><trkpt lat="43.3981270841526" lon="10.631306376636894"><ele>469.42857142857144</ele><time>2026-04-18T14:42:28Z</time></trkpt><trkpt lat="43.39816201408752" lon="10.631214317735239"><ele>470.14285714285717</ele><time>2026-04-18T14:42:29Z</time></trkpt><trkpt lat="43.39819148828574" lon="10.631119833033415"><ele>470.8571428571429</ele><time>2026-04-18T14:42:30Z</time></trkpt><trkpt lat="43.39821613350577" lon="10.63102476803844"><ele>471.57142857142856</ele><time>2026-04-18T14:42:31Z</time></trkpt><trkpt lat="43.39823153053468" lon="10.630931299776776"><ele>472.28571428571433</ele><time>2026-04-18T14:42:32Z</time></trkpt><trkpt lat="43.39824136177669" lon="10.630827776546422"><ele>473.0</ele><time>2026-04-18T14:42:33Z</time></trkpt><trkpt lat="43.398230406760476" lon="10.63072242597282"><ele>473.99999999999994</ele><time>2026-04-18T14:42:34Z</time></trkpt><trkpt lat="43.398210279688925" lon="10.630616838236891"><ele>475.0</ele><time>2026-04-18T14:42:35Z</time></trkpt><trkpt lat="43.398187270674484" lon="10.630507897685451"><ele>476.0</ele><time>2026-04-18T14:42:36Z</time></trkpt><trkpt lat="43.39814953853542" lon="10.630408267369232"><ele>477.0</ele><time>2026-04-18T14:42:37Z</time></trkpt><trkpt lat="43.39814260692939" lon="10.630305560352845"><ele>477.99999999999994</ele><time>2026-04-18T14:42:38Z</time></trkpt><trkpt lat="43.39813247416688" lon="10.630202375731807"><ele>479.0</ele><time>2026-04-18T14:42:39Z</time></trkpt><trkpt lat="43.39813160310185" lon="10.630090851124487"><ele>480.99999999999994</ele><time>2026-04-18T14:42:40Z</time></trkpt><trkpt lat="43.398134577682605" lon="10.62997983985969"><ele>483.0</ele><time>2026-04-18T14:42:41Z</time></trkpt><trkpt lat="43.39814071979807" lon="10.629868896029143"><ele>485.0</ele><time>2026-04-18T14:42:42Z</time></trkpt><trkpt lat="43.39814534473833" lon="10.629755625122602"><ele>487.0</ele><time>2026-04-18T14:42:43Z</time></trkpt><trkpt lat="43.39814607862948" lon="10.629643673041342"><ele>488.99999999999994</ele><time>2026-04-18T14:42:44Z</time></trkpt><trkpt lat="43.39816087530339" lon="10.629473986689836"><ele>491.0</ele><time>2026-04-18T14:42:46Z</time></trkpt><trkpt lat="43.39817911625733" lon="10.629385497917212"><ele>491.66666666666663</ele><time>2026-04-18T14:42:47Z</time></trkpt><trkpt lat="43.398188090351596" lon="10.629290229248191"><ele>492.3333333333333</ele><time>2026-04-18T14:42:48Z</time></trkpt><trkpt lat="43.39819000510817" lon="10.6291859983011"><ele>493.0</ele><time>2026-04-18T14:42:49Z</time></trkpt><trkpt lat="43.398186274698354" lon="10.629083752973367"><ele>493.66666666666663</ele><time>2026-04-18T14:42:50Z</time></trkpt><trkpt lat="43.398161359810686" lon="10.628988174371047"><ele>494.3333333333333</ele><time>2026-04-18T14:42:51Z</time></trkpt><trkpt lat="43.398147694749156" lon="10.628880169149781"><ele>495.0</ele><time>2026-04-18T14:42:59.001Z</time></trkpt><trkpt lat="43.39814918833436" lon="10.628708303587993"><ele>495.4</ele><time>2026-04-18T14:43:01.001Z</time></trkpt><trkpt lat="43.39815249274903" lon="10.628602634662577"><ele>495.8</ele><time>2026-04-18T14:43:02.001Z</time></trkpt><trkpt lat="43.398169554063365" lon="10.628470497511314"><ele>496.20000000000005</ele><time>2026-04-18T14:43:03.001Z</time></trkpt><trkpt lat="43.39814964848172" lon="10.628317556552268"><ele>496.6</ele><time>2026-04-18T14:43:04.001Z</time></trkpt><trkpt lat="43.39814883257432" lon="10.628186438798672"><ele>497.0</ele><time>2026-04-18T14:43:05.001Z</time></trkpt><trkpt lat="43.398152447625485" lon="10.628058184587294"><ele>497.0</ele><time>2026-04-18T14:43:06.001Z</time></trkpt><trkpt lat="43.39815107151694" lon="10.627950619364478"><ele>497.00000000000006</ele><time>2026-04-18T14:43:07.001Z</time></trkpt><trkpt lat="43.39815212767961" lon="10.627795599982175"><ele>497.00000000000006</ele><time>2026-04-18T14:43:09.001Z</time></trkpt><trkpt lat="43.39814593699633" lon="10.627668132826322"><ele>497.0</ele><time>2026-04-18T14:43:11.001Z</time></trkpt><trkpt lat="43.39813346228931" lon="10.627547952410026"><ele>497.0</ele><time>2026-04-18T14:43:13.001Z</time></trkpt><trkpt lat="43.39809810282422" lon="10.6274501460072"><ele>497.66666666666663</ele><time>2026-04-18T14:43:15.001Z</time></trkpt><trkpt lat="43.39806320248948" lon="10.627365104447072"><ele>498.3333333333333</ele><time>2026-04-18T14:43:17.001Z</time></trkpt><trkpt lat="43.39802429308577" lon="10.627261011848773"><ele>499.0</ele><time>2026-04-18T14:43:19.001Z</time></trkpt><trkpt lat="43.39799077019958" lon="10.627160049598132"><ele>499.66666666666663</ele><time>2026-04-18T14:43:21.001Z</time></trkpt><trkpt lat="43.39797081187029" lon="10.627073834125982"><ele>500.3333333333333</ele><time>2026-04-18T14:43:23.001Z</time></trkpt><trkpt lat="43.39797313354592" lon="10.626964838189709"><ele>501.0</ele><time>2026-04-18T14:43:26.001Z</time></trkpt><trkpt lat="43.39798166108212" lon="10.626861163884433"><ele>502.6666666666667</ele><time>2026-04-18T14:43:29.001Z</time></trkpt><trkpt lat="43.3980340879908" lon="10.626783459129948"><ele>504.33333333333337</ele><time>2026-04-18T14:43:53.002Z</time></trkpt><trkpt lat="43.398081846343274" lon="10.626722402753636"><ele>506.0</ele><time>2026-04-18T14:43:54.002Z</time></trkpt><trkpt lat="43.39817956093584" lon="10.626602289853082"><ele>507.6666666666667</ele><time>2026-04-18T14:43:56.002Z</time></trkpt><trkpt lat="43.398240922563076" lon="10.626539121896364"><ele>509.33333333333337</ele><time>2026-04-18T14:43:57.002Z</time></trkpt><trkpt lat="43.39830664419156" lon="10.62647159364956"><ele>511.0</ele><time>2026-04-18T14:43:58.002Z</time></trkpt><trkpt lat="43.39837962428095" lon="10.626402559194165"><ele>511.00000000000006</ele><time>2026-04-18T14:43:59.002Z</time></trkpt><trkpt lat="43.398446143544525" lon="10.626339521527443"><ele>511.0</ele><time>2026-04-18T14:44:00.002Z</time></trkpt><trkpt lat="43.39850510600101" lon="10.626278420005526"><ele>511.0</ele><time>2026-04-18T14:44:01.002Z</time></trkpt><trkpt lat="43.39855600213151" lon="10.626201956553441"><ele>511.0</ele><time>2026-04-18T14:44:02.002Z</time></trkpt><trkpt lat="43.39858030507448" lon="10.626106489490226"><ele>511.00000000000006</ele><time>2026-04-18T14:44:03.002Z</time></trkpt><trkpt lat="43.39858922445798" lon="10.62600366850323"><ele>511.0</ele><time>2026-04-18T14:44:04.002Z</time></trkpt><trkpt lat="43.39857279953688" lon="10.625887411270487"><ele>514.6666666666667</ele><time>2026-04-18T14:44:05.002Z</time></trkpt><trkpt lat="43.3985121424974" lon="10.625842739182326"><ele>518.3333333333334</ele><time>2026-04-18T14:44:12.002Z</time></trkpt><trkpt lat="43.39843946781293" lon="10.625785095111258"><ele>522.0</ele><time>2026-04-18T14:44:15.002Z</time></trkpt><trkpt lat="43.39812374075901" lon="10.625454313064917"><ele>522.0</ele><time>2026-04-18T14:44:18Z</time></trkpt><trkpt lat="43.398120906809915" lon="10.625313383718279"><ele>522.0</ele><time>2026-04-18T14:44:20Z</time></trkpt><trkpt lat="43.39812200183723" lon="10.62513925835287"><ele>522.0</ele><time>2026-04-18T14:44:22Z</time></trkpt><trkpt lat="43.39812483396225" lon="10.625041009817576"><ele>522.0</ele><time>2026-04-18T14:44:23Z</time></trkpt><trkpt lat="43.39813109391436" lon="10.624887207022551"><ele>522.0</ele><time>2026-04-18T14:44:25Z</time></trkpt><trkpt lat="43.39813649382092" lon="10.62475403211689"><ele>523.2</ele><time>2026-04-18T14:44:27Z</time></trkpt><trkpt lat="43.39813952523221" lon="10.62461029740442"><ele>524.4000000000001</ele><time>2026-04-18T14:44:29Z</time></trkpt><trkpt lat="43.39813857173016" lon="10.624474561464028"><ele>525.5999999999999</ele><time>2026-04-18T14:44:31Z</time></trkpt><trkpt lat="43.398132278881896" lon="10.624359585512373"><ele>526.8</ele><time>2026-04-18T14:44:33Z</time></trkpt><trkpt lat="43.39809827946828" lon="10.624241342998856"><ele>528.0</ele><time>2026-04-18T14:44:35Z</time></trkpt><trkpt lat="43.398064908940846" lon="10.62408320698269"><ele>528.8</ele><time>2026-04-18T14:44:37Z</time></trkpt><trkpt lat="43.398047508849224" lon="10.62399832315585"><ele>529.5999999999999</ele><time>2026-04-18T14:44:38Z</time></trkpt><trkpt lat="43.39802838692069" lon="10.623839466075896"><ele>530.4000000000001</ele><time>2026-04-18T14:44:40Z</time></trkpt><trkpt lat="43.398065027192274" lon="10.623686917263978"><ele>531.2</ele><time>2026-04-18T14:44:42Z</time></trkpt><trkpt lat="43.39812803748837" lon="10.62355993546423"><ele>532.0</ele><time>2026-04-18T14:44:44Z</time></trkpt><trkpt lat="43.398206821730675" lon="10.623427460111463"><ele>532.3333333333334</ele><time>2026-04-18T14:44:46Z</time></trkpt><trkpt lat="43.39824835439666" lon="10.623359513874398"><ele>532.6666666666667</ele><time>2026-04-18T14:44:47Z</time></trkpt><trkpt lat="43.39831452776291" lon="10.623236904652956"><ele>533.0</ele><time>2026-04-18T14:44:49Z</time></trkpt><trkpt lat="43.39836367088049" lon="10.623145877767104"><ele>533.3333333333334</ele><time>2026-04-18T14:44:51.001Z</time></trkpt><trkpt lat="43.39841409057675" lon="10.623074999223464"><ele>533.6666666666666</ele><time>2026-04-18T14:44:54.001Z</time></trkpt><trkpt lat="43.398446960605064" lon="10.62297268861124"><ele>534.0</ele><time>2026-04-18T14:44:57.001Z</time></trkpt><trkpt lat="43.39846535038043" lon="10.622875075473784"><ele>534.3333333333334</ele><time>2026-04-18T14:45:01.001Z</time></trkpt><trkpt lat="43.398473964136" lon="10.622775162209232"><ele>534.6666666666666</ele><time>2026-04-18T14:45:04.001Z</time></trkpt><trkpt lat="43.39847463105628" lon="10.62268498114415"><ele>535.0</ele><time>2026-04-18T14:45:06.001Z</time></trkpt><trkpt lat="43.39846339229497" lon="10.622560631321623"><ele>535.3333333333333</ele><time>2026-04-18T14:45:08.001Z</time></trkpt><trkpt lat="43.39844696251505" lon="10.622427548644959"><ele>535.6666666666666</ele><time>2026-04-18T14:45:10.001Z</time></trkpt><trkpt lat="43.398469614208445" lon="10.622288893291529"><ele>536.0</ele><time>2026-04-18T14:45:12.001Z</time></trkpt><trkpt lat="43.39850556678528" lon="10.62215994505965"><ele>536.0</ele><time>2026-04-18T14:45:14.001Z</time></trkpt><trkpt lat="43.398559500348114" lon="10.622038182890886"><ele>536.0</ele><time>2026-04-18T14:45:16.001Z</time></trkpt><trkpt lat="43.398629191667595" lon="10.621905460926204"><ele>536.0</ele><time>2026-04-18T14:45:18.001Z</time></trkpt><trkpt lat="43.398653130041076" lon="10.62182266861698"><ele>536.0</ele><time>2026-04-18T14:45:19.001Z</time></trkpt><trkpt lat="43.39869870328587" lon="10.621759590159884"><ele>536.0</ele><time>2026-04-18T14:45:20.001Z</time></trkpt><trkpt lat="43.39874507312585" lon="10.621696225519777"><ele>536.0</ele><time>2026-04-18T14:45:21.001Z</time></trkpt><trkpt lat="43.39877399991965" lon="10.6216104074991"><ele>536.0</ele><time>2026-04-18T14:45:22.001Z</time></trkpt><trkpt lat="43.39878418935148" lon="10.62151104123911"><ele>536.0</ele><time>2026-04-18T14:45:23.001Z</time></trkpt><trkpt lat="43.39878130899239" lon="10.621406256825134"><ele>536.0</ele><time>2026-04-18T14:45:24.001Z</time></trkpt><trkpt lat="43.39878632911576" lon="10.621306414948805"><ele>536.0</ele><time>2026-04-18T14:45:25.001Z</time></trkpt><trkpt lat="43.398773417699914" lon="10.621207506700259"><ele>536.0</ele><time>2026-04-18T14:45:26.001Z</time></trkpt><trkpt lat="43.39877014266824" lon="10.621110851474725"><ele>536.0</ele><time>2026-04-18T14:45:27.001Z</time></trkpt><trkpt lat="43.39876397282295" lon="10.621009182217547"><ele>536.0</ele><time>2026-04-18T14:45:28.001Z</time></trkpt><trkpt lat="43.39878334243692" lon="10.620914902619333"><ele>536.1666666666666</ele><time>2026-04-18T14:45:29.001Z</time></trkpt><trkpt lat="43.39881468095038" lon="10.620827930060262"><ele>536.3333333333333</ele><time>2026-04-18T14:45:30.001Z</time></trkpt><trkpt lat="43.39885237296231" lon="10.620741553346392"><ele>536.5</ele><time>2026-04-18T14:45:31.001Z</time></trkpt><trkpt lat="43.398895646612516" lon="10.620656694024595"><ele>536.6666666666666</ele><time>2026-04-18T14:45:32.001Z</time></trkpt><trkpt lat="43.39894149956612" lon="10.620575099484926"><ele>536.8333333333334</ele><time>2026-04-18T14:45:33.001Z</time></trkpt><trkpt lat="43.39900262293968" lon="10.620505702337368"><ele>537.0</ele><time>2026-04-18T14:45:34.001Z</time></trkpt><trkpt lat="43.39905208732249" lon="10.620421989935796"><ele>537.0</ele><time>2026-04-18T14:45:35.001Z</time></trkpt><trkpt lat="43.399098466069645" lon="10.620326422260609"><ele>537.0</ele><time>2026-04-18T14:45:36.001Z</time></trkpt><trkpt lat="43.399149846165784" lon="10.620240356527281"><ele>537.0</ele><time>2026-04-18T14:45:37.001Z</time></trkpt><trkpt lat="43.39919817654426" lon="10.620151789191228"><ele>537.0</ele><time>2026-04-18T14:45:38.001Z</time></trkpt><trkpt lat="43.399235894472675" lon="10.620054602907192"><ele>537.0</ele><time>2026-04-18T14:45:39.001Z</time></trkpt><trkpt lat="43.399263749962266" lon="10.619963282344704"><ele>537.0</ele><time>2026-04-18T14:45:40.002Z</time></trkpt><trkpt lat="43.39930922788415" lon="10.61989322058992"><ele>536.2</ele><time>2026-04-18T14:45:41.002Z</time></trkpt><trkpt lat="43.39933031377604" lon="10.619799524339482"><ele>535.4000000000001</ele><time>2026-04-18T14:45:42.002Z</time></trkpt><trkpt lat="43.39938475647378" lon="10.619695435726845"><ele>534.5999999999999</ele><time>2026-04-18T14:46:11.002Z</time></trkpt><trkpt lat="43.399419674547985" lon="10.619594798431027"><ele>533.8</ele><time>2026-04-18T14:46:13.002Z</time></trkpt><trkpt lat="43.39946595354799" lon="10.619439797550754"><ele>533.0</ele><time>2026-04-18T14:46:15.002Z</time></trkpt><trkpt lat="43.39947681474031" lon="10.619291292286874"><ele>532.8333333333333</ele><time>2026-04-18T14:46:17.002Z</time></trkpt><trkpt lat="43.3994806384557" lon="10.619166326832215"><ele>532.6666666666666</ele><time>2026-04-18T14:46:19.002Z</time></trkpt><trkpt lat="43.39948847047612" lon="10.619019492905998"><ele>532.5</ele><time>2026-04-18T14:46:21.002Z</time></trkpt><trkpt lat="43.39949958837592" lon="10.61892486525355"><ele>532.3333333333334</ele><time>2026-04-18T14:46:22.002Z</time></trkpt><trkpt lat="43.39951082047296" lon="10.618797243945485"><ele>532.1666666666667</ele><time>2026-04-18T14:46:24Z</time></trkpt><trkpt lat="43.399525348968474" lon="10.618685682300097"><ele>532.0</ele><time>2026-04-18T14:46:26Z</time></trkpt><trkpt lat="43.39953582977872" lon="10.61859659807242"><ele>532.75</ele><time>2026-04-18T14:46:29Z</time></trkpt><trkpt lat="43.39969725130496" lon="10.618646098264799"><ele>533.5</ele><time>2026-04-18T14:46:43Z</time></trkpt><trkpt lat="43.399814901146016" lon="10.618732986842177"><ele>534.25</ele><time>2026-04-18T14:46:45Z</time></trkpt><trkpt lat="43.39989901935287" lon="10.618774653538223"><ele>535.0</ele><time>2026-04-18T14:46:46Z</time></trkpt><trkpt lat="43.39998194891047" lon="10.61883453971223"><ele>535.4</ele><time>2026-04-18T14:46:47Z</time></trkpt><trkpt lat="43.40006405834201" lon="10.618901593648912"><ele>535.8</ele><time>2026-04-18T14:46:48Z</time></trkpt><trkpt lat="43.40014659093745" lon="10.618969956551481"><ele>536.2</ele><time>2026-04-18T14:46:49Z</time></trkpt><trkpt lat="43.40022781231862" lon="10.619050242553394"><ele>536.6</ele><time>2026-04-18T14:46:50Z</time></trkpt><trkpt lat="43.400312159536604" lon="10.619123394875821"><ele>537.0</ele><time>2026-04-18T14:46:51Z</time></trkpt><trkpt lat="43.40039256310467" lon="10.619188165821217"><ele>537.0</ele><time>2026-04-18T14:46:52Z</time></trkpt><trkpt lat="43.40047914908907" lon="10.619246037141851"><ele>537.0</ele><time>2026-04-18T14:46:53Z</time></trkpt><trkpt lat="43.400574296251186" lon="10.619281869183872"><ele>537.0</ele><time>2026-04-18T14:46:54Z</time></trkpt><trkpt lat="43.40066475761507" lon="10.619316160899489"><ele>537.0</ele><time>2026-04-18T14:46:55Z</time></trkpt><trkpt lat="43.40075956873545" lon="10.619329006959843"><ele>537.0</ele><time>2026-04-18T14:46:56Z</time></trkpt><trkpt lat="43.40084955720233" lon="10.619335708570233"><ele>535.4</ele><time>2026-04-18T14:46:57Z</time></trkpt><trkpt lat="43.400938931840244" lon="10.619333224642713"><ele>533.8000000000001</ele><time>2026-04-18T14:46:58Z</time></trkpt><trkpt lat="43.40103440160079" lon="10.619310613666176"><ele>532.2</ele><time>2026-04-18T14:46:59Z</time></trkpt><trkpt lat="43.40112639889099" lon="10.619262380155105"><ele>530.6</ele><time>2026-04-18T14:47:00Z</time></trkpt><trkpt lat="43.40121062528259" lon="10.619213599601467"><ele>529.0</ele><time>2026-04-18T14:47:01Z</time></trkpt><trkpt lat="43.40128843494164" lon="10.61918542945241"><ele>526.6</ele><time>2026-04-18T14:47:02Z</time></trkpt><trkpt lat="43.40136997852866" lon="10.619188588563809"><ele>524.2</ele><time>2026-04-18T14:47:03Z</time></trkpt><trkpt lat="43.40145450575557" lon="10.619225671959883"><ele>521.8000000000001</ele><time>2026-04-18T14:47:04Z</time></trkpt><trkpt lat="43.40154595777148" lon="10.619286606840602"><ele>519.4</ele><time>2026-04-18T14:47:05Z</time></trkpt><trkpt lat="43.401647871178234" lon="10.61936137543863"><ele>517.0</ele><time>2026-04-18T14:47:06Z</time></trkpt><trkpt lat="43.40176129702245" lon="10.619433147672996"><ele>518.5</ele><time>2026-04-18T14:47:07Z</time></trkpt><trkpt lat="43.40186889411778" lon="10.619519483961406"><ele>520.0</ele><time>2026-04-18T14:47:08Z</time></trkpt><trkpt lat="43.40198727110204" lon="10.619600128216526"><ele>521.5</ele><time>2026-04-18T14:47:09Z</time></trkpt><trkpt lat="43.40210453139942" lon="10.619676305461685"><ele>523.0</ele><time>2026-04-18T14:47:10Z</time></trkpt><trkpt lat="43.40221947471201" lon="10.619757590082997"><ele>517.25</ele><time>2026-04-18T14:47:11Z</time></trkpt><trkpt lat="43.40232543125776" lon="10.619846701261284"><ele>511.5</ele><time>2026-04-18T14:47:12Z</time></trkpt><trkpt lat="43.40242055823681" lon="10.61994695201911"><ele>505.75</ele><time>2026-04-18T14:47:13.001Z</time></trkpt><trkpt lat="43.40249781571362" lon="10.620052205813616"><ele>500.0</ele><time>2026-04-18T14:47:14.001Z</time></trkpt><trkpt lat="43.40255957797165" lon="10.620165173791124"><ele>500.0</ele><time>2026-04-18T14:47:15.001Z</time></trkpt><trkpt lat="43.402640830807655" lon="10.62026566871386"><ele>500.0</ele><time>2026-04-18T14:47:16.001Z</time></trkpt><trkpt lat="43.40269978523178" lon="10.62038849763854"><ele>500.0</ele><time>2026-04-18T14:47:17.001Z</time></trkpt><trkpt lat="43.402754155210744" lon="10.62051638046429"><ele>500.0</ele><time>2026-04-18T14:47:18.001Z</time></trkpt><trkpt lat="43.40281090910657" lon="10.62063495006599"><ele>500.0</ele><time>2026-04-18T14:47:19.001Z</time></trkpt><trkpt lat="43.40285913307949" lon="10.620753821234139"><ele>499.6</ele><time>2026-04-18T14:47:20.001Z</time></trkpt><trkpt lat="43.40290280353992" lon="10.620871820360513"><ele>499.2</ele><time>2026-04-18T14:47:21.001Z</time></trkpt><trkpt lat="43.402926872658526" lon="10.621008979100692"><ele>498.79999999999995</ele><time>2026-04-18T14:47:22.001Z</time></trkpt><trkpt lat="43.40291608870105" lon="10.621162748970495"><ele>498.4</ele><time>2026-04-18T14:47:23.001Z</time></trkpt><trkpt lat="43.40292296125517" lon="10.621327236548055"><ele>498.0</ele><time>2026-04-18T14:47:24.001Z</time></trkpt><trkpt lat="43.40293184702038" lon="10.621516160136142"><ele>496.33333333333337</ele><time>2026-04-18T14:47:25.001Z</time></trkpt><trkpt lat="43.40294668422826" lon="10.621717785833798"><ele>494.6666666666667</ele><time>2026-04-18T14:47:26.001Z</time></trkpt><trkpt lat="43.40296223182026" lon="10.621921901905868"><ele>493.0</ele><time>2026-04-18T14:47:27.001Z</time></trkpt><trkpt lat="43.40296824001535" lon="10.622138629546567"><ele>492.5</ele><time>2026-04-18T14:47:28.001Z</time></trkpt><trkpt lat="43.402964066828304" lon="10.62232212463426"><ele>492.0</ele><time>2026-04-18T14:47:29.001Z</time></trkpt><trkpt lat="43.40294474032689" lon="10.622485062425568"><ele>491.5</ele><time>2026-04-18T14:47:30.001Z</time></trkpt><trkpt lat="43.40290599462282" lon="10.622628308014196"><ele>491.0</ele><time>2026-04-18T14:47:31.001Z</time></trkpt><trkpt lat="43.402852871999144" lon="10.62277969064569"><ele>490.8</ele><time>2026-04-18T14:47:32.001Z</time></trkpt><trkpt lat="43.402809888149484" lon="10.622909788845526"><ele>490.6</ele><time>2026-04-18T14:47:33.001Z</time></trkpt><trkpt lat="43.40278662031383" lon="10.623039358201787"><ele>490.4</ele><time>2026-04-18T14:47:34.001Z</time></trkpt><trkpt lat="43.40275841018256" lon="10.623164102127218"><ele>490.2</ele><time>2026-04-18T14:47:35.001Z</time></trkpt><trkpt lat="43.402744087605484" lon="10.623299295182765"><ele>490.0</ele><time>2026-04-18T14:47:36.001Z</time></trkpt><trkpt lat="43.40274618835083" lon="10.623437856479464"><ele>490.0</ele><time>2026-04-18T14:47:37.001Z</time></trkpt><trkpt lat="43.402757346893715" lon="10.623570540210252"><ele>490.0</ele><time>2026-04-18T14:47:38.001Z</time></trkpt><trkpt lat="43.40277653698822" lon="10.623703414988356"><ele>490.0</ele><time>2026-04-18T14:47:39.001Z</time></trkpt><trkpt lat="43.40280380439378" lon="10.623821739301153"><ele>490.0</ele><time>2026-04-18T14:47:40.001Z</time></trkpt><trkpt lat="43.40281298723704" lon="10.623947859967696"><ele>490.0</ele><time>2026-04-18T14:47:41.001Z</time></trkpt><trkpt lat="43.40284379349359" lon="10.624067393239493"><ele>490.0</ele><time>2026-04-18T14:47:42.001Z</time></trkpt><trkpt lat="43.402867735405536" lon="10.624193399518212"><ele>490.0</ele><time>2026-04-18T14:47:43.001Z</time></trkpt><trkpt lat="43.402886780702474" lon="10.624318309333033"><ele>490.0</ele><time>2026-04-18T14:47:44.001Z</time></trkpt><trkpt lat="43.402912774340635" lon="10.624443924452413"><ele>490.0</ele><time>2026-04-18T14:47:45.001Z</time></trkpt><trkpt lat="43.402951776719114" lon="10.624573776905171"><ele>490.0</ele><time>2026-04-18T14:47:46.001Z</time></trkpt><trkpt lat="43.4030046767823" lon="10.624703607873894"><ele>490.6</ele><time>2026-04-18T14:47:47.001Z</time></trkpt><trkpt lat="43.40306167422967" lon="10.624834345392365"><ele>491.2</ele><time>2026-04-18T14:47:48.001Z</time></trkpt><trkpt lat="43.403111891211694" lon="10.62496728487321"><ele>491.79999999999995</ele><time>2026-04-18T14:47:49.001Z</time></trkpt><trkpt lat="43.403149895215904" lon="10.625097526885293"><ele>492.4</ele><time>2026-04-18T14:47:50.001Z</time></trkpt><trkpt lat="43.4031761622209" lon="10.625225172201713"><ele>493.0</ele><time>2026-04-18T14:47:51.001Z</time></trkpt><trkpt lat="43.40320555605078" lon="10.625352191456873"><ele>489.2</ele><time>2026-04-18T14:47:52.001Z</time></trkpt><trkpt lat="43.40325168995718" lon="10.625483252957476"><ele>485.4</ele><time>2026-04-18T14:47:53.001Z</time></trkpt><trkpt lat="43.4033254708987" lon="10.625599714353736"><ele>481.59999999999997</ele><time>2026-04-18T14:47:54.001Z</time></trkpt><trkpt lat="43.403397108543714" lon="10.625716628952853"><ele>477.79999999999995</ele><time>2026-04-18T14:47:55.001Z</time></trkpt><trkpt lat="43.4034666711468" lon="10.625843254437646"><ele>474.0</ele><time>2026-04-18T14:47:56.001Z</time></trkpt><trkpt lat="43.403537173789935" lon="10.62597662473349"><ele>474.0</ele><time>2026-04-18T14:47:57.001Z</time></trkpt><trkpt lat="43.40361041857627" lon="10.626088532864435"><ele>474.0</ele><time>2026-04-18T14:47:58.001Z</time></trkpt><trkpt lat="43.40368308294344" lon="10.626217979504464"><ele>474.0</ele><time>2026-04-18T14:47:59.002Z</time></trkpt><trkpt lat="43.40375809143249" lon="10.626352204742318"><ele>474.0</ele><time>2026-04-18T14:48:00.002Z</time></trkpt><trkpt lat="43.40383095554996" lon="10.626487138605302"><ele>475.79999999999995</ele><time>2026-04-18T14:48:01.002Z</time></trkpt><trkpt lat="43.403900802264815" lon="10.626620884476845"><ele>477.59999999999997</ele><time>2026-04-18T14:48:02.002Z</time></trkpt><trkpt lat="43.40396448904067" lon="10.6267449804881"><ele>479.4</ele><time>2026-04-18T14:48:03.002Z</time></trkpt><trkpt lat="43.40402747302274" lon="10.626847969575909"><ele>481.2</ele><time>2026-04-18T14:48:04.002Z</time></trkpt><trkpt lat="43.40409768815181" lon="10.626935363909089"><ele>483.0</ele><time>2026-04-18T14:48:05.002Z</time></trkpt><trkpt lat="43.40417269109358" lon="10.627021478529644"><ele>479.0</ele><time>2026-04-18T14:48:06.002Z</time></trkpt><trkpt lat="43.4042515289004" lon="10.627102155951006"><ele>474.99999999999994</ele><time>2026-04-18T14:48:07.002Z</time></trkpt><trkpt lat="43.40432150406138" lon="10.62718749255301"><ele>470.99999999999994</ele><time>2026-04-18T14:48:08.002Z</time></trkpt><trkpt lat="43.40438493805643" lon="10.627263930153742"><ele>467.0</ele><time>2026-04-18T14:48:09.002Z</time></trkpt><trkpt lat="43.40445594649923" lon="10.627330388346865"><ele>463.0</ele><time>2026-04-18T14:48:10.002Z</time></trkpt><trkpt lat="43.40453947129897" lon="10.627376983747473"><ele>463.0</ele><time>2026-04-18T14:48:11.002Z</time></trkpt><trkpt lat="43.40463347484014" lon="10.627398735205949"><ele>462.99999999999994</ele><time>2026-04-18T14:48:12.002Z</time></trkpt><trkpt lat="43.40473038673878" lon="10.627407012154924"><ele>462.99999999999994</ele><time>2026-04-18T14:48:13.002Z</time></trkpt><trkpt lat="43.404833396732876" lon="10.62741818569562"><ele>463.0</ele><time>2026-04-18T14:48:14.002Z</time></trkpt><trkpt lat="43.40492185972868" lon="10.627436039140433"><ele>463.0</ele><time>2026-04-18T14:48:15.002Z</time></trkpt><trkpt lat="43.40499653086581" lon="10.627449264881855"><ele>464.00000000000006</ele><time>2026-04-18T14:48:16.002Z</time></trkpt><trkpt lat="43.405061675039526" lon="10.627471119483607"><ele>465.0</ele><time>2026-04-18T14:48:17.002Z</time></trkpt><trkpt lat="43.405126638651744" lon="10.627488752856808"><ele>466.0</ele><time>2026-04-18T14:48:18.002Z</time></trkpt><trkpt lat="43.40518815351545" lon="10.627516935537615"><ele>467.0</ele><time>2026-04-18T14:48:19.002Z</time></trkpt><trkpt lat="43.405282386984524" lon="10.62763381981868"><ele>468.00000000000006</ele><time>2026-04-18T14:48:21.002Z</time></trkpt><trkpt lat="43.40534230514854" lon="10.62769483971723"><ele>469.0</ele><time>2026-04-18T14:48:22.002Z</time></trkpt><trkpt lat="43.40538171319867" lon="10.627780467231913"><ele>466.33333333333337</ele><time>2026-04-18T14:48:23.002Z</time></trkpt><trkpt lat="43.405397138899545" lon="10.62788794864959"><ele>463.6666666666667</ele><time>2026-04-18T14:48:24.002Z</time></trkpt><trkpt lat="43.4054412206967" lon="10.627978645422852"><ele>461.0</ele><time>2026-04-18T14:48:25.002Z</time></trkpt><trkpt lat="43.40546715359476" lon="10.628081470804533"><ele>458.33333333333337</ele><time>2026-04-18T14:48:26.002Z</time></trkpt><trkpt lat="43.405483720262" lon="10.628176196646237"><ele>455.6666666666667</ele><time>2026-04-18T14:48:27.002Z</time></trkpt><trkpt lat="43.40550617472149" lon="10.628258527639613"><ele>453.0</ele><time>2026-04-18T14:48:28.002Z</time></trkpt><trkpt lat="43.40555462425746" lon="10.628377963408695"><ele>453.0</ele><time>2026-04-18T14:48:30Z</time></trkpt><trkpt lat="43.405616781076745" lon="10.628454382953304"><ele>453.0</ele><time>2026-04-18T14:48:32Z</time></trkpt><trkpt lat="43.405665510499034" lon="10.628511362760065"><ele>453.0</ele><time>2026-04-18T14:48:35Z</time></trkpt><trkpt lat="43.40576386226316" lon="10.628517459509615"><ele>453.0</ele><time>2026-04-18T14:48:38Z</time></trkpt><trkpt lat="43.405845920158306" lon="10.628533624908941"><ele>453.0</ele><time>2026-04-18T14:48:40Z</time></trkpt><trkpt lat="43.405958995953924" lon="10.628571459459662"><ele>453.0</ele><time>2026-04-18T14:48:42Z</time></trkpt><trkpt lat="43.406025447879635" lon="10.628592200357806"><ele>452.99999999999994</ele><time>2026-04-18T14:48:43Z</time></trkpt><trkpt lat="43.40609582072573" lon="10.628608563070102"><ele>453.0</ele><time>2026-04-18T14:48:44Z</time></trkpt><trkpt lat="43.40617188524062" lon="10.628627040634054"><ele>452.99999999999994</ele><time>2026-04-18T14:48:45Z</time></trkpt><trkpt lat="43.40625244738969" lon="10.628646477927674"><ele>452.99999999999994</ele><time>2026-04-18T14:48:46Z</time></trkpt><trkpt lat="43.40632386335593" lon="10.628668723549616"><ele>453.0</ele><time>2026-04-18T14:48:47Z</time></trkpt><trkpt lat="43.40638990201298" lon="10.628685587646903"><ele>452.99999999999994</ele><time>2026-04-18T14:48:48Z</time></trkpt><trkpt lat="43.40645562956383" lon="10.628704926089446"><ele>452.99999999999994</ele><time>2026-04-18T14:48:49Z</time></trkpt><trkpt lat="43.406523453122254" lon="10.628736838525546"><ele>450.8333333333333</ele><time>2026-04-18T14:48:50Z</time></trkpt><trkpt lat="43.40658310231236" lon="10.628787276916482"><ele>448.66666666666663</ele><time>2026-04-18T14:48:51Z</time></trkpt><trkpt lat="43.406641059851125" lon="10.628860376829312"><ele>446.5</ele><time>2026-04-18T14:48:52Z</time></trkpt><trkpt lat="43.40668640754946" lon="10.628937326456144"><ele>444.3333333333333</ele><time>2026-04-18T14:48:53Z</time></trkpt><trkpt lat="43.406727928808465" lon="10.629022631373354"><ele>442.16666666666663</ele><time>2026-04-18T14:48:54Z</time></trkpt><trkpt lat="43.406779281566756" lon="10.629114353567731"><ele>440.0</ele><time>2026-04-18T14:48:55Z</time></trkpt><trkpt lat="43.406834934310055" lon="10.629216904222584"><ele>440.0</ele><time>2026-04-18T14:48:56Z</time></trkpt><trkpt lat="43.40689594121418" lon="10.629311755000353"><ele>440.0</ele><time>2026-04-18T14:48:57Z</time></trkpt><trkpt lat="43.40696250353751" lon="10.629411587165622"><ele>440.0</ele><time>2026-04-18T14:48:58Z</time></trkpt><trkpt lat="43.4070279717805" lon="10.629514583361969"><ele>440.0</ele><time>2026-04-18T14:48:59Z</time></trkpt><trkpt lat="43.4070892839702" lon="10.629617287423672"><ele>440.0</ele><time>2026-04-18T14:49:00Z</time></trkpt><trkpt lat="43.40715120848827" lon="10.629722756531438"><ele>437.6</ele><time>2026-04-18T14:49:01Z</time></trkpt><trkpt lat="43.407212539204" lon="10.62982860991177"><ele>435.2</ele><time>2026-04-18T14:49:02Z</time></trkpt><trkpt lat="43.407280749837945" lon="10.629931674076708"><ele>432.79999999999995</ele><time>2026-04-18T14:49:03Z</time></trkpt><trkpt lat="43.40734879819454" lon="10.630037239591768"><ele>430.4</ele><time>2026-04-18T14:49:04Z</time></trkpt><trkpt lat="43.40741367332631" lon="10.630145416059502"><ele>428.0</ele><time>2026-04-18T14:49:05Z</time></trkpt><trkpt lat="43.40747583389239" lon="10.630250017419348"><ele>428.4</ele><time>2026-04-18T14:49:06Z</time></trkpt><trkpt lat="43.407538868766345" lon="10.630352720865535"><ele>428.79999999999995</ele><time>2026-04-18T14:49:07Z</time></trkpt><trkpt lat="43.407600554396154" lon="10.630453064519198"><ele>429.2</ele><time>2026-04-18T14:49:08Z</time></trkpt><trkpt lat="43.40766054120399" lon="10.63054686417096"><ele>429.6</ele><time>2026-04-18T14:49:09Z</time></trkpt><trkpt lat="43.40772306005047" lon="10.6306452574545"><ele>430.0</ele><time>2026-04-18T14:49:10Z</time></trkpt><trkpt lat="43.407785716288494" lon="10.63074533124365"><ele>430.0</ele><time>2026-04-18T14:49:11Z</time></trkpt><trkpt lat="43.40784108119599" lon="10.630850318317233"><ele>430.0</ele><time>2026-04-18T14:49:12Z</time></trkpt><trkpt lat="43.40789988763297" lon="10.630956440315003"><ele>430.0</ele><time>2026-04-18T14:49:13.001Z</time></trkpt><trkpt lat="43.40794476766336" lon="10.63105794033263"><ele>430.0</ele><time>2026-04-18T14:49:14.001Z</time></trkpt><trkpt lat="43.40799090745876" lon="10.631159035459538"><ele>430.0</ele><time>2026-04-18T14:49:15.001Z</time></trkpt><trkpt lat="43.408055867515394" lon="10.631251084584033"><ele>428.0</ele><time>2026-04-18T14:49:16.001Z</time></trkpt><trkpt lat="43.40812649723841" lon="10.631328805980477"><ele>426.0</ele><time>2026-04-18T14:49:17.001Z</time></trkpt><trkpt lat="43.408192219090694" lon="10.631384842111814"><ele>424.0</ele><time>2026-04-18T14:49:18.001Z</time></trkpt><trkpt lat="43.40827864439237" lon="10.631448703026646"><ele>422.0</ele><time>2026-04-18T14:49:20.001Z</time></trkpt><trkpt lat="43.40837333113757" lon="10.631498874594659"><ele>420.0</ele><time>2026-04-18T14:49:22.001Z</time></trkpt><trkpt lat="43.40848679271886" lon="10.631579807396001"><ele>420.0</ele><time>2026-04-18T14:49:24.001Z</time></trkpt><trkpt lat="43.40860897652496" lon="10.63167531634898"><ele>420.0</ele><time>2026-04-18T14:49:26.001Z</time></trkpt><trkpt lat="43.4086719753707" lon="10.63172281622613"><ele>420.0</ele><time>2026-04-18T14:49:27.001Z</time></trkpt><trkpt lat="43.40873968171821" lon="10.631762912558186"><ele>420.0</ele><time>2026-04-18T14:49:28.001Z</time></trkpt><trkpt lat="43.40882755060854" lon="10.631772896269753"><ele>420.0</ele><time>2026-04-18T14:49:29.001Z</time></trkpt><trkpt lat="43.40891613478319" lon="10.63177789219134"><ele>417.4</ele><time>2026-04-18T14:49:30.001Z</time></trkpt><trkpt lat="43.40900582252216" lon="10.631757617165608"><ele>414.8</ele><time>2026-04-18T14:49:31.001Z</time></trkpt><trkpt lat="43.40909955771992" lon="10.631730843800757"><ele>412.20000000000005</ele><time>2026-04-18T14:49:32.001Z</time></trkpt><trkpt lat="43.40918545292374" lon="10.631705342966223"><ele>409.6</ele><time>2026-04-18T14:49:33.001Z</time></trkpt><trkpt lat="43.409273812718645" lon="10.63167076505368"><ele>407.0</ele><time>2026-04-18T14:49:34.001Z</time></trkpt><trkpt lat="43.409361678528185" lon="10.631656632702876"><ele>406.99999999999994</ele><time>2026-04-18T14:49:35.001Z</time></trkpt><trkpt lat="43.40944627297899" lon="10.63164051428725"><ele>407.0</ele><time>2026-04-18T14:49:36.001Z</time></trkpt><trkpt lat="43.4095314121677" lon="10.631616049834596"><ele>407.0</ele><time>2026-04-18T14:49:37.001Z</time></trkpt><trkpt lat="43.409611009541564" lon="10.631594126209036"><ele>407.0</ele><time>2026-04-18T14:49:38.001Z</time></trkpt><trkpt lat="43.40968202561248" lon="10.63157180687699"><ele>406.99999999999994</ele><time>2026-04-18T14:49:39.001Z</time></trkpt><trkpt lat="43.409753458158434" lon="10.631556464662571"><ele>407.0</ele><time>2026-04-18T14:49:40.001Z</time></trkpt><trkpt lat="43.40981780501983" lon="10.631558045812135"><ele>406.3333333333333</ele><time>2026-04-18T14:49:41.001Z</time></trkpt><trkpt lat="43.40987578903741" lon="10.63159916608801"><ele>405.66666666666663</ele><time>2026-04-18T14:49:42.001Z</time></trkpt><trkpt lat="43.40992777972208" lon="10.631654896199358"><ele>405.0</ele><time>2026-04-18T14:49:43.001Z</time></trkpt><trkpt lat="43.40998271099184" lon="10.631734970536703"><ele>404.33333333333337</ele><time>2026-04-18T14:49:44.001Z</time></trkpt><trkpt lat="43.41002819323418" lon="10.631831787110775"><ele>403.6666666666667</ele><time>2026-04-18T14:49:45.001Z</time></trkpt><trkpt lat="43.410075486177575" lon="10.631940584552318"><ele>403.0</ele><time>2026-04-18T14:49:46.001Z</time></trkpt><trkpt lat="43.41011372372375" lon="10.632061273539543"><ele>403.00000000000006</ele><time>2026-04-18T14:49:47.001Z</time></trkpt><trkpt lat="43.41015189193574" lon="10.632178647253163"><ele>403.0</ele><time>2026-04-18T14:49:48.001Z</time></trkpt><trkpt lat="43.41019026700953" lon="10.632289973563406"><ele>403.0</ele><time>2026-04-18T14:49:49.001Z</time></trkpt><trkpt lat="43.41022483964722" lon="10.632389488386002"><ele>403.0</ele><time>2026-04-18T14:49:50.001Z</time></trkpt><trkpt lat="43.41027232721813" lon="10.632476803829356"><ele>403.00000000000006</ele><time>2026-04-18T14:49:51.001Z</time></trkpt><trkpt lat="43.410341754048375" lon="10.63255323836019"><ele>403.0</ele><time>2026-04-18T14:49:52.001Z</time></trkpt><trkpt lat="43.41042731656143" lon="10.63262007782722"><ele>399.59999999999997</ele><time>2026-04-18T14:49:53.001Z</time></trkpt><trkpt lat="43.41051985239712" lon="10.632678745965224"><ele>396.2</ele><time>2026-04-18T14:49:54.001Z</time></trkpt><trkpt lat="43.41061673610802" lon="10.63272521117529"><ele>392.8</ele><time>2026-04-18T14:49:55.001Z</time></trkpt><trkpt lat="43.410716078708795" lon="10.632767241991154"><ele>389.4</ele><time>2026-04-18T14:49:56.002Z</time></trkpt><trkpt lat="43.41081362009938" lon="10.63280289056093"><ele>386.0</ele><time>2026-04-18T14:49:57.002Z</time></trkpt><trkpt lat="43.410897858703535" lon="10.632841332135051"><ele>385.99999999999994</ele><time>2026-04-18T14:49:58.002Z</time></trkpt><trkpt lat="43.41097300897375" lon="10.632890462154181"><ele>386.0</ele><time>2026-04-18T14:49:59.002Z</time></trkpt><trkpt lat="43.411040102666526" lon="10.632967398080833"><ele>386.0</ele><time>2026-04-18T14:50:00.002Z</time></trkpt><trkpt lat="43.41109131488004" lon="10.633063860818426"><ele>386.0</ele><time>2026-04-18T14:50:01.002Z</time></trkpt><trkpt lat="43.41113408978781" lon="10.633164992113004"><ele>385.99999999999994</ele><time>2026-04-18T14:50:02.002Z</time></trkpt><trkpt lat="43.41116777086883" lon="10.633266604804302"><ele>386.0</ele><time>2026-04-18T14:50:03.002Z</time></trkpt><trkpt lat="43.41119652047953" lon="10.633369041194683"><ele>386.00000000000006</ele><time>2026-04-18T14:50:04.002Z</time></trkpt><trkpt lat="43.41122473310825" lon="10.633470636863306"><ele>386.0</ele><time>2026-04-18T14:50:05.002Z</time></trkpt><trkpt lat="43.41125377963035" lon="10.63356712450453"><ele>386.0</ele><time>2026-04-18T14:50:06.002Z</time></trkpt><trkpt lat="43.41128348459631" lon="10.63365889786033"><ele>386.0</ele><time>2026-04-18T14:50:07.002Z</time></trkpt><trkpt lat="43.411314810748735" lon="10.633746699896516"><ele>386.0</ele><time>2026-04-18T14:50:08.002Z</time></trkpt><trkpt lat="43.411324430426646" lon="10.63384919693575"><ele>386.00000000000006</ele><time>2026-04-18T14:50:09.002Z</time></trkpt><trkpt lat="43.41134101633815" lon="10.633949483919803"><ele>386.0</ele><time>2026-04-18T14:50:10.002Z</time></trkpt><trkpt lat="43.41136061529063" lon="10.63406516803364"><ele>385.0</ele><time>2026-04-18T14:50:11.002Z</time></trkpt><trkpt lat="43.41138223005403" lon="10.634185809896465"><ele>384.0</ele><time>2026-04-18T14:50:12.002Z</time></trkpt><trkpt lat="43.41141936261566" lon="10.63431308016708"><ele>383.0</ele><time>2026-04-18T14:50:13.002Z</time></trkpt><trkpt lat="43.411457673839294" lon="10.634442541270404"><ele>382.0</ele><time>2026-04-18T14:50:14.002Z</time></trkpt><trkpt lat="43.41150675973675" lon="10.634574564665959"><ele>381.0</ele><time>2026-04-18T14:50:15.002Z</time></trkpt><trkpt lat="43.411570407813564" lon="10.63469988678417"><ele>381.0</ele><time>2026-04-18T14:50:16.002Z</time></trkpt><trkpt lat="43.411630279212844" lon="10.634823053588473"><ele>381.0</ele><time>2026-04-18T14:50:17.002Z</time></trkpt><trkpt lat="43.41168625355089" lon="10.634945298899927"><ele>381.0</ele><time>2026-04-18T14:50:18.002Z</time></trkpt><trkpt lat="43.4117384636226" lon="10.635058928845417"><ele>381.0</ele><time>2026-04-18T14:50:19.002Z</time></trkpt><trkpt lat="43.41178566228461" lon="10.635156663894104"><ele>381.0</ele><time>2026-04-18T14:50:20.002Z</time></trkpt><trkpt lat="43.41183272030517" lon="10.635249557273715"><ele>381.6666666666667</ele><time>2026-04-18T14:50:21.002Z</time></trkpt><trkpt lat="43.41186929707161" lon="10.635338841801625"><ele>382.33333333333337</ele><time>2026-04-18T14:50:22.002Z</time></trkpt><trkpt lat="43.41189365952528" lon="10.63543202227454"><ele>383.0</ele><time>2026-04-18T14:50:23.002Z</time></trkpt><trkpt lat="43.41190941894483" lon="10.635532687680124"><ele>383.6666666666667</ele><time>2026-04-18T14:50:24.002Z</time></trkpt><trkpt lat="43.41190534820685" lon="10.635633998880696"><ele>384.33333333333337</ele><time>2026-04-18T14:50:25.002Z</time></trkpt><trkpt lat="43.41190722243995" lon="10.63573608039631"><ele>385.0</ele><time>2026-04-18T14:50:26.002Z</time></trkpt><trkpt lat="43.411907412371704" lon="10.635854353754365"><ele>385.00000000000006</ele><time>2026-04-18T14:50:27.002Z</time></trkpt><trkpt lat="43.41192980212262" lon="10.635965505419913"><ele>385.0</ele><time>2026-04-18T14:50:28.002Z</time></trkpt><trkpt lat="43.411953951971434" lon="10.636073996059432"><ele>385.0</ele><time>2026-04-18T14:50:29.002Z</time></trkpt><trkpt lat="43.41199940147434" lon="10.636174476789883"><ele>385.0</ele><time>2026-04-18T14:50:30.002Z</time></trkpt><trkpt lat="43.41203160095618" lon="10.636274295791589"><ele>385.00000000000006</ele><time>2026-04-18T14:50:31.002Z</time></trkpt><trkpt lat="43.41207432566741" lon="10.636370805741583"><ele>385.0</ele><time>2026-04-18T14:50:32.002Z</time></trkpt><trkpt lat="43.41212593200311" lon="10.636464653797539"><ele>382.8</ele><time>2026-04-18T14:50:33.002Z</time></trkpt><trkpt lat="43.41218549723184" lon="10.636558999670656"><ele>380.6</ele><time>2026-04-18T14:50:34.002Z</time></trkpt><trkpt lat="43.412242241951986" lon="10.636669875438802"><ele>378.4</ele><time>2026-04-18T14:50:35.002Z</time></trkpt><trkpt lat="43.41230873831864" lon="10.636767149040722"><ele>376.2</ele><time>2026-04-18T14:50:36Z</time></trkpt><trkpt lat="43.412382311129164" lon="10.636872473209953"><ele>374.0</ele><time>2026-04-18T14:50:37Z</time></trkpt><trkpt lat="43.412466339622334" lon="10.636973705628401"><ele>373.0</ele><time>2026-04-18T14:50:38Z</time></trkpt><trkpt lat="43.412543989142314" lon="10.637091287069468"><ele>372.0</ele><time>2026-04-18T14:50:39Z</time></trkpt><trkpt lat="43.41261961492998" lon="10.637213225145585"><ele>371.0</ele><time>2026-04-18T14:50:40Z</time></trkpt><trkpt lat="43.4126966532496" lon="10.63733431235814"><ele>370.0</ele><time>2026-04-18T14:50:41Z</time></trkpt><trkpt lat="43.412777170001945" lon="10.637455265138824"><ele>370.0</ele><time>2026-04-18T14:50:42Z</time></trkpt><trkpt lat="43.41285345985197" lon="10.637573080923941"><ele>370.0</ele><time>2026-04-18T14:50:43Z</time></trkpt><trkpt lat="43.412919298033714" lon="10.637665573410018"><ele>370.0</ele><time>2026-04-18T14:50:44Z</time></trkpt><trkpt lat="43.412980998332436" lon="10.637734675793757"><ele>370.0</ele><time>2026-04-18T14:50:45Z</time></trkpt><trkpt lat="43.4130414150276" lon="10.637766602442026"><ele>370.0</ele><time>2026-04-18T14:50:46Z</time></trkpt><trkpt lat="43.41310914537365" lon="10.637778832272327"><ele>370.0</ele><time>2026-04-18T14:50:47Z</time></trkpt><trkpt lat="43.413217102406186" lon="10.637823458932289"><ele>367.8</ele><time>2026-04-18T14:50:49Z</time></trkpt><trkpt lat="43.41330693503332" lon="10.637848928986402"><ele>365.6</ele><time>2026-04-18T14:50:51Z</time></trkpt><trkpt lat="43.41338739878788" lon="10.637869223727593"><ele>363.4</ele><time>2026-04-18T14:50:53Z</time></trkpt><trkpt lat="43.41348260189237" lon="10.637914245542573"><ele>361.2</ele><time>2026-04-18T14:50:55Z</time></trkpt><trkpt lat="43.41360829909453" lon="10.637959812668633"><ele>359.0</ele><time>2026-04-18T14:50:57Z</time></trkpt><trkpt lat="43.41367253119515" lon="10.638000938269498"><ele>359.0</ele><time>2026-04-18T14:50:58Z</time></trkpt><trkpt lat="43.41373116640975" lon="10.638052214921501"><ele>359.0</ele><time>2026-04-18T14:50:59Z</time></trkpt><trkpt lat="43.41378851774789" lon="10.638113256492762"><ele>359.0</ele><time>2026-04-18T14:51:00Z</time></trkpt><trkpt lat="43.41384335195569" lon="10.638182699760684"><ele>359.0</ele><time>2026-04-18T14:51:01Z</time></trkpt><trkpt lat="43.41390668852111" lon="10.638250091455825"><ele>359.0</ele><time>2026-04-18T14:51:02Z</time></trkpt><trkpt lat="43.41398099162302" lon="10.638304628327885"><ele>359.0</ele><time>2026-04-18T14:51:03Z</time></trkpt><trkpt lat="43.41406535492" lon="10.638342665971598"><ele>360.0</ele><time>2026-04-18T14:51:04Z</time></trkpt><trkpt lat="43.414150858281936" lon="10.63838006106133"><ele>361.0</ele><time>2026-04-18T14:51:05Z</time></trkpt><trkpt lat="43.414233507401285" lon="10.638428578895216"><ele>362.0</ele><time>2026-04-18T14:51:06Z</time></trkpt><trkpt lat="43.41430838281399" lon="10.638494636929073"><ele>363.0</ele><time>2026-04-18T14:51:07Z</time></trkpt><trkpt lat="43.41436955924746" lon="10.638583226432301"><ele>364.0</ele><time>2026-04-18T14:51:08Z</time></trkpt><trkpt lat="43.41441637787145" lon="10.638680445127184"><ele>365.0</ele><time>2026-04-18T14:51:09Z</time></trkpt><trkpt lat="43.41446749622572" lon="10.638775196251192"><ele>363.8</ele><time>2026-04-18T14:51:10Z</time></trkpt><trkpt lat="43.41452967526842" lon="10.63885830692792"><ele>362.6</ele><time>2026-04-18T14:51:11Z</time></trkpt><trkpt lat="43.41460496253338" lon="10.63892290851512"><ele>361.4</ele><time>2026-04-18T14:51:12Z</time></trkpt><trkpt lat="43.41468569061817" lon="10.638983451143613"><ele>360.2</ele><time>2026-04-18T14:51:13Z</time></trkpt><trkpt lat="43.41477205753796" lon="10.63904295774014"><ele>359.0</ele><time>2026-04-18T14:51:14Z</time></trkpt><trkpt lat="43.414858792146696" lon="10.639097621542923"><ele>359.0</ele><time>2026-04-18T14:51:15Z</time></trkpt><trkpt lat="43.41494194450276" lon="10.639165042488289"><ele>359.0</ele><time>2026-04-18T14:51:16.001Z</time></trkpt><trkpt lat="43.41502333906143" lon="10.639232531242705"><ele>359.0</ele><time>2026-04-18T14:51:17.001Z</time></trkpt><trkpt lat="43.41510309719667" lon="10.639298725315557"><ele>359.0</ele><time>2026-04-18T14:51:18.001Z</time></trkpt><trkpt lat="43.41518133327178" lon="10.639367645443878"><ele>359.0</ele><time>2026-04-18T14:51:19.001Z</time></trkpt><trkpt lat="43.41525636684749" lon="10.639442722063977"><ele>360.0</ele><time>2026-04-18T14:51:20.001Z</time></trkpt><trkpt lat="43.41532548025431" lon="10.639522652020476"><ele>361.0</ele><time>2026-04-18T14:51:21.001Z</time></trkpt><trkpt lat="43.41538652243402" lon="10.639612258179216"><ele>362.0</ele><time>2026-04-18T14:51:22.001Z</time></trkpt><trkpt lat="43.41544522003566" lon="10.639697151295167"><ele>363.0</ele><time>2026-04-18T14:51:23.001Z</time></trkpt><trkpt lat="43.415505207241" lon="10.639774133038417"><ele>364.0</ele><time>2026-04-18T14:51:24.001Z</time></trkpt><trkpt lat="43.41556503978646" lon="10.639836127088822"><ele>365.0</ele><time>2026-04-18T14:51:25.001Z</time></trkpt><trkpt lat="43.41563029708158" lon="10.639885973253005"><ele>365.00000000000006</ele><time>2026-04-18T14:51:26.001Z</time></trkpt><trkpt lat="43.41569956655835" lon="10.639931713382207"><ele>365.0</ele><time>2026-04-18T14:51:27.001Z</time></trkpt><trkpt lat="43.41576653633951" lon="10.639979862781923"><ele>365.0</ele><time>2026-04-18T14:51:28.001Z</time></trkpt><trkpt lat="43.41582891019257" lon="10.640029556958936"><ele>365.0</ele><time>2026-04-18T14:51:29.001Z</time></trkpt><trkpt lat="43.41589157129618" lon="10.640076351215177"><ele>365.0</ele><time>2026-04-18T14:51:30.001Z</time></trkpt><trkpt lat="43.415959332654914" lon="10.64011723562802"><ele>365.00000000000006</ele><time>2026-04-18T14:51:31.001Z</time></trkpt><trkpt lat="43.41603416279962" lon="10.640149964042594"><ele>365.0</ele><time>2026-04-18T14:51:32.001Z</time></trkpt><trkpt lat="43.416107385539014" lon="10.640160056392956"><ele>365.0</ele><time>2026-04-18T14:51:33.001Z</time></trkpt><trkpt lat="43.416189160612696" lon="10.640177726212121"><ele>365.0</ele><time>2026-04-18T14:51:34.001Z</time></trkpt><trkpt lat="43.41626944298358" lon="10.640190083744585"><ele>365.0</ele><time>2026-04-18T14:51:35.001Z</time></trkpt><trkpt lat="43.41635059019782" lon="10.640201908373227"><ele>365.0</ele><time>2026-04-18T14:51:36.001Z</time></trkpt><trkpt lat="43.41642345177734" lon="10.640216166572161"><ele>365.0</ele><time>2026-04-18T14:51:37.001Z</time></trkpt><trkpt lat="43.41648572271512" lon="10.64023689580707"><ele>365.0</ele><time>2026-04-18T14:51:38.001Z</time></trkpt><trkpt lat="43.416551350819255" lon="10.640264080538783"><ele>367.0</ele><time>2026-04-18T14:51:39.001Z</time></trkpt><trkpt lat="43.41661100188926" lon="10.640300439743655"><ele>369.0</ele><time>2026-04-18T14:51:40.001Z</time></trkpt><trkpt lat="43.416667831173186" lon="10.640354129251635"><ele>371.0</ele><time>2026-04-18T14:51:41.001Z</time></trkpt><trkpt lat="43.41671835901255" lon="10.64042482407839"><ele>373.0</ele><time>2026-04-18T14:51:42.001Z</time></trkpt><trkpt lat="43.416771118766334" lon="10.640514113914355"><ele>375.0</ele><time>2026-04-18T14:51:43.001Z</time></trkpt><trkpt lat="43.41684146370468" lon="10.640607431764812"><ele>377.0</ele><time>2026-04-18T14:51:44.001Z</time></trkpt><trkpt lat="43.41692381397235" lon="10.640704536772194"><ele>377.0</ele><time>2026-04-18T14:51:45.001Z</time></trkpt><trkpt lat="43.417015757777264" lon="10.640807031354193"><ele>377.0</ele><time>2026-04-18T14:51:46.001Z</time></trkpt><trkpt lat="43.41710153273004" lon="10.64091291988126"><ele>377.0</ele><time>2026-04-18T14:51:47.001Z</time></trkpt><trkpt lat="43.41718056233352" lon="10.64101575331679"><ele>377.0</ele><time>2026-04-18T14:51:48.001Z</time></trkpt><trkpt lat="43.41725795943624" lon="10.641110254047206"><ele>377.0</ele><time>2026-04-18T14:51:49.001Z</time></trkpt><trkpt lat="43.417340121597356" lon="10.6411941324169"><ele>374.6</ele><time>2026-04-18T14:51:50.001Z</time></trkpt><trkpt lat="43.4174027868109" lon="10.641287617014871"><ele>372.20000000000005</ele><time>2026-04-18T14:51:51.001Z</time></trkpt><trkpt lat="43.41747659925982" lon="10.641371381722823"><ele>369.8</ele><time>2026-04-18T14:51:52.001Z</time></trkpt><trkpt lat="43.41755188945167" lon="10.64146650864202"><ele>367.4</ele><time>2026-04-18T14:51:53.001Z</time></trkpt><trkpt lat="43.41762232689725" lon="10.64155455292588"><ele>365.0</ele><time>2026-04-18T14:51:54.001Z</time></trkpt><trkpt lat="43.41769124480296" lon="10.641647082285429"><ele>365.0</ele><time>2026-04-18T14:51:55.001Z</time></trkpt><trkpt lat="43.4177629372" lon="10.641738989425475"><ele>365.0</ele><time>2026-04-18T14:51:56.001Z</time></trkpt><trkpt lat="43.417825370153786" lon="10.64184070949674"><ele>365.0</ele><time>2026-04-18T14:51:57.001Z</time></trkpt><trkpt lat="43.417886031728706" lon="10.641940351594664"><ele>365.0</ele><time>2026-04-18T14:51:58.002Z</time></trkpt><trkpt lat="43.41796217861508" lon="10.642002991839883"><ele>365.0</ele><time>2026-04-18T14:51:59.002Z</time></trkpt><trkpt lat="43.418031665215544" lon="10.642077551563268"><ele>365.5</ele><time>2026-04-18T14:52:00.002Z</time></trkpt><trkpt lat="43.418089876317474" lon="10.64216620395887"><ele>366.0</ele><time>2026-04-18T14:52:01.002Z</time></trkpt><trkpt lat="43.41816976270398" lon="10.642228268262004"><ele>366.5</ele><time>2026-04-18T14:52:02.002Z</time></trkpt><trkpt lat="43.418245562040134" lon="10.642292331030568"><ele>367.0</ele><time>2026-04-18T14:52:03.002Z</time></trkpt><trkpt lat="43.41830938962793" lon="10.642357870483766"><ele>367.5</ele><time>2026-04-18T14:52:04.002Z</time></trkpt><trkpt lat="43.418370243765395" lon="10.642429927100519"><ele>368.0</ele><time>2026-04-18T14:52:05.002Z</time></trkpt><trkpt lat="43.418430012267685" lon="10.642502385687752"><ele>368.0</ele><time>2026-04-18T14:52:06.002Z</time></trkpt><trkpt lat="43.418500371871176" lon="10.642562562768711"><ele>368.0</ele><time>2026-04-18T14:52:07.002Z</time></trkpt><trkpt lat="43.41857766799003" lon="10.642613167856483"><ele>368.0</ele><time>2026-04-18T14:52:08.002Z</time></trkpt><trkpt lat="43.418654509007396" lon="10.64265783497738"><ele>368.0</ele><time>2026-04-18T14:52:09.002Z</time></trkpt><trkpt lat="43.41873329828901" lon="10.6427154652411"><ele>368.0</ele><time>2026-04-18T14:52:10.002Z</time></trkpt><trkpt lat="43.41881251897521" lon="10.642771736356842"><ele>368.0</ele><time>2026-04-18T14:52:11.002Z</time></trkpt><trkpt lat="43.41888673206998" lon="10.6428298030197"><ele>369.33333333333337</ele><time>2026-04-18T14:52:12.002Z</time></trkpt><trkpt lat="43.41894909345604" lon="10.642892081554534"><ele>370.6666666666667</ele><time>2026-04-18T14:52:13.002Z</time></trkpt><trkpt lat="43.4190142824883" lon="10.642957508341775"><ele>372.0</ele><time>2026-04-18T14:52:14.002Z</time></trkpt><trkpt lat="43.41908879996853" lon="10.643023284722359"><ele>373.3333333333333</ele><time>2026-04-18T14:52:15.002Z</time></trkpt><trkpt lat="43.41916402191173" lon="10.643086348937898"><ele>374.66666666666663</ele><time>2026-04-18T14:52:16.002Z</time></trkpt><trkpt lat="43.41924359583321" lon="10.643142807058828"><ele>376.0</ele><time>2026-04-18T14:52:17.002Z</time></trkpt><trkpt lat="43.41932900833894" lon="10.643190936588388"><ele>376.0</ele><time>2026-04-18T14:52:18.002Z</time></trkpt><trkpt lat="43.41941105858715" lon="10.643232682627724"><ele>376.0</ele><time>2026-04-18T14:52:19.002Z</time></trkpt><trkpt lat="43.41949274595839" lon="10.643270951818344"><ele>376.0</ele><time>2026-04-18T14:52:20.002Z</time></trkpt><trkpt lat="43.41956084419225" lon="10.643308475145453"><ele>376.0</ele><time>2026-04-18T14:52:21.002Z</time></trkpt><trkpt lat="43.41962236506986" lon="10.643353294431916"><ele>376.0</ele><time>2026-04-18T14:52:22.002Z</time></trkpt><trkpt lat="43.419678432944785" lon="10.64341222740531"><ele>376.0</ele><time>2026-04-18T14:52:23.002Z</time></trkpt><trkpt lat="43.419728941950986" lon="10.643488472455742"><ele>376.66666666666663</ele><time>2026-04-18T14:52:24.002Z</time></trkpt><trkpt lat="43.41978230990121" lon="10.643579937798757"><ele>377.3333333333333</ele><time>2026-04-18T14:52:25.002Z</time></trkpt><trkpt lat="43.41982665860814" lon="10.64366937955974"><ele>378.0</ele><time>2026-04-18T14:52:26.002Z</time></trkpt><trkpt lat="43.41988148680911" lon="10.643754075448205"><ele>378.6666666666667</ele><time>2026-04-18T14:52:27.002Z</time></trkpt><trkpt lat="43.41993760694412" lon="10.643849881734198"><ele>379.33333333333337</ele><time>2026-04-18T14:52:28.002Z</time></trkpt><trkpt lat="43.42000120158595" lon="10.64394551295422"><ele>380.0</ele><time>2026-04-18T14:52:29.002Z</time></trkpt><trkpt lat="43.420069271910485" lon="10.644041332614774"><ele>380.0</ele><time>2026-04-18T14:52:30.002Z</time></trkpt><trkpt lat="43.420139977537545" lon="10.644131729066316"><ele>380.0</ele><time>2026-04-18T14:52:31.002Z</time></trkpt><trkpt lat="43.42021139739394" lon="10.644229042497857"><ele>380.0</ele><time>2026-04-18T14:52:32.002Z</time></trkpt><trkpt lat="43.42028006880482" lon="10.644316362055768"><ele>380.0</ele><time>2026-04-18T14:52:33.002Z</time></trkpt><trkpt lat="43.42035797997556" lon="10.644395753992441"><ele>380.0</ele><time>2026-04-18T14:52:34.002Z</time></trkpt><trkpt lat="43.42044615410378" lon="10.644471327122515"><ele>378.6</ele><time>2026-04-18T14:52:35.002Z</time></trkpt><trkpt lat="43.420528771059466" lon="10.6445415256488"><ele>377.2</ele><time>2026-04-18T14:52:36.002Z</time></trkpt><trkpt lat="43.4206134142397" lon="10.644609864916646"><ele>375.79999999999995</ele><time>2026-04-18T14:52:37.002Z</time></trkpt><trkpt lat="43.420702789097916" lon="10.644670598497655"><ele>374.4</ele><time>2026-04-18T14:52:38.002Z</time></trkpt><trkpt lat="43.42078537865607" lon="10.644738214003073"><ele>373.0</ele><time>2026-04-18T14:52:39.002Z</time></trkpt><trkpt lat="43.420862270368715" lon="10.644812948744972"><ele>373.0</ele><time>2026-04-18T14:52:40.002Z</time></trkpt><trkpt lat="43.42093521604205" lon="10.644902806539491"><ele>373.0</ele><time>2026-04-18T14:52:41.002Z</time></trkpt><trkpt lat="43.421004990676764" lon="10.64498274781289"><ele>373.0</ele><time>2026-04-18T14:52:42Z</time></trkpt><trkpt lat="43.421080403767476" lon="10.645065787475279"><ele>373.0</ele><time>2026-04-18T14:52:43Z</time></trkpt><trkpt lat="43.421161913751845" lon="10.64515157822052"><ele>373.0</ele><time>2026-04-18T14:52:44Z</time></trkpt><trkpt lat="43.42125249666647" lon="10.645241677479598"><ele>371.79999999999995</ele><time>2026-04-18T14:52:45Z</time></trkpt><trkpt lat="43.42133919048987" lon="10.64532863646909"><ele>370.6</ele><time>2026-04-18T14:52:46Z</time></trkpt><trkpt lat="43.42142576003664" lon="10.64541216536896"><ele>369.4</ele><time>2026-04-18T14:52:47Z</time></trkpt><trkpt lat="43.42150110513753" lon="10.645487023603737"><ele>368.20000000000005</ele><time>2026-04-18T14:52:48Z</time></trkpt><trkpt lat="43.42157962024347" lon="10.645562296738824"><ele>367.0</ele><time>2026-04-18T14:52:49Z</time></trkpt><trkpt lat="43.42165851823108" lon="10.645623203681462"><ele>367.0</ele><time>2026-04-18T14:52:50Z</time></trkpt><trkpt lat="43.421734872967" lon="10.645682619682608"><ele>367.0</ele><time>2026-04-18T14:52:51Z</time></trkpt><trkpt lat="43.421812010849685" lon="10.645732673621351"><ele>367.0</ele><time>2026-04-18T14:52:52Z</time></trkpt><trkpt lat="43.42189240056968" lon="10.645784030842686"><ele>367.0</ele><time>2026-04-18T14:52:53Z</time></trkpt><trkpt lat="43.421967480930086" lon="10.645835152510573"><ele>367.0</ele><time>2026-04-18T14:52:54Z</time></trkpt><trkpt lat="43.42205437956405" lon="10.645871019272748"><ele>367.0</ele><time>2026-04-18T14:52:55Z</time></trkpt><trkpt lat="43.42214127789577" lon="10.645926989983538"><ele>365.6</ele><time>2026-04-18T14:52:56Z</time></trkpt><trkpt lat="43.42223327651464" lon="10.645966278711342"><ele>364.20000000000005</ele><time>2026-04-18T14:52:57Z</time></trkpt><trkpt lat="43.422325323006156" lon="10.645995955975131"><ele>362.8</ele><time>2026-04-18T14:52:58Z</time></trkpt><trkpt lat="43.42240936795547" lon="10.64604676157496"><ele>361.4</ele><time>2026-04-18T14:52:59Z</time></trkpt><trkpt lat="43.42249325822398" lon="10.646102056130434"><ele>360.0</ele><time>2026-04-18T14:53:00Z</time></trkpt><trkpt lat="43.422576711028604" lon="10.646172871704312"><ele>357.2</ele><time>2026-04-18T14:53:01Z</time></trkpt><trkpt lat="43.422671101369225" lon="10.646210549598022"><ele>354.4</ele><time>2026-04-18T14:53:02Z</time></trkpt><trkpt lat="43.422760528689295" lon="10.646269215372868"><ele>351.6</ele><time>2026-04-18T14:53:03Z</time></trkpt><trkpt lat="43.42284918163369" lon="10.646328014349248"><ele>348.8</ele><time>2026-04-18T14:53:04Z</time></trkpt><trkpt lat="43.422932951757964" lon="10.646384093466505"><ele>346.0</ele><time>2026-04-18T14:53:05Z</time></trkpt><trkpt lat="43.42301732654978" lon="10.646460554416404"><ele>346.0</ele><time>2026-04-18T14:53:06Z</time></trkpt><trkpt lat="43.42311048250181" lon="10.64651093631622"><ele>346.0</ele><time>2026-04-18T14:53:07Z</time></trkpt><trkpt lat="43.423199865405934" lon="10.64657186443789"><ele>346.0</ele><time>2026-04-18T14:53:08Z</time></trkpt><trkpt lat="43.423292248711114" lon="10.646630231130288"><ele>346.0</ele><time>2026-04-18T14:53:09Z</time></trkpt><trkpt lat="43.423387330117386" lon="10.64668596222631"><ele>346.0</ele><time>2026-04-18T14:53:10Z</time></trkpt><trkpt lat="43.42348646951325" lon="10.646738546466507"><ele>346.0</ele><time>2026-04-18T14:53:11Z</time></trkpt><trkpt lat="43.42358836504825" lon="10.646790943737896"><ele>346.0</ele><time>2026-04-18T14:53:12Z</time></trkpt><trkpt lat="43.42368965531015" lon="10.646839547203424"><ele>346.0</ele><time>2026-04-18T14:53:13Z</time></trkpt><trkpt lat="43.42379389834533" lon="10.646880755478843"><ele>346.0</ele><time>2026-04-18T14:53:14.001Z</time></trkpt><trkpt lat="43.42389610638233" lon="10.646925362629494"><ele>346.0</ele><time>2026-04-18T14:53:15.001Z</time></trkpt><trkpt lat="43.42398864523562" lon="10.646969602201906"><ele>340.8</ele><time>2026-04-18T14:53:16.001Z</time></trkpt><trkpt lat="43.42406482239358" lon="10.647045714427918"><ele>335.6</ele><time>2026-04-18T14:53:17.001Z</time></trkpt><trkpt lat="43.42415079777801" lon="10.647112822698315"><ele>330.4</ele><time>2026-04-18T14:53:18.001Z</time></trkpt><trkpt lat="43.42423973037963" lon="10.647177858444897"><ele>325.2</ele><time>2026-04-18T14:53:19.001Z</time></trkpt><trkpt lat="43.4243260350889" lon="10.647257673614865"><ele>320.0</ele><time>2026-04-18T14:53:20.001Z</time></trkpt><trkpt lat="43.424407844680324" lon="10.647323202976066"><ele>320.0</ele><time>2026-04-18T14:53:21.001Z</time></trkpt><trkpt lat="43.424487225798536" lon="10.647413012618841"><ele>320.0</ele><time>2026-04-18T14:53:22.001Z</time></trkpt><trkpt lat="43.424567629365605" lon="10.647511045233127"><ele>320.0</ele><time>2026-04-18T14:53:23.001Z</time></trkpt><trkpt lat="43.424641070438234" lon="10.647593253780915"><ele>320.0</ele><time>2026-04-18T14:53:24.001Z</time></trkpt><trkpt lat="43.42472754139188" lon="10.647685875334211"><ele>320.0</ele><time>2026-04-18T14:53:25.001Z</time></trkpt><trkpt lat="43.42480110926796" lon="10.647792793616388"><ele>317.2</ele><time>2026-04-18T14:53:26.001Z</time></trkpt><trkpt lat="43.42486212581512" lon="10.647910322765426"><ele>314.4</ele><time>2026-04-18T14:53:27.001Z</time></trkpt><trkpt lat="43.42489597106249" lon="10.648031142607962"><ele>311.6</ele><time>2026-04-18T14:53:28.001Z</time></trkpt><trkpt lat="43.424922670683756" lon="10.648197573753638"><ele>308.8</ele><time>2026-04-18T14:53:29.001Z</time></trkpt><trkpt lat="43.424923525986244" lon="10.648350116954488"><ele>306.0</ele><time>2026-04-18T14:53:30.001Z</time></trkpt><trkpt lat="43.42492863919752" lon="10.64849688527043"><ele>305.6</ele><time>2026-04-18T14:53:31.001Z</time></trkpt><trkpt lat="43.424931095551834" lon="10.648635216038635"><ele>305.20000000000005</ele><time>2026-04-18T14:53:32.001Z</time></trkpt><trkpt lat="43.42494461057608" lon="10.648764124156845"><ele>304.79999999999995</ele><time>2026-04-18T14:53:33.001Z</time></trkpt><trkpt lat="43.424954571322786" lon="10.648890160389618"><ele>304.4</ele><time>2026-04-18T14:53:34.001Z</time></trkpt><trkpt lat="43.424980413804136" lon="10.649016589475194"><ele>304.0</ele><time>2026-04-18T14:53:35.001Z</time></trkpt><trkpt lat="43.425030545065226" lon="10.649139777948916"><ele>304.0</ele><time>2026-04-18T14:53:36.001Z</time></trkpt><trkpt lat="43.42509577368775" lon="10.64924983886529"><ele>304.0</ele><time>2026-04-18T14:53:37.001Z</time></trkpt><trkpt lat="43.4251736253975" lon="10.649346850541011"><ele>304.0</ele><time>2026-04-18T14:53:38.001Z</time></trkpt><trkpt lat="43.42525317795149" lon="10.649435822002438"><ele>304.0</ele><time>2026-04-18T14:53:39.001Z</time></trkpt><trkpt lat="43.425327442963116" lon="10.649518832236978"><ele>304.0</ele><time>2026-04-18T14:53:40.001Z</time></trkpt><trkpt lat="43.42538406186681" lon="10.649605500884567"><ele>303.4</ele><time>2026-04-18T14:53:41.001Z</time></trkpt><trkpt lat="43.42541998165073" lon="10.649723082673093"><ele>302.79999999999995</ele><time>2026-04-18T14:53:42.001Z</time></trkpt><trkpt lat="43.42544280892209" lon="10.64985555458342"><ele>302.20000000000005</ele><time>2026-04-18T14:53:43.001Z</time></trkpt><trkpt lat="43.42544171797184" lon="10.649988764156824"><ele>301.6</ele><time>2026-04-18T14:53:44.001Z</time></trkpt><trkpt lat="43.42539986021729" lon="10.650102613031114"><ele>301.0</ele><time>2026-04-18T14:53:45.001Z</time></trkpt><trkpt lat="43.42537083088969" lon="10.650238409452925"><ele>298.2</ele><time>2026-04-18T14:53:46.001Z</time></trkpt><trkpt lat="43.42536860928101" lon="10.650373414076231"><ele>295.40000000000003</ele><time>2026-04-18T14:53:47.001Z</time></trkpt><trkpt lat="43.425356318405356" lon="10.650490598845042"><ele>292.6</ele><time>2026-04-18T14:53:48.001Z</time></trkpt><trkpt lat="43.42535687059848" lon="10.65062094452756"><ele>289.8</ele><time>2026-04-18T14:53:49.001Z</time></trkpt><trkpt lat="43.425366758028616" lon="10.650751442717345"><ele>287.0</ele><time>2026-04-18T14:53:50.001Z</time></trkpt><trkpt lat="43.42537625634241" lon="10.650892678886477"><ele>287.0</ele><time>2026-04-18T14:53:51.001Z</time></trkpt><trkpt lat="43.42539973944182" lon="10.651023819966015"><ele>287.0</ele><time>2026-04-18T14:53:52.001Z</time></trkpt><trkpt lat="43.4254420096144" lon="10.651133602877678"><ele>287.0</ele><time>2026-04-18T14:53:53.001Z</time></trkpt><trkpt lat="43.42547538717538" lon="10.651228631393383"><ele>287.0</ele><time>2026-04-18T14:53:54.001Z</time></trkpt><trkpt lat="43.42552710915778" lon="10.65129473858007"><ele>287.0</ele><time>2026-04-18T14:53:55.001Z</time></trkpt><trkpt lat="43.425572521964796" lon="10.651362624231625"><ele>287.0</ele><time>2026-04-18T14:53:56.001Z</time></trkpt><trkpt lat="43.425661493212814" lon="10.651439278958094"><ele>282.5</ele><time>2026-04-18T14:53:58.001Z</time></trkpt><trkpt lat="43.42577202706461" lon="10.65151690330256"><ele>278.0</ele><time>2026-04-18T14:54:00.002Z</time></trkpt><trkpt lat="43.42587968434324" lon="10.651568099241059"><ele>273.5</ele><time>2026-04-18T14:54:02.002Z</time></trkpt><trkpt lat="43.42597974285463" lon="10.651625376621135"><ele>269.0</ele><time>2026-04-18T14:54:04.002Z</time></trkpt><trkpt lat="43.42609741078969" lon="10.651701448577438"><ele>269.0</ele><time>2026-04-18T14:54:06.002Z</time></trkpt><trkpt lat="43.42615521995553" lon="10.651752933788764"><ele>269.0</ele><time>2026-04-18T14:54:07.002Z</time></trkpt><trkpt lat="43.426206923251115" lon="10.651825240922745"><ele>269.0</ele><time>2026-04-18T14:54:08.002Z</time></trkpt><trkpt lat="43.42625953782586" lon="10.651905900805463"><ele>269.0</ele><time>2026-04-18T14:54:09.002Z</time></trkpt><trkpt lat="43.42630609846437" lon="10.65199337683493"><ele>269.0</ele><time>2026-04-18T14:54:10.002Z</time></trkpt><trkpt lat="43.42635871037595" lon="10.652079820423658"><ele>269.0</ele><time>2026-04-18T14:54:11.002Z</time></trkpt><trkpt lat="43.4264289144953" lon="10.652158920106872"><ele>266.1666666666667</ele><time>2026-04-18T14:54:12.002Z</time></trkpt><trkpt lat="43.42649612042315" lon="10.652224223091583"><ele>263.33333333333337</ele><time>2026-04-18T14:54:13.002Z</time></trkpt><trkpt lat="43.42657017900837" lon="10.652286173134454"><ele>260.5</ele><time>2026-04-18T14:54:14.002Z</time></trkpt><trkpt lat="43.42664837327429" lon="10.652339546232353"><ele>257.6666666666667</ele><time>2026-04-18T14:54:15.002Z</time></trkpt><trkpt lat="43.42673326130938" lon="10.652363492442664"><ele>254.83333333333334</ele><time>2026-04-18T14:54:16.002Z</time></trkpt><trkpt lat="43.426819655794255" lon="10.652377526871856"><ele>252.0</ele><time>2026-04-18T14:54:17.002Z</time></trkpt><trkpt lat="43.426903824729486" lon="10.652393554701916"><ele>252.0</ele><time>2026-04-18T14:54:18.002Z</time></trkpt><trkpt lat="43.426987112011254" lon="10.652414935336424"><ele>252.0</ele><time>2026-04-18T14:54:19.002Z</time></trkpt><trkpt lat="43.42706658559572" lon="10.65245098023826"><ele>252.0</ele><time>2026-04-18T14:54:20.002Z</time></trkpt><trkpt lat="43.42714602644886" lon="10.65248719072517"><ele>252.0</ele><time>2026-04-18T14:54:21.002Z</time></trkpt><trkpt lat="43.42722487947651" lon="10.65252202053483"><ele>252.0</ele><time>2026-04-18T14:54:22.002Z</time></trkpt><trkpt lat="43.4273109324196" lon="10.652558226759218"><ele>252.0</ele><time>2026-04-18T14:54:23.002Z</time></trkpt><trkpt lat="43.42738983695216" lon="10.652613974060666"><ele>250.33333333333334</ele><time>2026-04-18T14:54:24.002Z</time></trkpt><trkpt lat="43.427465854527235" lon="10.65266835664368"><ele>248.66666666666669</ele><time>2026-04-18T14:54:25.002Z</time></trkpt><trkpt lat="43.42754297286267" lon="10.652746399547075"><ele>247.0</ele><time>2026-04-18T14:54:26.002Z</time></trkpt><trkpt lat="43.42759674337763" lon="10.652844657232045"><ele>245.33333333333334</ele><time>2026-04-18T14:54:27.002Z</time></trkpt><trkpt lat="43.42763417534802" lon="10.652941782653572"><ele>243.66666666666669</ele><time>2026-04-18T14:54:28.002Z</time></trkpt><trkpt lat="43.42765563284926" lon="10.653028006926279"><ele>242.0</ele><time>2026-04-18T14:54:29.002Z</time></trkpt><trkpt lat="43.42766421650324" lon="10.65312807758537"><ele>240.66666666666669</ele><time>2026-04-18T14:54:30.002Z</time></trkpt><trkpt lat="43.42766076447105" lon="10.65323716559765"><ele>239.33333333333334</ele><time>2026-04-18T14:54:31.002Z</time></trkpt><trkpt lat="43.427646586370805" lon="10.653347863930348"><ele>238.0</ele><time>2026-04-18T14:54:32.002Z</time></trkpt><trkpt lat="43.42760200681824" lon="10.653443314787895"><ele>236.66666666666669</ele><time>2026-04-18T14:54:33.002Z</time></trkpt><trkpt lat="43.42755596544172" lon="10.653540135954742"><ele>235.33333333333334</ele><time>2026-04-18T14:54:34.002Z</time></trkpt><trkpt lat="43.427504405086296" lon="10.653618028094918"><ele>234.0</ele><time>2026-04-18T14:54:35.002Z</time></trkpt><trkpt lat="43.42744607778337" lon="10.653699639868133"><ele>232.2857142857143</ele><time>2026-04-18T14:54:36.002Z</time></trkpt><trkpt lat="43.42739030923751" lon="10.653781852303155"><ele>230.5714285714286</ele><time>2026-04-18T14:54:37.002Z</time></trkpt><trkpt lat="43.427338467972135" lon="10.653861574655993"><ele>228.85714285714286</ele><time>2026-04-18T14:54:38.002Z</time></trkpt><trkpt lat="43.42729295695996" lon="10.653944464763567"><ele>227.14285714285717</ele><time>2026-04-18T14:54:39.002Z</time></trkpt><trkpt lat="43.427255177867416" lon="10.65401835984007"><ele>225.42857142857144</ele><time>2026-04-18T14:54:40.002Z</time></trkpt><trkpt lat="43.42723201525591" lon="10.654103418939869"><ele>223.71428571428572</ele><time>2026-04-18T14:54:41.002Z</time></trkpt><trkpt lat="43.427205538230915" lon="10.654187666848834"><ele>222.0</ele><time>2026-04-18T14:54:42.002Z</time></trkpt><trkpt lat="43.427195691194726" lon="10.654277049643989"><ele>222.0</ele><time>2026-04-18T14:54:43.002Z</time></trkpt><trkpt lat="43.4271966326463" lon="10.654373015065612"><ele>222.0</ele><time>2026-04-18T14:54:44.003Z</time></trkpt><trkpt lat="43.427206020635694" lon="10.654472427586613"><ele>222.0</ele><time>2026-04-18T14:54:45.003Z</time></trkpt><trkpt lat="43.42722603729859" lon="10.654568937001196"><ele>222.0</ele><time>2026-04-18T14:54:46.003Z</time></trkpt><trkpt lat="43.42726282853251" lon="10.654663956390776"><ele>222.0</ele><time>2026-04-18T14:54:47.003Z</time></trkpt><trkpt lat="43.42731750924394" lon="10.654752419404113"><ele>222.0</ele><time>2026-04-18T14:54:48Z</time></trkpt><trkpt lat="43.427385887127684" lon="10.65481784263501"><ele>220.0</ele><time>2026-04-18T14:54:49Z</time></trkpt><trkpt lat="43.42746540164878" lon="10.654865226368905"><ele>218.0</ele><time>2026-04-18T14:54:50Z</time></trkpt><trkpt lat="43.42754274266472" lon="10.654912902082343"><ele>216.0</ele><time>2026-04-18T14:54:51Z</time></trkpt><trkpt lat="43.4276201518683" lon="10.654955391527542"><ele>214.0</ele><time>2026-04-18T14:54:52Z</time></trkpt><trkpt lat="43.42769840038389" lon="10.654991966552464"><ele>212.0</ele><time>2026-04-18T14:54:53Z</time></trkpt><trkpt lat="43.4277735572748" lon="10.655029405628472"><ele>210.0</ele><time>2026-04-18T14:54:54Z</time></trkpt><trkpt lat="43.42785572655926" lon="10.655079369803957"><ele>210.0</ele><time>2026-04-18T14:54:55Z</time></trkpt><trkpt lat="43.42792954165203" lon="10.655117644211677"><ele>210.0</ele><time>2026-04-18T14:54:56Z</time></trkpt><trkpt lat="43.428000216963625" lon="10.65514727825965"><ele>210.0</ele><time>2026-04-18T14:54:57Z</time></trkpt><trkpt lat="43.428092271276974" lon="10.655209215288702"><ele>210.0</ele><time>2026-04-18T14:54:58Z</time></trkpt><trkpt lat="43.42817223127607" lon="10.65530512809485"><ele>210.0</ele><time>2026-04-18T14:54:59Z</time></trkpt><trkpt lat="43.42826164770116" lon="10.655361044792823"><ele>206.8</ele><time>2026-04-18T14:55:00Z</time></trkpt><trkpt lat="43.428342576404" lon="10.65543426344667"><ele>203.6</ele><time>2026-04-18T14:55:01Z</time></trkpt><trkpt lat="43.42841593849424" lon="10.655510141975645"><ele>200.39999999999998</ele><time>2026-04-18T14:55:02Z</time></trkpt><trkpt lat="43.428486003852655" lon="10.655603713806427"><ele>197.2</ele><time>2026-04-18T14:55:03Z</time></trkpt><trkpt lat="43.428527238634565" lon="10.655723194519215"><ele>194.0</ele><time>2026-04-18T14:55:04Z</time></trkpt><trkpt lat="43.428578889516025" lon="10.655828453224736"><ele>194.00000000000003</ele><time>2026-04-18T14:55:05Z</time></trkpt><trkpt lat="43.42864618938045" lon="10.65591620626367"><ele>194.0</ele><time>2026-04-18T14:55:06Z</time></trkpt><trkpt lat="43.42869583117122" lon="10.656006037547462"><ele>194.0</ele><time>2026-04-18T14:55:07Z</time></trkpt><trkpt lat="43.42875984518674" lon="10.656082652263501"><ele>194.0</ele><time>2026-04-18T14:55:08Z</time></trkpt><trkpt lat="43.42883473945819" lon="10.656149816959363"><ele>194.00000000000003</ele><time>2026-04-18T14:55:09Z</time></trkpt><trkpt lat="43.42891810826539" lon="10.656203920928206"><ele>194.0</ele><time>2026-04-18T14:55:10Z</time></trkpt><trkpt lat="43.42901201547795" lon="10.656233187628558"><ele>192.0</ele><time>2026-04-18T14:55:11Z</time></trkpt><trkpt lat="43.429106081315" lon="10.656252348854887"><ele>190.0</ele><time>2026-04-18T14:55:12Z</time></trkpt><trkpt lat="43.42919158750636" lon="10.656286815743048"><ele>188.0</ele><time>2026-04-18T14:55:13Z</time></trkpt><trkpt lat="43.429263391421" lon="10.656331395174218"><ele>186.0</ele><time>2026-04-18T14:55:14.001Z</time></trkpt><trkpt lat="43.429348053585535" lon="10.656445204922635"><ele>184.0</ele><time>2026-04-18T14:55:16.001Z</time></trkpt><trkpt lat="43.429389033863" lon="10.656541254452089"><ele>184.0</ele><time>2026-04-18T14:55:18.001Z</time></trkpt><trkpt lat="43.42940186164376" lon="10.656641860253657"><ele>184.0</ele><time>2026-04-18T14:55:21.001Z</time></trkpt><trkpt lat="43.4294765775142" lon="10.656654404443568"><ele>184.0</ele><time>2026-04-18T14:55:22.001Z</time></trkpt><trkpt lat="43.42958411742739" lon="10.656721017858313"><ele>184.0</ele><time>2026-04-18T14:55:24.001Z</time></trkpt><trkpt lat="43.429645314828846" lon="10.656754003925961"><ele>184.0</ele><time>2026-04-18T14:55:25.001Z</time></trkpt><trkpt lat="43.42970934707156" lon="10.656788490607221"><ele>184.0</ele><time>2026-04-18T14:55:26.001Z</time></trkpt><trkpt lat="43.42977988203883" lon="10.656828976653667"><ele>184.0</ele><time>2026-04-18T14:55:27.001Z</time></trkpt><trkpt lat="43.42985765500897" lon="10.65687267661256"><ele>184.0</ele><time>2026-04-18T14:55:28.001Z</time></trkpt><trkpt lat="43.42993482963119" lon="10.656923262953748"><ele>184.0</ele><time>2026-04-18T14:55:29.001Z</time></trkpt><trkpt lat="43.430018223698106" lon="10.656979573620703"><ele>184.0</ele><time>2026-04-18T14:55:30.001Z</time></trkpt><trkpt lat="43.43010621775863" lon="10.65704055308509"><ele>184.0</ele><time>2026-04-18T14:55:31.001Z</time></trkpt><trkpt lat="43.43019649896854" lon="10.657101729875915"><ele>183.75</ele><time>2026-04-18T14:55:32.001Z</time></trkpt><trkpt lat="43.43029272527864" lon="10.657173027474766"><ele>183.5</ele><time>2026-04-18T14:55:33.001Z</time></trkpt><trkpt lat="43.43039840907192" lon="10.657238456806272"><ele>183.25</ele><time>2026-04-18T14:55:34.001Z</time></trkpt><trkpt lat="43.430506493610565" lon="10.657310895494927"><ele>183.0</ele><time>2026-04-18T14:55:35.001Z</time></trkpt><trkpt lat="43.430616503447595" lon="10.657384683753287"><ele>182.75</ele><time>2026-04-18T14:55:36.001Z</time></trkpt><trkpt lat="43.43072761696234" lon="10.657457467375727"><ele>182.5</ele><time>2026-04-18T14:55:37.001Z</time></trkpt><trkpt lat="43.4308417772862" lon="10.657533879457407"><ele>182.25</ele><time>2026-04-18T14:55:38.001Z</time></trkpt><trkpt lat="43.430959629112266" lon="10.657610491840153"><ele>182.0</ele><time>2026-04-18T14:55:39.001Z</time></trkpt><trkpt lat="43.431079197890796" lon="10.657687709089792"><ele>182.0</ele><time>2026-04-18T14:55:40.001Z</time></trkpt><trkpt lat="43.43119918562538" lon="10.657769243605559"><ele>182.0</ele><time>2026-04-18T14:55:41.001Z</time></trkpt><trkpt lat="43.43132570987028" lon="10.657855659129511"><ele>182.0</ele><time>2026-04-18T14:55:42.001Z</time></trkpt><trkpt lat="43.431448760537215" lon="10.657940213647347"><ele>182.0</ele><time>2026-04-18T14:55:43.001Z</time></trkpt><trkpt lat="43.43157218103918" lon="10.658026103080008"><ele>181.75</ele><time>2026-04-18T14:55:44.001Z</time></trkpt><trkpt lat="43.431698726362804" lon="10.65810668853591"><ele>181.5</ele><time>2026-04-18T14:55:45.001Z</time></trkpt><trkpt lat="43.43182270053518" lon="10.658193558340436"><ele>181.25</ele><time>2026-04-18T14:55:46.001Z</time></trkpt><trkpt lat="43.43194689896021" lon="10.65827920373762"><ele>181.0</ele><time>2026-04-18T14:55:47.001Z</time></trkpt><trkpt lat="43.43207156498642" lon="10.658352206633984"><ele>180.75</ele><time>2026-04-18T14:55:48.001Z</time></trkpt><trkpt lat="43.432195911511755" lon="10.658435173419939"><ele>180.5</ele><time>2026-04-18T14:55:49.001Z</time></trkpt><trkpt lat="43.43232204956476" lon="10.658523767044887"><ele>180.25</ele><time>2026-04-18T14:55:50.001Z</time></trkpt><trkpt lat="43.43244010472559" lon="10.65860651774715"><ele>180.0</ele><time>2026-04-18T14:55:51.001Z</time></trkpt><trkpt lat="43.432560392590986" lon="10.65869335434492"><ele>179.5</ele><time>2026-04-18T14:55:52.001Z</time></trkpt><trkpt lat="43.432677027128406" lon="10.658772847541595"><ele>179.0</ele><time>2026-04-18T14:55:53.001Z</time></trkpt><trkpt lat="43.43278794250161" lon="10.658850214298816"><ele>178.5</ele><time>2026-04-18T14:55:54.001Z</time></trkpt><trkpt lat="43.432888222827245" lon="10.658938352907525"><ele>178.0</ele><time>2026-04-18T14:55:55.001Z</time></trkpt><trkpt lat="43.432969665637636" lon="10.65905434437741"><ele>177.8</ele><time>2026-04-18T14:55:56.001Z</time></trkpt><trkpt lat="43.433039046526325" lon="10.659181825859529"><ele>177.60000000000002</ele><time>2026-04-18T14:55:57.001Z</time></trkpt><trkpt lat="43.43310061308962" lon="10.659310108676511"><ele>177.39999999999998</ele><time>2026-04-18T14:55:58.001Z</time></trkpt><trkpt lat="43.43315978298518" lon="10.659433277904043"><ele>177.2</ele><time>2026-04-18T14:55:59.001Z</time></trkpt><trkpt lat="43.43322136348178" lon="10.65954437053929"><ele>177.0</ele><time>2026-04-18T14:56:00.001Z</time></trkpt><trkpt lat="43.43330048519918" lon="10.659631528885292"><ele>177.0</ele><time>2026-04-18T14:56:01.001Z</time></trkpt><trkpt lat="43.43339910103305" lon="10.659699194930399"><ele>177.0</ele><time>2026-04-18T14:56:02.002Z</time></trkpt><trkpt lat="43.43350839629427" lon="10.659741932174564"><ele>177.0</ele><time>2026-04-18T14:56:03.002Z</time></trkpt><trkpt lat="43.43362650707318" lon="10.659771949699417"><ele>177.0</ele><time>2026-04-18T14:56:04.002Z</time></trkpt><trkpt lat="43.433745150475104" lon="10.65980655331322"><ele>177.75</ele><time>2026-04-18T14:56:05.002Z</time></trkpt><trkpt lat="43.43386638284249" lon="10.659844769285044"><ele>178.5</ele><time>2026-04-18T14:56:06.002Z</time></trkpt><trkpt lat="43.4339911495212" lon="10.65988138316059"><ele>179.25</ele><time>2026-04-18T14:56:07.002Z</time></trkpt><trkpt lat="43.434116389696726" lon="10.659915353643754"><ele>180.0</ele><time>2026-04-18T14:56:08.002Z</time></trkpt><trkpt lat="43.434243369481095" lon="10.659964281450074"><ele>180.0</ele><time>2026-04-18T14:56:09.002Z</time></trkpt><trkpt lat="43.43436984498122" lon="10.660013519277479"><ele>180.0</ele><time>2026-04-18T14:56:10.002Z</time></trkpt><trkpt lat="43.43449472979606" lon="10.660072177318733"><ele>180.0</ele><time>2026-04-18T14:56:11.002Z</time></trkpt><trkpt lat="43.43461891527548" lon="10.660127317824363"><ele>180.0</ele><time>2026-04-18T14:56:12.002Z</time></trkpt><trkpt lat="43.43473665316653" lon="10.660195964882275"><ele>180.25</ele><time>2026-04-18T14:56:13.002Z</time></trkpt><trkpt lat="43.4348499233029" lon="10.66026768452991"><ele>180.5</ele><time>2026-04-18T14:56:14.002Z</time></trkpt><trkpt lat="43.434967424569805" lon="10.660349190145618"><ele>180.75</ele><time>2026-04-18T14:56:15.002Z</time></trkpt><trkpt lat="43.435080795469794" lon="10.660432800035329"><ele>181.0</ele><time>2026-04-18T14:56:16.002Z</time></trkpt><trkpt lat="43.435198122573745" lon="10.660520909315359"><ele>180.0</ele><time>2026-04-18T14:56:17.002Z</time></trkpt><trkpt lat="43.435314286786436" lon="10.66061623147739"><ele>179.0</ele><time>2026-04-18T14:56:18.002Z</time></trkpt><trkpt lat="43.43543420066013" lon="10.660708804095595"><ele>178.0</ele><time>2026-04-18T14:56:19.002Z</time></trkpt><trkpt lat="43.43555167012953" lon="10.66079911295246"><ele>177.0</ele><time>2026-04-18T14:56:20.002Z</time></trkpt><trkpt lat="43.43567109509335" lon="10.660883481071615"><ele>177.0</ele><time>2026-04-18T14:56:21.002Z</time></trkpt><trkpt lat="43.43579217113145" lon="10.66097583419868"><ele>177.0</ele><time>2026-04-18T14:56:22.002Z</time></trkpt><trkpt lat="43.43591211182745" lon="10.661065689956402"><ele>177.0</ele><time>2026-04-18T14:56:23.002Z</time></trkpt><trkpt lat="43.43603374345673" lon="10.661154237414376"><ele>177.0</ele><time>2026-04-18T14:56:24.002Z</time></trkpt><trkpt lat="43.43615261531072" lon="10.661244021562984"><ele>175.75</ele><time>2026-04-18T14:56:25.002Z</time></trkpt><trkpt lat="43.436274745846994" lon="10.661337193975035"><ele>174.5</ele><time>2026-04-18T14:56:26.002Z</time></trkpt><trkpt lat="43.43640215429966" lon="10.661428350814013"><ele>173.25</ele><time>2026-04-18T14:56:27.002Z</time></trkpt><trkpt lat="43.43652352653315" lon="10.661519647472588"><ele>172.0</ele><time>2026-04-18T14:56:28.002Z</time></trkpt><trkpt lat="43.436640347879816" lon="10.66160721332233"><ele>172.0</ele><time>2026-04-18T14:56:29.002Z</time></trkpt><trkpt lat="43.43676426545179" lon="10.661692785569263"><ele>172.0</ele><time>2026-04-18T14:56:30.002Z</time></trkpt><trkpt lat="43.43689330461951" lon="10.661763503521684"><ele>172.0</ele><time>2026-04-18T14:56:31.002Z</time></trkpt><trkpt lat="43.43702943621527" lon="10.661826040994725"><ele>172.0</ele><time>2026-04-18T14:56:32.002Z</time></trkpt><trkpt lat="43.43716318056223" lon="10.661901380479158"><ele>170.75</ele><time>2026-04-18T14:56:33.002Z</time></trkpt><trkpt lat="43.43729590978106" lon="10.661963143204192"><ele>169.5</ele><time>2026-04-18T14:56:34.002Z</time></trkpt><trkpt lat="43.43744176135203" lon="10.662031012136577"><ele>168.25</ele><time>2026-04-18T14:56:35.002Z</time></trkpt><trkpt lat="43.437596723923335" lon="10.662038968662804"><ele>167.0</ele><time>2026-04-18T14:56:36.002Z</time></trkpt><trkpt lat="43.43773631425267" lon="10.662101783151899"><ele>167.0</ele><time>2026-04-18T14:56:37.002Z</time></trkpt><trkpt lat="43.43787528480312" lon="10.662162002352266"><ele>167.0</ele><time>2026-04-18T14:56:38.002Z</time></trkpt><trkpt lat="43.43802058478503" lon="10.66221547877925"><ele>167.0</ele><time>2026-04-18T14:56:39.002Z</time></trkpt><trkpt lat="43.43816259234104" lon="10.662267720413714"><ele>167.0</ele><time>2026-04-18T14:56:40.002Z</time></trkpt><trkpt lat="43.4383019481974" lon="10.662321981932658"><ele>167.75</ele><time>2026-04-18T14:56:41.002Z</time></trkpt><trkpt lat="43.438440845256146" lon="10.66237416576231"><ele>168.5</ele><time>2026-04-18T14:56:42.002Z</time></trkpt><trkpt lat="43.438578942494864" lon="10.662431169895273"><ele>169.25</ele><time>2026-04-18T14:56:43.002Z</time></trkpt><trkpt lat="43.43871256370005" lon="10.662497724904963"><ele>170.0</ele><time>2026-04-18T14:56:44.002Z</time></trkpt><trkpt lat="43.43883363331352" lon="10.662579839824012"><ele>169.75</ele><time>2026-04-18T14:56:45.002Z</time></trkpt><trkpt lat="43.438945267616134" lon="10.662681252313659"><ele>169.5</ele><time>2026-04-18T14:56:46.002Z</time></trkpt><trkpt lat="43.43904705513699" lon="10.662792086638717"><ele>169.25</ele><time>2026-04-18T14:56:47.002Z</time></trkpt><trkpt lat="43.43914990647931" lon="10.662920097549918"><ele>169.0</ele><time>2026-04-18T14:56:48.003Z</time></trkpt><trkpt lat="43.43924601762468" lon="10.66305218512773"><ele>169.0</ele><time>2026-04-18T14:56:49.003Z</time></trkpt><trkpt lat="43.439347627749626" lon="10.663189642523394"><ele>169.0</ele><time>2026-04-18T14:56:50.003Z</time></trkpt><trkpt lat="43.43945201513463" lon="10.663330986640508"><ele>169.0</ele><time>2026-04-18T14:56:51.003Z</time></trkpt><trkpt lat="43.439557537873256" lon="10.663470888334185"><ele>169.0</ele><time>2026-04-18T14:56:52.003Z</time></trkpt><trkpt lat="43.43966587003156" lon="10.663611882947329"><ele>167.66666666666669</ele><time>2026-04-18T14:56:53.003Z</time></trkpt><trkpt lat="43.43977558734836" lon="10.663753992386654"><ele>166.33333333333334</ele><time>2026-04-18T14:56:54Z</time></trkpt><trkpt lat="43.43988468923341" lon="10.663899247820513"><ele>165.0</ele><time>2026-04-18T14:56:55Z</time></trkpt><trkpt lat="43.439992040136204" lon="10.664044692137988"><ele>165.0</ele><time>2026-04-18T14:56:56Z</time></trkpt><trkpt lat="43.44010346039481" lon="10.664185645500112"><ele>165.0</ele><time>2026-04-18T14:56:57Z</time></trkpt><trkpt lat="43.44022252283292" lon="10.664321750202927"><ele>165.0</ele><time>2026-04-18T14:56:58Z</time></trkpt><trkpt lat="43.4403499063322" lon="10.664442723812023"><ele>164.0</ele><time>2026-04-18T14:56:59Z</time></trkpt><trkpt lat="43.44048478671942" lon="10.664550180713732"><ele>163.0</ele><time>2026-04-18T14:57:00Z</time></trkpt><trkpt lat="43.44062585720377" lon="10.664641910706653"><ele>162.0</ele><time>2026-04-18T14:57:01Z</time></trkpt><trkpt lat="43.44077216068033" lon="10.664724641197784"><ele>162.0</ele><time>2026-04-18T14:57:02Z</time></trkpt><trkpt lat="43.44092301669871" lon="10.664791644193837"><ele>162.0</ele><time>2026-04-18T14:57:03Z</time></trkpt><trkpt lat="43.44107704400085" lon="10.66484292262017"><ele>162.0</ele><time>2026-04-18T14:57:04Z</time></trkpt><trkpt lat="43.441233051100276" lon="10.66488995305084"><ele>161.66666666666666</ele><time>2026-04-18T14:57:05Z</time></trkpt><trkpt lat="43.4413898474926" lon="10.664940731699573"><ele>161.33333333333331</ele><time>2026-04-18T14:57:06Z</time></trkpt><trkpt lat="43.441547654592405" lon="10.664988954591424"><ele>161.0</ele><time>2026-04-18T14:57:07Z</time></trkpt><trkpt lat="43.44170532601701" lon="10.665036906572334"><ele>161.0</ele><time>2026-04-18T14:57:08Z</time></trkpt><trkpt lat="43.441864098240636" lon="10.665088116416403"><ele>161.0</ele><time>2026-04-18T14:57:09Z</time></trkpt><trkpt lat="43.44202393033906" lon="10.665138270668752"><ele>161.0</ele><time>2026-04-18T14:57:10Z</time></trkpt><trkpt lat="43.44218383807942" lon="10.66518879482932"><ele>160.33333333333331</ele><time>2026-04-18T14:57:11Z</time></trkpt><trkpt lat="43.44234508870914" lon="10.6652368240813"><ele>159.66666666666666</ele><time>2026-04-18T14:57:12Z</time></trkpt><trkpt lat="43.442506925436525" lon="10.665284441515713"><ele>159.0</ele><time>2026-04-18T14:57:13Z</time></trkpt><trkpt lat="43.442670571316654" lon="10.66533545419625"><ele>159.0</ele><time>2026-04-18T14:57:14Z</time></trkpt><trkpt lat="43.442834245415824" lon="10.665383714585216"><ele>159.0</ele><time>2026-04-18T14:57:15Z</time></trkpt><trkpt lat="43.44299609928197" lon="10.665437064156508"><ele>159.0</ele><time>2026-04-18T14:57:16Z</time></trkpt><trkpt lat="43.44315729912515" lon="10.665490014171077"><ele>158.33333333333334</ele><time>2026-04-18T14:57:17Z</time></trkpt><trkpt lat="43.44331881492799" lon="10.665541801667395"><ele>157.66666666666669</ele><time>2026-04-18T14:57:18Z</time></trkpt><trkpt lat="43.44347911062281" lon="10.665593729654043"><ele>157.0</ele><time>2026-04-18T14:57:19Z</time></trkpt><trkpt lat="43.44364037896651" lon="10.665644968265383"><ele>157.0</ele><time>2026-04-18T14:57:20Z</time></trkpt><trkpt lat="43.44380189472814" lon="10.665700684702756"><ele>157.0</ele><time>2026-04-18T14:57:21Z</time></trkpt><trkpt lat="43.443961666030496" lon="10.665760148363534"><ele>157.0</ele><time>2026-04-18T14:57:22Z</time></trkpt><trkpt lat="43.44412121920439" lon="10.66582045621125"><ele>157.0</ele><time>2026-04-18T14:57:23Z</time></trkpt><trkpt lat="43.444280357736716" lon="10.665885884045009"><ele>157.0</ele><time>2026-04-18T14:57:24Z</time></trkpt><trkpt lat="43.44444351673758" lon="10.665955356467196"><ele>157.0</ele><time>2026-04-18T14:57:25Z</time></trkpt><trkpt lat="43.44460431055549" lon="10.666019651375205"><ele>156.66666666666669</ele><time>2026-04-18T14:57:26Z</time></trkpt><trkpt lat="43.44476675490487" lon="10.666082307272086"><ele>156.33333333333334</ele><time>2026-04-18T14:57:27Z</time></trkpt><trkpt lat="43.444929978561674" lon="10.666145557262661"><ele>156.0</ele><time>2026-04-18T14:57:28Z</time></trkpt><trkpt lat="43.445092784724395" lon="10.66620820218654"><ele>155.0</ele><time>2026-04-18T14:57:29.001Z</time></trkpt><trkpt lat="43.44525407763122" lon="10.666274641671215"><ele>154.0</ele><time>2026-04-18T14:57:30.001Z</time></trkpt><trkpt lat="43.4454155607207" lon="10.666340998872426"><ele>153.0</ele><time>2026-04-18T14:57:31.001Z</time></trkpt><trkpt lat="43.44557839794356" lon="10.666406938798316"><ele>153.0</ele><time>2026-04-18T14:57:32.001Z</time></trkpt><trkpt lat="43.44573949431353" lon="10.666473741118777"><ele>153.0</ele><time>2026-04-18T14:57:33.001Z</time></trkpt><trkpt lat="43.44590134849367" lon="10.666536707167168"><ele>153.0</ele><time>2026-04-18T14:57:34.001Z</time></trkpt><trkpt lat="43.44606379001413" lon="10.666600018247374"><ele>153.0</ele><time>2026-04-18T14:57:35.001Z</time></trkpt><trkpt lat="43.44622449841617" lon="10.666664428343063"><ele>153.0</ele><time>2026-04-18T14:57:36.001Z</time></trkpt><trkpt lat="43.44638361841145" lon="10.666731334231372"><ele>153.0</ele><time>2026-04-18T14:57:37.001Z</time></trkpt><trkpt lat="43.44654259023121" lon="10.66679972935178"><ele>152.33333333333334</ele><time>2026-04-18T14:57:38.001Z</time></trkpt><trkpt lat="43.44670358828125" lon="10.666862684762156"><ele>151.66666666666669</ele><time>2026-04-18T14:57:39.001Z</time></trkpt><trkpt lat="43.446861471883565" lon="10.666924086092097"><ele>151.0</ele><time>2026-04-18T14:57:40.001Z</time></trkpt><trkpt lat="43.44701884367754" lon="10.666986119239711"><ele>150.66666666666669</ele><time>2026-04-18T14:57:41.001Z</time></trkpt><trkpt lat="43.44717461886678" lon="10.66704739313683"><ele>150.33333333333334</ele><time>2026-04-18T14:57:42.001Z</time></trkpt><trkpt lat="43.44733077414979" lon="10.667107900862643"><ele>150.0</ele><time>2026-04-18T14:57:43.001Z</time></trkpt><trkpt lat="43.44748453594886" lon="10.667168706284563"><ele>150.0</ele><time>2026-04-18T14:57:44.001Z</time></trkpt><trkpt lat="43.4476364648905" lon="10.667230411538336"><ele>150.0</ele><time>2026-04-18T14:57:45.001Z</time></trkpt><trkpt lat="43.447786668756486" lon="10.667293184701322"><ele>150.0</ele><time>2026-04-18T14:57:46.001Z</time></trkpt><trkpt lat="43.4479378487678" lon="10.66735304682473"><ele>150.0</ele><time>2026-04-18T14:57:47.001Z</time></trkpt><trkpt lat="43.44808805638898" lon="10.667412039656476"><ele>150.0</ele><time>2026-04-18T14:57:48.001Z</time></trkpt><trkpt lat="43.448240695566376" lon="10.66747016399787"><ele>150.0</ele><time>2026-04-18T14:57:49.001Z</time></trkpt><trkpt lat="43.44839183599018" lon="10.66752818937458"><ele>150.0</ele><time>2026-04-18T14:57:50.001Z</time></trkpt><trkpt lat="43.44854457508181" lon="10.667578564493985"><ele>150.0</ele><time>2026-04-18T14:57:51.001Z</time></trkpt><trkpt lat="43.44869765707777" lon="10.667620915359592"><ele>150.0</ele><time>2026-04-18T14:57:52.001Z</time></trkpt><trkpt lat="43.448850458184275" lon="10.66765394047489"><ele>150.33333333333334</ele><time>2026-04-18T14:57:53.001Z</time></trkpt><trkpt lat="43.44900333300903" lon="10.667672681660546"><ele>150.66666666666669</ele><time>2026-04-18T14:57:54.001Z</time></trkpt><trkpt lat="43.449154182624405" lon="10.667685479502667"><ele>151.0</ele><time>2026-04-18T14:57:55.001Z</time></trkpt><trkpt lat="43.449303489735705" lon="10.667687231067701"><ele>151.0</ele><time>2026-04-18T14:57:56.001Z</time></trkpt><trkpt lat="43.449452030257106" lon="10.667656222796856"><ele>151.0</ele><time>2026-04-18T14:57:57.001Z</time></trkpt><trkpt lat="43.44959682566784" lon="10.667601627436406"><ele>151.0</ele><time>2026-04-18T14:57:58.001Z</time></trkpt><trkpt lat="43.44973761072584" lon="10.667537391984682"><ele>151.0</ele><time>2026-04-18T14:57:59.001Z</time></trkpt><trkpt lat="43.44987816542214" lon="10.667473617855894"><ele>150.5</ele><time>2026-04-18T14:58:00.001Z</time></trkpt><trkpt lat="43.45001708683789" lon="10.667409995349464"><ele>150.0</ele><time>2026-04-18T14:58:01.001Z</time></trkpt><trkpt lat="43.45015467477901" lon="10.667352644139262"><ele>149.5</ele><time>2026-04-18T14:58:02.001Z</time></trkpt><trkpt lat="43.45029132717852" lon="10.66731268868208"><ele>149.0</ele><time>2026-04-18T14:58:03.001Z</time></trkpt><trkpt lat="43.450431274829135" lon="10.667294518488541"><ele>149.0</ele><time>2026-04-18T14:58:04.001Z</time></trkpt><trkpt lat="43.45057267726226" lon="10.66729713296958"><ele>149.0</ele><time>2026-04-18T14:58:05.001Z</time></trkpt><trkpt lat="43.450715445954344" lon="10.667317079052562"><ele>149.0</ele><time>2026-04-18T14:58:06.001Z</time></trkpt><trkpt lat="43.450862061170476" lon="10.667347816335276"><ele>149.0</ele><time>2026-04-18T14:58:07.001Z</time></trkpt><trkpt lat="43.451011778418355" lon="10.667380417232481"><ele>149.0</ele><time>2026-04-18T14:58:08.001Z</time></trkpt><trkpt lat="43.451164051125325" lon="10.66741089266531"><ele>149.0</ele><time>2026-04-18T14:58:09.001Z</time></trkpt><trkpt lat="43.451317947007354" lon="10.667435915503699"><ele>149.0</ele><time>2026-04-18T14:58:10.001Z</time></trkpt><trkpt lat="43.451466951382955" lon="10.667466388104648"><ele>149.5</ele><time>2026-04-18T14:58:11.001Z</time></trkpt><trkpt lat="43.45161514088905" lon="10.66750329159996"><ele>150.0</ele><time>2026-04-18T14:58:12.001Z</time></trkpt><trkpt lat="43.451761618058015" lon="10.667533952378768"><ele>150.5</ele><time>2026-04-18T14:58:13.001Z</time></trkpt><trkpt lat="43.451906133434015" lon="10.667566832285523"><ele>151.0</ele><time>2026-04-18T14:58:14.001Z</time></trkpt><trkpt lat="43.452049491988085" lon="10.667596765019109"><ele>150.5</ele><time>2026-04-18T14:58:15.001Z</time></trkpt><trkpt lat="43.452191554078794" lon="10.66762170277159"><ele>150.0</ele><time>2026-04-18T14:58:16.001Z</time></trkpt><trkpt lat="43.45233316232093" lon="10.667636349440036"><ele>149.5</ele><time>2026-04-18T14:58:17.001Z</time></trkpt><trkpt lat="43.45247530481118" lon="10.667642773796663"><ele>149.0</ele><time>2026-04-18T14:58:18.001Z</time></trkpt><trkpt lat="43.45261957488829" lon="10.66763896005185"><ele>149.0</ele><time>2026-04-18T14:58:19.002Z</time></trkpt><trkpt lat="43.452765357647834" lon="10.667630555668978"><ele>149.0</ele><time>2026-04-18T14:58:20.002Z</time></trkpt><trkpt lat="43.45291051253393" lon="10.667621664104379"><ele>149.0</ele><time>2026-04-18T14:58:21.002Z</time></trkpt><trkpt lat="43.453056685759734" lon="10.667621186668864"><ele>149.0</ele><time>2026-04-18T14:58:22.002Z</time></trkpt><trkpt lat="43.45320202000156" lon="10.66762235328374"><ele>148.75</ele><time>2026-04-18T14:58:23.002Z</time></trkpt><trkpt lat="43.45334767893916" lon="10.667630611660986"><ele>148.5</ele><time>2026-04-18T14:58:24.002Z</time></trkpt><trkpt lat="43.45349658056317" lon="10.667647288876829"><ele>148.25</ele><time>2026-04-18T14:58:25.002Z</time></trkpt><trkpt lat="43.453648814865076" lon="10.667668591607498"><ele>148.0</ele><time>2026-04-18T14:58:26.002Z</time></trkpt><trkpt lat="43.453801899748946" lon="10.667690432002146"><ele>147.0</ele><time>2026-04-18T14:58:27.002Z</time></trkpt><trkpt lat="43.453952332835335" lon="10.667716117087698"><ele>146.0</ele><time>2026-04-18T14:58:28.002Z</time></trkpt><trkpt lat="43.454101839165745" lon="10.667743596198223"><ele>145.0</ele><time>2026-04-18T14:58:29.002Z</time></trkpt><trkpt lat="43.45424866247442" lon="10.66777108312706"><ele>144.66666666666669</ele><time>2026-04-18T14:58:30.002Z</time></trkpt><trkpt lat="43.4543962792307" lon="10.667798842122403"><ele>144.33333333333334</ele><time>2026-04-18T14:58:31.002Z</time></trkpt><trkpt lat="43.45454507790982" lon="10.667827206008347"><ele>144.0</ele><time>2026-04-18T14:58:32.002Z</time></trkpt><trkpt lat="43.45469661004848" lon="10.667857041061366"><ele>144.0</ele><time>2026-04-18T14:58:33.002Z</time></trkpt><trkpt lat="43.45485039941549" lon="10.667888722477723"><ele>144.0</ele><time>2026-04-18T14:58:34.002Z</time></trkpt><trkpt lat="43.455003420826614" lon="10.667918933637418"><ele>144.0</ele><time>2026-04-18T14:58:35.002Z</time></trkpt><trkpt lat="43.45515477971187" lon="10.6679484966054"><ele>144.0</ele><time>2026-04-18T14:58:36.002Z</time></trkpt><trkpt lat="43.45530424356468" lon="10.667975540294561"><ele>144.0</ele><time>2026-04-18T14:58:37.002Z</time></trkpt><trkpt lat="43.4554488133747" lon="10.668001429673266"><ele>144.0</ele><time>2026-04-18T14:58:38.002Z</time></trkpt><trkpt lat="43.455592163170735" lon="10.668035988021275"><ele>144.0</ele><time>2026-04-18T14:58:39.002Z</time></trkpt><trkpt lat="43.45573525882505" lon="10.668087354046627"><ele>143.66666666666666</ele><time>2026-04-18T14:58:40.002Z</time></trkpt><trkpt lat="43.455877801137376" lon="10.668154109338117"><ele>143.33333333333331</ele><time>2026-04-18T14:58:41.002Z</time></trkpt><trkpt lat="43.45601933103035" lon="10.668235602646668"><ele>143.0</ele><time>2026-04-18T14:58:42.002Z</time></trkpt><trkpt lat="43.45616033766814" lon="10.66832622939287"><ele>142.75</ele><time>2026-04-18T14:58:43.002Z</time></trkpt><trkpt lat="43.456299772445824" lon="10.66841655040719"><ele>142.5</ele><time>2026-04-18T14:58:44.002Z</time></trkpt><trkpt lat="43.45642294484158" lon="10.668500685635294"><ele>142.25</ele><time>2026-04-18T14:58:45.002Z</time></trkpt><trkpt lat="43.456544757994806" lon="10.668591271419372"><ele>142.0</ele><time>2026-04-18T14:58:46.002Z</time></trkpt><trkpt lat="43.45666605362188" lon="10.668680021478256"><ele>141.75</ele><time>2026-04-18T14:58:47.002Z</time></trkpt><trkpt lat="43.45678937576935" lon="10.668767020742546"><ele>141.5</ele><time>2026-04-18T14:58:48.002Z</time></trkpt><trkpt lat="43.45690853798208" lon="10.668856710478705"><ele>141.25</ele><time>2026-04-18T14:58:49.002Z</time></trkpt><trkpt lat="43.457032121434054" lon="10.668947466356386"><ele>141.0</ele><time>2026-04-18T14:58:50.002Z</time></trkpt><trkpt lat="43.45715973639275" lon="10.669040867193777"><ele>140.66666666666666</ele><time>2026-04-18T14:58:51.002Z</time></trkpt><trkpt lat="43.457287215844616" lon="10.669139652180327"><ele>140.33333333333331</ele><time>2026-04-18T14:58:52.002Z</time></trkpt><trkpt lat="43.45742077351545" lon="10.669242509427782"><ele>140.0</ele><time>2026-04-18T14:58:53.002Z</time></trkpt><trkpt lat="43.457558982462764" lon="10.669344959362462"><ele>139.66666666666666</ele><time>2026-04-18T14:58:54.002Z</time></trkpt><trkpt lat="43.45769976393724" lon="10.669447604082174"><ele>139.33333333333334</ele><time>2026-04-18T14:58:55.002Z</time></trkpt><trkpt lat="43.457841332353006" lon="10.669552336785047"><ele>139.0</ele><time>2026-04-18T14:58:56.002Z</time></trkpt><trkpt lat="43.45798625103676" lon="10.669655694579768"><ele>139.0</ele><time>2026-04-18T14:58:57.002Z</time></trkpt><trkpt lat="43.458132727296736" lon="10.669760601804864"><ele>139.0</ele><time>2026-04-18T14:58:58.002Z</time></trkpt><trkpt lat="43.458279025429135" lon="10.669866338194755"><ele>139.0</ele><time>2026-04-18T14:58:59.002Z</time></trkpt><trkpt lat="43.45842599343634" lon="10.669971165711363"><ele>139.0</ele><time>2026-04-18T14:59:00Z</time></trkpt><trkpt lat="43.45857343254512" lon="10.67007640906584"><ele>139.0</ele><time>2026-04-18T14:59:01Z</time></trkpt><trkpt lat="43.45872216892888" lon="10.670182723868"><ele>139.0</ele><time>2026-04-18T14:59:02Z</time></trkpt><trkpt lat="43.45887305879299" lon="10.670288491061639"><ele>137.66666666666669</ele><time>2026-04-18T14:59:03Z</time></trkpt><trkpt lat="43.45902489356158" lon="10.67039319581976"><ele>136.33333333333334</ele><time>2026-04-18T14:59:04Z</time></trkpt><trkpt lat="43.45917708206407" lon="10.670499359851107"><ele>135.0</ele><time>2026-04-18T14:59:05Z</time></trkpt><trkpt lat="43.45932733701294" lon="10.670611701485255"><ele>135.0</ele><time>2026-04-18T14:59:06Z</time></trkpt><trkpt lat="43.4594785166042" lon="10.670720081801923"><ele>135.0</ele><time>2026-04-18T14:59:07Z</time></trkpt><trkpt lat="43.459630284802394" lon="10.670830265043664"><ele>135.0</ele><time>2026-04-18T14:59:08Z</time></trkpt><trkpt lat="43.45978109743025" lon="10.670940917701994"><ele>135.66666666666666</ele><time>2026-04-18T14:59:09Z</time></trkpt><trkpt lat="43.45993163870178" lon="10.671050632902034"><ele>136.33333333333331</ele><time>2026-04-18T14:59:10Z</time></trkpt><trkpt lat="43.46008184154534" lon="10.671159532552263"><ele>137.0</ele><time>2026-04-18T14:59:11Z</time></trkpt><trkpt lat="43.46023461169408" lon="10.671267971940882"><ele>135.66666666666666</ele><time>2026-04-18T14:59:12Z</time></trkpt><trkpt lat="43.46038774977552" lon="10.671373572749518"><ele>134.33333333333334</ele><time>2026-04-18T14:59:13Z</time></trkpt><trkpt lat="43.460541102887305" lon="10.671483753519407"><ele>133.0</ele><time>2026-04-18T14:59:14Z</time></trkpt><trkpt lat="43.46069312771381" lon="10.671593236038563"><ele>132.66666666666669</ele><time>2026-04-18T14:59:15Z</time></trkpt><trkpt lat="43.460847314590495" lon="10.671701464644897"><ele>132.33333333333334</ele><time>2026-04-18T14:59:16Z</time></trkpt><trkpt lat="43.46099889426867" lon="10.67181075184528"><ele>132.0</ele><time>2026-04-18T14:59:17Z</time></trkpt><trkpt lat="43.46115327816122" lon="10.671923163536766"><ele>131.66666666666666</ele><time>2026-04-18T14:59:18Z</time></trkpt><trkpt lat="43.46130486629517" lon="10.672033152787327"><ele>131.33333333333331</ele><time>2026-04-18T14:59:19Z</time></trkpt><trkpt lat="43.4614588093896" lon="10.67214638743661"><ele>131.0</ele><time>2026-04-18T14:59:20Z</time></trkpt><trkpt lat="43.46161147708502" lon="10.672256636791587"><ele>131.0</ele><time>2026-04-18T14:59:21Z</time></trkpt><trkpt lat="43.46176418131935" lon="10.6723665549022"><ele>131.0</ele><time>2026-04-18T14:59:22Z</time></trkpt><trkpt lat="43.461919477431174" lon="10.67247399235233"><ele>131.0</ele><time>2026-04-18T14:59:23Z</time></trkpt><trkpt lat="43.462070047632274" lon="10.672582453253417"><ele>130.66666666666666</ele><time>2026-04-18T14:59:24Z</time></trkpt><trkpt lat="43.46221960709328" lon="10.672687380529283"><ele>130.33333333333334</ele><time>2026-04-18T14:59:25Z</time></trkpt><trkpt lat="43.4623672068499" lon="10.672791809206663"><ele>130.0</ele><time>2026-04-18T14:59:26Z</time></trkpt><trkpt lat="43.462512842725765" lon="10.672893044262823"><ele>130.0</ele><time>2026-04-18T14:59:27Z</time></trkpt><trkpt lat="43.46265386250741" lon="10.672994113383375"><ele>130.0</ele><time>2026-04-18T14:59:28Z</time></trkpt><trkpt lat="43.462795676297944" lon="10.673096412254896"><ele>130.0</ele><time>2026-04-18T14:59:29Z</time></trkpt><trkpt lat="43.462939210892095" lon="10.67320031097115"><ele>130.66666666666669</ele><time>2026-04-18T14:59:30Z</time></trkpt><trkpt lat="43.463084953079886" lon="10.673306460378413"><ele>131.33333333333334</ele><time>2026-04-18T14:59:31Z</time></trkpt><trkpt lat="43.46323298315818" lon="10.67341365308787"><ele>132.0</ele><time>2026-04-18T14:59:32Z</time></trkpt><trkpt lat="43.46338346282298" lon="10.67352041031474"><ele>130.66666666666666</ele><time>2026-04-18T14:59:33Z</time></trkpt><trkpt lat="43.463535684801684" lon="10.673627841684537"><ele>129.33333333333331</ele><time>2026-04-18T14:59:34Z</time></trkpt><trkpt lat="43.46368985712195" lon="10.673735765608908"><ele>128.0</ele><time>2026-04-18T14:59:35Z</time></trkpt><trkpt lat="43.46384365294329" lon="10.673850126816731"><ele>128.0</ele><time>2026-04-18T14:59:36Z</time></trkpt><trkpt lat="43.46399410708039" lon="10.6739596812757"><ele>128.0</ele><time>2026-04-18T14:59:37Z</time></trkpt><trkpt lat="43.46414292613966" lon="10.674071181031463"><ele>128.0</ele><time>2026-04-18T14:59:38Z</time></trkpt><trkpt lat="43.46428730263718" lon="10.674178357193197"><ele>128.0</ele><time>2026-04-18T14:59:39Z</time></trkpt><trkpt lat="43.464432930043465" lon="10.674292191996901"><ele>128.0</ele><time>2026-04-18T14:59:40Z</time></trkpt><trkpt lat="43.46457413693248" lon="10.674412159456299"><ele>128.0</ele><time>2026-04-18T14:59:41Z</time></trkpt><trkpt lat="43.46470933546545" lon="10.674544139833543"><ele>127.33333333333333</ele><time>2026-04-18T14:59:42Z</time></trkpt><trkpt lat="43.46483448538681" lon="10.674686105258216"><ele>126.66666666666666</ele><time>2026-04-18T14:59:43Z</time></trkpt><trkpt lat="43.46495584142677" lon="10.674837396329881"><ele>126.0</ele><time>2026-04-18T14:59:44Z</time></trkpt><trkpt lat="43.465072152546604" lon="10.675001300936996"><ele>126.0</ele><time>2026-04-18T14:59:45.001Z</time></trkpt><trkpt lat="43.465177084858894" lon="10.675172299291946"><ele>126.0</ele><time>2026-04-18T14:59:46.001Z</time></trkpt><trkpt lat="43.46527007631394" lon="10.67535222021048"><ele>126.0</ele><time>2026-04-18T14:59:47.001Z</time></trkpt><trkpt lat="43.465353935449066" lon="10.675542576399284"><ele>125.66666666666666</ele><time>2026-04-18T14:59:48.001Z</time></trkpt><trkpt lat="43.465432348409685" lon="10.675732865684099"><ele>125.33333333333333</ele><time>2026-04-18T14:59:49.001Z</time></trkpt><trkpt lat="43.46550824884936" lon="10.675932468992395"><ele>125.0</ele><time>2026-04-18T14:59:50.001Z</time></trkpt><trkpt lat="43.46558667084712" lon="10.676132904619498"><ele>126.0</ele><time>2026-04-18T14:59:51.001Z</time></trkpt><trkpt lat="43.46566302943427" lon="10.67633569380741"><ele>127.0</ele><time>2026-04-18T14:59:52.001Z</time></trkpt><trkpt lat="43.465739234753705" lon="10.676540987085161"><ele>128.0</ele><time>2026-04-18T14:59:53.001Z</time></trkpt><trkpt lat="43.465817450678095" lon="10.676747496453816"><ele>127.0</ele><time>2026-04-18T14:59:54.001Z</time></trkpt><trkpt lat="43.465898109471006" lon="10.676954927570547"><ele>126.0</ele><time>2026-04-18T14:59:55.001Z</time></trkpt><trkpt lat="43.465979243669466" lon="10.67716419739652"><ele>125.0</ele><time>2026-04-18T14:59:56.001Z</time></trkpt><trkpt lat="43.466059206408445" lon="10.677372564933986"><ele>125.0</ele><time>2026-04-18T14:59:57.001Z</time></trkpt><trkpt lat="43.46614037829549" lon="10.677581487093926"><ele>125.0</ele><time>2026-04-18T14:59:58.001Z</time></trkpt><trkpt lat="43.466217830470576" lon="10.677788539158037"><ele>125.0</ele><time>2026-04-18T14:59:59.001Z</time></trkpt><trkpt lat="43.46629714152895" lon="10.677997028769612"><ele>126.33333333333333</ele><time>2026-04-18T15:00:00.001Z</time></trkpt><trkpt lat="43.46637957106499" lon="10.67820393113317"><ele>127.66666666666666</ele><time>2026-04-18T15:00:01.001Z</time></trkpt><trkpt lat="43.46646143643409" lon="10.678412500617537"><ele>129.0</ele><time>2026-04-18T15:00:02.001Z</time></trkpt><trkpt lat="43.46654659491867" lon="10.678616361919886"><ele>126.33333333333334</ele><time>2026-04-18T15:00:03.001Z</time></trkpt><trkpt lat="43.46663678702329" lon="10.678820672357721"><ele>123.66666666666667</ele><time>2026-04-18T15:00:04.001Z</time></trkpt><trkpt lat="43.466731042004426" lon="10.679021310399651"><ele>121.0</ele><time>2026-04-18T15:00:05.001Z</time></trkpt><trkpt lat="43.46683507874545" lon="10.679218182050048"><ele>121.0</ele><time>2026-04-18T15:00:06.001Z</time></trkpt><trkpt lat="43.46694910387093" lon="10.679405155000827"><ele>121.0</ele><time>2026-04-18T15:00:07.001Z</time></trkpt><trkpt lat="43.46706268115204" lon="10.679592507581457"><ele>121.0</ele><time>2026-04-18T15:00:08.001Z</time></trkpt><trkpt lat="43.46717228352764" lon="10.679782803499346"><ele>121.0</ele><time>2026-04-18T15:00:09.001Z</time></trkpt><trkpt lat="43.46728209368933" lon="10.679972206802734"><ele>121.0</ele><time>2026-04-18T15:00:10.001Z</time></trkpt><trkpt lat="43.46739046273395" lon="10.680162045561573"><ele>121.0</ele><time>2026-04-18T15:00:11.001Z</time></trkpt><trkpt lat="43.46749983668148" lon="10.680350914480844"><ele>120.33333333333334</ele><time>2026-04-18T15:00:12.001Z</time></trkpt><trkpt lat="43.467608651845744" lon="10.680534142252649"><ele>119.66666666666666</ele><time>2026-04-18T15:00:13.001Z</time></trkpt><trkpt lat="43.467718046892585" lon="10.68071613255373"><ele>119.0</ele><time>2026-04-18T15:00:14.001Z</time></trkpt><trkpt lat="43.46782426766752" lon="10.680898411923605"><ele>119.0</ele><time>2026-04-18T15:00:15.001Z</time></trkpt><trkpt lat="43.467930234252876" lon="10.68107738240539"><ele>119.0</ele><time>2026-04-18T15:00:16.001Z</time></trkpt><trkpt lat="43.46803269034681" lon="10.681253866922939"><ele>119.0</ele><time>2026-04-18T15:00:17.001Z</time></trkpt><trkpt lat="43.46813425645962" lon="10.68142564198032"><ele>120.0</ele><time>2026-04-18T15:00:18.001Z</time></trkpt><trkpt lat="43.46823058139246" lon="10.681595654037626"><ele>121.0</ele><time>2026-04-18T15:00:19.001Z</time></trkpt><trkpt lat="43.46833002615771" lon="10.681767317177625"><ele>122.0</ele><time>2026-04-18T15:00:20.001Z</time></trkpt><trkpt lat="43.468429133615324" lon="10.681940598779258"><ele>122.0</ele><time>2026-04-18T15:00:21.001Z</time></trkpt><trkpt lat="43.46852653130265" lon="10.68210550833796"><ele>122.0</ele><time>2026-04-18T15:00:22.001Z</time></trkpt><trkpt lat="43.4686162553231" lon="10.682268795330295"><ele>122.0</ele><time>2026-04-18T15:00:23.001Z</time></trkpt><trkpt lat="43.46869024651253" lon="10.682432690179132"><ele>122.0</ele><time>2026-04-18T15:00:24.001Z</time></trkpt><trkpt lat="43.46874098803384" lon="10.682608160724692"><ele>121.5</ele><time>2026-04-18T15:00:25.001Z</time></trkpt><trkpt lat="43.468760112096305" lon="10.682794862685885"><ele>121.0</ele><time>2026-04-18T15:00:26.001Z</time></trkpt><trkpt lat="43.46875511523135" lon="10.682998751699012"><ele>120.5</ele><time>2026-04-18T15:00:27.001Z</time></trkpt><trkpt lat="43.468734239875154" lon="10.683185737544951"><ele>120.0</ele><time>2026-04-18T15:00:28.001Z</time></trkpt><trkpt lat="43.46872631583917" lon="10.683366048188912"><ele>120.0</ele><time>2026-04-18T15:00:29.001Z</time></trkpt><trkpt lat="43.468690300754545" lon="10.683547082969168"><ele>120.0</ele><time>2026-04-18T15:00:30.002Z</time></trkpt><trkpt lat="43.468683305219784" lon="10.68368332717515"><ele>120.0</ele><time>2026-04-18T15:00:31.002Z</time></trkpt><trkpt lat="43.46870501965518" lon="10.683865141192138"><ele>120.0</ele><time>2026-04-18T15:00:32.002Z</time></trkpt><trkpt lat="43.46874292057233" lon="10.684032804099274"><ele>119.25</ele><time>2026-04-18T15:00:33.002Z</time></trkpt><trkpt lat="43.46880412822934" lon="10.684182390769418"><ele>118.5</ele><time>2026-04-18T15:00:34.002Z</time></trkpt><trkpt lat="43.468879412937945" lon="10.684323700693831"><ele>117.75</ele><time>2026-04-18T15:00:35.002Z</time></trkpt><trkpt lat="43.46898197027944" lon="10.684437251291962"><ele>117.0</ele><time>2026-04-18T15:00:36.002Z</time></trkpt><trkpt lat="43.46909727671393" lon="10.684546319593032"><ele>117.0</ele><time>2026-04-18T15:00:37.002Z</time></trkpt><trkpt lat="43.4692189386215" lon="10.684644292945432"><ele>117.0</ele><time>2026-04-18T15:00:38.002Z</time></trkpt><trkpt lat="43.46935632838509" lon="10.68475501152008"><ele>117.0</ele><time>2026-04-18T15:00:39.002Z</time></trkpt><trkpt lat="43.46948411628812" lon="10.684869568053879"><ele>118.66666666666666</ele><time>2026-04-18T15:00:40.002Z</time></trkpt><trkpt lat="43.46962295843413" lon="10.68499377950372"><ele>120.33333333333333</ele><time>2026-04-18T15:00:41.002Z</time></trkpt><trkpt lat="43.46975621619757" lon="10.685110713109962"><ele>122.0</ele><time>2026-04-18T15:00:42.002Z</time></trkpt><trkpt lat="43.469889482151785" lon="10.685229578348958"><ele>119.0</ele><time>2026-04-18T15:00:43.002Z</time></trkpt><trkpt lat="43.470023546606235" lon="10.685341441329786"><ele>116.0</ele><time>2026-04-18T15:00:44.002Z</time></trkpt><trkpt lat="43.470148814104995" lon="10.685468812170178"><ele>113.0</ele><time>2026-04-18T15:00:45.002Z</time></trkpt><trkpt lat="43.47029726916709" lon="10.685551208835133"><ele>113.0</ele><time>2026-04-18T15:00:46.002Z</time></trkpt><trkpt lat="43.47043993282937" lon="10.685646096261527"><ele>113.0</ele><time>2026-04-18T15:00:47.002Z</time></trkpt><trkpt lat="43.47058471057735" lon="10.685739804828918"><ele>113.0</ele><time>2026-04-18T15:00:48.002Z</time></trkpt><trkpt lat="43.47073070886444" lon="10.685831333332294"><ele>113.33333333333333</ele><time>2026-04-18T15:00:49.002Z</time></trkpt><trkpt lat="43.47087697123706" lon="10.685922503807053"><ele>113.66666666666666</ele><time>2026-04-18T15:00:50.002Z</time></trkpt><trkpt lat="43.471025719748674" lon="10.686027304754665"><ele>114.0</ele><time>2026-04-18T15:00:51.002Z</time></trkpt><trkpt lat="43.47116729936649" lon="10.68613349404718"><ele>113.66666666666666</ele><time>2026-04-18T15:00:52.002Z</time></trkpt><trkpt lat="43.47129947767297" lon="10.686249539783487"><ele>113.33333333333333</ele><time>2026-04-18T15:00:53.002Z</time></trkpt><trkpt lat="43.47142625859317" lon="10.686378790944163"><ele>113.0</ele><time>2026-04-18T15:00:54.002Z</time></trkpt><trkpt lat="43.471546151224295" lon="10.686518610878624"><ele>113.0</ele><time>2026-04-18T15:00:55.002Z</time></trkpt><trkpt lat="43.47166177165491" lon="10.686665188165286"><ele>113.0</ele><time>2026-04-18T15:00:56.002Z</time></trkpt><trkpt lat="43.47175765743144" lon="10.686846499278493"><ele>113.0</ele><time>2026-04-18T15:00:57.002Z</time></trkpt><trkpt lat="43.471869928497064" lon="10.686999917739424"><ele>113.0</ele><time>2026-04-18T15:00:58.002Z</time></trkpt><trkpt lat="43.471962291108746" lon="10.687171376395657"><ele>113.0</ele><time>2026-04-18T15:00:59.002Z</time></trkpt><trkpt lat="43.47204251253561" lon="10.687359830539275"><ele>113.0</ele><time>2026-04-18T15:01:00.002Z</time></trkpt><trkpt lat="43.472130677166525" lon="10.687537170624068"><ele>113.0</ele><time>2026-04-18T15:01:01.002Z</time></trkpt><trkpt lat="43.47222099253497" lon="10.687718516796512"><ele>113.0</ele><time>2026-04-18T15:01:02.002Z</time></trkpt><trkpt lat="43.47230996170744" lon="10.68789946568768"><ele>113.0</ele><time>2026-04-18T15:01:03.002Z</time></trkpt><trkpt lat="43.47240987504574" lon="10.688069291787395"><ele>112.0</ele><time>2026-04-18T15:01:04.002Z</time></trkpt><trkpt lat="43.47249341693887" lon="10.688254383307278"><ele>111.0</ele><time>2026-04-18T15:01:05.002Z</time></trkpt><trkpt lat="43.472572675329424" lon="10.688444491882366"><ele>110.0</ele><time>2026-04-18T15:01:06Z</time></trkpt><trkpt lat="43.47265200305993" lon="10.688635890410762"><ele>109.33333333333333</ele><time>2026-04-18T15:01:07Z</time></trkpt><trkpt lat="43.47271548521717" lon="10.688838688141521"><ele>108.66666666666666</ele><time>2026-04-18T15:01:08Z</time></trkpt><trkpt lat="43.47279564561121" lon="10.689039314928854"><ele>108.0</ele><time>2026-04-18T15:01:09Z</time></trkpt><trkpt lat="43.47287502360155" lon="10.689240176508074"><ele>109.33333333333334</ele><time>2026-04-18T15:01:10Z</time></trkpt><trkpt lat="43.47295312202944" lon="10.689444172062707"><ele>110.66666666666667</ele><time>2026-04-18T15:01:11Z</time></trkpt><trkpt lat="43.473029893483215" lon="10.689650354849555"><ele>112.0</ele><time>2026-04-18T15:01:12Z</time></trkpt><trkpt lat="43.473108906896385" lon="10.689857441236978"><ele>112.0</ele><time>2026-04-18T15:01:13Z</time></trkpt><trkpt lat="43.47320157631014" lon="10.690052486136045"><ele>112.0</ele><time>2026-04-18T15:01:14Z</time></trkpt><trkpt lat="43.4732661222836" lon="10.690269451976805"><ele>112.0</ele><time>2026-04-18T15:01:15Z</time></trkpt><trkpt lat="43.473345945099055" lon="10.690480883933393"><ele>110.66666666666667</ele><time>2026-04-18T15:01:16Z</time></trkpt><trkpt lat="43.47342378828046" lon="10.69068707227778"><ele>109.33333333333334</ele><time>2026-04-18T15:01:17Z</time></trkpt><trkpt lat="43.47350290334441" lon="10.69089473525936"><ele>108.0</ele><time>2026-04-18T15:01:18Z</time></trkpt><trkpt lat="43.473584004600006" lon="10.691103514818082"><ele>108.0</ele><time>2026-04-18T15:01:19Z</time></trkpt><trkpt lat="43.47366428995809" lon="10.691310193999007"><ele>108.0</ele><time>2026-04-18T15:01:20Z</time></trkpt><trkpt lat="43.47375536000205" lon="10.691508054279316"><ele>108.0</ele><time>2026-04-18T15:01:21Z</time></trkpt><trkpt lat="43.473817853351434" lon="10.691725454053113"><ele>108.33333333333334</ele><time>2026-04-18T15:01:22Z</time></trkpt><trkpt lat="43.473909839670085" lon="10.691921246740526"><ele>108.66666666666667</ele><time>2026-04-18T15:01:23Z</time></trkpt><trkpt lat="43.473991351476066" lon="10.692132764963503"><ele>109.0</ele><time>2026-04-18T15:01:24Z</time></trkpt><trkpt lat="43.474055144205856" lon="10.692349317128977"><ele>109.0</ele><time>2026-04-18T15:01:25Z</time></trkpt><trkpt lat="43.474133435048955" lon="10.692555553636788"><ele>109.0</ele><time>2026-04-18T15:01:26Z</time></trkpt><trkpt lat="43.47421146813075" lon="10.692761111134029"><ele>109.0</ele><time>2026-04-18T15:01:27Z</time></trkpt><trkpt lat="43.474289441288164" lon="10.692966510784052"><ele>108.0</ele><time>2026-04-18T15:01:28Z</time></trkpt><trkpt lat="43.47438208096229" lon="10.693163266612357"><ele>107.0</ele><time>2026-04-18T15:01:29Z</time></trkpt><trkpt lat="43.47445911931909" lon="10.693365898926594"><ele>106.0</ele><time>2026-04-18T15:01:30Z</time></trkpt><trkpt lat="43.474537876033644" lon="10.693568486245427"><ele>107.66666666666667</ele><time>2026-04-18T15:01:31Z</time></trkpt><trkpt lat="43.47461161187521" lon="10.693769086860986"><ele>109.33333333333334</ele><time>2026-04-18T15:01:32Z</time></trkpt><trkpt lat="43.47468621256873" lon="10.693966739365223"><ele>111.0</ele><time>2026-04-18T15:01:33Z</time></trkpt><trkpt lat="43.47476438375986" lon="10.69416165413494"><ele>111.0</ele><time>2026-04-18T15:01:34.001Z</time></trkpt><trkpt lat="43.47484628029847" lon="10.694352641303128"><ele>111.0</ele><time>2026-04-18T15:01:35.001Z</time></trkpt><trkpt lat="43.47493298728783" lon="10.694545079951046"><ele>111.0</ele><time>2026-04-18T15:01:36.001Z</time></trkpt><trkpt lat="43.475025211421716" lon="10.694731982730758"><ele>108.66666666666666</ele><time>2026-04-18T15:01:37.001Z</time></trkpt><trkpt lat="43.47512128582692" lon="10.69491651754242"><ele>106.33333333333333</ele><time>2026-04-18T15:01:38.001Z</time></trkpt><trkpt lat="43.475220793977584" lon="10.695097447089493"><ele>104.0</ele><time>2026-04-18T15:01:39.001Z</time></trkpt><trkpt lat="43.47531590232562" lon="10.695278750865477"><ele>104.66666666666666</ele><time>2026-04-18T15:01:40.001Z</time></trkpt><trkpt lat="43.47542043803647" lon="10.695457887914129"><ele>105.33333333333334</ele><time>2026-04-18T15:01:41.001Z</time></trkpt><trkpt lat="43.475515520238076" lon="10.695637220116524"><ele>106.0</ele><time>2026-04-18T15:01:42.001Z</time></trkpt><trkpt lat="43.475623072564325" lon="10.695820533325627"><ele>106.0</ele><time>2026-04-18T15:01:43.001Z</time></trkpt><trkpt lat="43.47573066467342" lon="10.696005573158972"><ele>106.0</ele><time>2026-04-18T15:01:44.001Z</time></trkpt><trkpt lat="43.47583639354246" lon="10.696192754703503"><ele>106.0</ele><time>2026-04-18T15:01:45.001Z</time></trkpt><trkpt lat="43.47593388713781" lon="10.696378550684772"><ele>104.66666666666667</ele><time>2026-04-18T15:01:46.001Z</time></trkpt><trkpt lat="43.47603484180156" lon="10.69656281997034"><ele>103.33333333333334</ele><time>2026-04-18T15:01:47.001Z</time></trkpt><trkpt lat="43.476138732892075" lon="10.696745157296164"><ele>102.0</ele><time>2026-04-18T15:01:48.001Z</time></trkpt><trkpt lat="43.47624627212889" lon="10.696921302469375"><ele>101.33333333333334</ele><time>2026-04-18T15:01:49.001Z</time></trkpt><trkpt lat="43.47635967119502" lon="10.697093714648618"><ele>100.66666666666667</ele><time>2026-04-18T15:01:50.001Z</time></trkpt><trkpt lat="43.47647934002302" lon="10.69725810087464"><ele>100.0</ele><time>2026-04-18T15:01:51.001Z</time></trkpt><trkpt lat="43.47660321728508" lon="10.69741745554529"><ele>100.0</ele><time>2026-04-18T15:01:52.001Z</time></trkpt><trkpt lat="43.47673432540447" lon="10.697565820663781"><ele>100.0</ele><time>2026-04-18T15:01:53.001Z</time></trkpt><trkpt lat="43.476857039958254" lon="10.697732985532598"><ele>100.0</ele><time>2026-04-18T15:01:54.001Z</time></trkpt><trkpt lat="43.47698160062586" lon="10.69789534990508"><ele>98.66666666666667</ele><time>2026-04-18T15:01:55.001Z</time></trkpt><trkpt lat="43.477110641261596" lon="10.698060587681363"><ele>97.33333333333334</ele><time>2026-04-18T15:01:56.001Z</time></trkpt><trkpt lat="43.477234029355955" lon="10.698218807775985"><ele>96.0</ele><time>2026-04-18T15:01:57.001Z</time></trkpt><trkpt lat="43.477353912347745" lon="10.698370708185777"><ele>96.0</ele><time>2026-04-18T15:01:58.001Z</time></trkpt><trkpt lat="43.47746887138047" lon="10.698516847228445"><ele>96.0</ele><time>2026-04-18T15:01:59.001Z</time></trkpt><trkpt lat="43.47757081919743" lon="10.698644228470265"><ele>96.0</ele><time>2026-04-18T15:02:00.001Z</time></trkpt><trkpt lat="43.477650619872186" lon="10.698747168137523"><ele>96.0</ele><time>2026-04-18T15:02:01.001Z</time></trkpt><trkpt lat="43.477707150310245" lon="10.698827811358033"><ele>96.0</ele><time>2026-04-18T15:02:02.001Z</time></trkpt><trkpt lat="43.47763418113033" lon="10.69874311446127"><ele>96.0</ele><time>2026-04-18T15:02:11.001Z</time></trkpt><trkpt lat="43.47754798888707" lon="10.698583600911622"><ele>96.0</ele><time>2026-04-18T15:02:19.001Z</time></trkpt><trkpt lat="43.477591685403276" lon="10.698465441699952"><ele>96.0</ele><time>2026-04-18T15:02:22.002Z</time></trkpt><trkpt lat="43.47762484405649" lon="10.698375647627127"><ele>96.0</ele><time>2026-04-18T15:02:23.002Z</time></trkpt><trkpt lat="43.47767663094574" lon="10.69829076845525"><ele>96.0</ele><time>2026-04-18T15:02:24.002Z</time></trkpt><trkpt lat="43.47774177073061" lon="10.698211084962873"><ele>96.0</ele><time>2026-04-18T15:02:25.002Z</time></trkpt><trkpt lat="43.47781948174495" lon="10.698134200214257"><ele>96.0</ele><time>2026-04-18T15:02:26.002Z</time></trkpt><trkpt lat="43.47791074488904" lon="10.698056965651508"><ele>96.0</ele><time>2026-04-18T15:02:27.002Z</time></trkpt><trkpt lat="43.478014419083195" lon="10.697968783024566"><ele>96.0</ele><time>2026-04-18T15:02:28.002Z</time></trkpt><trkpt lat="43.47811662236737" lon="10.697895580196816"><ele>96.0</ele><time>2026-04-18T15:02:29.002Z</time></trkpt><trkpt lat="43.47821777008155" lon="10.697821411525336"><ele>96.0</ele><time>2026-04-18T15:02:30.002Z</time></trkpt><trkpt lat="43.47831888980878" lon="10.69774026880851"><ele>96.0</ele><time>2026-04-18T15:02:31.002Z</time></trkpt><trkpt lat="43.47842550282176" lon="10.697662204329657"><ele>96.0</ele><time>2026-04-18T15:02:32.002Z</time></trkpt><trkpt lat="43.47852982535462" lon="10.697581682783502"><ele>96.5</ele><time>2026-04-18T15:02:33.002Z</time></trkpt><trkpt lat="43.47862554883073" lon="10.697509744535338"><ele>97.0</ele><time>2026-04-18T15:02:34.002Z</time></trkpt><trkpt lat="43.47871463811569" lon="10.697410528790238"><ele>97.5</ele><time>2026-04-18T15:02:35.002Z</time></trkpt><trkpt lat="43.47878609324934" lon="10.697290900953712"><ele>98.0</ele><time>2026-04-18T15:02:36.002Z</time></trkpt><trkpt lat="43.47884591994915" lon="10.697142392947939"><ele>99.5</ele><time>2026-04-18T15:02:37.002Z</time></trkpt><trkpt lat="43.47888141257331" lon="10.696978650335499"><ele>101.0</ele><time>2026-04-18T15:02:38.002Z</time></trkpt><trkpt lat="43.478909498522164" lon="10.696814867818041"><ele>102.5</ele><time>2026-04-18T15:02:39.002Z</time></trkpt><trkpt lat="43.47893842020321" lon="10.696645445516596"><ele>104.0</ele><time>2026-04-18T15:02:40.002Z</time></trkpt><trkpt lat="43.47897019249994" lon="10.696472631805367"><ele>104.0</ele><time>2026-04-18T15:02:41.002Z</time></trkpt><trkpt lat="43.47899956702125" lon="10.696294848614583"><ele>104.0</ele><time>2026-04-18T15:02:42.002Z</time></trkpt><trkpt lat="43.47903097311729" lon="10.696126723883898"><ele>104.0</ele><time>2026-04-18T15:02:43.002Z</time></trkpt><trkpt lat="43.47907248836568" lon="10.695952003525106"><ele>104.0</ele><time>2026-04-18T15:02:44.002Z</time></trkpt><trkpt lat="43.47912159698007" lon="10.695775542776127"><ele>104.25</ele><time>2026-04-18T15:02:45.002Z</time></trkpt><trkpt lat="43.47916941138597" lon="10.695600406638118"><ele>104.5</ele><time>2026-04-18T15:02:46.002Z</time></trkpt><trkpt lat="43.47922442173719" lon="10.695427607000877"><ele>104.75</ele><time>2026-04-18T15:02:47.002Z</time></trkpt><trkpt lat="43.479284979185366" lon="10.695257001806404"><ele>105.0</ele><time>2026-04-18T15:02:48.002Z</time></trkpt><trkpt lat="43.479352299043015" lon="10.69508351302867"><ele>104.5</ele><time>2026-04-18T15:02:49.002Z</time></trkpt><trkpt lat="43.47942277061854" lon="10.694923774719623"><ele>104.0</ele><time>2026-04-18T15:02:50.002Z</time></trkpt><trkpt lat="43.479504525959115" lon="10.69477419225094"><ele>103.5</ele><time>2026-04-18T15:02:51.002Z</time></trkpt><trkpt lat="43.479594501551304" lon="10.69462745379473"><ele>103.0</ele><time>2026-04-18T15:02:52.002Z</time></trkpt><trkpt lat="43.47968894325723" lon="10.694482757345448"><ele>104.0</ele><time>2026-04-18T15:02:53.002Z</time></trkpt><trkpt lat="43.47979398572303" lon="10.694342492920034"><ele>105.0</ele><time>2026-04-18T15:02:54.002Z</time></trkpt><trkpt lat="43.479899690589654" lon="10.694207410237144"><ele>106.0</ele><time>2026-04-18T15:02:55.002Z</time></trkpt><trkpt lat="43.480010718116354" lon="10.69407804338535"><ele>107.0</ele><time>2026-04-18T15:02:56.002Z</time></trkpt><trkpt lat="43.48012345161609" lon="10.69396169346066"><ele>107.0</ele><time>2026-04-18T15:02:57.002Z</time></trkpt><trkpt lat="43.4802403524923" lon="10.693885968017453"><ele>107.0</ele><time>2026-04-18T15:02:58.002Z</time></trkpt><trkpt lat="43.48036193816801" lon="10.693840649332595"><ele>107.0</ele><time>2026-04-18T15:02:59.002Z</time></trkpt><trkpt lat="43.48046722745183" lon="10.693812483268557"><ele>107.0</ele><time>2026-04-18T15:03:00.002Z</time></trkpt><trkpt lat="43.480571867844645" lon="10.693721691709333"><ele>106.75</ele><time>2026-04-18T15:03:01.002Z</time></trkpt><trkpt lat="43.48065902173198" lon="10.693605654523429"><ele>106.5</ele><time>2026-04-18T15:03:02.002Z</time></trkpt><trkpt lat="43.48072001174901" lon="10.693465820310449"><ele>106.25</ele><time>2026-04-18T15:03:03.002Z</time></trkpt><trkpt lat="43.48077696086782" lon="10.693320936085824"><ele>106.0</ele><time>2026-04-18T15:03:04.002Z</time></trkpt><trkpt lat="43.480835548118705" lon="10.693176637826372"><ele>106.0</ele><time>2026-04-18T15:03:05.002Z</time></trkpt><trkpt lat="43.480895774195275" lon="10.693033096919237"><ele>106.0</ele><time>2026-04-18T15:03:06.002Z</time></trkpt><trkpt lat="43.480943208884575" lon="10.692884345284012"><ele>106.0</ele><time>2026-04-18T15:03:07.003Z</time></trkpt><trkpt lat="43.480983360649006" lon="10.692710537984162"><ele>106.0</ele><time>2026-04-18T15:03:08.003Z</time></trkpt><trkpt lat="43.48100976772564" lon="10.692517481751457"><ele>106.25</ele><time>2026-04-18T15:03:09.003Z</time></trkpt><trkpt lat="43.4810430549222" lon="10.692323034104179"><ele>106.5</ele><time>2026-04-18T15:03:10.003Z</time></trkpt><trkpt lat="43.4810711640477" lon="10.692132259344403"><ele>106.75</ele><time>2026-04-18T15:03:11.003Z</time></trkpt><trkpt lat="43.48110181771551" lon="10.69194266578155"><ele>107.0</ele><time>2026-04-18T15:03:12.001Z</time></trkpt><trkpt lat="43.48113315398969" lon="10.691749222483901"><ele>107.5</ele><time>2026-04-18T15:03:13.001Z</time></trkpt><trkpt lat="43.48116886886379" lon="10.691555744036707"><ele>108.0</ele><time>2026-04-18T15:03:14.001Z</time></trkpt><trkpt lat="43.481204025941175" lon="10.691362025170536"><ele>108.5</ele><time>2026-04-18T15:03:15.001Z</time></trkpt><trkpt lat="43.48123859799739" lon="10.691176121970178"><ele>109.0</ele><time>2026-04-18T15:03:16.001Z</time></trkpt><trkpt lat="43.48127288902174" lon="10.690991577991248"><ele>109.5</ele><time>2026-04-18T15:03:17.001Z</time></trkpt><trkpt lat="43.48130865987348" lon="10.69079240593808"><ele>110.0</ele><time>2026-04-18T15:03:18.001Z</time></trkpt><trkpt lat="43.48133959034514" lon="10.690598314058517"><ele>110.5</ele><time>2026-04-18T15:03:19.001Z</time></trkpt><trkpt lat="43.481375975114965" lon="10.69040315775089"><ele>111.0</ele><time>2026-04-18T15:03:20.001Z</time></trkpt><trkpt lat="43.48140198484912" lon="10.69020780111139"><ele>111.0</ele><time>2026-04-18T15:03:21.001Z</time></trkpt><trkpt lat="43.48141732690684" lon="10.690009996051932"><ele>111.0</ele><time>2026-04-18T15:03:22.001Z</time></trkpt><trkpt lat="43.48142079763222" lon="10.68981891840884"><ele>111.0</ele><time>2026-04-18T15:03:23.001Z</time></trkpt><trkpt lat="43.48141397520671" lon="10.689619483378774"><ele>111.0</ele><time>2026-04-18T15:03:24.001Z</time></trkpt><trkpt lat="43.48140899249846" lon="10.689411003104786"><ele>111.75</ele><time>2026-04-18T15:03:25.001Z</time></trkpt><trkpt lat="43.48140343453446" lon="10.689204871874189"><ele>112.5</ele><time>2026-04-18T15:03:26.001Z</time></trkpt><trkpt lat="43.48139018453601" lon="10.689011072739742"><ele>113.25</ele><time>2026-04-18T15:03:27.001Z</time></trkpt><trkpt lat="43.481371484959794" lon="10.688828934364064"><ele>114.0</ele><time>2026-04-18T15:03:28.001Z</time></trkpt><trkpt lat="43.48135523502903" lon="10.688638266480082"><ele>115.0</ele><time>2026-04-18T15:03:29.001Z</time></trkpt><trkpt lat="43.481338599633965" lon="10.688451108314737"><ele>116.0</ele><time>2026-04-18T15:03:30.001Z</time></trkpt><trkpt lat="43.4813282040105" lon="10.688254654366114"><ele>117.0</ele><time>2026-04-18T15:03:31.001Z</time></trkpt><trkpt lat="43.48132511535593" lon="10.688059782724391"><ele>118.0</ele><time>2026-04-18T15:03:32.001Z</time></trkpt><trkpt lat="43.48133528110579" lon="10.687874869555195"><ele>117.75</ele><time>2026-04-18T15:03:33.001Z</time></trkpt><trkpt lat="43.48135657739686" lon="10.687690598580758"><ele>117.5</ele><time>2026-04-18T15:03:34.001Z</time></trkpt><trkpt lat="43.48138713024454" lon="10.687495921234929"><ele>117.25</ele><time>2026-04-18T15:03:35.001Z</time></trkpt><trkpt lat="43.48141912997861" lon="10.687279496845894"><ele>117.0</ele><time>2026-04-18T15:03:36.001Z</time></trkpt><trkpt lat="43.481453008652785" lon="10.687086417842261"><ele>116.25</ele><time>2026-04-18T15:03:37.001Z</time></trkpt><trkpt lat="43.48148582016605" lon="10.686889839370163"><ele>115.5</ele><time>2026-04-18T15:03:38.001Z</time></trkpt><trkpt lat="43.48152193731622" lon="10.68669125830253"><ele>114.75</ele><time>2026-04-18T15:03:39.001Z</time></trkpt><trkpt lat="43.481559555193265" lon="10.686495175079099"><ele>114.0</ele><time>2026-04-18T15:03:40.001Z</time></trkpt><trkpt lat="43.481603393964384" lon="10.686306651724939"><ele>114.0</ele><time>2026-04-18T15:03:41.001Z</time></trkpt><trkpt lat="43.48164888778702" lon="10.686124094797904"><ele>114.0</ele><time>2026-04-18T15:03:42.001Z</time></trkpt><trkpt lat="43.48168729141627" lon="10.685946336383584"><ele>114.0</ele><time>2026-04-18T15:03:43.001Z</time></trkpt><trkpt lat="43.48171738848945" lon="10.685766801025286"><ele>114.0</ele><time>2026-04-18T15:03:44.001Z</time></trkpt><trkpt lat="43.48172564063298" lon="10.685581193380619"><ele>113.75</ele><time>2026-04-18T15:03:45.001Z</time></trkpt><trkpt lat="43.481708780863244" lon="10.685397252126785"><ele>113.5</ele><time>2026-04-18T15:03:46.001Z</time></trkpt><trkpt lat="43.48168563767165" lon="10.685199304490483"><ele>113.25</ele><time>2026-04-18T15:03:47.001Z</time></trkpt><trkpt lat="43.48165879417964" lon="10.685032732878009"><ele>113.0</ele><time>2026-04-18T15:03:48.001Z</time></trkpt><trkpt lat="43.481619823942424" lon="10.68485733429353"><ele>113.5</ele><time>2026-04-18T15:03:49.001Z</time></trkpt><trkpt lat="43.48159634651943" lon="10.684685065569257"><ele>114.0</ele><time>2026-04-18T15:03:50.001Z</time></trkpt><trkpt lat="43.48156790635359" lon="10.684508563349823"><ele>114.5</ele><time>2026-04-18T15:03:51.001Z</time></trkpt><trkpt lat="43.4815266211426" lon="10.684341671536297"><ele>115.0</ele><time>2026-04-18T15:03:52.001Z</time></trkpt><trkpt lat="43.481481115480534" lon="10.68417170938728"><ele>115.25</ele><time>2026-04-18T15:03:53.001Z</time></trkpt><trkpt lat="43.481427062465954" lon="10.684006371941933"><ele>115.5</ele><time>2026-04-18T15:03:54.001Z</time></trkpt><trkpt lat="43.48136403607027" lon="10.683843321442184"><ele>115.75</ele><time>2026-04-18T15:03:55.001Z</time></trkpt><trkpt lat="43.48129675659017" lon="10.683661708805081"><ele>116.0</ele><time>2026-04-18T15:03:56.001Z</time></trkpt><trkpt lat="43.48122282146059" lon="10.683487575011013"><ele>116.0</ele><time>2026-04-18T15:03:57.001Z</time></trkpt><trkpt lat="43.48115907584866" lon="10.68332135333315"><ele>116.0</ele><time>2026-04-18T15:03:58.001Z</time></trkpt><trkpt lat="43.48112328803927" lon="10.683132895079305"><ele>116.0</ele><time>2026-04-18T15:03:59.001Z</time></trkpt><trkpt lat="43.481139008146656" lon="10.682935878867847"><ele>116.0</ele><time>2026-04-18T15:04:00.001Z</time></trkpt><trkpt lat="43.48114385750345" lon="10.682720324662418"><ele>116.66666666666666</ele><time>2026-04-18T15:04:01.001Z</time></trkpt><trkpt lat="43.481162037767504" lon="10.682511378988066"><ele>117.33333333333334</ele><time>2026-04-18T15:04:02.001Z</time></trkpt><trkpt lat="43.48117531226371" lon="10.68229580091845"><ele>118.0</ele><time>2026-04-18T15:04:03.001Z</time></trkpt><trkpt lat="43.48118864717731" lon="10.682071352569915"><ele>118.25</ele><time>2026-04-18T15:04:04.001Z</time></trkpt><trkpt lat="43.481192872060255" lon="10.681858228839443"><ele>118.5</ele><time>2026-04-18T15:04:05.001Z</time></trkpt><trkpt lat="43.481206802891286" lon="10.681660184081384"><ele>118.75</ele><time>2026-04-18T15:04:06.001Z</time></trkpt><trkpt lat="43.48123233788816" lon="10.681467445936805"><ele>119.0</ele><time>2026-04-18T15:04:07.001Z</time></trkpt><trkpt lat="43.481244583392936" lon="10.681258013075615"><ele>119.0</ele><time>2026-04-18T15:04:08.001Z</time></trkpt><trkpt lat="43.48125745405999" lon="10.681052192475367"><ele>119.0</ele><time>2026-04-18T15:04:09.001Z</time></trkpt><trkpt lat="43.48125751631482" lon="10.680849554933928"><ele>119.0</ele><time>2026-04-18T15:04:10.001Z</time></trkpt><trkpt lat="43.48127012401705" lon="10.680644925195237"><ele>119.0</ele><time>2026-04-18T15:04:11.001Z</time></trkpt><trkpt lat="43.481282347215846" lon="10.680451394242889"><ele>119.5</ele><time>2026-04-18T15:04:12.001Z</time></trkpt><trkpt lat="43.481293851199794" lon="10.680250780797405"><ele>120.0</ele><time>2026-04-18T15:04:13.001Z</time></trkpt><trkpt lat="43.48130196600995" lon="10.680051474767225"><ele>120.5</ele><time>2026-04-18T15:04:14.001Z</time></trkpt><trkpt lat="43.48131601962475" lon="10.67984918153476"><ele>121.0</ele><time>2026-04-18T15:04:15.001Z</time></trkpt><trkpt lat="43.481337516477495" lon="10.679646199585632"><ele>121.0</ele><time>2026-04-18T15:04:16.001Z</time></trkpt><trkpt lat="43.48134652948343" lon="10.67945001555339"><ele>121.0</ele><time>2026-04-18T15:04:17.001Z</time></trkpt><trkpt lat="43.48135474183442" lon="10.679248705922623"><ele>121.0</ele><time>2026-04-18T15:04:18.001Z</time></trkpt><trkpt lat="43.4813612783292" lon="10.67904687498435"><ele>121.0</ele><time>2026-04-18T15:04:19.001Z</time></trkpt><trkpt lat="43.48137547722394" lon="10.678839497219291"><ele>121.66666666666667</ele><time>2026-04-18T15:04:20.001Z</time></trkpt><trkpt lat="43.48138805225235" lon="10.678630924327184"><ele>122.33333333333334</ele><time>2026-04-18T15:04:21.001Z</time></trkpt><trkpt lat="43.48140177267271" lon="10.678421044788324"><ele>123.0</ele><time>2026-04-18T15:04:22.001Z</time></trkpt><trkpt lat="43.48142230395271" lon="10.678212389635503"><ele>123.66666666666666</ele><time>2026-04-18T15:04:23.002Z</time></trkpt><trkpt lat="43.48145578696268" lon="10.678006515252685"><ele>124.33333333333333</ele><time>2026-04-18T15:04:24.002Z</time></trkpt><trkpt lat="43.48150482898976" lon="10.677805275015976"><ele>125.0</ele><time>2026-04-18T15:04:25.002Z</time></trkpt><trkpt lat="43.48157380201796" lon="10.677593704273848"><ele>125.66666666666666</ele><time>2026-04-18T15:04:26.002Z</time></trkpt><trkpt lat="43.481642040921294" lon="10.677392146218367"><ele>126.33333333333334</ele><time>2026-04-18T15:04:27.002Z</time></trkpt><trkpt lat="43.481700362809235" lon="10.67718677750755"><ele>127.0</ele><time>2026-04-18T15:04:28.002Z</time></trkpt><trkpt lat="43.48176931299273" lon="10.676968630983156"><ele>128.0</ele><time>2026-04-18T15:04:29.002Z</time></trkpt><trkpt lat="43.481836604647015" lon="10.676761949612144"><ele>129.0</ele><time>2026-04-18T15:04:30.002Z</time></trkpt><trkpt lat="43.48190233737951" lon="10.676543277248626"><ele>130.0</ele><time>2026-04-18T15:04:31.002Z</time></trkpt><trkpt lat="43.48196985894543" lon="10.676318591488654"><ele>130.66666666666669</ele><time>2026-04-18T15:04:32.002Z</time></trkpt><trkpt lat="43.48203579319793" lon="10.676099481102872"><ele>131.33333333333334</ele><time>2026-04-18T15:04:33.002Z</time></trkpt><trkpt lat="43.4821044931327" lon="10.675884147978962"><ele>132.0</ele><time>2026-04-18T15:04:34.002Z</time></trkpt><trkpt lat="43.48217451657806" lon="10.675668356279601"><ele>132.66666666666666</ele><time>2026-04-18T15:04:35.002Z</time></trkpt><trkpt lat="43.48223854777877" lon="10.675461553242906"><ele>133.33333333333331</ele><time>2026-04-18T15:04:36.002Z</time></trkpt><trkpt lat="43.48229688924643" lon="10.675261038528523"><ele>134.0</ele><time>2026-04-18T15:04:37.002Z</time></trkpt><trkpt lat="43.48234180610987" lon="10.67506111965518"><ele>134.75</ele><time>2026-04-18T15:04:38.002Z</time></trkpt><trkpt lat="43.482371709421926" lon="10.674858517701363"><ele>135.5</ele><time>2026-04-18T15:04:39.002Z</time></trkpt><trkpt lat="43.482380928628785" lon="10.674656693692087"><ele>136.25</ele><time>2026-04-18T15:04:40.002Z</time></trkpt><trkpt lat="43.48236403979786" lon="10.674464937475111"><ele>137.0</ele><time>2026-04-18T15:04:41.002Z</time></trkpt><trkpt lat="43.48233926326513" lon="10.67426942170825"><ele>137.0</ele><time>2026-04-18T15:04:42.002Z</time></trkpt><trkpt lat="43.48229284767876" lon="10.674114498481623"><ele>137.0</ele><time>2026-04-18T15:04:43.002Z</time></trkpt><trkpt lat="43.482253537514524" lon="10.673994170196904"><ele>137.0</ele><time>2026-04-18T15:04:44.002Z</time></trkpt><trkpt lat="43.48221429218746" lon="10.673894374708194"><ele>137.0</ele><time>2026-04-18T15:04:45.002Z</time></trkpt><trkpt lat="43.48217846247708" lon="10.673762147466526"><ele>137.0</ele><time>2026-04-18T15:04:47.002Z</time></trkpt><trkpt lat="43.482045529274174" lon="10.673744112571764"><ele>137.0</ele><time>2026-04-18T15:04:49.002Z</time></trkpt><trkpt lat="43.48193063353975" lon="10.673728168169038"><ele>137.0</ele><time>2026-04-18T15:04:51.002Z</time></trkpt><trkpt lat="43.48180313934295" lon="10.673715231234434"><ele>137.0</ele><time>2026-04-18T15:04:53.002Z</time></trkpt><trkpt lat="43.481731600794234" lon="10.67369322157091"><ele>137.0</ele><time>2026-04-18T15:04:54.002Z</time></trkpt><trkpt lat="43.48165742683667" lon="10.673659106949724"><ele>137.0</ele><time>2026-04-18T15:04:55.002Z</time></trkpt><trkpt lat="43.48158700054419" lon="10.673604644188991"><ele>137.0</ele><time>2026-04-18T15:04:56.002Z</time></trkpt><trkpt lat="43.481527086596515" lon="10.673529773768735"><ele>137.0</ele><time>2026-04-18T15:04:57.002Z</time></trkpt><trkpt lat="43.481481534466056" lon="10.673437849154961"><ele>137.0</ele><time>2026-04-18T15:04:58.002Z</time></trkpt><trkpt lat="43.48144315913415" lon="10.673337879925748"><ele>137.0</ele><time>2026-04-18T15:04:59.002Z</time></trkpt><trkpt lat="43.48139831092796" lon="10.673229929715927"><ele>137.0</ele><time>2026-04-18T15:05:00.002Z</time></trkpt><trkpt lat="43.481362855706294" lon="10.673109721739916"><ele>137.0</ele><time>2026-04-18T15:05:01.002Z</time></trkpt><trkpt lat="43.481310518187186" lon="10.673007285071774"><ele>137.0</ele><time>2026-04-18T15:05:02.002Z</time></trkpt><trkpt lat="43.48128358315575" lon="10.672880865226581"><ele>137.0</ele><time>2026-04-18T15:05:03.002Z</time></trkpt><trkpt lat="43.48124285598875" lon="10.672758632156707"><ele>137.0</ele><time>2026-04-18T15:05:04.002Z</time></trkpt><trkpt lat="43.481209733583995" lon="10.672639751654085"><ele>137.0</ele><time>2026-04-18T15:05:05.002Z</time></trkpt><trkpt lat="43.48117596549803" lon="10.672515081478991"><ele>137.0</ele><time>2026-04-18T15:05:06.002Z</time></trkpt><trkpt lat="43.48114378162909" lon="10.672389452521555"><ele>138.4</ele><time>2026-04-18T15:05:07.002Z</time></trkpt><trkpt lat="43.48111517965253" lon="10.672269440161413"><ele>139.79999999999998</ele><time>2026-04-18T15:05:08.002Z</time></trkpt><trkpt lat="43.48108129528363" lon="10.672146175397325"><ele>141.2</ele><time>2026-04-18T15:05:09.002Z</time></trkpt><trkpt lat="43.48105215250729" lon="10.672016195784007"><ele>142.6</ele><time>2026-04-18T15:05:10.002Z</time></trkpt><trkpt lat="43.481022522208555" lon="10.671884461338019"><ele>144.0</ele><time>2026-04-18T15:05:11.002Z</time></trkpt><trkpt lat="43.48099590831621" lon="10.671766544852895"><ele>145.33333333333334</ele><time>2026-04-18T15:05:12.002Z</time></trkpt><trkpt lat="43.48096708773689" lon="10.67165689013012"><ele>146.66666666666666</ele><time>2026-04-18T15:05:13.002Z</time></trkpt><trkpt lat="43.48093874533312" lon="10.67154862127466"><ele>148.0</ele><time>2026-04-18T15:05:14.002Z</time></trkpt><trkpt lat="43.48091416923672" lon="10.67143668896451"><ele>149.33333333333331</ele><time>2026-04-18T15:05:15.002Z</time></trkpt><trkpt lat="43.480890491450076" lon="10.671330549322182"><ele>150.66666666666666</ele><time>2026-04-18T15:05:16.003Z</time></trkpt><trkpt lat="43.480866964281915" lon="10.671232482653538"><ele>152.0</ele><time>2026-04-18T15:05:17.003Z</time></trkpt><trkpt lat="43.48085769251478" lon="10.671129205261966"><ele>153.33333333333331</ele><time>2026-04-18T15:05:18.001Z</time></trkpt><trkpt lat="43.480859854057506" lon="10.671029353160865"><ele>154.66666666666666</ele><time>2026-04-18T15:05:19.001Z</time></trkpt><trkpt lat="43.4808752198149" lon="10.670936208974037"><ele>156.0</ele><time>2026-04-18T15:05:20.001Z</time></trkpt><trkpt lat="43.48090014131728" lon="10.670839571253552"><ele>157.33333333333334</ele><time>2026-04-18T15:05:21.001Z</time></trkpt><trkpt lat="43.48092477673409" lon="10.67073269799707"><ele>158.66666666666669</ele><time>2026-04-18T15:05:22.001Z</time></trkpt><trkpt lat="43.480945860132955" lon="10.670617904279947"><ele>160.0</ele><time>2026-04-18T15:05:23.001Z</time></trkpt><trkpt lat="43.48095335724981" lon="10.670501759151007"><ele>160.0</ele><time>2026-04-18T15:05:24.001Z</time></trkpt><trkpt lat="43.48093613221308" lon="10.67037528588902"><ele>160.0</ele><time>2026-04-18T15:05:25.001Z</time></trkpt><trkpt lat="43.48089607123039" lon="10.670253653591654"><ele>160.0</ele><time>2026-04-18T15:05:26.001Z</time></trkpt><trkpt lat="43.480834832941156" lon="10.67014114567531"><ele>160.0</ele><time>2026-04-18T15:05:27Z</time></trkpt><trkpt lat="43.48076940221285" lon="10.67002515086644"><ele>160.0</ele><time>2026-04-18T15:05:28Z</time></trkpt><trkpt lat="43.480702755479086" lon="10.66989468985151"><ele>159.5</ele><time>2026-04-18T15:05:29Z</time></trkpt><trkpt lat="43.48061257276744" lon="10.669765261575156"><ele>159.0</ele><time>2026-04-18T15:05:30Z</time></trkpt><trkpt lat="43.480513898110694" lon="10.669632839456137"><ele>158.5</ele><time>2026-04-18T15:05:31Z</time></trkpt><trkpt lat="43.48042439085692" lon="10.669481206821052"><ele>158.0</ele><time>2026-04-18T15:05:32Z</time></trkpt><trkpt lat="43.48033400131085" lon="10.669320057161539"><ele>157.25</ele><time>2026-04-18T15:05:33Z</time></trkpt><trkpt lat="43.480231572603216" lon="10.669153589124543"><ele>156.5</ele><time>2026-04-18T15:05:34Z</time></trkpt><trkpt lat="43.48014457789003" lon="10.668996828236107"><ele>155.75</ele><time>2026-04-18T15:05:35Z</time></trkpt><trkpt lat="43.48006266283865" lon="10.668856810964513"><ele>155.0</ele><time>2026-04-18T15:05:36Z</time></trkpt><trkpt lat="43.4799969117124" lon="10.66871241154483"><ele>153.8</ele><time>2026-04-18T15:05:37Z</time></trkpt><trkpt lat="43.47994342071094" lon="10.66859301387092"><ele>152.6</ele><time>2026-04-18T15:05:38Z</time></trkpt><trkpt lat="43.479884314626915" lon="10.668495375956537"><ele>151.4</ele><time>2026-04-18T15:05:39Z</time></trkpt><trkpt lat="43.47981703573977" lon="10.668387301853508"><ele>150.2</ele><time>2026-04-18T15:05:40.001Z</time></trkpt><trkpt lat="43.47972831539515" lon="10.6683154031778"><ele>149.0</ele><time>2026-04-18T15:05:41.001Z</time></trkpt><trkpt lat="43.47963749965955" lon="10.6682809116818"><ele>150.16666666666666</ele><time>2026-04-18T15:05:42.001Z</time></trkpt><trkpt lat="43.47955043273439" lon="10.66828318269046"><ele>151.33333333333331</ele><time>2026-04-18T15:05:43.001Z</time></trkpt><trkpt lat="43.47946299810862" lon="10.668321293548088"><ele>152.5</ele><time>2026-04-18T15:05:44.001Z</time></trkpt><trkpt lat="43.47938717604851" lon="10.668377724789666"><ele>153.66666666666666</ele><time>2026-04-18T15:05:45.001Z</time></trkpt><trkpt lat="43.47931361829532" lon="10.668436460512382"><ele>154.83333333333334</ele><time>2026-04-18T15:05:46.001Z</time></trkpt><trkpt lat="43.479238545834086" lon="10.668495544841795"><ele>156.0</ele><time>2026-04-18T15:05:47.001Z</time></trkpt><trkpt lat="43.479159357761226" lon="10.668544003899898"><ele>156.0</ele><time>2026-04-18T15:05:48.001Z</time></trkpt><trkpt lat="43.47907660886042" lon="10.66856417830897"><ele>156.0</ele><time>2026-04-18T15:05:49.001Z</time></trkpt><trkpt lat="43.478997247874204" lon="10.668569007858277"><ele>156.0</ele><time>2026-04-18T15:05:50.001Z</time></trkpt><trkpt lat="43.478905660486724" lon="10.668559338641037"><ele>156.0</ele><time>2026-04-18T15:05:51.001Z</time></trkpt><trkpt lat="43.47881325777434" lon="10.668547344503295"><ele>156.0</ele><time>2026-04-18T15:05:52.001Z</time></trkpt><trkpt lat="43.478717602375546" lon="10.668528309801957"><ele>156.0</ele><time>2026-04-18T15:05:53.001Z</time></trkpt><trkpt lat="43.47861634278841" lon="10.668497841350536"><ele>156.0</ele><time>2026-04-18T15:05:54.001Z</time></trkpt><trkpt lat="43.478512234034845" lon="10.66846816122993"><ele>156.0</ele><time>2026-04-18T15:05:55.001Z</time></trkpt><trkpt lat="43.47841392178054" lon="10.668432352338934"><ele>156.0</ele><time>2026-04-18T15:05:56.001Z</time></trkpt><trkpt lat="43.478311316318646" lon="10.668419571089972"><ele>156.0</ele><time>2026-04-18T15:05:57.001Z</time></trkpt><trkpt lat="43.478207768145126" lon="10.66837971883671"><ele>156.0</ele><time>2026-04-18T15:05:58.001Z</time></trkpt><trkpt lat="43.47810572982724" lon="10.668348268605431"><ele>156.0</ele><time>2026-04-18T15:05:59.001Z</time></trkpt><trkpt lat="43.478003030753385" lon="10.668324519724218"><ele>156.0</ele><time>2026-04-18T15:06:00.001Z</time></trkpt><trkpt lat="43.47789911466742" lon="10.668320160082233"><ele>156.0</ele><time>2026-04-18T15:06:01.001Z</time></trkpt><trkpt lat="43.47779321549587" lon="10.668322815631837"><ele>156.0</ele><time>2026-04-18T15:06:02.001Z</time></trkpt><trkpt lat="43.4776870420573" lon="10.668348314239836"><ele>156.0</ele><time>2026-04-18T15:06:03.001Z</time></trkpt><trkpt lat="43.477577840122706" lon="10.668379344767876"><ele>156.0</ele><time>2026-04-18T15:06:04.001Z</time></trkpt><trkpt lat="43.47747265263733" lon="10.668401062676761"><ele>156.0</ele><time>2026-04-18T15:06:05.001Z</time></trkpt><trkpt lat="43.477374788564795" lon="10.668424982025002"><ele>156.0</ele><time>2026-04-18T15:06:06.001Z</time></trkpt><trkpt lat="43.47726575109161" lon="10.668446327217552"><ele>156.0</ele><time>2026-04-18T15:06:07.001Z</time></trkpt><trkpt lat="43.477149077566054" lon="10.668473056950772"><ele>156.0</ele><time>2026-04-18T15:06:08.001Z</time></trkpt><trkpt lat="43.477029137318944" lon="10.668498662383891"><ele>156.0</ele><time>2026-04-18T15:06:09.001Z</time></trkpt><trkpt lat="43.47690591502467" lon="10.668533248029624"><ele>156.0</ele><time>2026-04-18T15:06:10.001Z</time></trkpt><trkpt lat="43.47678367800996" lon="10.668573386639983"><ele>156.0</ele><time>2026-04-18T15:06:11.001Z</time></trkpt><trkpt lat="43.476662769319134" lon="10.668611517063965"><ele>156.0</ele><time>2026-04-18T15:06:12.001Z</time></trkpt><trkpt lat="43.476542946986555" lon="10.668647000942022"><ele>156.0</ele><time>2026-04-18T15:06:13.001Z</time></trkpt><trkpt lat="43.4764235227088" lon="10.66868467172285"><ele>156.0</ele><time>2026-04-18T15:06:14.001Z</time></trkpt><trkpt lat="43.47630081874981" lon="10.668719831563962"><ele>156.0</ele><time>2026-04-18T15:06:15.001Z</time></trkpt><trkpt lat="43.4761797025718" lon="10.668757150023024"><ele>156.0</ele><time>2026-04-18T15:06:16.001Z</time></trkpt><trkpt lat="43.476064302979275" lon="10.668789984594651"><ele>156.0</ele><time>2026-04-18T15:06:17.001Z</time></trkpt><trkpt lat="43.47595393455581" lon="10.668824246394793"><ele>156.0</ele><time>2026-04-18T15:06:18.001Z</time></trkpt><trkpt lat="43.47585520733466" lon="10.66884894230358"><ele>156.0</ele><time>2026-04-18T15:06:19.001Z</time></trkpt><trkpt lat="43.47576920200072" lon="10.668874753580534"><ele>156.0</ele><time>2026-04-18T15:06:20.001Z</time></trkpt><trkpt lat="43.47569682691249" lon="10.668899849383505"><ele>156.0</ele><time>2026-04-18T15:06:21.001Z</time></trkpt><trkpt lat="43.47562536397932" lon="10.668918806476851"><ele>156.0</ele><time>2026-04-18T15:06:22.001Z</time></trkpt><trkpt lat="43.47555892364262" lon="10.668933855137581"><ele>156.0</ele><time>2026-04-18T15:06:23.001Z</time></trkpt><trkpt lat="43.475440165773485" lon="10.668956598153464"><ele>156.0</ele><time>2026-04-18T15:06:25.001Z</time></trkpt><trkpt lat="43.47536527671966" lon="10.668945544053068"><ele>156.0</ele><time>2026-04-18T15:06:26.001Z</time></trkpt><trkpt lat="43.475288571940474" lon="10.668923776859655"><ele>156.0</ele><time>2026-04-18T15:06:27.001Z</time></trkpt><trkpt lat="43.47522017398611" lon="10.668879613672484"><ele>156.0</ele><time>2026-04-18T15:06:28.001Z</time></trkpt><trkpt lat="43.47516285531593" lon="10.668811766858674"><ele>156.0</ele><time>2026-04-18T15:06:29.001Z</time></trkpt><trkpt lat="43.47510291796143" lon="10.668739422115415"><ele>157.66666666666666</ele><time>2026-04-18T15:06:30.001Z</time></trkpt><trkpt lat="43.47503972089941" lon="10.66867019966755"><ele>159.33333333333334</ele><time>2026-04-18T15:06:31.001Z</time></trkpt><trkpt lat="43.47497480731866" lon="10.668597844011522"><ele>161.0</ele><time>2026-04-18T15:06:32.001Z</time></trkpt><trkpt lat="43.47490594421399" lon="10.668527759965466"><ele>162.66666666666669</ele><time>2026-04-18T15:06:33.001Z</time></trkpt><trkpt lat="43.47482355949309" lon="10.668467562069644"><ele>164.33333333333334</ele><time>2026-04-18T15:06:34.001Z</time></trkpt><trkpt lat="43.47473093225762" lon="10.66841448907817"><ele>166.0</ele><time>2026-04-18T15:06:35.001Z</time></trkpt><trkpt lat="43.474640288713424" lon="10.668374260924388"><ele>167.0</ele><time>2026-04-18T15:06:36.001Z</time></trkpt><trkpt lat="43.47455392732238" lon="10.668321714631762"><ele>168.0</ele><time>2026-04-18T15:06:37.001Z</time></trkpt><trkpt lat="43.47446512052667" lon="10.668267971190076"><ele>169.0</ele><time>2026-04-18T15:06:38.001Z</time></trkpt><trkpt lat="43.474364543957236" lon="10.668227131046342"><ele>170.0</ele><time>2026-04-18T15:06:39.001Z</time></trkpt><trkpt lat="43.474261623763454" lon="10.668181185743697"><ele>171.0</ele><time>2026-04-18T15:06:40.001Z</time></trkpt><trkpt lat="43.47415586577485" lon="10.668129570523195"><ele>171.0</ele><time>2026-04-18T15:06:41.001Z</time></trkpt><trkpt lat="43.4740497970589" lon="10.668087740963195"><ele>171.0</ele><time>2026-04-18T15:06:42.001Z</time></trkpt><trkpt lat="43.47394889828029" lon="10.668033628114049"><ele>171.0</ele><time>2026-04-18T15:06:43.002Z</time></trkpt><trkpt lat="43.473845534466015" lon="10.66799303814586"><ele>171.0</ele><time>2026-04-18T15:06:44.002Z</time></trkpt><trkpt lat="43.47374787215479" lon="10.667949652999944"><ele>171.0</ele><time>2026-04-18T15:06:45.002Z</time></trkpt><trkpt lat="43.47365741024035" lon="10.667897495280574"><ele>171.8</ele><time>2026-04-18T15:06:46.002Z</time></trkpt><trkpt lat="43.473565841538125" lon="10.66784714232379"><ele>172.60000000000002</ele><time>2026-04-18T15:06:47.002Z</time></trkpt><trkpt lat="43.47347240884579" lon="10.667803931400575"><ele>173.4</ele><time>2026-04-18T15:06:48.002Z</time></trkpt><trkpt lat="43.47337862306516" lon="10.667758295639196"><ele>174.2</ele><time>2026-04-18T15:06:49.002Z</time></trkpt><trkpt lat="43.47329054936791" lon="10.667698942397026"><ele>175.0</ele><time>2026-04-18T15:06:50.002Z</time></trkpt><trkpt lat="43.473208351222084" lon="10.667612296912129"><ele>175.83333333333334</ele><time>2026-04-18T15:06:51.002Z</time></trkpt><trkpt lat="43.473144215237014" lon="10.667518059953098"><ele>176.66666666666669</ele><time>2026-04-18T15:06:52.002Z</time></trkpt><trkpt lat="43.4730808580387" lon="10.667410490530694"><ele>177.5</ele><time>2026-04-18T15:06:53.002Z</time></trkpt><trkpt lat="43.473040493954024" lon="10.667306618229269"><ele>178.33333333333334</ele><time>2026-04-18T15:06:54.002Z</time></trkpt><trkpt lat="43.47299853456818" lon="10.667202653438116"><ele>179.16666666666666</ele><time>2026-04-18T15:06:55.002Z</time></trkpt><trkpt lat="43.472960223275265" lon="10.66710574647675"><ele>180.0</ele><time>2026-04-18T15:06:56.002Z</time></trkpt><trkpt lat="43.47290607058185" lon="10.6670187552625"><ele>181.4</ele><time>2026-04-18T15:06:57.002Z</time></trkpt><trkpt lat="43.472839985431705" lon="10.666940296330125"><ele>182.8</ele><time>2026-04-18T15:06:58.002Z</time></trkpt><trkpt lat="43.47277558293252" lon="10.666854827885656"><ele>184.2</ele><time>2026-04-18T15:06:59.002Z</time></trkpt><trkpt lat="43.4726949987266" lon="10.666780407410052"><ele>185.6</ele><time>2026-04-18T15:07:00.002Z</time></trkpt><trkpt lat="43.472606368153365" lon="10.666706596014071"><ele>187.0</ele><time>2026-04-18T15:07:01.002Z</time></trkpt><trkpt lat="43.472508197278486" lon="10.666646479420338"><ele>187.0</ele><time>2026-04-18T15:07:02.002Z</time></trkpt><trkpt lat="43.472414315934195" lon="10.666568018982089"><ele>187.0</ele><time>2026-04-18T15:07:03.002Z</time></trkpt><trkpt lat="43.47230693217351" lon="10.666490599877639"><ele>187.0</ele><time>2026-04-18T15:07:04.002Z</time></trkpt><trkpt lat="43.472196484278186" lon="10.666405253994645"><ele>187.0</ele><time>2026-04-18T15:07:05.002Z</time></trkpt><trkpt lat="43.47208571868969" lon="10.66631610586489"><ele>186.75</ele><time>2026-04-18T15:07:06.002Z</time></trkpt><trkpt lat="43.471977565354514" lon="10.666228959673106"><ele>186.5</ele><time>2026-04-18T15:07:07.002Z</time></trkpt><trkpt lat="43.47186372917772" lon="10.666146669576175"><ele>186.25</ele><time>2026-04-18T15:07:08.002Z</time></trkpt><trkpt lat="43.47175002888967" lon="10.666064571871111"><ele>186.0</ele><time>2026-04-18T15:07:09.002Z</time></trkpt><trkpt lat="43.471640187508086" lon="10.665979494860826"><ele>187.5</ele><time>2026-04-18T15:07:10.002Z</time></trkpt><trkpt lat="43.47152635771085" lon="10.665879110911364"><ele>189.0</ele><time>2026-04-18T15:07:11.002Z</time></trkpt><trkpt lat="43.47140987268421" lon="10.665781045372853"><ele>190.5</ele><time>2026-04-18T15:07:12.002Z</time></trkpt><trkpt lat="43.471295110886636" lon="10.66569360239018"><ele>192.0</ele><time>2026-04-18T15:07:13.002Z</time></trkpt><trkpt lat="43.4711806397524" lon="10.665606641846804"><ele>192.5</ele><time>2026-04-18T15:07:14.002Z</time></trkpt><trkpt lat="43.47107164794765" lon="10.665524956892288"><ele>193.0</ele><time>2026-04-18T15:07:15.002Z</time></trkpt><trkpt lat="43.470959353331786" lon="10.665446047983744"><ele>193.5</ele><time>2026-04-18T15:07:16.002Z</time></trkpt><trkpt lat="43.47086855466826" lon="10.665378753800073"><ele>194.0</ele><time>2026-04-18T15:07:17.002Z</time></trkpt><trkpt lat="43.47077983636158" lon="10.665308997158888"><ele>195.39999999999998</ele><time>2026-04-18T15:07:18.002Z</time></trkpt><trkpt lat="43.47070074262465" lon="10.665230252601942"><ele>196.8</ele><time>2026-04-18T15:07:19.002Z</time></trkpt><trkpt lat="43.47064232685103" lon="10.665141663833484"><ele>198.2</ele><time>2026-04-18T15:07:20.002Z</time></trkpt><trkpt lat="43.4705876714953" lon="10.665038063122058"><ele>199.60000000000002</ele><time>2026-04-18T15:07:21.002Z</time></trkpt><trkpt lat="43.47053727318854" lon="10.664925999954583"><ele>201.0</ele><time>2026-04-18T15:07:22.002Z</time></trkpt><trkpt lat="43.47048350964251" lon="10.664813429566616"><ele>203.66666666666666</ele><time>2026-04-18T15:07:23.002Z</time></trkpt><trkpt lat="43.470429532489106" lon="10.66470552300466"><ele>206.33333333333331</ele><time>2026-04-18T15:07:24Z</time></trkpt><trkpt lat="43.47038190403474" lon="10.66460669313102"><ele>209.0</ele><time>2026-04-18T15:07:25Z</time></trkpt><trkpt lat="43.470341428033976" lon="10.664500067479498"><ele>211.66666666666666</ele><time>2026-04-18T15:07:26Z</time></trkpt><trkpt lat="43.47030753892561" lon="10.664399791386666"><ele>214.33333333333331</ele><time>2026-04-18T15:07:27Z</time></trkpt><trkpt lat="43.470280914262325" lon="10.664300627285717"><ele>217.0</ele><time>2026-04-18T15:07:28Z</time></trkpt><trkpt lat="43.47026925369598" lon="10.664200056776433"><ele>217.28571428571428</ele><time>2026-04-18T15:07:29Z</time></trkpt><trkpt lat="43.47026232062434" lon="10.66410596831425"><ele>217.57142857142856</ele><time>2026-04-18T15:07:30Z</time></trkpt><trkpt lat="43.470268639120455" lon="10.664009886672428"><ele>217.85714285714286</ele><time>2026-04-18T15:07:31Z</time></trkpt><trkpt lat="43.47027595011827" lon="10.663912607507262"><ele>218.14285714285714</ele><time>2026-04-18T15:07:32Z</time></trkpt><trkpt lat="43.47028117316762" lon="10.66381297042895"><ele>218.42857142857142</ele><time>2026-04-18T15:07:33Z</time></trkpt><trkpt lat="43.470289255473226" lon="10.66371552204963"><ele>218.71428571428572</ele><time>2026-04-18T15:07:34Z</time></trkpt><trkpt lat="43.47029350659487" lon="10.663611030583347"><ele>219.0</ele><time>2026-04-18T15:07:35Z</time></trkpt><trkpt lat="43.47029102332459" lon="10.66350623950529"><ele>220.0</ele><time>2026-04-18T15:07:36Z</time></trkpt><trkpt lat="43.47030375926298" lon="10.66339013402482"><ele>220.99999999999997</ele><time>2026-04-18T15:07:37Z</time></trkpt><trkpt lat="43.470295192155135" lon="10.663274605710237"><ele>221.99999999999997</ele><time>2026-04-18T15:07:38Z</time></trkpt><trkpt lat="43.47026291211191" lon="10.663146173858552"><ele>223.0</ele><time>2026-04-18T15:07:39Z</time></trkpt><trkpt lat="43.470194656504944" lon="10.663051298254542"><ele>224.0</ele><time>2026-04-18T15:07:40Z</time></trkpt><trkpt lat="43.470126469639965" lon="10.662960041767661"><ele>224.00000000000003</ele><time>2026-04-18T15:07:41Z</time></trkpt><trkpt lat="43.47005929534065" lon="10.662872920377325"><ele>224.0</ele><time>2026-04-18T15:07:42Z</time></trkpt><trkpt lat="43.46999546469463" lon="10.66277616116544"><ele>224.0</ele><time>2026-04-18T15:07:43Z</time></trkpt><trkpt lat="43.469925197567754" lon="10.662694898469189"><ele>224.0</ele><time>2026-04-18T15:07:44Z</time></trkpt><trkpt lat="43.46985758359273" lon="10.662617514890458"><ele>224.00000000000003</ele><time>2026-04-18T15:07:45Z</time></trkpt><trkpt lat="43.46980959078721" lon="10.662526948666834"><ele>224.0</ele><time>2026-04-18T15:07:46Z</time></trkpt><trkpt lat="43.46974072984619" lon="10.66244065698891"><ele>224.79999999999998</ele><time>2026-04-18T15:07:47Z</time></trkpt><trkpt lat="43.46967573727981" lon="10.662361019167733"><ele>225.59999999999997</ele><time>2026-04-18T15:07:48Z</time></trkpt><trkpt lat="43.469594132855654" lon="10.662281394420384"><ele>226.4</ele><time>2026-04-18T15:07:49Z</time></trkpt><trkpt lat="43.46952521285159" lon="10.662197354884354"><ele>227.2</ele><time>2026-04-18T15:07:50Z</time></trkpt><trkpt lat="43.469464870170874" lon="10.662114397143043"><ele>228.0</ele><time>2026-04-18T15:07:51Z</time></trkpt><trkpt lat="43.46940309071337" lon="10.662017049933658"><ele>229.2</ele><time>2026-04-18T15:07:52Z</time></trkpt><trkpt lat="43.46933431864309" lon="10.661935420745033"><ele>230.4</ele><time>2026-04-18T15:07:53Z</time></trkpt><trkpt lat="43.469286371466936" lon="10.661827280467453"><ele>231.59999999999997</ele><time>2026-04-18T15:07:54.001Z</time></trkpt><trkpt lat="43.46922936608486" lon="10.661710250991899"><ele>232.79999999999998</ele><time>2026-04-18T15:07:55.001Z</time></trkpt><trkpt lat="43.469167340923555" lon="10.661586908626997"><ele>234.0</ele><time>2026-04-18T15:07:56.001Z</time></trkpt><trkpt lat="43.46911132791033" lon="10.661462426197962"><ele>234.0</ele><time>2026-04-18T15:07:57.001Z</time></trkpt><trkpt lat="43.46905540691909" lon="10.661332551528961"><ele>233.99999999999997</ele><time>2026-04-18T15:07:58.001Z</time></trkpt><trkpt lat="43.469000211013416" lon="10.661201037538714"><ele>233.99999999999997</ele><time>2026-04-18T15:07:59.001Z</time></trkpt><trkpt lat="43.468940430318696" lon="10.661065199006194"><ele>234.0</ele><time>2026-04-18T15:08:00.001Z</time></trkpt><trkpt lat="43.4688805706993" lon="10.660932807665146"><ele>234.0</ele><time>2026-04-18T15:08:01.001Z</time></trkpt><trkpt lat="43.46880946236154" lon="10.66080353110133"><ele>234.5</ele><time>2026-04-18T15:08:02.001Z</time></trkpt><trkpt lat="43.468751843462854" lon="10.660665250027776"><ele>235.0</ele><time>2026-04-18T15:08:03.001Z</time></trkpt><trkpt lat="43.468667838079185" lon="10.660550710929977"><ele>235.5</ele><time>2026-04-18T15:08:04.001Z</time></trkpt><trkpt lat="43.4685888798433" lon="10.660433783192685"><ele>236.0</ele><time>2026-04-18T15:08:05.001Z</time></trkpt><trkpt lat="43.46851375463752" lon="10.660320084156396"><ele>237.60000000000002</ele><time>2026-04-18T15:08:06.001Z</time></trkpt><trkpt lat="43.46843911181385" lon="10.660210972626151"><ele>239.20000000000002</ele><time>2026-04-18T15:08:07.001Z</time></trkpt><trkpt lat="43.46836644822803" lon="10.660102123688336"><ele>240.79999999999998</ele><time>2026-04-18T15:08:08.001Z</time></trkpt><trkpt lat="43.46828804222856" lon="10.659994644499802"><ele>242.39999999999998</ele><time>2026-04-18T15:08:09.001Z</time></trkpt><trkpt lat="43.468207904250164" lon="10.659883282636425"><ele>244.0</ele><time>2026-04-18T15:08:10.001Z</time></trkpt><trkpt lat="43.46812838715375" lon="10.659768505760015"><ele>244.0</ele><time>2026-04-18T15:08:11.001Z</time></trkpt><trkpt lat="43.46804801803038" lon="10.659661006191106"><ele>243.99999999999997</ele><time>2026-04-18T15:08:12.001Z</time></trkpt><trkpt lat="43.4679709285967" lon="10.65954986317068"><ele>243.99999999999997</ele><time>2026-04-18T15:08:13.001Z</time></trkpt><trkpt lat="43.467894267685494" lon="10.659443595709934"><ele>244.0</ele><time>2026-04-18T15:08:14.001Z</time></trkpt><trkpt lat="43.46782107267269" lon="10.659335748319753"><ele>244.0</ele><time>2026-04-18T15:08:15.001Z</time></trkpt><trkpt lat="43.46774763149275" lon="10.659238851073727"><ele>246.6</ele><time>2026-04-18T15:08:16.001Z</time></trkpt><trkpt lat="43.46767722303479" lon="10.659145821925927"><ele>249.2</ele><time>2026-04-18T15:08:17.001Z</time></trkpt><trkpt lat="43.46761717214106" lon="10.659057486861395"><ele>251.79999999999998</ele><time>2026-04-18T15:08:18.001Z</time></trkpt><trkpt lat="43.46754824128048" lon="10.658969440080753"><ele>254.39999999999998</ele><time>2026-04-18T15:08:19.001Z</time></trkpt><trkpt lat="43.46747502734758" lon="10.658882931204738"><ele>257.0</ele><time>2026-04-18T15:08:20.001Z</time></trkpt><trkpt lat="43.46739934140371" lon="10.658807419526719"><ele>257.0</ele><time>2026-04-18T15:08:21.001Z</time></trkpt><trkpt lat="43.46732426587219" lon="10.658723626188754"><ele>257.0</ele><time>2026-04-18T15:08:22.001Z</time></trkpt><trkpt lat="43.46724699042477" lon="10.658640578647287"><ele>257.0</ele><time>2026-04-18T15:08:23.001Z</time></trkpt><trkpt lat="43.4671701833921" lon="10.658559083125766"><ele>257.0</ele><time>2026-04-18T15:08:24.001Z</time></trkpt><trkpt lat="43.46708860040769" lon="10.658472258287608"><ele>257.0</ele><time>2026-04-18T15:08:25.001Z</time></trkpt><trkpt lat="43.46700589504633" lon="10.658380381429396"><ele>259.6</ele><time>2026-04-18T15:08:26.001Z</time></trkpt><trkpt lat="43.46692099523297" lon="10.658288000814267"><ele>262.2</ele><time>2026-04-18T15:08:27.001Z</time></trkpt><trkpt lat="43.466832763330096" lon="10.658194874358415"><ele>264.8</ele><time>2026-04-18T15:08:28.001Z</time></trkpt><trkpt lat="43.46674608591693" lon="10.658103260089717"><ele>267.4</ele><time>2026-04-18T15:08:29.001Z</time></trkpt><trkpt lat="43.46666226092175" lon="10.658008724294156"><ele>270.0</ele><time>2026-04-18T15:08:30.001Z</time></trkpt><trkpt lat="43.46658249326829" lon="10.657931595101992"><ele>270.0</ele><time>2026-04-18T15:08:31.001Z</time></trkpt><trkpt lat="43.46650478329511" lon="10.657857154077357"><ele>270.0</ele><time>2026-04-18T15:08:32.001Z</time></trkpt><trkpt lat="43.466437802288986" lon="10.657781874359587"><ele>270.0</ele><time>2026-04-18T15:08:33.001Z</time></trkpt><trkpt lat="43.46636914352454" lon="10.65770395372523"><ele>270.0</ele><time>2026-04-18T15:08:34.001Z</time></trkpt><trkpt lat="43.46630868490632" lon="10.65761947058241"><ele>270.0</ele><time>2026-04-18T15:08:35.001Z</time></trkpt><trkpt lat="43.46626420858046" lon="10.657520676001559"><ele>270.0</ele><time>2026-04-18T15:08:36.001Z</time></trkpt><trkpt lat="43.46623404366865" lon="10.657416892752217"><ele>271.0</ele><time>2026-04-18T15:08:37.001Z</time></trkpt><trkpt lat="43.46621185040976" lon="10.657314852643184"><ele>272.0</ele><time>2026-04-18T15:08:38.001Z</time></trkpt><trkpt lat="43.466189675812124" lon="10.657211450485248"><ele>273.0</ele><time>2026-04-18T15:08:39.001Z</time></trkpt><trkpt lat="43.466168800588655" lon="10.657107855902591"><ele>274.0</ele><time>2026-04-18T15:08:40.001Z</time></trkpt><trkpt lat="43.46614698524636" lon="10.657006320868772"><ele>275.0</ele><time>2026-04-18T15:08:41.001Z</time></trkpt><trkpt lat="43.46612526988775" lon="10.656904582397651"><ele>276.0</ele><time>2026-04-18T15:08:42.001Z</time></trkpt><trkpt lat="43.466094887908255" lon="10.656812369855801"><ele>276.8333333333333</ele><time>2026-04-18T15:08:43.001Z</time></trkpt><trkpt lat="43.46607468003606" lon="10.656713174363484"><ele>277.6666666666667</ele><time>2026-04-18T15:08:44.001Z</time></trkpt><trkpt lat="43.466051009051895" lon="10.656615456037086"><ele>278.5</ele><time>2026-04-18T15:08:45.001Z</time></trkpt><trkpt lat="43.46603055926126" lon="10.656513828373367"><ele>279.33333333333337</ele><time>2026-04-18T15:08:46.001Z</time></trkpt><trkpt lat="43.46600714062827" lon="10.656415868763906"><ele>280.1666666666667</ele><time>2026-04-18T15:08:47.001Z</time></trkpt><trkpt lat="43.46599344106706" lon="10.656317790610906"><ele>281.0</ele><time>2026-04-18T15:08:48.001Z</time></trkpt><trkpt lat="43.465958958940554" lon="10.656221967516393"><ele>281.0</ele><time>2026-04-18T15:08:49.001Z</time></trkpt><trkpt lat="43.46594270781703" lon="10.656125612284075"><ele>281.0</ele><time>2026-04-18T15:08:50.001Z</time></trkpt><trkpt lat="43.465922058406605" lon="10.656018959750263"><ele>281.0</ele><time>2026-04-18T15:08:51.001Z</time></trkpt><trkpt lat="43.465900081086545" lon="10.655914151363875"><ele>281.0</ele><time>2026-04-18T15:08:52.001Z</time></trkpt><trkpt lat="43.46587734737017" lon="10.655807095562803"><ele>281.0</ele><time>2026-04-18T15:08:53.001Z</time></trkpt><trkpt lat="43.46585126690321" lon="10.655701237807712"><ele>281.0</ele><time>2026-04-18T15:08:54.001Z</time></trkpt><trkpt lat="43.46582428965442" lon="10.655595364126212"><ele>282.0</ele><time>2026-04-18T15:08:55.001Z</time></trkpt><trkpt lat="43.4657977735209" lon="10.655492820241767"><ele>283.0</ele><time>2026-04-18T15:08:56.001Z</time></trkpt><trkpt lat="43.46577034541162" lon="10.655379645567661"><ele>284.0</ele><time>2026-04-18T15:08:57.001Z</time></trkpt><trkpt lat="43.46574636807846" lon="10.655264187702242"><ele>285.0</ele><time>2026-04-18T15:08:58.002Z</time></trkpt><trkpt lat="43.465718381815606" lon="10.655146587518171"><ele>286.0</ele><time>2026-04-18T15:08:59.002Z</time></trkpt><trkpt lat="43.465694750498" lon="10.655030206829647"><ele>287.0</ele><time>2026-04-18T15:09:00.002Z</time></trkpt><trkpt lat="43.46566677883084" lon="10.654911284627847"><ele>287.8</ele><time>2026-04-18T15:09:01.002Z</time></trkpt><trkpt lat="43.46563531349746" lon="10.654791103729991"><ele>288.6</ele><time>2026-04-18T15:09:02.002Z</time></trkpt><trkpt lat="43.465606268351884" lon="10.654669744197177"><ele>289.40000000000003</ele><time>2026-04-18T15:09:03.002Z</time></trkpt><trkpt lat="43.465576774050504" lon="10.654547410769775"><ele>290.2</ele><time>2026-04-18T15:09:04.002Z</time></trkpt><trkpt lat="43.46554460441111" lon="10.65442221611353"><ele>291.0</ele><time>2026-04-18T15:09:05.002Z</time></trkpt><trkpt lat="43.465514556778" lon="10.654290646895783"><ele>291.8</ele><time>2026-04-18T15:09:06.002Z</time></trkpt><trkpt lat="43.465487261180435" lon="10.654163008930764"><ele>292.6</ele><time>2026-04-18T15:09:07.002Z</time></trkpt><trkpt lat="43.46545627700157" lon="10.654035413771187"><ele>293.4</ele><time>2026-04-18T15:09:08.002Z</time></trkpt><trkpt lat="43.465431642572675" lon="10.653904583661335"><ele>294.2</ele><time>2026-04-18T15:09:09.002Z</time></trkpt><trkpt lat="43.465404708749965" lon="10.653776169214732"><ele>295.0</ele><time>2026-04-18T15:09:10.002Z</time></trkpt><trkpt lat="43.46537471463879" lon="10.653652849482452"><ele>296.2</ele><time>2026-04-18T15:09:11.002Z</time></trkpt><trkpt lat="43.46534373570108" lon="10.653526419290234"><ele>297.4</ele><time>2026-04-18T15:09:12.002Z</time></trkpt><trkpt lat="43.465311006858215" lon="10.653399447945"><ele>298.6</ele><time>2026-04-18T15:09:13.002Z</time></trkpt><trkpt lat="43.46527851524373" lon="10.653272710034031"><ele>299.8</ele><time>2026-04-18T15:09:14.002Z</time></trkpt><trkpt lat="43.46525830994116" lon="10.653144265007167"><ele>301.0</ele><time>2026-04-18T15:09:15.002Z</time></trkpt><trkpt lat="43.46521353429704" lon="10.65301529355193"><ele>301.0</ele><time>2026-04-18T15:09:16.002Z</time></trkpt><trkpt lat="43.46518481817295" lon="10.652887787882428"><ele>301.0</ele><time>2026-04-18T15:09:17.002Z</time></trkpt><trkpt lat="43.465150481693364" lon="10.652760734490714"><ele>301.0</ele><time>2026-04-18T15:09:18.002Z</time></trkpt><trkpt lat="43.46512461067986" lon="10.652638896383339"><ele>301.0</ele><time>2026-04-18T15:09:19.002Z</time></trkpt><trkpt lat="43.465110163720276" lon="10.65251773892186"><ele>301.0</ele><time>2026-04-18T15:09:20.002Z</time></trkpt><trkpt lat="43.46513329794516" lon="10.65240550820951"><ele>301.5</ele><time>2026-04-18T15:09:21.002Z</time></trkpt><trkpt lat="43.46514916377144" lon="10.652280919921367"><ele>302.0</ele><time>2026-04-18T15:09:22.002Z</time></trkpt><trkpt lat="43.46516493825617" lon="10.652183900187993"><ele>302.5</ele><time>2026-04-18T15:09:23.002Z</time></trkpt><trkpt lat="43.46518565271769" lon="10.652057912975332"><ele>303.0</ele><time>2026-04-18T15:09:24.002Z</time></trkpt><trkpt lat="43.465204409503954" lon="10.651942703915287"><ele>303.5</ele><time>2026-04-18T15:09:25.002Z</time></trkpt><trkpt lat="43.46522037069635" lon="10.651829410729597"><ele>304.0</ele><time>2026-04-18T15:09:26.002Z</time></trkpt><trkpt lat="43.465235260791076" lon="10.651716487256984"><ele>304.3333333333333</ele><time>2026-04-18T15:09:27.002Z</time></trkpt><trkpt lat="43.465236435750164" lon="10.651602689291748"><ele>304.66666666666663</ele><time>2026-04-18T15:09:28.002Z</time></trkpt><trkpt lat="43.4652559298698" lon="10.65149146474499"><ele>305.0</ele><time>2026-04-18T15:09:29.002Z</time></trkpt><trkpt lat="43.4652681966065" lon="10.651379773958961"><ele>305.3333333333333</ele><time>2026-04-18T15:09:30Z</time></trkpt><trkpt lat="43.46528829920562" lon="10.651262039893439"><ele>305.6666666666667</ele><time>2026-04-18T15:09:31Z</time></trkpt><trkpt lat="43.46529804981228" lon="10.651155178745068"><ele>306.0</ele><time>2026-04-18T15:09:32Z</time></trkpt><trkpt lat="43.46531566391948" lon="10.651043092523107"><ele>306.3333333333333</ele><time>2026-04-18T15:09:33Z</time></trkpt><trkpt lat="43.46533957118267" lon="10.650922679998223"><ele>306.6666666666667</ele><time>2026-04-18T15:09:34Z</time></trkpt><trkpt lat="43.46535854464473" lon="10.65081594748593"><ele>307.0</ele><time>2026-04-18T15:09:35Z</time></trkpt><trkpt lat="43.465372085364905" lon="10.650706697351447"><ele>307.33333333333337</ele><time>2026-04-18T15:09:36Z</time></trkpt><trkpt lat="43.465371314164884" lon="10.650609643360282"><ele>307.6666666666667</ele><time>2026-04-18T15:09:37Z</time></trkpt><trkpt lat="43.46538555089719" lon="10.65049494482157"><ele>308.0</ele><time>2026-04-18T15:09:38Z</time></trkpt><trkpt lat="43.46540145248658" lon="10.650383225570751"><ele>307.83333333333337</ele><time>2026-04-18T15:09:39Z</time></trkpt><trkpt lat="43.465404540097566" lon="10.65028033228337"><ele>307.6666666666667</ele><time>2026-04-18T15:09:40Z</time></trkpt><trkpt lat="43.465413866595995" lon="10.6501029117349"><ele>307.5</ele><time>2026-04-18T15:09:42Z</time></trkpt><trkpt lat="43.46542939362198" lon="10.650015665446313"><ele>307.3333333333333</ele><time>2026-04-18T15:09:43Z</time></trkpt><trkpt lat="43.46545291183104" lon="10.649912647959269"><ele>307.16666666666663</ele><time>2026-04-18T15:09:44Z</time></trkpt><trkpt lat="43.4654770154869" lon="10.64980736322324"><ele>307.0</ele><time>2026-04-18T15:09:45Z</time></trkpt><trkpt lat="43.46550345160661" lon="10.64969973048645"><ele>307.0</ele><time>2026-04-18T15:09:46Z</time></trkpt><trkpt lat="43.4655231609526" lon="10.649582422862634"><ele>307.0</ele><time>2026-04-18T15:09:47Z</time></trkpt><trkpt lat="43.46554425898084" lon="10.649455998536292"><ele>307.0</ele><time>2026-04-18T15:09:48Z</time></trkpt><trkpt lat="43.465586597242805" lon="10.649326951793528"><ele>307.0</ele><time>2026-04-18T15:09:49Z</time></trkpt><trkpt lat="43.465609308942604" lon="10.649189122932379"><ele>307.0</ele><time>2026-04-18T15:09:50Z</time></trkpt><trkpt lat="43.46563679418066" lon="10.649056979548849"><ele>307.0</ele><time>2026-04-18T15:09:51Z</time></trkpt><trkpt lat="43.465663692453674" lon="10.648940628277954"><ele>307.0</ele><time>2026-04-18T15:09:52Z</time></trkpt><trkpt lat="43.46568842728622" lon="10.648823127155259"><ele>307.0</ele><time>2026-04-18T15:09:53Z</time></trkpt><trkpt lat="43.46571199692454" lon="10.648697398133676"><ele>307.0</ele><time>2026-04-18T15:09:54Z</time></trkpt><trkpt lat="43.46573372739097" lon="10.648566541610526"><ele>307.0</ele><time>2026-04-18T15:09:55Z</time></trkpt><trkpt lat="43.4657568464692" lon="10.648433469752302"><ele>304.6</ele><time>2026-04-18T15:09:56Z</time></trkpt><trkpt lat="43.46577870009348" lon="10.648296248691329"><ele>302.2</ele><time>2026-04-18T15:09:57Z</time></trkpt><trkpt lat="43.465795915970226" lon="10.648151768816394"><ele>299.8</ele><time>2026-04-18T15:09:58Z</time></trkpt><trkpt lat="43.465814276881524" lon="10.64800353008404"><ele>297.4</ele><time>2026-04-18T15:09:59Z</time></trkpt><trkpt lat="43.46583507063405" lon="10.64784549800384"><ele>295.0</ele><time>2026-04-18T15:10:00Z</time></trkpt><trkpt lat="43.46585765771533" lon="10.647683920619768"><ele>293.25</ele><time>2026-04-18T15:10:01Z</time></trkpt><trkpt lat="43.46588066947731" lon="10.64752064317097"><ele>291.5</ele><time>2026-04-18T15:10:02Z</time></trkpt><trkpt lat="43.46590283582663" lon="10.647356345472373"><ele>289.75</ele><time>2026-04-18T15:10:03Z</time></trkpt><trkpt lat="43.465919486058155" lon="10.64719194305832"><ele>288.0</ele><time>2026-04-18T15:10:04Z</time></trkpt><trkpt lat="43.46593237579776" lon="10.647027944847439"><ele>287.25</ele><time>2026-04-18T15:10:05.001Z</time></trkpt><trkpt lat="43.46594316037451" lon="10.646871386659726"><ele>286.5</ele><time>2026-04-18T15:10:06.001Z</time></trkpt><trkpt lat="43.465955525249555" lon="10.646715472849472"><ele>285.75</ele><time>2026-04-18T15:10:07.001Z</time></trkpt><trkpt lat="43.46597226086505" lon="10.646562333612517"><ele>285.0</ele><time>2026-04-18T15:10:08.001Z</time></trkpt><trkpt lat="43.46599257911216" lon="10.646407175510033"><ele>285.0</ele><time>2026-04-18T15:10:09.001Z</time></trkpt><trkpt lat="43.46601488671049" lon="10.646247837696881"><ele>285.0</ele><time>2026-04-18T15:10:10.001Z</time></trkpt><trkpt lat="43.46604179661908" lon="10.646080768128376"><ele>285.0</ele><time>2026-04-18T15:10:11.001Z</time></trkpt><trkpt lat="43.46607134907192" lon="10.645925266736816"><ele>285.0</ele><time>2026-04-18T15:10:12.001Z</time></trkpt><trkpt lat="43.46610418420142" lon="10.645768896084684"><ele>285.6</ele><time>2026-04-18T15:10:13.001Z</time></trkpt><trkpt lat="43.46613761919501" lon="10.645614446737488"><ele>286.2</ele><time>2026-04-18T15:10:14.001Z</time></trkpt><trkpt lat="43.466174497998864" lon="10.645464817338175"><ele>286.8</ele><time>2026-04-18T15:10:15.001Z</time></trkpt><trkpt lat="43.46620646422558" lon="10.64532144147957"><ele>287.4</ele><time>2026-04-18T15:10:16.001Z</time></trkpt><trkpt lat="43.466236839927916" lon="10.645179302452366"><ele>288.0</ele><time>2026-04-18T15:10:17.001Z</time></trkpt><trkpt lat="43.46626820529383" lon="10.645041253047708"><ele>289.0</ele><time>2026-04-18T15:10:18.001Z</time></trkpt><trkpt lat="43.46629965933573" lon="10.644907969019341"><ele>290.0</ele><time>2026-04-18T15:10:19.001Z</time></trkpt><trkpt lat="43.466334402800385" lon="10.644777030545011"><ele>291.0</ele><time>2026-04-18T15:10:20.001Z</time></trkpt><trkpt lat="43.46637098770095" lon="10.644652198474509"><ele>292.0</ele><time>2026-04-18T15:10:21.001Z</time></trkpt><trkpt lat="43.4664092729905" lon="10.64453112318302"><ele>293.0</ele><time>2026-04-18T15:10:22.001Z</time></trkpt><trkpt lat="43.46645006409443" lon="10.644413706937113"><ele>293.6666666666667</ele><time>2026-04-18T15:10:23.001Z</time></trkpt><trkpt lat="43.466490939171564" lon="10.644305121531227"><ele>294.33333333333337</ele><time>2026-04-18T15:10:24.001Z</time></trkpt><trkpt lat="43.466530382686976" lon="10.644198747460408"><ele>295.0</ele><time>2026-04-18T15:10:25.001Z</time></trkpt><trkpt lat="43.46656523066777" lon="10.644090073884353"><ele>295.6666666666667</ele><time>2026-04-18T15:10:26.001Z</time></trkpt><trkpt lat="43.466602177455194" lon="10.6439835939748"><ele>296.3333333333333</ele><time>2026-04-18T15:10:27.001Z</time></trkpt><trkpt lat="43.46663973971677" lon="10.643878253751199"><ele>297.0</ele><time>2026-04-18T15:10:28.001Z</time></trkpt><trkpt lat="43.46667382386426" lon="10.643783332449907"><ele>297.0</ele><time>2026-04-18T15:10:29.001Z</time></trkpt><trkpt lat="43.46671585896757" lon="10.643672602496084"><ele>297.0</ele><time>2026-04-18T15:10:30.001Z</time></trkpt><trkpt lat="43.466754650173115" lon="10.643562900132649"><ele>297.0</ele><time>2026-04-18T15:10:31.001Z</time></trkpt><trkpt lat="43.46679305927282" lon="10.643451617934044"><ele>297.0</ele><time>2026-04-18T15:10:32.001Z</time></trkpt><trkpt lat="43.46683170039843" lon="10.643340764643883"><ele>297.0</ele><time>2026-04-18T15:10:33.001Z</time></trkpt><trkpt lat="43.46687181898109" lon="10.643240358285073"><ele>297.0</ele><time>2026-04-18T15:10:34.001Z</time></trkpt><trkpt lat="43.4669081977844" lon="10.643145512448761"><ele>297.8333333333333</ele><time>2026-04-18T15:10:35.001Z</time></trkpt><trkpt lat="43.46693603853896" lon="10.643048669626541"><ele>298.6666666666667</ele><time>2026-04-18T15:10:36.001Z</time></trkpt><trkpt lat="43.46694078615998" lon="10.642891774975604"><ele>299.5</ele><time>2026-04-18T15:10:38.001Z</time></trkpt><trkpt lat="43.46691271847706" lon="10.642792842810827"><ele>300.33333333333337</ele><time>2026-04-18T15:10:40.001Z</time></trkpt><trkpt lat="43.46689379234301" lon="10.64270052993263"><ele>301.1666666666667</ele><time>2026-04-18T15:10:45.001Z</time></trkpt><trkpt lat="43.46696528926872" lon="10.642621329393258"><ele>302.0</ele><time>2026-04-18T15:10:48.001Z</time></trkpt><trkpt lat="43.46701177052452" lon="10.642536017760772"><ele>303.2</ele><time>2026-04-18T15:10:50.001Z</time></trkpt><trkpt lat="43.46708969725653" lon="10.642458687559417"><ele>304.4</ele><time>2026-04-18T15:10:52.001Z</time></trkpt><trkpt lat="43.46716514845835" lon="10.642372967029363"><ele>305.6</ele><time>2026-04-18T15:10:54.001Z</time></trkpt><trkpt lat="43.46724067246891" lon="10.642278183226782"><ele>306.8</ele><time>2026-04-18T15:10:56.001Z</time></trkpt><trkpt lat="43.467319383392294" lon="10.64216107170876"><ele>308.0</ele><time>2026-04-18T15:10:58.001Z</time></trkpt><trkpt lat="43.46737863780417" lon="10.642056244363204"><ele>310.2</ele><time>2026-04-18T15:11:00.001Z</time></trkpt><trkpt lat="43.467441606552924" lon="10.641945356688018"><ele>312.4</ele><time>2026-04-18T15:11:02.001Z</time></trkpt><trkpt lat="43.46750336136551" lon="10.641832584317479"><ele>314.59999999999997</ele><time>2026-04-18T15:11:04.001Z</time></trkpt><trkpt lat="43.46754830691255" lon="10.641714292377776"><ele>316.8</ele><time>2026-04-18T15:11:06.001Z</time></trkpt><trkpt lat="43.46759745171322" lon="10.641590694878793"><ele>319.0</ele><time>2026-04-18T15:11:08.001Z</time></trkpt><trkpt lat="43.46762617492554" lon="10.641490847187573"><ele>319.0</ele><time>2026-04-18T15:11:10.001Z</time></trkpt><trkpt lat="43.46766214686402" lon="10.641381047369666"><ele>319.0</ele><time>2026-04-18T15:11:12.002Z</time></trkpt><trkpt lat="43.46769603172179" lon="10.641274116930509"><ele>319.0</ele><time>2026-04-18T15:11:14.002Z</time></trkpt><trkpt lat="43.46775786639277" lon="10.641155248663903"><ele>319.0</ele><time>2026-04-18T15:11:16.002Z</time></trkpt><trkpt lat="43.467805540063644" lon="10.641023304948007"><ele>319.0</ele><time>2026-04-18T15:11:18.002Z</time></trkpt><trkpt lat="43.46784276667874" lon="10.640889678723227"><ele>320.25</ele><time>2026-04-18T15:11:20.002Z</time></trkpt><trkpt lat="43.46789195945168" lon="10.640765280660137"><ele>321.5</ele><time>2026-04-18T15:11:22.002Z</time></trkpt><trkpt lat="43.467938191532454" lon="10.640616011364319"><ele>322.75</ele><time>2026-04-18T15:11:24.002Z</time></trkpt><trkpt lat="43.46799811919094" lon="10.640476499904018"><ele>324.0</ele><time>2026-04-18T15:11:26.002Z</time></trkpt><trkpt lat="43.46805401282189" lon="10.640336631140018"><ele>325.6</ele><time>2026-04-18T15:11:28.002Z</time></trkpt><trkpt lat="43.46811004473648" lon="10.64021516819337"><ele>327.2</ele><time>2026-04-18T15:11:30.002Z</time></trkpt><trkpt lat="43.46818060509292" lon="10.640110434177988"><ele>328.8</ele><time>2026-04-18T15:11:32.002Z</time></trkpt><trkpt lat="43.46824929706315" lon="10.640021385848192"><ele>330.40000000000003</ele><time>2026-04-18T15:11:34.002Z</time></trkpt><trkpt lat="43.4683079912634" lon="10.639977667700084"><ele>332.0</ele><time>2026-04-18T15:11:35.002Z</time></trkpt><trkpt lat="43.468405400181496" lon="10.639924477729222"><ele>332.0</ele><time>2026-04-18T15:11:37Z</time></trkpt><trkpt lat="43.46850542988867" lon="10.63986429964538"><ele>332.0</ele><time>2026-04-18T15:11:39Z</time></trkpt><trkpt lat="43.46860514806924" lon="10.639812008394323"><ele>332.0</ele><time>2026-04-18T15:11:41Z</time></trkpt><trkpt lat="43.46869159603778" lon="10.639794559315902"><ele>332.0</ele><time>2026-04-18T15:11:43Z</time></trkpt><trkpt lat="43.46875378807103" lon="10.639769252050149"><ele>332.0</ele><time>2026-04-18T15:11:46Z</time></trkpt><trkpt lat="43.46882954225215" lon="10.639709165803648"><ele>332.20000000000005</ele><time>2026-04-18T15:12:04Z</time></trkpt><trkpt lat="43.46890748256289" lon="10.639656823615487"><ele>332.4</ele><time>2026-04-18T15:12:06Z</time></trkpt><trkpt lat="43.468999222060944" lon="10.63958684938685"><ele>332.6</ele><time>2026-04-18T15:12:08Z</time></trkpt><trkpt lat="43.469095242752566" lon="10.63952607521806"><ele>332.79999999999995</ele><time>2026-04-18T15:12:10Z</time></trkpt><trkpt lat="43.4691857545064" lon="10.639428739196259"><ele>333.0</ele><time>2026-04-18T15:12:12Z</time></trkpt><trkpt lat="43.469282260048445" lon="10.639316384148575"><ele>333.0</ele><time>2026-04-18T15:12:14Z</time></trkpt><trkpt lat="43.469367140543646" lon="10.639216000723499"><ele>333.0</ele><time>2026-04-18T15:12:16.001Z</time></trkpt><trkpt lat="43.46943701950557" lon="10.639106806087137"><ele>333.0</ele><time>2026-04-18T15:12:18.001Z</time></trkpt><trkpt lat="43.46947430294901" lon="10.638990295097255"><ele>333.0</ele><time>2026-04-18T15:12:20.001Z</time></trkpt><trkpt lat="43.469518369985444" lon="10.638902962075244"><ele>333.0</ele><time>2026-04-18T15:12:22.001Z</time></trkpt><trkpt lat="43.46954000880456" lon="10.638815255520178"><ele>333.0</ele><time>2026-04-18T15:12:24.001Z</time></trkpt><trkpt lat="43.469558049099646" lon="10.638702933290483"><ele>333.0</ele><time>2026-04-18T15:12:28.001Z</time></trkpt><trkpt lat="43.469585192437904" lon="10.638589974757423"><ele>333.0</ele><time>2026-04-18T15:12:31.001Z</time></trkpt><trkpt lat="43.46961082643955" lon="10.6384745866566"><ele>333.0</ele><time>2026-04-18T15:12:34.001Z</time></trkpt><trkpt lat="43.469667519720296" lon="10.638368825407328"><ele>333.0</ele><time>2026-04-18T15:12:37.001Z</time></trkpt><trkpt lat="43.46971247020521" lon="10.638303590498017"><ele>333.0</ele><time>2026-04-18T15:12:39.001Z</time></trkpt><trkpt lat="43.46977629390595" lon="10.638261714678867"><ele>335.0</ele><time>2026-04-18T15:12:42.001Z</time></trkpt><trkpt lat="43.46982985027476" lon="10.638210828060245"><ele>337.0</ele><time>2026-04-18T15:12:45.001Z</time></trkpt><trkpt lat="43.46989990806627" lon="10.638153529302842"><ele>339.0</ele><time>2026-04-18T15:12:47.001Z</time></trkpt><trkpt lat="43.46996406565169" lon="10.638110550842732"><ele>341.0</ele><time>2026-04-18T15:12:50.001Z</time></trkpt><trkpt lat="43.47003375374087" lon="10.638067843256781"><ele>343.0</ele><time>2026-04-18T15:12:53.001Z</time></trkpt><trkpt lat="43.47010054056814" lon="10.63802383777591"><ele>345.0</ele><time>2026-04-18T15:12:55.001Z</time></trkpt><trkpt lat="43.47017771584415" lon="10.637976766105885"><ele>345.0</ele><time>2026-04-18T15:12:57.001Z</time></trkpt><trkpt lat="43.470262697464534" lon="10.6379357755169"><ele>345.0</ele><time>2026-04-18T15:12:59.001Z</time></trkpt><trkpt lat="43.47034147732896" lon="10.637887348976237"><ele>345.0</ele><time>2026-04-18T15:13:01.001Z</time></trkpt><trkpt lat="43.47044360022203" lon="10.637836079388038"><ele>345.0</ele><time>2026-04-18T15:13:03.001Z</time></trkpt><trkpt lat="43.47054158909109" lon="10.63779421679042"><ele>345.0</ele><time>2026-04-18T15:13:05.001Z</time></trkpt><trkpt lat="43.47062527358699" lon="10.637745595252445"><ele>345.8333333333333</ele><time>2026-04-18T15:13:07.001Z</time></trkpt><trkpt lat="43.47074296327474" lon="10.637705231859913"><ele>346.6666666666667</ele><time>2026-04-18T15:13:09.001Z</time></trkpt><trkpt lat="43.47080863725301" lon="10.637681345185342"><ele>347.5</ele><time>2026-04-18T15:13:10.001Z</time></trkpt><trkpt lat="43.47087789422328" lon="10.637648479758813"><ele>348.33333333333337</ele><time>2026-04-18T15:13:11.001Z</time></trkpt><trkpt lat="43.47093478919382" lon="10.637588317192213"><ele>349.1666666666667</ele><time>2026-04-18T15:13:12.001Z</time></trkpt><trkpt lat="43.47099222869908" lon="10.637538945953866"><ele>350.0</ele><time>2026-04-18T15:13:13.001Z</time></trkpt><trkpt lat="43.47104651670654" lon="10.637480639648523"><ele>350.0</ele><time>2026-04-18T15:13:14.001Z</time></trkpt><trkpt lat="43.47108895679066" lon="10.637414535207682"><ele>350.0</ele><time>2026-04-18T15:13:15.001Z</time></trkpt><trkpt lat="43.471181351195945" lon="10.637339939143542"><ele>350.0</ele><time>2026-04-18T15:13:17.001Z</time></trkpt><trkpt lat="43.47125463148854" lon="10.637264048569119"><ele>350.0</ele><time>2026-04-18T15:13:19.001Z</time></trkpt><trkpt lat="43.47133486082683" lon="10.637181840823814"><ele>350.0</ele><time>2026-04-18T15:13:21.002Z</time></trkpt><trkpt lat="43.47142266839753" lon="10.637095309417024"><ele>349.33333333333337</ele><time>2026-04-18T15:13:23.002Z</time></trkpt><trkpt lat="43.471515721205456" lon="10.637014273120677"><ele>348.6666666666667</ele><time>2026-04-18T15:13:25.002Z</time></trkpt><trkpt lat="43.4716147888372" lon="10.636935568097625"><ele>348.0</ele><time>2026-04-18T15:13:27.002Z</time></trkpt><trkpt lat="43.47167395954838" lon="10.6369008778852"><ele>347.3333333333333</ele><time>2026-04-18T15:13:28.002Z</time></trkpt><trkpt lat="43.471732197757646" lon="10.63685132017801"><ele>346.66666666666663</ele><time>2026-04-18T15:13:29.002Z</time></trkpt><trkpt lat="43.471797577484814" lon="10.636804469533155"><ele>346.0</ele><time>2026-04-18T15:13:30.002Z</time></trkpt><trkpt lat="43.471873156832295" lon="10.636752144999665"><ele>347.0</ele><time>2026-04-18T15:13:31.002Z</time></trkpt><trkpt lat="43.471946566760366" lon="10.636701795236348"><ele>348.0</ele><time>2026-04-18T15:13:32.002Z</time></trkpt><trkpt lat="43.472022177006856" lon="10.636643397992795"><ele>349.0</ele><time>2026-04-18T15:13:33.002Z</time></trkpt><trkpt lat="43.472101379028324" lon="10.63658234993012"><ele>350.0</ele><time>2026-04-18T15:13:34.002Z</time></trkpt><trkpt lat="43.47217189242225" lon="10.636520997960403"><ele>351.0</ele><time>2026-04-18T15:13:35.002Z</time></trkpt><trkpt lat="43.47223795873453" lon="10.636463514469265"><ele>352.0</ele><time>2026-04-18T15:13:36.002Z</time></trkpt><trkpt lat="43.47229863813937" lon="10.636414196783567"><ele>352.0</ele><time>2026-04-18T15:13:37.002Z</time></trkpt><trkpt lat="43.4723534623997" lon="10.636368116826665"><ele>352.0</ele><time>2026-04-18T15:13:38.002Z</time></trkpt><trkpt lat="43.47243401548438" lon="10.636295213072037"><ele>352.0</ele><time>2026-04-18T15:13:40.002Z</time></trkpt><trkpt lat="43.472500172828035" lon="10.636230011321812"><ele>352.0</ele><time>2026-04-18T15:13:41.999Z</time></trkpt><trkpt lat="43.47255239596809" lon="10.636174297679874"><ele>352.0</ele><time>2026-04-18T15:13:43.999Z</time></trkpt><trkpt lat="43.47256819420472" lon="10.63599166559643"><ele>352.0</ele><time>2026-04-18T15:13:48.999Z</time></trkpt><trkpt lat="43.47242588173399" lon="10.63610530085515"><ele>352.0</ele><time>2026-04-18T15:13:49.999Z</time></trkpt><trkpt lat="43.472330816313914" lon="10.636146231818723"><ele>352.0</ele><time>2026-04-18T15:13:51.999Z</time></trkpt><trkpt lat="43.47220472567794" lon="10.636159736026402"><ele>352.0</ele><time>2026-04-18T15:13:53.999Z</time></trkpt><trkpt lat="43.47213592908631" lon="10.636151385608574"><ele>352.0</ele><time>2026-04-18T15:13:54.999Z</time></trkpt><trkpt lat="43.47206679861542" lon="10.636125103148002"><ele>352.0</ele><time>2026-04-18T15:13:55.999Z</time></trkpt><trkpt lat="43.47199961409657" lon="10.636085509821674"><ele>352.0</ele><time>2026-04-18T15:13:56.999Z</time></trkpt><trkpt lat="43.47193842379183" lon="10.636034522356237"><ele>353.3333333333333</ele><time>2026-04-18T15:13:57.999Z</time></trkpt><trkpt lat="43.47188108204124" lon="10.635972253525514"><ele>354.66666666666663</ele><time>2026-04-18T15:13:58.999Z</time></trkpt><trkpt lat="43.471827612737705" lon="10.635893740432556"><ele>356.0</ele><time>2026-04-18T15:13:59.999Z</time></trkpt><trkpt lat="43.47177964940578" lon="10.635798109236722"><ele>357.3333333333333</ele><time>2026-04-18T15:14:00.999Z</time></trkpt><trkpt lat="43.471737165811774" lon="10.635692980785603"><ele>358.6666666666667</ele><time>2026-04-18T15:14:01.999Z</time></trkpt><trkpt lat="43.4716899426677" lon="10.635581499764255"><ele>360.0</ele><time>2026-04-18T15:14:02.999Z</time></trkpt><trkpt lat="43.471645664107385" lon="10.635461054759457"><ele>360.0</ele><time>2026-04-18T15:14:03.999Z</time></trkpt><trkpt lat="43.47159983150443" lon="10.635337929912145"><ele>360.0</ele><time>2026-04-18T15:14:04.999Z</time></trkpt><trkpt lat="43.471552065326954" lon="10.635213313391999"><ele>360.0</ele><time>2026-04-18T15:14:05.999Z</time></trkpt><trkpt lat="43.47150291286714" lon="10.635088722172293"><ele>360.0</ele><time>2026-04-18T15:14:06.999Z</time></trkpt><trkpt lat="43.47145379165732" lon="10.63496612047707"><ele>360.0</ele><time>2026-04-18T15:14:07.999Z</time></trkpt><trkpt lat="43.471406867855514" lon="10.63484736535241"><ele>360.6</ele><time>2026-04-18T15:14:09Z</time></trkpt><trkpt lat="43.47135926576114" lon="10.634728350082545"><ele>361.2</ele><time>2026-04-18T15:14:10Z</time></trkpt><trkpt lat="43.471312058121654" lon="10.634609531648769"><ele>361.79999999999995</ele><time>2026-04-18T15:14:11Z</time></trkpt><trkpt lat="43.471265667432824" lon="10.634491581364323"><ele>362.4</ele><time>2026-04-18T15:14:12Z</time></trkpt><trkpt lat="43.47122018391105" lon="10.634374371342318"><ele>363.0</ele><time>2026-04-18T15:14:13Z</time></trkpt><trkpt lat="43.4711758166489" lon="10.634259329586621"><ele>362.2</ele><time>2026-04-18T15:14:14Z</time></trkpt><trkpt lat="43.471131790036985" lon="10.634144405785644"><ele>361.4</ele><time>2026-04-18T15:14:15Z</time></trkpt><trkpt lat="43.47108312595412" lon="10.634025336707419"><ele>360.59999999999997</ele><time>2026-04-18T15:14:16Z</time></trkpt><trkpt lat="43.47103611518219" lon="10.633900667028861"><ele>359.79999999999995</ele><time>2026-04-18T15:14:17Z</time></trkpt><trkpt lat="43.470999179536754" lon="10.633763597974264"><ele>359.0</ele><time>2026-04-18T15:14:18Z</time></trkpt><trkpt lat="43.470950839797354" lon="10.633629244118469"><ele>359.0</ele><time>2026-04-18T15:14:19Z</time></trkpt><trkpt lat="43.47089960893813" lon="10.633493204286683"><ele>359.0</ele><time>2026-04-18T15:14:20Z</time></trkpt><trkpt lat="43.470849210172084" lon="10.633357550986014"><ele>359.0</ele><time>2026-04-18T15:14:21Z</time></trkpt><trkpt lat="43.47079649937016" lon="10.633225455023966"><ele>359.0</ele><time>2026-04-18T15:14:22Z</time></trkpt><trkpt lat="43.47073969843762" lon="10.633101482662488"><ele>359.0</ele><time>2026-04-18T15:14:23Z</time></trkpt><trkpt lat="43.47067094761793" lon="10.632987556161032"><ele>359.0</ele><time>2026-04-18T15:14:24Z</time></trkpt><trkpt lat="43.47059037590681" lon="10.632877003767307"><ele>359.0</ele><time>2026-04-18T15:14:25Z</time></trkpt><trkpt lat="43.470499048520466" lon="10.63277086286317"><ele>359.0</ele><time>2026-04-18T15:14:26Z</time></trkpt><trkpt lat="43.47040437651446" lon="10.632660508516581"><ele>359.0</ele><time>2026-04-18T15:14:27Z</time></trkpt><trkpt lat="43.47031087410769" lon="10.632552455820267"><ele>357.0</ele><time>2026-04-18T15:14:28Z</time></trkpt><trkpt lat="43.47022034342308" lon="10.632430111874147"><ele>355.0</ele><time>2026-04-18T15:14:29Z</time></trkpt><trkpt lat="43.470132841786935" lon="10.632300593979274"><ele>353.0</ele><time>2026-04-18T15:14:30Z</time></trkpt><trkpt lat="43.470053468800934" lon="10.632167705144871"><ele>351.0</ele><time>2026-04-18T15:14:31Z</time></trkpt><trkpt lat="43.46995450847698" lon="10.632057091537613"><ele>351.0</ele><time>2026-04-18T15:14:32Z</time></trkpt><trkpt lat="43.469843467794846" lon="10.631973727666143"><ele>351.0</ele><time>2026-04-18T15:14:33Z</time></trkpt><trkpt lat="43.46972560749823" lon="10.631923438359461"><ele>351.0</ele><time>2026-04-18T15:14:34Z</time></trkpt><trkpt lat="43.46961244842376" lon="10.631890844481033"><ele>351.0</ele><time>2026-04-18T15:14:35Z</time></trkpt><trkpt lat="43.46951195149099" lon="10.631847454179002"><ele>348.6</ele><time>2026-04-18T15:14:36Z</time></trkpt><trkpt lat="43.46943363106449" lon="10.63177964921328"><ele>346.20000000000005</ele><time>2026-04-18T15:14:37Z</time></trkpt><trkpt lat="43.46938731277871" lon="10.63167180832227"><ele>343.79999999999995</ele><time>2026-04-18T15:14:38Z</time></trkpt><trkpt lat="43.46939522279215" lon="10.631558091450456"><ele>341.4</ele><time>2026-04-18T15:14:39Z</time></trkpt><trkpt lat="43.469386614422824" lon="10.631434178321607"><ele>339.0</ele><time>2026-04-18T15:14:40Z</time></trkpt><trkpt lat="43.46938388233067" lon="10.631300456260094"><ele>339.0</ele><time>2026-04-18T15:14:41Z</time></trkpt><trkpt lat="43.469356514609764" lon="10.631159793460979"><ele>339.0</ele><time>2026-04-18T15:14:42Z</time></trkpt><trkpt lat="43.46930956819905" lon="10.631033663309733"><ele>339.0</ele><time>2026-04-18T15:14:43Z</time></trkpt><trkpt lat="43.46926856603977" lon="10.630912904539763"><ele>339.0</ele><time>2026-04-18T15:14:44Z</time></trkpt><trkpt lat="43.469229186835705" lon="10.630790638283228"><ele>339.0</ele><time>2026-04-18T15:14:45Z</time></trkpt><trkpt lat="43.46920053866316" lon="10.63066844031649"><ele>340.6666666666667</ele><time>2026-04-18T15:14:46Z</time></trkpt><trkpt lat="43.46918702555062" lon="10.630546562647607"><ele>342.3333333333333</ele><time>2026-04-18T15:14:47Z</time></trkpt><trkpt lat="43.46919846021726" lon="10.630426706699033"><ele>344.0</ele><time>2026-04-18T15:14:48Z</time></trkpt><trkpt lat="43.46925989277047" lon="10.630336413254318"><ele>345.66666666666663</ele><time>2026-04-18T15:14:49Z</time></trkpt><trkpt lat="43.46932357762868" lon="10.630272721485035"><ele>347.3333333333333</ele><time>2026-04-18T15:14:50Z</time></trkpt><trkpt lat="43.469372563213184" lon="10.630178291328056"><ele>349.0</ele><time>2026-04-18T15:14:51.001Z</time></trkpt><trkpt lat="43.469435985422" lon="10.630092546616272"><ele>351.0</ele><time>2026-04-18T15:14:52.001Z</time></trkpt><trkpt lat="43.469476490295925" lon="10.629976773655745"><ele>353.0</ele><time>2026-04-18T15:14:53.001Z</time></trkpt><trkpt lat="43.469497849083204" lon="10.629849308058734"><ele>355.0</ele><time>2026-04-18T15:14:54.001Z</time></trkpt><trkpt lat="43.46950415446057" lon="10.629739099829687"><ele>357.0</ele><time>2026-04-18T15:14:55.001Z</time></trkpt><trkpt lat="43.46947660970554" lon="10.629643406352285"><ele>359.0</ele><time>2026-04-18T15:14:56.001Z</time></trkpt><trkpt lat="43.46937723001519" lon="10.62953196254707"><ele>359.0</ele><time>2026-04-18T15:14:58.001Z</time></trkpt><trkpt lat="43.46929653952673" lon="10.629522600819653"><ele>359.0</ele><time>2026-04-18T15:14:59.001Z</time></trkpt><trkpt lat="43.46922353847383" lon="10.629531098962167"><ele>359.0</ele><time>2026-04-18T15:15:00.001Z</time></trkpt><trkpt lat="43.469157766339386" lon="10.629626383171955"><ele>359.0</ele><time>2026-04-18T15:15:01.001Z</time></trkpt><trkpt lat="43.46908251600524" lon="10.629681801747573"><ele>359.0</ele><time>2026-04-18T15:15:02.001Z</time></trkpt><trkpt lat="43.469011652952894" lon="10.62975326516144"><ele>359.0</ele><time>2026-04-18T15:15:03.001Z</time></trkpt><trkpt lat="43.46893448874674" lon="10.629807578033486"><ele>359.0</ele><time>2026-04-18T15:15:04.001Z</time></trkpt><trkpt lat="43.46884899697741" lon="10.629869943747394"><ele>359.0</ele><time>2026-04-18T15:15:05.001Z</time></trkpt><trkpt lat="43.46876735824003" lon="10.629938560051825"><ele>359.0</ele><time>2026-04-18T15:15:06.001Z</time></trkpt><trkpt lat="43.46869322069953" lon="10.630033657084786"><ele>359.0</ele><time>2026-04-18T15:15:07.001Z</time></trkpt><trkpt lat="43.46862844557534" lon="10.630144741594437"><ele>359.0</ele><time>2026-04-18T15:15:08.001Z</time></trkpt><trkpt lat="43.46857858706882" lon="10.63026288505218"><ele>360.25</ele><time>2026-04-18T15:15:09.001Z</time></trkpt><trkpt lat="43.468535819567826" lon="10.63042710490173"><ele>361.5</ele><time>2026-04-18T15:15:10.001Z</time></trkpt><trkpt lat="43.468495956731196" lon="10.630610971524062"><ele>362.75</ele><time>2026-04-18T15:15:11.001Z</time></trkpt><trkpt lat="43.46846732840032" lon="10.630758482767849"><ele>364.0</ele><time>2026-04-18T15:15:12.001Z</time></trkpt><trkpt lat="43.468437390421535" lon="10.630889388130456"><ele>364.0</ele><time>2026-04-18T15:15:13.001Z</time></trkpt><trkpt lat="43.46840301375669" lon="10.631016218044518"><ele>364.0</ele><time>2026-04-18T15:15:14.001Z</time></trkpt><trkpt lat="43.46835469611325" lon="10.631116467253117"><ele>364.0</ele><time>2026-04-18T15:15:15.001Z</time></trkpt><trkpt lat="43.46829410048242" lon="10.63119447103886"><ele>364.0</ele><time>2026-04-18T15:15:16.001Z</time></trkpt><trkpt lat="43.468230602697794" lon="10.631240266257153"><ele>364.0</ele><time>2026-04-18T15:15:17.001Z</time></trkpt><trkpt lat="43.46815396885893" lon="10.631237574594095"><ele>364.0</ele><time>2026-04-18T15:15:18.001Z</time></trkpt><trkpt lat="43.46806567528874" lon="10.631208189838144"><ele>364.2</ele><time>2026-04-18T15:15:19.001Z</time></trkpt><trkpt lat="43.46797535912705" lon="10.631160237672484"><ele>364.4</ele><time>2026-04-18T15:15:20.001Z</time></trkpt><trkpt lat="43.46787589277031" lon="10.631101874326085"><ele>364.6</ele><time>2026-04-18T15:15:21.001Z</time></trkpt><trkpt lat="43.46776762693773" lon="10.631042690441777"><ele>364.8</ele><time>2026-04-18T15:15:22.001Z</time></trkpt><trkpt lat="43.46765794747894" lon="10.630994206322836"><ele>365.0</ele><time>2026-04-18T15:15:23.001Z</time></trkpt><trkpt lat="43.46754718938841" lon="10.630946886285336"><ele>365.0</ele><time>2026-04-18T15:15:24.001Z</time></trkpt><trkpt lat="43.46743135158265" lon="10.630915208517814"><ele>365.0</ele><time>2026-04-18T15:15:25.001Z</time></trkpt><trkpt lat="43.46732165720264" lon="10.630861047785755"><ele>365.0</ele><time>2026-04-18T15:15:26.001Z</time></trkpt><trkpt lat="43.46721350033551" lon="10.63080345892946"><ele>365.0</ele><time>2026-04-18T15:15:27.001Z</time></trkpt><trkpt lat="43.46709802129985" lon="10.630761864035557"><ele>364.75</ele><time>2026-04-18T15:15:28.001Z</time></trkpt><trkpt lat="43.466980892518215" lon="10.63076110489257"><ele>364.5</ele><time>2026-04-18T15:15:29.001Z</time></trkpt><trkpt lat="43.46686894644522" lon="10.630799428227519"><ele>364.25</ele><time>2026-04-18T15:15:30.001Z</time></trkpt><trkpt lat="43.46675253045789" lon="10.63085021726219"><ele>364.0</ele><time>2026-04-18T15:15:31.001Z</time></trkpt><trkpt lat="43.46663377071897" lon="10.630898251488109"><ele>364.0</ele><time>2026-04-18T15:15:32.001Z</time></trkpt><trkpt lat="43.46652310377328" lon="10.630930840488464"><ele>364.0</ele><time>2026-04-18T15:15:33.001Z</time></trkpt><trkpt lat="43.4664125945447" lon="10.630948137368227"><ele>364.0</ele><time>2026-04-18T15:15:34.001Z</time></trkpt><trkpt lat="43.466314010120996" lon="10.63092849188554"><ele>364.0</ele><time>2026-04-18T15:15:35.001Z</time></trkpt><trkpt lat="43.466234947339316" lon="10.630878747131458"><ele>364.0</ele><time>2026-04-18T15:15:36.001Z</time></trkpt><trkpt lat="43.46617898366637" lon="10.630830713477451"><ele>363.8333333333333</ele><time>2026-04-18T15:15:37.001Z</time></trkpt><trkpt lat="43.466103354511645" lon="10.630751555716087"><ele>363.66666666666663</ele><time>2026-04-18T15:15:39.001Z</time></trkpt><trkpt lat="43.46604782417303" lon="10.630704510952238"><ele>363.5</ele><time>2026-04-18T15:15:42.001Z</time></trkpt><trkpt lat="43.46607397010394" lon="10.630608899368124"><ele>363.3333333333333</ele><time>2026-04-18T15:15:44.002Z</time></trkpt><trkpt lat="43.46605675693606" lon="10.63051034299898"><ele>363.1666666666667</ele><time>2026-04-18T15:15:48.999Z</time></trkpt><trkpt lat="43.46603212085663" lon="10.630415169721438"><ele>363.0</ele><time>2026-04-18T15:15:51.999Z</time></trkpt><trkpt lat="43.466056571676205" lon="10.630279206022388"><ele>363.3333333333333</ele><time>2026-04-18T15:15:54.999Z</time></trkpt><trkpt lat="43.46607069650861" lon="10.63013315636177"><ele>363.6666666666667</ele><time>2026-04-18T15:15:56.999Z</time></trkpt><trkpt lat="43.46607118977949" lon="10.629960479180566"><ele>364.0</ele><time>2026-04-18T15:15:58.999Z</time></trkpt><trkpt lat="43.46604385578781" lon="10.629868417393546"><ele>364.33333333333337</ele><time>2026-04-18T15:15:59.999Z</time></trkpt><trkpt lat="43.46599498535569" lon="10.629794772785747"><ele>364.6666666666667</ele><time>2026-04-18T15:16:00.999Z</time></trkpt><trkpt lat="43.46595690717285" lon="10.629714542429905"><ele>365.0</ele><time>2026-04-18T15:16:01.999Z</time></trkpt><trkpt lat="43.465912179150706" lon="10.629640217602171"><ele>365.0</ele><time>2026-04-18T15:16:02.999Z</time></trkpt><trkpt lat="43.46587210705123" lon="10.629548327204285"><ele>365.0</ele><time>2026-04-18T15:16:03.999Z</time></trkpt><trkpt lat="43.46581749791053" lon="10.629463456413673"><ele>365.0</ele><time>2026-04-18T15:16:04.999Z</time></trkpt><trkpt lat="43.46575070603588" lon="10.629396506844829"><ele>365.0</ele><time>2026-04-18T15:16:05.999Z</time></trkpt><trkpt lat="43.46569721627935" lon="10.629300786308006"><ele>365.0</ele><time>2026-04-18T15:16:07Z</time></trkpt><trkpt lat="43.465633474720036" lon="10.629218573164259"><ele>365.0</ele><time>2026-04-18T15:16:08Z</time></trkpt><trkpt lat="43.46556268510397" lon="10.629147214625206"><ele>364.0</ele><time>2026-04-18T15:16:09Z</time></trkpt><trkpt lat="43.465484460980484" lon="10.629087147287567"><ele>363.0</ele><time>2026-04-18T15:16:10Z</time></trkpt><trkpt lat="43.46541133677273" lon="10.62902358334591"><ele>362.0</ele><time>2026-04-18T15:16:11Z</time></trkpt><trkpt lat="43.46534272745603" lon="10.628950005027978"><ele>361.0</ele><time>2026-04-18T15:16:12Z</time></trkpt><trkpt lat="43.465294241622225" lon="10.628847400319628"><ele>360.0</ele><time>2026-04-18T15:16:13Z</time></trkpt><trkpt lat="43.46522171819845" lon="10.628767814746118"><ele>359.0</ele><time>2026-04-18T15:16:14Z</time></trkpt><trkpt lat="43.46516684122558" lon="10.62867071888839"><ele>360.14285714285717</ele><time>2026-04-18T15:16:15Z</time></trkpt><trkpt lat="43.465113442016644" lon="10.628578830787006"><ele>361.28571428571433</ele><time>2026-04-18T15:16:16Z</time></trkpt><trkpt lat="43.46508345859241" lon="10.62847526507133"><ele>362.42857142857144</ele><time>2026-04-18T15:16:17Z</time></trkpt><trkpt lat="43.46504836474022" lon="10.628387045763311"><ele>363.57142857142856</ele><time>2026-04-18T15:16:18Z</time></trkpt><trkpt lat="43.465023795330424" lon="10.628303530654001"><ele>364.7142857142857</ele><time>2026-04-18T15:16:19Z</time></trkpt><trkpt lat="43.46503635210283" lon="10.628212807326136"><ele>365.85714285714283</ele><time>2026-04-18T15:16:20Z</time></trkpt><trkpt lat="43.465083917274654" lon="10.62814022073035"><ele>367.0</ele><time>2026-04-18T15:16:21Z</time></trkpt><trkpt lat="43.46510895179869" lon="10.6280448890393"><ele>367.0</ele><time>2026-04-18T15:16:22Z</time></trkpt><trkpt lat="43.46516422012855" lon="10.627976743916305"><ele>367.0</ele><time>2026-04-18T15:16:23Z</time></trkpt><trkpt lat="43.465199953168316" lon="10.627886286053208"><ele>367.0</ele><time>2026-04-18T15:16:24Z</time></trkpt><trkpt lat="43.46525691013052" lon="10.627815325131374"><ele>367.0</ele><time>2026-04-18T15:16:25Z</time></trkpt><trkpt lat="43.465295999458526" lon="10.627725723760069"><ele>367.0</ele><time>2026-04-18T15:16:26Z</time></trkpt><trkpt lat="43.4653511856634" lon="10.627650944800973"><ele>367.0</ele><time>2026-04-18T15:16:27Z</time></trkpt><trkpt lat="43.46541192553989" lon="10.627564735447393"><ele>367.66666666666663</ele><time>2026-04-18T15:16:28Z</time></trkpt><trkpt lat="43.46546302370336" lon="10.627502004703656"><ele>368.3333333333333</ele><time>2026-04-18T15:16:29Z</time></trkpt><trkpt lat="43.46550956720718" lon="10.627439097167427"><ele>369.0</ele><time>2026-04-18T15:16:30Z</time></trkpt><trkpt lat="43.46553613870379" lon="10.627356981393785"><ele>369.6666666666667</ele><time>2026-04-18T15:16:31Z</time></trkpt><trkpt lat="43.465534200875055" lon="10.627186944208443"><ele>370.33333333333337</ele><time>2026-04-18T15:16:33Z</time></trkpt><trkpt lat="43.465461431124496" lon="10.627141609335405"><ele>371.0</ele><time>2026-04-18T15:16:34Z</time></trkpt><trkpt lat="43.465348016184116" lon="10.627088118858717"><ele>371.0</ele><time>2026-04-18T15:16:36Z</time></trkpt><trkpt lat="43.465284481682815" lon="10.627072641627063"><ele>371.0</ele><time>2026-04-18T15:16:37Z</time></trkpt><trkpt lat="43.46519612773003" lon="10.627054284493033"><ele>371.0</ele><time>2026-04-18T15:16:38Z</time></trkpt><trkpt lat="43.46511397125042" lon="10.627044029465042"><ele>371.0</ele><time>2026-04-18T15:16:39Z</time></trkpt><trkpt lat="43.46504759776266" lon="10.627013237901574"><ele>371.0</ele><time>2026-04-18T15:16:40Z</time></trkpt><trkpt lat="43.46497048018273" lon="10.626999539607432"><ele>371.0</ele><time>2026-04-18T15:16:41Z</time></trkpt><trkpt lat="43.46490154804071" lon="10.62699700977827"><ele>369.7142857142857</ele><time>2026-04-18T15:16:42.001Z</time></trkpt><trkpt lat="43.46484172252493" lon="10.626952011616963"><ele>368.42857142857144</ele><time>2026-04-18T15:16:43.001Z</time></trkpt><trkpt lat="43.464778005445694" lon="10.626950053620257"><ele>367.1428571428571</ele><time>2026-04-18T15:16:44.001Z</time></trkpt><trkpt lat="43.464716792404786" lon="10.626908238984363"><ele>365.8571428571429</ele><time>2026-04-18T15:16:45.001Z</time></trkpt><trkpt lat="43.46465145265244" lon="10.62687133806014"><ele>364.57142857142856</ele><time>2026-04-18T15:16:46.001Z</time></trkpt><trkpt lat="43.46459334796833" lon="10.626810457017436"><ele>363.2857142857143</ele><time>2026-04-18T15:16:47.001Z</time></trkpt><trkpt lat="43.46453796573721" lon="10.62675265623719"><ele>362.0</ele><time>2026-04-18T15:16:48.001Z</time></trkpt><trkpt lat="43.46449183020756" lon="10.626685614864911"><ele>362.0</ele><time>2026-04-18T15:16:49.001Z</time></trkpt><trkpt lat="43.46443764300952" lon="10.626533529893916"><ele>362.0</ele><time>2026-04-18T15:16:51.001Z</time></trkpt><trkpt lat="43.46441494703226" lon="10.626372051849575"><ele>362.0</ele><time>2026-04-18T15:16:53.001Z</time></trkpt><trkpt lat="43.46440533513227" lon="10.626204831002665"><ele>362.0</ele><time>2026-04-18T15:16:55.001Z</time></trkpt><trkpt lat="43.46440538020154" lon="10.626113806469736"><ele>362.0</ele><time>2026-04-18T15:16:56.001Z</time></trkpt><trkpt lat="43.464433880991834" lon="10.626024445671582"><ele>362.57142857142856</ele><time>2026-04-18T15:16:57.001Z</time></trkpt><trkpt lat="43.46445857053391" lon="10.62593234118343"><ele>363.1428571428571</ele><time>2026-04-18T15:16:58.001Z</time></trkpt><trkpt lat="43.464504276944076" lon="10.6258715630476"><ele>363.7142857142857</ele><time>2026-04-18T15:16:59.001Z</time></trkpt><trkpt lat="43.464543010376225" lon="10.625801371863048"><ele>364.2857142857143</ele><time>2026-04-18T15:17:00.001Z</time></trkpt><trkpt lat="43.4645803613042" lon="10.62573109846107"><ele>364.8571428571429</ele><time>2026-04-18T15:17:01.001Z</time></trkpt><trkpt lat="43.464614076028326" lon="10.625655195917174"><ele>365.42857142857144</ele><time>2026-04-18T15:17:02.001Z</time></trkpt><trkpt lat="43.46467516091278" lon="10.625570493084284"><ele>366.0</ele><time>2026-04-18T15:17:04.001Z</time></trkpt><trkpt lat="43.464709938715885" lon="10.62549247591391"><ele>372.20000000000005</ele><time>2026-04-18T15:17:06.001Z</time></trkpt><trkpt lat="43.46475222075178" lon="10.625393544607226"><ele>378.40000000000003</ele><time>2026-04-18T15:17:08.001Z</time></trkpt><trkpt lat="43.46476758661177" lon="10.625245734212559"><ele>384.6</ele><time>2026-04-18T15:17:10.001Z</time></trkpt><trkpt lat="43.464726931463154" lon="10.625099320639608"><ele>390.8</ele><time>2026-04-18T15:17:12.001Z</time></trkpt><trkpt lat="43.46472747753825" lon="10.625006570968084"><ele>397.0</ele><time>2026-04-18T15:17:13.001Z</time></trkpt><trkpt lat="43.464770512906966" lon="10.62485276281085"><ele>397.0</ele><time>2026-04-18T15:17:15.001Z</time></trkpt><trkpt lat="43.464813183915936" lon="10.624781712912016"><ele>397.0</ele><time>2026-04-18T15:17:16.001Z</time></trkpt><trkpt lat="43.46486932187612" lon="10.624729310320422"><ele>397.0</ele><time>2026-04-18T15:17:17.001Z</time></trkpt><trkpt lat="43.46491701203392" lon="10.624658541921505"><ele>397.0</ele><time>2026-04-18T15:17:18.001Z</time></trkpt><trkpt lat="43.46494844878102" lon="10.624570538782843"><ele>397.0</ele><time>2026-04-18T15:17:19.001Z</time></trkpt><trkpt lat="43.46499721601484" lon="10.624504523052538"><ele>397.0</ele><time>2026-04-18T15:17:20.001Z</time></trkpt><trkpt lat="43.46504355621268" lon="10.624440590746696"><ele>397.0</ele><time>2026-04-18T15:17:21.001Z</time></trkpt><trkpt lat="43.46512282002802" lon="10.624308058403633"><ele>395.1428571428571</ele><time>2026-04-18T15:17:23.001Z</time></trkpt><trkpt lat="43.46514094703119" lon="10.624207054955173"><ele>393.2857142857143</ele><time>2026-04-18T15:17:24.001Z</time></trkpt><trkpt lat="43.46519321067052" lon="10.624130952408938"><ele>391.42857142857144</ele><time>2026-04-18T15:17:25.001Z</time></trkpt><trkpt lat="43.465231822721485" lon="10.624047876273053"><ele>389.57142857142856</ele><time>2026-04-18T15:17:26.001Z</time></trkpt><trkpt lat="43.46526784360101" lon="10.62397037546434"><ele>387.7142857142857</ele><time>2026-04-18T15:17:27.001Z</time></trkpt><trkpt lat="43.46530417932196" lon="10.623892197100572"><ele>385.85714285714283</ele><time>2026-04-18T15:17:28.002Z</time></trkpt><trkpt lat="43.46534426162132" lon="10.62380595795921"><ele>384.0</ele><time>2026-04-18T15:17:29.002Z</time></trkpt><trkpt lat="43.46538003697277" lon="10.623706773128891"><ele>381.5</ele><time>2026-04-18T15:17:30.002Z</time></trkpt><trkpt lat="43.4654342437753" lon="10.623617765169545"><ele>379.0</ele><time>2026-04-18T15:17:31.002Z</time></trkpt><trkpt lat="43.46548389467171" lon="10.623530576386939"><ele>376.5</ele><time>2026-04-18T15:17:32.002Z</time></trkpt><trkpt lat="43.46551882005179" lon="10.623432470568856"><ele>374.0</ele><time>2026-04-18T15:17:33.002Z</time></trkpt><trkpt lat="43.46554753897291" lon="10.62333908625263"><ele>371.5</ele><time>2026-04-18T15:17:34.002Z</time></trkpt><trkpt lat="43.46558502597706" lon="10.623249721050898"><ele>369.0</ele><time>2026-04-18T15:17:35.002Z</time></trkpt><trkpt lat="43.46563553612037" lon="10.623165001513648"><ele>374.1666666666667</ele><time>2026-04-18T15:17:36.002Z</time></trkpt><trkpt lat="43.46569414386557" lon="10.623106248634913"><ele>379.33333333333337</ele><time>2026-04-18T15:17:37.002Z</time></trkpt><trkpt lat="43.46574543088632" lon="10.623035419673192"><ele>384.5</ele><time>2026-04-18T15:17:38.002Z</time></trkpt><trkpt lat="43.46581797425437" lon="10.62302231750339"><ele>389.6666666666667</ele><time>2026-04-18T15:17:39.002Z</time></trkpt><trkpt lat="43.46589904819895" lon="10.62298819421721"><ele>394.83333333333337</ele><time>2026-04-18T15:17:40.002Z</time></trkpt><trkpt lat="43.466020374421895" lon="10.622972306818975"><ele>400.0</ele><time>2026-04-18T15:17:42.002Z</time></trkpt><trkpt lat="43.466084796149765" lon="10.622955271972154"><ele>400.00000000000006</ele><time>2026-04-18T15:17:43.002Z</time></trkpt><trkpt lat="43.466186360635234" lon="10.622878210791626"><ele>400.0</ele><time>2026-04-18T15:17:45.002Z</time></trkpt><trkpt lat="43.4662426884742" lon="10.622827842722813"><ele>400.0</ele><time>2026-04-18T15:17:46.002Z</time></trkpt><trkpt lat="43.46630002516357" lon="10.622787806230917"><ele>400.0</ele><time>2026-04-18T15:17:47.002Z</time></trkpt><trkpt lat="43.46636021133491" lon="10.622706579136468"><ele>400.00000000000006</ele><time>2026-04-18T15:17:48.002Z</time></trkpt><trkpt lat="43.46641210485286" lon="10.622638883122459"><ele>400.0</ele><time>2026-04-18T15:17:49.002Z</time></trkpt><trkpt lat="43.46644326957694" lon="10.622541066483022"><ele>400.50000000000006</ele><time>2026-04-18T15:17:50.002Z</time></trkpt><trkpt lat="43.46645534543114" lon="10.622446659343588"><ele>401.0</ele><time>2026-04-18T15:17:51.002Z</time></trkpt><trkpt lat="43.466457791809006" lon="10.622328956029746"><ele>401.5</ele><time>2026-04-18T15:17:52.002Z</time></trkpt><trkpt lat="43.46647795034145" lon="10.622215882416597"><ele>402.0</ele><time>2026-04-18T15:17:53.002Z</time></trkpt><trkpt lat="43.46647576248366" lon="10.622107502194895"><ele>402.50000000000006</ele><time>2026-04-18T15:17:54Z</time></trkpt><trkpt lat="43.466458278308366" lon="10.621978983353028"><ele>403.0</ele><time>2026-04-18T15:17:55Z</time></trkpt><trkpt lat="43.466476348339086" lon="10.621868724334044"><ele>403.00000000000006</ele><time>2026-04-18T15:17:56Z</time></trkpt><trkpt lat="43.46650160378736" lon="10.621761647807832"><ele>403.0</ele><time>2026-04-18T15:17:57Z</time></trkpt><trkpt lat="43.46652888941517" lon="10.621661058146255"><ele>403.0</ele><time>2026-04-18T15:17:58Z</time></trkpt><trkpt lat="43.4665571597679" lon="10.621569598704115"><ele>403.0</ele><time>2026-04-18T15:17:59Z</time></trkpt><trkpt lat="43.466599889408954" lon="10.621505082758931"><ele>403.00000000000006</ele><time>2026-04-18T15:18:00Z</time></trkpt><trkpt lat="43.466691950275" lon="10.62138134244856"><ele>403.0</ele><time>2026-04-18T15:18:02Z</time></trkpt><trkpt lat="43.46674053547848" lon="10.621313298111616"><ele>403.00000000000006</ele><time>2026-04-18T15:18:03Z</time></trkpt><trkpt lat="43.46679209345159" lon="10.62124599886359"><ele>403.0</ele><time>2026-04-18T15:18:04Z</time></trkpt><trkpt lat="43.46683776892813" lon="10.62118587327837"><ele>403.0</ele><time>2026-04-18T15:18:05Z</time></trkpt><trkpt lat="43.46689549396494" lon="10.621048506648167"><ele>403.0</ele><time>2026-04-18T15:18:07Z</time></trkpt><trkpt lat="43.466897075893485" lon="10.62087473561683"><ele>403.00000000000006</ele><time>2026-04-18T15:18:09Z</time></trkpt><trkpt lat="43.46687523303201" lon="10.620788554397727"><ele>403.0</ele><time>2026-04-18T15:18:10Z</time></trkpt><trkpt lat="43.46681629446587" lon="10.620661630863989"><ele>403.59999999999997</ele><time>2026-04-18T15:18:11Z</time></trkpt><trkpt lat="43.46676455770159" lon="10.620569783011836"><ele>404.2</ele><time>2026-04-18T15:18:12Z</time></trkpt><trkpt lat="43.4667056625269" lon="10.620477880289648"><ele>404.8</ele><time>2026-04-18T15:18:13Z</time></trkpt><trkpt lat="43.466637799533196" lon="10.620334082621602"><ele>405.4</ele><time>2026-04-18T15:18:15Z</time></trkpt><trkpt lat="43.4666468366264" lon="10.620150280692402"><ele>406.0</ele><time>2026-04-18T15:18:17Z</time></trkpt><trkpt lat="43.46666023110729" lon="10.620041814916796"><ele>406.00000000000006</ele><time>2026-04-18T15:18:18Z</time></trkpt><trkpt lat="43.46666302683385" lon="10.61991376584696"><ele>406.0</ele><time>2026-04-18T15:18:19Z</time></trkpt><trkpt lat="43.46668160922532" lon="10.61980616583822"><ele>406.0</ele><time>2026-04-18T15:18:20Z</time></trkpt><trkpt lat="43.46669838793294" lon="10.619690958665915"><ele>406.0</ele><time>2026-04-18T15:18:21Z</time></trkpt><trkpt lat="43.466700940923225" lon="10.619578936935511"><ele>406.00000000000006</ele><time>2026-04-18T15:18:22Z</time></trkpt><trkpt lat="43.466700573010975" lon="10.619464693848325"><ele>406.0</ele><time>2026-04-18T15:18:23Z</time></trkpt><trkpt lat="43.46669117880345" lon="10.619361339689167"><ele>407.00000000000006</ele><time>2026-04-18T15:18:24Z</time></trkpt><trkpt lat="43.46667503290143" lon="10.619249405438886"><ele>408.0</ele><time>2026-04-18T15:18:25Z</time></trkpt><trkpt lat="43.46665645336337" lon="10.61913179607479"><ele>409.0</ele><time>2026-04-18T15:18:26Z</time></trkpt><trkpt lat="43.46664757869371" lon="10.619018121166036"><ele>410.0</ele><time>2026-04-18T15:18:27Z</time></trkpt><trkpt lat="43.46664990456617" lon="10.618905739689733"><ele>411.00000000000006</ele><time>2026-04-18T15:18:28Z</time></trkpt><trkpt lat="43.46665049138215" lon="10.618800232159016"><ele>412.0</ele><time>2026-04-18T15:18:29Z</time></trkpt><trkpt lat="43.466651132158916" lon="10.618706741006752"><ele>413.85714285714283</ele><time>2026-04-18T15:18:30Z</time></trkpt><trkpt lat="43.46662486708497" lon="10.61861497586562"><ele>415.7142857142857</ele><time>2026-04-18T15:18:31Z</time></trkpt><trkpt lat="43.466582455673866" lon="10.618535510339363"><ele>417.57142857142856</ele><time>2026-04-18T15:18:32Z</time></trkpt><trkpt lat="43.46653994925604" lon="10.618451703579572"><ele>419.42857142857144</ele><time>2026-04-18T15:18:33Z</time></trkpt><trkpt lat="43.46648607795989" lon="10.618381184076418"><ele>421.2857142857143</ele><time>2026-04-18T15:18:34Z</time></trkpt><trkpt lat="43.46643260035694" lon="10.618311258219649"><ele>423.1428571428571</ele><time>2026-04-18T15:18:35Z</time></trkpt><trkpt lat="43.46638766740201" lon="10.618237212969849"><ele>425.0</ele><time>2026-04-18T15:18:36Z</time></trkpt><trkpt lat="43.46633054846152" lon="10.61808701083304"><ele>424.99999999999994</ele><time>2026-04-18T15:18:38.001Z</time></trkpt><trkpt lat="43.46629929168248" lon="10.61800942847224"><ele>425.0</ele><time>2026-04-18T15:18:39.001Z</time></trkpt><trkpt lat="43.46620693607402" lon="10.617889712452223"><ele>425.0</ele><time>2026-04-18T15:18:41.001Z</time></trkpt><trkpt lat="43.46618647713032" lon="10.617806396701832"><ele>425.0</ele><time>2026-04-18T15:18:42.001Z</time></trkpt><trkpt lat="43.466159248431936" lon="10.617716574968103"><ele>424.99999999999994</ele><time>2026-04-18T15:18:43.001Z</time></trkpt><trkpt lat="43.46613036277648" lon="10.617630740917065"><ele>425.0</ele><time>2026-04-18T15:18:44.001Z</time></trkpt><trkpt lat="43.46609975482296" lon="10.61754359831497"><ele>426.0</ele><time>2026-04-18T15:18:45.001Z</time></trkpt><trkpt lat="43.466065385095376" lon="10.617456312268418"><ele>427.0</ele><time>2026-04-18T15:18:46.001Z</time></trkpt><trkpt lat="43.46603629249455" lon="10.61737249126362"><ele>428.0</ele><time>2026-04-18T15:18:47.001Z</time></trkpt><trkpt lat="43.46599844439912" lon="10.617290701434362"><ele>429.0</ele><time>2026-04-18T15:18:48.001Z</time></trkpt><trkpt lat="43.46596078556402" lon="10.617207948388648"><ele>430.0</ele><time>2026-04-18T15:18:49.001Z</time></trkpt><trkpt lat="43.46592874129876" lon="10.61712079551021"><ele>431.0</ele><time>2026-04-18T15:18:50.001Z</time></trkpt><trkpt lat="43.465892793375886" lon="10.617031061476014"><ele>432.0</ele><time>2026-04-18T15:18:51.001Z</time></trkpt><trkpt lat="43.465862705093784" lon="10.616939702775838"><ele>432.0</ele><time>2026-04-18T15:18:52.001Z</time></trkpt><trkpt lat="43.465832684848586" lon="10.616856469271413"><ele>432.0</ele><time>2026-04-18T15:18:53.001Z</time></trkpt><trkpt lat="43.46581210338846" lon="10.616764433918496"><ele>432.0</ele><time>2026-04-18T15:18:54.001Z</time></trkpt><trkpt lat="43.46578534558463" lon="10.616673565294738"><ele>432.0</ele><time>2026-04-18T15:18:55.001Z</time></trkpt><trkpt lat="43.4657569385526" lon="10.616586036623879"><ele>432.0</ele><time>2026-04-18T15:18:56.001Z</time></trkpt><trkpt lat="43.46572588417919" lon="10.616482994342782"><ele>432.0</ele><time>2026-04-18T15:18:57.001Z</time></trkpt><trkpt lat="43.4657019223377" lon="10.616389831022325"><ele>432.0</ele><time>2026-04-18T15:18:58.001Z</time></trkpt><trkpt lat="43.46567530484371" lon="10.616280698020569"><ele>432.0</ele><time>2026-04-18T15:18:59.001Z</time></trkpt><trkpt lat="43.46566204463102" lon="10.616167041768652"><ele>432.0</ele><time>2026-04-18T15:19:00.001Z</time></trkpt><trkpt lat="43.46562629752092" lon="10.616066811064291"><ele>432.0</ele><time>2026-04-18T15:19:01.001Z</time></trkpt><trkpt lat="43.46561426068373" lon="10.615962525337086"><ele>432.0</ele><time>2026-04-18T15:19:02.001Z</time></trkpt><trkpt lat="43.46559838466964" lon="10.615874236971537"><ele>432.0</ele><time>2026-04-18T15:19:03.001Z</time></trkpt><trkpt lat="43.46558137543962" lon="10.615721240720417"><ele>432.0</ele><time>2026-04-18T15:19:05.001Z</time></trkpt><trkpt lat="43.4656099289035" lon="10.615575429133585"><ele>433.5</ele><time>2026-04-18T15:19:07.001Z</time></trkpt><trkpt lat="43.465672338218475" lon="10.615471972369017"><ele>435.0</ele><time>2026-04-18T15:19:09.001Z</time></trkpt><trkpt lat="43.46572785064859" lon="10.615417081521658"><ele>436.5</ele><time>2026-04-18T15:19:16.001Z</time></trkpt><trkpt lat="43.46579465849896" lon="10.61529569809743"><ele>438.0</ele><time>2026-04-18T15:19:18.001Z</time></trkpt><trkpt lat="43.46581540904489" lon="10.615210171690514"><ele>439.5</ele><time>2026-04-18T15:19:19.001Z</time></trkpt><trkpt lat="43.465817705464715" lon="10.61508867441767"><ele>441.0</ele><time>2026-04-18T15:19:20.001Z</time></trkpt><trkpt lat="43.46581875827349" lon="10.614965804759256"><ele>441.1666666666667</ele><time>2026-04-18T15:19:21.002Z</time></trkpt><trkpt lat="43.46582471542928" lon="10.614855423648423"><ele>441.33333333333337</ele><time>2026-04-18T15:19:22.002Z</time></trkpt><trkpt lat="43.465842859760336" lon="10.614754853542301"><ele>441.5</ele><time>2026-04-18T15:19:23.002Z</time></trkpt><trkpt lat="43.46586980775866" lon="10.614652588923777"><ele>441.6666666666667</ele><time>2026-04-18T15:19:24.002Z</time></trkpt><trkpt lat="43.46590095929872" lon="10.61456730712792"><ele>441.83333333333337</ele><time>2026-04-18T15:19:25.002Z</time></trkpt><trkpt lat="43.46594715695423" lon="10.614457666484348"><ele>442.0</ele><time>2026-04-18T15:19:26.002Z</time></trkpt><trkpt lat="43.46600504899479" lon="10.614341116529124"><ele>443.8</ele><time>2026-04-18T15:19:27.002Z</time></trkpt><trkpt lat="43.4660717161935" lon="10.614212547971439"><ele>445.6</ele><time>2026-04-18T15:19:28.002Z</time></trkpt><trkpt lat="43.46614130289858" lon="10.614076136054525"><ele>447.40000000000003</ele><time>2026-04-18T15:19:29.002Z</time></trkpt><trkpt lat="43.46618993468487" lon="10.613941800456194"><ele>449.20000000000005</ele><time>2026-04-18T15:19:30.002Z</time></trkpt><trkpt lat="43.466235439954474" lon="10.613836236888625"><ele>451.0</ele><time>2026-04-18T15:19:31.002Z</time></trkpt><trkpt lat="43.46626153541935" lon="10.613732208282464"><ele>454.1666666666667</ele><time>2026-04-18T15:19:32.002Z</time></trkpt><trkpt lat="43.46627379743977" lon="10.61362822229638"><ele>457.33333333333337</ele><time>2026-04-18T15:19:33.002Z</time></trkpt><trkpt lat="43.46626177163827" lon="10.613532453573788"><ele>460.5</ele><time>2026-04-18T15:19:34.002Z</time></trkpt><trkpt lat="43.46621960570398" lon="10.6134432029762"><ele>463.66666666666663</ele><time>2026-04-18T15:19:35.002Z</time></trkpt><trkpt lat="43.4661625347397" lon="10.61338644738965"><ele>466.8333333333333</ele><time>2026-04-18T15:19:36.002Z</time></trkpt><trkpt lat="43.466092378185124" lon="10.613386100803666"><ele>470.0</ele><time>2026-04-18T15:19:37.002Z</time></trkpt><trkpt lat="43.465989328381966" lon="10.613480631167786"><ele>469.99999999999994</ele><time>2026-04-18T15:19:39.002Z</time></trkpt><trkpt lat="43.46593627368315" lon="10.613539873975405"><ele>470.0</ele><time>2026-04-18T15:19:40.002Z</time></trkpt><trkpt lat="43.46587538395803" lon="10.613608575773913"><ele>470.0</ele><time>2026-04-18T15:19:41.002Z</time></trkpt><trkpt lat="43.46582236582187" lon="10.613687828623885"><ele>470.0</ele><time>2026-04-18T15:19:42.002Z</time></trkpt><trkpt lat="43.4657685104887" lon="10.613746035882254"><ele>469.99999999999994</ele><time>2026-04-18T15:19:43.002Z</time></trkpt><trkpt lat="43.46573009023336" lon="10.613847388810832"><ele>470.0</ele><time>2026-04-18T15:19:44.002Z</time></trkpt><trkpt lat="43.46568373901139" lon="10.613946905337151"><ele>466.2</ele><time>2026-04-18T15:19:45.002Z</time></trkpt><trkpt lat="43.465612302628934" lon="10.61404334027431"><ele>462.4</ele><time>2026-04-18T15:19:46.002Z</time></trkpt><trkpt lat="43.465538581977434" lon="10.614153157492444"><ele>458.6</ele><time>2026-04-18T15:19:47.002Z</time></trkpt><trkpt lat="43.465464059925864" lon="10.614228966100795"><ele>454.8</ele><time>2026-04-18T15:19:48.002Z</time></trkpt><trkpt lat="43.465402715575244" lon="10.614317191918378"><ele>451.0</ele><time>2026-04-18T15:19:49.002Z</time></trkpt><trkpt lat="43.465335264121705" lon="10.614414201815222"><ele>453.6666666666667</ele><time>2026-04-18T15:19:50.002Z</time></trkpt><trkpt lat="43.46529014090899" lon="10.614479098471351"><ele>456.33333333333337</ele><time>2026-04-18T15:19:51.002Z</time></trkpt><trkpt lat="43.46524019645869" lon="10.61455234359362"><ele>459.0</ele><time>2026-04-18T15:19:52.002Z</time></trkpt><trkpt lat="43.46518783888363" lon="10.61466324615651"><ele>461.66666666666663</ele><time>2026-04-18T15:19:53.002Z</time></trkpt><trkpt lat="43.46512589649078" lon="10.614749655185088"><ele>464.3333333333333</ele><time>2026-04-18T15:19:54.002Z</time></trkpt><trkpt lat="43.46507738709113" lon="10.614817764890146"><ele>467.0</ele><time>2026-04-18T15:19:55.002Z</time></trkpt><trkpt lat="43.4650260059246" lon="10.614905029907957"><ele>466.99999999999994</ele><time>2026-04-18T15:19:56.002Z</time></trkpt><trkpt lat="43.46497563328665" lon="10.614977217158259"><ele>467.0</ele><time>2026-04-18T15:19:57.002Z</time></trkpt><trkpt lat="43.46491872696781" lon="10.615051441487356"><ele>467.0</ele><time>2026-04-18T15:19:58.002Z</time></trkpt><trkpt lat="43.46487888816736" lon="10.615123341400489"><ele>467.0</ele><time>2026-04-18T15:19:59.002Z</time></trkpt><trkpt lat="43.464822458068625" lon="10.615214123463073"><ele>466.99999999999994</ele><time>2026-04-18T15:20:00Z</time></trkpt><trkpt lat="43.46477760236286" lon="10.61529630683904"><ele>467.0</ele><time>2026-04-18T15:20:01Z</time></trkpt><trkpt lat="43.46473210981478" lon="10.615384204711615"><ele>467.99999999999994</ele><time>2026-04-18T15:20:02Z</time></trkpt><trkpt lat="43.46469543069428" lon="10.61545534089014"><ele>469.0</ele><time>2026-04-18T15:20:03Z</time></trkpt><trkpt lat="43.464668290245434" lon="10.6155493183365"><ele>469.99999999999994</ele><time>2026-04-18T15:20:04Z</time></trkpt><trkpt lat="43.46461965005412" lon="10.615616011781425"><ele>470.99999999999994</ele><time>2026-04-18T15:20:05Z</time></trkpt><trkpt lat="43.46459199880443" lon="10.615718651628763"><ele>472.0</ele><time>2026-04-18T15:20:06Z</time></trkpt><trkpt lat="43.46453087306613" lon="10.615783856599613"><ele>472.99999999999994</ele><time>2026-04-18T15:20:08Z</time></trkpt><trkpt lat="43.464502338557615" lon="10.615877739883986"><ele>473.99999999999994</ele><time>2026-04-18T15:20:25Z</time></trkpt><trkpt lat="43.46445688865721" lon="10.61599486702643"><ele>474.0</ele><time>2026-04-18T15:20:28Z</time></trkpt><trkpt lat="43.46441329921588" lon="10.616080910733562"><ele>474.0</ele><time>2026-04-18T15:20:30Z</time></trkpt><trkpt lat="43.4643714073141" lon="10.616191556837835"><ele>474.0</ele><time>2026-04-18T15:20:33Z</time></trkpt><trkpt lat="43.46433237073946" lon="10.616315761661381"><ele>474.0</ele><time>2026-04-18T15:20:36Z</time></trkpt><trkpt lat="43.46430397284411" lon="10.616400480870752"><ele>474.0</ele><time>2026-04-18T15:20:38.001Z</time></trkpt><trkpt lat="43.46426568241472" lon="10.616511706097851"><ele>474.0</ele><time>2026-04-18T15:20:40.001Z</time></trkpt><trkpt lat="43.464230730864614" lon="10.616608757021444"><ele>471.5714285714285</ele><time>2026-04-18T15:20:42.001Z</time></trkpt><trkpt lat="43.46419483868597" lon="10.61669404718738"><ele>469.1428571428571</ele><time>2026-04-18T15:20:45.001Z</time></trkpt><trkpt lat="43.46413423523026" lon="10.616719937657843"><ele>466.7142857142857</ele><time>2026-04-18T15:20:50.001Z</time></trkpt><trkpt lat="43.4641932511964" lon="10.61664935098192"><ele>464.2857142857143</ele><time>2026-04-18T15:21:04.001Z</time></trkpt><trkpt lat="43.46422499044264" lon="10.616572332326443"><ele>461.8571428571429</ele><time>2026-04-18T15:21:06.001Z</time></trkpt><trkpt lat="43.464261913879206" lon="10.616470103807632"><ele>459.4285714285715</ele><time>2026-04-18T15:21:09.001Z</time></trkpt><trkpt lat="43.464294922222514" lon="10.616372801305829"><ele>457.00000000000006</ele><time>2026-04-18T15:21:13.001Z</time></trkpt><trkpt lat="43.46432948614698" lon="10.616269687058578"><ele>457.00000000000006</ele><time>2026-04-18T15:21:16.001Z</time></trkpt><trkpt lat="43.464363970877145" lon="10.616170773585923"><ele>457.0</ele><time>2026-04-18T15:21:19.001Z</time></trkpt><trkpt lat="43.464336344622645" lon="10.616249226042306"><ele>457.00000000000006</ele><time>2026-04-18T15:22:23.001Z</time></trkpt><trkpt lat="43.464309083036056" lon="10.616330555567632"><ele>457.00000000000006</ele><time>2026-04-18T15:22:27.001Z</time></trkpt><trkpt lat="43.46428060587971" lon="10.616415511227292"><ele>457.0</ele><time>2026-04-18T15:22:32.001Z</time></trkpt><trkpt lat="43.46424834902126" lon="10.616508364634786"><ele>457.00000000000006</ele><time>2026-04-18T15:22:36.001Z</time></trkpt><trkpt lat="43.46421518853001" lon="10.616596655638666"><ele>457.00000000000006</ele><time>2026-04-18T15:22:41.001Z</time></trkpt><trkpt lat="43.464180457850254" lon="10.61667059978582"><ele>457.0</ele><time>2026-04-18T15:22:46.001Z</time></trkpt><trkpt lat="43.46409562558627" lon="10.616755817484501"><ele>457.00000000000006</ele><time>2026-04-18T15:23:52.002Z</time></trkpt><trkpt lat="43.46405572048133" lon="10.616609618097671"><ele>457.00000000000006</ele><time>2026-04-18T15:23:54.002Z</time></trkpt><trkpt lat="43.464007954814356" lon="10.616476372907698"><ele>457.0</ele><time>2026-04-18T15:23:56.002Z</time></trkpt><trkpt lat="43.46396082359201" lon="10.616319962083066"><ele>457.0</ele><time>2026-04-18T15:23:58.002Z</time></trkpt><trkpt lat="43.46390433993595" lon="10.616163384337943"><ele>459.6666666666667</ele><time>2026-04-18T15:24:00.002Z</time></trkpt><trkpt lat="43.46388899294789" lon="10.616078635569687"><ele>462.33333333333337</ele><time>2026-04-18T15:24:01.002Z</time></trkpt><trkpt lat="43.46384071178857" lon="10.616016844821798"><ele>465.0</ele><time>2026-04-18T15:24:02.002Z</time></trkpt><trkpt lat="43.46380089900776" lon="10.615930447825068"><ele>467.66666666666663</ele><time>2026-04-18T15:24:03.002Z</time></trkpt><trkpt lat="43.46376573640216" lon="10.615846308371882"><ele>470.3333333333333</ele><time>2026-04-18T15:24:04.002Z</time></trkpt><trkpt lat="43.46371917018999" lon="10.615738994013748"><ele>473.0</ele><time>2026-04-18T15:24:05.002Z</time></trkpt><trkpt lat="43.46365428870636" lon="10.615612312315418"><ele>473.0</ele><time>2026-04-18T15:24:07.003Z</time></trkpt><trkpt lat="43.46357827126425" lon="10.61547838750151"><ele>472.99999999999994</ele><time>2026-04-18T15:24:09.003Z</time></trkpt><trkpt lat="43.463535968958595" lon="10.615411100912231"><ele>472.99999999999994</ele><time>2026-04-18T15:24:10.003Z</time></trkpt><trkpt lat="43.46347392357016" lon="10.615337610160438"><ele>473.0</ele><time>2026-04-18T15:24:11.003Z</time></trkpt><trkpt lat="43.46343439641847" lon="10.615225366350748"><ele>473.0</ele><time>2026-04-18T15:24:12.001Z</time></trkpt><trkpt lat="43.463364010247446" lon="10.61514937314353"><ele>472.99999999999994</ele><time>2026-04-18T15:24:13.001Z</time></trkpt><trkpt lat="43.46328390058457" lon="10.615143035692897"><ele>473.0</ele><time>2026-04-18T15:24:15.001Z</time></trkpt><trkpt lat="43.46322652538616" lon="10.615226447257772"><ele>473.0</ele><time>2026-04-18T15:24:17.001Z</time></trkpt><trkpt lat="43.463214901316206" lon="10.615321709356309"><ele>473.0</ele><time>2026-04-18T15:24:18.001Z</time></trkpt><trkpt lat="43.46321409624096" lon="10.615420780500484"><ele>472.99999999999994</ele><time>2026-04-18T15:24:19.001Z</time></trkpt><trkpt lat="43.46322514439491" lon="10.61553860144264"><ele>473.0</ele><time>2026-04-18T15:24:20.001Z</time></trkpt><trkpt lat="43.46322593891047" lon="10.615660047143013"><ele>473.0</ele><time>2026-04-18T15:24:21.001Z</time></trkpt><trkpt lat="43.46323686004002" lon="10.615783194927069"><ele>472.99999999999994</ele><time>2026-04-18T15:24:22.001Z</time></trkpt><trkpt lat="43.46323151731668" lon="10.615933550857907"><ele>472.99999999999994</ele><time>2026-04-18T15:24:23.001Z</time></trkpt><trkpt lat="43.463245549734125" lon="10.61604476771209"><ele>473.0</ele><time>2026-04-18T15:24:24.001Z</time></trkpt><trkpt lat="43.46326008611801" lon="10.616147569613128"><ele>473.0</ele><time>2026-04-18T15:24:25.001Z</time></trkpt><trkpt lat="43.463265638367446" lon="10.616276149601727"><ele>471.16666666666663</ele><time>2026-04-18T15:24:26.001Z</time></trkpt><trkpt lat="43.46324291080913" lon="10.616412896131614"><ele>469.3333333333333</ele><time>2026-04-18T15:24:27.001Z</time></trkpt><trkpt lat="43.463216644326884" lon="10.616509175085154"><ele>467.5</ele><time>2026-04-18T15:24:28.001Z</time></trkpt><trkpt lat="43.46317704505012" lon="10.616608013245617"><ele>465.66666666666663</ele><time>2026-04-18T15:24:29.001Z</time></trkpt><trkpt lat="43.46313222911143" lon="10.616677542980042"><ele>463.8333333333333</ele><time>2026-04-18T15:24:30.001Z</time></trkpt><trkpt lat="43.463032736043566" lon="10.61676783670845"><ele>462.0</ele><time>2026-04-18T15:24:32.001Z</time></trkpt><trkpt lat="43.46296492052125" lon="10.616814370343285"><ele>462.0</ele><time>2026-04-18T15:24:34.001Z</time></trkpt><trkpt lat="43.46290411273429" lon="10.616853912627269"><ele>462.0</ele><time>2026-04-18T15:24:36.001Z</time></trkpt><trkpt lat="43.462968639220726" lon="10.616813300354899"><ele>462.0</ele><time>2026-04-18T15:24:53.001Z</time></trkpt><trkpt lat="43.4630298315816" lon="10.616772949806153"><ele>462.0</ele><time>2026-04-18T15:24:56.001Z</time></trkpt><trkpt lat="43.46309053580062" lon="10.616701119267377"><ele>462.0</ele><time>2026-04-18T15:24:59.001Z</time></trkpt><trkpt lat="43.46314001230161" lon="10.616628012309759"><ele>462.0</ele><time>2026-04-18T15:25:02.001Z</time></trkpt><trkpt lat="43.463176348947776" lon="10.616556540153427"><ele>462.0</ele><time>2026-04-18T15:25:05.001Z</time></trkpt><trkpt lat="43.4632037575687" lon="10.616445679193527"><ele>462.0</ele><time>2026-04-18T15:25:08.001Z</time></trkpt><trkpt lat="43.463232563745606" lon="10.616349616958244"><ele>462.0</ele><time>2026-04-18T15:25:12.001Z</time></trkpt><trkpt lat="43.463244790401006" lon="10.616221223643436"><ele>462.0</ele><time>2026-04-18T15:25:15.001Z</time></trkpt><trkpt lat="43.4632495995609" lon="10.61611808203916"><ele>462.0</ele><time>2026-04-18T15:25:18.002Z</time></trkpt><trkpt lat="43.463227032472105" lon="10.616228431011022"><ele>462.0</ele><time>2026-04-18T15:25:24.002Z</time></trkpt><trkpt lat="43.46322899772817" lon="10.616323243900093"><ele>462.0</ele><time>2026-04-18T15:25:25.002Z</time></trkpt><trkpt lat="43.46322613996082" lon="10.616417347457022"><ele>462.0</ele><time>2026-04-18T15:25:26.002Z</time></trkpt><trkpt lat="43.46320387610955" lon="10.6165141976838"><ele>462.0</ele><time>2026-04-18T15:25:27.002Z</time></trkpt><trkpt lat="43.46317822144347" lon="10.61660692891917"><ele>462.0</ele><time>2026-04-18T15:25:28.002Z</time></trkpt><trkpt lat="43.46311838381304" lon="10.616672073510923"><ele>462.0</ele><time>2026-04-18T15:25:29.002Z</time></trkpt><trkpt lat="43.4630566023619" lon="10.616741800732665"><ele>462.0</ele><time>2026-04-18T15:25:30.002Z</time></trkpt><trkpt lat="43.46299299698694" lon="10.616797717421967"><ele>462.0</ele><time>2026-04-18T15:25:31.002Z</time></trkpt><trkpt lat="43.462926354260176" lon="10.616834478289167"><ele>462.0</ele><time>2026-04-18T15:25:32.002Z</time></trkpt><trkpt lat="43.462856196835915" lon="10.616856256028584"><ele>462.20000000000005</ele><time>2026-04-18T15:25:33.002Z</time></trkpt><trkpt lat="43.4627579577111" lon="10.616834208047564"><ele>462.40000000000003</ele><time>2026-04-18T15:25:35.002Z</time></trkpt><trkpt lat="43.462695459992226" lon="10.616809327142258"><ele>462.59999999999997</ele><time>2026-04-18T15:25:36.002Z</time></trkpt><trkpt lat="43.46263492985668" lon="10.616761504478799"><ele>462.79999999999995</ele><time>2026-04-18T15:25:37.002Z</time></trkpt><trkpt lat="43.462543473695874" lon="10.616646808863397"><ele>463.0</ele><time>2026-04-18T15:25:39.002Z</time></trkpt><trkpt lat="43.46245867181036" lon="10.616481868788668"><ele>463.0</ele><time>2026-04-18T15:25:41.002Z</time></trkpt><trkpt lat="43.4624178811055" lon="10.616402935601466"><ele>462.99999999999994</ele><time>2026-04-18T15:25:42.002Z</time></trkpt><trkpt lat="43.46237741133808" lon="10.616334901163718"><ele>463.0</ele><time>2026-04-18T15:25:43.002Z</time></trkpt><trkpt lat="43.46230904618287" lon="10.616232422153143"><ele>463.0</ele><time>2026-04-18T15:25:45.002Z</time></trkpt><trkpt lat="43.46226577114955" lon="10.616156871821119"><ele>462.99999999999994</ele><time>2026-04-18T15:25:47.002Z</time></trkpt><trkpt lat="43.46220146111929" lon="10.616115146972056"><ele>463.0</ele><time>2026-04-18T15:27:47.002Z</time></trkpt><trkpt lat="43.462144264320486" lon="10.616064158708106"><ele>463.0</ele><time>2026-04-18T15:27:50.002Z</time></trkpt><trkpt lat="43.462069763436666" lon="10.616093547516744"><ele>464.1666666666667</ele><time>2026-04-18T15:27:53.002Z</time></trkpt><trkpt lat="43.461999769836005" lon="10.61614550740716"><ele>465.33333333333337</ele><time>2026-04-18T15:27:55.002Z</time></trkpt><trkpt lat="43.46192866368041" lon="10.616223832988648"><ele>466.5</ele><time>2026-04-18T15:27:57.002Z</time></trkpt><trkpt lat="43.46189390250335" lon="10.616298229513049"><ele>467.66666666666663</ele><time>2026-04-18T15:27:58.002Z</time></trkpt><trkpt lat="43.4618235468317" lon="10.616422501475945"><ele>468.8333333333333</ele><time>2026-04-18T15:28:00.002Z</time></trkpt><trkpt lat="43.46177877135417" lon="10.61648994125933"><ele>470.0</ele><time>2026-04-18T15:28:01.002Z</time></trkpt><trkpt lat="43.4617412112516" lon="10.616564402758364"><ele>469.99999999999994</ele><time>2026-04-18T15:28:02.002Z</time></trkpt><trkpt lat="43.461698644467425" lon="10.616635580504669"><ele>470.0</ele><time>2026-04-18T15:28:03.002Z</time></trkpt><trkpt lat="43.46166246335628" lon="10.616721138658225"><ele>470.0</ele><time>2026-04-18T15:28:04.002Z</time></trkpt><trkpt lat="43.46162932974373" lon="10.616805880274955"><ele>470.0</ele><time>2026-04-18T15:28:05.002Z</time></trkpt><trkpt lat="43.461574614307374" lon="10.616988791859335"><ele>469.99999999999994</ele><time>2026-04-18T15:28:07.002Z</time></trkpt><trkpt lat="43.46154552485743" lon="10.617088477235972"><ele>470.0</ele><time>2026-04-18T15:28:08.002Z</time></trkpt><trkpt lat="43.46149101808488" lon="10.61717034429358"><ele>466.8333333333333</ele><time>2026-04-18T15:28:09.002Z</time></trkpt><trkpt lat="43.46144160352416" lon="10.617254707956473"><ele>463.66666666666663</ele><time>2026-04-18T15:28:10.002Z</time></trkpt><trkpt lat="43.46137485427197" lon="10.617302351085293"><ele>460.5</ele><time>2026-04-18T15:28:11.002Z</time></trkpt><trkpt lat="43.46131487996752" lon="10.617362928844221"><ele>457.33333333333337</ele><time>2026-04-18T15:28:12.002Z</time></trkpt><trkpt lat="43.461262198246075" lon="10.617413053890974"><ele>454.1666666666667</ele><time>2026-04-18T15:28:13.002Z</time></trkpt><trkpt lat="43.46121261597531" lon="10.617500308523418"><ele>451.0</ele><time>2026-04-18T15:28:14.002Z</time></trkpt><trkpt lat="43.461118482481" lon="10.617600642505002"><ele>457.20000000000005</ele><time>2026-04-18T15:28:16.002Z</time></trkpt><trkpt lat="43.46108537326258" lon="10.617697699659345"><ele>463.40000000000003</ele><time>2026-04-18T15:28:17.002Z</time></trkpt><trkpt lat="43.461061946120985" lon="10.617846940467974"><ele>469.6</ele><time>2026-04-18T15:28:19.002Z</time></trkpt><trkpt lat="43.46109723392282" lon="10.617931445230553"><ele>475.8</ele><time>2026-04-18T15:28:21.002Z</time></trkpt><trkpt lat="43.461088405217374" lon="10.618078579013565"><ele>482.0</ele><time>2026-04-18T15:28:23.002Z</time></trkpt><trkpt lat="43.46110714062974" lon="10.618194831982015"><ele>482.0</ele><time>2026-04-18T15:28:24.002Z</time></trkpt><trkpt lat="43.46109498456906" lon="10.618299906774054"><ele>482.00000000000006</ele><time>2026-04-18T15:28:25.002Z</time></trkpt><trkpt lat="43.46105614492344" lon="10.618502720426445"><ele>482.00000000000006</ele><time>2026-04-18T15:28:27.002Z</time></trkpt><trkpt lat="43.461013470292755" lon="10.618611739895137"><ele>482.0</ele><time>2026-04-18T15:28:28.002Z</time></trkpt><trkpt lat="43.46097301772846" lon="10.618699931307757"><ele>482.0</ele><time>2026-04-18T15:28:29.002Z</time></trkpt><trkpt lat="43.460940978753335" lon="10.618793031005174"><ele>479.3333333333333</ele><time>2026-04-18T15:28:30.001Z</time></trkpt><trkpt lat="43.46088959089811" lon="10.61885118504713"><ele>476.66666666666663</ele><time>2026-04-18T15:28:31.001Z</time></trkpt><trkpt lat="43.46083072914822" lon="10.61893088193942"><ele>474.0</ele><time>2026-04-18T15:28:32.001Z</time></trkpt><trkpt lat="43.46078732720296" lon="10.619026729874527"><ele>471.33333333333337</ele><time>2026-04-18T15:28:33.001Z</time></trkpt><trkpt lat="43.46073162681923" lon="10.619111456862004"><ele>468.6666666666667</ele><time>2026-04-18T15:28:34.001Z</time></trkpt><trkpt lat="43.4606718393237" lon="10.619190076640564"><ele>466.0</ele><time>2026-04-18T15:28:35.001Z</time></trkpt><trkpt lat="43.46058331547716" lon="10.619305340809355"><ele>466.00000000000006</ele><time>2026-04-18T15:28:37.001Z</time></trkpt><trkpt lat="43.460518178209114" lon="10.619396450388702"><ele>466.0</ele><time>2026-04-18T15:28:38.001Z</time></trkpt><trkpt lat="43.4604906789863" lon="10.61947618082036"><ele>466.0</ele><time>2026-04-18T15:28:39.001Z</time></trkpt><trkpt lat="43.46048456131187" lon="10.619568647444943"><ele>466.0</ele><time>2026-04-18T15:28:40.001Z</time></trkpt><trkpt lat="43.46048263949151" lon="10.619680068428945"><ele>466.00000000000006</ele><time>2026-04-18T15:28:41.001Z</time></trkpt><trkpt lat="43.4604797845996" lon="10.619802399597646"><ele>466.0</ele><time>2026-04-18T15:28:42.001Z</time></trkpt><trkpt lat="43.46046703871862" lon="10.619916644639797"><ele>468.0</ele><time>2026-04-18T15:28:43.001Z</time></trkpt><trkpt lat="43.460446027036454" lon="10.620032333789345"><ele>470.0</ele><time>2026-04-18T15:28:44.001Z</time></trkpt><trkpt lat="43.460396265357986" lon="10.62015952966606"><ele>472.0</ele><time>2026-04-18T15:28:46.001Z</time></trkpt><trkpt lat="43.46031261433943" lon="10.620418209718776"><ele>474.0</ele><time>2026-04-18T15:28:48.001Z</time></trkpt><trkpt lat="43.46028734686679" lon="10.620549225134178"><ele>474.0</ele><time>2026-04-18T15:28:49.001Z</time></trkpt><trkpt lat="43.460238579812405" lon="10.62068290666915"><ele>474.0</ele><time>2026-04-18T15:28:50.001Z</time></trkpt><trkpt lat="43.460217287341564" lon="10.620802242467116"><ele>474.0</ele><time>2026-04-18T15:28:51.001Z</time></trkpt><trkpt lat="43.46019227196513" lon="10.620909162802725"><ele>474.0</ele><time>2026-04-18T15:28:52.001Z</time></trkpt><trkpt lat="43.46014340184222" lon="10.621026160950276"><ele>474.0</ele><time>2026-04-18T15:28:53.001Z</time></trkpt><trkpt lat="43.46009060283777" lon="10.621144422364328"><ele>470.6</ele><time>2026-04-18T15:28:54.001Z</time></trkpt><trkpt lat="43.460045620319335" lon="10.621311797105715"><ele>467.2</ele><time>2026-04-18T15:28:55.001Z</time></trkpt><trkpt lat="43.45997912038988" lon="10.621436198757308"><ele>463.80000000000007</ele><time>2026-04-18T15:28:56.001Z</time></trkpt><trkpt lat="43.45992474027293" lon="10.621559084500172"><ele>460.40000000000003</ele><time>2026-04-18T15:28:57.001Z</time></trkpt><trkpt lat="43.45989258994802" lon="10.621672746223943"><ele>457.0</ele><time>2026-04-18T15:28:58.001Z</time></trkpt><trkpt lat="43.45984959512504" lon="10.62178659777316"><ele>457.0</ele><time>2026-04-18T15:28:59.001Z</time></trkpt><trkpt lat="43.45979384514385" lon="10.62191942299259"><ele>457.0</ele><time>2026-04-18T15:29:00.001Z</time></trkpt><trkpt lat="43.45972615847621" lon="10.62208049562396"><ele>457.0</ele><time>2026-04-18T15:29:01.001Z</time></trkpt><trkpt lat="43.45966632398188" lon="10.622176831961541"><ele>457.0</ele><time>2026-04-18T15:29:02.001Z</time></trkpt><trkpt lat="43.45958422639229" lon="10.622319863295646"><ele>453.5</ele><time>2026-04-18T15:29:04.001Z</time></trkpt><trkpt lat="43.45950348074246" lon="10.622337612598297"><ele>450.0</ele><time>2026-04-18T15:29:06.001Z</time></trkpt><trkpt lat="43.459346281451374" lon="10.622340474274873"><ele>446.5</ele><time>2026-04-18T15:29:08.001Z</time></trkpt><trkpt lat="43.45925085805467" lon="10.622317827251642"><ele>443.0</ele><time>2026-04-18T15:29:09.001Z</time></trkpt><trkpt lat="43.4591355586386" lon="10.622299347011623"><ele>443.0</ele><time>2026-04-18T15:29:11.001Z</time></trkpt><trkpt lat="43.459032250791346" lon="10.622269705343966"><ele>442.99999999999994</ele><time>2026-04-18T15:29:13.001Z</time></trkpt><trkpt lat="43.458941395019906" lon="10.622241237980736"><ele>442.99999999999994</ele><time>2026-04-18T15:29:15.001Z</time></trkpt><trkpt lat="43.458846326376" lon="10.622217105530268"><ele>443.0</ele><time>2026-04-18T15:29:18.001Z</time></trkpt><trkpt lat="43.45880890686863" lon="10.622089397814364"><ele>443.0</ele><time>2026-04-18T15:29:20.001Z</time></trkpt><trkpt lat="43.4587615482773" lon="10.622001057477163"><ele>441.3333333333333</ele><time>2026-04-18T15:29:23.001Z</time></trkpt><trkpt lat="43.45869929476803" lon="10.621957620316444"><ele>439.66666666666663</ele><time>2026-04-18T15:29:27.001Z</time></trkpt><trkpt lat="43.45865005013589" lon="10.62185588925913"><ele>438.0</ele><time>2026-04-18T15:29:45.001Z</time></trkpt><trkpt lat="43.45858872914673" lon="10.621762317100087"><ele>436.33333333333337</ele><time>2026-04-18T15:29:47.001Z</time></trkpt><trkpt lat="43.458523929196474" lon="10.621666255936121"><ele>434.6666666666667</ele><time>2026-04-18T15:29:49.002Z</time></trkpt><trkpt lat="43.45847479836409" lon="10.621578209488105"><ele>433.0</ele><time>2026-04-18T15:29:51.002Z</time></trkpt><trkpt lat="43.45841924984394" lon="10.621481067456994"><ele>433.0</ele><time>2026-04-18T15:29:53.002Z</time></trkpt><trkpt lat="43.45837138614265" lon="10.621396958321412"><ele>432.99999999999994</ele><time>2026-04-18T15:29:55.002Z</time></trkpt><trkpt lat="43.45832451593996" lon="10.621284813099487"><ele>432.99999999999994</ele><time>2026-04-18T15:29:57.002Z</time></trkpt><trkpt lat="43.45828114864653" lon="10.621151581633614"><ele>433.0</ele><time>2026-04-18T15:29:59.002Z</time></trkpt><trkpt lat="43.45823488495505" lon="10.620999998137167"><ele>433.0</ele><time>2026-04-18T15:30:01.002Z</time></trkpt><trkpt lat="43.45819449922851" lon="10.620874183574994"><ele>436.25</ele><time>2026-04-18T15:30:03.002Z</time></trkpt><trkpt lat="43.458161447445995" lon="10.620705802227702"><ele>439.5</ele><time>2026-04-18T15:30:05.002Z</time></trkpt><trkpt lat="43.45814134302723" lon="10.620563641071701"><ele>442.75</ele><time>2026-04-18T15:30:07.002Z</time></trkpt><trkpt lat="43.45813044562643" lon="10.620390053474607"><ele>446.0</ele><time>2026-04-18T15:30:09.002Z</time></trkpt><trkpt lat="43.45813837433575" lon="10.620244295754881"><ele>446.4</ele><time>2026-04-18T15:30:11.002Z</time></trkpt><trkpt lat="43.4581625288557" lon="10.620071251438336"><ele>446.8</ele><time>2026-04-18T15:30:13.002Z</time></trkpt><trkpt lat="43.45821795521851" lon="10.619949066317075"><ele>447.19999999999993</ele><time>2026-04-18T15:30:15.002Z</time></trkpt><trkpt lat="43.45825166910873" lon="10.619813385831721"><ele>447.59999999999997</ele><time>2026-04-18T15:30:17.002Z</time></trkpt><trkpt lat="43.4582497315903" lon="10.619720330103586"><ele>448.0</ele><time>2026-04-18T15:30:18.002Z</time></trkpt><trkpt lat="43.458265595845994" lon="10.619585825651349"><ele>447.6666666666667</ele><time>2026-04-18T15:30:20.002Z</time></trkpt><trkpt lat="43.458291226238835" lon="10.61945978086087"><ele>447.33333333333337</ele><time>2026-04-18T15:30:22.002Z</time></trkpt><trkpt lat="43.45828680921011" lon="10.619353569050134"><ele>447.0</ele><time>2026-04-18T15:30:24.002Z</time></trkpt><trkpt lat="43.45829079783968" lon="10.61924092565714"><ele>446.66666666666663</ele><time>2026-04-18T15:30:26.002Z</time></trkpt><trkpt lat="43.45829244678471" lon="10.61913984303064"><ele>446.3333333333333</ele><time>2026-04-18T15:30:28.002Z</time></trkpt><trkpt lat="43.45828294728175" lon="10.618996199736774"><ele>446.0</ele><time>2026-04-18T15:30:30Z</time></trkpt><trkpt lat="43.45827524151663" lon="10.618823946038573"><ele>446.0</ele><time>2026-04-18T15:30:32Z</time></trkpt><trkpt lat="43.45822621954649" lon="10.618714141608347"><ele>446.0</ele><time>2026-04-18T15:30:34Z</time></trkpt><trkpt lat="43.45818918014392" lon="10.618575710141808"><ele>446.0</ele><time>2026-04-18T15:30:36Z</time></trkpt><trkpt lat="43.45812706210959" lon="10.618440326726548"><ele>446.0</ele><time>2026-04-18T15:30:38Z</time></trkpt><trkpt lat="43.45805806854309" lon="10.618299690373906"><ele>446.0</ele><time>2026-04-18T15:30:40Z</time></trkpt><trkpt lat="43.458010421707236" lon="10.618160747797287"><ele>447.16666666666663</ele><time>2026-04-18T15:30:41Z</time></trkpt><trkpt lat="43.45798110951735" lon="10.618047860318903"><ele>448.3333333333333</ele><time>2026-04-18T15:30:42Z</time></trkpt><trkpt lat="43.45795031947998" lon="10.617954334218743"><ele>449.5</ele><time>2026-04-18T15:30:43Z</time></trkpt><trkpt lat="43.45791972359625" lon="10.617858265452558"><ele>450.66666666666663</ele><time>2026-04-18T15:30:44Z</time></trkpt><trkpt lat="43.45789890955209" lon="10.617769602388483"><ele>451.8333333333333</ele><time>2026-04-18T15:30:45Z</time></trkpt><trkpt lat="43.45786090648067" lon="10.617679866468093"><ele>453.0</ele><time>2026-04-18T15:30:46Z</time></trkpt><trkpt lat="43.45783970915957" lon="10.617580573021863"><ele>447.79999999999995</ele><time>2026-04-18T15:30:47Z</time></trkpt><trkpt lat="43.45782462518854" lon="10.617491132402181"><ele>442.59999999999997</ele><time>2026-04-18T15:30:48Z</time></trkpt><trkpt lat="43.45781414895471" lon="10.617391297972839"><ele>437.40000000000003</ele><time>2026-04-18T15:30:49Z</time></trkpt><trkpt lat="43.457809062663955" lon="10.617302084176009"><ele>432.20000000000005</ele><time>2026-04-18T15:30:50Z</time></trkpt><trkpt lat="43.45780520871392" lon="10.61712812067495"><ele>427.0</ele><time>2026-04-18T15:30:52Z</time></trkpt><trkpt lat="43.45781441993517" lon="10.616935759276927"><ele>426.8</ele><time>2026-04-18T15:30:54Z</time></trkpt><trkpt lat="43.457840856112945" lon="10.616777395797241"><ele>426.6</ele><time>2026-04-18T15:30:56Z</time></trkpt><trkpt lat="43.45786471310259" lon="10.616649406233803"><ele>426.40000000000003</ele><time>2026-04-18T15:30:58Z</time></trkpt><trkpt lat="43.45787825200101" lon="10.616500339062213"><ele>426.20000000000005</ele><time>2026-04-18T15:31:00Z</time></trkpt><trkpt lat="43.45787267891069" lon="10.616404036645767"><ele>426.0</ele><time>2026-04-18T15:31:01Z</time></trkpt><trkpt lat="43.45784116284531" lon="10.616249058743184"><ele>426.8333333333333</ele><time>2026-04-18T15:31:03Z</time></trkpt><trkpt lat="43.45779308213689" lon="10.616109621071178"><ele>427.66666666666663</ele><time>2026-04-18T15:31:05Z</time></trkpt><trkpt lat="43.457758369276846" lon="10.615977134491764"><ele>428.5</ele><time>2026-04-18T15:31:07Z</time></trkpt><trkpt lat="43.45769256541171" lon="10.615888609603742"><ele>429.3333333333333</ele><time>2026-04-18T15:31:09Z</time></trkpt><trkpt lat="43.45765724384535" lon="10.615807914716902"><ele>430.16666666666663</ele><time>2026-04-18T15:31:10Z</time></trkpt><trkpt lat="43.457609252008076" lon="10.615735435614637"><ele>431.0</ele><time>2026-04-18T15:31:11Z</time></trkpt><trkpt lat="43.457573400001756" lon="10.61561179938107"><ele>430.99999999999994</ele><time>2026-04-18T15:31:12.001Z</time></trkpt><trkpt lat="43.457517383866694" lon="10.615471251300393"><ele>431.0</ele><time>2026-04-18T15:31:13.001Z</time></trkpt><trkpt lat="43.4574858159374" lon="10.615378240743741"><ele>431.0</ele><time>2026-04-18T15:31:14.001Z</time></trkpt><trkpt lat="43.45749061201136" lon="10.615260629194289"><ele>431.0</ele><time>2026-04-18T15:31:15.001Z</time></trkpt><trkpt lat="43.45746166981508" lon="10.615151633959949"><ele>430.99999999999994</ele><time>2026-04-18T15:31:16.001Z</time></trkpt><trkpt lat="43.45745436710356" lon="10.615049395935253"><ele>431.0</ele><time>2026-04-18T15:31:17.001Z</time></trkpt><trkpt lat="43.457448328450916" lon="10.614931733579347"><ele>431.8333333333333</ele><time>2026-04-18T15:31:18.001Z</time></trkpt><trkpt lat="43.45744749251256" lon="10.614825895894445"><ele>432.66666666666663</ele><time>2026-04-18T15:31:19.001Z</time></trkpt><trkpt lat="43.45742077604836" lon="10.614717225791688"><ele>433.5</ele><time>2026-04-18T15:31:20.001Z</time></trkpt><trkpt lat="43.45742695027352" lon="10.614615054653814"><ele>434.33333333333337</ele><time>2026-04-18T15:31:21.001Z</time></trkpt><trkpt lat="43.45742759876814" lon="10.61451215705463"><ele>435.1666666666667</ele><time>2026-04-18T15:31:22.001Z</time></trkpt><trkpt lat="43.45742987479192" lon="10.614407859143846"><ele>436.0</ele><time>2026-04-18T15:31:23.001Z</time></trkpt><trkpt lat="43.457433933201116" lon="10.614303557654909"><ele>436.14285714285717</ele><time>2026-04-18T15:31:24.001Z</time></trkpt><trkpt lat="43.45743906777419" lon="10.614203121587344"><ele>436.28571428571433</ele><time>2026-04-18T15:31:25.001Z</time></trkpt><trkpt lat="43.457444561441655" lon="10.614107756147991"><ele>436.42857142857144</ele><time>2026-04-18T15:31:26.001Z</time></trkpt><trkpt lat="43.45745139344478" lon="10.614014048997465"><ele>436.57142857142856</ele><time>2026-04-18T15:31:27.001Z</time></trkpt><trkpt lat="43.4574605324283" lon="10.613918356454857"><ele>436.7142857142857</ele><time>2026-04-18T15:31:28.001Z</time></trkpt><trkpt lat="43.45747498841947" lon="10.613799024172103"><ele>436.85714285714283</ele><time>2026-04-18T15:31:29.001Z</time></trkpt><trkpt lat="43.457488763196935" lon="10.613702101013326"><ele>437.0</ele><time>2026-04-18T15:31:30.001Z</time></trkpt><trkpt lat="43.45749861513913" lon="10.613603660031606"><ele>435.66666666666663</ele><time>2026-04-18T15:31:31.001Z</time></trkpt><trkpt lat="43.45753830834463" lon="10.613485417256411"><ele>434.3333333333333</ele><time>2026-04-18T15:31:32.001Z</time></trkpt><trkpt lat="43.45756277660236" lon="10.61339633021144"><ele>433.0</ele><time>2026-04-18T15:31:33.001Z</time></trkpt><trkpt lat="43.457590535108494" lon="10.61330800065323"><ele>431.66666666666663</ele><time>2026-04-18T15:31:34.001Z</time></trkpt><trkpt lat="43.45766198096165" lon="10.613175984353925"><ele>430.3333333333333</ele><time>2026-04-18T15:31:36.001Z</time></trkpt><trkpt lat="43.457747770786554" lon="10.613126728271384"><ele>429.0</ele><time>2026-04-18T15:31:38.001Z</time></trkpt><trkpt lat="43.457846620423105" lon="10.613057075838828"><ele>429.0</ele><time>2026-04-18T15:31:40.001Z</time></trkpt><trkpt lat="43.45791153521958" lon="10.612992987187976"><ele>429.0</ele><time>2026-04-18T15:31:42.001Z</time></trkpt><trkpt lat="43.45797327449317" lon="10.612945019705682"><ele>429.0</ele><time>2026-04-18T15:31:43.001Z</time></trkpt><trkpt lat="43.45806564608354" lon="10.612857364605807"><ele>429.0</ele><time>2026-04-18T15:31:45.001Z</time></trkpt><trkpt lat="43.45808006577947" lon="10.612758270650627"><ele>429.0</ele><time>2026-04-18T15:31:46.001Z</time></trkpt><trkpt lat="43.458113421094104" lon="10.6126285000346"><ele>429.0</ele><time>2026-04-18T15:31:47.001Z</time></trkpt><trkpt lat="43.458136133607944" lon="10.612539701928563"><ele>430.3333333333333</ele><time>2026-04-18T15:31:48.001Z</time></trkpt><trkpt lat="43.45815049134035" lon="10.612437211106853"><ele>431.66666666666663</ele><time>2026-04-18T15:31:49.001Z</time></trkpt><trkpt lat="43.458162334884285" lon="10.61234436355806"><ele>433.0</ele><time>2026-04-18T15:31:50.001Z</time></trkpt><trkpt lat="43.458158174982124" lon="10.61223877399464"><ele>434.3333333333333</ele><time>2026-04-18T15:31:51.001Z</time></trkpt><trkpt lat="43.458178957631546" lon="10.612121725548617"><ele>435.66666666666663</ele><time>2026-04-18T15:31:52.001Z</time></trkpt><trkpt lat="43.45817912086565" lon="10.612002152627944"><ele>437.0</ele><time>2026-04-18T15:31:53.001Z</time></trkpt><trkpt lat="43.45819431549733" lon="10.6119145383553"><ele>437.0</ele><time>2026-04-18T15:31:54.001Z</time></trkpt><trkpt lat="43.458198513634116" lon="10.611827775390823"><ele>437.00000000000006</ele><time>2026-04-18T15:31:55.001Z</time></trkpt><trkpt lat="43.45831411844742" lon="10.611774781126275"><ele>437.00000000000006</ele><time>2026-04-18T15:31:57.001Z</time></trkpt><trkpt lat="43.45838431063477" lon="10.611689150632218"><ele>437.0</ele><time>2026-04-18T15:31:59.001Z</time></trkpt><trkpt lat="43.45843376690842" lon="10.611618915110288"><ele>437.0</ele><time>2026-04-18T15:32:00.001Z</time></trkpt><trkpt lat="43.45852583951517" lon="10.611509348756377"><ele>436.99999999999994</ele><time>2026-04-18T15:32:02.001Z</time></trkpt><trkpt lat="43.458550616650214" lon="10.611425443737044"><ele>437.0</ele><time>2026-04-18T15:32:03.001Z</time></trkpt><trkpt lat="43.45864642577991" lon="10.611320953199314"><ele>437.0</ele><time>2026-04-18T15:32:05.001Z</time></trkpt><trkpt lat="43.45871010234167" lon="10.611237832544251"><ele>437.0</ele><time>2026-04-18T15:32:06.001Z</time></trkpt><trkpt lat="43.45877198143597" lon="10.611158994339847"><ele>436.99999999999994</ele><time>2026-04-18T15:32:07.001Z</time></trkpt><trkpt lat="43.45882063754905" lon="10.611088585028503"><ele>437.0</ele><time>2026-04-18T15:32:08.001Z</time></trkpt><trkpt lat="43.45888797498842" lon="10.611006480108328"><ele>438.3333333333333</ele><time>2026-04-18T15:32:09.001Z</time></trkpt><trkpt lat="43.45894995446662" lon="10.610933959232819"><ele>439.66666666666663</ele><time>2026-04-18T15:32:10.001Z</time></trkpt><trkpt lat="43.459016545161155" lon="10.610872670231876"><ele>441.0</ele><time>2026-04-18T15:32:11.001Z</time></trkpt><trkpt lat="43.45907129575152" lon="10.610817860963241"><ele>442.33333333333337</ele><time>2026-04-18T15:32:12.001Z</time></trkpt><trkpt lat="43.459153609710775" lon="10.610729688607613"><ele>443.6666666666667</ele><time>2026-04-18T15:32:14.001Z</time></trkpt><trkpt lat="43.459204701506046" lon="10.610660419571753"><ele>445.0</ele><time>2026-04-18T15:32:15.001Z</time></trkpt><trkpt lat="43.45925390155343" lon="10.61058232459547"><ele>445.0</ele><time>2026-04-18T15:32:16.001Z</time></trkpt><trkpt lat="43.4592923411956" lon="10.610480025994942"><ele>445.0</ele><time>2026-04-18T15:32:17.001Z</time></trkpt><trkpt lat="43.459352975742" lon="10.610389354263141"><ele>445.0</ele><time>2026-04-18T15:32:18.001Z</time></trkpt><trkpt lat="43.459399857481536" lon="10.610301629312005"><ele>445.0</ele><time>2026-04-18T15:32:19.001Z</time></trkpt><trkpt lat="43.45942886375028" lon="10.61020854996679"><ele>445.0</ele><time>2026-04-18T15:32:20.001Z</time></trkpt><trkpt lat="43.45951433784616" lon="10.610070640890934"><ele>443.33333333333337</ele><time>2026-04-18T15:32:22.001Z</time></trkpt><trkpt lat="43.45955433604406" lon="10.609987315284473"><ele>441.6666666666667</ele><time>2026-04-18T15:32:23.001Z</time></trkpt><trkpt lat="43.45958790972615" lon="10.609907986983384"><ele>440.0</ele><time>2026-04-18T15:32:24.001Z</time></trkpt><trkpt lat="43.459625360223804" lon="10.609811927544321"><ele>438.33333333333337</ele><time>2026-04-18T15:32:25.001Z</time></trkpt><trkpt lat="43.45966200320521" lon="10.60972530767415"><ele>436.6666666666667</ele><time>2026-04-18T15:32:26.001Z</time></trkpt><trkpt lat="43.459729424843175" lon="10.609591970206996"><ele>435.0</ele><time>2026-04-18T15:32:28.001Z</time></trkpt><trkpt lat="43.459773391940786" lon="10.609499012312664"><ele>436.5</ele><time>2026-04-18T15:32:29.001Z</time></trkpt><trkpt lat="43.45982012023745" lon="10.609398779079674"><ele>438.0</ele><time>2026-04-18T15:32:31.001Z</time></trkpt><trkpt lat="43.459864513727425" lon="10.609316874001548"><ele>439.5</ele><time>2026-04-18T15:32:34.002Z</time></trkpt><trkpt lat="43.45991590665093" lon="10.609154405215138"><ele>441.0</ele><time>2026-04-18T15:32:36Z</time></trkpt><trkpt lat="43.459955148747" lon="10.609064884486273"><ele>442.5</ele><time>2026-04-18T15:32:37Z</time></trkpt><trkpt lat="43.45998058785301" lon="10.608983131252979"><ele>444.0</ele><time>2026-04-18T15:32:38Z</time></trkpt><trkpt lat="43.459995275303925" lon="10.608891455373179"><ele>444.0</ele><time>2026-04-18T15:32:39Z</time></trkpt><trkpt lat="43.460009977430865" lon="10.60879408521042"><ele>444.0</ele><time>2026-04-18T15:32:40Z</time></trkpt><trkpt lat="43.46002056586069" lon="10.608691316961897"><ele>444.0</ele><time>2026-04-18T15:32:41Z</time></trkpt><trkpt lat="43.46002882792712" lon="10.6086038255182"><ele>444.0</ele><time>2026-04-18T15:32:42Z</time></trkpt><trkpt lat="43.46007124958389" lon="10.608512305013676"><ele>444.0</ele><time>2026-04-18T15:32:43Z</time></trkpt><trkpt lat="43.46009872861255" lon="10.608426153283816"><ele>444.0</ele><time>2026-04-18T15:32:44Z</time></trkpt><trkpt lat="43.460136259509255" lon="10.608348474891951"><ele>444.0</ele><time>2026-04-18T15:32:45Z</time></trkpt><trkpt lat="43.46017419386656" lon="10.608278112500997"><ele>444.2</ele><time>2026-04-18T15:32:46Z</time></trkpt><trkpt lat="43.460264608328906" lon="10.6081686506583"><ele>444.4</ele><time>2026-04-18T15:32:48Z</time></trkpt><trkpt lat="43.46033878752305" lon="10.608175060352176"><ele>444.6</ele><time>2026-04-18T15:32:49Z</time></trkpt><trkpt lat="43.460391501705985" lon="10.608235976416927"><ele>444.8</ele><time>2026-04-18T15:32:50Z</time></trkpt><trkpt lat="43.4604907066788" lon="10.608288198982022"><ele>445.0</ele><time>2026-04-18T15:32:52Z</time></trkpt><trkpt lat="43.460576065127704" lon="10.608409483101129"><ele>445.0</ele><time>2026-04-18T15:32:54Z</time></trkpt><trkpt lat="43.46067711436102" lon="10.608504125261463"><ele>445.0</ele><time>2026-04-18T15:32:56Z</time></trkpt><trkpt lat="43.46075903062389" lon="10.608509209700244"><ele>445.0</ele><time>2026-04-18T15:32:58Z</time></trkpt><trkpt lat="43.46084009686134" lon="10.608494527380572"><ele>445.0</ele><time>2026-04-18T15:32:59Z</time></trkpt><trkpt lat="43.46091355215265" lon="10.60843412214458"><ele>445.0</ele><time>2026-04-18T15:33:00Z</time></trkpt><trkpt lat="43.46097730075608" lon="10.60833454682035"><ele>445.0</ele><time>2026-04-18T15:33:01Z</time></trkpt><trkpt lat="43.46102295167555" lon="10.608262335527558"><ele>445.0</ele><time>2026-04-18T15:33:02Z</time></trkpt><trkpt lat="43.461038929000175" lon="10.608162706905416"><ele>445.0</ele><time>2026-04-18T15:33:03Z</time></trkpt><trkpt lat="43.46105488831513" lon="10.60807546358252"><ele>445.0</ele><time>2026-04-18T15:33:04Z</time></trkpt><trkpt lat="43.461057531475255" lon="10.607974817135897"><ele>445.0</ele><time>2026-04-18T15:33:05Z</time></trkpt><trkpt lat="43.46108664341599" lon="10.607878064084792"><ele>445.0</ele><time>2026-04-18T15:33:06Z</time></trkpt><trkpt lat="43.46110255952897" lon="10.607771072313763"><ele>445.0</ele><time>2026-04-18T15:33:07Z</time></trkpt><trkpt lat="43.46112348115636" lon="10.607654116666092"><ele>443.2</ele><time>2026-04-18T15:33:08Z</time></trkpt><trkpt lat="43.4611246960408" lon="10.607543140835007"><ele>441.4</ele><time>2026-04-18T15:33:09Z</time></trkpt><trkpt lat="43.46113532584939" lon="10.60734592949463"><ele>439.6</ele><time>2026-04-18T15:33:11Z</time></trkpt><trkpt lat="43.46114712789266" lon="10.607235682111085"><ele>437.8</ele><time>2026-04-18T15:33:12Z</time></trkpt><trkpt lat="43.46116397669517" lon="10.607121610506386"><ele>436.0</ele><time>2026-04-18T15:33:13Z</time></trkpt><trkpt lat="43.46118126612992" lon="10.607022405592627"><ele>434.00000000000006</ele><time>2026-04-18T15:33:14Z</time></trkpt><trkpt lat="43.46118727603506" lon="10.606923379819364"><ele>432.0</ele><time>2026-04-18T15:33:15Z</time></trkpt><trkpt lat="43.46118114484263" lon="10.60682018913146"><ele>430.0</ele><time>2026-04-18T15:33:16Z</time></trkpt><trkpt lat="43.461162361541604" lon="10.606705276863574"><ele>428.0</ele><time>2026-04-18T15:33:17Z</time></trkpt><trkpt lat="43.4611506900956" lon="10.606600990837789"><ele>426.00000000000006</ele><time>2026-04-18T15:33:18Z</time></trkpt><trkpt lat="43.46117101146626" lon="10.606507828991772"><ele>424.0</ele><time>2026-04-18T15:33:19Z</time></trkpt><trkpt lat="43.461216027358326" lon="10.606361002091216"><ele>424.00000000000006</ele><time>2026-04-18T15:33:21Z</time></trkpt><trkpt lat="43.46125842867548" lon="10.6062895505549"><ele>424.0</ele><time>2026-04-18T15:33:22Z</time></trkpt><trkpt lat="43.46130448961936" lon="10.606206072272725"><ele>424.0</ele><time>2026-04-18T15:33:23Z</time></trkpt><trkpt lat="43.46136168025786" lon="10.606127616937668"><ele>424.0</ele><time>2026-04-18T15:33:24Z</time></trkpt><trkpt lat="43.46141023710812" lon="10.60604936524032"><ele>424.00000000000006</ele><time>2026-04-18T15:33:25Z</time></trkpt><trkpt lat="43.46145553493021" lon="10.605956255778691"><ele>424.0</ele><time>2026-04-18T15:33:26Z</time></trkpt><trkpt lat="43.46150144030499" lon="10.605864418256868"><ele>424.1666666666667</ele><time>2026-04-18T15:33:27Z</time></trkpt><trkpt lat="43.461551808045755" lon="10.60577750726333"><ele>424.33333333333337</ele><time>2026-04-18T15:33:28Z</time></trkpt><trkpt lat="43.46160089292769" lon="10.605691789750997"><ele>424.5</ele><time>2026-04-18T15:33:29Z</time></trkpt><trkpt lat="43.461640133160294" lon="10.605614233070261"><ele>424.66666666666663</ele><time>2026-04-18T15:33:30Z</time></trkpt><trkpt lat="43.461679655973384" lon="10.605508401487306"><ele>424.8333333333333</ele><time>2026-04-18T15:33:32Z</time></trkpt><trkpt lat="43.461694162055856" lon="10.60540114249082"><ele>425.0</ele><time>2026-04-18T15:33:35Z</time></trkpt><trkpt lat="43.46173376123029" lon="10.60530060732278"><ele>424.99999999999994</ele><time>2026-04-18T15:34:49Z</time></trkpt><trkpt lat="43.46177265345509" lon="10.60521997735333"><ele>425.0</ele><time>2026-04-18T15:34:51Z</time></trkpt><trkpt lat="43.461822582538886" lon="10.60512217136252"><ele>425.0</ele><time>2026-04-18T15:34:53Z</time></trkpt><trkpt lat="43.461870765882985" lon="10.60501708681633"><ele>425.0</ele><time>2026-04-18T15:34:55Z</time></trkpt><trkpt lat="43.461913731164906" lon="10.604923714534657"><ele>424.99999999999994</ele><time>2026-04-18T15:34:57Z</time></trkpt><trkpt lat="43.4619703077984" lon="10.604816338586295"><ele>425.0</ele><time>2026-04-18T15:34:59Z</time></trkpt><trkpt lat="43.46203503384432" lon="10.60468944214369"><ele>424.99999999999994</ele><time>2026-04-18T15:35:01Z</time></trkpt><trkpt lat="43.462101323719004" lon="10.60455607769935"><ele>425.0</ele><time>2026-04-18T15:35:03Z</time></trkpt><trkpt lat="43.46216880186885" lon="10.60441565545601"><ele>425.0</ele><time>2026-04-18T15:35:05Z</time></trkpt><trkpt lat="43.462206920671754" lon="10.604338443747086"><ele>425.0</ele><time>2026-04-18T15:35:06Z</time></trkpt><trkpt lat="43.46224291072057" lon="10.604259551659643"><ele>424.99999999999994</ele><time>2026-04-18T15:35:07Z</time></trkpt><trkpt lat="43.462280161925705" lon="10.604182896179559"><ele>425.0</ele><time>2026-04-18T15:35:08Z</time></trkpt><trkpt lat="43.462319117419504" lon="10.604103321961224"><ele>428.49999999999994</ele><time>2026-04-18T15:35:09Z</time></trkpt><trkpt lat="43.46238003494075" lon="10.604057091043442"><ele>432.0</ele><time>2026-04-18T15:35:10Z</time></trkpt><trkpt lat="43.4624196263071" lon="10.603982214287006"><ele>435.5</ele><time>2026-04-18T15:35:11Z</time></trkpt><trkpt lat="43.462463049850406" lon="10.603906872247286"><ele>439.0</ele><time>2026-04-18T15:35:12Z</time></trkpt><trkpt lat="43.46254118823431" lon="10.603809434773984"><ele>442.49999999999994</ele><time>2026-04-18T15:35:14Z</time></trkpt><trkpt lat="43.462639068918854" lon="10.603737516152936"><ele>446.0</ele><time>2026-04-18T15:35:16Z</time></trkpt><trkpt lat="43.462742885194196" lon="10.603748847624967"><ele>446.0</ele><time>2026-04-18T15:35:18Z</time></trkpt><trkpt lat="43.46284824848318" lon="10.603780856498835"><ele>446.0</ele><time>2026-04-18T15:35:20Z</time></trkpt><trkpt lat="43.46296116852496" lon="10.603853156681138"><ele>446.0</ele><time>2026-04-18T15:35:22Z</time></trkpt><trkpt lat="43.46302085428064" lon="10.603890791347592"><ele>446.0</ele><time>2026-04-18T15:35:23Z</time></trkpt><trkpt lat="43.463122257837796" lon="10.603949693784273"><ele>446.0</ele><time>2026-04-18T15:35:25Z</time></trkpt><trkpt lat="43.46321461507215" lon="10.604012469971142"><ele>448.8</ele><time>2026-04-18T15:35:27Z</time></trkpt><trkpt lat="43.463307011560644" lon="10.604065736277951"><ele>451.6</ele><time>2026-04-18T15:35:29Z</time></trkpt><trkpt lat="43.46338666988648" lon="10.604134852491251"><ele>454.4</ele><time>2026-04-18T15:35:31Z</time></trkpt><trkpt lat="43.46348480283957" lon="10.604193132899516"><ele>457.2</ele><time>2026-04-18T15:35:33Z</time></trkpt><trkpt lat="43.463584057382846" lon="10.604264977062167"><ele>460.0</ele><time>2026-04-18T15:35:35Z</time></trkpt><trkpt lat="43.463659104603096" lon="10.604321734068003"><ele>460.0</ele><time>2026-04-18T15:35:37Z</time></trkpt><trkpt lat="43.463778307163984" lon="10.604394332952268"><ele>460.0</ele><time>2026-04-18T15:35:39.001Z</time></trkpt><trkpt lat="43.463838258966966" lon="10.604425572033923"><ele>460.0</ele><time>2026-04-18T15:35:40.001Z</time></trkpt><trkpt lat="43.46395997927251" lon="10.604484138251813"><ele>460.0</ele><time>2026-04-18T15:35:42.001Z</time></trkpt><trkpt lat="43.46404733790034" lon="10.604529660965628"><ele>460.0</ele><time>2026-04-18T15:35:44.001Z</time></trkpt><trkpt lat="43.46415874225022" lon="10.604430275989285"><ele>462.1666666666667</ele><time>2026-04-18T15:35:46.001Z</time></trkpt><trkpt lat="43.46420184758642" lon="10.604348979539889"><ele>464.33333333333337</ele><time>2026-04-18T15:35:47.001Z</time></trkpt><trkpt lat="43.46421932185935" lon="10.60426302491987"><ele>466.5</ele><time>2026-04-18T15:35:48.001Z</time></trkpt><trkpt lat="43.46420853082008" lon="10.604175394614838"><ele>468.66666666666663</ele><time>2026-04-18T15:35:49.001Z</time></trkpt><trkpt lat="43.46418428892244" lon="10.60407938454518"><ele>470.8333333333333</ele><time>2026-04-18T15:35:50.001Z</time></trkpt><trkpt lat="43.46412793423866" lon="10.603930519773268"><ele>473.0</ele><time>2026-04-18T15:35:52.001Z</time></trkpt><trkpt lat="43.46408645921444" lon="10.603841393645501"><ele>472.99999999999994</ele><time>2026-04-18T15:35:53.001Z</time></trkpt><trkpt lat="43.46400760208621" lon="10.603729183203733"><ele>473.0</ele><time>2026-04-18T15:35:55.001Z</time></trkpt><trkpt lat="43.463978399480695" lon="10.603639006533347"><ele>473.0</ele><time>2026-04-18T15:35:56.001Z</time></trkpt><trkpt lat="43.46393821060346" lon="10.603565814865222"><ele>473.0</ele><time>2026-04-18T15:35:57.001Z</time></trkpt><trkpt lat="43.46388830641647" lon="10.60348339534367"><ele>472.99999999999994</ele><time>2026-04-18T15:35:58.001Z</time></trkpt><trkpt lat="43.46383603928567" lon="10.603391137672086"><ele>473.0</ele><time>2026-04-18T15:35:59.001Z</time></trkpt><trkpt lat="43.46378632785253" lon="10.603292730095372"><ele>468.4</ele><time>2026-04-18T15:36:00.001Z</time></trkpt><trkpt lat="43.46373278312989" lon="10.603178173996199"><ele>463.79999999999995</ele><time>2026-04-18T15:36:01.001Z</time></trkpt><trkpt lat="43.46368172977666" lon="10.60306611529866"><ele>459.2</ele><time>2026-04-18T15:36:02.001Z</time></trkpt><trkpt lat="43.46364629901036" lon="10.602962583426473"><ele>454.6</ele><time>2026-04-18T15:36:03.001Z</time></trkpt><trkpt lat="43.463648405737544" lon="10.602830859773649"><ele>450.0</ele><time>2026-04-18T15:36:04.001Z</time></trkpt><trkpt lat="43.46366076518222" lon="10.602719899662366"><ele>450.0</ele><time>2026-04-18T15:36:05.001Z</time></trkpt><trkpt lat="43.463710474386886" lon="10.602613716533385"><ele>450.0</ele><time>2026-04-18T15:36:06.001Z</time></trkpt><trkpt lat="43.46376215038222" lon="10.60250552019859"><ele>450.0</ele><time>2026-04-18T15:36:07.001Z</time></trkpt><trkpt lat="43.463825155760134" lon="10.602400260135786"><ele>450.0</ele><time>2026-04-18T15:36:08.001Z</time></trkpt><trkpt lat="43.46389301831379" lon="10.602301703624512"><ele>450.0</ele><time>2026-04-18T15:36:09.001Z</time></trkpt><trkpt lat="43.46396096997278" lon="10.60221098143597"><ele>454.6666666666667</ele><time>2026-04-18T15:36:10.001Z</time></trkpt><trkpt lat="43.46402422000338" lon="10.60212046938225"><ele>459.33333333333337</ele><time>2026-04-18T15:36:11.001Z</time></trkpt><trkpt lat="43.4640939850258" lon="10.602057171169294"><ele>464.0</ele><time>2026-04-18T15:36:12.001Z</time></trkpt><trkpt lat="43.46417454821499" lon="10.60199249892596"><ele>468.6666666666667</ele><time>2026-04-18T15:36:13.001Z</time></trkpt><trkpt lat="43.46424247426761" lon="10.60192174012519"><ele>473.33333333333337</ele><time>2026-04-18T15:36:14.001Z</time></trkpt><trkpt lat="43.46429105193023" lon="10.601832297629073"><ele>478.0</ele><time>2026-04-18T15:36:15.001Z</time></trkpt><trkpt lat="43.46431697140432" lon="10.601710226552221"><ele>478.0</ele><time>2026-04-18T15:36:16.001Z</time></trkpt><trkpt lat="43.464370048149554" lon="10.60154185410469"><ele>477.99999999999994</ele><time>2026-04-18T15:36:18.001Z</time></trkpt><trkpt lat="43.46440519470332" lon="10.60144497549345"><ele>477.99999999999994</ele><time>2026-04-18T15:36:19.001Z</time></trkpt><trkpt lat="43.46429479662904" lon="10.601304744427251"><ele>478.0</ele><time>2026-04-18T15:36:20.001Z</time></trkpt><trkpt lat="43.46426283670399" lon="10.601228911812578"><ele>478.0</ele><time>2026-04-18T15:36:21.001Z</time></trkpt><trkpt lat="43.46418875136111" lon="10.601193646650506"><ele>478.0</ele><time>2026-04-18T15:36:22.001Z</time></trkpt><trkpt lat="43.46411942312467" lon="10.601209203655822"><ele>477.99999999999994</ele><time>2026-04-18T15:36:23.001Z</time></trkpt><trkpt lat="43.46404735143022" lon="10.601227823382144"><ele>477.99999999999994</ele><time>2026-04-18T15:36:24.001Z</time></trkpt><trkpt lat="43.46391104489584" lon="10.60123602174091"><ele>478.0</ele><time>2026-04-18T15:36:26.001Z</time></trkpt><trkpt lat="43.46380879404235" lon="10.601163945861947"><ele>478.0</ele><time>2026-04-18T15:36:28.001Z</time></trkpt><trkpt lat="43.46374818399676" lon="10.601095455714633"><ele>477.1666666666667</ele><time>2026-04-18T15:36:29.001Z</time></trkpt><trkpt lat="43.46371554653028" lon="10.601011854614125"><ele>476.33333333333337</ele><time>2026-04-18T15:36:30.001Z</time></trkpt><trkpt lat="43.46369551317059" lon="10.600898905299386"><ele>475.5</ele><time>2026-04-18T15:36:31.001Z</time></trkpt><trkpt lat="43.463682680392914" lon="10.600786597965808"><ele>474.66666666666663</ele><time>2026-04-18T15:36:32.001Z</time></trkpt><trkpt lat="43.463685114693206" lon="10.600694958338442"><ele>473.8333333333333</ele><time>2026-04-18T15:36:33.001Z</time></trkpt><trkpt lat="43.463670948328875" lon="10.600567723266272"><ele>473.0</ele><time>2026-04-18T15:36:34.001Z</time></trkpt><trkpt lat="43.46365805145683" lon="10.600453284178187"><ele>472.99999999999994</ele><time>2026-04-18T15:36:35.001Z</time></trkpt><trkpt lat="43.463656014051935" lon="10.600333148908222"><ele>473.0</ele><time>2026-04-18T15:36:36.001Z</time></trkpt><trkpt lat="43.46364778604774" lon="10.600211573837946"><ele>473.0</ele><time>2026-04-18T15:36:37.001Z</time></trkpt><trkpt lat="43.463637225056594" lon="10.600119951110889"><ele>473.0</ele><time>2026-04-18T15:36:38.001Z</time></trkpt><trkpt lat="43.46362318479419" lon="10.600020390764547"><ele>472.99999999999994</ele><time>2026-04-18T15:36:39.001Z</time></trkpt><trkpt lat="43.46359442841251" lon="10.599857067896513"><ele>473.0</ele><time>2026-04-18T15:36:40.001Z</time></trkpt><trkpt lat="43.46359541211958" lon="10.599744781975705"><ele>473.4</ele><time>2026-04-18T15:36:41.001Z</time></trkpt><trkpt lat="43.463599752841326" lon="10.599615368939203"><ele>473.79999999999995</ele><time>2026-04-18T15:36:42.001Z</time></trkpt><trkpt lat="43.463588717981416" lon="10.599482519229065"><ele>474.2</ele><time>2026-04-18T15:36:43.001Z</time></trkpt><trkpt lat="43.46358432750486" lon="10.59935319498876"><ele>474.6</ele><time>2026-04-18T15:36:44.001Z</time></trkpt><trkpt lat="43.463580172220865" lon="10.599220122070784"><ele>475.0</ele><time>2026-04-18T15:36:45.001Z</time></trkpt><trkpt lat="43.46357318904979" lon="10.599092716222632"><ele>475.6</ele><time>2026-04-18T15:36:46.001Z</time></trkpt><trkpt lat="43.46357448294642" lon="10.598968367564792"><ele>476.2</ele><time>2026-04-18T15:36:47.001Z</time></trkpt><trkpt lat="43.463589876328285" lon="10.59883894854152"><ele>476.79999999999995</ele><time>2026-04-18T15:36:48Z</time></trkpt><trkpt lat="43.46359538647112" lon="10.598737834017793"><ele>477.4</ele><time>2026-04-18T15:36:49Z</time></trkpt><trkpt lat="43.463603087902435" lon="10.59857229440625"><ele>478.0</ele><time>2026-04-18T15:36:50Z</time></trkpt><trkpt lat="43.46360685547205" lon="10.5984396806562"><ele>478.00000000000006</ele><time>2026-04-18T15:36:51Z</time></trkpt><trkpt lat="43.463633912179446" lon="10.598323570830857"><ele>478.0</ele><time>2026-04-18T15:36:52Z</time></trkpt><trkpt lat="43.46366584052329" lon="10.598202547072402"><ele>478.0</ele><time>2026-04-18T15:36:53Z</time></trkpt><trkpt lat="43.46371871868416" lon="10.598115406086675"><ele>478.0</ele><time>2026-04-18T15:36:54Z</time></trkpt><trkpt lat="43.463790818285766" lon="10.598048456718628"><ele>478.00000000000006</ele><time>2026-04-18T15:36:55Z</time></trkpt><trkpt lat="43.463864364691766" lon="10.598007257524781"><ele>478.0</ele><time>2026-04-18T15:36:56Z</time></trkpt><trkpt lat="43.463957387660756" lon="10.598013050842088"><ele>480.33333333333337</ele><time>2026-04-18T15:36:57Z</time></trkpt><trkpt lat="43.46403942141319" lon="10.59800923133177"><ele>482.6666666666667</ele><time>2026-04-18T15:36:58Z</time></trkpt><trkpt lat="43.464137833443715" lon="10.598010461019616"><ele>485.0</ele><time>2026-04-18T15:36:59Z</time></trkpt><trkpt lat="43.46422148875077" lon="10.59801125583652"><ele>487.33333333333337</ele><time>2026-04-18T15:37:00Z</time></trkpt><trkpt lat="43.46429498141693" lon="10.59797221628829"><ele>489.6666666666667</ele><time>2026-04-18T15:37:01Z</time></trkpt><trkpt lat="43.464382483920666" lon="10.59790311252982"><ele>492.0</ele><time>2026-04-18T15:37:02Z</time></trkpt><trkpt lat="43.464439536199706" lon="10.597825711884873"><ele>492.0</ele><time>2026-04-18T15:37:03Z</time></trkpt><trkpt lat="43.464457807985156" lon="10.597719666796714"><ele>492.00000000000006</ele><time>2026-04-18T15:37:04Z</time></trkpt><trkpt lat="43.464496413498054" lon="10.59759404637147"><ele>492.00000000000006</ele><time>2026-04-18T15:37:05Z</time></trkpt><trkpt lat="43.46452723087769" lon="10.597463336960114"><ele>492.0</ele><time>2026-04-18T15:37:06Z</time></trkpt><trkpt lat="43.464557692561485" lon="10.59734474559979"><ele>492.0</ele><time>2026-04-18T15:37:07Z</time></trkpt><trkpt lat="43.464598113626685" lon="10.597205600260205"><ele>495.25</ele><time>2026-04-18T15:37:08Z</time></trkpt><trkpt lat="43.46462973946956" lon="10.597053396942597"><ele>498.5</ele><time>2026-04-18T15:37:09Z</time></trkpt><trkpt lat="43.4646758679197" lon="10.596906260010918"><ele>501.75</ele><time>2026-04-18T15:37:10Z</time></trkpt><trkpt lat="43.46470832640816" lon="10.59674851899518"><ele>505.0</ele><time>2026-04-18T15:37:11Z</time></trkpt><trkpt lat="43.46475307374672" lon="10.596605918325828"><ele>505.0</ele><time>2026-04-18T15:37:12Z</time></trkpt><trkpt lat="43.464791908914414" lon="10.596456000271687"><ele>505.0</ele><time>2026-04-18T15:37:13Z</time></trkpt><trkpt lat="43.464834292543145" lon="10.596330161774807"><ele>505.0</ele><time>2026-04-18T15:37:14Z</time></trkpt><trkpt lat="43.46487744122388" lon="10.596235123429103"><ele>505.0</ele><time>2026-04-18T15:37:15Z</time></trkpt><trkpt lat="43.46495306685172" lon="10.59615845973557"><ele>505.0</ele><time>2026-04-18T15:37:16Z</time></trkpt><trkpt lat="43.46504120212574" lon="10.596128059996454"><ele>504.4</ele><time>2026-04-18T15:37:17Z</time></trkpt><trkpt lat="43.46511222553338" lon="10.596131705023886"><ele>503.8</ele><time>2026-04-18T15:37:18Z</time></trkpt><trkpt lat="43.465205040372965" lon="10.596151870566834"><ele>503.20000000000005</ele><time>2026-04-18T15:37:19Z</time></trkpt><trkpt lat="43.465288550216975" lon="10.596161781097498"><ele>502.6</ele><time>2026-04-18T15:37:20Z</time></trkpt><trkpt lat="43.46538959078332" lon="10.596119551510503"><ele>502.0</ele><time>2026-04-18T15:37:22Z</time></trkpt><trkpt lat="43.46538975142615" lon="10.595966380776686"><ele>502.0</ele><time>2026-04-18T15:37:24Z</time></trkpt><trkpt lat="43.46535808005135" lon="10.595822352899322"><ele>502.00000000000006</ele><time>2026-04-18T15:37:25Z</time></trkpt><trkpt lat="43.465299367685724" lon="10.59573612076045"><ele>502.00000000000006</ele><time>2026-04-18T15:37:26Z</time></trkpt><trkpt lat="43.465271512157564" lon="10.595608298511113"><ele>502.0</ele><time>2026-04-18T15:37:27Z</time></trkpt><trkpt lat="43.46524331501842" lon="10.5954929588428"><ele>502.0</ele><time>2026-04-18T15:37:28Z</time></trkpt><trkpt lat="43.46518904449889" lon="10.595375591239334"><ele>502.6</ele><time>2026-04-18T15:37:29Z</time></trkpt><trkpt lat="43.46515736286724" lon="10.595268848507251"><ele>503.20000000000005</ele><time>2026-04-18T15:37:30Z</time></trkpt><trkpt lat="43.46512871194382" lon="10.595137835073821"><ele>503.8</ele><time>2026-04-18T15:37:31Z</time></trkpt><trkpt lat="43.46512195125598" lon="10.595003145347517"><ele>504.4</ele><time>2026-04-18T15:37:32Z</time></trkpt><trkpt lat="43.46512233773881" lon="10.594870076646835"><ele>505.0</ele><time>2026-04-18T15:37:33Z</time></trkpt><trkpt lat="43.46513024463698" lon="10.594748729252311"><ele>505.00000000000006</ele><time>2026-04-18T15:37:34Z</time></trkpt><trkpt lat="43.46513568584853" lon="10.594650427903451"><ele>505.0</ele><time>2026-04-18T15:37:35Z</time></trkpt><trkpt lat="43.465141523435506" lon="10.594514205641298"><ele>505.0</ele><time>2026-04-18T15:37:37Z</time></trkpt><trkpt lat="43.46518970542021" lon="10.59443007045316"><ele>505.0</ele><time>2026-04-18T15:37:48.001Z</time></trkpt><trkpt lat="43.46524451460335" lon="10.594343155492352"><ele>505.00000000000006</ele><time>2026-04-18T15:38:17.001Z</time></trkpt><trkpt lat="43.46526127776461" lon="10.594230590508307"><ele>505.0</ele><time>2026-04-18T15:38:21.001Z</time></trkpt><trkpt lat="43.46525230178672" lon="10.594108617902432"><ele>505.00000000000006</ele><time>2026-04-18T15:38:24.001Z</time></trkpt><trkpt lat="43.465265949865966" lon="10.593995999573869"><ele>505.0</ele><time>2026-04-18T15:38:26.001Z</time></trkpt><trkpt lat="43.46534523770842" lon="10.593937590027105"><ele>505.0</ele><time>2026-04-18T15:38:28.001Z</time></trkpt><trkpt lat="43.46546286205146" lon="10.593932159749473"><ele>505.0</ele><time>2026-04-18T15:38:30.001Z</time></trkpt><trkpt lat="43.46553299835841" lon="10.593937860554345"><ele>505.00000000000006</ele><time>2026-04-18T15:38:31.001Z</time></trkpt><trkpt lat="43.46560782210259" lon="10.593945454502627"><ele>505.0</ele><time>2026-04-18T15:38:32.001Z</time></trkpt><trkpt lat="43.46567904282035" lon="10.5939586086829"><ele>506.1666666666667</ele><time>2026-04-18T15:38:33.001Z</time></trkpt><trkpt lat="43.4657540217561" lon="10.593978572455553"><ele>507.33333333333337</ele><time>2026-04-18T15:38:34.001Z</time></trkpt><trkpt lat="43.465821773347564" lon="10.59402089753399"><ele>508.5</ele><time>2026-04-18T15:38:35.001Z</time></trkpt><trkpt lat="43.4658791629298" lon="10.594067037227745"><ele>509.66666666666663</ele><time>2026-04-18T15:38:36.001Z</time></trkpt><trkpt lat="43.465936092811084" lon="10.594120900327678"><ele>510.8333333333333</ele><time>2026-04-18T15:38:37.001Z</time></trkpt><trkpt lat="43.46601819827546" lon="10.594238936625922"><ele>512.0</ele><time>2026-04-18T15:38:39.001Z</time></trkpt><trkpt lat="43.46608286597629" lon="10.594346446630627"><ele>511.99999999999994</ele><time>2026-04-18T15:38:41.001Z</time></trkpt><trkpt lat="43.466105003059695" lon="10.594492079194234"><ele>512.0</ele><time>2026-04-18T15:38:43.001Z</time></trkpt><trkpt lat="43.466104582450896" lon="10.5946409078879"><ele>512.0</ele><time>2026-04-18T15:38:45.001Z</time></trkpt><trkpt lat="43.46610301812066" lon="10.594729063009625"><ele>512.0</ele><time>2026-04-18T15:38:46.001Z</time></trkpt><trkpt lat="43.46610586692389" lon="10.594825916234514"><ele>511.99999999999994</ele><time>2026-04-18T15:38:47.001Z</time></trkpt><trkpt lat="43.46611617978743" lon="10.594923590932114"><ele>512.0</ele><time>2026-04-18T15:38:48.001Z</time></trkpt><trkpt lat="43.46612550574882" lon="10.595019037911486"><ele>512.6666666666666</ele><time>2026-04-18T15:38:49.001Z</time></trkpt><trkpt lat="43.46613636082707" lon="10.595111548983205"><ele>513.3333333333333</ele><time>2026-04-18T15:38:50.002Z</time></trkpt><trkpt lat="43.466141164127556" lon="10.59519812819224"><ele>514.0</ele><time>2026-04-18T15:38:51.002Z</time></trkpt><trkpt lat="43.46614843132432" lon="10.595288070819981"><ele>514.6666666666666</ele><time>2026-04-18T15:38:52.002Z</time></trkpt><trkpt lat="43.46616379408898" lon="10.595450073390566"><ele>515.3333333333334</ele><time>2026-04-18T15:38:53.999Z</time></trkpt><trkpt lat="43.466183203655525" lon="10.5956110251645"><ele>516.0</ele><time>2026-04-18T15:38:55.999Z</time></trkpt><trkpt lat="43.46619310434935" lon="10.595711832018967"><ele>516.1666666666666</ele><time>2026-04-18T15:38:56.999Z</time></trkpt><trkpt lat="43.466215325851536" lon="10.595817723432349"><ele>516.3333333333334</ele><time>2026-04-18T15:38:57.999Z</time></trkpt><trkpt lat="43.46624067764724" lon="10.59592574699712"><ele>516.5</ele><time>2026-04-18T15:38:58.999Z</time></trkpt><trkpt lat="43.46626435778771" lon="10.596042883944989"><ele>516.6666666666667</ele><time>2026-04-18T15:38:59.999Z</time></trkpt><trkpt lat="43.466286952099274" lon="10.596164931270861"><ele>516.8333333333334</ele><time>2026-04-18T15:39:00.999Z</time></trkpt><trkpt lat="43.46630499618644" lon="10.596279365013165"><ele>517.0</ele><time>2026-04-18T15:39:01.999Z</time></trkpt><trkpt lat="43.46632304088223" lon="10.596400856738564"><ele>519.3333333333334</ele><time>2026-04-18T15:39:02.999Z</time></trkpt><trkpt lat="43.46633547085494" lon="10.596521785792074"><ele>521.6666666666667</ele><time>2026-04-18T15:39:03.999Z</time></trkpt><trkpt lat="43.466334428686956" lon="10.596640994051846"><ele>524.0</ele><time>2026-04-18T15:39:04.999Z</time></trkpt><trkpt lat="43.46633529456438" lon="10.5967673894335"><ele>526.3333333333334</ele><time>2026-04-18T15:39:05.999Z</time></trkpt><trkpt lat="43.46633705383959" lon="10.596887141562476"><ele>528.6666666666666</ele><time>2026-04-18T15:39:06.999Z</time></trkpt><trkpt lat="43.466344359126246" lon="10.597018397947323"><ele>531.0</ele><time>2026-04-18T15:39:07.999Z</time></trkpt><trkpt lat="43.4663522046524" lon="10.597138946715184"><ele>531.6</ele><time>2026-04-18T15:39:09Z</time></trkpt><trkpt lat="43.46633248020213" lon="10.597245756469897"><ele>532.2</ele><time>2026-04-18T15:39:10Z</time></trkpt><trkpt lat="43.466307284590236" lon="10.597333287449185"><ele>532.8</ele><time>2026-04-18T15:39:11Z</time></trkpt><trkpt lat="43.46623642850409" lon="10.597458671012923"><ele>533.4</ele><time>2026-04-18T15:39:13Z</time></trkpt><trkpt lat="43.466133241260344" lon="10.597559713480623"><ele>534.0</ele><time>2026-04-18T15:39:15Z</time></trkpt><trkpt lat="43.46601645589681" lon="10.5976187471458"><ele>534.0</ele><time>2026-04-18T15:39:17Z</time></trkpt><trkpt lat="43.465898866064535" lon="10.597675739818543"><ele>534.0</ele><time>2026-04-18T15:39:19Z</time></trkpt><trkpt lat="43.465831408665" lon="10.597724953505432"><ele>534.0</ele><time>2026-04-18T15:39:20Z</time></trkpt><trkpt lat="43.465770433023536" lon="10.597790450421643"><ele>534.0</ele><time>2026-04-18T15:39:21Z</time></trkpt><trkpt lat="43.465730655109425" lon="10.597869717069125"><ele>534.0</ele><time>2026-04-18T15:39:22Z</time></trkpt><trkpt lat="43.465708935940505" lon="10.597962982940388"><ele>534.0</ele><time>2026-04-18T15:39:23Z</time></trkpt><trkpt lat="43.46570311700644" lon="10.598053759244502"><ele>536.0</ele><time>2026-04-18T15:39:24Z</time></trkpt><trkpt lat="43.46572212493458" lon="10.598138498856164"><ele>538.0</ele><time>2026-04-18T15:39:25Z</time></trkpt><trkpt lat="43.46574241226292" lon="10.598220852643134"><ele>540.0</ele><time>2026-04-18T15:39:26Z</time></trkpt><trkpt lat="43.465796717689024" lon="10.598394258297773"><ele>542.0</ele><time>2026-04-18T15:39:28Z</time></trkpt><trkpt lat="43.46583084362206" lon="10.598476072708593"><ele>544.0</ele><time>2026-04-18T15:39:29Z</time></trkpt><trkpt lat="43.465883932997315" lon="10.598551284828304"><ele>546.0</ele><time>2026-04-18T15:39:30Z</time></trkpt><trkpt lat="43.46593500386229" lon="10.598610616429887"><ele>546.3333333333334</ele><time>2026-04-18T15:39:31Z</time></trkpt><trkpt lat="43.466018440851144" lon="10.59871376723518"><ele>546.6666666666666</ele><time>2026-04-18T15:39:33Z</time></trkpt><trkpt lat="43.46606534020964" lon="10.598773001909212"><ele>547.0</ele><time>2026-04-18T15:39:34Z</time></trkpt><trkpt lat="43.46611263306429" lon="10.598839844154986"><ele>547.3333333333333</ele><time>2026-04-18T15:39:35Z</time></trkpt><trkpt lat="43.46616402806857" lon="10.59891178964459"><ele>547.6666666666666</ele><time>2026-04-18T15:39:36Z</time></trkpt><trkpt lat="43.46622377415307" lon="10.59899569860033"><ele>548.0</ele><time>2026-04-18T15:39:37Z</time></trkpt><trkpt lat="43.46628175200947" lon="10.599080494718692"><ele>549.6</ele><time>2026-04-18T15:39:38Z</time></trkpt><trkpt lat="43.46633806975091" lon="10.599161051231203"><ele>551.1999999999999</ele><time>2026-04-18T15:39:39Z</time></trkpt><trkpt lat="43.46640755721062" lon="10.599241814182797"><ele>552.8</ele><time>2026-04-18T15:39:40Z</time></trkpt><trkpt lat="43.466491964594944" lon="10.599311681342286"><ele>554.4</ele><time>2026-04-18T15:39:41Z</time></trkpt><trkpt lat="43.46657257758802" lon="10.599368266385211"><ele>556.0</ele><time>2026-04-18T15:39:42Z</time></trkpt><trkpt lat="43.46665634481193" lon="10.599426187896807"><ele>557.0</ele><time>2026-04-18T15:39:43Z</time></trkpt><trkpt lat="43.46673227202846" lon="10.599503576220117"><ele>558.0</ele><time>2026-04-18T15:39:44Z</time></trkpt><trkpt lat="43.46679415875149" lon="10.599612501343529"><ele>559.0</ele><time>2026-04-18T15:39:45Z</time></trkpt><trkpt lat="43.46688267824852" lon="10.599710019433887"><ele>560.0</ele><time>2026-04-18T15:39:46Z</time></trkpt><trkpt lat="43.46697014948197" lon="10.599812789550247"><ele>561.0</ele><time>2026-04-18T15:39:47Z</time></trkpt><trkpt lat="43.467075691019645" lon="10.599914098463834"><ele>561.6</ele><time>2026-04-18T15:39:48Z</time></trkpt><trkpt lat="43.46716771349935" lon="10.600035530815664"><ele>562.2</ele><time>2026-04-18T15:39:49Z</time></trkpt><trkpt lat="43.46725847723641" lon="10.600145819926025"><ele>562.8</ele><time>2026-04-18T15:39:50Z</time></trkpt><trkpt lat="43.467331431317895" lon="10.60024741034502"><ele>563.4</ele><time>2026-04-18T15:39:51Z</time></trkpt><trkpt lat="43.46738038815912" lon="10.6003257011114"><ele>564.0</ele><time>2026-04-18T15:39:52Z</time></trkpt><trkpt lat="43.46740337605239" lon="10.600409654078714"><ele>566.3333333333334</ele><time>2026-04-18T15:39:53Z</time></trkpt><trkpt lat="43.46742108792806" lon="10.600500584377006"><ele>568.6666666666666</ele><time>2026-04-18T15:39:54Z</time></trkpt><trkpt lat="43.46745791386843" lon="10.60059805312027"><ele>571.0</ele><time>2026-04-18T15:39:55Z</time></trkpt><trkpt lat="43.46748591642827" lon="10.600710623160651"><ele>573.3333333333333</ele><time>2026-04-18T15:39:56Z</time></trkpt><trkpt lat="43.46751350570988" lon="10.600820911409565"><ele>575.6666666666666</ele><time>2026-04-18T15:39:57Z</time></trkpt><trkpt lat="43.467548014001174" lon="10.600946227913509"><ele>578.0</ele><time>2026-04-18T15:39:58Z</time></trkpt><trkpt lat="43.46758338464974" lon="10.601076365682683"><ele>579.0</ele><time>2026-04-18T15:39:59Z</time></trkpt><trkpt lat="43.46763053514512" lon="10.601219396219244"><ele>580.0</ele><time>2026-04-18T15:40:00Z</time></trkpt><trkpt lat="43.46768259002831" lon="10.60134492780303"><ele>581.0</ele><time>2026-04-18T15:40:01Z</time></trkpt><trkpt lat="43.46773714025295" lon="10.60147310156527"><ele>582.0</ele><time>2026-04-18T15:40:02.001Z</time></trkpt><trkpt lat="43.46779565279631" lon="10.601601866941428"><ele>583.0</ele><time>2026-04-18T15:40:03.001Z</time></trkpt><trkpt lat="43.46785351983264" lon="10.60173119133504"><ele>583.0</ele><time>2026-04-18T15:40:04.001Z</time></trkpt><trkpt lat="43.46790434861931" lon="10.601864091546263"><ele>583.0</ele><time>2026-04-18T15:40:05.001Z</time></trkpt><trkpt lat="43.46793835806115" lon="10.602009420637788"><ele>583.0</ele><time>2026-04-18T15:40:06.001Z</time></trkpt><trkpt lat="43.46797408195392" lon="10.602153973307223"><ele>583.0</ele><time>2026-04-18T15:40:07.001Z</time></trkpt><trkpt lat="43.46799940816626" lon="10.602274561097905"><ele>583.0</ele><time>2026-04-18T15:40:08.001Z</time></trkpt><trkpt lat="43.468032581002845" lon="10.602378685201288"><ele>583.1666666666667</ele><time>2026-04-18T15:40:09.001Z</time></trkpt><trkpt lat="43.46806620505401" lon="10.602462911112895"><ele>583.3333333333334</ele><time>2026-04-18T15:40:10.001Z</time></trkpt><trkpt lat="43.468110139278345" lon="10.602555186161633"><ele>583.5</ele><time>2026-04-18T15:40:11.001Z</time></trkpt><trkpt lat="43.46815174264033" lon="10.602624317301625"><ele>583.6666666666666</ele><time>2026-04-18T15:40:12.001Z</time></trkpt><trkpt lat="43.46823363524761" lon="10.602730471988407"><ele>583.8333333333333</ele><time>2026-04-18T15:40:14.001Z</time></trkpt><trkpt lat="43.46830293533399" lon="10.602775589897885"><ele>584.0</ele><time>2026-04-18T15:40:16.001Z</time></trkpt><trkpt lat="43.46836002428157" lon="10.602859642131289"><ele>583.2</ele><time>2026-04-18T15:40:48.001Z</time></trkpt><trkpt lat="43.46843406718813" lon="10.602881939017841"><ele>582.4</ele><time>2026-04-18T15:41:02Z</time></trkpt><trkpt lat="43.468500798263875" lon="10.602931860145164"><ele>581.6</ele><time>2026-04-18T15:41:04Z</time></trkpt><trkpt lat="43.468580049243776" lon="10.602972548706605"><ele>580.8</ele><time>2026-04-18T15:41:06Z</time></trkpt><trkpt lat="43.46868486742062" lon="10.603032170994"><ele>580.0</ele><time>2026-04-18T15:41:08Z</time></trkpt><trkpt lat="43.46877986020125" lon="10.603075770952973"><ele>581.5</ele><time>2026-04-18T15:41:10Z</time></trkpt><trkpt lat="43.468881185485415" lon="10.603139306139488"><ele>583.0</ele><time>2026-04-18T15:41:12Z</time></trkpt><trkpt lat="43.46898705680396" lon="10.603206656702206"><ele>584.5</ele><time>2026-04-18T15:41:14Z</time></trkpt><trkpt lat="43.46905345008772" lon="10.603254824574062"><ele>586.0</ele><time>2026-04-18T15:41:15Z</time></trkpt><trkpt lat="43.4691106808378" lon="10.603292456898975"><ele>587.5</ele><time>2026-04-18T15:41:16Z</time></trkpt><trkpt lat="43.46917134126661" lon="10.60334481586268"><ele>589.0</ele><time>2026-04-18T15:41:17Z</time></trkpt><trkpt lat="43.46922663245555" lon="10.603398952235015"><ele>589.0</ele><time>2026-04-18T15:41:18Z</time></trkpt><trkpt lat="43.46929238322014" lon="10.603460786067355"><ele>589.0</ele><time>2026-04-18T15:41:19Z</time></trkpt><trkpt lat="43.46936782200795" lon="10.603490161168235"><ele>589.0</ele><time>2026-04-18T15:41:20Z</time></trkpt><trkpt lat="43.46943978260717" lon="10.603531366230813"><ele>589.0</ele><time>2026-04-18T15:41:21Z</time></trkpt><trkpt lat="43.46951655433139" lon="10.603582244106889"><ele>589.0</ele><time>2026-04-18T15:41:22Z</time></trkpt><trkpt lat="43.469592114989936" lon="10.603644762046969"><ele>589.0</ele><time>2026-04-18T15:41:23Z</time></trkpt><trkpt lat="43.4696645512898" lon="10.603711844676877"><ele>588.1666666666667</ele><time>2026-04-18T15:41:24Z</time></trkpt><trkpt lat="43.46973245020261" lon="10.603791344389354"><ele>587.3333333333334</ele><time>2026-04-18T15:41:25Z</time></trkpt><trkpt lat="43.46981329215995" lon="10.603863142685706"><ele>586.5</ele><time>2026-04-18T15:41:26Z</time></trkpt><trkpt lat="43.46988615033687" lon="10.603931876556699"><ele>585.6666666666666</ele><time>2026-04-18T15:41:27Z</time></trkpt><trkpt lat="43.4699766363739" lon="10.60397987494043"><ele>584.8333333333333</ele><time>2026-04-18T15:41:28Z</time></trkpt><trkpt lat="43.470042621612876" lon="10.604026402383035"><ele>584.0</ele><time>2026-04-18T15:41:29Z</time></trkpt><trkpt lat="43.47013011006763" lon="10.604054879184606"><ele>584.0</ele><time>2026-04-18T15:41:30Z</time></trkpt><trkpt lat="43.4702069888057" lon="10.604073872622246"><ele>584.0</ele><time>2026-04-18T15:41:31Z</time></trkpt><trkpt lat="43.470290747155204" lon="10.604093450709348"><ele>584.0</ele><time>2026-04-18T15:41:32Z</time></trkpt><trkpt lat="43.47036383708415" lon="10.604109054953332"><ele>584.0</ele><time>2026-04-18T15:41:33Z</time></trkpt><trkpt lat="43.470435855493776" lon="10.604137546629783"><ele>584.0</ele><time>2026-04-18T15:41:34Z</time></trkpt><trkpt lat="43.47051056575581" lon="10.604160753443072"><ele>584.0</ele><time>2026-04-18T15:41:35Z</time></trkpt><trkpt lat="43.47064661517147" lon="10.604183614327253"><ele>583.3333333333333</ele><time>2026-04-18T15:41:37Z</time></trkpt><trkpt lat="43.47072730801558" lon="10.604172306839509"><ele>582.6666666666666</ele><time>2026-04-18T15:41:38Z</time></trkpt><trkpt lat="43.47080043063025" lon="10.604151632837722"><ele>582.0</ele><time>2026-04-18T15:41:39Z</time></trkpt><trkpt lat="43.47088317564899" lon="10.604142512840982"><ele>581.3333333333334</ele><time>2026-04-18T15:41:40Z</time></trkpt><trkpt lat="43.470961852546296" lon="10.604129149803954"><ele>580.6666666666667</ele><time>2026-04-18T15:41:41Z</time></trkpt><trkpt lat="43.47104686042731" lon="10.604123873403234"><ele>580.0</ele><time>2026-04-18T15:41:42Z</time></trkpt><trkpt lat="43.47111062124122" lon="10.604153632706872"><ele>580.0</ele><time>2026-04-18T15:41:43Z</time></trkpt><trkpt lat="43.471196062567664" lon="10.604180997951138"><ele>580.0</ele><time>2026-04-18T15:41:44Z</time></trkpt><trkpt lat="43.47125722725473" lon="10.604219878565425"><ele>580.0</ele><time>2026-04-18T15:41:45.001Z</time></trkpt><trkpt lat="43.47133941518338" lon="10.604258292325211"><ele>580.0</ele><time>2026-04-18T15:41:46.001Z</time></trkpt><trkpt lat="43.47141570616602" lon="10.604275171589606"><ele>580.0</ele><time>2026-04-18T15:41:47.001Z</time></trkpt><trkpt lat="43.471498479942134" lon="10.60427926840928"><ele>580.0</ele><time>2026-04-18T15:41:48.001Z</time></trkpt><trkpt lat="43.47157687896511" lon="10.604269362113335"><ele>580.3333333333334</ele><time>2026-04-18T15:41:49.001Z</time></trkpt><trkpt lat="43.4716544486947" lon="10.604243033264842"><ele>580.6666666666667</ele><time>2026-04-18T15:41:50.001Z</time></trkpt><trkpt lat="43.471736193337335" lon="10.60420255663727"><ele>581.0</ele><time>2026-04-18T15:41:51.001Z</time></trkpt><trkpt lat="43.47179825794328" lon="10.604147060397507"><ele>581.3333333333334</ele><time>2026-04-18T15:41:52.001Z</time></trkpt><trkpt lat="43.47186360729055" lon="10.604104000637715"><ele>581.6666666666666</ele><time>2026-04-18T15:41:53.001Z</time></trkpt><trkpt lat="43.47194174191706" lon="10.604075358592105"><ele>582.0</ele><time>2026-04-18T15:41:54.001Z</time></trkpt><trkpt lat="43.47201285495463" lon="10.604071486903813"><ele>582.0</ele><time>2026-04-18T15:41:55.001Z</time></trkpt><trkpt lat="43.47209377922262" lon="10.604114233274347"><ele>582.0</ele><time>2026-04-18T15:41:56.001Z</time></trkpt><trkpt lat="43.472150759767395" lon="10.604173056495128"><ele>582.0</ele><time>2026-04-18T15:41:57.001Z</time></trkpt><trkpt lat="43.47219571872992" lon="10.604247320618775"><ele>582.0</ele><time>2026-04-18T15:41:58.001Z</time></trkpt><trkpt lat="43.47222881623158" lon="10.60433547548893"><ele>582.0</ele><time>2026-04-18T15:41:59.001Z</time></trkpt><trkpt lat="43.47227029151745" lon="10.604442487802402"><ele>582.0</ele><time>2026-04-18T15:42:00.001Z</time></trkpt><trkpt lat="43.47230827135912" lon="10.6045414743769"><ele>582.6666666666666</ele><time>2026-04-18T15:42:01.001Z</time></trkpt><trkpt lat="43.47234956123753" lon="10.604646792719775"><ele>583.3333333333334</ele><time>2026-04-18T15:42:02.001Z</time></trkpt><trkpt lat="43.47238818881808" lon="10.604745799378483"><ele>584.0</ele><time>2026-04-18T15:42:03.001Z</time></trkpt><trkpt lat="43.47242891685129" lon="10.60483741291586"><ele>584.6666666666667</ele><time>2026-04-18T15:42:04.001Z</time></trkpt><trkpt lat="43.47245489734591" lon="10.604919919989046"><ele>585.3333333333334</ele><time>2026-04-18T15:42:05.001Z</time></trkpt><trkpt lat="43.472474691593845" lon="10.605024542115332"><ele>586.0</ele><time>2026-04-18T15:42:06.001Z</time></trkpt><trkpt lat="43.47249572580137" lon="10.605132238648785"><ele>586.0</ele><time>2026-04-18T15:42:07.001Z</time></trkpt><trkpt lat="43.47250857968356" lon="10.605241392800941"><ele>586.0</ele><time>2026-04-18T15:42:08.001Z</time></trkpt><trkpt lat="43.47253350668787" lon="10.605330707610438"><ele>586.0</ele><time>2026-04-18T15:42:09.001Z</time></trkpt><trkpt lat="43.472559529764375" lon="10.605416613957606"><ele>586.0</ele><time>2026-04-18T15:42:10.001Z</time></trkpt><trkpt lat="43.47263035360445" lon="10.605553889042223"><ele>586.0</ele><time>2026-04-18T15:42:12.001Z</time></trkpt><trkpt lat="43.47267885467583" lon="10.605614463878764"><ele>586.0</ele><time>2026-04-18T15:42:13.001Z</time></trkpt><trkpt lat="43.47273776123086" lon="10.605676348697063"><ele>586.3333333333334</ele><time>2026-04-18T15:42:14.001Z</time></trkpt><trkpt lat="43.47279825199159" lon="10.605745912440318"><ele>586.6666666666667</ele><time>2026-04-18T15:42:15.001Z</time></trkpt><trkpt lat="43.47286204153358" lon="10.605805172835836"><ele>587.0</ele><time>2026-04-18T15:42:16.001Z</time></trkpt><trkpt lat="43.472922201916944" lon="10.605876274511747"><ele>587.3333333333334</ele><time>2026-04-18T15:42:17.001Z</time></trkpt><trkpt lat="43.47298398964778" lon="10.60593779018045"><ele>587.6666666666666</ele><time>2026-04-18T15:42:18.001Z</time></trkpt><trkpt lat="43.473042277619065" lon="10.606008234953848"><ele>588.0</ele><time>2026-04-18T15:42:19.001Z</time></trkpt><trkpt lat="43.473108233205984" lon="10.60607682056366"><ele>588.0</ele><time>2026-04-18T15:42:20.001Z</time></trkpt><trkpt lat="43.47316350723792" lon="10.606144787323602"><ele>588.0</ele><time>2026-04-18T15:42:21.001Z</time></trkpt><trkpt lat="43.47322577634687" lon="10.606204633876652"><ele>588.0</ele><time>2026-04-18T15:42:22.001Z</time></trkpt><trkpt lat="43.47329335207935" lon="10.606250275822552"><ele>588.0</ele><time>2026-04-18T15:42:23.001Z</time></trkpt><trkpt lat="43.47336189033703" lon="10.606284286272423"><ele>588.0</ele><time>2026-04-18T15:42:24.001Z</time></trkpt><trkpt lat="43.47348371815367" lon="10.60629517502872"><ele>588.0</ele><time>2026-04-18T15:42:26.001Z</time></trkpt><trkpt lat="43.47354897034446" lon="10.606291430481216"><ele>587.0</ele><time>2026-04-18T15:42:27.001Z</time></trkpt><trkpt lat="43.47361011182425" lon="10.606270437398946"><ele>586.0</ele><time>2026-04-18T15:42:28.001Z</time></trkpt><trkpt lat="43.47367900121206" lon="10.606242474129555"><ele>585.0</ele><time>2026-04-18T15:42:29.001Z</time></trkpt><trkpt lat="43.47375702517607" lon="10.606222943754087"><ele>584.0</ele><time>2026-04-18T15:42:30.001Z</time></trkpt><trkpt lat="43.47383406678362" lon="10.60621940254131"><ele>583.0</ele><time>2026-04-18T15:42:31.001Z</time></trkpt><trkpt lat="43.47391197452864" lon="10.606223635376304"><ele>582.0</ele><time>2026-04-18T15:42:32.001Z</time></trkpt><trkpt lat="43.47400548235346" lon="10.606231498387132"><ele>581.3333333333334</ele><time>2026-04-18T15:42:33.001Z</time></trkpt><trkpt lat="43.474081313323275" lon="10.606234366990401"><ele>580.6666666666666</ele><time>2026-04-18T15:42:34.001Z</time></trkpt><trkpt lat="43.47416043438011" lon="10.606240112272987"><ele>580.0</ele><time>2026-04-18T15:42:35.001Z</time></trkpt><trkpt lat="43.47423584709948" lon="10.606235626618865"><ele>579.3333333333333</ele><time>2026-04-18T15:42:36.001Z</time></trkpt><trkpt lat="43.47432612536747" lon="10.606224363603557"><ele>578.6666666666666</ele><time>2026-04-18T15:42:37.001Z</time></trkpt><trkpt lat="43.47441500677789" lon="10.606206543286145"><ele>578.0</ele><time>2026-04-18T15:42:38.001Z</time></trkpt><trkpt lat="43.47449221165723" lon="10.606179604052258"><ele>578.0</ele><time>2026-04-18T15:42:39.001Z</time></trkpt><trkpt lat="43.4745682719433" lon="10.606164308088742"><ele>578.0</ele><time>2026-04-18T15:42:40.001Z</time></trkpt><trkpt lat="43.47468697631725" lon="10.606161657413978"><ele>578.0</ele><time>2026-04-18T15:42:42.001Z</time></trkpt><trkpt lat="43.47480179798372" lon="10.606158990209417"><ele>578.0</ele><time>2026-04-18T15:42:44.001Z</time></trkpt><trkpt lat="43.474872968661565" lon="10.606124893757388"><ele>578.0</ele><time>2026-04-18T15:42:48.002Z</time></trkpt><trkpt lat="43.47493706815482" lon="10.606062348286835"><ele>577.3333333333333</ele><time>2026-04-18T15:42:52.002Z</time></trkpt><trkpt lat="43.474996260871634" lon="10.606017919615976"><ele>576.6666666666666</ele><time>2026-04-18T15:42:57.002Z</time></trkpt><trkpt lat="43.475027842359545" lon="10.605906676481457"><ele>576.0</ele><time>2026-04-18T15:43:01.002Z</time></trkpt><trkpt lat="43.47502644670124" lon="10.605795567792466"><ele>575.3333333333334</ele><time>2026-04-18T15:43:04.002Z</time></trkpt><trkpt lat="43.4750131751636" lon="10.605672681083027"><ele>574.6666666666667</ele><time>2026-04-18T15:43:07Z</time></trkpt><trkpt lat="43.474994848505084" lon="10.605548225677692"><ele>574.0</ele><time>2026-04-18T15:43:09Z</time></trkpt><trkpt lat="43.47495948058226" lon="10.605418714095663"><ele>574.6</ele><time>2026-04-18T15:43:11Z</time></trkpt><trkpt lat="43.47492598138684" lon="10.605272505668555"><ele>575.2</ele><time>2026-04-18T15:43:13Z</time></trkpt><trkpt lat="43.47491678618644" lon="10.60515200854365"><ele>575.8000000000001</ele><time>2026-04-18T15:43:15Z</time></trkpt><trkpt lat="43.47488890903853" lon="10.605018536224026"><ele>576.4</ele><time>2026-04-18T15:43:17Z</time></trkpt><trkpt lat="43.47487693252743" lon="10.604893383039416"><ele>577.0</ele><time>2026-04-18T15:43:19Z</time></trkpt><trkpt lat="43.47482967030887" lon="10.60476532716714"><ele>577.0</ele><time>2026-04-18T15:43:22Z</time></trkpt><trkpt lat="43.47481308654089" lon="10.604656393809085"><ele>577.0</ele><time>2026-04-18T15:43:24Z</time></trkpt><trkpt lat="43.47482587948048" lon="10.604534923257024"><ele>577.0</ele><time>2026-04-18T15:43:26Z</time></trkpt><trkpt lat="43.47483280115807" lon="10.604374444333391"><ele>577.0</ele><time>2026-04-18T15:43:28Z</time></trkpt><trkpt lat="43.47481366734961" lon="10.604140393703846"><ele>577.2</ele><time>2026-04-18T15:43:31Z</time></trkpt><trkpt lat="43.47482350427001" lon="10.603993447446326"><ele>577.4000000000001</ele><time>2026-04-18T15:43:33Z</time></trkpt><trkpt lat="43.474850161394194" lon="10.603853201229597"><ele>577.5999999999999</ele><time>2026-04-18T15:43:35Z</time></trkpt><trkpt lat="43.474876281437865" lon="10.60370506961697"><ele>577.8</ele><time>2026-04-18T15:43:37Z</time></trkpt><trkpt lat="43.474887888101335" lon="10.603603305537991"><ele>578.0</ele><time>2026-04-18T15:43:39Z</time></trkpt><trkpt lat="43.47489841247523" lon="10.603506489405463"><ele>578.0</ele><time>2026-04-18T15:43:41Z</time></trkpt><trkpt lat="43.4749629150894" lon="10.603447566010425"><ele>578.0</ele><time>2026-04-18T15:43:43Z</time></trkpt><trkpt lat="43.47506326633989" lon="10.603411605129558"><ele>578.0</ele><time>2026-04-18T15:43:45Z</time></trkpt><trkpt lat="43.475171181156504" lon="10.603387577199117"><ele>578.0</ele><time>2026-04-18T15:43:47Z</time></trkpt><trkpt lat="43.47525168803042" lon="10.60340689000298"><ele>578.0</ele><time>2026-04-18T15:43:49Z</time></trkpt><trkpt lat="43.475325994602244" lon="10.603421260572548"><ele>578.0</ele><time>2026-04-18T15:43:58.001Z</time></trkpt><trkpt lat="43.47539923416332" lon="10.603390941098333"><ele>577.4</ele><time>2026-04-18T15:44:01.001Z</time></trkpt><trkpt lat="43.47546966267443" lon="10.603373486610431"><ele>576.8</ele><time>2026-04-18T15:44:03.001Z</time></trkpt><trkpt lat="43.47557154013921" lon="10.603365335773375"><ele>576.2</ele><time>2026-04-18T15:44:05.001Z</time></trkpt><trkpt lat="43.47570313558584" lon="10.603359264991584"><ele>575.6</ele><time>2026-04-18T15:44:07.001Z</time></trkpt><trkpt lat="43.47577190591779" lon="10.603365177588767"><ele>575.0</ele><time>2026-04-18T15:44:08.001Z</time></trkpt><trkpt lat="43.47590125619157" lon="10.603385905227976"><ele>575.0</ele><time>2026-04-18T15:44:10.001Z</time></trkpt><trkpt lat="43.475965857152005" lon="10.60340300115451"><ele>575.0</ele><time>2026-04-18T15:44:11.001Z</time></trkpt><trkpt lat="43.47607472689819" lon="10.603467230552821"><ele>575.0</ele><time>2026-04-18T15:44:13.001Z</time></trkpt><trkpt lat="43.47613461323043" lon="10.603523820958971"><ele>575.0</ele><time>2026-04-18T15:44:14.001Z</time></trkpt><trkpt lat="43.47618786226882" lon="10.603586573785986"><ele>575.0</ele><time>2026-04-18T15:44:15.001Z</time></trkpt><trkpt lat="43.47623638686883" lon="10.603643166213635"><ele>575.0</ele><time>2026-04-18T15:44:16.001Z</time></trkpt><trkpt lat="43.476325178086476" lon="10.603740876189002"><ele>573.6</ele><time>2026-04-18T15:44:18.001Z</time></trkpt><trkpt lat="43.476419536443764" lon="10.603822065016491"><ele>572.2</ele><time>2026-04-18T15:44:20.001Z</time></trkpt><trkpt lat="43.47652748931616" lon="10.603876226096611"><ele>570.8</ele><time>2026-04-18T15:44:22.001Z</time></trkpt><trkpt lat="43.47665246813267" lon="10.603898542218342"><ele>569.4</ele><time>2026-04-18T15:44:24.001Z</time></trkpt><trkpt lat="43.47671669430654" lon="10.603902432096202"><ele>568.0</ele><time>2026-04-18T15:44:25.001Z</time></trkpt><trkpt lat="43.476834628526824" lon="10.603865113664042"><ele>568.0</ele><time>2026-04-18T15:44:27.001Z</time></trkpt><trkpt lat="43.4769281901666" lon="10.603812379269717"><ele>568.0</ele><time>2026-04-18T15:44:29.001Z</time></trkpt><trkpt lat="43.477013300345355" lon="10.603742016242398"><ele>568.0</ele><time>2026-04-18T15:44:31.001Z</time></trkpt><trkpt lat="43.47707206302388" lon="10.603709580633543"><ele>568.0</ele><time>2026-04-18T15:44:32.001Z</time></trkpt><trkpt lat="43.47713962201656" lon="10.603683209184123"><ele>568.0</ele><time>2026-04-18T15:44:33.001Z</time></trkpt><trkpt lat="43.47721008632949" lon="10.603666144596605"><ele>568.0</ele><time>2026-04-18T15:44:34.001Z</time></trkpt><trkpt lat="43.47728991740021" lon="10.603649816606506"><ele>566.5</ele><time>2026-04-18T15:44:35.001Z</time></trkpt><trkpt lat="43.47736929344708" lon="10.60363628094806"><ele>565.0</ele><time>2026-04-18T15:44:36.001Z</time></trkpt><trkpt lat="43.47744616132923" lon="10.603606078646202"><ele>563.5</ele><time>2026-04-18T15:44:37.001Z</time></trkpt><trkpt lat="43.47751727538189" lon="10.603565794464057"><ele>562.0</ele><time>2026-04-18T15:44:38.001Z</time></trkpt><trkpt lat="43.477598232632154" lon="10.603507612497463"><ele>560.5</ele><time>2026-04-18T15:44:39.001Z</time></trkpt><trkpt lat="43.47766487730881" lon="10.603441346862134"><ele>559.0</ele><time>2026-04-18T15:44:40.001Z</time></trkpt><trkpt lat="43.47773530903554" lon="10.603357909589281"><ele>559.0</ele><time>2026-04-18T15:44:41.001Z</time></trkpt><trkpt lat="43.477800055025966" lon="10.603261846912519"><ele>559.0</ele><time>2026-04-18T15:44:42.001Z</time></trkpt><trkpt lat="43.47786792815696" lon="10.603167212891048"><ele>559.0</ele><time>2026-04-18T15:44:43.001Z</time></trkpt><trkpt lat="43.47793589413016" lon="10.603070752058578"><ele>559.0</ele><time>2026-04-18T15:44:44.001Z</time></trkpt><trkpt lat="43.47800834021657" lon="10.602975358968745"><ele>559.0</ele><time>2026-04-18T15:44:45.001Z</time></trkpt><trkpt lat="43.4780749779645" lon="10.602891261027784"><ele>556.6</ele><time>2026-04-18T15:44:46.001Z</time></trkpt><trkpt lat="43.478141540654086" lon="10.60280304291206"><ele>554.2</ele><time>2026-04-18T15:44:47.001Z</time></trkpt><trkpt lat="43.4781836515223" lon="10.602696359872263"><ele>551.8000000000001</ele><time>2026-04-18T15:44:48.001Z</time></trkpt><trkpt lat="43.47821137591467" lon="10.602574787970152"><ele>549.4</ele><time>2026-04-18T15:44:49.001Z</time></trkpt><trkpt lat="43.47822971586956" lon="10.602452048266615"><ele>547.0</ele><time>2026-04-18T15:44:50.001Z</time></trkpt><trkpt lat="43.47826944888721" lon="10.602331736074605"><ele>547.0</ele><time>2026-04-18T15:44:51.001Z</time></trkpt><trkpt lat="43.47832562795046" lon="10.602218474117326"><ele>547.0</ele><time>2026-04-18T15:44:52.001Z</time></trkpt><trkpt lat="43.478384601642915" lon="10.602118588645027"><ele>547.0</ele><time>2026-04-18T15:44:53.001Z</time></trkpt><trkpt lat="43.47846130620907" lon="10.602029791983057"><ele>547.0</ele><time>2026-04-18T15:44:54.001Z</time></trkpt><trkpt lat="43.47853384156069" lon="10.601950147801995"><ele>547.0</ele><time>2026-04-18T15:44:55.002Z</time></trkpt><trkpt lat="43.47859333442876" lon="10.60187499226452"><ele>546.6</ele><time>2026-04-18T15:44:56.002Z</time></trkpt><trkpt lat="43.47866169652303" lon="10.601798255270419"><ele>546.2</ele><time>2026-04-18T15:44:57.002Z</time></trkpt><trkpt lat="43.47873151163868" lon="10.601747536980207"><ele>545.8</ele><time>2026-04-18T15:44:58.002Z</time></trkpt><trkpt lat="43.47879745270205" lon="10.601718317874889"><ele>545.4</ele><time>2026-04-18T15:44:59.002Z</time></trkpt><trkpt lat="43.47891450068398" lon="10.601705704402093"><ele>545.0</ele><time>2026-04-18T15:45:01.002Z</time></trkpt><trkpt lat="43.479026035502486" lon="10.60174847136335"><ele>544.6</ele><time>2026-04-18T15:45:03.002Z</time></trkpt><trkpt lat="43.479134328763266" lon="10.601780598613411"><ele>544.2</ele><time>2026-04-18T15:45:05.002Z</time></trkpt><trkpt lat="43.47922680899969" lon="10.601768060151645"><ele>543.8</ele><time>2026-04-18T15:45:07.002Z</time></trkpt><trkpt lat="43.479334287416506" lon="10.601672272755563"><ele>543.4</ele><time>2026-04-18T15:45:09.002Z</time></trkpt><trkpt lat="43.47938983064087" lon="10.60159405456444"><ele>543.0</ele><time>2026-04-18T15:45:10.002Z</time></trkpt><trkpt lat="43.47944415930572" lon="10.601497769725366"><ele>543.0</ele><time>2026-04-18T15:45:11.002Z</time></trkpt><trkpt lat="43.47949974153105" lon="10.601400897722996"><ele>543.0</ele><time>2026-04-18T15:45:11.999Z</time></trkpt><trkpt lat="43.479569740584886" lon="10.601317809041332"><ele>543.0</ele><time>2026-04-18T15:45:12.999Z</time></trkpt><trkpt lat="43.47964288205154" lon="10.601242954575675"><ele>543.0</ele><time>2026-04-18T15:45:13.999Z</time></trkpt><trkpt lat="43.47971554093407" lon="10.601184319719573"><ele>543.0</ele><time>2026-04-18T15:45:14.999Z</time></trkpt><trkpt lat="43.479788820515324" lon="10.60113070553129"><ele>543.0</ele><time>2026-04-18T15:45:15.999Z</time></trkpt><trkpt lat="43.479853611887336" lon="10.601072452803"><ele>541.1999999999999</ele><time>2026-04-18T15:45:16.999Z</time></trkpt><trkpt lat="43.47990764145043" lon="10.600993311167487"><ele>539.4</ele><time>2026-04-18T15:45:17.999Z</time></trkpt><trkpt lat="43.47995105435903" lon="10.600895088968969"><ele>537.5999999999999</ele><time>2026-04-18T15:45:18.999Z</time></trkpt><trkpt lat="43.47996745023699" lon="10.600775293376097"><ele>535.8</ele><time>2026-04-18T15:45:19.999Z</time></trkpt><trkpt lat="43.47997408470207" lon="10.60064203141561"><ele>534.0</ele><time>2026-04-18T15:45:20.999Z</time></trkpt><trkpt lat="43.47998245856055" lon="10.600501106829988"><ele>534.0</ele><time>2026-04-18T15:45:21.999Z</time></trkpt><trkpt lat="43.47999117724383" lon="10.60036814252955"><ele>534.0</ele><time>2026-04-18T15:45:23Z</time></trkpt><trkpt lat="43.48001388138093" lon="10.600242712401556"><ele>534.0</ele><time>2026-04-18T15:45:24Z</time></trkpt><trkpt lat="43.48005610688219" lon="10.600126044798248"><ele>534.0</ele><time>2026-04-18T15:45:25Z</time></trkpt><trkpt lat="43.48011386079195" lon="10.600020593797716"><ele>534.0</ele><time>2026-04-18T15:45:26Z</time></trkpt><trkpt lat="43.480182214387206" lon="10.599924803448197"><ele>533.2</ele><time>2026-04-18T15:45:27Z</time></trkpt><trkpt lat="43.480257685372116" lon="10.599844788357428"><ele>532.4</ele><time>2026-04-18T15:45:28Z</time></trkpt><trkpt lat="43.48033569603652" lon="10.599782487930506"><ele>531.6</ele><time>2026-04-18T15:45:29Z</time></trkpt><trkpt lat="43.48042027906951" lon="10.599734180413458"><ele>530.8</ele><time>2026-04-18T15:45:30Z</time></trkpt><trkpt lat="43.48050417550087" lon="10.599694623367222"><ele>530.0</ele><time>2026-04-18T15:45:31Z</time></trkpt><trkpt lat="43.48059568335847" lon="10.599647596430863"><ele>529.3333333333333</ele><time>2026-04-18T15:45:32Z</time></trkpt><trkpt lat="43.48069102696349" lon="10.599609789389936"><ele>528.6666666666666</ele><time>2026-04-18T15:45:33Z</time></trkpt><trkpt lat="43.48078713848415" lon="10.59957585500109"><ele>528.0</ele><time>2026-04-18T15:45:34Z</time></trkpt><trkpt lat="43.48087094809083" lon="10.59955248417061"><ele>527.3333333333334</ele><time>2026-04-18T15:45:35Z</time></trkpt><trkpt lat="43.48095252715587" lon="10.59952857953214"><ele>526.6666666666667</ele><time>2026-04-18T15:45:36Z</time></trkpt><trkpt lat="43.48102033998246" lon="10.599512917587692"><ele>526.0</ele><time>2026-04-18T15:45:37Z</time></trkpt><trkpt lat="43.48109415527014" lon="10.59948771171947"><ele>525.4</ele><time>2026-04-18T15:45:38Z</time></trkpt><trkpt lat="43.481170595746896" lon="10.59945776726426"><ele>524.8</ele><time>2026-04-18T15:45:39Z</time></trkpt><trkpt lat="43.4812520575056" lon="10.59942886995868"><ele>524.1999999999999</ele><time>2026-04-18T15:45:40Z</time></trkpt><trkpt lat="43.481341882631256" lon="10.599398844194859"><ele>523.6</ele><time>2026-04-18T15:45:41Z</time></trkpt><trkpt lat="43.481448156831156" lon="10.599375458706655"><ele>523.0</ele><time>2026-04-18T15:45:42Z</time></trkpt><trkpt lat="43.4815670361197" lon="10.599365946375098"><ele>520.25</ele><time>2026-04-18T15:45:43Z</time></trkpt><trkpt lat="43.48169711034053" lon="10.599367491261129"><ele>517.5</ele><time>2026-04-18T15:45:44Z</time></trkpt><trkpt lat="43.481839264254006" lon="10.599359888056552"><ele>514.75</ele><time>2026-04-18T15:45:45Z</time></trkpt><trkpt lat="43.4819739239098" lon="10.599356240387564"><ele>512.0</ele><time>2026-04-18T15:45:46Z</time></trkpt><trkpt lat="43.482094525062934" lon="10.599347651426347"><ele>508.8</ele><time>2026-04-18T15:45:47Z</time></trkpt><trkpt lat="43.48219933981616" lon="10.599358890720797"><ele>505.6</ele><time>2026-04-18T15:45:48Z</time></trkpt><trkpt lat="43.48230047154676" lon="10.599370608539383"><ele>502.40000000000003</ele><time>2026-04-18T15:45:49Z</time></trkpt><trkpt lat="43.482405972460256" lon="10.599411611862909"><ele>499.20000000000005</ele><time>2026-04-18T15:45:50Z</time></trkpt><trkpt lat="43.48251878460461" lon="10.599423025770625"><ele>496.0</ele><time>2026-04-18T15:45:51Z</time></trkpt><trkpt lat="43.482613496799345" lon="10.599516919287737"><ele>496.25</ele><time>2026-04-18T15:45:52Z</time></trkpt><trkpt lat="43.48274390976309" lon="10.59959432662034"><ele>496.5</ele><time>2026-04-18T15:45:53Z</time></trkpt><trkpt lat="43.48285100027044" lon="10.599662598357568"><ele>496.75</ele><time>2026-04-18T15:45:54Z</time></trkpt><trkpt lat="43.48295472376319" lon="10.599724255036733"><ele>497.0</ele><time>2026-04-18T15:45:55Z</time></trkpt><trkpt lat="43.48305270358056" lon="10.599783369071801"><ele>497.0</ele><time>2026-04-18T15:45:56Z</time></trkpt><trkpt lat="43.48313680401154" lon="10.599836704514335"><ele>497.00000000000006</ele><time>2026-04-18T15:45:57Z</time></trkpt><trkpt lat="43.483214913448315" lon="10.599880482053507"><ele>497.00000000000006</ele><time>2026-04-18T15:45:58Z</time></trkpt><trkpt lat="43.48329865375033" lon="10.59992866304335"><ele>497.0</ele><time>2026-04-18T15:45:59Z</time></trkpt><trkpt lat="43.483385601635476" lon="10.599976230590595"><ele>497.0</ele><time>2026-04-18T15:46:00Z</time></trkpt><trkpt lat="43.483479485899004" lon="10.600022479597998"><ele>497.0</ele><time>2026-04-18T15:46:01Z</time></trkpt><trkpt lat="43.483571255827904" lon="10.60005502429676"><ele>497.00000000000006</ele><time>2026-04-18T15:46:02Z</time></trkpt><trkpt lat="43.48365883298817" lon="10.600089530802943"><ele>497.00000000000006</ele><time>2026-04-18T15:46:03Z</time></trkpt><trkpt lat="43.48376255876631" lon="10.600122612198104"><ele>497.0</ele><time>2026-04-18T15:46:04Z</time></trkpt><trkpt lat="43.483855462884584" lon="10.600134031913985"><ele>497.0</ele><time>2026-04-18T15:46:05Z</time></trkpt><trkpt lat="43.483942591409836" lon="10.600132646214036"><ele>497.99999999999994</ele><time>2026-04-18T15:46:06Z</time></trkpt><trkpt lat="43.48403335593384" lon="10.600130804038347"><ele>499.0</ele><time>2026-04-18T15:46:07.001Z</time></trkpt><trkpt lat="43.48411927255772" lon="10.600119231146946"><ele>500.0</ele><time>2026-04-18T15:46:08.001Z</time></trkpt><trkpt lat="43.484204535153125" lon="10.600106067885248"><ele>501.0</ele><time>2026-04-18T15:46:09.001Z</time></trkpt><trkpt lat="43.484288559382605" lon="10.600092692199748"><ele>501.99999999999994</ele><time>2026-04-18T15:46:10.001Z</time></trkpt><trkpt lat="43.48437542571578" lon="10.600085021131413"><ele>503.0</ele><time>2026-04-18T15:46:11.001Z</time></trkpt><trkpt lat="43.48446852858057" lon="10.60006900150114"><ele>503.0</ele><time>2026-04-18T15:46:12.001Z</time></trkpt><trkpt lat="43.48457118713558" lon="10.600051719974113"><ele>502.99999999999994</ele><time>2026-04-18T15:46:13.001Z</time></trkpt><trkpt lat="43.48467738110429" lon="10.60003636019762"><ele>502.99999999999994</ele><time>2026-04-18T15:46:14.001Z</time></trkpt><trkpt lat="43.484785435340314" lon="10.600029343352146"><ele>503.0</ele><time>2026-04-18T15:46:15.001Z</time></trkpt><trkpt lat="43.4849003228207" lon="10.60002820510001"><ele>503.0</ele><time>2026-04-18T15:46:16.001Z</time></trkpt><trkpt lat="43.48501925253702" lon="10.600005985553956"><ele>503.4</ele><time>2026-04-18T15:46:17.001Z</time></trkpt><trkpt lat="43.485129321325374" lon="10.599978293745659"><ele>503.79999999999995</ele><time>2026-04-18T15:46:18.001Z</time></trkpt><trkpt lat="43.48522395431509" lon="10.599936156651466"><ele>504.2</ele><time>2026-04-18T15:46:19.001Z</time></trkpt><trkpt lat="43.48530203421749" lon="10.599902734371154"><ele>504.6</ele><time>2026-04-18T15:46:20.001Z</time></trkpt><trkpt lat="43.48540618465466" lon="10.599852519166037"><ele>505.0</ele><time>2026-04-18T15:46:22.001Z</time></trkpt><trkpt lat="43.485524612732505" lon="10.599777522915101"><ele>505.33333333333337</ele><time>2026-04-18T15:46:24.001Z</time></trkpt><trkpt lat="43.48559425842859" lon="10.599739828390423"><ele>505.6666666666667</ele><time>2026-04-18T15:46:25.001Z</time></trkpt><trkpt lat="43.485661941543185" lon="10.599704619114267"><ele>506.0</ele><time>2026-04-18T15:46:26.001Z</time></trkpt><trkpt lat="43.48573933123553" lon="10.599669259856277"><ele>506.33333333333337</ele><time>2026-04-18T15:46:27.001Z</time></trkpt><trkpt lat="43.48582578505294" lon="10.599647627234864"><ele>506.6666666666667</ele><time>2026-04-18T15:46:28.001Z</time></trkpt><trkpt lat="43.48592375956443" lon="10.599639998125545"><ele>507.0</ele><time>2026-04-18T15:46:29.001Z</time></trkpt><trkpt lat="43.48603239379878" lon="10.599638011105789"><ele>507.0</ele><time>2026-04-18T15:46:30.001Z</time></trkpt><trkpt lat="43.486162189468516" lon="10.599633170241784"><ele>507.0</ele><time>2026-04-18T15:46:31.001Z</time></trkpt><trkpt lat="43.486283436948845" lon="10.599651478672634"><ele>507.0</ele><time>2026-04-18T15:46:32.001Z</time></trkpt><trkpt lat="43.48639528203452" lon="10.599676259621331"><ele>507.0</ele><time>2026-04-18T15:46:33.001Z</time></trkpt><trkpt lat="43.486511092234" lon="10.599712493094238"><ele>506.0</ele><time>2026-04-18T15:46:34.001Z</time></trkpt><trkpt lat="43.486612234332846" lon="10.599750428924295"><ele>505.00000000000006</ele><time>2026-04-18T15:46:35.001Z</time></trkpt><trkpt lat="43.48672198672374" lon="10.599762103128011"><ele>504.00000000000006</ele><time>2026-04-18T15:46:36.001Z</time></trkpt><trkpt lat="43.486833351640705" lon="10.59973630565593"><ele>503.0</ele><time>2026-04-18T15:46:37.001Z</time></trkpt><trkpt lat="43.48694071159744" lon="10.599701468642156"><ele>502.0</ele><time>2026-04-18T15:46:38.001Z</time></trkpt><trkpt lat="43.48702684788621" lon="10.59964491086887"><ele>500.40000000000003</ele><time>2026-04-18T15:46:39.001Z</time></trkpt><trkpt lat="43.487115371721806" lon="10.59956409738015"><ele>498.80000000000007</ele><time>2026-04-18T15:46:40.001Z</time></trkpt><trkpt lat="43.48719816610429" lon="10.599479256470486"><ele>497.2</ele><time>2026-04-18T15:46:41.001Z</time></trkpt><trkpt lat="43.487268255676184" lon="10.599382788915927"><ele>495.6</ele><time>2026-04-18T15:46:42.001Z</time></trkpt><trkpt lat="43.48734021261554" lon="10.599287186406164"><ele>494.0</ele><time>2026-04-18T15:46:43.001Z</time></trkpt><trkpt lat="43.48740890300296" lon="10.599191196948931"><ele>493.99999999999994</ele><time>2026-04-18T15:46:44.001Z</time></trkpt><trkpt lat="43.48748269079203" lon="10.59909100708493"><ele>494.0</ele><time>2026-04-18T15:46:45.001Z</time></trkpt><trkpt lat="43.48755046953203" lon="10.598989179998526"><ele>494.0</ele><time>2026-04-18T15:46:46.001Z</time></trkpt><trkpt lat="43.48760601179488" lon="10.598911197376525"><ele>494.0</ele><time>2026-04-18T15:46:47.001Z</time></trkpt><trkpt lat="43.487651426451045" lon="10.598846478301997"><ele>493.99999999999994</ele><time>2026-04-18T15:46:48.001Z</time></trkpt><trkpt lat="43.48769793076509" lon="10.598763428101389"><ele>494.0</ele><time>2026-04-18T15:46:49.001Z</time></trkpt><trkpt lat="43.48772323138641" lon="10.598674202299886"><ele>493.8333333333333</ele><time>2026-04-18T15:46:50.001Z</time></trkpt><trkpt lat="43.487754092991445" lon="10.598580748909326"><ele>493.66666666666663</ele><time>2026-04-18T15:46:51.001Z</time></trkpt><trkpt lat="43.487796379700185" lon="10.598487398145434"><ele>493.5</ele><time>2026-04-18T15:46:52.001Z</time></trkpt><trkpt lat="43.487831512367656" lon="10.598380740804302"><ele>493.33333333333337</ele><time>2026-04-18T15:46:53.001Z</time></trkpt><trkpt lat="43.48787139055314" lon="10.598268255913013"><ele>493.1666666666667</ele><time>2026-04-18T15:46:54.001Z</time></trkpt><trkpt lat="43.48791175983567" lon="10.598160216797543"><ele>493.0</ele><time>2026-04-18T15:46:55.001Z</time></trkpt><trkpt lat="43.487957772236136" lon="10.598054246530605"><ele>493.00000000000006</ele><time>2026-04-18T15:46:56.001Z</time></trkpt><trkpt lat="43.48801604743975" lon="10.597962513250172"><ele>493.0</ele><time>2026-04-18T15:46:57.001Z</time></trkpt><trkpt lat="43.48808298862859" lon="10.597872119215959"><ele>493.0</ele><time>2026-04-18T15:46:58.001Z</time></trkpt><trkpt lat="43.48814854009258" lon="10.597790403554239"><ele>493.0</ele><time>2026-04-18T15:46:59.001Z</time></trkpt><trkpt lat="43.48821468872198" lon="10.597709390901462"><ele>493.00000000000006</ele><time>2026-04-18T15:47:00.001Z</time></trkpt><trkpt lat="43.48828053620144" lon="10.597635321683946"><ele>493.0</ele><time>2026-04-18T15:47:01.001Z</time></trkpt><trkpt lat="43.48834182184864" lon="10.597553772440042"><ele>493.33333333333337</ele><time>2026-04-18T15:47:02.002Z</time></trkpt><trkpt lat="43.488396608117235" lon="10.597469029415864"><ele>493.6666666666667</ele><time>2026-04-18T15:47:03.002Z</time></trkpt><trkpt lat="43.488440529413644" lon="10.597369035308704"><ele>494.0</ele><time>2026-04-18T15:47:04.002Z</time></trkpt><trkpt lat="43.488480146636206" lon="10.59726238203689"><ele>494.33333333333337</ele><time>2026-04-18T15:47:05.002Z</time></trkpt><trkpt lat="43.48851244970874" lon="10.59715010788089"><ele>494.6666666666667</ele><time>2026-04-18T15:47:06.002Z</time></trkpt><trkpt lat="43.4885539747412" lon="10.597038275253677"><ele>495.0</ele><time>2026-04-18T15:47:07.002Z</time></trkpt><trkpt lat="43.48859795590377" lon="10.596917099674664"><ele>494.25</ele><time>2026-04-18T15:47:08.002Z</time></trkpt><trkpt lat="43.4886566942967" lon="10.596792433318125"><ele>493.5</ele><time>2026-04-18T15:47:09.002Z</time></trkpt><trkpt lat="43.488729295893215" lon="10.596659913190257"><ele>492.75</ele><time>2026-04-18T15:47:10.002Z</time></trkpt><trkpt lat="43.48880564491762" lon="10.596537072528795"><ele>492.0</ele><time>2026-04-18T15:47:11.002Z</time></trkpt><trkpt lat="43.48889487553655" lon="10.596438243480328"><ele>492.0</ele><time>2026-04-18T15:47:12.002Z</time></trkpt><trkpt lat="43.488991192279" lon="10.59637590695199"><ele>492.00000000000006</ele><time>2026-04-18T15:47:13.002Z</time></trkpt><trkpt lat="43.48908870189075" lon="10.596365480619722"><ele>492.00000000000006</ele><time>2026-04-18T15:47:14.002Z</time></trkpt><trkpt lat="43.489195966701885" lon="10.596388573708122"><ele>492.0</ele><time>2026-04-18T15:47:15.002Z</time></trkpt><trkpt lat="43.489285056507185" lon="10.596435364100358"><ele>492.0</ele><time>2026-04-18T15:47:16.002Z</time></trkpt><trkpt lat="43.48937240643918" lon="10.596483015558636"><ele>492.0</ele><time>2026-04-18T15:47:17.002Z</time></trkpt><trkpt lat="43.489462738145214" lon="10.596518510001337"><ele>492.00000000000006</ele><time>2026-04-18T15:47:17.999Z</time></trkpt><trkpt lat="43.489552983203026" lon="10.596543310238943"><ele>492.00000000000006</ele><time>2026-04-18T15:47:18.999Z</time></trkpt><trkpt lat="43.48964255240952" lon="10.596559451075947"><ele>492.0</ele><time>2026-04-18T15:47:19.999Z</time></trkpt><trkpt lat="43.489736738113955" lon="10.596575061050428"><ele>492.0</ele><time>2026-04-18T15:47:20.999Z</time></trkpt><trkpt lat="43.48982414989725" lon="10.596584209676921"><ele>492.0</ele><time>2026-04-18T15:47:21.999Z</time></trkpt><trkpt lat="43.489912301055995" lon="10.596590301260761"><ele>492.0</ele><time>2026-04-18T15:47:22.999Z</time></trkpt><trkpt lat="43.48999881893333" lon="10.596567178230105"><ele>492.0</ele><time>2026-04-18T15:47:23.999Z</time></trkpt><trkpt lat="43.49008325889922" lon="10.596523562203288"><ele>492.0</ele><time>2026-04-18T15:47:24.999Z</time></trkpt><trkpt lat="43.49015773044816" lon="10.596481642059741"><ele>492.0</ele><time>2026-04-18T15:47:26Z</time></trkpt><trkpt lat="43.49023353439159" lon="10.59642068615233"><ele>492.0</ele><time>2026-04-18T15:47:27Z</time></trkpt><trkpt lat="43.49030686573012" lon="10.596374809043082"><ele>492.0</ele><time>2026-04-18T15:47:28Z</time></trkpt><trkpt lat="43.49037498372157" lon="10.596344379251061"><ele>492.0</ele><time>2026-04-18T15:47:29Z</time></trkpt><trkpt lat="43.49044015869325" lon="10.596325575931203"><ele>492.0</ele><time>2026-04-18T15:47:30Z</time></trkpt><trkpt lat="43.490562107343386" lon="10.596333281313433"><ele>492.0</ele><time>2026-04-18T15:47:32Z</time></trkpt><trkpt lat="43.490639002115685" lon="10.596338148132885"><ele>492.0</ele><time>2026-04-18T15:47:33Z</time></trkpt><trkpt lat="43.4907178444709" lon="10.59634721380928"><ele>492.0</ele><time>2026-04-18T15:47:34Z</time></trkpt><trkpt lat="43.49079496480619" lon="10.596354904481249"><ele>491.6666666666667</ele><time>2026-04-18T15:47:35Z</time></trkpt><trkpt lat="43.49087747200192" lon="10.596358939617888"><ele>491.33333333333337</ele><time>2026-04-18T15:47:36Z</time></trkpt><trkpt lat="43.490969763306545" lon="10.59636607516276"><ele>491.0</ele><time>2026-04-18T15:47:37Z</time></trkpt><trkpt lat="43.4910496988687" lon="10.596366967620705"><ele>490.6666666666667</ele><time>2026-04-18T15:47:38Z</time></trkpt><trkpt lat="43.4911270939042" lon="10.59636640558017"><ele>490.33333333333337</ele><time>2026-04-18T15:47:39Z</time></trkpt><trkpt lat="43.491203439930864" lon="10.596369502533154"><ele>490.0</ele><time>2026-04-18T15:47:40Z</time></trkpt><trkpt lat="43.491284957835234" lon="10.596383800270987"><ele>489.2</ele><time>2026-04-18T15:47:41Z</time></trkpt><trkpt lat="43.49137543569296" lon="10.596415519499518"><ele>488.4</ele><time>2026-04-18T15:47:42Z</time></trkpt><trkpt lat="43.491473388047254" lon="10.596466761553286"><ele>487.6</ele><time>2026-04-18T15:47:43Z</time></trkpt><trkpt lat="43.4915790632978" lon="10.596548060906336"><ele>486.8</ele><time>2026-04-18T15:47:44Z</time></trkpt><trkpt lat="43.49168574977862" lon="10.596634779622454"><ele>486.0</ele><time>2026-04-18T15:47:45Z</time></trkpt><trkpt lat="43.49176955810415" lon="10.596695368543763"><ele>486.0</ele><time>2026-04-18T15:47:46Z</time></trkpt><trkpt lat="43.49184856745615" lon="10.596772874600692"><ele>486.0</ele><time>2026-04-18T15:47:48Z</time></trkpt><trkpt lat="43.49187870479283" lon="10.596867226036206"><ele>486.0</ele><time>2026-04-18T15:47:55Z</time></trkpt><trkpt lat="43.491889528847814" lon="10.59695728959604"><ele>486.0</ele><time>2026-04-18T15:47:58Z</time></trkpt><trkpt lat="43.49189786418115" lon="10.597077427007994"><ele>486.0</ele><time>2026-04-18T15:48:00Z</time></trkpt><trkpt lat="43.49191574086281" lon="10.597239538242535"><ele>486.0</ele><time>2026-04-18T15:48:02Z</time></trkpt><trkpt lat="43.49193423924687" lon="10.597335553019091"><ele>485.4</ele><time>2026-04-18T15:48:03Z</time></trkpt><trkpt lat="43.49196153291508" lon="10.597446609251792"><ele>484.8</ele><time>2026-04-18T15:48:04Z</time></trkpt><trkpt lat="43.491986949918754" lon="10.597571901944018"><ele>484.19999999999993</ele><time>2026-04-18T15:48:05Z</time></trkpt><trkpt lat="43.491996079257525" lon="10.597713279736356"><ele>483.59999999999997</ele><time>2026-04-18T15:48:06Z</time></trkpt><trkpt lat="43.49201094756806" lon="10.597850588668365"><ele>483.0</ele><time>2026-04-18T15:48:07Z</time></trkpt><trkpt lat="43.492028212356985" lon="10.597980623587015"><ele>481.5</ele><time>2026-04-18T15:48:08Z</time></trkpt><trkpt lat="43.492047091497064" lon="10.598100153124491"><ele>480.0</ele><time>2026-04-18T15:48:09Z</time></trkpt><trkpt lat="43.49206878084475" lon="10.598208994379828"><ele>478.5</ele><time>2026-04-18T15:48:10.001Z</time></trkpt><trkpt lat="43.49206781416564" lon="10.598319731317705"><ele>477.0</ele><time>2026-04-18T15:48:11.001Z</time></trkpt><trkpt lat="43.49205522647468" lon="10.59842819793357"><ele>475.5</ele><time>2026-04-18T15:48:12.001Z</time></trkpt><trkpt lat="43.49203546424163" lon="10.598541903335091"><ele>474.0</ele><time>2026-04-18T15:48:13.001Z</time></trkpt><trkpt lat="43.49201455351951" lon="10.598654881358188"><ele>473.0</ele><time>2026-04-18T15:48:14.001Z</time></trkpt><trkpt lat="43.491994131337066" lon="10.598758709542212"><ele>472.0</ele><time>2026-04-18T15:48:15.001Z</time></trkpt><trkpt lat="43.49197612968005" lon="10.598862816046912"><ele>471.0</ele><time>2026-04-18T15:48:16.001Z</time></trkpt><trkpt lat="43.49196188600603" lon="10.598974160106428"><ele>470.0</ele><time>2026-04-18T15:48:17.001Z</time></trkpt><trkpt lat="43.49195969943329" lon="10.599084912621924"><ele>469.0</ele><time>2026-04-18T15:48:18.001Z</time></trkpt><trkpt lat="43.491967091666126" lon="10.599199868428089"><ele>468.0</ele><time>2026-04-18T15:48:19.001Z</time></trkpt><trkpt lat="43.491973787738964" lon="10.599311083408754"><ele>468.0</ele><time>2026-04-18T15:48:20.001Z</time></trkpt><trkpt lat="43.49196769560776" lon="10.599420935154168"><ele>468.0</ele><time>2026-04-18T15:48:21.001Z</time></trkpt><trkpt lat="43.49196086773183" lon="10.599532671789659"><ele>468.0</ele><time>2026-04-18T15:48:22.001Z</time></trkpt><trkpt lat="43.491960699735316" lon="10.599631023485477"><ele>468.0</ele><time>2026-04-18T15:48:23.001Z</time></trkpt><trkpt lat="43.49198128575315" lon="10.599733113738433"><ele>468.0</ele><time>2026-04-18T15:48:24.001Z</time></trkpt><trkpt lat="43.49202149226815" lon="10.599829889526127"><ele>468.0</ele><time>2026-04-18T15:48:25.001Z</time></trkpt><trkpt lat="43.49207565856689" lon="10.599911920974668"><ele>467.8333333333333</ele><time>2026-04-18T15:48:26.001Z</time></trkpt><trkpt lat="43.49215091826498" lon="10.599972013264617"><ele>467.66666666666663</ele><time>2026-04-18T15:48:27.001Z</time></trkpt><trkpt lat="43.49223081420912" lon="10.60001661919859"><ele>467.5</ele><time>2026-04-18T15:48:28.001Z</time></trkpt><trkpt lat="43.49230524699684" lon="10.600063636796706"><ele>467.3333333333333</ele><time>2026-04-18T15:48:29.001Z</time></trkpt><trkpt lat="43.49237316778292" lon="10.600135776031474"><ele>467.16666666666663</ele><time>2026-04-18T15:48:30.001Z</time></trkpt><trkpt lat="43.4924195303323" lon="10.60021844089672"><ele>467.0</ele><time>2026-04-18T15:48:31.001Z</time></trkpt><trkpt lat="43.492448198934966" lon="10.600296044540189"><ele>466.3333333333333</ele><time>2026-04-18T15:48:32.001Z</time></trkpt><trkpt lat="43.492481697746946" lon="10.600383693154459"><ele>465.66666666666663</ele><time>2026-04-18T15:48:34.001Z</time></trkpt><trkpt lat="43.49253287471404" lon="10.60045253953284"><ele>465.0</ele><time>2026-04-18T15:48:36.001Z</time></trkpt><trkpt lat="43.49259881238862" lon="10.600493790398845"><ele>464.33333333333337</ele><time>2026-04-18T15:48:38.001Z</time></trkpt><trkpt lat="43.49266289671218" lon="10.60054808498173"><ele>463.6666666666667</ele><time>2026-04-18T15:48:40.001Z</time></trkpt><trkpt lat="43.49272032300279" lon="10.600606629552697"><ele>463.0</ele><time>2026-04-18T15:48:42.001Z</time></trkpt><trkpt lat="43.49281062721581" lon="10.600614975815335"><ele>463.33333333333337</ele><time>2026-04-18T15:48:44.001Z</time></trkpt><trkpt lat="43.492923577318884" lon="10.600571134905225"><ele>463.6666666666667</ele><time>2026-04-18T15:48:46.001Z</time></trkpt><trkpt lat="43.492986893737815" lon="10.600549544998756"><ele>464.0</ele><time>2026-04-18T15:48:47.001Z</time></trkpt><trkpt lat="43.49309660425318" lon="10.60052193674051"><ele>464.33333333333337</ele><time>2026-04-18T15:48:49.001Z</time></trkpt><trkpt lat="43.493165893743814" lon="10.600515636402264"><ele>464.6666666666667</ele><time>2026-04-18T15:48:51.001Z</time></trkpt><trkpt lat="43.49323734466466" lon="10.600512714195283"><ele>465.0</ele><time>2026-04-18T15:48:53.001Z</time></trkpt><trkpt lat="43.49335963133053" lon="10.600510092798524"><ele>465.0</ele><time>2026-04-18T15:48:55.001Z</time></trkpt><trkpt lat="43.49342599620197" lon="10.60051172729164"><ele>465.0</ele><time>2026-04-18T15:48:56.001Z</time></trkpt><trkpt lat="43.49349247634578" lon="10.600541144419731"><ele>465.0</ele><time>2026-04-18T15:48:57.001Z</time></trkpt><trkpt lat="43.49355784847641" lon="10.60058396260271"><ele>465.0</ele><time>2026-04-18T15:48:58.001Z</time></trkpt><trkpt lat="43.49362634303971" lon="10.600632911495405"><ele>465.0</ele><time>2026-04-18T15:48:59.001Z</time></trkpt><trkpt lat="43.49369536428755" lon="10.600701112491889"><ele>465.0</ele><time>2026-04-18T15:49:00.002Z</time></trkpt><trkpt lat="43.493786764001065" lon="10.60076429646843"><ele>462.6</ele><time>2026-04-18T15:49:01.002Z</time></trkpt><trkpt lat="43.49387339094774" lon="10.600824041014631"><ele>460.2</ele><time>2026-04-18T15:49:02.002Z</time></trkpt><trkpt lat="43.49395733299911" lon="10.600888838524194"><ele>457.79999999999995</ele><time>2026-04-18T15:49:03.002Z</time></trkpt><trkpt lat="43.49404248510748" lon="10.600954936223474"><ele>455.4</ele><time>2026-04-18T15:49:04.002Z</time></trkpt><trkpt lat="43.494125013615346" lon="10.601029575392804"><ele>453.0</ele><time>2026-04-18T15:49:05.002Z</time></trkpt><trkpt lat="43.49419878009679" lon="10.601100654369741"><ele>453.0</ele><time>2026-04-18T15:49:06.002Z</time></trkpt><trkpt lat="43.49426151982178" lon="10.601166124363441"><ele>453.0</ele><time>2026-04-18T15:49:07.002Z</time></trkpt><trkpt lat="43.494378223741656" lon="10.601225160762057"><ele>453.0</ele><time>2026-04-18T15:49:09.002Z</time></trkpt><trkpt lat="43.49455000798555" lon="10.601134536182634"><ele>453.0</ele><time>2026-04-18T15:49:12.002Z</time></trkpt><trkpt lat="43.494634758148095" lon="10.601002793607826"><ele>451.5</ele><time>2026-04-18T15:49:14.002Z</time></trkpt><trkpt lat="43.494687950564575" lon="10.60095292445967"><ele>450.0</ele><time>2026-04-18T15:49:15.002Z</time></trkpt><trkpt lat="43.49475375968044" lon="10.600920934132889"><ele>448.5</ele><time>2026-04-18T15:49:16.002Z</time></trkpt><trkpt lat="43.49482799077483" lon="10.600903381445034"><ele>447.0</ele><time>2026-04-18T15:49:17.002Z</time></trkpt><trkpt lat="43.49490716865061" lon="10.600907288008838"><ele>445.5</ele><time>2026-04-18T15:49:18.002Z</time></trkpt><trkpt lat="43.49498804722861" lon="10.600891397131896"><ele>444.0</ele><time>2026-04-18T15:49:19.002Z</time></trkpt><trkpt lat="43.49507108965692" lon="10.600896912033713"><ele>444.0</ele><time>2026-04-18T15:49:20.002Z</time></trkpt><trkpt lat="43.495138059814856" lon="10.600914627068722"><ele>444.0</ele><time>2026-04-18T15:49:21.002Z</time></trkpt><trkpt lat="43.49520727500912" lon="10.600945533517645"><ele>444.0</ele><time>2026-04-18T15:49:22.002Z</time></trkpt><trkpt lat="43.495280851547015" lon="10.600981653241362"><ele>444.0</ele><time>2026-04-18T15:49:23.002Z</time></trkpt><trkpt lat="43.495358130164234" lon="10.601018421488634"><ele>444.0</ele><time>2026-04-18T15:49:24Z</time></trkpt><trkpt lat="43.49544906991577" lon="10.601041137108632"><ele>444.0</ele><time>2026-04-18T15:49:25Z</time></trkpt><trkpt lat="43.49553734941188" lon="10.601071730384124"><ele>443.4</ele><time>2026-04-18T15:49:26Z</time></trkpt><trkpt lat="43.495622260572055" lon="10.601102186805585"><ele>442.79999999999995</ele><time>2026-04-18T15:49:27Z</time></trkpt><trkpt lat="43.4957072691534" lon="10.60113902713159"><ele>442.20000000000005</ele><time>2026-04-18T15:49:28Z</time></trkpt><trkpt lat="43.49579927266419" lon="10.601166430840996"><ele>441.6</ele><time>2026-04-18T15:49:29Z</time></trkpt><trkpt lat="43.49588757451643" lon="10.601195553622755"><ele>441.0</ele><time>2026-04-18T15:49:30Z</time></trkpt><trkpt lat="43.495976739418076" lon="10.601220559433086"><ele>441.0</ele><time>2026-04-18T15:49:31Z</time></trkpt><trkpt lat="43.49606509408361" lon="10.60125013390528"><ele>441.0</ele><time>2026-04-18T15:49:32Z</time></trkpt><trkpt lat="43.496152669258926" lon="10.601281990472021"><ele>441.0</ele><time>2026-04-18T15:49:33Z</time></trkpt><trkpt lat="43.49623994321551" lon="10.601309362348099"><ele>441.0</ele><time>2026-04-18T15:49:34Z</time></trkpt><trkpt lat="43.49632561939833" lon="10.601326489249468"><ele>441.0</ele><time>2026-04-18T15:49:35Z</time></trkpt><trkpt lat="43.496412218567706" lon="10.60133998427922"><ele>441.0</ele><time>2026-04-18T15:49:36Z</time></trkpt><trkpt lat="43.496497722633976" lon="10.60135666882585"><ele>439.20000000000005</ele><time>2026-04-18T15:49:37Z</time></trkpt><trkpt lat="43.496579259366136" lon="10.601385720144513"><ele>437.40000000000003</ele><time>2026-04-18T15:49:38Z</time></trkpt><trkpt lat="43.49664503117191" lon="10.60143406934227"><ele>435.6</ele><time>2026-04-18T15:49:39Z</time></trkpt><trkpt lat="43.496698031626735" lon="10.601502557238168"><ele>433.8</ele><time>2026-04-18T15:49:40Z</time></trkpt><trkpt lat="43.49669408855538" lon="10.601679009302707"><ele>432.0</ele><time>2026-04-18T15:49:42Z</time></trkpt><trkpt lat="43.49671104937866" lon="10.601840642965175"><ele>432.20000000000005</ele><time>2026-04-18T15:49:44Z</time></trkpt><trkpt lat="43.49673706257055" lon="10.602014218270572"><ele>432.40000000000003</ele><time>2026-04-18T15:49:46Z</time></trkpt><trkpt lat="43.496773456220765" lon="10.602174072351245"><ele>432.59999999999997</ele><time>2026-04-18T15:49:48Z</time></trkpt><trkpt lat="43.49681014747743" lon="10.60224934279309"><ele>432.79999999999995</ele><time>2026-04-18T15:49:49Z</time></trkpt><trkpt lat="43.49688062052342" lon="10.602367533408273"><ele>433.0</ele><time>2026-04-18T15:49:51Z</time></trkpt><trkpt lat="43.496935951477525" lon="10.602478451392594"><ele>433.0</ele><time>2026-04-18T15:49:53Z</time></trkpt><trkpt lat="43.49698752037188" lon="10.60260042671675"><ele>432.99999999999994</ele><time>2026-04-18T15:49:55Z</time></trkpt><trkpt lat="43.49705241929289" lon="10.602731509331205"><ele>432.99999999999994</ele><time>2026-04-18T15:49:57Z</time></trkpt><trkpt lat="43.49710032766197" lon="10.602816080425614"><ele>433.0</ele><time>2026-04-18T15:49:58Z</time></trkpt><trkpt lat="43.49714906693282" lon="10.602912746610915"><ele>433.0</ele><time>2026-04-18T15:49:59Z</time></trkpt><trkpt lat="43.49715643548086" lon="10.60301195727413"><ele>430.50000000000006</ele><time>2026-04-18T15:50:00Z</time></trkpt><trkpt lat="43.49718002677812" lon="10.603141024565753"><ele>428.0</ele><time>2026-04-18T15:50:01Z</time></trkpt><trkpt lat="43.497180217030476" lon="10.603257086255052"><ele>425.5</ele><time>2026-04-18T15:50:02Z</time></trkpt><trkpt lat="43.497185434989255" lon="10.603363833526908"><ele>423.0</ele><time>2026-04-18T15:50:03Z</time></trkpt><trkpt lat="43.497213761836285" lon="10.603460015847688"><ele>420.50000000000006</ele><time>2026-04-18T15:50:04Z</time></trkpt><trkpt lat="43.497278699869696" lon="10.603536395253501"><ele>418.0</ele><time>2026-04-18T15:50:05.001Z</time></trkpt><trkpt lat="43.49732948035699" lon="10.603615364441065"><ele>417.33333333333337</ele><time>2026-04-18T15:50:06.001Z</time></trkpt><trkpt lat="43.497359721013794" lon="10.603696061311659"><ele>416.6666666666667</ele><time>2026-04-18T15:50:07.001Z</time></trkpt><trkpt lat="43.49739817674375" lon="10.603813001672334"><ele>416.0</ele><time>2026-04-18T15:50:08.001Z</time></trkpt><trkpt lat="43.49743729728007" lon="10.603950940652306"><ele>415.33333333333337</ele><time>2026-04-18T15:50:09.001Z</time></trkpt><trkpt lat="43.497472937678666" lon="10.604071231420011"><ele>414.6666666666667</ele><time>2026-04-18T15:50:10.001Z</time></trkpt><trkpt lat="43.49750907226664" lon="10.604174428270326"><ele>414.0</ele><time>2026-04-18T15:50:11.001Z</time></trkpt><trkpt lat="43.49755488116811" lon="10.604269982141508"><ele>414.0</ele><time>2026-04-18T15:50:12.001Z</time></trkpt><trkpt lat="43.49762009275297" lon="10.60432085236355"><ele>414.0</ele><time>2026-04-18T15:50:13.001Z</time></trkpt><trkpt lat="43.49774270178795" lon="10.60434630340052"><ele>414.0</ele><time>2026-04-18T15:50:15.001Z</time></trkpt><trkpt lat="43.4978146861169" lon="10.604315769046423"><ele>414.0</ele><time>2026-04-18T15:50:16.001Z</time></trkpt><trkpt lat="43.497900035432856" lon="10.604331639889699"><ele>414.0</ele><time>2026-04-18T15:50:17.001Z</time></trkpt><trkpt lat="43.497981174425824" lon="10.604388854640323"><ele>412.5</ele><time>2026-04-18T15:50:18.001Z</time></trkpt><trkpt lat="43.498066050164894" lon="10.604454037438543"><ele>411.0</ele><time>2026-04-18T15:50:19.001Z</time></trkpt><trkpt lat="43.498141340000714" lon="10.60452385985409"><ele>409.5</ele><time>2026-04-18T15:50:20.001Z</time></trkpt><trkpt lat="43.49822347050287" lon="10.604560215525053"><ele>408.0</ele><time>2026-04-18T15:50:21.001Z</time></trkpt><trkpt lat="43.498302081640716" lon="10.60457346316194"><ele>406.5</ele><time>2026-04-18T15:50:22.001Z</time></trkpt><trkpt lat="43.49837563079583" lon="10.604579734710507"><ele>405.0</ele><time>2026-04-18T15:50:23.001Z</time></trkpt><trkpt lat="43.49844737035371" lon="10.60460893022683"><ele>405.0</ele><time>2026-04-18T15:50:24.001Z</time></trkpt><trkpt lat="43.49850905114423" lon="10.604686909623812"><ele>405.0</ele><time>2026-04-18T15:50:25.001Z</time></trkpt><trkpt lat="43.49857372001949" lon="10.60474973396818"><ele>405.0</ele><time>2026-04-18T15:50:26.001Z</time></trkpt><trkpt lat="43.49863530873565" lon="10.604817955817296"><ele>405.0</ele><time>2026-04-18T15:50:27.001Z</time></trkpt><trkpt lat="43.4986837988954" lon="10.604889223418231"><ele>405.0</ele><time>2026-04-18T15:50:28.001Z</time></trkpt><trkpt lat="43.49873303913511" lon="10.60496673018364"><ele>405.0</ele><time>2026-04-18T15:50:29.001Z</time></trkpt><trkpt lat="43.49873578139758" lon="10.605079181762132"><ele>401.6</ele><time>2026-04-18T15:50:30.001Z</time></trkpt><trkpt lat="43.49875538234488" lon="10.605198790446599"><ele>398.2</ele><time>2026-04-18T15:50:31.001Z</time></trkpt><trkpt lat="43.4987947179756" lon="10.60531821237025"><ele>394.79999999999995</ele><time>2026-04-18T15:50:32.001Z</time></trkpt><trkpt lat="43.498827337649516" lon="10.60544968989625"><ele>391.4</ele><time>2026-04-18T15:50:33.001Z</time></trkpt><trkpt lat="43.4988486985588" lon="10.605586954549077"><ele>388.0</ele><time>2026-04-18T15:50:34.001Z</time></trkpt><trkpt lat="43.49887649824838" lon="10.605715437543514"><ele>388.00000000000006</ele><time>2026-04-18T15:50:35.001Z</time></trkpt><trkpt lat="43.498902421246356" lon="10.60582873113845"><ele>388.0</ele><time>2026-04-18T15:50:36.001Z</time></trkpt><trkpt lat="43.49889718917113" lon="10.60593728341034"><ele>388.0</ele><time>2026-04-18T15:50:37.001Z</time></trkpt><trkpt lat="43.498886376825794" lon="10.606028684610406"><ele>388.0</ele><time>2026-04-18T15:50:38.001Z</time></trkpt><trkpt lat="43.498878993767775" lon="10.606124785331263"><ele>388.00000000000006</ele><time>2026-04-18T15:50:39.001Z</time></trkpt><trkpt lat="43.498891684371024" lon="10.606225453280992"><ele>388.0</ele><time>2026-04-18T15:50:40.001Z</time></trkpt><trkpt lat="43.49892397691468" lon="10.606324698900426"><ele>387.83333333333337</ele><time>2026-04-18T15:50:41.001Z</time></trkpt><trkpt lat="43.498974617499975" lon="10.606417503477047"><ele>387.6666666666667</ele><time>2026-04-18T15:50:42.001Z</time></trkpt><trkpt lat="43.499034291211736" lon="10.606499174899685"><ele>387.5</ele><time>2026-04-18T15:50:43.001Z</time></trkpt><trkpt lat="43.49909324727688" lon="10.60656592473867"><ele>387.33333333333337</ele><time>2026-04-18T15:50:44.001Z</time></trkpt><trkpt lat="43.49914559843215" lon="10.60666084859752"><ele>387.1666666666667</ele><time>2026-04-18T15:50:45.001Z</time></trkpt><trkpt lat="43.49917207986014" lon="10.606759525994486"><ele>387.0</ele><time>2026-04-18T15:50:46.001Z</time></trkpt><trkpt lat="43.499187837201355" lon="10.60687051767566"><ele>387.0</ele><time>2026-04-18T15:50:47.001Z</time></trkpt><trkpt lat="43.49917751187214" lon="10.606986053846601"><ele>387.0</ele><time>2026-04-18T15:50:48.001Z</time></trkpt><trkpt lat="43.49914065495603" lon="10.607073094553"><ele>387.0</ele><time>2026-04-18T15:50:49.001Z</time></trkpt><trkpt lat="43.49911594437908" lon="10.607163776215023"><ele>387.0</ele><time>2026-04-18T15:50:50.001Z</time></trkpt><trkpt lat="43.499118931423716" lon="10.607269275889719"><ele>387.0</ele><time>2026-04-18T15:50:51.001Z</time></trkpt><trkpt lat="43.49913063750892" lon="10.607363181271493"><ele>387.0</ele><time>2026-04-18T15:50:52.001Z</time></trkpt><trkpt lat="43.49916492522052" lon="10.607443366804931"><ele>387.0</ele><time>2026-04-18T15:50:53.001Z</time></trkpt><trkpt lat="43.49921871236041" lon="10.60749995080004"><ele>386.3333333333333</ele><time>2026-04-18T15:50:54.001Z</time></trkpt><trkpt lat="43.499289749938" lon="10.607549482938092"><ele>385.6666666666667</ele><time>2026-04-18T15:50:55.001Z</time></trkpt><trkpt lat="43.49936079414518" lon="10.60759000605417"><ele>385.0</ele><time>2026-04-18T15:50:56.002Z</time></trkpt><trkpt lat="43.49944070249563" lon="10.607633853694654"><ele>384.33333333333337</ele><time>2026-04-18T15:50:57.002Z</time></trkpt><trkpt lat="43.49952034408582" lon="10.60768134349402"><ele>383.6666666666667</ele><time>2026-04-18T15:50:58.002Z</time></trkpt><trkpt lat="43.499595820900325" lon="10.607731801344666"><ele>383.0</ele><time>2026-04-18T15:50:59.002Z</time></trkpt><trkpt lat="43.499664791314146" lon="10.607789996259136"><ele>380.59999999999997</ele><time>2026-04-18T15:51:00.002Z</time></trkpt><trkpt lat="43.49972787298154" lon="10.6078728045339"><ele>378.2</ele><time>2026-04-18T15:51:01.002Z</time></trkpt><trkpt lat="43.499790063115356" lon="10.60796521773417"><ele>375.8</ele><time>2026-04-18T15:51:02.002Z</time></trkpt><trkpt lat="43.499850269499106" lon="10.608060212064425"><ele>373.4</ele><time>2026-04-18T15:51:03.002Z</time></trkpt><trkpt lat="43.49990649423525" lon="10.608157612378067"><ele>371.0</ele><time>2026-04-18T15:51:04.002Z</time></trkpt><trkpt lat="43.4999718498509" lon="10.60825841177924"><ele>371.0</ele><time>2026-04-18T15:51:05.002Z</time></trkpt><trkpt lat="43.500030112461715" lon="10.608358319477261"><ele>371.0</ele><time>2026-04-18T15:51:06.002Z</time></trkpt><trkpt lat="43.500093181334535" lon="10.608461378493608"><ele>371.0</ele><time>2026-04-18T15:51:07.002Z</time></trkpt><trkpt lat="43.500148390704915" lon="10.608573593590181"><ele>371.0</ele><time>2026-04-18T15:51:08.002Z</time></trkpt><trkpt lat="43.50016878031712" lon="10.608690975563174"><ele>371.0</ele><time>2026-04-18T15:51:09.002Z</time></trkpt><trkpt lat="43.50019817002178" lon="10.608787605700968"><ele>372.5</ele><time>2026-04-18T15:51:10.002Z</time></trkpt><trkpt lat="43.50024046131864" lon="10.608887836237798"><ele>374.0</ele><time>2026-04-18T15:51:11.002Z</time></trkpt><trkpt lat="43.50030811219497" lon="10.608972545137798"><ele>375.5</ele><time>2026-04-18T15:51:12.002Z</time></trkpt><trkpt lat="43.500388386149815" lon="10.609024667789932"><ele>377.0</ele><time>2026-04-18T15:51:13.002Z</time></trkpt><trkpt lat="43.500455587658166" lon="10.609091043687263"><ele>378.5</ele><time>2026-04-18T15:51:14.002Z</time></trkpt><trkpt lat="43.50052328681966" lon="10.609140349415743"><ele>380.0</ele><time>2026-04-18T15:51:15.002Z</time></trkpt><trkpt lat="43.50057998454776" lon="10.609201054561138"><ele>378.1666666666667</ele><time>2026-04-18T15:51:16.002Z</time></trkpt><trkpt lat="43.50061626060309" lon="10.609291723103617"><ele>376.33333333333337</ele><time>2026-04-18T15:51:17.002Z</time></trkpt><trkpt lat="43.50064383502674" lon="10.609385456428665"><ele>374.5</ele><time>2026-04-18T15:51:18.002Z</time></trkpt><trkpt lat="43.50066764779712" lon="10.609471594398181"><ele>372.6666666666667</ele><time>2026-04-18T15:51:19.002Z</time></trkpt><trkpt lat="43.50070923912142" lon="10.609560864604562"><ele>370.8333333333333</ele><time>2026-04-18T15:51:20.002Z</time></trkpt><trkpt lat="43.500770247249115" lon="10.609625908887029"><ele>369.0</ele><time>2026-04-18T15:51:21.002Z</time></trkpt><trkpt lat="43.50087017870274" lon="10.609658857612144"><ele>369.0</ele><time>2026-04-18T15:51:22.002Z</time></trkpt><trkpt lat="43.50096801780319" lon="10.60964619170014"><ele>369.0</ele><time>2026-04-18T15:51:23.002Z</time></trkpt><trkpt lat="43.50107748036419" lon="10.609615076377006"><ele>369.0</ele><time>2026-04-18T15:51:24.002Z</time></trkpt><trkpt lat="43.50116609572906" lon="10.60953348305202"><ele>369.0</ele><time>2026-04-18T15:51:25.002Z</time></trkpt><trkpt lat="43.501244158779286" lon="10.60948774799398"><ele>369.0</ele><time>2026-04-18T15:51:26.002Z</time></trkpt><trkpt lat="43.50131031916131" lon="10.609448023786427"><ele>366.57142857142856</ele><time>2026-04-18T15:51:27.002Z</time></trkpt><trkpt lat="43.50137496180078" lon="10.60947089944397"><ele>364.1428571428571</ele><time>2026-04-18T15:51:28.002Z</time></trkpt><trkpt lat="43.501423739434046" lon="10.609543230808407"><ele>361.7142857142857</ele><time>2026-04-18T15:51:29Z</time></trkpt><trkpt lat="43.501482089512265" lon="10.609608537925585"><ele>359.2857142857143</ele><time>2026-04-18T15:51:30Z</time></trkpt><trkpt lat="43.5015396771351" lon="10.609673434763971"><ele>356.85714285714283</ele><time>2026-04-18T15:51:31Z</time></trkpt><trkpt lat="43.501604526890524" lon="10.609728892501602"><ele>354.42857142857144</ele><time>2026-04-18T15:51:32Z</time></trkpt><trkpt lat="43.50168360943673" lon="10.609756591933376"><ele>352.0</ele><time>2026-04-18T15:51:33Z</time></trkpt><trkpt lat="43.501762959120356" lon="10.60976157600392"><ele>352.0</ele><time>2026-04-18T15:51:34Z</time></trkpt><trkpt lat="43.50184070872321" lon="10.60972169564256"><ele>352.0</ele><time>2026-04-18T15:51:35Z</time></trkpt><trkpt lat="43.50192161700613" lon="10.609705010909872"><ele>352.0</ele><time>2026-04-18T15:51:36Z</time></trkpt><trkpt lat="43.502007630198676" lon="10.609679479322573"><ele>352.0</ele><time>2026-04-18T15:51:37Z</time></trkpt><trkpt lat="43.50209100013977" lon="10.60963860339885"><ele>352.0</ele><time>2026-04-18T15:51:38Z</time></trkpt><trkpt lat="43.50217388378157" lon="10.609584315077772"><ele>352.0</ele><time>2026-04-18T15:51:39Z</time></trkpt><trkpt lat="43.502247561977576" lon="10.60952167592126"><ele>348.8333333333333</ele><time>2026-04-18T15:51:40Z</time></trkpt><trkpt lat="43.50231919012803" lon="10.60946281078861"><ele>345.66666666666663</ele><time>2026-04-18T15:51:41Z</time></trkpt><trkpt lat="43.50239526310392" lon="10.609406239928484"><ele>342.5</ele><time>2026-04-18T15:51:42Z</time></trkpt><trkpt lat="43.502476086991344" lon="10.609390488011805"><ele>339.3333333333333</ele><time>2026-04-18T15:51:43Z</time></trkpt><trkpt lat="43.50255507913713" lon="10.609355078106564"><ele>336.1666666666667</ele><time>2026-04-18T15:51:44Z</time></trkpt><trkpt lat="43.502641654116516" lon="10.60937275107354"><ele>333.0</ele><time>2026-04-18T15:51:45Z</time></trkpt><trkpt lat="43.50271651200547" lon="10.609431646068968"><ele>333.0</ele><time>2026-04-18T15:51:46Z</time></trkpt><trkpt lat="43.50278782310772" lon="10.6094906222299"><ele>333.0</ele><time>2026-04-18T15:51:47Z</time></trkpt><trkpt lat="43.50285641442235" lon="10.609569513354783"><ele>333.0</ele><time>2026-04-18T15:51:48Z</time></trkpt><trkpt lat="43.502908596113166" lon="10.609650702655228"><ele>333.0</ele><time>2026-04-18T15:51:49Z</time></trkpt><trkpt lat="43.5029609354879" lon="10.609730464497337"><ele>333.0</ele><time>2026-04-18T15:51:50Z</time></trkpt><trkpt lat="43.50297219004908" lon="10.60983748524181"><ele>333.0</ele><time>2026-04-18T15:51:51Z</time></trkpt><trkpt lat="43.50294617926535" lon="10.609947639887118"><ele>331.3333333333333</ele><time>2026-04-18T15:51:52Z</time></trkpt><trkpt lat="43.502937740294975" lon="10.610058437636347"><ele>329.6666666666667</ele><time>2026-04-18T15:51:53Z</time></trkpt><trkpt lat="43.5029308793598" lon="10.610164001473194"><ele>328.0</ele><time>2026-04-18T15:51:54Z</time></trkpt><trkpt lat="43.50294160060601" lon="10.61028666785808"><ele>326.33333333333337</ele><time>2026-04-18T15:51:55Z</time></trkpt><trkpt lat="43.50299149234159" lon="10.610396047631035"><ele>324.6666666666667</ele><time>2026-04-18T15:51:56Z</time></trkpt><trkpt lat="43.50303713989944" lon="10.610499905005852"><ele>323.0</ele><time>2026-04-18T15:51:57Z</time></trkpt><trkpt lat="43.503074228503536" lon="10.61060108616274"><ele>323.0</ele><time>2026-04-18T15:51:58Z</time></trkpt><trkpt lat="43.503105211362524" lon="10.610701091377203"><ele>323.0</ele><time>2026-04-18T15:51:59Z</time></trkpt><trkpt lat="43.503123888273336" lon="10.610794990339324"><ele>323.0</ele><time>2026-04-18T15:52:00Z</time></trkpt><trkpt lat="43.50311288986249" lon="10.610888068460888"><ele>323.0</ele><time>2026-04-18T15:52:01Z</time></trkpt><trkpt lat="43.503074816267535" lon="10.610980104872809"><ele>323.0</ele><time>2026-04-18T15:52:02Z</time></trkpt><trkpt lat="43.50302781337063" lon="10.61106587061334"><ele>323.0</ele><time>2026-04-18T15:52:03Z</time></trkpt><trkpt lat="43.502947484128995" lon="10.611135942115112"><ele>324.33333333333337</ele><time>2026-04-18T15:52:04Z</time></trkpt><trkpt lat="43.50289140962593" lon="10.611218296560235"><ele>325.6666666666667</ele><time>2026-04-18T15:52:05Z</time></trkpt><trkpt lat="43.502850478135585" lon="10.61130563251137"><ele>327.0</ele><time>2026-04-18T15:52:06.001Z</time></trkpt><trkpt lat="43.50279802939592" lon="10.611386406351011"><ele>328.3333333333333</ele><time>2026-04-18T15:52:07.001Z</time></trkpt><trkpt lat="43.50278374805485" lon="10.611490799252811"><ele>329.66666666666663</ele><time>2026-04-18T15:52:08.001Z</time></trkpt><trkpt lat="43.502812729391415" lon="10.61159632551923"><ele>331.0</ele><time>2026-04-18T15:52:09.001Z</time></trkpt><trkpt lat="43.50287308891383" lon="10.611661142136473"><ele>330.3333333333333</ele><time>2026-04-18T15:52:10.001Z</time></trkpt><trkpt lat="43.502948590598" lon="10.611643538038628"><ele>329.66666666666663</ele><time>2026-04-18T15:52:11.001Z</time></trkpt><trkpt lat="43.503028903451394" lon="10.611597298787634"><ele>329.0</ele><time>2026-04-18T15:52:12.001Z</time></trkpt><trkpt lat="43.50310575566082" lon="10.611501843295784"><ele>328.3333333333333</ele><time>2026-04-18T15:52:13.001Z</time></trkpt><trkpt lat="43.5031584072401" lon="10.611447458732682"><ele>327.6666666666667</ele><time>2026-04-18T15:52:14.001Z</time></trkpt><trkpt lat="43.50322397955094" lon="10.611445017292276"><ele>327.0</ele><time>2026-04-18T15:52:15.001Z</time></trkpt><trkpt lat="43.503342116202596" lon="10.611422911065459"><ele>327.0</ele><time>2026-04-18T15:52:17.001Z</time></trkpt><trkpt lat="43.503441826430226" lon="10.611435145979767"><ele>327.0</ele><time>2026-04-18T15:52:19.001Z</time></trkpt><trkpt lat="43.50356955979284" lon="10.611454256995074"><ele>327.0</ele><time>2026-04-18T15:52:21.001Z</time></trkpt><trkpt lat="43.503688082613856" lon="10.611505582951766"><ele>327.0</ele><time>2026-04-18T15:52:23.001Z</time></trkpt><trkpt lat="43.503749944352286" lon="10.611540015304156"><ele>327.0</ele><time>2026-04-18T15:52:24.001Z</time></trkpt><trkpt lat="43.50380199657153" lon="10.611599223117503"><ele>328.40000000000003</ele><time>2026-04-18T15:52:25.001Z</time></trkpt><trkpt lat="43.50390452945108" lon="10.611664223134998"><ele>329.8</ele><time>2026-04-18T15:52:27.001Z</time></trkpt><trkpt lat="43.50397022434246" lon="10.611756700749993"><ele>331.2</ele><time>2026-04-18T15:52:29.001Z</time></trkpt><trkpt lat="43.504037027744694" lon="10.611833656255913"><ele>332.6</ele><time>2026-04-18T15:52:31.001Z</time></trkpt><trkpt lat="43.5041013175368" lon="10.611908837235816"><ele>334.0</ele><time>2026-04-18T15:52:33.001Z</time></trkpt><trkpt lat="43.50417992628049" lon="10.611991547500862"><ele>334.0</ele><time>2026-04-18T15:52:35.001Z</time></trkpt><trkpt lat="43.50427047873041" lon="10.612091408220936"><ele>334.0</ele><time>2026-04-18T15:52:37.001Z</time></trkpt><trkpt lat="43.5043634542197" lon="10.61218955368736"><ele>334.0</ele><time>2026-04-18T15:52:39.001Z</time></trkpt><trkpt lat="43.504472158837594" lon="10.61225899670978"><ele>334.0</ele><time>2026-04-18T15:52:41.001Z</time></trkpt><trkpt lat="43.50457757338262" lon="10.612305369317632"><ele>331.6</ele><time>2026-04-18T15:52:43.001Z</time></trkpt><trkpt lat="43.50468557979555" lon="10.612314125277148"><ele>329.2</ele><time>2026-04-18T15:52:45.001Z</time></trkpt><trkpt lat="43.504817248234716" lon="10.612298646335717"><ele>326.8</ele><time>2026-04-18T15:52:47.001Z</time></trkpt><trkpt lat="43.504892637803366" lon="10.612296181867292"><ele>324.40000000000003</ele><time>2026-04-18T15:52:48.001Z</time></trkpt><trkpt lat="43.50497020240028" lon="10.612331447200118"><ele>322.0</ele><time>2026-04-18T15:52:49.001Z</time></trkpt><trkpt lat="43.505046609861424" lon="10.612347509406035"><ele>322.0</ele><time>2026-04-18T15:52:50.001Z</time></trkpt><trkpt lat="43.505115757523576" lon="10.612367937153932"><ele>322.0</ele><time>2026-04-18T15:52:51.001Z</time></trkpt><trkpt lat="43.50517618793048" lon="10.612403942010621"><ele>322.0</ele><time>2026-04-18T15:52:52.001Z</time></trkpt><trkpt lat="43.50523561371855" lon="10.612483073019348"><ele>322.0</ele><time>2026-04-18T15:52:53.001Z</time></trkpt><trkpt lat="43.50528762639869" lon="10.612567717127003"><ele>322.0</ele><time>2026-04-18T15:52:54.001Z</time></trkpt><trkpt lat="43.50533530460808" lon="10.61264936526697"><ele>322.0</ele><time>2026-04-18T15:52:55.001Z</time></trkpt><trkpt lat="43.50538797061845" lon="10.61272198464762"><ele>322.5</ele><time>2026-04-18T15:52:56.001Z</time></trkpt><trkpt lat="43.5054485103053" lon="10.612796843557396"><ele>323.0</ele><time>2026-04-18T15:52:57.001Z</time></trkpt><trkpt lat="43.5054924471373" lon="10.612867502099453"><ele>323.5</ele><time>2026-04-18T15:52:58.002Z</time></trkpt><trkpt lat="43.50554563970933" lon="10.612923889624753"><ele>324.0</ele><time>2026-04-18T15:52:59.002Z</time></trkpt><trkpt lat="43.50563265853269" lon="10.613037492968004"><ele>324.5</ele><time>2026-04-18T15:53:01.002Z</time></trkpt><trkpt lat="43.505662904699484" lon="10.613168516854106"><ele>325.0</ele><time>2026-04-18T15:53:03.002Z</time></trkpt><trkpt lat="43.50570406498207" lon="10.613265757294458"><ele>325.0</ele><time>2026-04-18T15:53:05.002Z</time></trkpt><trkpt lat="43.50572669442905" lon="10.613356907620831"><ele>325.0</ele><time>2026-04-18T15:53:07.002Z</time></trkpt><trkpt lat="43.50574911223308" lon="10.613452965402427"><ele>325.0</ele><time>2026-04-18T15:53:09.002Z</time></trkpt><trkpt lat="43.505779634563424" lon="10.613564284630229"><ele>325.0</ele><time>2026-04-18T15:53:11.002Z</time></trkpt><trkpt lat="43.50579759347822" lon="10.613684885411088"><ele>325.0</ele><time>2026-04-18T15:53:13.002Z</time></trkpt><trkpt lat="43.50582072636032" lon="10.613822147532325"><ele>325.0</ele><time>2026-04-18T15:53:15.002Z</time></trkpt><trkpt lat="43.505850648074215" lon="10.613983277111283"><ele>326.2</ele><time>2026-04-18T15:53:17.002Z</time></trkpt><trkpt lat="43.505862037958025" lon="10.614070466217699"><ele>327.4</ele><time>2026-04-18T15:53:18.002Z</time></trkpt><trkpt lat="43.50588128405441" lon="10.614210645884853"><ele>328.6</ele><time>2026-04-18T15:53:20.002Z</time></trkpt><trkpt lat="43.50590350969131" lon="10.614312156066756"><ele>329.8</ele><time>2026-04-18T15:53:21.002Z</time></trkpt><trkpt lat="43.505932386634655" lon="10.614466042307303"><ele>331.0</ele><time>2026-04-18T15:53:23.002Z</time></trkpt><trkpt lat="43.50596142663945" lon="10.614604154792373"><ele>331.20000000000005</ele><time>2026-04-18T15:53:25.002Z</time></trkpt><trkpt lat="43.50599768441075" lon="10.614714761099458"><ele>331.40000000000003</ele><time>2026-04-18T15:53:27.002Z</time></trkpt><trkpt lat="43.50604454142213" lon="10.614842717385626"><ele>331.6</ele><time>2026-04-18T15:53:29.002Z</time></trkpt><trkpt lat="43.50608937919839" lon="10.614978303458937"><ele>331.8</ele><time>2026-04-18T15:53:31.002Z</time></trkpt><trkpt lat="43.506172078389824" lon="10.615108644805076"><ele>332.0</ele><time>2026-04-18T15:53:33.002Z</time></trkpt><trkpt lat="43.50625423390983" lon="10.615254114527833"><ele>330.7142857142857</ele><time>2026-04-18T15:53:35Z</time></trkpt><trkpt lat="43.506294781053946" lon="10.615329076602897"><ele>329.42857142857144</ele><time>2026-04-18T15:53:36Z</time></trkpt><trkpt lat="43.50632610883115" lon="10.615421589051627"><ele>328.14285714285717</ele><time>2026-04-18T15:53:37Z</time></trkpt><trkpt lat="43.5063667960534" lon="10.615509016188087"><ele>326.8571428571429</ele><time>2026-04-18T15:53:38Z</time></trkpt><trkpt lat="43.50640848992203" lon="10.615596874722288"><ele>325.57142857142856</ele><time>2026-04-18T15:53:39Z</time></trkpt><trkpt lat="43.506454091087384" lon="10.615680690615275"><ele>324.28571428571433</ele><time>2026-04-18T15:53:40Z</time></trkpt><trkpt lat="43.506503455971185" lon="10.61576234466531"><ele>323.0</ele><time>2026-04-18T15:53:41Z</time></trkpt><trkpt lat="43.5065601926193" lon="10.615845603339514"><ele>323.0</ele><time>2026-04-18T15:53:42Z</time></trkpt><trkpt lat="43.506621535850904" lon="10.615922571059988"><ele>323.0</ele><time>2026-04-18T15:53:43Z</time></trkpt><trkpt lat="43.506673831599386" lon="10.615985690514124"><ele>323.0</ele><time>2026-04-18T15:53:44Z</time></trkpt><trkpt lat="43.506790945336284" lon="10.616053796378239"><ele>323.0</ele><time>2026-04-18T15:53:46Z</time></trkpt><trkpt lat="43.50685947635072" lon="10.616085875454068"><ele>323.0</ele><time>2026-04-18T15:53:47Z</time></trkpt><trkpt lat="43.50693996025982" lon="10.616077654082348"><ele>323.0</ele><time>2026-04-18T15:53:48Z</time></trkpt><trkpt lat="43.507016901440466" lon="10.616063708928925"><ele>321.83333333333337</ele><time>2026-04-18T15:53:49Z</time></trkpt><trkpt lat="43.50709157087218" lon="10.616053132272926"><ele>320.6666666666667</ele><time>2026-04-18T15:53:50Z</time></trkpt><trkpt lat="43.50717154499412" lon="10.616042897328784"><ele>319.5</ele><time>2026-04-18T15:53:51Z</time></trkpt><trkpt lat="43.507249932731234" lon="10.616009275764165"><ele>318.3333333333333</ele><time>2026-04-18T15:53:52Z</time></trkpt><trkpt lat="43.50732764826674" lon="10.616000822142194"><ele>317.16666666666663</ele><time>2026-04-18T15:53:53Z</time></trkpt><trkpt lat="43.50740910704496" lon="10.615997287550943"><ele>316.0</ele><time>2026-04-18T15:53:54Z</time></trkpt><trkpt lat="43.50748761188958" lon="10.615956596431072"><ele>316.0</ele><time>2026-04-18T15:53:55Z</time></trkpt><trkpt lat="43.50756589597886" lon="10.61590296194779"><ele>316.0</ele><time>2026-04-18T15:53:56Z</time></trkpt><trkpt lat="43.507651778716706" lon="10.615839329577662"><ele>316.0</ele><time>2026-04-18T15:53:57Z</time></trkpt><trkpt lat="43.50773473225257" lon="10.615780855230371"><ele>316.0</ele><time>2026-04-18T15:53:58Z</time></trkpt><trkpt lat="43.507819775956264" lon="10.615731302835028"><ele>316.0</ele><time>2026-04-18T15:53:59Z</time></trkpt><trkpt lat="43.50790876717758" lon="10.615691019884911"><ele>314.3333333333333</ele><time>2026-04-18T15:54:00Z</time></trkpt><trkpt lat="43.507992486070265" lon="10.615665578784162"><ele>312.66666666666663</ele><time>2026-04-18T15:54:01Z</time></trkpt><trkpt lat="43.50807226703546" lon="10.615647726635427"><ele>311.0</ele><time>2026-04-18T15:54:02Z</time></trkpt><trkpt lat="43.50814754854154" lon="10.615627228328004"><ele>309.3333333333333</ele><time>2026-04-18T15:54:03Z</time></trkpt><trkpt lat="43.50821297446079" lon="10.615598973352482"><ele>307.6666666666667</ele><time>2026-04-18T15:54:04Z</time></trkpt><trkpt lat="43.50827670179711" lon="10.615552753301305"><ele>306.0</ele><time>2026-04-18T15:54:05Z</time></trkpt><trkpt lat="43.50833483541986" lon="10.61550651047118"><ele>306.0</ele><time>2026-04-18T15:54:06Z</time></trkpt><trkpt lat="43.508395626291886" lon="10.615459566648868"><ele>306.0</ele><time>2026-04-18T15:54:07Z</time></trkpt><trkpt lat="43.50845252358673" lon="10.615395753144943"><ele>306.0</ele><time>2026-04-18T15:54:08Z</time></trkpt><trkpt lat="43.5084959749324" lon="10.615328494465526"><ele>306.0</ele><time>2026-04-18T15:54:09Z</time></trkpt><trkpt lat="43.508567033539784" lon="10.615217241721085"><ele>306.0</ele><time>2026-04-18T15:54:11.001Z</time></trkpt><trkpt lat="43.50863798454453" lon="10.615145769151347"><ele>306.0</ele><time>2026-04-18T15:54:13.001Z</time></trkpt><trkpt lat="43.50872661430307" lon="10.615182459853711"><ele>304.3333333333333</ele><time>2026-04-18T15:54:15.001Z</time></trkpt><trkpt lat="43.50879371813665" lon="10.615294780124154"><ele>302.6666666666667</ele><time>2026-04-18T15:54:17.001Z</time></trkpt><trkpt lat="43.50882045846938" lon="10.615417801227577"><ele>301.0</ele><time>2026-04-18T15:54:19.001Z</time></trkpt><trkpt lat="43.50884526155633" lon="10.615505898669854"><ele>299.33333333333337</ele><time>2026-04-18T15:54:23.001Z</time></trkpt><trkpt lat="43.50886346693084" lon="10.615601457298558"><ele>297.6666666666667</ele><time>2026-04-18T15:54:25.001Z</time></trkpt><trkpt lat="43.50888357531662" lon="10.615693274474186"><ele>296.0</ele><time>2026-04-18T15:54:27.001Z</time></trkpt><trkpt lat="43.50889187088864" lon="10.615780843453363"><ele>295.7142857142857</ele><time>2026-04-18T15:54:30.001Z</time></trkpt><trkpt lat="43.508895580148305" lon="10.615870251907651"><ele>295.42857142857144</ele><time>2026-04-18T15:54:35.001Z</time></trkpt><trkpt lat="43.50892901283372" lon="10.615966364592609"><ele>295.1428571428571</ele><time>2026-04-18T15:54:38.001Z</time></trkpt><trkpt lat="43.50898041825489" lon="10.61603851747097"><ele>294.8571428571429</ele><time>2026-04-18T15:54:40.001Z</time></trkpt><trkpt lat="43.50901676561315" lon="10.616117947760301"><ele>294.57142857142856</ele><time>2026-04-18T15:55:14.002Z</time></trkpt><trkpt lat="43.509040141801314" lon="10.616231432998227"><ele>294.2857142857143</ele><time>2026-04-18T15:55:23.002Z</time></trkpt><trkpt lat="43.50904601087282" lon="10.616322873463288"><ele>294.0</ele><time>2026-04-18T15:55:25.002Z</time></trkpt><trkpt lat="43.5088804368615" lon="10.616403234103947"><ele>293.7142857142857</ele><time>2026-04-18T15:55:39.002Z</time></trkpt><trkpt lat="43.50879483515118" lon="10.616504383829238"><ele>293.42857142857144</ele><time>2026-04-18T15:55:41Z</time></trkpt><trkpt lat="43.508748333412534" lon="10.616563022508128"><ele>293.1428571428571</ele><time>2026-04-18T15:55:42Z</time></trkpt><trkpt lat="43.508692294328895" lon="10.616623192157515"><ele>292.8571428571429</ele><time>2026-04-18T15:55:43Z</time></trkpt><trkpt lat="43.508641862253086" lon="10.616679214200833"><ele>292.57142857142856</ele><time>2026-04-18T15:55:44Z</time></trkpt><trkpt lat="43.50860120548703" lon="10.616751240939363"><ele>292.2857142857143</ele><time>2026-04-18T15:55:45Z</time></trkpt><trkpt lat="43.50855188364595" lon="10.61681328078076"><ele>292.0</ele><time>2026-04-18T15:55:46Z</time></trkpt><trkpt lat="43.5084904225718" lon="10.616865471122907"><ele>291.57142857142856</ele><time>2026-04-18T15:55:47Z</time></trkpt><trkpt lat="43.50843595187664" lon="10.616942491816914"><ele>291.14285714285717</ele><time>2026-04-18T15:55:48Z</time></trkpt><trkpt lat="43.508386380267595" lon="10.617020649845335"><ele>290.7142857142857</ele><time>2026-04-18T15:55:49Z</time></trkpt><trkpt lat="43.5083384008787" lon="10.617100005373297"><ele>290.2857142857143</ele><time>2026-04-18T15:55:50Z</time></trkpt><trkpt lat="43.508295323642166" lon="10.617180305614378"><ele>289.85714285714283</ele><time>2026-04-18T15:55:51Z</time></trkpt><trkpt lat="43.508257873496966" lon="10.61725574289889"><ele>289.42857142857144</ele><time>2026-04-18T15:55:52Z</time></trkpt><trkpt lat="43.50823801506417" lon="10.617348728430754"><ele>289.0</ele><time>2026-04-18T15:55:53Z</time></trkpt><trkpt lat="43.50819436981456" lon="10.617425443349447"><ele>289.0</ele><time>2026-04-18T15:55:54Z</time></trkpt><trkpt lat="43.5081651338287" lon="10.617516029018297"><ele>289.0</ele><time>2026-04-18T15:55:55Z</time></trkpt><trkpt lat="43.508105909631794" lon="10.61768652565094"><ele>289.0</ele><time>2026-04-18T15:55:57Z</time></trkpt><trkpt lat="43.5080655475104" lon="10.617791734755576"><ele>289.0</ele><time>2026-04-18T15:55:58Z</time></trkpt><trkpt lat="43.50802688359088" lon="10.617892672355598"><ele>289.0</ele><time>2026-04-18T15:55:59Z</time></trkpt><trkpt lat="43.50799004599554" lon="10.61799541048901"><ele>288.3333333333333</ele><time>2026-04-18T15:56:00Z</time></trkpt><trkpt lat="43.50796836739591" lon="10.618097631375287"><ele>287.66666666666663</ele><time>2026-04-18T15:56:01Z</time></trkpt><trkpt lat="43.50792491271975" lon="10.618183257017515"><ele>287.0</ele><time>2026-04-18T15:56:02Z</time></trkpt><trkpt lat="43.507881526320155" lon="10.618274502412223"><ele>286.3333333333333</ele><time>2026-04-18T15:56:03Z</time></trkpt><trkpt lat="43.507829450423245" lon="10.618359571331242"><ele>285.6666666666667</ele><time>2026-04-18T15:56:04Z</time></trkpt><trkpt lat="43.507774044590214" lon="10.61844021587593"><ele>285.0</ele><time>2026-04-18T15:56:05Z</time></trkpt><trkpt lat="43.5077187508342" lon="10.618519300528765"><ele>285.0</ele><time>2026-04-18T15:56:06Z</time></trkpt><trkpt lat="43.507649440386764" lon="10.6185644893645"><ele>285.0</ele><time>2026-04-18T15:56:07Z</time></trkpt><trkpt lat="43.50758440226553" lon="10.618619657650697"><ele>285.0</ele><time>2026-04-18T15:56:08Z</time></trkpt><trkpt lat="43.507519241784394" lon="10.6186697988104"><ele>285.0</ele><time>2026-04-18T15:56:09Z</time></trkpt><trkpt lat="43.50745568153416" lon="10.618711694841934"><ele>285.0</ele><time>2026-04-18T15:56:10Z</time></trkpt><trkpt lat="43.507386373062616" lon="10.618760090958288"><ele>285.0</ele><time>2026-04-18T15:56:11Z</time></trkpt><trkpt lat="43.50732035605953" lon="10.618773133676887"><ele>285.0</ele><time>2026-04-18T15:56:12Z</time></trkpt><trkpt lat="43.50721474740493" lon="10.61883136256867"><ele>285.8</ele><time>2026-04-18T15:56:14Z</time></trkpt><trkpt lat="43.50712228167384" lon="10.618875916375028"><ele>286.6</ele><time>2026-04-18T15:56:16Z</time></trkpt><trkpt lat="43.50706016036832" lon="10.61896596196291"><ele>287.4</ele><time>2026-04-18T15:56:18.001Z</time></trkpt><trkpt lat="43.506992136669645" lon="10.619046934072466"><ele>288.2</ele><time>2026-04-18T15:56:20.001Z</time></trkpt><trkpt lat="43.506933031308776" lon="10.619126164100372"><ele>289.0</ele><time>2026-04-18T15:56:22.001Z</time></trkpt><trkpt lat="43.50686456286945" lon="10.619206117684323"><ele>289.0</ele><time>2026-04-18T15:56:24.001Z</time></trkpt><trkpt lat="43.50676374471349" lon="10.619250469367945"><ele>289.0</ele><time>2026-04-18T15:56:26.001Z</time></trkpt><trkpt lat="43.506652632600186" lon="10.61930504298397"><ele>289.0</ele><time>2026-04-18T15:56:28.001Z</time></trkpt><trkpt lat="43.5065327730157" lon="10.619311915679349"><ele>289.0</ele><time>2026-04-18T15:56:30.001Z</time></trkpt><trkpt lat="43.506411957640175" lon="10.619321804968566"><ele>289.0</ele><time>2026-04-18T15:56:32.001Z</time></trkpt><trkpt lat="43.50629972906488" lon="10.619293368397196"><ele>289.0</ele><time>2026-04-18T15:56:34.001Z</time></trkpt><trkpt lat="43.506190948661036" lon="10.619314921727364"><ele>289.0</ele><time>2026-04-18T15:56:36.001Z</time></trkpt><trkpt lat="43.506096633066875" lon="10.619344143333548"><ele>289.0</ele><time>2026-04-18T15:56:38.001Z</time></trkpt><trkpt lat="43.5060064175751" lon="10.619393978460112"><ele>289.0</ele><time>2026-04-18T15:56:40.001Z</time></trkpt><trkpt lat="43.505909566243936" lon="10.619428406900672"><ele>290.8333333333333</ele><time>2026-04-18T15:56:42.001Z</time></trkpt><trkpt lat="43.50580204963563" lon="10.61946333996223"><ele>292.66666666666663</ele><time>2026-04-18T15:56:44.001Z</time></trkpt><trkpt lat="43.505694363989114" lon="10.619473947418465"><ele>294.5</ele><time>2026-04-18T15:56:46.001Z</time></trkpt><trkpt lat="43.50563845739222" lon="10.619433717235928"><ele>296.3333333333333</ele><time>2026-04-18T15:56:49.001Z</time></trkpt><trkpt lat="43.50556989438701" lon="10.619407194592096"><ele>298.1666666666667</ele><time>2026-04-18T15:57:15.002Z</time></trkpt><trkpt lat="43.50548384849346" lon="10.619379111620777"><ele>300.0</ele><time>2026-04-18T15:57:18.002Z</time></trkpt><trkpt lat="43.505412701804424" lon="10.61935623343038"><ele>301.5</ele><time>2026-04-18T15:57:20.002Z</time></trkpt><trkpt lat="43.50533906954236" lon="10.619353411539747"><ele>303.0</ele><time>2026-04-18T15:57:22.002Z</time></trkpt><trkpt lat="43.505255029251856" lon="10.619335315157599"><ele>304.5</ele><time>2026-04-18T15:57:25.002Z</time></trkpt><trkpt lat="43.50518447267813" lon="10.619344549875697"><ele>306.0</ele><time>2026-04-18T15:57:28.002Z</time></trkpt><trkpt lat="43.50513310474606" lon="10.619427854700872"><ele>307.5</ele><time>2026-04-18T15:57:30.002Z</time></trkpt><trkpt lat="43.505100553699535" lon="10.61951146884197"><ele>309.0</ele><time>2026-04-18T15:57:32.002Z</time></trkpt><trkpt lat="43.50506037222512" lon="10.619612451819853"><ele>309.0</ele><time>2026-04-18T15:57:35.002Z</time></trkpt><trkpt lat="43.505041937214735" lon="10.619732691770126"><ele>309.0</ele><time>2026-04-18T15:57:38.002Z</time></trkpt><trkpt lat="43.504998643732854" lon="10.619815811421963"><ele>309.0</ele><time>2026-04-18T15:57:41.002Z</time></trkpt><trkpt lat="43.50493053976878" lon="10.619894748134787"><ele>309.0</ele><time>2026-04-18T15:57:44.002Z</time></trkpt><trkpt lat="43.50485900626017" lon="10.619959200998542"><ele>309.0</ele><time>2026-04-18T15:57:47Z</time></trkpt><trkpt lat="43.50480629310192" lon="10.62001578360368"><ele>309.0</ele><time>2026-04-18T15:57:49Z</time></trkpt><trkpt lat="43.50475110145027" lon="10.620086572869816"><ele>309.0</ele><time>2026-04-18T15:57:52Z</time></trkpt><trkpt lat="43.504701581799004" lon="10.620142788734295"><ele>309.0</ele><time>2026-04-18T15:57:56Z</time></trkpt><trkpt lat="43.504626622307235" lon="10.620159124529504"><ele>309.0</ele><time>2026-04-18T15:58:02Z</time></trkpt><trkpt lat="43.50456541222997" lon="10.620111218721737"><ele>309.0</ele><time>2026-04-18T15:58:05Z</time></trkpt><trkpt lat="43.504522328206136" lon="10.620033058827838"><ele>309.0</ele><time>2026-04-18T15:58:07Z</time></trkpt><trkpt lat="43.50447767347924" lon="10.619929722428841"><ele>309.0</ele><time>2026-04-18T15:58:09Z</time></trkpt><trkpt lat="43.50443767915961" lon="10.61982155557757"><ele>309.3333333333333</ele><time>2026-04-18T15:58:11Z</time></trkpt><trkpt lat="43.50440330110158" lon="10.619717826506632"><ele>309.6666666666667</ele><time>2026-04-18T15:58:13Z</time></trkpt><trkpt lat="43.50436922483908" lon="10.619611075400663"><ele>310.0</ele><time>2026-04-18T15:58:15Z</time></trkpt><trkpt lat="43.50434428002802" lon="10.619508186947735"><ele>310.33333333333337</ele><time>2026-04-18T15:58:17.001Z</time></trkpt><trkpt lat="43.50431122938054" lon="10.619401888433664"><ele>310.6666666666667</ele><time>2026-04-18T15:58:20.001Z</time></trkpt><trkpt lat="43.50430136708237" lon="10.619312379211989"><ele>311.0</ele><time>2026-04-18T15:58:24.001Z</time></trkpt><trkpt lat="43.504507193773996" lon="10.619097509244344"><ele>311.2</ele><time>2026-04-18T15:58:28.001Z</time></trkpt><trkpt lat="43.50457060909115" lon="10.61901403989246"><ele>311.40000000000003</ele><time>2026-04-18T15:58:30.001Z</time></trkpt><trkpt lat="43.504671366567685" lon="10.618942222759948"><ele>311.6</ele><time>2026-04-18T15:58:32.001Z</time></trkpt><trkpt lat="43.50475579036388" lon="10.618874934408725"><ele>311.8</ele><time>2026-04-18T15:58:34.001Z</time></trkpt><trkpt lat="43.50481599479518" lon="10.618810265713078"><ele>312.0</ele><time>2026-04-18T15:58:36.001Z</time></trkpt><trkpt lat="43.50487279399569" lon="10.618730762518265"><ele>312.0</ele><time>2026-04-18T15:58:38.001Z</time></trkpt><trkpt lat="43.50492468268981" lon="10.618660753785221"><ele>312.0</ele><time>2026-04-18T15:58:40.001Z</time></trkpt><trkpt lat="43.50496862960058" lon="10.618579942160865"><ele>312.0</ele><time>2026-04-18T15:58:43.001Z</time></trkpt><trkpt lat="43.504945682255546" lon="10.618493904293754"><ele>312.0</ele><time>2026-04-18T15:58:46.001Z</time></trkpt><trkpt lat="43.50489035537786" lon="10.618572643334426"><ele>312.0</ele><time>2026-04-18T15:58:57.001Z</time></trkpt><trkpt lat="43.50485491121095" lon="10.618693090697764"><ele>312.0</ele><time>2026-04-18T15:58:59.001Z</time></trkpt><trkpt lat="43.50478360389489" lon="10.618825361141045"><ele>312.0</ele><time>2026-04-18T15:59:01.001Z</time></trkpt><trkpt lat="43.50473286966884" lon="10.618883864837636"><ele>312.0</ele><time>2026-04-18T15:59:02.001Z</time></trkpt><trkpt lat="43.50467064438958" lon="10.618935262400639"><ele>312.0</ele><time>2026-04-18T15:59:03.001Z</time></trkpt><trkpt lat="43.50460458785723" lon="10.618993259542815"><ele>312.0</ele><time>2026-04-18T15:59:04.001Z</time></trkpt><trkpt lat="43.504545008925355" lon="10.61904099151688"><ele>312.0</ele><time>2026-04-18T15:59:05.001Z</time></trkpt><trkpt lat="43.50449377070739" lon="10.61909174106188"><ele>312.0</ele><time>2026-04-18T15:59:06.001Z</time></trkpt><trkpt lat="43.50444237287121" lon="10.619176358439184"><ele>312.0</ele><time>2026-04-18T15:59:07.001Z</time></trkpt><trkpt lat="43.50436982326066" lon="10.61930158236918"><ele>313.3333333333333</ele><time>2026-04-18T15:59:09.001Z</time></trkpt><trkpt lat="43.50432249465748" lon="10.619376315072197"><ele>314.6666666666667</ele><time>2026-04-18T15:59:11.001Z</time></trkpt><trkpt lat="43.50425176472874" lon="10.619381281941074"><ele>316.0</ele><time>2026-04-18T15:59:14.002Z</time></trkpt><trkpt lat="43.50418916989155" lon="10.61926404162793"><ele>317.33333333333337</ele><time>2026-04-18T15:59:16.002Z</time></trkpt><trkpt lat="43.504132362010466" lon="10.619220458468828"><ele>318.6666666666667</ele><time>2026-04-18T15:59:17.002Z</time></trkpt><trkpt lat="43.5040640016965" lon="10.619205936957451"><ele>320.0</ele><time>2026-04-18T15:59:18.002Z</time></trkpt><trkpt lat="43.50401080230263" lon="10.619148408470418"><ele>320.0</ele><time>2026-04-18T15:59:19.002Z</time></trkpt><trkpt lat="43.50395408170997" lon="10.61910330624553"><ele>320.0</ele><time>2026-04-18T15:59:20.002Z</time></trkpt><trkpt lat="43.50388871646974" lon="10.619055283646214"><ele>320.0</ele><time>2026-04-18T15:59:21.002Z</time></trkpt><trkpt lat="43.50381620346842" lon="10.619020279367147"><ele>320.0</ele><time>2026-04-18T15:59:22.002Z</time></trkpt><trkpt lat="43.50373250618154" lon="10.61901068866896"><ele>320.0</ele><time>2026-04-18T15:59:23.002Z</time></trkpt><trkpt lat="43.503655865189124" lon="10.61904907068259"><ele>320.0</ele><time>2026-04-18T15:59:24.002Z</time></trkpt><trkpt lat="43.50359025451593" lon="10.619051325599136"><ele>320.0</ele><time>2026-04-18T15:59:25.002Z</time></trkpt><trkpt lat="43.50348834866592" lon="10.619104905896286"><ele>320.0</ele><time>2026-04-18T15:59:27.002Z</time></trkpt><trkpt lat="43.50341731767574" lon="10.619142826565918"><ele>320.0</ele><time>2026-04-18T15:59:29.002Z</time></trkpt><trkpt lat="43.5033841106992" lon="10.619042014093834"><ele>320.0</ele><time>2026-04-18T15:59:30.002Z</time></trkpt><trkpt lat="43.50329160334032" lon="10.618979020248613"><ele>320.0</ele><time>2026-04-18T15:59:32.002Z</time></trkpt><trkpt lat="43.50320351187116" lon="10.618951056873762"><ele>320.0</ele><time>2026-04-18T15:59:34.002Z</time></trkpt><trkpt lat="43.50313760034942" lon="10.618960703211242"><ele>320.0</ele><time>2026-04-18T15:59:37.002Z</time></trkpt><trkpt lat="43.50307713652399" lon="10.618925271613678"><ele>320.0</ele><time>2026-04-18T15:59:42.002Z</time></trkpt><trkpt lat="43.502999302634734" lon="10.618910662778992"><ele>320.0</ele><time>2026-04-18T15:59:48.002Z</time></trkpt><trkpt lat="43.50293047716811" lon="10.618909150044855"><ele>320.0</ele><time>2026-04-18T15:59:52.002Z</time></trkpt><trkpt lat="43.5028561952564" lon="10.618887321876242"><ele>320.0</ele><time>2026-04-18T15:59:56Z</time></trkpt><trkpt lat="43.50278260836503" lon="10.618874282983322"><ele>320.0</ele><time>2026-04-18T15:59:59Z</time></trkpt><trkpt lat="43.50270202967116" lon="10.61888034432391"><ele>320.0</ele><time>2026-04-18T16:00:02Z</time></trkpt><trkpt lat="43.50264079445049" lon="10.618904888340664"><ele>320.0</ele><time>2026-04-18T16:00:07Z</time></trkpt><trkpt lat="43.50270872004629" lon="10.618876251857774"><ele>313.0</ele><time>2026-04-18T16:00:23Z</time></trkpt><trkpt lat="43.50279741207301" lon="10.618878224549436"><ele>313.0</ele><time>2026-04-18T16:00:26Z</time></trkpt><trkpt lat="43.502868384066865" lon="10.618887707555672"><ele>313.0</ele><time>2026-04-18T16:00:29.001Z</time></trkpt><trkpt lat="43.50294112921225" lon="10.618899836026456"><ele>320.0</ele><time>2026-04-18T16:00:32.001Z</time></trkpt><trkpt lat="43.50302643997097" lon="10.618915713331221"><ele>320.0</ele><time>2026-04-18T16:00:35.001Z</time></trkpt><trkpt lat="43.50302643997097" lon="10.618915713331221"><ele>320.0</ele><time>2026-04-18T16:00:35.001Z</time></trkpt></trkseg></trk></gpx>